<?xml version="1.0" encoding="UTF-8" standalone="no" ?>
<gpx xmlns="http://www.topografix.com/GPX/1/1" xmlns:xsi="http://www.w3.org/2001/XMLSchema-instance" xsi:schemaLocation="http://www.topografix.com/GPX/1/1 http://www.topografix.com/GPX/1/1/gpx.xsd" version="1.1" creator="VisuGPX - https://www.visugpx.com">
  <metadata>
    <name>Chèvrerie départ Aiglun [dupliqué]</name>
    <desc><![CDATA[

Dupliqué de [url]https://www.visugpx.com/89NAyjHJN9[/url]]]></desc>
  </metadata>
  <trk>
    <name><![CDATA[Chèvrerie départ Aiglun [dupliqué]_1]]></name>
    <extensions>
      <line xmlns="http://www.topografix.com/GPX/gpx_style/0/2">
        <color>0000FF</color>
        <width>4</width>
      </line>
    </extensions>
    <trkseg>
      <trkpt lat="44.04027" lon="6.15209">
        <ele>524</ele>
        <time>2020-10-18T07:26:33Z</time>
      </trkpt>
      <trkpt lat="44.04026" lon="6.15211">
        <ele>524.2</ele>
        <time>2020-10-18T07:26:37Z</time>
      </trkpt>
      <trkpt lat="44.04026" lon="6.15213">
        <ele>524</ele>
        <time>2020-10-18T07:26:39Z</time>
      </trkpt>
      <trkpt lat="44.04026" lon="6.15214">
        <ele>524</ele>
        <time>2020-10-18T07:26:41Z</time>
      </trkpt>
      <trkpt lat="44.04026" lon="6.15216">
        <ele>524</ele>
        <time>2020-10-18T07:26:43Z</time>
      </trkpt>
      <trkpt lat="44.04026" lon="6.15216">
        <ele>524.2</ele>
        <time>2020-10-18T07:26:44Z</time>
      </trkpt>
      <trkpt lat="44.04026" lon="6.15216">
        <ele>524</ele>
        <time>2020-10-18T07:26:45Z</time>
      </trkpt>
      <trkpt lat="44.04026" lon="6.15218">
        <ele>524</ele>
        <time>2020-10-18T07:26:46Z</time>
      </trkpt>
      <trkpt lat="44.04026" lon="6.15222">
        <ele>524</ele>
        <time>2020-10-18T07:26:47Z</time>
      </trkpt>
      <trkpt lat="44.04024" lon="6.15224">
        <ele>524</ele>
        <time>2020-10-18T07:26:48Z</time>
      </trkpt>
      <trkpt lat="44.04023" lon="6.15225">
        <ele>524</ele>
        <time>2020-10-18T07:26:49Z</time>
      </trkpt>
      <trkpt lat="44.04022" lon="6.15225">
        <ele>524</ele>
        <time>2020-10-18T07:26:50Z</time>
      </trkpt>
      <trkpt lat="44.04021" lon="6.15226">
        <ele>524.2</ele>
        <time>2020-10-18T07:26:51Z</time>
      </trkpt>
      <trkpt lat="44.04019" lon="6.15226">
        <ele>524</ele>
        <time>2020-10-18T07:26:52Z</time>
      </trkpt>
      <trkpt lat="44.04018" lon="6.15225">
        <ele>524</ele>
        <time>2020-10-18T07:26:53Z</time>
      </trkpt>
      <trkpt lat="44.04016" lon="6.15223">
        <ele>524.2</ele>
        <time>2020-10-18T07:26:54Z</time>
      </trkpt>
      <trkpt lat="44.04015" lon="6.15222">
        <ele>524</ele>
        <time>2020-10-18T07:26:55Z</time>
      </trkpt>
      <trkpt lat="44.04013" lon="6.1522">
        <ele>524</ele>
        <time>2020-10-18T07:26:56Z</time>
      </trkpt>
      <trkpt lat="44.04011" lon="6.15218">
        <ele>524.2</ele>
        <time>2020-10-18T07:26:57Z</time>
      </trkpt>
      <trkpt lat="44.04009" lon="6.15217">
        <ele>524.2</ele>
        <time>2020-10-18T07:26:58Z</time>
      </trkpt>
      <trkpt lat="44.04006" lon="6.15215">
        <ele>524.2</ele>
        <time>2020-10-18T07:26:59Z</time>
      </trkpt>
      <trkpt lat="44.04002" lon="6.15212">
        <ele>524.2</ele>
        <time>2020-10-18T07:27:01Z</time>
      </trkpt>
      <trkpt lat="44.04" lon="6.15211">
        <ele>524.4</ele>
        <time>2020-10-18T07:27:02Z</time>
      </trkpt>
      <trkpt lat="44.03997" lon="6.15209">
        <ele>524.4</ele>
        <time>2020-10-18T07:27:03Z</time>
      </trkpt>
      <trkpt lat="44.03993" lon="6.15207">
        <ele>524.4</ele>
        <time>2020-10-18T07:27:05Z</time>
      </trkpt>
      <trkpt lat="44.0399" lon="6.15206">
        <ele>524.6</ele>
        <time>2020-10-18T07:27:06Z</time>
      </trkpt>
      <trkpt lat="44.03988" lon="6.15205">
        <ele>524.6</ele>
        <time>2020-10-18T07:27:07Z</time>
      </trkpt>
      <trkpt lat="44.03986" lon="6.15203">
        <ele>524.8</ele>
        <time>2020-10-18T07:27:08Z</time>
      </trkpt>
      <trkpt lat="44.03985" lon="6.15201">
        <ele>525</ele>
        <time>2020-10-18T07:27:09Z</time>
      </trkpt>
      <trkpt lat="44.03984" lon="6.15199">
        <ele>525.4</ele>
        <time>2020-10-18T07:27:10Z</time>
      </trkpt>
      <trkpt lat="44.03983" lon="6.15196">
        <ele>525.8</ele>
        <time>2020-10-18T07:27:11Z</time>
      </trkpt>
      <trkpt lat="44.03982" lon="6.15193">
        <ele>526</ele>
        <time>2020-10-18T07:27:12Z</time>
      </trkpt>
      <trkpt lat="44.03981" lon="6.1519">
        <ele>526.2</ele>
        <time>2020-10-18T07:27:13Z</time>
      </trkpt>
      <trkpt lat="44.03981" lon="6.15187">
        <ele>526.6</ele>
        <time>2020-10-18T07:27:14Z</time>
      </trkpt>
      <trkpt lat="44.0398" lon="6.15184">
        <ele>526.6</ele>
        <time>2020-10-18T07:27:15Z</time>
      </trkpt>
      <trkpt lat="44.03979" lon="6.1518">
        <ele>527</ele>
        <time>2020-10-18T07:27:16Z</time>
      </trkpt>
      <trkpt lat="44.03978" lon="6.15176">
        <ele>527.2</ele>
        <time>2020-10-18T07:27:17Z</time>
      </trkpt>
      <trkpt lat="44.03977" lon="6.15172">
        <ele>527.2</ele>
        <time>2020-10-18T07:27:18Z</time>
      </trkpt>
      <trkpt lat="44.03976" lon="6.15167">
        <ele>527.2</ele>
        <time>2020-10-18T07:27:19Z</time>
      </trkpt>
      <trkpt lat="44.03975" lon="6.15163">
        <ele>527.2</ele>
        <time>2020-10-18T07:27:20Z</time>
      </trkpt>
      <trkpt lat="44.03974" lon="6.15158">
        <ele>527.6</ele>
        <time>2020-10-18T07:27:21Z</time>
      </trkpt>
      <trkpt lat="44.03973" lon="6.15153">
        <ele>527.6</ele>
        <time>2020-10-18T07:27:22Z</time>
      </trkpt>
      <trkpt lat="44.03973" lon="6.15148">
        <ele>527.8</ele>
        <time>2020-10-18T07:27:23Z</time>
      </trkpt>
      <trkpt lat="44.03972" lon="6.15144">
        <ele>527.8</ele>
        <time>2020-10-18T07:27:24Z</time>
      </trkpt>
      <trkpt lat="44.0397" lon="6.15139">
        <ele>527.6</ele>
        <time>2020-10-18T07:27:25Z</time>
      </trkpt>
      <trkpt lat="44.03969" lon="6.15134">
        <ele>527.8</ele>
        <time>2020-10-18T07:27:26Z</time>
      </trkpt>
      <trkpt lat="44.03969" lon="6.1513">
        <ele>527.8</ele>
        <time>2020-10-18T07:27:27Z</time>
      </trkpt>
      <trkpt lat="44.03969" lon="6.15125">
        <ele>527.8</ele>
        <time>2020-10-18T07:27:28Z</time>
      </trkpt>
      <trkpt lat="44.0397" lon="6.1512">
        <ele>527.8</ele>
        <time>2020-10-18T07:27:29Z</time>
      </trkpt>
      <trkpt lat="44.03972" lon="6.15115">
        <ele>527.8</ele>
        <time>2020-10-18T07:27:30Z</time>
      </trkpt>
      <trkpt lat="44.03975" lon="6.15111">
        <ele>527.6</ele>
        <time>2020-10-18T07:27:31Z</time>
      </trkpt>
      <trkpt lat="44.03979" lon="6.15106">
        <ele>527.6</ele>
        <time>2020-10-18T07:27:32Z</time>
      </trkpt>
      <trkpt lat="44.03983" lon="6.15101">
        <ele>527.6</ele>
        <time>2020-10-18T07:27:33Z</time>
      </trkpt>
      <trkpt lat="44.03994" lon="6.1509">
        <ele>527.2</ele>
        <time>2020-10-18T07:27:35Z</time>
      </trkpt>
      <trkpt lat="44.04007" lon="6.15078">
        <ele>526.8</ele>
        <time>2020-10-18T07:27:37Z</time>
      </trkpt>
      <trkpt lat="44.04014" lon="6.15072">
        <ele>526.8</ele>
        <time>2020-10-18T07:27:38Z</time>
      </trkpt>
      <trkpt lat="44.0402" lon="6.15066">
        <ele>526.4</ele>
        <time>2020-10-18T07:27:39Z</time>
      </trkpt>
      <trkpt lat="44.04026" lon="6.15061">
        <ele>526.4</ele>
        <time>2020-10-18T07:27:40Z</time>
      </trkpt>
      <trkpt lat="44.04032" lon="6.15055">
        <ele>526.4</ele>
        <time>2020-10-18T07:27:41Z</time>
      </trkpt>
      <trkpt lat="44.04037" lon="6.15049">
        <ele>525.4</ele>
        <time>2020-10-18T07:27:42Z</time>
      </trkpt>
      <trkpt lat="44.04043" lon="6.15043">
        <ele>524.4</ele>
        <time>2020-10-18T07:27:43Z</time>
      </trkpt>
      <trkpt lat="44.04048" lon="6.15038">
        <ele>523.6</ele>
        <time>2020-10-18T07:27:44Z</time>
      </trkpt>
      <trkpt lat="44.04054" lon="6.15033">
        <ele>523.2</ele>
        <time>2020-10-18T07:27:45Z</time>
      </trkpt>
      <trkpt lat="44.04059" lon="6.15028">
        <ele>522.6</ele>
        <time>2020-10-18T07:27:46Z</time>
      </trkpt>
      <trkpt lat="44.04065" lon="6.15023">
        <ele>522.2</ele>
        <time>2020-10-18T07:27:47Z</time>
      </trkpt>
      <trkpt lat="44.0407" lon="6.15018">
        <ele>522</ele>
        <time>2020-10-18T07:27:48Z</time>
      </trkpt>
      <trkpt lat="44.04075" lon="6.15013">
        <ele>521.8</ele>
        <time>2020-10-18T07:27:49Z</time>
      </trkpt>
      <trkpt lat="44.04085" lon="6.15004">
        <ele>521</ele>
        <time>2020-10-18T07:27:51Z</time>
      </trkpt>
      <trkpt lat="44.0409" lon="6.14999">
        <ele>520.6</ele>
        <time>2020-10-18T07:27:52Z</time>
      </trkpt>
      <trkpt lat="44.04095" lon="6.14996">
        <ele>520.4</ele>
        <time>2020-10-18T07:27:53Z</time>
      </trkpt>
      <trkpt lat="44.041" lon="6.14991">
        <ele>520</ele>
        <time>2020-10-18T07:27:54Z</time>
      </trkpt>
      <trkpt lat="44.04106" lon="6.14987">
        <ele>520</ele>
        <time>2020-10-18T07:27:55Z</time>
      </trkpt>
      <trkpt lat="44.0411" lon="6.14982">
        <ele>519.6</ele>
        <time>2020-10-18T07:27:56Z</time>
      </trkpt>
      <trkpt lat="44.04115" lon="6.14977">
        <ele>519.4</ele>
        <time>2020-10-18T07:27:57Z</time>
      </trkpt>
      <trkpt lat="44.0412" lon="6.14972">
        <ele>519.4</ele>
        <time>2020-10-18T07:27:58Z</time>
      </trkpt>
      <trkpt lat="44.04125" lon="6.14966">
        <ele>519.2</ele>
        <time>2020-10-18T07:27:59Z</time>
      </trkpt>
      <trkpt lat="44.04135" lon="6.14956">
        <ele>519</ele>
        <time>2020-10-18T07:28:01Z</time>
      </trkpt>
      <trkpt lat="44.04145" lon="6.14946">
        <ele>518.8</ele>
        <time>2020-10-18T07:28:03Z</time>
      </trkpt>
      <trkpt lat="44.0415" lon="6.1494">
        <ele>519</ele>
        <time>2020-10-18T07:28:04Z</time>
      </trkpt>
      <trkpt lat="44.04155" lon="6.14934">
        <ele>518.8</ele>
        <time>2020-10-18T07:28:05Z</time>
      </trkpt>
      <trkpt lat="44.04159" lon="6.14928">
        <ele>518.4</ele>
        <time>2020-10-18T07:28:06Z</time>
      </trkpt>
      <trkpt lat="44.04164" lon="6.14923">
        <ele>518.2</ele>
        <time>2020-10-18T07:28:07Z</time>
      </trkpt>
      <trkpt lat="44.04174" lon="6.14912">
        <ele>517.6</ele>
        <time>2020-10-18T07:28:09Z</time>
      </trkpt>
      <trkpt lat="44.04178" lon="6.14906">
        <ele>517.2</ele>
        <time>2020-10-18T07:28:10Z</time>
      </trkpt>
      <trkpt lat="44.04181" lon="6.14899">
        <ele>516.6</ele>
        <time>2020-10-18T07:28:11Z</time>
      </trkpt>
      <trkpt lat="44.04182" lon="6.14892">
        <ele>516.4</ele>
        <time>2020-10-18T07:28:12Z</time>
      </trkpt>
      <trkpt lat="44.04183" lon="6.14884">
        <ele>516.2</ele>
        <time>2020-10-18T07:28:13Z</time>
      </trkpt>
      <trkpt lat="44.04182" lon="6.14876">
        <ele>515.6</ele>
        <time>2020-10-18T07:28:14Z</time>
      </trkpt>
      <trkpt lat="44.0418" lon="6.14869">
        <ele>515.4</ele>
        <time>2020-10-18T07:28:15Z</time>
      </trkpt>
      <trkpt lat="44.04179" lon="6.14862">
        <ele>515.2</ele>
        <time>2020-10-18T07:28:16Z</time>
      </trkpt>
      <trkpt lat="44.0418" lon="6.14856">
        <ele>514.8</ele>
        <time>2020-10-18T07:28:17Z</time>
      </trkpt>
      <trkpt lat="44.04181" lon="6.14849">
        <ele>514.6</ele>
        <time>2020-10-18T07:28:18Z</time>
      </trkpt>
      <trkpt lat="44.04182" lon="6.14841">
        <ele>514.2</ele>
        <time>2020-10-18T07:28:19Z</time>
      </trkpt>
      <trkpt lat="44.04182" lon="6.14834">
        <ele>514.2</ele>
        <time>2020-10-18T07:28:20Z</time>
      </trkpt>
      <trkpt lat="44.04181" lon="6.14828">
        <ele>514</ele>
        <time>2020-10-18T07:28:21Z</time>
      </trkpt>
      <trkpt lat="44.0418" lon="6.14821">
        <ele>513.8</ele>
        <time>2020-10-18T07:28:22Z</time>
      </trkpt>
      <trkpt lat="44.04178" lon="6.14814">
        <ele>513.4</ele>
        <time>2020-10-18T07:28:23Z</time>
      </trkpt>
      <trkpt lat="44.04176" lon="6.14807">
        <ele>513.2</ele>
        <time>2020-10-18T07:28:24Z</time>
      </trkpt>
      <trkpt lat="44.04174" lon="6.14801">
        <ele>513.2</ele>
        <time>2020-10-18T07:28:25Z</time>
      </trkpt>
      <trkpt lat="44.04173" lon="6.14795">
        <ele>513</ele>
        <time>2020-10-18T07:28:26Z</time>
      </trkpt>
      <trkpt lat="44.04171" lon="6.14789">
        <ele>512.8</ele>
        <time>2020-10-18T07:28:27Z</time>
      </trkpt>
      <trkpt lat="44.04169" lon="6.14783">
        <ele>512.8</ele>
        <time>2020-10-18T07:28:28Z</time>
      </trkpt>
      <trkpt lat="44.04166" lon="6.14777">
        <ele>512.6</ele>
        <time>2020-10-18T07:28:29Z</time>
      </trkpt>
      <trkpt lat="44.04163" lon="6.14764">
        <ele>512.4</ele>
        <time>2020-10-18T07:28:31Z</time>
      </trkpt>
      <trkpt lat="44.0416" lon="6.14751">
        <ele>512.2</ele>
        <time>2020-10-18T07:28:33Z</time>
      </trkpt>
      <trkpt lat="44.04159" lon="6.14744">
        <ele>512.2</ele>
        <time>2020-10-18T07:28:34Z</time>
      </trkpt>
      <trkpt lat="44.04157" lon="6.14738">
        <ele>512</ele>
        <time>2020-10-18T07:28:35Z</time>
      </trkpt>
      <trkpt lat="44.04155" lon="6.14731">
        <ele>511.8</ele>
        <time>2020-10-18T07:28:36Z</time>
      </trkpt>
      <trkpt lat="44.04152" lon="6.14724">
        <ele>511.8</ele>
        <time>2020-10-18T07:28:37Z</time>
      </trkpt>
      <trkpt lat="44.04149" lon="6.14717">
        <ele>511.8</ele>
        <time>2020-10-18T07:28:38Z</time>
      </trkpt>
      <trkpt lat="44.04145" lon="6.14709">
        <ele>511.8</ele>
        <time>2020-10-18T07:28:39Z</time>
      </trkpt>
      <trkpt lat="44.04142" lon="6.14702">
        <ele>511.8</ele>
        <time>2020-10-18T07:28:40Z</time>
      </trkpt>
      <trkpt lat="44.04139" lon="6.14695">
        <ele>511.6</ele>
        <time>2020-10-18T07:28:41Z</time>
      </trkpt>
      <trkpt lat="44.04136" lon="6.14688">
        <ele>511.6</ele>
        <time>2020-10-18T07:28:42Z</time>
      </trkpt>
      <trkpt lat="44.04133" lon="6.14682">
        <ele>511.6</ele>
        <time>2020-10-18T07:28:43Z</time>
      </trkpt>
      <trkpt lat="44.0413" lon="6.14675">
        <ele>511.6</ele>
        <time>2020-10-18T07:28:44Z</time>
      </trkpt>
      <trkpt lat="44.04127" lon="6.14669">
        <ele>511.4</ele>
        <time>2020-10-18T07:28:45Z</time>
      </trkpt>
      <trkpt lat="44.0412" lon="6.14653">
        <ele>511.2</ele>
        <time>2020-10-18T07:28:47Z</time>
      </trkpt>
      <trkpt lat="44.04114" lon="6.1464">
        <ele>511.2</ele>
        <time>2020-10-18T07:28:49Z</time>
      </trkpt>
      <trkpt lat="44.04111" lon="6.14634">
        <ele>511.2</ele>
        <time>2020-10-18T07:28:50Z</time>
      </trkpt>
      <trkpt lat="44.04107" lon="6.14627">
        <ele>511.2</ele>
        <time>2020-10-18T07:28:51Z</time>
      </trkpt>
      <trkpt lat="44.04103" lon="6.14621">
        <ele>511</ele>
        <time>2020-10-18T07:28:52Z</time>
      </trkpt>
      <trkpt lat="44.041" lon="6.14615">
        <ele>511</ele>
        <time>2020-10-18T07:28:53Z</time>
      </trkpt>
      <trkpt lat="44.04096" lon="6.14609">
        <ele>511</ele>
        <time>2020-10-18T07:28:54Z</time>
      </trkpt>
      <trkpt lat="44.04092" lon="6.14602">
        <ele>511</ele>
        <time>2020-10-18T07:28:55Z</time>
      </trkpt>
      <trkpt lat="44.04089" lon="6.14595">
        <ele>510.8</ele>
        <time>2020-10-18T07:28:56Z</time>
      </trkpt>
      <trkpt lat="44.04085" lon="6.14588">
        <ele>510.8</ele>
        <time>2020-10-18T07:28:57Z</time>
      </trkpt>
      <trkpt lat="44.04078" lon="6.14574">
        <ele>510.8</ele>
        <time>2020-10-18T07:28:59Z</time>
      </trkpt>
      <trkpt lat="44.04071" lon="6.14561">
        <ele>510.6</ele>
        <time>2020-10-18T07:29:01Z</time>
      </trkpt>
      <trkpt lat="44.04067" lon="6.14555">
        <ele>510.6</ele>
        <time>2020-10-18T07:29:02Z</time>
      </trkpt>
      <trkpt lat="44.04064" lon="6.14548">
        <ele>510.6</ele>
        <time>2020-10-18T07:29:03Z</time>
      </trkpt>
      <trkpt lat="44.04056" lon="6.14535">
        <ele>510.4</ele>
        <time>2020-10-18T07:29:05Z</time>
      </trkpt>
      <trkpt lat="44.04051" lon="6.1453">
        <ele>510.4</ele>
        <time>2020-10-18T07:29:06Z</time>
      </trkpt>
      <trkpt lat="44.04046" lon="6.14526">
        <ele>510.2</ele>
        <time>2020-10-18T07:29:07Z</time>
      </trkpt>
      <trkpt lat="44.04042" lon="6.14524">
        <ele>510.2</ele>
        <time>2020-10-18T07:29:08Z</time>
      </trkpt>
      <trkpt lat="44.04037" lon="6.14522">
        <ele>510.2</ele>
        <time>2020-10-18T07:29:09Z</time>
      </trkpt>
      <trkpt lat="44.04032" lon="6.1452">
        <ele>509.8</ele>
        <time>2020-10-18T07:29:10Z</time>
      </trkpt>
      <trkpt lat="44.04027" lon="6.14518">
        <ele>509.8</ele>
        <time>2020-10-18T07:29:11Z</time>
      </trkpt>
      <trkpt lat="44.04018" lon="6.14513">
        <ele>509.4</ele>
        <time>2020-10-18T07:29:13Z</time>
      </trkpt>
      <trkpt lat="44.04014" lon="6.1451">
        <ele>509.2</ele>
        <time>2020-10-18T07:29:14Z</time>
      </trkpt>
      <trkpt lat="44.04009" lon="6.14507">
        <ele>509</ele>
        <time>2020-10-18T07:29:15Z</time>
      </trkpt>
      <trkpt lat="44.03999" lon="6.14502">
        <ele>509.2</ele>
        <time>2020-10-18T07:29:17Z</time>
      </trkpt>
      <trkpt lat="44.03995" lon="6.14497">
        <ele>509.2</ele>
        <time>2020-10-18T07:29:18Z</time>
      </trkpt>
      <trkpt lat="44.03989" lon="6.14493">
        <ele>509.2</ele>
        <time>2020-10-18T07:29:19Z</time>
      </trkpt>
      <trkpt lat="44.03985" lon="6.14488">
        <ele>509</ele>
        <time>2020-10-18T07:29:20Z</time>
      </trkpt>
      <trkpt lat="44.0398" lon="6.14481">
        <ele>508.8</ele>
        <time>2020-10-18T07:29:21Z</time>
      </trkpt>
      <trkpt lat="44.03976" lon="6.14473">
        <ele>509</ele>
        <time>2020-10-18T07:29:22Z</time>
      </trkpt>
      <trkpt lat="44.03971" lon="6.14467">
        <ele>509</ele>
        <time>2020-10-18T07:29:23Z</time>
      </trkpt>
      <trkpt lat="44.03961" lon="6.14451">
        <ele>508.8</ele>
        <time>2020-10-18T07:29:25Z</time>
      </trkpt>
      <trkpt lat="44.0395" lon="6.14437">
        <ele>508.6</ele>
        <time>2020-10-18T07:29:27Z</time>
      </trkpt>
      <trkpt lat="44.0394" lon="6.14425">
        <ele>508.8</ele>
        <time>2020-10-18T07:29:29Z</time>
      </trkpt>
      <trkpt lat="44.03936" lon="6.14418">
        <ele>508.8</ele>
        <time>2020-10-18T07:29:30Z</time>
      </trkpt>
      <trkpt lat="44.03933" lon="6.14412">
        <ele>508.8</ele>
        <time>2020-10-18T07:29:31Z</time>
      </trkpt>
      <trkpt lat="44.03931" lon="6.14406">
        <ele>509</ele>
        <time>2020-10-18T07:29:32Z</time>
      </trkpt>
      <trkpt lat="44.03929" lon="6.14399">
        <ele>509</ele>
        <time>2020-10-18T07:29:33Z</time>
      </trkpt>
      <trkpt lat="44.0393" lon="6.14393">
        <ele>509.2</ele>
        <time>2020-10-18T07:29:34Z</time>
      </trkpt>
      <trkpt lat="44.03931" lon="6.14386">
        <ele>509.2</ele>
        <time>2020-10-18T07:29:35Z</time>
      </trkpt>
      <trkpt lat="44.03934" lon="6.14381">
        <ele>509</ele>
        <time>2020-10-18T07:29:36Z</time>
      </trkpt>
      <trkpt lat="44.03937" lon="6.14377">
        <ele>509</ele>
        <time>2020-10-18T07:29:37Z</time>
      </trkpt>
      <trkpt lat="44.0394" lon="6.14373">
        <ele>509.2</ele>
        <time>2020-10-18T07:29:38Z</time>
      </trkpt>
      <trkpt lat="44.03944" lon="6.14369">
        <ele>509.2</ele>
        <time>2020-10-18T07:29:39Z</time>
      </trkpt>
      <trkpt lat="44.03947" lon="6.14364">
        <ele>509.4</ele>
        <time>2020-10-18T07:29:40Z</time>
      </trkpt>
      <trkpt lat="44.0395" lon="6.1436">
        <ele>509.8</ele>
        <time>2020-10-18T07:29:41Z</time>
      </trkpt>
      <trkpt lat="44.03957" lon="6.14351">
        <ele>510.2</ele>
        <time>2020-10-18T07:29:43Z</time>
      </trkpt>
      <trkpt lat="44.0396" lon="6.14347">
        <ele>510.6</ele>
        <time>2020-10-18T07:29:44Z</time>
      </trkpt>
      <trkpt lat="44.03963" lon="6.14343">
        <ele>510.8</ele>
        <time>2020-10-18T07:29:45Z</time>
      </trkpt>
      <trkpt lat="44.03966" lon="6.14339">
        <ele>511</ele>
        <time>2020-10-18T07:29:46Z</time>
      </trkpt>
      <trkpt lat="44.03969" lon="6.14334">
        <ele>510.8</ele>
        <time>2020-10-18T07:29:47Z</time>
      </trkpt>
      <trkpt lat="44.03972" lon="6.1433">
        <ele>511</ele>
        <time>2020-10-18T07:29:48Z</time>
      </trkpt>
      <trkpt lat="44.03976" lon="6.14326">
        <ele>511.2</ele>
        <time>2020-10-18T07:29:49Z</time>
      </trkpt>
      <trkpt lat="44.03982" lon="6.14318">
        <ele>511.2</ele>
        <time>2020-10-18T07:29:51Z</time>
      </trkpt>
      <trkpt lat="44.03985" lon="6.14313">
        <ele>511.4</ele>
        <time>2020-10-18T07:29:52Z</time>
      </trkpt>
      <trkpt lat="44.03988" lon="6.14309">
        <ele>511.4</ele>
        <time>2020-10-18T07:29:53Z</time>
      </trkpt>
      <trkpt lat="44.03995" lon="6.14301">
        <ele>511.6</ele>
        <time>2020-10-18T07:29:55Z</time>
      </trkpt>
      <trkpt lat="44.04002" lon="6.14292">
        <ele>511.6</ele>
        <time>2020-10-18T07:29:57Z</time>
      </trkpt>
      <trkpt lat="44.04005" lon="6.14287">
        <ele>511.8</ele>
        <time>2020-10-18T07:29:58Z</time>
      </trkpt>
      <trkpt lat="44.04009" lon="6.14283">
        <ele>511.8</ele>
        <time>2020-10-18T07:29:59Z</time>
      </trkpt>
      <trkpt lat="44.04015" lon="6.14274">
        <ele>511.8</ele>
        <time>2020-10-18T07:30:01Z</time>
      </trkpt>
      <trkpt lat="44.04019" lon="6.1427">
        <ele>511.8</ele>
        <time>2020-10-18T07:30:02Z</time>
      </trkpt>
      <trkpt lat="44.04022" lon="6.14266">
        <ele>512</ele>
        <time>2020-10-18T07:30:03Z</time>
      </trkpt>
      <trkpt lat="44.04029" lon="6.14257">
        <ele>512</ele>
        <time>2020-10-18T07:30:05Z</time>
      </trkpt>
      <trkpt lat="44.04036" lon="6.14248">
        <ele>512</ele>
        <time>2020-10-18T07:30:07Z</time>
      </trkpt>
      <trkpt lat="44.04043" lon="6.14239">
        <ele>512</ele>
        <time>2020-10-18T07:30:09Z</time>
      </trkpt>
      <trkpt lat="44.0405" lon="6.1423">
        <ele>512</ele>
        <time>2020-10-18T07:30:11Z</time>
      </trkpt>
      <trkpt lat="44.04053" lon="6.14225">
        <ele>512</ele>
        <time>2020-10-18T07:30:12Z</time>
      </trkpt>
      <trkpt lat="44.04056" lon="6.14221">
        <ele>512</ele>
        <time>2020-10-18T07:30:13Z</time>
      </trkpt>
      <trkpt lat="44.0406" lon="6.14216">
        <ele>511.8</ele>
        <time>2020-10-18T07:30:14Z</time>
      </trkpt>
      <trkpt lat="44.04064" lon="6.14212">
        <ele>512</ele>
        <time>2020-10-18T07:30:15Z</time>
      </trkpt>
      <trkpt lat="44.04071" lon="6.14202">
        <ele>512</ele>
        <time>2020-10-18T07:30:17Z</time>
      </trkpt>
      <trkpt lat="44.04078" lon="6.14193">
        <ele>511.8</ele>
        <time>2020-10-18T07:30:19Z</time>
      </trkpt>
      <trkpt lat="44.04085" lon="6.14183">
        <ele>511.8</ele>
        <time>2020-10-18T07:30:21Z</time>
      </trkpt>
      <trkpt lat="44.04089" lon="6.14178">
        <ele>511.8</ele>
        <time>2020-10-18T07:30:22Z</time>
      </trkpt>
      <trkpt lat="44.04093" lon="6.14173">
        <ele>511.6</ele>
        <time>2020-10-18T07:30:23Z</time>
      </trkpt>
      <trkpt lat="44.04101" lon="6.14163">
        <ele>511.4</ele>
        <time>2020-10-18T07:30:25Z</time>
      </trkpt>
      <trkpt lat="44.0411" lon="6.14153">
        <ele>511.4</ele>
        <time>2020-10-18T07:30:27Z</time>
      </trkpt>
      <trkpt lat="44.04118" lon="6.14142">
        <ele>511.2</ele>
        <time>2020-10-18T07:30:29Z</time>
      </trkpt>
      <trkpt lat="44.04123" lon="6.14137">
        <ele>511.2</ele>
        <time>2020-10-18T07:30:30Z</time>
      </trkpt>
      <trkpt lat="44.04127" lon="6.14132">
        <ele>510.8</ele>
        <time>2020-10-18T07:30:31Z</time>
      </trkpt>
      <trkpt lat="44.04137" lon="6.14121">
        <ele>510.8</ele>
        <time>2020-10-18T07:30:33Z</time>
      </trkpt>
      <trkpt lat="44.04148" lon="6.14111">
        <ele>510.6</ele>
        <time>2020-10-18T07:30:35Z</time>
      </trkpt>
      <trkpt lat="44.04159" lon="6.14102">
        <ele>510</ele>
        <time>2020-10-18T07:30:37Z</time>
      </trkpt>
      <trkpt lat="44.04165" lon="6.14097">
        <ele>510</ele>
        <time>2020-10-18T07:30:38Z</time>
      </trkpt>
      <trkpt lat="44.04171" lon="6.14092">
        <ele>509.8</ele>
        <time>2020-10-18T07:30:39Z</time>
      </trkpt>
      <trkpt lat="44.04182" lon="6.14083">
        <ele>509.4</ele>
        <time>2020-10-18T07:30:41Z</time>
      </trkpt>
      <trkpt lat="44.04193" lon="6.14074">
        <ele>509</ele>
        <time>2020-10-18T07:30:43Z</time>
      </trkpt>
      <trkpt lat="44.04205" lon="6.14066">
        <ele>509</ele>
        <time>2020-10-18T07:30:45Z</time>
      </trkpt>
      <trkpt lat="44.0421" lon="6.14061">
        <ele>508.6</ele>
        <time>2020-10-18T07:30:46Z</time>
      </trkpt>
      <trkpt lat="44.04215" lon="6.14057">
        <ele>508.4</ele>
        <time>2020-10-18T07:30:47Z</time>
      </trkpt>
      <trkpt lat="44.04221" lon="6.14053">
        <ele>508.4</ele>
        <time>2020-10-18T07:30:48Z</time>
      </trkpt>
      <trkpt lat="44.04226" lon="6.14049">
        <ele>508.2</ele>
        <time>2020-10-18T07:30:49Z</time>
      </trkpt>
      <trkpt lat="44.04231" lon="6.14044">
        <ele>508.4</ele>
        <time>2020-10-18T07:30:50Z</time>
      </trkpt>
      <trkpt lat="44.04237" lon="6.1404">
        <ele>508.2</ele>
        <time>2020-10-18T07:30:51Z</time>
      </trkpt>
      <trkpt lat="44.04242" lon="6.14036">
        <ele>508</ele>
        <time>2020-10-18T07:30:52Z</time>
      </trkpt>
      <trkpt lat="44.04246" lon="6.14032">
        <ele>508</ele>
        <time>2020-10-18T07:30:53Z</time>
      </trkpt>
      <trkpt lat="44.04251" lon="6.14029">
        <ele>508.2</ele>
        <time>2020-10-18T07:30:54Z</time>
      </trkpt>
      <trkpt lat="44.04256" lon="6.14025">
        <ele>508</ele>
        <time>2020-10-18T07:30:55Z</time>
      </trkpt>
      <trkpt lat="44.04267" lon="6.14017">
        <ele>507.8</ele>
        <time>2020-10-18T07:30:57Z</time>
      </trkpt>
      <trkpt lat="44.04278" lon="6.14009">
        <ele>507.8</ele>
        <time>2020-10-18T07:30:59Z</time>
      </trkpt>
      <trkpt lat="44.04283" lon="6.14005">
        <ele>507.8</ele>
        <time>2020-10-18T07:31:00Z</time>
      </trkpt>
      <trkpt lat="44.04288" lon="6.14001">
        <ele>507.8</ele>
        <time>2020-10-18T07:31:01Z</time>
      </trkpt>
      <trkpt lat="44.04299" lon="6.13991">
        <ele>507.8</ele>
        <time>2020-10-18T07:31:03Z</time>
      </trkpt>
      <trkpt lat="44.04311" lon="6.13981">
        <ele>507.8</ele>
        <time>2020-10-18T07:31:05Z</time>
      </trkpt>
      <trkpt lat="44.04317" lon="6.13976">
        <ele>507.6</ele>
        <time>2020-10-18T07:31:06Z</time>
      </trkpt>
      <trkpt lat="44.04323" lon="6.13972">
        <ele>507.4</ele>
        <time>2020-10-18T07:31:07Z</time>
      </trkpt>
      <trkpt lat="44.04328" lon="6.13967">
        <ele>507.4</ele>
        <time>2020-10-18T07:31:08Z</time>
      </trkpt>
      <trkpt lat="44.04334" lon="6.13962">
        <ele>507.4</ele>
        <time>2020-10-18T07:31:09Z</time>
      </trkpt>
      <trkpt lat="44.04346" lon="6.13953">
        <ele>507.2</ele>
        <time>2020-10-18T07:31:11Z</time>
      </trkpt>
      <trkpt lat="44.04358" lon="6.13943">
        <ele>507</ele>
        <time>2020-10-18T07:31:13Z</time>
      </trkpt>
      <trkpt lat="44.04363" lon="6.13938">
        <ele>506.8</ele>
        <time>2020-10-18T07:31:14Z</time>
      </trkpt>
      <trkpt lat="44.04369" lon="6.13933">
        <ele>506.8</ele>
        <time>2020-10-18T07:31:15Z</time>
      </trkpt>
      <trkpt lat="44.04374" lon="6.13929">
        <ele>506.6</ele>
        <time>2020-10-18T07:31:16Z</time>
      </trkpt>
      <trkpt lat="44.0438" lon="6.13924">
        <ele>506.6</ele>
        <time>2020-10-18T07:31:17Z</time>
      </trkpt>
      <trkpt lat="44.0439" lon="6.13914">
        <ele>506.6</ele>
        <time>2020-10-18T07:31:19Z</time>
      </trkpt>
      <trkpt lat="44.04396" lon="6.1391">
        <ele>506.6</ele>
        <time>2020-10-18T07:31:20Z</time>
      </trkpt>
      <trkpt lat="44.04401" lon="6.13906">
        <ele>506.6</ele>
        <time>2020-10-18T07:31:21Z</time>
      </trkpt>
      <trkpt lat="44.04406" lon="6.13902">
        <ele>506.6</ele>
        <time>2020-10-18T07:31:22Z</time>
      </trkpt>
      <trkpt lat="44.04411" lon="6.139">
        <ele>506.6</ele>
        <time>2020-10-18T07:31:23Z</time>
      </trkpt>
      <trkpt lat="44.04417" lon="6.139">
        <ele>506.6</ele>
        <time>2020-10-18T07:31:24Z</time>
      </trkpt>
      <trkpt lat="44.04421" lon="6.13904">
        <ele>506.6</ele>
        <time>2020-10-18T07:31:25Z</time>
      </trkpt>
      <trkpt lat="44.04424" lon="6.13909">
        <ele>506.6</ele>
        <time>2020-10-18T07:31:26Z</time>
      </trkpt>
      <trkpt lat="44.04427" lon="6.13916">
        <ele>506.4</ele>
        <time>2020-10-18T07:31:27Z</time>
      </trkpt>
      <trkpt lat="44.04429" lon="6.13922">
        <ele>506.4</ele>
        <time>2020-10-18T07:31:28Z</time>
      </trkpt>
      <trkpt lat="44.04432" lon="6.13929">
        <ele>506.4</ele>
        <time>2020-10-18T07:31:29Z</time>
      </trkpt>
      <trkpt lat="44.04435" lon="6.13935">
        <ele>506.4</ele>
        <time>2020-10-18T07:31:30Z</time>
      </trkpt>
      <trkpt lat="44.04438" lon="6.13941">
        <ele>506.4</ele>
        <time>2020-10-18T07:31:31Z</time>
      </trkpt>
      <trkpt lat="44.04443" lon="6.13953">
        <ele>506.4</ele>
        <time>2020-10-18T07:31:33Z</time>
      </trkpt>
      <trkpt lat="44.04446" lon="6.1396">
        <ele>506.6</ele>
        <time>2020-10-18T07:31:34Z</time>
      </trkpt>
      <trkpt lat="44.04447" lon="6.13966">
        <ele>506.4</ele>
        <time>2020-10-18T07:31:35Z</time>
      </trkpt>
      <trkpt lat="44.04447" lon="6.13973">
        <ele>506.4</ele>
        <time>2020-10-18T07:31:36Z</time>
      </trkpt>
      <trkpt lat="44.04445" lon="6.13979">
        <ele>506.4</ele>
        <time>2020-10-18T07:31:37Z</time>
      </trkpt>
      <trkpt lat="44.04442" lon="6.13984">
        <ele>506.4</ele>
        <time>2020-10-18T07:31:38Z</time>
      </trkpt>
      <trkpt lat="44.04439" lon="6.13988">
        <ele>506.6</ele>
        <time>2020-10-18T07:31:39Z</time>
      </trkpt>
      <trkpt lat="44.04435" lon="6.13992">
        <ele>506.4</ele>
        <time>2020-10-18T07:31:40Z</time>
      </trkpt>
      <trkpt lat="44.04432" lon="6.13996">
        <ele>506.6</ele>
        <time>2020-10-18T07:31:41Z</time>
      </trkpt>
      <trkpt lat="44.04428" lon="6.13999">
        <ele>506.6</ele>
        <time>2020-10-18T07:31:42Z</time>
      </trkpt>
      <trkpt lat="44.04425" lon="6.14003">
        <ele>506.6</ele>
        <time>2020-10-18T07:31:43Z</time>
      </trkpt>
      <trkpt lat="44.04423" lon="6.14007">
        <ele>506.8</ele>
        <time>2020-10-18T07:31:44Z</time>
      </trkpt>
      <trkpt lat="44.04421" lon="6.14012">
        <ele>507</ele>
        <time>2020-10-18T07:31:45Z</time>
      </trkpt>
      <trkpt lat="44.0442" lon="6.14017">
        <ele>507.2</ele>
        <time>2020-10-18T07:31:46Z</time>
      </trkpt>
      <trkpt lat="44.0442" lon="6.14022">
        <ele>507.2</ele>
        <time>2020-10-18T07:31:47Z</time>
      </trkpt>
      <trkpt lat="44.04421" lon="6.14028">
        <ele>507.4</ele>
        <time>2020-10-18T07:31:48Z</time>
      </trkpt>
      <trkpt lat="44.04423" lon="6.14033">
        <ele>507.2</ele>
        <time>2020-10-18T07:31:49Z</time>
      </trkpt>
      <trkpt lat="44.04425" lon="6.14038">
        <ele>507.4</ele>
        <time>2020-10-18T07:31:50Z</time>
      </trkpt>
      <trkpt lat="44.04427" lon="6.14043">
        <ele>507.6</ele>
        <time>2020-10-18T07:31:51Z</time>
      </trkpt>
      <trkpt lat="44.04429" lon="6.14049">
        <ele>507.6</ele>
        <time>2020-10-18T07:31:52Z</time>
      </trkpt>
      <trkpt lat="44.04431" lon="6.14054">
        <ele>507.8</ele>
        <time>2020-10-18T07:31:53Z</time>
      </trkpt>
      <trkpt lat="44.04435" lon="6.14065">
        <ele>508</ele>
        <time>2020-10-18T07:31:55Z</time>
      </trkpt>
      <trkpt lat="44.04439" lon="6.14077">
        <ele>508</ele>
        <time>2020-10-18T07:31:57Z</time>
      </trkpt>
      <trkpt lat="44.04442" lon="6.14088">
        <ele>508</ele>
        <time>2020-10-18T07:31:59Z</time>
      </trkpt>
      <trkpt lat="44.04446" lon="6.14099">
        <ele>508</ele>
        <time>2020-10-18T07:32:01Z</time>
      </trkpt>
      <trkpt lat="44.04448" lon="6.14105">
        <ele>508.2</ele>
        <time>2020-10-18T07:32:02Z</time>
      </trkpt>
      <trkpt lat="44.0445" lon="6.1411">
        <ele>508.4</ele>
        <time>2020-10-18T07:32:03Z</time>
      </trkpt>
      <trkpt lat="44.04454" lon="6.14121">
        <ele>508.4</ele>
        <time>2020-10-18T07:32:05Z</time>
      </trkpt>
      <trkpt lat="44.04458" lon="6.14132">
        <ele>508.4</ele>
        <time>2020-10-18T07:32:07Z</time>
      </trkpt>
      <trkpt lat="44.0446" lon="6.14138">
        <ele>508.6</ele>
        <time>2020-10-18T07:32:08Z</time>
      </trkpt>
      <trkpt lat="44.04462" lon="6.14143">
        <ele>508.8</ele>
        <time>2020-10-18T07:32:09Z</time>
      </trkpt>
      <trkpt lat="44.04464" lon="6.14149">
        <ele>508.6</ele>
        <time>2020-10-18T07:32:10Z</time>
      </trkpt>
      <trkpt lat="44.04466" lon="6.14155">
        <ele>508.8</ele>
        <time>2020-10-18T07:32:11Z</time>
      </trkpt>
      <trkpt lat="44.04471" lon="6.14166">
        <ele>509</ele>
        <time>2020-10-18T07:32:13Z</time>
      </trkpt>
      <trkpt lat="44.04475" lon="6.14178">
        <ele>509</ele>
        <time>2020-10-18T07:32:15Z</time>
      </trkpt>
      <trkpt lat="44.04479" lon="6.14189">
        <ele>509</ele>
        <time>2020-10-18T07:32:17Z</time>
      </trkpt>
      <trkpt lat="44.04481" lon="6.14195">
        <ele>509</ele>
        <time>2020-10-18T07:32:18Z</time>
      </trkpt>
      <trkpt lat="44.04483" lon="6.14201">
        <ele>509.2</ele>
        <time>2020-10-18T07:32:19Z</time>
      </trkpt>
      <trkpt lat="44.04485" lon="6.14206">
        <ele>509.2</ele>
        <time>2020-10-18T07:32:20Z</time>
      </trkpt>
      <trkpt lat="44.04487" lon="6.14211">
        <ele>509.4</ele>
        <time>2020-10-18T07:32:21Z</time>
      </trkpt>
      <trkpt lat="44.04489" lon="6.14215">
        <ele>509.4</ele>
        <time>2020-10-18T07:32:22Z</time>
      </trkpt>
      <trkpt lat="44.0449" lon="6.14219">
        <ele>509.2</ele>
        <time>2020-10-18T07:32:23Z</time>
      </trkpt>
      <trkpt lat="44.04492" lon="6.14223">
        <ele>509.4</ele>
        <time>2020-10-18T07:32:24Z</time>
      </trkpt>
      <trkpt lat="44.04493" lon="6.14227">
        <ele>509.4</ele>
        <time>2020-10-18T07:32:25Z</time>
      </trkpt>
      <trkpt lat="44.04495" lon="6.1423">
        <ele>509.6</ele>
        <time>2020-10-18T07:32:26Z</time>
      </trkpt>
      <trkpt lat="44.04496" lon="6.14234">
        <ele>509.8</ele>
        <time>2020-10-18T07:32:27Z</time>
      </trkpt>
      <trkpt lat="44.04498" lon="6.14237">
        <ele>510</ele>
        <time>2020-10-18T07:32:28Z</time>
      </trkpt>
      <trkpt lat="44.04499" lon="6.14242">
        <ele>510</ele>
        <time>2020-10-18T07:32:29Z</time>
      </trkpt>
      <trkpt lat="44.04501" lon="6.14247">
        <ele>510.4</ele>
        <time>2020-10-18T07:32:30Z</time>
      </trkpt>
      <trkpt lat="44.04503" lon="6.14253">
        <ele>510.8</ele>
        <time>2020-10-18T07:32:31Z</time>
      </trkpt>
      <trkpt lat="44.04505" lon="6.14259">
        <ele>510.8</ele>
        <time>2020-10-18T07:32:32Z</time>
      </trkpt>
      <trkpt lat="44.04508" lon="6.14265">
        <ele>510.8</ele>
        <time>2020-10-18T07:32:33Z</time>
      </trkpt>
      <trkpt lat="44.0451" lon="6.14272">
        <ele>510.8</ele>
        <time>2020-10-18T07:32:34Z</time>
      </trkpt>
      <trkpt lat="44.04512" lon="6.14278">
        <ele>511</ele>
        <time>2020-10-18T07:32:35Z</time>
      </trkpt>
      <trkpt lat="44.04516" lon="6.14291">
        <ele>511</ele>
        <time>2020-10-18T07:32:37Z</time>
      </trkpt>
      <trkpt lat="44.04521" lon="6.14305">
        <ele>510.8</ele>
        <time>2020-10-18T07:32:39Z</time>
      </trkpt>
      <trkpt lat="44.04523" lon="6.14311">
        <ele>511</ele>
        <time>2020-10-18T07:32:40Z</time>
      </trkpt>
      <trkpt lat="44.04525" lon="6.14318">
        <ele>510.8</ele>
        <time>2020-10-18T07:32:41Z</time>
      </trkpt>
      <trkpt lat="44.04529" lon="6.14332">
        <ele>510.6</ele>
        <time>2020-10-18T07:32:43Z</time>
      </trkpt>
      <trkpt lat="44.04533" lon="6.14345">
        <ele>510.6</ele>
        <time>2020-10-18T07:32:45Z</time>
      </trkpt>
      <trkpt lat="44.04535" lon="6.14352">
        <ele>510.6</ele>
        <time>2020-10-18T07:32:46Z</time>
      </trkpt>
      <trkpt lat="44.04537" lon="6.14358">
        <ele>510.6</ele>
        <time>2020-10-18T07:32:47Z</time>
      </trkpt>
      <trkpt lat="44.04541" lon="6.14372">
        <ele>510.6</ele>
        <time>2020-10-18T07:32:49Z</time>
      </trkpt>
      <trkpt lat="44.04545" lon="6.14385">
        <ele>510.6</ele>
        <time>2020-10-18T07:32:51Z</time>
      </trkpt>
      <trkpt lat="44.04549" lon="6.14398">
        <ele>510.6</ele>
        <time>2020-10-18T07:32:53Z</time>
      </trkpt>
      <trkpt lat="44.04552" lon="6.14405">
        <ele>510.6</ele>
        <time>2020-10-18T07:32:54Z</time>
      </trkpt>
      <trkpt lat="44.04554" lon="6.14411">
        <ele>510.6</ele>
        <time>2020-10-18T07:32:55Z</time>
      </trkpt>
      <trkpt lat="44.04558" lon="6.14424">
        <ele>510.6</ele>
        <time>2020-10-18T07:32:57Z</time>
      </trkpt>
      <trkpt lat="44.04562" lon="6.14437">
        <ele>510.6</ele>
        <time>2020-10-18T07:32:59Z</time>
      </trkpt>
      <trkpt lat="44.04566" lon="6.1445">
        <ele>510.6</ele>
        <time>2020-10-18T07:33:01Z</time>
      </trkpt>
      <trkpt lat="44.0457" lon="6.14464">
        <ele>510.6</ele>
        <time>2020-10-18T07:33:03Z</time>
      </trkpt>
      <trkpt lat="44.04572" lon="6.1447">
        <ele>510.8</ele>
        <time>2020-10-18T07:33:04Z</time>
      </trkpt>
      <trkpt lat="44.04574" lon="6.14477">
        <ele>510.8</ele>
        <time>2020-10-18T07:33:05Z</time>
      </trkpt>
      <trkpt lat="44.04578" lon="6.1449">
        <ele>510.8</ele>
        <time>2020-10-18T07:33:07Z</time>
      </trkpt>
      <trkpt lat="44.0458" lon="6.14496">
        <ele>510.8</ele>
        <time>2020-10-18T07:33:08Z</time>
      </trkpt>
      <trkpt lat="44.04583" lon="6.14503">
        <ele>510.8</ele>
        <time>2020-10-18T07:33:09Z</time>
      </trkpt>
      <trkpt lat="44.04587" lon="6.14516">
        <ele>511</ele>
        <time>2020-10-18T07:33:11Z</time>
      </trkpt>
      <trkpt lat="44.04591" lon="6.1453">
        <ele>510.8</ele>
        <time>2020-10-18T07:33:13Z</time>
      </trkpt>
      <trkpt lat="44.04595" lon="6.14543">
        <ele>511</ele>
        <time>2020-10-18T07:33:15Z</time>
      </trkpt>
      <trkpt lat="44.046" lon="6.14557">
        <ele>511.2</ele>
        <time>2020-10-18T07:33:17Z</time>
      </trkpt>
      <trkpt lat="44.04602" lon="6.14563">
        <ele>511</ele>
        <time>2020-10-18T07:33:18Z</time>
      </trkpt>
      <trkpt lat="44.04604" lon="6.1457">
        <ele>511.2</ele>
        <time>2020-10-18T07:33:19Z</time>
      </trkpt>
      <trkpt lat="44.04607" lon="6.14576">
        <ele>511.2</ele>
        <time>2020-10-18T07:33:20Z</time>
      </trkpt>
      <trkpt lat="44.04609" lon="6.14583">
        <ele>511.4</ele>
        <time>2020-10-18T07:33:21Z</time>
      </trkpt>
      <trkpt lat="44.04611" lon="6.14589">
        <ele>511.4</ele>
        <time>2020-10-18T07:33:22Z</time>
      </trkpt>
      <trkpt lat="44.04613" lon="6.14596">
        <ele>511.6</ele>
        <time>2020-10-18T07:33:23Z</time>
      </trkpt>
      <trkpt lat="44.04617" lon="6.14609">
        <ele>511.6</ele>
        <time>2020-10-18T07:33:25Z</time>
      </trkpt>
      <trkpt lat="44.04619" lon="6.14615">
        <ele>511.6</ele>
        <time>2020-10-18T07:33:26Z</time>
      </trkpt>
      <trkpt lat="44.04621" lon="6.14622">
        <ele>511.6</ele>
        <time>2020-10-18T07:33:27Z</time>
      </trkpt>
      <trkpt lat="44.04625" lon="6.14635">
        <ele>511.8</ele>
        <time>2020-10-18T07:33:29Z</time>
      </trkpt>
      <trkpt lat="44.04629" lon="6.14647">
        <ele>511.8</ele>
        <time>2020-10-18T07:33:31Z</time>
      </trkpt>
      <trkpt lat="44.04633" lon="6.1466">
        <ele>512</ele>
        <time>2020-10-18T07:33:33Z</time>
      </trkpt>
      <trkpt lat="44.04635" lon="6.14666">
        <ele>512.2</ele>
        <time>2020-10-18T07:33:34Z</time>
      </trkpt>
      <trkpt lat="44.04637" lon="6.14672">
        <ele>512.4</ele>
        <time>2020-10-18T07:33:35Z</time>
      </trkpt>
      <trkpt lat="44.04641" lon="6.14685">
        <ele>512.4</ele>
        <time>2020-10-18T07:33:37Z</time>
      </trkpt>
      <trkpt lat="44.04642" lon="6.14691">
        <ele>512.6</ele>
        <time>2020-10-18T07:33:38Z</time>
      </trkpt>
      <trkpt lat="44.04644" lon="6.14698">
        <ele>512.6</ele>
        <time>2020-10-18T07:33:39Z</time>
      </trkpt>
      <trkpt lat="44.04647" lon="6.14711">
        <ele>512.8</ele>
        <time>2020-10-18T07:33:41Z</time>
      </trkpt>
      <trkpt lat="44.04649" lon="6.14725">
        <ele>512.8</ele>
        <time>2020-10-18T07:33:43Z</time>
      </trkpt>
      <trkpt lat="44.0465" lon="6.14731">
        <ele>512.8</ele>
        <time>2020-10-18T07:33:44Z</time>
      </trkpt>
      <trkpt lat="44.04651" lon="6.14738">
        <ele>512.8</ele>
        <time>2020-10-18T07:33:45Z</time>
      </trkpt>
      <trkpt lat="44.04652" lon="6.14752">
        <ele>512.8</ele>
        <time>2020-10-18T07:33:47Z</time>
      </trkpt>
      <trkpt lat="44.04653" lon="6.14759">
        <ele>512.8</ele>
        <time>2020-10-18T07:33:48Z</time>
      </trkpt>
      <trkpt lat="44.04653" lon="6.14765">
        <ele>513</ele>
        <time>2020-10-18T07:33:49Z</time>
      </trkpt>
      <trkpt lat="44.04654" lon="6.14772">
        <ele>513</ele>
        <time>2020-10-18T07:33:50Z</time>
      </trkpt>
      <trkpt lat="44.04655" lon="6.14779">
        <ele>513.2</ele>
        <time>2020-10-18T07:33:51Z</time>
      </trkpt>
      <trkpt lat="44.04658" lon="6.14793">
        <ele>513.2</ele>
        <time>2020-10-18T07:33:53Z</time>
      </trkpt>
      <trkpt lat="44.0466" lon="6.14807">
        <ele>513.4</ele>
        <time>2020-10-18T07:33:55Z</time>
      </trkpt>
      <trkpt lat="44.04663" lon="6.14821">
        <ele>513.2</ele>
        <time>2020-10-18T07:33:57Z</time>
      </trkpt>
      <trkpt lat="44.04665" lon="6.14827">
        <ele>513.6</ele>
        <time>2020-10-18T07:33:58Z</time>
      </trkpt>
      <trkpt lat="44.04668" lon="6.14832">
        <ele>513.4</ele>
        <time>2020-10-18T07:33:59Z</time>
      </trkpt>
      <trkpt lat="44.04671" lon="6.14837">
        <ele>513.6</ele>
        <time>2020-10-18T07:34:00Z</time>
      </trkpt>
      <trkpt lat="44.04674" lon="6.14842">
        <ele>513.4</ele>
        <time>2020-10-18T07:34:01Z</time>
      </trkpt>
      <trkpt lat="44.04678" lon="6.14845">
        <ele>513.8</ele>
        <time>2020-10-18T07:34:02Z</time>
      </trkpt>
      <trkpt lat="44.04683" lon="6.14848">
        <ele>513.8</ele>
        <time>2020-10-18T07:34:03Z</time>
      </trkpt>
      <trkpt lat="44.04687" lon="6.1485">
        <ele>513.8</ele>
        <time>2020-10-18T07:34:04Z</time>
      </trkpt>
      <trkpt lat="44.04691" lon="6.14851">
        <ele>514</ele>
        <time>2020-10-18T07:34:05Z</time>
      </trkpt>
      <trkpt lat="44.04695" lon="6.14852">
        <ele>514.2</ele>
        <time>2020-10-18T07:34:06Z</time>
      </trkpt>
      <trkpt lat="44.04699" lon="6.14853">
        <ele>514.2</ele>
        <time>2020-10-18T07:34:07Z</time>
      </trkpt>
      <trkpt lat="44.04704" lon="6.14852">
        <ele>514.2</ele>
        <time>2020-10-18T07:34:08Z</time>
      </trkpt>
      <trkpt lat="44.04708" lon="6.1485">
        <ele>514.4</ele>
        <time>2020-10-18T07:34:09Z</time>
      </trkpt>
      <trkpt lat="44.04713" lon="6.14847">
        <ele>514.6</ele>
        <time>2020-10-18T07:34:10Z</time>
      </trkpt>
      <trkpt lat="44.04717" lon="6.14844">
        <ele>514.6</ele>
        <time>2020-10-18T07:34:11Z</time>
      </trkpt>
      <trkpt lat="44.04722" lon="6.14839">
        <ele>514.8</ele>
        <time>2020-10-18T07:34:12Z</time>
      </trkpt>
      <trkpt lat="44.04726" lon="6.14835">
        <ele>515</ele>
        <time>2020-10-18T07:34:13Z</time>
      </trkpt>
      <trkpt lat="44.0473" lon="6.14831">
        <ele>515.2</ele>
        <time>2020-10-18T07:34:14Z</time>
      </trkpt>
      <trkpt lat="44.04735" lon="6.14828">
        <ele>515.2</ele>
        <time>2020-10-18T07:34:15Z</time>
      </trkpt>
      <trkpt lat="44.04739" lon="6.14824">
        <ele>515.2</ele>
        <time>2020-10-18T07:34:16Z</time>
      </trkpt>
      <trkpt lat="44.04743" lon="6.14821">
        <ele>515.4</ele>
        <time>2020-10-18T07:34:17Z</time>
      </trkpt>
      <trkpt lat="44.04748" lon="6.14818">
        <ele>515.4</ele>
        <time>2020-10-18T07:34:18Z</time>
      </trkpt>
      <trkpt lat="44.04752" lon="6.14814">
        <ele>515.4</ele>
        <time>2020-10-18T07:34:19Z</time>
      </trkpt>
      <trkpt lat="44.04762" lon="6.14807">
        <ele>515.6</ele>
        <time>2020-10-18T07:34:21Z</time>
      </trkpt>
      <trkpt lat="44.04772" lon="6.148">
        <ele>515.6</ele>
        <time>2020-10-18T07:34:23Z</time>
      </trkpt>
      <trkpt lat="44.04783" lon="6.14794">
        <ele>515.8</ele>
        <time>2020-10-18T07:34:25Z</time>
      </trkpt>
      <trkpt lat="44.04788" lon="6.14791">
        <ele>515.8</ele>
        <time>2020-10-18T07:34:26Z</time>
      </trkpt>
      <trkpt lat="44.04793" lon="6.14788">
        <ele>515.6</ele>
        <time>2020-10-18T07:34:27Z</time>
      </trkpt>
      <trkpt lat="44.04798" lon="6.14786">
        <ele>515.6</ele>
        <time>2020-10-18T07:34:28Z</time>
      </trkpt>
      <trkpt lat="44.04803" lon="6.14783">
        <ele>515.6</ele>
        <time>2020-10-18T07:34:29Z</time>
      </trkpt>
      <trkpt lat="44.04808" lon="6.1478">
        <ele>515.8</ele>
        <time>2020-10-18T07:34:30Z</time>
      </trkpt>
      <trkpt lat="44.04812" lon="6.14778">
        <ele>516</ele>
        <time>2020-10-18T07:34:31Z</time>
      </trkpt>
      <trkpt lat="44.04817" lon="6.14775">
        <ele>516</ele>
        <time>2020-10-18T07:34:32Z</time>
      </trkpt>
      <trkpt lat="44.04821" lon="6.14772">
        <ele>515.8</ele>
        <time>2020-10-18T07:34:33Z</time>
      </trkpt>
      <trkpt lat="44.04825" lon="6.1477">
        <ele>516</ele>
        <time>2020-10-18T07:34:34Z</time>
      </trkpt>
      <trkpt lat="44.04829" lon="6.14767">
        <ele>516</ele>
        <time>2020-10-18T07:34:35Z</time>
      </trkpt>
      <trkpt lat="44.04833" lon="6.14764">
        <ele>516</ele>
        <time>2020-10-18T07:34:36Z</time>
      </trkpt>
      <trkpt lat="44.04837" lon="6.1476">
        <ele>516</ele>
        <time>2020-10-18T07:34:37Z</time>
      </trkpt>
      <trkpt lat="44.04845" lon="6.14753">
        <ele>516</ele>
        <time>2020-10-18T07:34:39Z</time>
      </trkpt>
      <trkpt lat="44.04851" lon="6.14747">
        <ele>516.2</ele>
        <time>2020-10-18T07:34:41Z</time>
      </trkpt>
      <trkpt lat="44.04855" lon="6.14743">
        <ele>516.4</ele>
        <time>2020-10-18T07:34:42Z</time>
      </trkpt>
      <trkpt lat="44.04858" lon="6.1474">
        <ele>516.6</ele>
        <time>2020-10-18T07:34:43Z</time>
      </trkpt>
      <trkpt lat="44.04866" lon="6.14733">
        <ele>517</ele>
        <time>2020-10-18T07:34:45Z</time>
      </trkpt>
      <trkpt lat="44.04869" lon="6.14729">
        <ele>517.2</ele>
        <time>2020-10-18T07:34:46Z</time>
      </trkpt>
      <trkpt lat="44.04873" lon="6.14726">
        <ele>517.2</ele>
        <time>2020-10-18T07:34:47Z</time>
      </trkpt>
      <trkpt lat="44.04877" lon="6.14722">
        <ele>517.6</ele>
        <time>2020-10-18T07:34:48Z</time>
      </trkpt>
      <trkpt lat="44.04881" lon="6.14718">
        <ele>517.8</ele>
        <time>2020-10-18T07:34:49Z</time>
      </trkpt>
      <trkpt lat="44.04885" lon="6.14714">
        <ele>517.8</ele>
        <time>2020-10-18T07:34:50Z</time>
      </trkpt>
      <trkpt lat="44.04889" lon="6.14711">
        <ele>518</ele>
        <time>2020-10-18T07:34:51Z</time>
      </trkpt>
      <trkpt lat="44.04893" lon="6.14707">
        <ele>518.2</ele>
        <time>2020-10-18T07:34:52Z</time>
      </trkpt>
      <trkpt lat="44.04897" lon="6.14704">
        <ele>518.2</ele>
        <time>2020-10-18T07:34:53Z</time>
      </trkpt>
      <trkpt lat="44.049" lon="6.147">
        <ele>518.4</ele>
        <time>2020-10-18T07:34:54Z</time>
      </trkpt>
      <trkpt lat="44.04904" lon="6.14697">
        <ele>518.4</ele>
        <time>2020-10-18T07:34:55Z</time>
      </trkpt>
      <trkpt lat="44.04908" lon="6.14693">
        <ele>518.4</ele>
        <time>2020-10-18T07:34:56Z</time>
      </trkpt>
      <trkpt lat="44.04911" lon="6.14689">
        <ele>518.4</ele>
        <time>2020-10-18T07:34:57Z</time>
      </trkpt>
      <trkpt lat="44.04915" lon="6.14686">
        <ele>518.4</ele>
        <time>2020-10-18T07:34:58Z</time>
      </trkpt>
      <trkpt lat="44.04919" lon="6.14682">
        <ele>518.6</ele>
        <time>2020-10-18T07:34:59Z</time>
      </trkpt>
      <trkpt lat="44.04923" lon="6.14679">
        <ele>518.6</ele>
        <time>2020-10-18T07:35:00Z</time>
      </trkpt>
      <trkpt lat="44.04927" lon="6.14676">
        <ele>518.6</ele>
        <time>2020-10-18T07:35:01Z</time>
      </trkpt>
      <trkpt lat="44.0493" lon="6.14673">
        <ele>518.8</ele>
        <time>2020-10-18T07:35:02Z</time>
      </trkpt>
      <trkpt lat="44.04934" lon="6.14671">
        <ele>519</ele>
        <time>2020-10-18T07:35:03Z</time>
      </trkpt>
      <trkpt lat="44.04937" lon="6.14668">
        <ele>519</ele>
        <time>2020-10-18T07:35:04Z</time>
      </trkpt>
      <trkpt lat="44.0494" lon="6.14666">
        <ele>519.4</ele>
        <time>2020-10-18T07:35:05Z</time>
      </trkpt>
      <trkpt lat="44.04944" lon="6.14663">
        <ele>519.6</ele>
        <time>2020-10-18T07:35:06Z</time>
      </trkpt>
      <trkpt lat="44.04947" lon="6.14661">
        <ele>519.8</ele>
        <time>2020-10-18T07:35:07Z</time>
      </trkpt>
      <trkpt lat="44.0495" lon="6.14659">
        <ele>520</ele>
        <time>2020-10-18T07:35:08Z</time>
      </trkpt>
      <trkpt lat="44.04953" lon="6.14657">
        <ele>520.2</ele>
        <time>2020-10-18T07:35:09Z</time>
      </trkpt>
      <trkpt lat="44.04955" lon="6.14655">
        <ele>520.4</ele>
        <time>2020-10-18T07:35:10Z</time>
      </trkpt>
      <trkpt lat="44.04958" lon="6.14654">
        <ele>520.8</ele>
        <time>2020-10-18T07:35:11Z</time>
      </trkpt>
      <trkpt lat="44.04961" lon="6.14654">
        <ele>521.4</ele>
        <time>2020-10-18T07:35:12Z</time>
      </trkpt>
      <trkpt lat="44.04963" lon="6.14654">
        <ele>521.4</ele>
        <time>2020-10-18T07:35:13Z</time>
      </trkpt>
      <trkpt lat="44.04965" lon="6.14654">
        <ele>521.6</ele>
        <time>2020-10-18T07:35:14Z</time>
      </trkpt>
      <trkpt lat="44.04968" lon="6.14653">
        <ele>522</ele>
        <time>2020-10-18T07:35:15Z</time>
      </trkpt>
      <trkpt lat="44.0497" lon="6.14653">
        <ele>522</ele>
        <time>2020-10-18T07:35:16Z</time>
      </trkpt>
      <trkpt lat="44.04972" lon="6.14652">
        <ele>522</ele>
        <time>2020-10-18T07:35:17Z</time>
      </trkpt>
      <trkpt lat="44.04974" lon="6.14651">
        <ele>522</ele>
        <time>2020-10-18T07:35:18Z</time>
      </trkpt>
      <trkpt lat="44.04976" lon="6.14649">
        <ele>522.2</ele>
        <time>2020-10-18T07:35:19Z</time>
      </trkpt>
      <trkpt lat="44.04978" lon="6.14648">
        <ele>522</ele>
        <time>2020-10-18T07:35:20Z</time>
      </trkpt>
      <trkpt lat="44.04979" lon="6.14647">
        <ele>522.2</ele>
        <time>2020-10-18T07:35:21Z</time>
      </trkpt>
      <trkpt lat="44.04981" lon="6.14647">
        <ele>522.2</ele>
        <time>2020-10-18T07:35:22Z</time>
      </trkpt>
      <trkpt lat="44.04982" lon="6.14647">
        <ele>522.6</ele>
        <time>2020-10-18T07:35:23Z</time>
      </trkpt>
      <trkpt lat="44.04983" lon="6.14646">
        <ele>522.6</ele>
        <time>2020-10-18T07:35:24Z</time>
      </trkpt>
      <trkpt lat="44.04984" lon="6.14646">
        <ele>522.6</ele>
        <time>2020-10-18T07:35:25Z</time>
      </trkpt>
      <trkpt lat="44.04986" lon="6.14647">
        <ele>522.6</ele>
        <time>2020-10-18T07:35:26Z</time>
      </trkpt>
      <trkpt lat="44.04989" lon="6.14648">
        <ele>522.6</ele>
        <time>2020-10-18T07:35:27Z</time>
      </trkpt>
      <trkpt lat="44.04992" lon="6.14649">
        <ele>522.8</ele>
        <time>2020-10-18T07:35:28Z</time>
      </trkpt>
      <trkpt lat="44.04995" lon="6.14649">
        <ele>522.6</ele>
        <time>2020-10-18T07:35:29Z</time>
      </trkpt>
      <trkpt lat="44.04999" lon="6.14649">
        <ele>522.6</ele>
        <time>2020-10-18T07:35:31Z</time>
      </trkpt>
      <trkpt lat="44.05001" lon="6.14648">
        <ele>522.6</ele>
        <time>2020-10-18T07:35:32Z</time>
      </trkpt>
      <trkpt lat="44.05002" lon="6.14648">
        <ele>522.6</ele>
        <time>2020-10-18T07:35:33Z</time>
      </trkpt>
      <trkpt lat="44.05004" lon="6.14646">
        <ele>522.6</ele>
        <time>2020-10-18T07:35:34Z</time>
      </trkpt>
      <trkpt lat="44.05006" lon="6.14645">
        <ele>522.6</ele>
        <time>2020-10-18T07:35:35Z</time>
      </trkpt>
      <trkpt lat="44.05007" lon="6.14644">
        <ele>522.8</ele>
        <time>2020-10-18T07:35:36Z</time>
      </trkpt>
      <trkpt lat="44.05009" lon="6.14642">
        <ele>522.8</ele>
        <time>2020-10-18T07:35:37Z</time>
      </trkpt>
      <trkpt lat="44.05011" lon="6.14641">
        <ele>522.8</ele>
        <time>2020-10-18T07:35:38Z</time>
      </trkpt>
      <trkpt lat="44.05013" lon="6.1464">
        <ele>522.8</ele>
        <time>2020-10-18T07:35:39Z</time>
      </trkpt>
      <trkpt lat="44.05015" lon="6.14639">
        <ele>523</ele>
        <time>2020-10-18T07:35:40Z</time>
      </trkpt>
      <trkpt lat="44.05017" lon="6.14639">
        <ele>523.4</ele>
        <time>2020-10-18T07:35:41Z</time>
      </trkpt>
      <trkpt lat="44.0502" lon="6.14638">
        <ele>523.6</ele>
        <time>2020-10-18T07:35:42Z</time>
      </trkpt>
      <trkpt lat="44.05023" lon="6.14637">
        <ele>524.2</ele>
        <time>2020-10-18T07:35:43Z</time>
      </trkpt>
      <trkpt lat="44.05026" lon="6.14637">
        <ele>524.4</ele>
        <time>2020-10-18T07:35:44Z</time>
      </trkpt>
      <trkpt lat="44.05029" lon="6.14638">
        <ele>524.6</ele>
        <time>2020-10-18T07:35:45Z</time>
      </trkpt>
      <trkpt lat="44.05033" lon="6.14638">
        <ele>524.8</ele>
        <time>2020-10-18T07:35:46Z</time>
      </trkpt>
      <trkpt lat="44.05036" lon="6.14639">
        <ele>525</ele>
        <time>2020-10-18T07:35:47Z</time>
      </trkpt>
      <trkpt lat="44.05039" lon="6.14639">
        <ele>525</ele>
        <time>2020-10-18T07:35:48Z</time>
      </trkpt>
      <trkpt lat="44.05042" lon="6.1464">
        <ele>525</ele>
        <time>2020-10-18T07:35:49Z</time>
      </trkpt>
      <trkpt lat="44.05045" lon="6.14641">
        <ele>525</ele>
        <time>2020-10-18T07:35:50Z</time>
      </trkpt>
      <trkpt lat="44.05047" lon="6.14642">
        <ele>525</ele>
        <time>2020-10-18T07:35:51Z</time>
      </trkpt>
      <trkpt lat="44.05051" lon="6.14642">
        <ele>525</ele>
        <time>2020-10-18T07:35:52Z</time>
      </trkpt>
      <trkpt lat="44.05054" lon="6.14642">
        <ele>525.2</ele>
        <time>2020-10-18T07:35:53Z</time>
      </trkpt>
      <trkpt lat="44.05061" lon="6.14642">
        <ele>525.2</ele>
        <time>2020-10-18T07:35:55Z</time>
      </trkpt>
      <trkpt lat="44.05065" lon="6.14642">
        <ele>525.2</ele>
        <time>2020-10-18T07:35:56Z</time>
      </trkpt>
      <trkpt lat="44.05068" lon="6.14642">
        <ele>525.2</ele>
        <time>2020-10-18T07:35:57Z</time>
      </trkpt>
      <trkpt lat="44.05074" lon="6.14641">
        <ele>525.2</ele>
        <time>2020-10-18T07:35:59Z</time>
      </trkpt>
      <trkpt lat="44.05077" lon="6.1464">
        <ele>525.2</ele>
        <time>2020-10-18T07:36:00Z</time>
      </trkpt>
      <trkpt lat="44.05081" lon="6.14639">
        <ele>525.4</ele>
        <time>2020-10-18T07:36:01Z</time>
      </trkpt>
      <trkpt lat="44.05084" lon="6.14639">
        <ele>525.4</ele>
        <time>2020-10-18T07:36:02Z</time>
      </trkpt>
      <trkpt lat="44.05087" lon="6.14637">
        <ele>525.4</ele>
        <time>2020-10-18T07:36:03Z</time>
      </trkpt>
      <trkpt lat="44.05093" lon="6.14635">
        <ele>525.6</ele>
        <time>2020-10-18T07:36:05Z</time>
      </trkpt>
      <trkpt lat="44.05095" lon="6.14634">
        <ele>525.8</ele>
        <time>2020-10-18T07:36:06Z</time>
      </trkpt>
      <trkpt lat="44.05097" lon="6.14633">
        <ele>526.2</ele>
        <time>2020-10-18T07:36:07Z</time>
      </trkpt>
      <trkpt lat="44.051" lon="6.14631">
        <ele>526.4</ele>
        <time>2020-10-18T07:36:08Z</time>
      </trkpt>
      <trkpt lat="44.05102" lon="6.1463">
        <ele>526.6</ele>
        <time>2020-10-18T07:36:09Z</time>
      </trkpt>
      <trkpt lat="44.05105" lon="6.1463">
        <ele>526.6</ele>
        <time>2020-10-18T07:36:10Z</time>
      </trkpt>
      <trkpt lat="44.05107" lon="6.14629">
        <ele>527</ele>
        <time>2020-10-18T07:36:11Z</time>
      </trkpt>
      <trkpt lat="44.0511" lon="6.14628">
        <ele>527.4</ele>
        <time>2020-10-18T07:36:12Z</time>
      </trkpt>
      <trkpt lat="44.05112" lon="6.14628">
        <ele>527.4</ele>
        <time>2020-10-18T07:36:13Z</time>
      </trkpt>
      <trkpt lat="44.05114" lon="6.14627">
        <ele>527.6</ele>
        <time>2020-10-18T07:36:14Z</time>
      </trkpt>
      <trkpt lat="44.05116" lon="6.14627">
        <ele>527.8</ele>
        <time>2020-10-18T07:36:15Z</time>
      </trkpt>
      <trkpt lat="44.05118" lon="6.14627">
        <ele>528.2</ele>
        <time>2020-10-18T07:36:16Z</time>
      </trkpt>
      <trkpt lat="44.0512" lon="6.14629">
        <ele>528.6</ele>
        <time>2020-10-18T07:36:17Z</time>
      </trkpt>
      <trkpt lat="44.05122" lon="6.14631">
        <ele>528.8</ele>
        <time>2020-10-18T07:36:18Z</time>
      </trkpt>
      <trkpt lat="44.05124" lon="6.14634">
        <ele>528.8</ele>
        <time>2020-10-18T07:36:19Z</time>
      </trkpt>
      <trkpt lat="44.05125" lon="6.14637">
        <ele>529.2</ele>
        <time>2020-10-18T07:36:20Z</time>
      </trkpt>
      <trkpt lat="44.05127" lon="6.14641">
        <ele>529.6</ele>
        <time>2020-10-18T07:36:21Z</time>
      </trkpt>
      <trkpt lat="44.05128" lon="6.14645">
        <ele>529.8</ele>
        <time>2020-10-18T07:36:22Z</time>
      </trkpt>
      <trkpt lat="44.0513" lon="6.14648">
        <ele>529.8</ele>
        <time>2020-10-18T07:36:23Z</time>
      </trkpt>
      <trkpt lat="44.05131" lon="6.14652">
        <ele>530.2</ele>
        <time>2020-10-18T07:36:24Z</time>
      </trkpt>
      <trkpt lat="44.05133" lon="6.14656">
        <ele>530.2</ele>
        <time>2020-10-18T07:36:25Z</time>
      </trkpt>
      <trkpt lat="44.05134" lon="6.1466">
        <ele>530.4</ele>
        <time>2020-10-18T07:36:26Z</time>
      </trkpt>
      <trkpt lat="44.05135" lon="6.14664">
        <ele>530.6</ele>
        <time>2020-10-18T07:36:27Z</time>
      </trkpt>
      <trkpt lat="44.05136" lon="6.14668">
        <ele>530.6</ele>
        <time>2020-10-18T07:36:28Z</time>
      </trkpt>
      <trkpt lat="44.05137" lon="6.14672">
        <ele>530.6</ele>
        <time>2020-10-18T07:36:29Z</time>
      </trkpt>
      <trkpt lat="44.05138" lon="6.14676">
        <ele>530.6</ele>
        <time>2020-10-18T07:36:30Z</time>
      </trkpt>
      <trkpt lat="44.05139" lon="6.14679">
        <ele>530.8</ele>
        <time>2020-10-18T07:36:31Z</time>
      </trkpt>
      <trkpt lat="44.0514" lon="6.14684">
        <ele>530.6</ele>
        <time>2020-10-18T07:36:32Z</time>
      </trkpt>
      <trkpt lat="44.05141" lon="6.14688">
        <ele>530.8</ele>
        <time>2020-10-18T07:36:33Z</time>
      </trkpt>
      <trkpt lat="44.05142" lon="6.14692">
        <ele>530.8</ele>
        <time>2020-10-18T07:36:34Z</time>
      </trkpt>
      <trkpt lat="44.05143" lon="6.14695">
        <ele>530.8</ele>
        <time>2020-10-18T07:36:35Z</time>
      </trkpt>
      <trkpt lat="44.05144" lon="6.14699">
        <ele>531</ele>
        <time>2020-10-18T07:36:36Z</time>
      </trkpt>
      <trkpt lat="44.05145" lon="6.14703">
        <ele>531.2</ele>
        <time>2020-10-18T07:36:37Z</time>
      </trkpt>
      <trkpt lat="44.05146" lon="6.14708">
        <ele>531.2</ele>
        <time>2020-10-18T07:36:38Z</time>
      </trkpt>
      <trkpt lat="44.05147" lon="6.14712">
        <ele>531.2</ele>
        <time>2020-10-18T07:36:39Z</time>
      </trkpt>
      <trkpt lat="44.05147" lon="6.14716">
        <ele>531.4</ele>
        <time>2020-10-18T07:36:40Z</time>
      </trkpt>
      <trkpt lat="44.05148" lon="6.1472">
        <ele>531.4</ele>
        <time>2020-10-18T07:36:41Z</time>
      </trkpt>
      <trkpt lat="44.05149" lon="6.14725">
        <ele>531.6</ele>
        <time>2020-10-18T07:36:42Z</time>
      </trkpt>
      <trkpt lat="44.0515" lon="6.14729">
        <ele>531.6</ele>
        <time>2020-10-18T07:36:43Z</time>
      </trkpt>
      <trkpt lat="44.05151" lon="6.14734">
        <ele>531.6</ele>
        <time>2020-10-18T07:36:44Z</time>
      </trkpt>
      <trkpt lat="44.05152" lon="6.14738">
        <ele>531.8</ele>
        <time>2020-10-18T07:36:45Z</time>
      </trkpt>
      <trkpt lat="44.05153" lon="6.14743">
        <ele>532</ele>
        <time>2020-10-18T07:36:46Z</time>
      </trkpt>
      <trkpt lat="44.05154" lon="6.14748">
        <ele>532.2</ele>
        <time>2020-10-18T07:36:47Z</time>
      </trkpt>
      <trkpt lat="44.05156" lon="6.14754">
        <ele>532.2</ele>
        <time>2020-10-18T07:36:48Z</time>
      </trkpt>
      <trkpt lat="44.05158" lon="6.14765">
        <ele>532.2</ele>
        <time>2020-10-18T07:36:50Z</time>
      </trkpt>
      <trkpt lat="44.05158" lon="6.1477">
        <ele>532.4</ele>
        <time>2020-10-18T07:36:51Z</time>
      </trkpt>
      <trkpt lat="44.05158" lon="6.14776">
        <ele>532.2</ele>
        <time>2020-10-18T07:36:52Z</time>
      </trkpt>
      <trkpt lat="44.05157" lon="6.14782">
        <ele>532.2</ele>
        <time>2020-10-18T07:36:53Z</time>
      </trkpt>
      <trkpt lat="44.05154" lon="6.14788">
        <ele>532.2</ele>
        <time>2020-10-18T07:36:54Z</time>
      </trkpt>
      <trkpt lat="44.05151" lon="6.14793">
        <ele>532.2</ele>
        <time>2020-10-18T07:36:55Z</time>
      </trkpt>
      <trkpt lat="44.05148" lon="6.148">
        <ele>532.2</ele>
        <time>2020-10-18T07:36:56Z</time>
      </trkpt>
      <trkpt lat="44.05147" lon="6.14807">
        <ele>532.2</ele>
        <time>2020-10-18T07:36:57Z</time>
      </trkpt>
      <trkpt lat="44.05147" lon="6.14814">
        <ele>532.2</ele>
        <time>2020-10-18T07:36:58Z</time>
      </trkpt>
      <trkpt lat="44.05148" lon="6.14821">
        <ele>532</ele>
        <time>2020-10-18T07:36:59Z</time>
      </trkpt>
      <trkpt lat="44.05149" lon="6.14828">
        <ele>531.8</ele>
        <time>2020-10-18T07:37:00Z</time>
      </trkpt>
      <trkpt lat="44.0515" lon="6.14834">
        <ele>531.6</ele>
        <time>2020-10-18T07:37:01Z</time>
      </trkpt>
      <trkpt lat="44.05151" lon="6.14841">
        <ele>531.2</ele>
        <time>2020-10-18T07:37:02Z</time>
      </trkpt>
      <trkpt lat="44.05152" lon="6.14847">
        <ele>531.2</ele>
        <time>2020-10-18T07:37:03Z</time>
      </trkpt>
      <trkpt lat="44.05153" lon="6.14854">
        <ele>530.6</ele>
        <time>2020-10-18T07:37:04Z</time>
      </trkpt>
      <trkpt lat="44.05155" lon="6.1486">
        <ele>530.4</ele>
        <time>2020-10-18T07:37:05Z</time>
      </trkpt>
      <trkpt lat="44.05156" lon="6.14867">
        <ele>530.4</ele>
        <time>2020-10-18T07:37:06Z</time>
      </trkpt>
      <trkpt lat="44.05157" lon="6.14873">
        <ele>530.2</ele>
        <time>2020-10-18T07:37:07Z</time>
      </trkpt>
      <trkpt lat="44.05159" lon="6.14878">
        <ele>530.2</ele>
        <time>2020-10-18T07:37:08Z</time>
      </trkpt>
      <trkpt lat="44.05161" lon="6.14884">
        <ele>530.2</ele>
        <time>2020-10-18T07:37:09Z</time>
      </trkpt>
      <trkpt lat="44.05163" lon="6.14889">
        <ele>530.2</ele>
        <time>2020-10-18T07:37:10Z</time>
      </trkpt>
      <trkpt lat="44.05165" lon="6.14895">
        <ele>530.4</ele>
        <time>2020-10-18T07:37:11Z</time>
      </trkpt>
      <trkpt lat="44.05167" lon="6.14901">
        <ele>530.2</ele>
        <time>2020-10-18T07:37:12Z</time>
      </trkpt>
      <trkpt lat="44.05172" lon="6.14912">
        <ele>530.2</ele>
        <time>2020-10-18T07:37:14Z</time>
      </trkpt>
      <trkpt lat="44.05175" lon="6.14916">
        <ele>530.2</ele>
        <time>2020-10-18T07:37:15Z</time>
      </trkpt>
      <trkpt lat="44.05178" lon="6.1492">
        <ele>530.6</ele>
        <time>2020-10-18T07:37:16Z</time>
      </trkpt>
      <trkpt lat="44.05182" lon="6.14923">
        <ele>530.6</ele>
        <time>2020-10-18T07:37:17Z</time>
      </trkpt>
      <trkpt lat="44.05187" lon="6.14924">
        <ele>530.6</ele>
        <time>2020-10-18T07:37:18Z</time>
      </trkpt>
      <trkpt lat="44.05191" lon="6.14924">
        <ele>530.4</ele>
        <time>2020-10-18T07:37:19Z</time>
      </trkpt>
      <trkpt lat="44.05195" lon="6.14923">
        <ele>530.8</ele>
        <time>2020-10-18T07:37:20Z</time>
      </trkpt>
      <trkpt lat="44.052" lon="6.14922">
        <ele>530.8</ele>
        <time>2020-10-18T07:37:21Z</time>
      </trkpt>
      <trkpt lat="44.05204" lon="6.1492">
        <ele>531</ele>
        <time>2020-10-18T07:37:22Z</time>
      </trkpt>
      <trkpt lat="44.05207" lon="6.14918">
        <ele>531</ele>
        <time>2020-10-18T07:37:23Z</time>
      </trkpt>
      <trkpt lat="44.05212" lon="6.14916">
        <ele>531</ele>
        <time>2020-10-18T07:37:24Z</time>
      </trkpt>
      <trkpt lat="44.05215" lon="6.14914">
        <ele>531.2</ele>
        <time>2020-10-18T07:37:25Z</time>
      </trkpt>
      <trkpt lat="44.05219" lon="6.14912">
        <ele>531.2</ele>
        <time>2020-10-18T07:37:26Z</time>
      </trkpt>
      <trkpt lat="44.05223" lon="6.14911">
        <ele>531.2</ele>
        <time>2020-10-18T07:37:27Z</time>
      </trkpt>
      <trkpt lat="44.05226" lon="6.14909">
        <ele>531.4</ele>
        <time>2020-10-18T07:37:28Z</time>
      </trkpt>
      <trkpt lat="44.05234" lon="6.14906">
        <ele>531.6</ele>
        <time>2020-10-18T07:37:30Z</time>
      </trkpt>
      <trkpt lat="44.05237" lon="6.14905">
        <ele>531.8</ele>
        <time>2020-10-18T07:37:31Z</time>
      </trkpt>
      <trkpt lat="44.05241" lon="6.14904">
        <ele>531.8</ele>
        <time>2020-10-18T07:37:32Z</time>
      </trkpt>
      <trkpt lat="44.05244" lon="6.14903">
        <ele>532</ele>
        <time>2020-10-18T07:37:33Z</time>
      </trkpt>
      <trkpt lat="44.05247" lon="6.14903">
        <ele>532</ele>
        <time>2020-10-18T07:37:34Z</time>
      </trkpt>
      <trkpt lat="44.05251" lon="6.14903">
        <ele>532.4</ele>
        <time>2020-10-18T07:37:35Z</time>
      </trkpt>
      <trkpt lat="44.05254" lon="6.14903">
        <ele>532.4</ele>
        <time>2020-10-18T07:37:36Z</time>
      </trkpt>
      <trkpt lat="44.05257" lon="6.14903">
        <ele>532.4</ele>
        <time>2020-10-18T07:37:37Z</time>
      </trkpt>
      <trkpt lat="44.05261" lon="6.14904">
        <ele>532.4</ele>
        <time>2020-10-18T07:37:38Z</time>
      </trkpt>
      <trkpt lat="44.05265" lon="6.14906">
        <ele>532.8</ele>
        <time>2020-10-18T07:37:39Z</time>
      </trkpt>
      <trkpt lat="44.05268" lon="6.14907">
        <ele>532.8</ele>
        <time>2020-10-18T07:37:40Z</time>
      </trkpt>
      <trkpt lat="44.05272" lon="6.14907">
        <ele>533</ele>
        <time>2020-10-18T07:37:41Z</time>
      </trkpt>
      <trkpt lat="44.05276" lon="6.14908">
        <ele>533</ele>
        <time>2020-10-18T07:37:42Z</time>
      </trkpt>
      <trkpt lat="44.0528" lon="6.14909">
        <ele>533.2</ele>
        <time>2020-10-18T07:37:43Z</time>
      </trkpt>
      <trkpt lat="44.05283" lon="6.14909">
        <ele>533.4</ele>
        <time>2020-10-18T07:37:44Z</time>
      </trkpt>
      <trkpt lat="44.05286" lon="6.1491">
        <ele>533.6</ele>
        <time>2020-10-18T07:37:45Z</time>
      </trkpt>
      <trkpt lat="44.0529" lon="6.1491">
        <ele>533.8</ele>
        <time>2020-10-18T07:37:46Z</time>
      </trkpt>
      <trkpt lat="44.05294" lon="6.1491">
        <ele>534</ele>
        <time>2020-10-18T07:37:47Z</time>
      </trkpt>
      <trkpt lat="44.05297" lon="6.1491">
        <ele>534.2</ele>
        <time>2020-10-18T07:37:48Z</time>
      </trkpt>
      <trkpt lat="44.053" lon="6.1491">
        <ele>534.2</ele>
        <time>2020-10-18T07:37:49Z</time>
      </trkpt>
      <trkpt lat="44.05304" lon="6.1491">
        <ele>534.4</ele>
        <time>2020-10-18T07:37:50Z</time>
      </trkpt>
      <trkpt lat="44.05307" lon="6.14911">
        <ele>534.6</ele>
        <time>2020-10-18T07:37:51Z</time>
      </trkpt>
      <trkpt lat="44.05311" lon="6.14913">
        <ele>534.6</ele>
        <time>2020-10-18T07:37:52Z</time>
      </trkpt>
      <trkpt lat="44.05314" lon="6.14915">
        <ele>534.8</ele>
        <time>2020-10-18T07:37:53Z</time>
      </trkpt>
      <trkpt lat="44.05317" lon="6.14918">
        <ele>535</ele>
        <time>2020-10-18T07:37:54Z</time>
      </trkpt>
      <trkpt lat="44.05319" lon="6.14921">
        <ele>535.2</ele>
        <time>2020-10-18T07:37:55Z</time>
      </trkpt>
      <trkpt lat="44.05322" lon="6.14924">
        <ele>535.4</ele>
        <time>2020-10-18T07:37:56Z</time>
      </trkpt>
      <trkpt lat="44.05325" lon="6.14927">
        <ele>535.6</ele>
        <time>2020-10-18T07:37:57Z</time>
      </trkpt>
      <trkpt lat="44.05328" lon="6.1493">
        <ele>535.6</ele>
        <time>2020-10-18T07:37:58Z</time>
      </trkpt>
      <trkpt lat="44.05332" lon="6.14932">
        <ele>535.6</ele>
        <time>2020-10-18T07:37:59Z</time>
      </trkpt>
      <trkpt lat="44.05336" lon="6.14933">
        <ele>535.6</ele>
        <time>2020-10-18T07:38:00Z</time>
      </trkpt>
      <trkpt lat="44.05339" lon="6.14934">
        <ele>535.8</ele>
        <time>2020-10-18T07:38:01Z</time>
      </trkpt>
      <trkpt lat="44.05343" lon="6.14935">
        <ele>535.8</ele>
        <time>2020-10-18T07:38:02Z</time>
      </trkpt>
      <trkpt lat="44.05346" lon="6.14935">
        <ele>536.2</ele>
        <time>2020-10-18T07:38:03Z</time>
      </trkpt>
      <trkpt lat="44.0535" lon="6.14935">
        <ele>536.2</ele>
        <time>2020-10-18T07:38:04Z</time>
      </trkpt>
      <trkpt lat="44.05353" lon="6.14936">
        <ele>536.4</ele>
        <time>2020-10-18T07:38:05Z</time>
      </trkpt>
      <trkpt lat="44.05357" lon="6.14936">
        <ele>536.4</ele>
        <time>2020-10-18T07:38:06Z</time>
      </trkpt>
      <trkpt lat="44.0536" lon="6.14937">
        <ele>536.8</ele>
        <time>2020-10-18T07:38:07Z</time>
      </trkpt>
      <trkpt lat="44.05363" lon="6.14938">
        <ele>537</ele>
        <time>2020-10-18T07:38:08Z</time>
      </trkpt>
      <trkpt lat="44.05366" lon="6.14939">
        <ele>537.2</ele>
        <time>2020-10-18T07:38:09Z</time>
      </trkpt>
      <trkpt lat="44.05369" lon="6.1494">
        <ele>537.4</ele>
        <time>2020-10-18T07:38:10Z</time>
      </trkpt>
      <trkpt lat="44.05372" lon="6.14941">
        <ele>537.6</ele>
        <time>2020-10-18T07:38:11Z</time>
      </trkpt>
      <trkpt lat="44.05374" lon="6.14943">
        <ele>537.8</ele>
        <time>2020-10-18T07:38:12Z</time>
      </trkpt>
      <trkpt lat="44.05377" lon="6.14944">
        <ele>538</ele>
        <time>2020-10-18T07:38:13Z</time>
      </trkpt>
      <trkpt lat="44.05379" lon="6.14945">
        <ele>538.2</ele>
        <time>2020-10-18T07:38:14Z</time>
      </trkpt>
      <trkpt lat="44.05382" lon="6.14946">
        <ele>538.2</ele>
        <time>2020-10-18T07:38:15Z</time>
      </trkpt>
      <trkpt lat="44.05384" lon="6.14948">
        <ele>538.4</ele>
        <time>2020-10-18T07:38:16Z</time>
      </trkpt>
      <trkpt lat="44.05386" lon="6.14949">
        <ele>539</ele>
        <time>2020-10-18T07:38:17Z</time>
      </trkpt>
      <trkpt lat="44.05388" lon="6.14951">
        <ele>539.4</ele>
        <time>2020-10-18T07:38:18Z</time>
      </trkpt>
      <trkpt lat="44.05391" lon="6.14952">
        <ele>539.4</ele>
        <time>2020-10-18T07:38:19Z</time>
      </trkpt>
      <trkpt lat="44.05393" lon="6.14954">
        <ele>540</ele>
        <time>2020-10-18T07:38:20Z</time>
      </trkpt>
      <trkpt lat="44.05395" lon="6.14956">
        <ele>540.2</ele>
        <time>2020-10-18T07:38:21Z</time>
      </trkpt>
      <trkpt lat="44.05397" lon="6.14958">
        <ele>540.6</ele>
        <time>2020-10-18T07:38:22Z</time>
      </trkpt>
      <trkpt lat="44.05398" lon="6.14959">
        <ele>540.8</ele>
        <time>2020-10-18T07:38:23Z</time>
      </trkpt>
      <trkpt lat="44.054" lon="6.14961">
        <ele>541</ele>
        <time>2020-10-18T07:38:24Z</time>
      </trkpt>
      <trkpt lat="44.05402" lon="6.14963">
        <ele>541.2</ele>
        <time>2020-10-18T07:38:25Z</time>
      </trkpt>
      <trkpt lat="44.05404" lon="6.14964">
        <ele>541.4</ele>
        <time>2020-10-18T07:38:26Z</time>
      </trkpt>
      <trkpt lat="44.05406" lon="6.14965">
        <ele>541.8</ele>
        <time>2020-10-18T07:38:27Z</time>
      </trkpt>
      <trkpt lat="44.05408" lon="6.14965">
        <ele>542</ele>
        <time>2020-10-18T07:38:28Z</time>
      </trkpt>
      <trkpt lat="44.0541" lon="6.14966">
        <ele>542</ele>
        <time>2020-10-18T07:38:29Z</time>
      </trkpt>
      <trkpt lat="44.05413" lon="6.14967">
        <ele>542.4</ele>
        <time>2020-10-18T07:38:30Z</time>
      </trkpt>
      <trkpt lat="44.05415" lon="6.14967">
        <ele>542.8</ele>
        <time>2020-10-18T07:38:31Z</time>
      </trkpt>
      <trkpt lat="44.05418" lon="6.14967">
        <ele>543</ele>
        <time>2020-10-18T07:38:32Z</time>
      </trkpt>
      <trkpt lat="44.05422" lon="6.14967">
        <ele>543.2</ele>
        <time>2020-10-18T07:38:33Z</time>
      </trkpt>
      <trkpt lat="44.05426" lon="6.14966">
        <ele>543.4</ele>
        <time>2020-10-18T07:38:34Z</time>
      </trkpt>
      <trkpt lat="44.0543" lon="6.14964">
        <ele>543.4</ele>
        <time>2020-10-18T07:38:35Z</time>
      </trkpt>
      <trkpt lat="44.05433" lon="6.14963">
        <ele>543.6</ele>
        <time>2020-10-18T07:38:36Z</time>
      </trkpt>
      <trkpt lat="44.05435" lon="6.14961">
        <ele>543.6</ele>
        <time>2020-10-18T07:38:37Z</time>
      </trkpt>
      <trkpt lat="44.05437" lon="6.1496">
        <ele>543.6</ele>
        <time>2020-10-18T07:38:38Z</time>
      </trkpt>
      <trkpt lat="44.05439" lon="6.14961">
        <ele>543.4</ele>
        <time>2020-10-18T07:38:39Z</time>
      </trkpt>
      <trkpt lat="44.05441" lon="6.14962">
        <ele>543.4</ele>
        <time>2020-10-18T07:38:40Z</time>
      </trkpt>
      <trkpt lat="44.05442" lon="6.14964">
        <ele>543.6</ele>
        <time>2020-10-18T07:38:41Z</time>
      </trkpt>
      <trkpt lat="44.05444" lon="6.14967">
        <ele>543.6</ele>
        <time>2020-10-18T07:38:42Z</time>
      </trkpt>
      <trkpt lat="44.05447" lon="6.14971">
        <ele>543</ele>
        <time>2020-10-18T07:38:44Z</time>
      </trkpt>
      <trkpt lat="44.05449" lon="6.14971">
        <ele>542.8</ele>
        <time>2020-10-18T07:38:45Z</time>
      </trkpt>
      <trkpt lat="44.05451" lon="6.14971">
        <ele>542.8</ele>
        <time>2020-10-18T07:38:46Z</time>
      </trkpt>
      <trkpt lat="44.05453" lon="6.14972">
        <ele>542.6</ele>
        <time>2020-10-18T07:38:47Z</time>
      </trkpt>
      <trkpt lat="44.05455" lon="6.14973">
        <ele>542.6</ele>
        <time>2020-10-18T07:38:48Z</time>
      </trkpt>
      <trkpt lat="44.0546" lon="6.14975">
        <ele>542.4</ele>
        <time>2020-10-18T07:38:50Z</time>
      </trkpt>
      <trkpt lat="44.05462" lon="6.14975">
        <ele>542.2</ele>
        <time>2020-10-18T07:38:51Z</time>
      </trkpt>
      <trkpt lat="44.05464" lon="6.14975">
        <ele>542.4</ele>
        <time>2020-10-18T07:38:52Z</time>
      </trkpt>
      <trkpt lat="44.05467" lon="6.14975">
        <ele>542.4</ele>
        <time>2020-10-18T07:38:53Z</time>
      </trkpt>
      <trkpt lat="44.05469" lon="6.14975">
        <ele>542.2</ele>
        <time>2020-10-18T07:38:54Z</time>
      </trkpt>
      <trkpt lat="44.05475" lon="6.14976">
        <ele>542.6</ele>
        <time>2020-10-18T07:38:56Z</time>
      </trkpt>
      <trkpt lat="44.05479" lon="6.14977">
        <ele>542.6</ele>
        <time>2020-10-18T07:38:57Z</time>
      </trkpt>
      <trkpt lat="44.05482" lon="6.14978">
        <ele>542.8</ele>
        <time>2020-10-18T07:38:58Z</time>
      </trkpt>
      <trkpt lat="44.05485" lon="6.14978">
        <ele>542.8</ele>
        <time>2020-10-18T07:38:59Z</time>
      </trkpt>
      <trkpt lat="44.05488" lon="6.14977">
        <ele>543</ele>
        <time>2020-10-18T07:39:00Z</time>
      </trkpt>
      <trkpt lat="44.05492" lon="6.14976">
        <ele>543</ele>
        <time>2020-10-18T07:39:01Z</time>
      </trkpt>
      <trkpt lat="44.05495" lon="6.14975">
        <ele>543.2</ele>
        <time>2020-10-18T07:39:02Z</time>
      </trkpt>
      <trkpt lat="44.05498" lon="6.14974">
        <ele>543.2</ele>
        <time>2020-10-18T07:39:03Z</time>
      </trkpt>
      <trkpt lat="44.055" lon="6.14973">
        <ele>543.4</ele>
        <time>2020-10-18T07:39:04Z</time>
      </trkpt>
      <trkpt lat="44.05503" lon="6.14971">
        <ele>543.4</ele>
        <time>2020-10-18T07:39:05Z</time>
      </trkpt>
      <trkpt lat="44.05505" lon="6.14971">
        <ele>543.4</ele>
        <time>2020-10-18T07:39:06Z</time>
      </trkpt>
      <trkpt lat="44.05507" lon="6.14971">
        <ele>543.6</ele>
        <time>2020-10-18T07:39:07Z</time>
      </trkpt>
      <trkpt lat="44.0551" lon="6.14973">
        <ele>543.8</ele>
        <time>2020-10-18T07:39:08Z</time>
      </trkpt>
      <trkpt lat="44.05513" lon="6.14976">
        <ele>543.8</ele>
        <time>2020-10-18T07:39:09Z</time>
      </trkpt>
      <trkpt lat="44.05516" lon="6.14978">
        <ele>544</ele>
        <time>2020-10-18T07:39:10Z</time>
      </trkpt>
      <trkpt lat="44.05519" lon="6.14978">
        <ele>544.2</ele>
        <time>2020-10-18T07:39:11Z</time>
      </trkpt>
      <trkpt lat="44.05521" lon="6.14978">
        <ele>544.4</ele>
        <time>2020-10-18T07:39:12Z</time>
      </trkpt>
      <trkpt lat="44.05524" lon="6.14978">
        <ele>544.4</ele>
        <time>2020-10-18T07:39:13Z</time>
      </trkpt>
      <trkpt lat="44.05526" lon="6.14978">
        <ele>544.4</ele>
        <time>2020-10-18T07:39:14Z</time>
      </trkpt>
      <trkpt lat="44.05529" lon="6.14978">
        <ele>544.6</ele>
        <time>2020-10-18T07:39:15Z</time>
      </trkpt>
      <trkpt lat="44.05531" lon="6.14978">
        <ele>544.8</ele>
        <time>2020-10-18T07:39:16Z</time>
      </trkpt>
      <trkpt lat="44.05533" lon="6.14977">
        <ele>544.8</ele>
        <time>2020-10-18T07:39:17Z</time>
      </trkpt>
      <trkpt lat="44.05536" lon="6.14977">
        <ele>545</ele>
        <time>2020-10-18T07:39:18Z</time>
      </trkpt>
      <trkpt lat="44.05539" lon="6.14976">
        <ele>545.2</ele>
        <time>2020-10-18T07:39:19Z</time>
      </trkpt>
      <trkpt lat="44.05542" lon="6.14976">
        <ele>545.2</ele>
        <time>2020-10-18T07:39:20Z</time>
      </trkpt>
      <trkpt lat="44.05547" lon="6.14975">
        <ele>545.4</ele>
        <time>2020-10-18T07:39:22Z</time>
      </trkpt>
      <trkpt lat="44.0555" lon="6.14976">
        <ele>545.2</ele>
        <time>2020-10-18T07:39:23Z</time>
      </trkpt>
      <trkpt lat="44.05554" lon="6.14977">
        <ele>545.4</ele>
        <time>2020-10-18T07:39:24Z</time>
      </trkpt>
      <trkpt lat="44.05557" lon="6.14977">
        <ele>545.6</ele>
        <time>2020-10-18T07:39:25Z</time>
      </trkpt>
      <trkpt lat="44.0556" lon="6.14978">
        <ele>545.6</ele>
        <time>2020-10-18T07:39:26Z</time>
      </trkpt>
      <trkpt lat="44.05563" lon="6.14979">
        <ele>545.8</ele>
        <time>2020-10-18T07:39:27Z</time>
      </trkpt>
      <trkpt lat="44.05566" lon="6.1498">
        <ele>545.8</ele>
        <time>2020-10-18T07:39:28Z</time>
      </trkpt>
      <trkpt lat="44.05569" lon="6.14981">
        <ele>545.8</ele>
        <time>2020-10-18T07:39:29Z</time>
      </trkpt>
      <trkpt lat="44.05572" lon="6.14982">
        <ele>545.8</ele>
        <time>2020-10-18T07:39:30Z</time>
      </trkpt>
      <trkpt lat="44.05574" lon="6.14983">
        <ele>546.2</ele>
        <time>2020-10-18T07:39:31Z</time>
      </trkpt>
      <trkpt lat="44.05577" lon="6.14984">
        <ele>546.4</ele>
        <time>2020-10-18T07:39:32Z</time>
      </trkpt>
      <trkpt lat="44.0558" lon="6.14985">
        <ele>546.8</ele>
        <time>2020-10-18T07:39:33Z</time>
      </trkpt>
      <trkpt lat="44.05583" lon="6.14987">
        <ele>547.2</ele>
        <time>2020-10-18T07:39:34Z</time>
      </trkpt>
      <trkpt lat="44.05586" lon="6.14988">
        <ele>547.4</ele>
        <time>2020-10-18T07:39:35Z</time>
      </trkpt>
      <trkpt lat="44.05588" lon="6.1499">
        <ele>547.6</ele>
        <time>2020-10-18T07:39:36Z</time>
      </trkpt>
      <trkpt lat="44.0559" lon="6.14992">
        <ele>547.8</ele>
        <time>2020-10-18T07:39:37Z</time>
      </trkpt>
      <trkpt lat="44.05593" lon="6.14992">
        <ele>548</ele>
        <time>2020-10-18T07:39:38Z</time>
      </trkpt>
      <trkpt lat="44.05595" lon="6.14991">
        <ele>548.2</ele>
        <time>2020-10-18T07:39:39Z</time>
      </trkpt>
      <trkpt lat="44.05597" lon="6.1499">
        <ele>548.4</ele>
        <time>2020-10-18T07:39:40Z</time>
      </trkpt>
      <trkpt lat="44.056" lon="6.14989">
        <ele>548.4</ele>
        <time>2020-10-18T07:39:41Z</time>
      </trkpt>
      <trkpt lat="44.05604" lon="6.14989">
        <ele>548.6</ele>
        <time>2020-10-18T07:39:42Z</time>
      </trkpt>
      <trkpt lat="44.05607" lon="6.1499">
        <ele>548.8</ele>
        <time>2020-10-18T07:39:43Z</time>
      </trkpt>
      <trkpt lat="44.0561" lon="6.1499">
        <ele>548.8</ele>
        <time>2020-10-18T07:39:44Z</time>
      </trkpt>
      <trkpt lat="44.05613" lon="6.14992">
        <ele>549</ele>
        <time>2020-10-18T07:39:45Z</time>
      </trkpt>
      <trkpt lat="44.05615" lon="6.14995">
        <ele>549.4</ele>
        <time>2020-10-18T07:39:46Z</time>
      </trkpt>
      <trkpt lat="44.05617" lon="6.14998">
        <ele>549.4</ele>
        <time>2020-10-18T07:39:47Z</time>
      </trkpt>
      <trkpt lat="44.05619" lon="6.15001">
        <ele>549.6</ele>
        <time>2020-10-18T07:39:48Z</time>
      </trkpt>
      <trkpt lat="44.05622" lon="6.15003">
        <ele>549.6</ele>
        <time>2020-10-18T07:39:49Z</time>
      </trkpt>
      <trkpt lat="44.05624" lon="6.15004">
        <ele>550</ele>
        <time>2020-10-18T07:39:50Z</time>
      </trkpt>
      <trkpt lat="44.05626" lon="6.15006">
        <ele>550</ele>
        <time>2020-10-18T07:39:51Z</time>
      </trkpt>
      <trkpt lat="44.05628" lon="6.15007">
        <ele>550</ele>
        <time>2020-10-18T07:39:52Z</time>
      </trkpt>
      <trkpt lat="44.05631" lon="6.15007">
        <ele>550.2</ele>
        <time>2020-10-18T07:39:53Z</time>
      </trkpt>
      <trkpt lat="44.05634" lon="6.15007">
        <ele>550.2</ele>
        <time>2020-10-18T07:39:54Z</time>
      </trkpt>
      <trkpt lat="44.05638" lon="6.15006">
        <ele>550.2</ele>
        <time>2020-10-18T07:39:55Z</time>
      </trkpt>
      <trkpt lat="44.05641" lon="6.15006">
        <ele>550.4</ele>
        <time>2020-10-18T07:39:56Z</time>
      </trkpt>
      <trkpt lat="44.05643" lon="6.15006">
        <ele>550.6</ele>
        <time>2020-10-18T07:39:57Z</time>
      </trkpt>
      <trkpt lat="44.05646" lon="6.15007">
        <ele>550.8</ele>
        <time>2020-10-18T07:39:58Z</time>
      </trkpt>
      <trkpt lat="44.05649" lon="6.15008">
        <ele>551</ele>
        <time>2020-10-18T07:39:59Z</time>
      </trkpt>
      <trkpt lat="44.05652" lon="6.15009">
        <ele>551.2</ele>
        <time>2020-10-18T07:40:00Z</time>
      </trkpt>
      <trkpt lat="44.05655" lon="6.1501">
        <ele>551.4</ele>
        <time>2020-10-18T07:40:01Z</time>
      </trkpt>
      <trkpt lat="44.05658" lon="6.15011">
        <ele>551.4</ele>
        <time>2020-10-18T07:40:02Z</time>
      </trkpt>
      <trkpt lat="44.0566" lon="6.15011">
        <ele>551.4</ele>
        <time>2020-10-18T07:40:03Z</time>
      </trkpt>
      <trkpt lat="44.05663" lon="6.1501">
        <ele>551.6</ele>
        <time>2020-10-18T07:40:04Z</time>
      </trkpt>
      <trkpt lat="44.05665" lon="6.1501">
        <ele>551.8</ele>
        <time>2020-10-18T07:40:05Z</time>
      </trkpt>
      <trkpt lat="44.05668" lon="6.15011">
        <ele>551.8</ele>
        <time>2020-10-18T07:40:06Z</time>
      </trkpt>
      <trkpt lat="44.05669" lon="6.15013">
        <ele>552</ele>
        <time>2020-10-18T07:40:07Z</time>
      </trkpt>
      <trkpt lat="44.05671" lon="6.15016">
        <ele>552.4</ele>
        <time>2020-10-18T07:40:08Z</time>
      </trkpt>
      <trkpt lat="44.05672" lon="6.15019">
        <ele>552.4</ele>
        <time>2020-10-18T07:40:09Z</time>
      </trkpt>
      <trkpt lat="44.05674" lon="6.1502">
        <ele>552.4</ele>
        <time>2020-10-18T07:40:10Z</time>
      </trkpt>
      <trkpt lat="44.05677" lon="6.15021">
        <ele>552.6</ele>
        <time>2020-10-18T07:40:11Z</time>
      </trkpt>
      <trkpt lat="44.05679" lon="6.15022">
        <ele>552.6</ele>
        <time>2020-10-18T07:40:12Z</time>
      </trkpt>
      <trkpt lat="44.05681" lon="6.15022">
        <ele>553</ele>
        <time>2020-10-18T07:40:13Z</time>
      </trkpt>
      <trkpt lat="44.05682" lon="6.15023">
        <ele>553.2</ele>
        <time>2020-10-18T07:40:14Z</time>
      </trkpt>
      <trkpt lat="44.05683" lon="6.15025">
        <ele>553.2</ele>
        <time>2020-10-18T07:40:15Z</time>
      </trkpt>
      <trkpt lat="44.05685" lon="6.15026">
        <ele>553.4</ele>
        <time>2020-10-18T07:40:16Z</time>
      </trkpt>
      <trkpt lat="44.05686" lon="6.15027">
        <ele>553.6</ele>
        <time>2020-10-18T07:40:17Z</time>
      </trkpt>
      <trkpt lat="44.05688" lon="6.15028">
        <ele>553.8</ele>
        <time>2020-10-18T07:40:18Z</time>
      </trkpt>
      <trkpt lat="44.0569" lon="6.15029">
        <ele>553.8</ele>
        <time>2020-10-18T07:40:19Z</time>
      </trkpt>
      <trkpt lat="44.05692" lon="6.15029">
        <ele>554</ele>
        <time>2020-10-18T07:40:20Z</time>
      </trkpt>
      <trkpt lat="44.05694" lon="6.15029">
        <ele>554.2</ele>
        <time>2020-10-18T07:40:21Z</time>
      </trkpt>
      <trkpt lat="44.05697" lon="6.15029">
        <ele>554.6</ele>
        <time>2020-10-18T07:40:22Z</time>
      </trkpt>
      <trkpt lat="44.057" lon="6.15028">
        <ele>554.6</ele>
        <time>2020-10-18T07:40:23Z</time>
      </trkpt>
      <trkpt lat="44.05704" lon="6.15028">
        <ele>554.6</ele>
        <time>2020-10-18T07:40:24Z</time>
      </trkpt>
      <trkpt lat="44.05707" lon="6.15027">
        <ele>554.8</ele>
        <time>2020-10-18T07:40:25Z</time>
      </trkpt>
      <trkpt lat="44.05711" lon="6.15026">
        <ele>554.8</ele>
        <time>2020-10-18T07:40:26Z</time>
      </trkpt>
      <trkpt lat="44.05714" lon="6.15027">
        <ele>555</ele>
        <time>2020-10-18T07:40:27Z</time>
      </trkpt>
      <trkpt lat="44.05718" lon="6.15027">
        <ele>555</ele>
        <time>2020-10-18T07:40:28Z</time>
      </trkpt>
      <trkpt lat="44.05721" lon="6.15029">
        <ele>555</ele>
        <time>2020-10-18T07:40:29Z</time>
      </trkpt>
      <trkpt lat="44.05724" lon="6.1503">
        <ele>555.2</ele>
        <time>2020-10-18T07:40:30Z</time>
      </trkpt>
      <trkpt lat="44.05727" lon="6.15029">
        <ele>555.2</ele>
        <time>2020-10-18T07:40:31Z</time>
      </trkpt>
      <trkpt lat="44.0573" lon="6.15029">
        <ele>555.2</ele>
        <time>2020-10-18T07:40:32Z</time>
      </trkpt>
      <trkpt lat="44.05733" lon="6.15028">
        <ele>555.2</ele>
        <time>2020-10-18T07:40:33Z</time>
      </trkpt>
      <trkpt lat="44.05735" lon="6.15027">
        <ele>555.4</ele>
        <time>2020-10-18T07:40:34Z</time>
      </trkpt>
      <trkpt lat="44.05737" lon="6.15026">
        <ele>555.2</ele>
        <time>2020-10-18T07:40:35Z</time>
      </trkpt>
      <trkpt lat="44.05739" lon="6.15024">
        <ele>555.2</ele>
        <time>2020-10-18T07:40:36Z</time>
      </trkpt>
      <trkpt lat="44.05742" lon="6.15024">
        <ele>555.4</ele>
        <time>2020-10-18T07:40:37Z</time>
      </trkpt>
      <trkpt lat="44.05744" lon="6.15023">
        <ele>555.4</ele>
        <time>2020-10-18T07:40:38Z</time>
      </trkpt>
      <trkpt lat="44.05747" lon="6.15023">
        <ele>555.6</ele>
        <time>2020-10-18T07:40:39Z</time>
      </trkpt>
      <trkpt lat="44.0575" lon="6.15022">
        <ele>555.8</ele>
        <time>2020-10-18T07:40:40Z</time>
      </trkpt>
      <trkpt lat="44.05752" lon="6.15021">
        <ele>556</ele>
        <time>2020-10-18T07:40:41Z</time>
      </trkpt>
      <trkpt lat="44.05755" lon="6.15021">
        <ele>556</ele>
        <time>2020-10-18T07:40:42Z</time>
      </trkpt>
      <trkpt lat="44.05757" lon="6.15021">
        <ele>556</ele>
        <time>2020-10-18T07:40:43Z</time>
      </trkpt>
      <trkpt lat="44.05759" lon="6.1502">
        <ele>556</ele>
        <time>2020-10-18T07:40:44Z</time>
      </trkpt>
      <trkpt lat="44.0576" lon="6.15019">
        <ele>556.2</ele>
        <time>2020-10-18T07:40:45Z</time>
      </trkpt>
      <trkpt lat="44.0576" lon="6.15017">
        <ele>556.2</ele>
        <time>2020-10-18T07:40:46Z</time>
      </trkpt>
      <trkpt lat="44.0576" lon="6.15015">
        <ele>556.4</ele>
        <time>2020-10-18T07:40:47Z</time>
      </trkpt>
      <trkpt lat="44.0576" lon="6.15014">
        <ele>556.6</ele>
        <time>2020-10-18T07:40:48Z</time>
      </trkpt>
      <trkpt lat="44.0576" lon="6.15013">
        <ele>556.4</ele>
        <time>2020-10-18T07:40:49Z</time>
      </trkpt>
      <trkpt lat="44.0576" lon="6.15012">
        <ele>556.4</ele>
        <time>2020-10-18T07:40:50Z</time>
      </trkpt>
      <trkpt lat="44.0576" lon="6.15012">
        <ele>556.4</ele>
        <time>2020-10-18T07:40:52Z</time>
      </trkpt>
      <trkpt lat="44.0576" lon="6.15012">
        <ele>556.4</ele>
        <time>2020-10-18T07:40:54Z</time>
      </trkpt>
      <trkpt lat="44.05759" lon="6.15012">
        <ele>556.4</ele>
        <time>2020-10-18T07:40:56Z</time>
      </trkpt>
      <trkpt lat="44.0576" lon="6.15012">
        <ele>556.4</ele>
        <time>2020-10-18T07:40:58Z</time>
      </trkpt>
      <trkpt lat="44.05761" lon="6.15014">
        <ele>556.4</ele>
        <time>2020-10-18T07:41:00Z</time>
      </trkpt>
      <trkpt lat="44.05761" lon="6.15015">
        <ele>556.4</ele>
        <time>2020-10-18T07:41:02Z</time>
      </trkpt>
      <trkpt lat="44.05762" lon="6.15017">
        <ele>556.6</ele>
        <time>2020-10-18T07:41:04Z</time>
      </trkpt>
      <trkpt lat="44.05761" lon="6.1502">
        <ele>556.6</ele>
        <time>2020-10-18T07:41:06Z</time>
      </trkpt>
      <trkpt lat="44.05761" lon="6.15022">
        <ele>556.4</ele>
        <time>2020-10-18T07:41:07Z</time>
      </trkpt>
      <trkpt lat="44.05761" lon="6.15025">
        <ele>556.6</ele>
        <time>2020-10-18T07:41:08Z</time>
      </trkpt>
      <trkpt lat="44.05761" lon="6.15027">
        <ele>556.8</ele>
        <time>2020-10-18T07:41:09Z</time>
      </trkpt>
      <trkpt lat="44.05762" lon="6.15029">
        <ele>556.6</ele>
        <time>2020-10-18T07:41:10Z</time>
      </trkpt>
      <trkpt lat="44.05763" lon="6.15029">
        <ele>556.8</ele>
        <time>2020-10-18T07:41:11Z</time>
      </trkpt>
      <trkpt lat="44.05763" lon="6.15029">
        <ele>557</ele>
        <time>2020-10-18T07:41:12Z</time>
      </trkpt>
      <trkpt lat="44.05764" lon="6.15029">
        <ele>556.8</ele>
        <time>2020-10-18T07:41:13Z</time>
      </trkpt>
      <trkpt lat="44.05765" lon="6.15029">
        <ele>556.8</ele>
        <time>2020-10-18T07:41:14Z</time>
      </trkpt>
      <trkpt lat="44.05766" lon="6.1503">
        <ele>557</ele>
        <time>2020-10-18T07:41:15Z</time>
      </trkpt>
      <trkpt lat="44.05768" lon="6.1503">
        <ele>557</ele>
        <time>2020-10-18T07:41:16Z</time>
      </trkpt>
      <trkpt lat="44.05768" lon="6.15031">
        <ele>557.2</ele>
        <time>2020-10-18T07:41:17Z</time>
      </trkpt>
      <trkpt lat="44.05769" lon="6.15031">
        <ele>557.2</ele>
        <time>2020-10-18T07:41:18Z</time>
      </trkpt>
      <trkpt lat="44.0577" lon="6.15032">
        <ele>557.2</ele>
        <time>2020-10-18T07:41:19Z</time>
      </trkpt>
      <trkpt lat="44.0577" lon="6.15033">
        <ele>557.4</ele>
        <time>2020-10-18T07:41:20Z</time>
      </trkpt>
      <trkpt lat="44.05771" lon="6.15033">
        <ele>558</ele>
        <time>2020-10-18T07:41:21Z</time>
      </trkpt>
      <trkpt lat="44.05772" lon="6.15034">
        <ele>558.2</ele>
        <time>2020-10-18T07:41:22Z</time>
      </trkpt>
      <trkpt lat="44.05774" lon="6.15034">
        <ele>558.2</ele>
        <time>2020-10-18T07:41:23Z</time>
      </trkpt>
      <trkpt lat="44.05775" lon="6.15034">
        <ele>558.6</ele>
        <time>2020-10-18T07:41:24Z</time>
      </trkpt>
      <trkpt lat="44.05777" lon="6.15034">
        <ele>558.6</ele>
        <time>2020-10-18T07:41:25Z</time>
      </trkpt>
      <trkpt lat="44.0578" lon="6.15034">
        <ele>558.8</ele>
        <time>2020-10-18T07:41:26Z</time>
      </trkpt>
      <trkpt lat="44.05782" lon="6.15034">
        <ele>559</ele>
        <time>2020-10-18T07:41:27Z</time>
      </trkpt>
      <trkpt lat="44.05784" lon="6.15034">
        <ele>559</ele>
        <time>2020-10-18T07:41:28Z</time>
      </trkpt>
      <trkpt lat="44.05786" lon="6.15033">
        <ele>559.2</ele>
        <time>2020-10-18T07:41:29Z</time>
      </trkpt>
      <trkpt lat="44.05789" lon="6.15033">
        <ele>559.4</ele>
        <time>2020-10-18T07:41:30Z</time>
      </trkpt>
      <trkpt lat="44.05791" lon="6.15033">
        <ele>559.4</ele>
        <time>2020-10-18T07:41:31Z</time>
      </trkpt>
      <trkpt lat="44.05793" lon="6.15033">
        <ele>559.4</ele>
        <time>2020-10-18T07:41:32Z</time>
      </trkpt>
      <trkpt lat="44.05795" lon="6.15033">
        <ele>559.6</ele>
        <time>2020-10-18T07:41:33Z</time>
      </trkpt>
      <trkpt lat="44.05798" lon="6.15033">
        <ele>559.6</ele>
        <time>2020-10-18T07:41:34Z</time>
      </trkpt>
      <trkpt lat="44.058" lon="6.15033">
        <ele>559.8</ele>
        <time>2020-10-18T07:41:35Z</time>
      </trkpt>
      <trkpt lat="44.05802" lon="6.15033">
        <ele>560</ele>
        <time>2020-10-18T07:41:36Z</time>
      </trkpt>
      <trkpt lat="44.05804" lon="6.15033">
        <ele>560</ele>
        <time>2020-10-18T07:41:37Z</time>
      </trkpt>
      <trkpt lat="44.05807" lon="6.15033">
        <ele>560</ele>
        <time>2020-10-18T07:41:38Z</time>
      </trkpt>
      <trkpt lat="44.05809" lon="6.15033">
        <ele>560.2</ele>
        <time>2020-10-18T07:41:39Z</time>
      </trkpt>
      <trkpt lat="44.05811" lon="6.15034">
        <ele>560.4</ele>
        <time>2020-10-18T07:41:40Z</time>
      </trkpt>
      <trkpt lat="44.05813" lon="6.15034">
        <ele>560.4</ele>
        <time>2020-10-18T07:41:41Z</time>
      </trkpt>
      <trkpt lat="44.05815" lon="6.15034">
        <ele>560.6</ele>
        <time>2020-10-18T07:41:42Z</time>
      </trkpt>
      <trkpt lat="44.05817" lon="6.15035">
        <ele>560.8</ele>
        <time>2020-10-18T07:41:43Z</time>
      </trkpt>
      <trkpt lat="44.05819" lon="6.15035">
        <ele>561</ele>
        <time>2020-10-18T07:41:44Z</time>
      </trkpt>
      <trkpt lat="44.05821" lon="6.15035">
        <ele>561.4</ele>
        <time>2020-10-18T07:41:45Z</time>
      </trkpt>
      <trkpt lat="44.05824" lon="6.15035">
        <ele>561.4</ele>
        <time>2020-10-18T07:41:46Z</time>
      </trkpt>
      <trkpt lat="44.05826" lon="6.15035">
        <ele>561.4</ele>
        <time>2020-10-18T07:41:47Z</time>
      </trkpt>
      <trkpt lat="44.05828" lon="6.15034">
        <ele>561.6</ele>
        <time>2020-10-18T07:41:48Z</time>
      </trkpt>
      <trkpt lat="44.05831" lon="6.15034">
        <ele>561.8</ele>
        <time>2020-10-18T07:41:49Z</time>
      </trkpt>
      <trkpt lat="44.05833" lon="6.15033">
        <ele>562.2</ele>
        <time>2020-10-18T07:41:50Z</time>
      </trkpt>
      <trkpt lat="44.05836" lon="6.15032">
        <ele>562.4</ele>
        <time>2020-10-18T07:41:51Z</time>
      </trkpt>
      <trkpt lat="44.05838" lon="6.15031">
        <ele>562.8</ele>
        <time>2020-10-18T07:41:52Z</time>
      </trkpt>
      <trkpt lat="44.05841" lon="6.15029">
        <ele>563.4</ele>
        <time>2020-10-18T07:41:53Z</time>
      </trkpt>
      <trkpt lat="44.05843" lon="6.15028">
        <ele>563.4</ele>
        <time>2020-10-18T07:41:54Z</time>
      </trkpt>
      <trkpt lat="44.05846" lon="6.15027">
        <ele>563.6</ele>
        <time>2020-10-18T07:41:55Z</time>
      </trkpt>
      <trkpt lat="44.05848" lon="6.15026">
        <ele>563.6</ele>
        <time>2020-10-18T07:41:56Z</time>
      </trkpt>
      <trkpt lat="44.05851" lon="6.15025">
        <ele>563.8</ele>
        <time>2020-10-18T07:41:57Z</time>
      </trkpt>
      <trkpt lat="44.05853" lon="6.15024">
        <ele>563.8</ele>
        <time>2020-10-18T07:41:58Z</time>
      </trkpt>
      <trkpt lat="44.05856" lon="6.15023">
        <ele>563.8</ele>
        <time>2020-10-18T07:41:59Z</time>
      </trkpt>
      <trkpt lat="44.05859" lon="6.15022">
        <ele>564.2</ele>
        <time>2020-10-18T07:42:00Z</time>
      </trkpt>
      <trkpt lat="44.05861" lon="6.15022">
        <ele>564.2</ele>
        <time>2020-10-18T07:42:01Z</time>
      </trkpt>
      <trkpt lat="44.05863" lon="6.15022">
        <ele>564.4</ele>
        <time>2020-10-18T07:42:02Z</time>
      </trkpt>
      <trkpt lat="44.05864" lon="6.15023">
        <ele>564.4</ele>
        <time>2020-10-18T07:42:03Z</time>
      </trkpt>
      <trkpt lat="44.05865" lon="6.15023">
        <ele>564.4</ele>
        <time>2020-10-18T07:42:04Z</time>
      </trkpt>
      <trkpt lat="44.05866" lon="6.15023">
        <ele>564.4</ele>
        <time>2020-10-18T07:42:05Z</time>
      </trkpt>
      <trkpt lat="44.05867" lon="6.15023">
        <ele>564.6</ele>
        <time>2020-10-18T07:42:06Z</time>
      </trkpt>
      <trkpt lat="44.05869" lon="6.15022">
        <ele>564.8</ele>
        <time>2020-10-18T07:42:07Z</time>
      </trkpt>
      <trkpt lat="44.0587" lon="6.15019">
        <ele>564.8</ele>
        <time>2020-10-18T07:42:08Z</time>
      </trkpt>
      <trkpt lat="44.05872" lon="6.15017">
        <ele>564.6</ele>
        <time>2020-10-18T07:42:09Z</time>
      </trkpt>
      <trkpt lat="44.05873" lon="6.15014">
        <ele>565</ele>
        <time>2020-10-18T07:42:10Z</time>
      </trkpt>
      <trkpt lat="44.05875" lon="6.15011">
        <ele>565</ele>
        <time>2020-10-18T07:42:11Z</time>
      </trkpt>
      <trkpt lat="44.05877" lon="6.15009">
        <ele>565.4</ele>
        <time>2020-10-18T07:42:12Z</time>
      </trkpt>
      <trkpt lat="44.05879" lon="6.15007">
        <ele>565.4</ele>
        <time>2020-10-18T07:42:13Z</time>
      </trkpt>
      <trkpt lat="44.05882" lon="6.15004">
        <ele>565.4</ele>
        <time>2020-10-18T07:42:14Z</time>
      </trkpt>
      <trkpt lat="44.05884" lon="6.15002">
        <ele>565.6</ele>
        <time>2020-10-18T07:42:15Z</time>
      </trkpt>
      <trkpt lat="44.05887" lon="6.15">
        <ele>565.4</ele>
        <time>2020-10-18T07:42:16Z</time>
      </trkpt>
      <trkpt lat="44.05893" lon="6.14995">
        <ele>565.4</ele>
        <time>2020-10-18T07:42:18Z</time>
      </trkpt>
      <trkpt lat="44.05899" lon="6.14991">
        <ele>565.6</ele>
        <time>2020-10-18T07:42:20Z</time>
      </trkpt>
      <trkpt lat="44.05906" lon="6.14987">
        <ele>565.4</ele>
        <time>2020-10-18T07:42:22Z</time>
      </trkpt>
      <trkpt lat="44.0591" lon="6.14985">
        <ele>565.4</ele>
        <time>2020-10-18T07:42:23Z</time>
      </trkpt>
      <trkpt lat="44.05913" lon="6.14982">
        <ele>565.4</ele>
        <time>2020-10-18T07:42:24Z</time>
      </trkpt>
      <trkpt lat="44.0592" lon="6.14978">
        <ele>565.4</ele>
        <time>2020-10-18T07:42:26Z</time>
      </trkpt>
      <trkpt lat="44.05927" lon="6.14974">
        <ele>565.4</ele>
        <time>2020-10-18T07:42:28Z</time>
      </trkpt>
      <trkpt lat="44.0593" lon="6.14972">
        <ele>565.4</ele>
        <time>2020-10-18T07:42:29Z</time>
      </trkpt>
      <trkpt lat="44.05933" lon="6.1497">
        <ele>565.4</ele>
        <time>2020-10-18T07:42:30Z</time>
      </trkpt>
      <trkpt lat="44.05936" lon="6.14968">
        <ele>565.4</ele>
        <time>2020-10-18T07:42:31Z</time>
      </trkpt>
      <trkpt lat="44.05939" lon="6.14966">
        <ele>565.4</ele>
        <time>2020-10-18T07:42:32Z</time>
      </trkpt>
      <trkpt lat="44.05942" lon="6.14964">
        <ele>565.4</ele>
        <time>2020-10-18T07:42:33Z</time>
      </trkpt>
      <trkpt lat="44.05944" lon="6.14961">
        <ele>565.6</ele>
        <time>2020-10-18T07:42:34Z</time>
      </trkpt>
      <trkpt lat="44.05946" lon="6.14957">
        <ele>565.8</ele>
        <time>2020-10-18T07:42:35Z</time>
      </trkpt>
      <trkpt lat="44.05948" lon="6.14953">
        <ele>565.8</ele>
        <time>2020-10-18T07:42:36Z</time>
      </trkpt>
      <trkpt lat="44.0595" lon="6.14949">
        <ele>566</ele>
        <time>2020-10-18T07:42:37Z</time>
      </trkpt>
      <trkpt lat="44.05953" lon="6.14945">
        <ele>566</ele>
        <time>2020-10-18T07:42:38Z</time>
      </trkpt>
      <trkpt lat="44.05958" lon="6.1494">
        <ele>566.6</ele>
        <time>2020-10-18T07:42:40Z</time>
      </trkpt>
      <trkpt lat="44.05961" lon="6.14938">
        <ele>566.6</ele>
        <time>2020-10-18T07:42:41Z</time>
      </trkpt>
      <trkpt lat="44.05964" lon="6.14935">
        <ele>566.6</ele>
        <time>2020-10-18T07:42:42Z</time>
      </trkpt>
      <trkpt lat="44.05971" lon="6.14931">
        <ele>566.8</ele>
        <time>2020-10-18T07:42:44Z</time>
      </trkpt>
      <trkpt lat="44.05974" lon="6.14929">
        <ele>566.8</ele>
        <time>2020-10-18T07:42:45Z</time>
      </trkpt>
      <trkpt lat="44.05977" lon="6.14928">
        <ele>566.8</ele>
        <time>2020-10-18T07:42:46Z</time>
      </trkpt>
      <trkpt lat="44.0598" lon="6.14926">
        <ele>567</ele>
        <time>2020-10-18T07:42:47Z</time>
      </trkpt>
      <trkpt lat="44.05983" lon="6.14924">
        <ele>567.2</ele>
        <time>2020-10-18T07:42:48Z</time>
      </trkpt>
      <trkpt lat="44.05986" lon="6.14922">
        <ele>567.4</ele>
        <time>2020-10-18T07:42:49Z</time>
      </trkpt>
      <trkpt lat="44.05989" lon="6.14921">
        <ele>567.4</ele>
        <time>2020-10-18T07:42:50Z</time>
      </trkpt>
      <trkpt lat="44.05992" lon="6.14919">
        <ele>567.4</ele>
        <time>2020-10-18T07:42:51Z</time>
      </trkpt>
      <trkpt lat="44.05994" lon="6.14917">
        <ele>567.4</ele>
        <time>2020-10-18T07:42:52Z</time>
      </trkpt>
      <trkpt lat="44.05997" lon="6.14916">
        <ele>567.6</ele>
        <time>2020-10-18T07:42:53Z</time>
      </trkpt>
      <trkpt lat="44.06" lon="6.14914">
        <ele>567.8</ele>
        <time>2020-10-18T07:42:54Z</time>
      </trkpt>
      <trkpt lat="44.06003" lon="6.14912">
        <ele>568</ele>
        <time>2020-10-18T07:42:55Z</time>
      </trkpt>
      <trkpt lat="44.06006" lon="6.1491">
        <ele>568.2</ele>
        <time>2020-10-18T07:42:56Z</time>
      </trkpt>
      <trkpt lat="44.06008" lon="6.14908">
        <ele>568.4</ele>
        <time>2020-10-18T07:42:57Z</time>
      </trkpt>
      <trkpt lat="44.06011" lon="6.14906">
        <ele>568.6</ele>
        <time>2020-10-18T07:42:58Z</time>
      </trkpt>
      <trkpt lat="44.06014" lon="6.14904">
        <ele>568.6</ele>
        <time>2020-10-18T07:42:59Z</time>
      </trkpt>
      <trkpt lat="44.06017" lon="6.14902">
        <ele>568.8</ele>
        <time>2020-10-18T07:43:00Z</time>
      </trkpt>
      <trkpt lat="44.0602" lon="6.14901">
        <ele>569</ele>
        <time>2020-10-18T07:43:01Z</time>
      </trkpt>
      <trkpt lat="44.06023" lon="6.14899">
        <ele>569.2</ele>
        <time>2020-10-18T07:43:02Z</time>
      </trkpt>
      <trkpt lat="44.06026" lon="6.14897">
        <ele>569.2</ele>
        <time>2020-10-18T07:43:03Z</time>
      </trkpt>
      <trkpt lat="44.06028" lon="6.14896">
        <ele>569.2</ele>
        <time>2020-10-18T07:43:04Z</time>
      </trkpt>
      <trkpt lat="44.06031" lon="6.14894">
        <ele>569.6</ele>
        <time>2020-10-18T07:43:05Z</time>
      </trkpt>
      <trkpt lat="44.06034" lon="6.14893">
        <ele>569.4</ele>
        <time>2020-10-18T07:43:06Z</time>
      </trkpt>
      <trkpt lat="44.06037" lon="6.14892">
        <ele>569.6</ele>
        <time>2020-10-18T07:43:07Z</time>
      </trkpt>
      <trkpt lat="44.06039" lon="6.14891">
        <ele>569.8</ele>
        <time>2020-10-18T07:43:08Z</time>
      </trkpt>
      <trkpt lat="44.06042" lon="6.1489">
        <ele>569.8</ele>
        <time>2020-10-18T07:43:09Z</time>
      </trkpt>
      <trkpt lat="44.06044" lon="6.1489">
        <ele>570</ele>
        <time>2020-10-18T07:43:10Z</time>
      </trkpt>
      <trkpt lat="44.06047" lon="6.14889">
        <ele>570</ele>
        <time>2020-10-18T07:43:11Z</time>
      </trkpt>
      <trkpt lat="44.0605" lon="6.14888">
        <ele>570.2</ele>
        <time>2020-10-18T07:43:12Z</time>
      </trkpt>
      <trkpt lat="44.06052" lon="6.14886">
        <ele>570.2</ele>
        <time>2020-10-18T07:43:13Z</time>
      </trkpt>
      <trkpt lat="44.06055" lon="6.14885">
        <ele>570.4</ele>
        <time>2020-10-18T07:43:14Z</time>
      </trkpt>
      <trkpt lat="44.06058" lon="6.14884">
        <ele>570.4</ele>
        <time>2020-10-18T07:43:15Z</time>
      </trkpt>
      <trkpt lat="44.06061" lon="6.14883">
        <ele>570.8</ele>
        <time>2020-10-18T07:43:16Z</time>
      </trkpt>
      <trkpt lat="44.06064" lon="6.14882">
        <ele>571</ele>
        <time>2020-10-18T07:43:17Z</time>
      </trkpt>
      <trkpt lat="44.06067" lon="6.14881">
        <ele>571</ele>
        <time>2020-10-18T07:43:18Z</time>
      </trkpt>
      <trkpt lat="44.0607" lon="6.14879">
        <ele>571.2</ele>
        <time>2020-10-18T07:43:19Z</time>
      </trkpt>
      <trkpt lat="44.06072" lon="6.14878">
        <ele>571.6</ele>
        <time>2020-10-18T07:43:20Z</time>
      </trkpt>
      <trkpt lat="44.06075" lon="6.14876">
        <ele>571.8</ele>
        <time>2020-10-18T07:43:21Z</time>
      </trkpt>
      <trkpt lat="44.06078" lon="6.14875">
        <ele>571.8</ele>
        <time>2020-10-18T07:43:22Z</time>
      </trkpt>
      <trkpt lat="44.06081" lon="6.14873">
        <ele>572</ele>
        <time>2020-10-18T07:43:23Z</time>
      </trkpt>
      <trkpt lat="44.06083" lon="6.14872">
        <ele>572.2</ele>
        <time>2020-10-18T07:43:24Z</time>
      </trkpt>
      <trkpt lat="44.06086" lon="6.14871">
        <ele>572.4</ele>
        <time>2020-10-18T07:43:25Z</time>
      </trkpt>
      <trkpt lat="44.06088" lon="6.14869">
        <ele>572.4</ele>
        <time>2020-10-18T07:43:26Z</time>
      </trkpt>
      <trkpt lat="44.06091" lon="6.14868">
        <ele>572.6</ele>
        <time>2020-10-18T07:43:27Z</time>
      </trkpt>
      <trkpt lat="44.06094" lon="6.14867">
        <ele>572.6</ele>
        <time>2020-10-18T07:43:28Z</time>
      </trkpt>
      <trkpt lat="44.06097" lon="6.14866">
        <ele>572.8</ele>
        <time>2020-10-18T07:43:29Z</time>
      </trkpt>
      <trkpt lat="44.061" lon="6.14866">
        <ele>572.8</ele>
        <time>2020-10-18T07:43:30Z</time>
      </trkpt>
      <trkpt lat="44.06103" lon="6.14866">
        <ele>573</ele>
        <time>2020-10-18T07:43:31Z</time>
      </trkpt>
      <trkpt lat="44.06105" lon="6.14866">
        <ele>573</ele>
        <time>2020-10-18T07:43:32Z</time>
      </trkpt>
      <trkpt lat="44.06108" lon="6.14866">
        <ele>573</ele>
        <time>2020-10-18T07:43:33Z</time>
      </trkpt>
      <trkpt lat="44.06111" lon="6.14866">
        <ele>573.6</ele>
        <time>2020-10-18T07:43:34Z</time>
      </trkpt>
      <trkpt lat="44.06113" lon="6.14866">
        <ele>574</ele>
        <time>2020-10-18T07:43:35Z</time>
      </trkpt>
      <trkpt lat="44.06116" lon="6.14866">
        <ele>574.2</ele>
        <time>2020-10-18T07:43:36Z</time>
      </trkpt>
      <trkpt lat="44.06118" lon="6.14866">
        <ele>574.4</ele>
        <time>2020-10-18T07:43:37Z</time>
      </trkpt>
      <trkpt lat="44.0612" lon="6.14867">
        <ele>574.6</ele>
        <time>2020-10-18T07:43:38Z</time>
      </trkpt>
      <trkpt lat="44.06122" lon="6.14867">
        <ele>574.6</ele>
        <time>2020-10-18T07:43:39Z</time>
      </trkpt>
      <trkpt lat="44.06124" lon="6.14866">
        <ele>575</ele>
        <time>2020-10-18T07:43:40Z</time>
      </trkpt>
      <trkpt lat="44.06126" lon="6.14865">
        <ele>575.4</ele>
        <time>2020-10-18T07:43:41Z</time>
      </trkpt>
      <trkpt lat="44.06128" lon="6.14863">
        <ele>575.8</ele>
        <time>2020-10-18T07:43:42Z</time>
      </trkpt>
      <trkpt lat="44.06131" lon="6.1486">
        <ele>576</ele>
        <time>2020-10-18T07:43:43Z</time>
      </trkpt>
      <trkpt lat="44.06134" lon="6.14857">
        <ele>576</ele>
        <time>2020-10-18T07:43:44Z</time>
      </trkpt>
      <trkpt lat="44.06137" lon="6.14854">
        <ele>576</ele>
        <time>2020-10-18T07:43:45Z</time>
      </trkpt>
      <trkpt lat="44.06141" lon="6.14851">
        <ele>575.8</ele>
        <time>2020-10-18T07:43:46Z</time>
      </trkpt>
      <trkpt lat="44.06144" lon="6.14849">
        <ele>576.2</ele>
        <time>2020-10-18T07:43:47Z</time>
      </trkpt>
      <trkpt lat="44.06147" lon="6.14847">
        <ele>576.2</ele>
        <time>2020-10-18T07:43:48Z</time>
      </trkpt>
      <trkpt lat="44.0615" lon="6.14846">
        <ele>576.2</ele>
        <time>2020-10-18T07:43:49Z</time>
      </trkpt>
      <trkpt lat="44.06153" lon="6.14846">
        <ele>576.4</ele>
        <time>2020-10-18T07:43:50Z</time>
      </trkpt>
      <trkpt lat="44.06157" lon="6.14846">
        <ele>576.4</ele>
        <time>2020-10-18T07:43:51Z</time>
      </trkpt>
      <trkpt lat="44.0616" lon="6.14846">
        <ele>576.4</ele>
        <time>2020-10-18T07:43:52Z</time>
      </trkpt>
      <trkpt lat="44.06166" lon="6.14845">
        <ele>576.4</ele>
        <time>2020-10-18T07:43:54Z</time>
      </trkpt>
      <trkpt lat="44.06171" lon="6.14843">
        <ele>576.6</ele>
        <time>2020-10-18T07:43:56Z</time>
      </trkpt>
      <trkpt lat="44.06174" lon="6.14842">
        <ele>576.6</ele>
        <time>2020-10-18T07:43:57Z</time>
      </trkpt>
      <trkpt lat="44.06177" lon="6.14841">
        <ele>576.6</ele>
        <time>2020-10-18T07:43:58Z</time>
      </trkpt>
      <trkpt lat="44.06179" lon="6.1484">
        <ele>576.6</ele>
        <time>2020-10-18T07:43:59Z</time>
      </trkpt>
      <trkpt lat="44.06181" lon="6.14841">
        <ele>576.6</ele>
        <time>2020-10-18T07:44:00Z</time>
      </trkpt>
      <trkpt lat="44.06182" lon="6.14843">
        <ele>576.6</ele>
        <time>2020-10-18T07:44:01Z</time>
      </trkpt>
      <trkpt lat="44.06182" lon="6.14845">
        <ele>576.6</ele>
        <time>2020-10-18T07:44:02Z</time>
      </trkpt>
      <trkpt lat="44.06182" lon="6.14847">
        <ele>576.8</ele>
        <time>2020-10-18T07:44:03Z</time>
      </trkpt>
      <trkpt lat="44.06181" lon="6.14849">
        <ele>577</ele>
        <time>2020-10-18T07:44:04Z</time>
      </trkpt>
      <trkpt lat="44.0618" lon="6.14851">
        <ele>577</ele>
        <time>2020-10-18T07:44:05Z</time>
      </trkpt>
      <trkpt lat="44.06178" lon="6.14853">
        <ele>577</ele>
        <time>2020-10-18T07:44:06Z</time>
      </trkpt>
      <trkpt lat="44.06177" lon="6.14855">
        <ele>577.4</ele>
        <time>2020-10-18T07:44:07Z</time>
      </trkpt>
      <trkpt lat="44.06177" lon="6.14857">
        <ele>577.4</ele>
        <time>2020-10-18T07:44:08Z</time>
      </trkpt>
      <trkpt lat="44.06176" lon="6.14859">
        <ele>577.6</ele>
        <time>2020-10-18T07:44:09Z</time>
      </trkpt>
      <trkpt lat="44.06176" lon="6.14861">
        <ele>577.8</ele>
        <time>2020-10-18T07:44:10Z</time>
      </trkpt>
      <trkpt lat="44.06175" lon="6.14863">
        <ele>577.8</ele>
        <time>2020-10-18T07:44:11Z</time>
      </trkpt>
      <trkpt lat="44.06175" lon="6.14866">
        <ele>578</ele>
        <time>2020-10-18T07:44:12Z</time>
      </trkpt>
      <trkpt lat="44.06175" lon="6.14868">
        <ele>578</ele>
        <time>2020-10-18T07:44:13Z</time>
      </trkpt>
      <trkpt lat="44.06175" lon="6.1487">
        <ele>578.2</ele>
        <time>2020-10-18T07:44:14Z</time>
      </trkpt>
      <trkpt lat="44.06175" lon="6.14872">
        <ele>578.4</ele>
        <time>2020-10-18T07:44:15Z</time>
      </trkpt>
      <trkpt lat="44.06175" lon="6.14874">
        <ele>578.4</ele>
        <time>2020-10-18T07:44:16Z</time>
      </trkpt>
      <trkpt lat="44.06174" lon="6.14876">
        <ele>578.8</ele>
        <time>2020-10-18T07:44:17Z</time>
      </trkpt>
      <trkpt lat="44.06173" lon="6.14878">
        <ele>579.2</ele>
        <time>2020-10-18T07:44:18Z</time>
      </trkpt>
      <trkpt lat="44.06173" lon="6.1488">
        <ele>579.4</ele>
        <time>2020-10-18T07:44:19Z</time>
      </trkpt>
      <trkpt lat="44.06172" lon="6.14881">
        <ele>579.6</ele>
        <time>2020-10-18T07:44:20Z</time>
      </trkpt>
      <trkpt lat="44.06172" lon="6.14883">
        <ele>580</ele>
        <time>2020-10-18T07:44:21Z</time>
      </trkpt>
      <trkpt lat="44.06171" lon="6.14885">
        <ele>580.2</ele>
        <time>2020-10-18T07:44:22Z</time>
      </trkpt>
      <trkpt lat="44.06171" lon="6.14887">
        <ele>581</ele>
        <time>2020-10-18T07:44:23Z</time>
      </trkpt>
      <trkpt lat="44.0617" lon="6.14888">
        <ele>581.2</ele>
        <time>2020-10-18T07:44:24Z</time>
      </trkpt>
      <trkpt lat="44.06169" lon="6.1489">
        <ele>581.4</ele>
        <time>2020-10-18T07:44:25Z</time>
      </trkpt>
      <trkpt lat="44.06168" lon="6.14892">
        <ele>581.8</ele>
        <time>2020-10-18T07:44:26Z</time>
      </trkpt>
      <trkpt lat="44.06167" lon="6.14894">
        <ele>582</ele>
        <time>2020-10-18T07:44:27Z</time>
      </trkpt>
      <trkpt lat="44.06166" lon="6.14896">
        <ele>582.2</ele>
        <time>2020-10-18T07:44:28Z</time>
      </trkpt>
      <trkpt lat="44.06165" lon="6.14898">
        <ele>582.4</ele>
        <time>2020-10-18T07:44:29Z</time>
      </trkpt>
      <trkpt lat="44.06163" lon="6.14899">
        <ele>582.6</ele>
        <time>2020-10-18T07:44:30Z</time>
      </trkpt>
      <trkpt lat="44.06162" lon="6.14901">
        <ele>583.4</ele>
        <time>2020-10-18T07:44:31Z</time>
      </trkpt>
      <trkpt lat="44.06161" lon="6.14903">
        <ele>583.6</ele>
        <time>2020-10-18T07:44:32Z</time>
      </trkpt>
      <trkpt lat="44.0616" lon="6.14904">
        <ele>583.6</ele>
        <time>2020-10-18T07:44:33Z</time>
      </trkpt>
      <trkpt lat="44.06159" lon="6.14906">
        <ele>583.6</ele>
        <time>2020-10-18T07:44:34Z</time>
      </trkpt>
      <trkpt lat="44.06158" lon="6.14908">
        <ele>584</ele>
        <time>2020-10-18T07:44:35Z</time>
      </trkpt>
      <trkpt lat="44.06157" lon="6.1491">
        <ele>584</ele>
        <time>2020-10-18T07:44:36Z</time>
      </trkpt>
      <trkpt lat="44.06156" lon="6.14912">
        <ele>584.2</ele>
        <time>2020-10-18T07:44:37Z</time>
      </trkpt>
      <trkpt lat="44.06155" lon="6.14913">
        <ele>584.6</ele>
        <time>2020-10-18T07:44:38Z</time>
      </trkpt>
      <trkpt lat="44.06154" lon="6.14915">
        <ele>585</ele>
        <time>2020-10-18T07:44:39Z</time>
      </trkpt>
      <trkpt lat="44.06153" lon="6.14917">
        <ele>585.4</ele>
        <time>2020-10-18T07:44:40Z</time>
      </trkpt>
      <trkpt lat="44.06152" lon="6.14919">
        <ele>585.4</ele>
        <time>2020-10-18T07:44:41Z</time>
      </trkpt>
      <trkpt lat="44.06151" lon="6.1492">
        <ele>585.4</ele>
        <time>2020-10-18T07:44:42Z</time>
      </trkpt>
      <trkpt lat="44.06151" lon="6.14922">
        <ele>585.6</ele>
        <time>2020-10-18T07:44:43Z</time>
      </trkpt>
      <trkpt lat="44.0615" lon="6.14924">
        <ele>585.6</ele>
        <time>2020-10-18T07:44:44Z</time>
      </trkpt>
      <trkpt lat="44.0615" lon="6.14926">
        <ele>586</ele>
        <time>2020-10-18T07:44:45Z</time>
      </trkpt>
      <trkpt lat="44.06149" lon="6.14929">
        <ele>586.2</ele>
        <time>2020-10-18T07:44:46Z</time>
      </trkpt>
      <trkpt lat="44.06149" lon="6.14931">
        <ele>586.4</ele>
        <time>2020-10-18T07:44:47Z</time>
      </trkpt>
      <trkpt lat="44.06149" lon="6.14933">
        <ele>586.8</ele>
        <time>2020-10-18T07:44:48Z</time>
      </trkpt>
      <trkpt lat="44.06149" lon="6.14935">
        <ele>586.8</ele>
        <time>2020-10-18T07:44:49Z</time>
      </trkpt>
      <trkpt lat="44.06149" lon="6.14937">
        <ele>587</ele>
        <time>2020-10-18T07:44:50Z</time>
      </trkpt>
      <trkpt lat="44.0615" lon="6.1494">
        <ele>587.4</ele>
        <time>2020-10-18T07:44:51Z</time>
      </trkpt>
      <trkpt lat="44.0615" lon="6.14942">
        <ele>587.6</ele>
        <time>2020-10-18T07:44:52Z</time>
      </trkpt>
      <trkpt lat="44.0615" lon="6.14944">
        <ele>587.8</ele>
        <time>2020-10-18T07:44:53Z</time>
      </trkpt>
      <trkpt lat="44.0615" lon="6.14946">
        <ele>588</ele>
        <time>2020-10-18T07:44:54Z</time>
      </trkpt>
      <trkpt lat="44.06151" lon="6.14948">
        <ele>588</ele>
        <time>2020-10-18T07:44:55Z</time>
      </trkpt>
      <trkpt lat="44.06151" lon="6.1495">
        <ele>588.4</ele>
        <time>2020-10-18T07:44:56Z</time>
      </trkpt>
      <trkpt lat="44.06151" lon="6.14952">
        <ele>588.8</ele>
        <time>2020-10-18T07:44:57Z</time>
      </trkpt>
      <trkpt lat="44.06152" lon="6.14954">
        <ele>588.8</ele>
        <time>2020-10-18T07:44:58Z</time>
      </trkpt>
      <trkpt lat="44.06152" lon="6.14956">
        <ele>589.2</ele>
        <time>2020-10-18T07:44:59Z</time>
      </trkpt>
      <trkpt lat="44.06153" lon="6.14958">
        <ele>589.4</ele>
        <time>2020-10-18T07:45:00Z</time>
      </trkpt>
      <trkpt lat="44.06153" lon="6.14959">
        <ele>589.6</ele>
        <time>2020-10-18T07:45:01Z</time>
      </trkpt>
      <trkpt lat="44.06153" lon="6.14961">
        <ele>589.8</ele>
        <time>2020-10-18T07:45:02Z</time>
      </trkpt>
      <trkpt lat="44.06153" lon="6.14963">
        <ele>590.2</ele>
        <time>2020-10-18T07:45:03Z</time>
      </trkpt>
      <trkpt lat="44.06153" lon="6.14965">
        <ele>590.4</ele>
        <time>2020-10-18T07:45:04Z</time>
      </trkpt>
      <trkpt lat="44.06152" lon="6.14967">
        <ele>590.8</ele>
        <time>2020-10-18T07:45:05Z</time>
      </trkpt>
      <trkpt lat="44.06152" lon="6.14968">
        <ele>591</ele>
        <time>2020-10-18T07:45:06Z</time>
      </trkpt>
      <trkpt lat="44.06152" lon="6.1497">
        <ele>591.2</ele>
        <time>2020-10-18T07:45:07Z</time>
      </trkpt>
      <trkpt lat="44.06151" lon="6.14972">
        <ele>591.4</ele>
        <time>2020-10-18T07:45:08Z</time>
      </trkpt>
      <trkpt lat="44.06151" lon="6.14974">
        <ele>592</ele>
        <time>2020-10-18T07:45:09Z</time>
      </trkpt>
      <trkpt lat="44.0615" lon="6.14976">
        <ele>592.4</ele>
        <time>2020-10-18T07:45:10Z</time>
      </trkpt>
      <trkpt lat="44.0615" lon="6.14978">
        <ele>592.6</ele>
        <time>2020-10-18T07:45:11Z</time>
      </trkpt>
      <trkpt lat="44.06149" lon="6.14979">
        <ele>593</ele>
        <time>2020-10-18T07:45:12Z</time>
      </trkpt>
      <trkpt lat="44.06148" lon="6.1498">
        <ele>593</ele>
        <time>2020-10-18T07:45:13Z</time>
      </trkpt>
      <trkpt lat="44.06147" lon="6.14982">
        <ele>593.2</ele>
        <time>2020-10-18T07:45:14Z</time>
      </trkpt>
      <trkpt lat="44.06147" lon="6.14983">
        <ele>593.4</ele>
        <time>2020-10-18T07:45:15Z</time>
      </trkpt>
      <trkpt lat="44.06146" lon="6.14985">
        <ele>593.4</ele>
        <time>2020-10-18T07:45:16Z</time>
      </trkpt>
      <trkpt lat="44.06144" lon="6.14987">
        <ele>593.6</ele>
        <time>2020-10-18T07:45:17Z</time>
      </trkpt>
      <trkpt lat="44.06143" lon="6.14989">
        <ele>594</ele>
        <time>2020-10-18T07:45:18Z</time>
      </trkpt>
      <trkpt lat="44.06142" lon="6.1499">
        <ele>594.2</ele>
        <time>2020-10-18T07:45:19Z</time>
      </trkpt>
      <trkpt lat="44.06141" lon="6.14992">
        <ele>594.6</ele>
        <time>2020-10-18T07:45:20Z</time>
      </trkpt>
      <trkpt lat="44.0614" lon="6.14994">
        <ele>595</ele>
        <time>2020-10-18T07:45:21Z</time>
      </trkpt>
      <trkpt lat="44.06138" lon="6.14995">
        <ele>595.4</ele>
        <time>2020-10-18T07:45:22Z</time>
      </trkpt>
      <trkpt lat="44.06137" lon="6.14997">
        <ele>595.6</ele>
        <time>2020-10-18T07:45:23Z</time>
      </trkpt>
      <trkpt lat="44.06136" lon="6.14998">
        <ele>595.8</ele>
        <time>2020-10-18T07:45:24Z</time>
      </trkpt>
      <trkpt lat="44.06134" lon="6.15">
        <ele>596</ele>
        <time>2020-10-18T07:45:25Z</time>
      </trkpt>
      <trkpt lat="44.06133" lon="6.15001">
        <ele>596.4</ele>
        <time>2020-10-18T07:45:26Z</time>
      </trkpt>
      <trkpt lat="44.06132" lon="6.15002">
        <ele>596.6</ele>
        <time>2020-10-18T07:45:27Z</time>
      </trkpt>
      <trkpt lat="44.06131" lon="6.15004">
        <ele>596.8</ele>
        <time>2020-10-18T07:45:28Z</time>
      </trkpt>
      <trkpt lat="44.06129" lon="6.15005">
        <ele>597</ele>
        <time>2020-10-18T07:45:29Z</time>
      </trkpt>
      <trkpt lat="44.06128" lon="6.15006">
        <ele>597.2</ele>
        <time>2020-10-18T07:45:30Z</time>
      </trkpt>
      <trkpt lat="44.06126" lon="6.15006">
        <ele>597.2</ele>
        <time>2020-10-18T07:45:31Z</time>
      </trkpt>
      <trkpt lat="44.06124" lon="6.15007">
        <ele>597.2</ele>
        <time>2020-10-18T07:45:32Z</time>
      </trkpt>
      <trkpt lat="44.06122" lon="6.15008">
        <ele>597.4</ele>
        <time>2020-10-18T07:45:33Z</time>
      </trkpt>
      <trkpt lat="44.0612" lon="6.15009">
        <ele>597.8</ele>
        <time>2020-10-18T07:45:34Z</time>
      </trkpt>
      <trkpt lat="44.06119" lon="6.1501">
        <ele>598.2</ele>
        <time>2020-10-18T07:45:35Z</time>
      </trkpt>
      <trkpt lat="44.06117" lon="6.15012">
        <ele>598.6</ele>
        <time>2020-10-18T07:45:36Z</time>
      </trkpt>
      <trkpt lat="44.06115" lon="6.15013">
        <ele>598.6</ele>
        <time>2020-10-18T07:45:37Z</time>
      </trkpt>
      <trkpt lat="44.06113" lon="6.15014">
        <ele>599</ele>
        <time>2020-10-18T07:45:38Z</time>
      </trkpt>
      <trkpt lat="44.06111" lon="6.15014">
        <ele>599</ele>
        <time>2020-10-18T07:45:39Z</time>
      </trkpt>
      <trkpt lat="44.06109" lon="6.15015">
        <ele>599.4</ele>
        <time>2020-10-18T07:45:40Z</time>
      </trkpt>
      <trkpt lat="44.06108" lon="6.15015">
        <ele>599.4</ele>
        <time>2020-10-18T07:45:41Z</time>
      </trkpt>
      <trkpt lat="44.06106" lon="6.15016">
        <ele>599.6</ele>
        <time>2020-10-18T07:45:42Z</time>
      </trkpt>
      <trkpt lat="44.06105" lon="6.15018">
        <ele>599.6</ele>
        <time>2020-10-18T07:45:43Z</time>
      </trkpt>
      <trkpt lat="44.06103" lon="6.15019">
        <ele>600</ele>
        <time>2020-10-18T07:45:44Z</time>
      </trkpt>
      <trkpt lat="44.06102" lon="6.1502">
        <ele>600</ele>
        <time>2020-10-18T07:45:45Z</time>
      </trkpt>
      <trkpt lat="44.06101" lon="6.15022">
        <ele>600.4</ele>
        <time>2020-10-18T07:45:46Z</time>
      </trkpt>
      <trkpt lat="44.06099" lon="6.15023">
        <ele>600.6</ele>
        <time>2020-10-18T07:45:47Z</time>
      </trkpt>
      <trkpt lat="44.06099" lon="6.15025">
        <ele>601</ele>
        <time>2020-10-18T07:45:48Z</time>
      </trkpt>
      <trkpt lat="44.06098" lon="6.15026">
        <ele>601</ele>
        <time>2020-10-18T07:45:49Z</time>
      </trkpt>
      <trkpt lat="44.06097" lon="6.15028">
        <ele>601.2</ele>
        <time>2020-10-18T07:45:50Z</time>
      </trkpt>
      <trkpt lat="44.06096" lon="6.1503">
        <ele>601.4</ele>
        <time>2020-10-18T07:45:51Z</time>
      </trkpt>
      <trkpt lat="44.06096" lon="6.15032">
        <ele>601.4</ele>
        <time>2020-10-18T07:45:52Z</time>
      </trkpt>
      <trkpt lat="44.06095" lon="6.15033">
        <ele>601.8</ele>
        <time>2020-10-18T07:45:53Z</time>
      </trkpt>
      <trkpt lat="44.06095" lon="6.15035">
        <ele>602</ele>
        <time>2020-10-18T07:45:54Z</time>
      </trkpt>
      <trkpt lat="44.06094" lon="6.15036">
        <ele>602.2</ele>
        <time>2020-10-18T07:45:55Z</time>
      </trkpt>
      <trkpt lat="44.06093" lon="6.15038">
        <ele>602.4</ele>
        <time>2020-10-18T07:45:56Z</time>
      </trkpt>
      <trkpt lat="44.06092" lon="6.15039">
        <ele>602.4</ele>
        <time>2020-10-18T07:45:57Z</time>
      </trkpt>
      <trkpt lat="44.06091" lon="6.1504">
        <ele>602.6</ele>
        <time>2020-10-18T07:45:58Z</time>
      </trkpt>
      <trkpt lat="44.0609" lon="6.15042">
        <ele>603</ele>
        <time>2020-10-18T07:45:59Z</time>
      </trkpt>
      <trkpt lat="44.0609" lon="6.15043">
        <ele>603</ele>
        <time>2020-10-18T07:46:00Z</time>
      </trkpt>
      <trkpt lat="44.06089" lon="6.15045">
        <ele>603.4</ele>
        <time>2020-10-18T07:46:01Z</time>
      </trkpt>
      <trkpt lat="44.06088" lon="6.15046">
        <ele>603.8</ele>
        <time>2020-10-18T07:46:02Z</time>
      </trkpt>
      <trkpt lat="44.06087" lon="6.15048">
        <ele>603.8</ele>
        <time>2020-10-18T07:46:03Z</time>
      </trkpt>
      <trkpt lat="44.06086" lon="6.1505">
        <ele>604</ele>
        <time>2020-10-18T07:46:04Z</time>
      </trkpt>
      <trkpt lat="44.06085" lon="6.15051">
        <ele>604.4</ele>
        <time>2020-10-18T07:46:05Z</time>
      </trkpt>
      <trkpt lat="44.06084" lon="6.15053">
        <ele>604.6</ele>
        <time>2020-10-18T07:46:06Z</time>
      </trkpt>
      <trkpt lat="44.06083" lon="6.15055">
        <ele>604.8</ele>
        <time>2020-10-18T07:46:07Z</time>
      </trkpt>
      <trkpt lat="44.06082" lon="6.15057">
        <ele>604.8</ele>
        <time>2020-10-18T07:46:08Z</time>
      </trkpt>
      <trkpt lat="44.06081" lon="6.15058">
        <ele>605.2</ele>
        <time>2020-10-18T07:46:09Z</time>
      </trkpt>
      <trkpt lat="44.0608" lon="6.1506">
        <ele>605.4</ele>
        <time>2020-10-18T07:46:10Z</time>
      </trkpt>
      <trkpt lat="44.06079" lon="6.15062">
        <ele>605.6</ele>
        <time>2020-10-18T07:46:11Z</time>
      </trkpt>
      <trkpt lat="44.06078" lon="6.15063">
        <ele>606</ele>
        <time>2020-10-18T07:46:12Z</time>
      </trkpt>
      <trkpt lat="44.06076" lon="6.15065">
        <ele>606.2</ele>
        <time>2020-10-18T07:46:13Z</time>
      </trkpt>
      <trkpt lat="44.06075" lon="6.15067">
        <ele>606.2</ele>
        <time>2020-10-18T07:46:14Z</time>
      </trkpt>
      <trkpt lat="44.06074" lon="6.15069">
        <ele>606.4</ele>
        <time>2020-10-18T07:46:15Z</time>
      </trkpt>
      <trkpt lat="44.06074" lon="6.1507">
        <ele>606.6</ele>
        <time>2020-10-18T07:46:16Z</time>
      </trkpt>
      <trkpt lat="44.06073" lon="6.15073">
        <ele>607</ele>
        <time>2020-10-18T07:46:17Z</time>
      </trkpt>
      <trkpt lat="44.06072" lon="6.15074">
        <ele>607</ele>
        <time>2020-10-18T07:46:18Z</time>
      </trkpt>
      <trkpt lat="44.06071" lon="6.15076">
        <ele>607.2</ele>
        <time>2020-10-18T07:46:19Z</time>
      </trkpt>
      <trkpt lat="44.0607" lon="6.15077">
        <ele>607.4</ele>
        <time>2020-10-18T07:46:20Z</time>
      </trkpt>
      <trkpt lat="44.0607" lon="6.15079">
        <ele>607.6</ele>
        <time>2020-10-18T07:46:21Z</time>
      </trkpt>
      <trkpt lat="44.06069" lon="6.15081">
        <ele>607.8</ele>
        <time>2020-10-18T07:46:22Z</time>
      </trkpt>
      <trkpt lat="44.06069" lon="6.15083">
        <ele>608</ele>
        <time>2020-10-18T07:46:23Z</time>
      </trkpt>
      <trkpt lat="44.06068" lon="6.15085">
        <ele>608.4</ele>
        <time>2020-10-18T07:46:24Z</time>
      </trkpt>
      <trkpt lat="44.06068" lon="6.15087">
        <ele>608.8</ele>
        <time>2020-10-18T07:46:25Z</time>
      </trkpt>
      <trkpt lat="44.06067" lon="6.15089">
        <ele>609.2</ele>
        <time>2020-10-18T07:46:26Z</time>
      </trkpt>
      <trkpt lat="44.06067" lon="6.15092">
        <ele>609.4</ele>
        <time>2020-10-18T07:46:27Z</time>
      </trkpt>
      <trkpt lat="44.06066" lon="6.15094">
        <ele>609.4</ele>
        <time>2020-10-18T07:46:28Z</time>
      </trkpt>
      <trkpt lat="44.06066" lon="6.15096">
        <ele>609.6</ele>
        <time>2020-10-18T07:46:29Z</time>
      </trkpt>
      <trkpt lat="44.06065" lon="6.15099">
        <ele>609.8</ele>
        <time>2020-10-18T07:46:30Z</time>
      </trkpt>
      <trkpt lat="44.06065" lon="6.15101">
        <ele>610</ele>
        <time>2020-10-18T07:46:31Z</time>
      </trkpt>
      <trkpt lat="44.06064" lon="6.15103">
        <ele>610.4</ele>
        <time>2020-10-18T07:46:32Z</time>
      </trkpt>
      <trkpt lat="44.06064" lon="6.15106">
        <ele>610.8</ele>
        <time>2020-10-18T07:46:33Z</time>
      </trkpt>
      <trkpt lat="44.06064" lon="6.15108">
        <ele>611</ele>
        <time>2020-10-18T07:46:34Z</time>
      </trkpt>
      <trkpt lat="44.06063" lon="6.1511">
        <ele>611.2</ele>
        <time>2020-10-18T07:46:35Z</time>
      </trkpt>
      <trkpt lat="44.06063" lon="6.15113">
        <ele>611.4</ele>
        <time>2020-10-18T07:46:36Z</time>
      </trkpt>
      <trkpt lat="44.06063" lon="6.15115">
        <ele>611.6</ele>
        <time>2020-10-18T07:46:37Z</time>
      </trkpt>
      <trkpt lat="44.06063" lon="6.15117">
        <ele>612</ele>
        <time>2020-10-18T07:46:38Z</time>
      </trkpt>
      <trkpt lat="44.06063" lon="6.1512">
        <ele>612.4</ele>
        <time>2020-10-18T07:46:39Z</time>
      </trkpt>
      <trkpt lat="44.06063" lon="6.15122">
        <ele>612.4</ele>
        <time>2020-10-18T07:46:40Z</time>
      </trkpt>
      <trkpt lat="44.06063" lon="6.15124">
        <ele>612.6</ele>
        <time>2020-10-18T07:46:41Z</time>
      </trkpt>
      <trkpt lat="44.06063" lon="6.15126">
        <ele>612.8</ele>
        <time>2020-10-18T07:46:42Z</time>
      </trkpt>
      <trkpt lat="44.06063" lon="6.15129">
        <ele>613</ele>
        <time>2020-10-18T07:46:43Z</time>
      </trkpt>
      <trkpt lat="44.06063" lon="6.15131">
        <ele>613.2</ele>
        <time>2020-10-18T07:46:44Z</time>
      </trkpt>
      <trkpt lat="44.06063" lon="6.15134">
        <ele>613.6</ele>
        <time>2020-10-18T07:46:45Z</time>
      </trkpt>
      <trkpt lat="44.06063" lon="6.15136">
        <ele>613.6</ele>
        <time>2020-10-18T07:46:46Z</time>
      </trkpt>
      <trkpt lat="44.06063" lon="6.15139">
        <ele>613.8</ele>
        <time>2020-10-18T07:46:47Z</time>
      </trkpt>
      <trkpt lat="44.06063" lon="6.15142">
        <ele>614</ele>
        <time>2020-10-18T07:46:48Z</time>
      </trkpt>
      <trkpt lat="44.06063" lon="6.15144">
        <ele>614.4</ele>
        <time>2020-10-18T07:46:49Z</time>
      </trkpt>
      <trkpt lat="44.06063" lon="6.15146">
        <ele>614.4</ele>
        <time>2020-10-18T07:46:50Z</time>
      </trkpt>
      <trkpt lat="44.06063" lon="6.15148">
        <ele>614.6</ele>
        <time>2020-10-18T07:46:51Z</time>
      </trkpt>
      <trkpt lat="44.06063" lon="6.1515">
        <ele>615.2</ele>
        <time>2020-10-18T07:46:52Z</time>
      </trkpt>
      <trkpt lat="44.06063" lon="6.15152">
        <ele>615.4</ele>
        <time>2020-10-18T07:46:53Z</time>
      </trkpt>
      <trkpt lat="44.06063" lon="6.15154">
        <ele>615.6</ele>
        <time>2020-10-18T07:46:54Z</time>
      </trkpt>
      <trkpt lat="44.06062" lon="6.15157">
        <ele>615.8</ele>
        <time>2020-10-18T07:46:55Z</time>
      </trkpt>
      <trkpt lat="44.06062" lon="6.1516">
        <ele>615.8</ele>
        <time>2020-10-18T07:46:56Z</time>
      </trkpt>
      <trkpt lat="44.06061" lon="6.15162">
        <ele>616</ele>
        <time>2020-10-18T07:46:57Z</time>
      </trkpt>
      <trkpt lat="44.06061" lon="6.15165">
        <ele>616.2</ele>
        <time>2020-10-18T07:46:58Z</time>
      </trkpt>
      <trkpt lat="44.06061" lon="6.15168">
        <ele>616.2</ele>
        <time>2020-10-18T07:46:59Z</time>
      </trkpt>
      <trkpt lat="44.06061" lon="6.1517">
        <ele>616.4</ele>
        <time>2020-10-18T07:47:00Z</time>
      </trkpt>
      <trkpt lat="44.06061" lon="6.15172">
        <ele>616.4</ele>
        <time>2020-10-18T07:47:01Z</time>
      </trkpt>
      <trkpt lat="44.0606" lon="6.15174">
        <ele>616.6</ele>
        <time>2020-10-18T07:47:02Z</time>
      </trkpt>
      <trkpt lat="44.0606" lon="6.15177">
        <ele>616.8</ele>
        <time>2020-10-18T07:47:03Z</time>
      </trkpt>
      <trkpt lat="44.06059" lon="6.1518">
        <ele>617</ele>
        <time>2020-10-18T07:47:04Z</time>
      </trkpt>
      <trkpt lat="44.06059" lon="6.15182">
        <ele>617.2</ele>
        <time>2020-10-18T07:47:05Z</time>
      </trkpt>
      <trkpt lat="44.06059" lon="6.15184">
        <ele>617.2</ele>
        <time>2020-10-18T07:47:06Z</time>
      </trkpt>
      <trkpt lat="44.06059" lon="6.15186">
        <ele>617.4</ele>
        <time>2020-10-18T07:47:07Z</time>
      </trkpt>
      <trkpt lat="44.06059" lon="6.15189">
        <ele>617.8</ele>
        <time>2020-10-18T07:47:08Z</time>
      </trkpt>
      <trkpt lat="44.0606" lon="6.15191">
        <ele>618</ele>
        <time>2020-10-18T07:47:09Z</time>
      </trkpt>
      <trkpt lat="44.06059" lon="6.15194">
        <ele>618</ele>
        <time>2020-10-18T07:47:10Z</time>
      </trkpt>
      <trkpt lat="44.06059" lon="6.15196">
        <ele>618.2</ele>
        <time>2020-10-18T07:47:11Z</time>
      </trkpt>
      <trkpt lat="44.06059" lon="6.15198">
        <ele>618.6</ele>
        <time>2020-10-18T07:47:12Z</time>
      </trkpt>
      <trkpt lat="44.06059" lon="6.152">
        <ele>619</ele>
        <time>2020-10-18T07:47:13Z</time>
      </trkpt>
      <trkpt lat="44.06058" lon="6.15203">
        <ele>619.4</ele>
        <time>2020-10-18T07:47:14Z</time>
      </trkpt>
      <trkpt lat="44.06057" lon="6.15205">
        <ele>619.4</ele>
        <time>2020-10-18T07:47:15Z</time>
      </trkpt>
      <trkpt lat="44.06056" lon="6.15208">
        <ele>619.8</ele>
        <time>2020-10-18T07:47:16Z</time>
      </trkpt>
      <trkpt lat="44.06056" lon="6.1521">
        <ele>619.8</ele>
        <time>2020-10-18T07:47:17Z</time>
      </trkpt>
      <trkpt lat="44.06055" lon="6.15213">
        <ele>620</ele>
        <time>2020-10-18T07:47:18Z</time>
      </trkpt>
      <trkpt lat="44.06054" lon="6.15215">
        <ele>620.4</ele>
        <time>2020-10-18T07:47:19Z</time>
      </trkpt>
      <trkpt lat="44.06053" lon="6.15218">
        <ele>620.4</ele>
        <time>2020-10-18T07:47:20Z</time>
      </trkpt>
      <trkpt lat="44.06052" lon="6.1522">
        <ele>620.4</ele>
        <time>2020-10-18T07:47:21Z</time>
      </trkpt>
      <trkpt lat="44.06051" lon="6.15223">
        <ele>620.8</ele>
        <time>2020-10-18T07:47:22Z</time>
      </trkpt>
      <trkpt lat="44.0605" lon="6.15225">
        <ele>620.8</ele>
        <time>2020-10-18T07:47:23Z</time>
      </trkpt>
      <trkpt lat="44.06049" lon="6.15228">
        <ele>621</ele>
        <time>2020-10-18T07:47:24Z</time>
      </trkpt>
      <trkpt lat="44.06048" lon="6.1523">
        <ele>621.2</ele>
        <time>2020-10-18T07:47:25Z</time>
      </trkpt>
      <trkpt lat="44.06047" lon="6.15233">
        <ele>621.4</ele>
        <time>2020-10-18T07:47:26Z</time>
      </trkpt>
      <trkpt lat="44.06046" lon="6.15235">
        <ele>621.4</ele>
        <time>2020-10-18T07:47:27Z</time>
      </trkpt>
      <trkpt lat="44.06045" lon="6.15238">
        <ele>621.6</ele>
        <time>2020-10-18T07:47:28Z</time>
      </trkpt>
      <trkpt lat="44.06044" lon="6.1524">
        <ele>621.6</ele>
        <time>2020-10-18T07:47:29Z</time>
      </trkpt>
      <trkpt lat="44.06043" lon="6.15243">
        <ele>621.8</ele>
        <time>2020-10-18T07:47:30Z</time>
      </trkpt>
      <trkpt lat="44.06041" lon="6.15246">
        <ele>622</ele>
        <time>2020-10-18T07:47:31Z</time>
      </trkpt>
      <trkpt lat="44.0604" lon="6.15248">
        <ele>622</ele>
        <time>2020-10-18T07:47:32Z</time>
      </trkpt>
      <trkpt lat="44.06039" lon="6.1525">
        <ele>622</ele>
        <time>2020-10-18T07:47:33Z</time>
      </trkpt>
      <trkpt lat="44.06039" lon="6.15252">
        <ele>622.2</ele>
        <time>2020-10-18T07:47:34Z</time>
      </trkpt>
      <trkpt lat="44.06038" lon="6.15255">
        <ele>622.2</ele>
        <time>2020-10-18T07:47:35Z</time>
      </trkpt>
      <trkpt lat="44.06036" lon="6.15257">
        <ele>622.2</ele>
        <time>2020-10-18T07:47:36Z</time>
      </trkpt>
      <trkpt lat="44.06035" lon="6.15259">
        <ele>622.6</ele>
        <time>2020-10-18T07:47:37Z</time>
      </trkpt>
      <trkpt lat="44.06035" lon="6.15261">
        <ele>622.6</ele>
        <time>2020-10-18T07:47:38Z</time>
      </trkpt>
      <trkpt lat="44.06034" lon="6.15264">
        <ele>622.6</ele>
        <time>2020-10-18T07:47:39Z</time>
      </trkpt>
      <trkpt lat="44.06034" lon="6.15266">
        <ele>623</ele>
        <time>2020-10-18T07:47:40Z</time>
      </trkpt>
      <trkpt lat="44.06033" lon="6.15268">
        <ele>623</ele>
        <time>2020-10-18T07:47:41Z</time>
      </trkpt>
      <trkpt lat="44.06032" lon="6.15271">
        <ele>623.2</ele>
        <time>2020-10-18T07:47:42Z</time>
      </trkpt>
      <trkpt lat="44.06031" lon="6.15273">
        <ele>623.2</ele>
        <time>2020-10-18T07:47:43Z</time>
      </trkpt>
      <trkpt lat="44.06031" lon="6.15275">
        <ele>623.6</ele>
        <time>2020-10-18T07:47:44Z</time>
      </trkpt>
      <trkpt lat="44.06031" lon="6.15277">
        <ele>623.8</ele>
        <time>2020-10-18T07:47:45Z</time>
      </trkpt>
      <trkpt lat="44.0603" lon="6.1528">
        <ele>624</ele>
        <time>2020-10-18T07:47:46Z</time>
      </trkpt>
      <trkpt lat="44.06029" lon="6.15282">
        <ele>624</ele>
        <time>2020-10-18T07:47:47Z</time>
      </trkpt>
      <trkpt lat="44.06028" lon="6.15284">
        <ele>624.4</ele>
        <time>2020-10-18T07:47:48Z</time>
      </trkpt>
      <trkpt lat="44.06027" lon="6.15287">
        <ele>624.4</ele>
        <time>2020-10-18T07:47:49Z</time>
      </trkpt>
      <trkpt lat="44.06026" lon="6.1529">
        <ele>624.6</ele>
        <time>2020-10-18T07:47:50Z</time>
      </trkpt>
      <trkpt lat="44.06025" lon="6.15292">
        <ele>624.6</ele>
        <time>2020-10-18T07:47:51Z</time>
      </trkpt>
      <trkpt lat="44.06025" lon="6.15295">
        <ele>625</ele>
        <time>2020-10-18T07:47:52Z</time>
      </trkpt>
      <trkpt lat="44.06025" lon="6.15297">
        <ele>625.4</ele>
        <time>2020-10-18T07:47:53Z</time>
      </trkpt>
      <trkpt lat="44.06025" lon="6.15299">
        <ele>625.6</ele>
        <time>2020-10-18T07:47:54Z</time>
      </trkpt>
      <trkpt lat="44.06025" lon="6.15301">
        <ele>625.8</ele>
        <time>2020-10-18T07:47:55Z</time>
      </trkpt>
      <trkpt lat="44.06025" lon="6.15303">
        <ele>626</ele>
        <time>2020-10-18T07:47:56Z</time>
      </trkpt>
      <trkpt lat="44.06025" lon="6.15305">
        <ele>626.2</ele>
        <time>2020-10-18T07:47:57Z</time>
      </trkpt>
      <trkpt lat="44.06025" lon="6.15308">
        <ele>626.4</ele>
        <time>2020-10-18T07:47:58Z</time>
      </trkpt>
      <trkpt lat="44.06025" lon="6.1531">
        <ele>626.6</ele>
        <time>2020-10-18T07:47:59Z</time>
      </trkpt>
      <trkpt lat="44.06025" lon="6.15312">
        <ele>626.6</ele>
        <time>2020-10-18T07:48:00Z</time>
      </trkpt>
      <trkpt lat="44.06025" lon="6.15315">
        <ele>626.8</ele>
        <time>2020-10-18T07:48:01Z</time>
      </trkpt>
      <trkpt lat="44.06025" lon="6.15317">
        <ele>627.2</ele>
        <time>2020-10-18T07:48:02Z</time>
      </trkpt>
      <trkpt lat="44.06025" lon="6.15319">
        <ele>627.2</ele>
        <time>2020-10-18T07:48:03Z</time>
      </trkpt>
      <trkpt lat="44.06024" lon="6.15321">
        <ele>627.2</ele>
        <time>2020-10-18T07:48:04Z</time>
      </trkpt>
      <trkpt lat="44.06024" lon="6.15323">
        <ele>627.6</ele>
        <time>2020-10-18T07:48:05Z</time>
      </trkpt>
      <trkpt lat="44.06023" lon="6.15325">
        <ele>628</ele>
        <time>2020-10-18T07:48:06Z</time>
      </trkpt>
      <trkpt lat="44.06022" lon="6.15328">
        <ele>628.2</ele>
        <time>2020-10-18T07:48:07Z</time>
      </trkpt>
      <trkpt lat="44.06021" lon="6.15331">
        <ele>628.6</ele>
        <time>2020-10-18T07:48:08Z</time>
      </trkpt>
      <trkpt lat="44.0602" lon="6.15333">
        <ele>628.8</ele>
        <time>2020-10-18T07:48:09Z</time>
      </trkpt>
      <trkpt lat="44.06019" lon="6.15335">
        <ele>629.2</ele>
        <time>2020-10-18T07:48:10Z</time>
      </trkpt>
      <trkpt lat="44.06018" lon="6.15338">
        <ele>629.4</ele>
        <time>2020-10-18T07:48:11Z</time>
      </trkpt>
      <trkpt lat="44.06017" lon="6.1534">
        <ele>629.8</ele>
        <time>2020-10-18T07:48:12Z</time>
      </trkpt>
      <trkpt lat="44.06015" lon="6.15341">
        <ele>630</ele>
        <time>2020-10-18T07:48:13Z</time>
      </trkpt>
      <trkpt lat="44.06014" lon="6.15343">
        <ele>630</ele>
        <time>2020-10-18T07:48:14Z</time>
      </trkpt>
      <trkpt lat="44.06012" lon="6.15343">
        <ele>630.4</ele>
        <time>2020-10-18T07:48:15Z</time>
      </trkpt>
      <trkpt lat="44.0601" lon="6.15344">
        <ele>630.8</ele>
        <time>2020-10-18T07:48:16Z</time>
      </trkpt>
      <trkpt lat="44.06008" lon="6.15345">
        <ele>630.8</ele>
        <time>2020-10-18T07:48:17Z</time>
      </trkpt>
      <trkpt lat="44.06007" lon="6.15345">
        <ele>631.2</ele>
        <time>2020-10-18T07:48:18Z</time>
      </trkpt>
      <trkpt lat="44.06005" lon="6.15347">
        <ele>631.4</ele>
        <time>2020-10-18T07:48:19Z</time>
      </trkpt>
      <trkpt lat="44.06003" lon="6.15348">
        <ele>631.6</ele>
        <time>2020-10-18T07:48:20Z</time>
      </trkpt>
      <trkpt lat="44.06001" lon="6.15348">
        <ele>631.8</ele>
        <time>2020-10-18T07:48:21Z</time>
      </trkpt>
      <trkpt lat="44.06" lon="6.1535">
        <ele>632</ele>
        <time>2020-10-18T07:48:22Z</time>
      </trkpt>
      <trkpt lat="44.05998" lon="6.15351">
        <ele>632.2</ele>
        <time>2020-10-18T07:48:23Z</time>
      </trkpt>
      <trkpt lat="44.05997" lon="6.15353">
        <ele>632.4</ele>
        <time>2020-10-18T07:48:24Z</time>
      </trkpt>
      <trkpt lat="44.05995" lon="6.15355">
        <ele>632.4</ele>
        <time>2020-10-18T07:48:25Z</time>
      </trkpt>
      <trkpt lat="44.05993" lon="6.15356">
        <ele>632.6</ele>
        <time>2020-10-18T07:48:26Z</time>
      </trkpt>
      <trkpt lat="44.05992" lon="6.15357">
        <ele>632.6</ele>
        <time>2020-10-18T07:48:27Z</time>
      </trkpt>
      <trkpt lat="44.05991" lon="6.15359">
        <ele>632.8</ele>
        <time>2020-10-18T07:48:28Z</time>
      </trkpt>
      <trkpt lat="44.0599" lon="6.15361">
        <ele>633</ele>
        <time>2020-10-18T07:48:29Z</time>
      </trkpt>
      <trkpt lat="44.05989" lon="6.15363">
        <ele>633.4</ele>
        <time>2020-10-18T07:48:30Z</time>
      </trkpt>
      <trkpt lat="44.05989" lon="6.15365">
        <ele>633.6</ele>
        <time>2020-10-18T07:48:31Z</time>
      </trkpt>
      <trkpt lat="44.05988" lon="6.15367">
        <ele>634</ele>
        <time>2020-10-18T07:48:32Z</time>
      </trkpt>
      <trkpt lat="44.05988" lon="6.15369">
        <ele>634.2</ele>
        <time>2020-10-18T07:48:33Z</time>
      </trkpt>
      <trkpt lat="44.05988" lon="6.15371">
        <ele>634.4</ele>
        <time>2020-10-18T07:48:34Z</time>
      </trkpt>
      <trkpt lat="44.05988" lon="6.15374">
        <ele>634.8</ele>
        <time>2020-10-18T07:48:35Z</time>
      </trkpt>
      <trkpt lat="44.05988" lon="6.15376">
        <ele>635.2</ele>
        <time>2020-10-18T07:48:36Z</time>
      </trkpt>
      <trkpt lat="44.05988" lon="6.15379">
        <ele>635</ele>
        <time>2020-10-18T07:48:37Z</time>
      </trkpt>
      <trkpt lat="44.05988" lon="6.15382">
        <ele>635.2</ele>
        <time>2020-10-18T07:48:38Z</time>
      </trkpt>
      <trkpt lat="44.05988" lon="6.15384">
        <ele>635.6</ele>
        <time>2020-10-18T07:48:39Z</time>
      </trkpt>
      <trkpt lat="44.05988" lon="6.15387">
        <ele>635.6</ele>
        <time>2020-10-18T07:48:40Z</time>
      </trkpt>
      <trkpt lat="44.05988" lon="6.15389">
        <ele>635.8</ele>
        <time>2020-10-18T07:48:41Z</time>
      </trkpt>
      <trkpt lat="44.05987" lon="6.15391">
        <ele>635.8</ele>
        <time>2020-10-18T07:48:42Z</time>
      </trkpt>
      <trkpt lat="44.05987" lon="6.15393">
        <ele>636.2</ele>
        <time>2020-10-18T07:48:43Z</time>
      </trkpt>
      <trkpt lat="44.05987" lon="6.15395">
        <ele>636.4</ele>
        <time>2020-10-18T07:48:44Z</time>
      </trkpt>
      <trkpt lat="44.05987" lon="6.15398">
        <ele>636.6</ele>
        <time>2020-10-18T07:48:45Z</time>
      </trkpt>
      <trkpt lat="44.05987" lon="6.154">
        <ele>636.6</ele>
        <time>2020-10-18T07:48:46Z</time>
      </trkpt>
      <trkpt lat="44.05986" lon="6.15402">
        <ele>637</ele>
        <time>2020-10-18T07:48:47Z</time>
      </trkpt>
      <trkpt lat="44.05986" lon="6.15405">
        <ele>637.2</ele>
        <time>2020-10-18T07:48:48Z</time>
      </trkpt>
      <trkpt lat="44.05985" lon="6.15407">
        <ele>637.8</ele>
        <time>2020-10-18T07:48:49Z</time>
      </trkpt>
      <trkpt lat="44.05985" lon="6.15409">
        <ele>637.8</ele>
        <time>2020-10-18T07:48:50Z</time>
      </trkpt>
      <trkpt lat="44.05984" lon="6.15411">
        <ele>638</ele>
        <time>2020-10-18T07:48:51Z</time>
      </trkpt>
      <trkpt lat="44.05984" lon="6.15413">
        <ele>638.4</ele>
        <time>2020-10-18T07:48:52Z</time>
      </trkpt>
      <trkpt lat="44.05984" lon="6.15415">
        <ele>638.4</ele>
        <time>2020-10-18T07:48:53Z</time>
      </trkpt>
      <trkpt lat="44.05983" lon="6.15417">
        <ele>638.8</ele>
        <time>2020-10-18T07:48:54Z</time>
      </trkpt>
      <trkpt lat="44.05983" lon="6.15419">
        <ele>639</ele>
        <time>2020-10-18T07:48:55Z</time>
      </trkpt>
      <trkpt lat="44.05983" lon="6.15421">
        <ele>639.2</ele>
        <time>2020-10-18T07:48:56Z</time>
      </trkpt>
      <trkpt lat="44.05983" lon="6.15423">
        <ele>639.4</ele>
        <time>2020-10-18T07:48:57Z</time>
      </trkpt>
      <trkpt lat="44.05983" lon="6.15425">
        <ele>639.8</ele>
        <time>2020-10-18T07:48:58Z</time>
      </trkpt>
      <trkpt lat="44.05982" lon="6.15426">
        <ele>640</ele>
        <time>2020-10-18T07:48:59Z</time>
      </trkpt>
      <trkpt lat="44.05981" lon="6.15428">
        <ele>640.2</ele>
        <time>2020-10-18T07:49:00Z</time>
      </trkpt>
      <trkpt lat="44.0598" lon="6.1543">
        <ele>640.4</ele>
        <time>2020-10-18T07:49:01Z</time>
      </trkpt>
      <trkpt lat="44.05978" lon="6.15432">
        <ele>640.6</ele>
        <time>2020-10-18T07:49:02Z</time>
      </trkpt>
      <trkpt lat="44.05977" lon="6.15433">
        <ele>640.8</ele>
        <time>2020-10-18T07:49:03Z</time>
      </trkpt>
      <trkpt lat="44.05976" lon="6.15435">
        <ele>641</ele>
        <time>2020-10-18T07:49:04Z</time>
      </trkpt>
      <trkpt lat="44.05975" lon="6.15436">
        <ele>641.4</ele>
        <time>2020-10-18T07:49:05Z</time>
      </trkpt>
      <trkpt lat="44.05974" lon="6.15437">
        <ele>641.4</ele>
        <time>2020-10-18T07:49:06Z</time>
      </trkpt>
      <trkpt lat="44.05972" lon="6.15438">
        <ele>641.4</ele>
        <time>2020-10-18T07:49:07Z</time>
      </trkpt>
      <trkpt lat="44.0597" lon="6.1544">
        <ele>641.6</ele>
        <time>2020-10-18T07:49:08Z</time>
      </trkpt>
      <trkpt lat="44.05969" lon="6.15441">
        <ele>641.8</ele>
        <time>2020-10-18T07:49:09Z</time>
      </trkpt>
      <trkpt lat="44.05968" lon="6.15443">
        <ele>641.8</ele>
        <time>2020-10-18T07:49:10Z</time>
      </trkpt>
      <trkpt lat="44.05967" lon="6.15444">
        <ele>642.2</ele>
        <time>2020-10-18T07:49:11Z</time>
      </trkpt>
      <trkpt lat="44.05965" lon="6.15445">
        <ele>642.2</ele>
        <time>2020-10-18T07:49:12Z</time>
      </trkpt>
      <trkpt lat="44.05964" lon="6.15445">
        <ele>642.4</ele>
        <time>2020-10-18T07:49:13Z</time>
      </trkpt>
      <trkpt lat="44.05962" lon="6.15445">
        <ele>642.6</ele>
        <time>2020-10-18T07:49:14Z</time>
      </trkpt>
      <trkpt lat="44.05961" lon="6.15445">
        <ele>642.6</ele>
        <time>2020-10-18T07:49:15Z</time>
      </trkpt>
      <trkpt lat="44.05961" lon="6.15446">
        <ele>642.6</ele>
        <time>2020-10-18T07:49:16Z</time>
      </trkpt>
      <trkpt lat="44.05961" lon="6.15448">
        <ele>642.8</ele>
        <time>2020-10-18T07:49:17Z</time>
      </trkpt>
      <trkpt lat="44.05962" lon="6.15449">
        <ele>642.8</ele>
        <time>2020-10-18T07:49:18Z</time>
      </trkpt>
      <trkpt lat="44.05963" lon="6.1545">
        <ele>642.6</ele>
        <time>2020-10-18T07:49:19Z</time>
      </trkpt>
      <trkpt lat="44.05965" lon="6.1545">
        <ele>642.6</ele>
        <time>2020-10-18T07:49:20Z</time>
      </trkpt>
      <trkpt lat="44.05967" lon="6.1545">
        <ele>643</ele>
        <time>2020-10-18T07:49:21Z</time>
      </trkpt>
      <trkpt lat="44.05969" lon="6.15451">
        <ele>643</ele>
        <time>2020-10-18T07:49:22Z</time>
      </trkpt>
      <trkpt lat="44.05971" lon="6.15452">
        <ele>642.8</ele>
        <time>2020-10-18T07:49:23Z</time>
      </trkpt>
      <trkpt lat="44.05972" lon="6.15453">
        <ele>643</ele>
        <time>2020-10-18T07:49:24Z</time>
      </trkpt>
      <trkpt lat="44.05976" lon="6.15454">
        <ele>643</ele>
        <time>2020-10-18T07:49:26Z</time>
      </trkpt>
      <trkpt lat="44.05981" lon="6.15456">
        <ele>643</ele>
        <time>2020-10-18T07:49:28Z</time>
      </trkpt>
      <trkpt lat="44.05985" lon="6.15457">
        <ele>643</ele>
        <time>2020-10-18T07:49:30Z</time>
      </trkpt>
      <trkpt lat="44.0599" lon="6.15459">
        <ele>643</ele>
        <time>2020-10-18T07:49:32Z</time>
      </trkpt>
      <trkpt lat="44.05992" lon="6.15459">
        <ele>643.2</ele>
        <time>2020-10-18T07:49:33Z</time>
      </trkpt>
      <trkpt lat="44.05994" lon="6.1546">
        <ele>643.2</ele>
        <time>2020-10-18T07:49:34Z</time>
      </trkpt>
      <trkpt lat="44.05996" lon="6.15461">
        <ele>643.2</ele>
        <time>2020-10-18T07:49:35Z</time>
      </trkpt>
      <trkpt lat="44.05998" lon="6.15462">
        <ele>643.2</ele>
        <time>2020-10-18T07:49:36Z</time>
      </trkpt>
      <trkpt lat="44.06" lon="6.15463">
        <ele>643.2</ele>
        <time>2020-10-18T07:49:37Z</time>
      </trkpt>
      <trkpt lat="44.06001" lon="6.15463">
        <ele>643.2</ele>
        <time>2020-10-18T07:49:38Z</time>
      </trkpt>
      <trkpt lat="44.06003" lon="6.15464">
        <ele>643.4</ele>
        <time>2020-10-18T07:49:39Z</time>
      </trkpt>
      <trkpt lat="44.06005" lon="6.15464">
        <ele>643.6</ele>
        <time>2020-10-18T07:49:40Z</time>
      </trkpt>
      <trkpt lat="44.06008" lon="6.15465">
        <ele>644</ele>
        <time>2020-10-18T07:49:42Z</time>
      </trkpt>
      <trkpt lat="44.0601" lon="6.15465">
        <ele>644.2</ele>
        <time>2020-10-18T07:49:43Z</time>
      </trkpt>
      <trkpt lat="44.06012" lon="6.15466">
        <ele>644.6</ele>
        <time>2020-10-18T07:49:44Z</time>
      </trkpt>
      <trkpt lat="44.06014" lon="6.15466">
        <ele>644.8</ele>
        <time>2020-10-18T07:49:45Z</time>
      </trkpt>
      <trkpt lat="44.06016" lon="6.15466">
        <ele>645</ele>
        <time>2020-10-18T07:49:46Z</time>
      </trkpt>
      <trkpt lat="44.06018" lon="6.15466">
        <ele>645.4</ele>
        <time>2020-10-18T07:49:47Z</time>
      </trkpt>
      <trkpt lat="44.0602" lon="6.15466">
        <ele>645.4</ele>
        <time>2020-10-18T07:49:48Z</time>
      </trkpt>
      <trkpt lat="44.06022" lon="6.15466">
        <ele>645.6</ele>
        <time>2020-10-18T07:49:49Z</time>
      </trkpt>
      <trkpt lat="44.06024" lon="6.15466">
        <ele>645.6</ele>
        <time>2020-10-18T07:49:50Z</time>
      </trkpt>
      <trkpt lat="44.06026" lon="6.15465">
        <ele>645.8</ele>
        <time>2020-10-18T07:49:51Z</time>
      </trkpt>
      <trkpt lat="44.06028" lon="6.15465">
        <ele>646</ele>
        <time>2020-10-18T07:49:52Z</time>
      </trkpt>
      <trkpt lat="44.06029" lon="6.15465">
        <ele>646.2</ele>
        <time>2020-10-18T07:49:53Z</time>
      </trkpt>
      <trkpt lat="44.06031" lon="6.15466">
        <ele>646.2</ele>
        <time>2020-10-18T07:49:54Z</time>
      </trkpt>
      <trkpt lat="44.06033" lon="6.15466">
        <ele>646.4</ele>
        <time>2020-10-18T07:49:55Z</time>
      </trkpt>
      <trkpt lat="44.06035" lon="6.15467">
        <ele>646.4</ele>
        <time>2020-10-18T07:49:56Z</time>
      </trkpt>
      <trkpt lat="44.06037" lon="6.15468">
        <ele>646.6</ele>
        <time>2020-10-18T07:49:57Z</time>
      </trkpt>
      <trkpt lat="44.06038" lon="6.15468">
        <ele>646.6</ele>
        <time>2020-10-18T07:49:58Z</time>
      </trkpt>
      <trkpt lat="44.0604" lon="6.15468">
        <ele>646.8</ele>
        <time>2020-10-18T07:49:59Z</time>
      </trkpt>
      <trkpt lat="44.06042" lon="6.15468">
        <ele>647</ele>
        <time>2020-10-18T07:50:00Z</time>
      </trkpt>
      <trkpt lat="44.06043" lon="6.15469">
        <ele>647.4</ele>
        <time>2020-10-18T07:50:01Z</time>
      </trkpt>
      <trkpt lat="44.06045" lon="6.15469">
        <ele>647.8</ele>
        <time>2020-10-18T07:50:02Z</time>
      </trkpt>
      <trkpt lat="44.06047" lon="6.15469">
        <ele>648</ele>
        <time>2020-10-18T07:50:03Z</time>
      </trkpt>
      <trkpt lat="44.06048" lon="6.15469">
        <ele>648.2</ele>
        <time>2020-10-18T07:50:04Z</time>
      </trkpt>
      <trkpt lat="44.06049" lon="6.15469">
        <ele>648.6</ele>
        <time>2020-10-18T07:50:05Z</time>
      </trkpt>
      <trkpt lat="44.06051" lon="6.15468">
        <ele>648.8</ele>
        <time>2020-10-18T07:50:06Z</time>
      </trkpt>
      <trkpt lat="44.06052" lon="6.15468">
        <ele>649</ele>
        <time>2020-10-18T07:50:07Z</time>
      </trkpt>
      <trkpt lat="44.06054" lon="6.15468">
        <ele>649</ele>
        <time>2020-10-18T07:50:08Z</time>
      </trkpt>
      <trkpt lat="44.06055" lon="6.15468">
        <ele>649</ele>
        <time>2020-10-18T07:50:09Z</time>
      </trkpt>
      <trkpt lat="44.06057" lon="6.15468">
        <ele>649.4</ele>
        <time>2020-10-18T07:50:10Z</time>
      </trkpt>
      <trkpt lat="44.06058" lon="6.15468">
        <ele>649.8</ele>
        <time>2020-10-18T07:50:11Z</time>
      </trkpt>
      <trkpt lat="44.06059" lon="6.15468">
        <ele>649.8</ele>
        <time>2020-10-18T07:50:12Z</time>
      </trkpt>
      <trkpt lat="44.06061" lon="6.15468">
        <ele>650</ele>
        <time>2020-10-18T07:50:13Z</time>
      </trkpt>
      <trkpt lat="44.06062" lon="6.15468">
        <ele>650</ele>
        <time>2020-10-18T07:50:14Z</time>
      </trkpt>
      <trkpt lat="44.06063" lon="6.15468">
        <ele>650.6</ele>
        <time>2020-10-18T07:50:15Z</time>
      </trkpt>
      <trkpt lat="44.06064" lon="6.15469">
        <ele>650.8</ele>
        <time>2020-10-18T07:50:16Z</time>
      </trkpt>
      <trkpt lat="44.06066" lon="6.15469">
        <ele>651</ele>
        <time>2020-10-18T07:50:17Z</time>
      </trkpt>
      <trkpt lat="44.06067" lon="6.1547">
        <ele>651.4</ele>
        <time>2020-10-18T07:50:18Z</time>
      </trkpt>
      <trkpt lat="44.06068" lon="6.1547">
        <ele>651.6</ele>
        <time>2020-10-18T07:50:19Z</time>
      </trkpt>
      <trkpt lat="44.06069" lon="6.15472">
        <ele>651.8</ele>
        <time>2020-10-18T07:50:20Z</time>
      </trkpt>
      <trkpt lat="44.0607" lon="6.15474">
        <ele>652</ele>
        <time>2020-10-18T07:50:21Z</time>
      </trkpt>
      <trkpt lat="44.06071" lon="6.15475">
        <ele>652.2</ele>
        <time>2020-10-18T07:50:22Z</time>
      </trkpt>
      <trkpt lat="44.06072" lon="6.15478">
        <ele>652.2</ele>
        <time>2020-10-18T07:50:23Z</time>
      </trkpt>
      <trkpt lat="44.06073" lon="6.1548">
        <ele>652.8</ele>
        <time>2020-10-18T07:50:24Z</time>
      </trkpt>
      <trkpt lat="44.06074" lon="6.15482">
        <ele>653.2</ele>
        <time>2020-10-18T07:50:25Z</time>
      </trkpt>
      <trkpt lat="44.06075" lon="6.15484">
        <ele>653.4</ele>
        <time>2020-10-18T07:50:26Z</time>
      </trkpt>
      <trkpt lat="44.06076" lon="6.15486">
        <ele>653.8</ele>
        <time>2020-10-18T07:50:27Z</time>
      </trkpt>
      <trkpt lat="44.06077" lon="6.15489">
        <ele>654</ele>
        <time>2020-10-18T07:50:28Z</time>
      </trkpt>
      <trkpt lat="44.06078" lon="6.15492">
        <ele>654</ele>
        <time>2020-10-18T07:50:29Z</time>
      </trkpt>
      <trkpt lat="44.06078" lon="6.15496">
        <ele>654</ele>
        <time>2020-10-18T07:50:30Z</time>
      </trkpt>
      <trkpt lat="44.06079" lon="6.155">
        <ele>654.2</ele>
        <time>2020-10-18T07:50:31Z</time>
      </trkpt>
      <trkpt lat="44.06079" lon="6.15505">
        <ele>654</ele>
        <time>2020-10-18T07:50:32Z</time>
      </trkpt>
      <trkpt lat="44.06079" lon="6.15509">
        <ele>654</ele>
        <time>2020-10-18T07:50:33Z</time>
      </trkpt>
      <trkpt lat="44.0608" lon="6.15514">
        <ele>654.2</ele>
        <time>2020-10-18T07:50:34Z</time>
      </trkpt>
      <trkpt lat="44.0608" lon="6.15518">
        <ele>654.2</ele>
        <time>2020-10-18T07:50:35Z</time>
      </trkpt>
      <trkpt lat="44.06081" lon="6.15523">
        <ele>654.2</ele>
        <time>2020-10-18T07:50:36Z</time>
      </trkpt>
      <trkpt lat="44.06083" lon="6.15529">
        <ele>654.2</ele>
        <time>2020-10-18T07:50:38Z</time>
      </trkpt>
      <trkpt lat="44.06084" lon="6.15532">
        <ele>654</ele>
        <time>2020-10-18T07:50:39Z</time>
      </trkpt>
      <trkpt lat="44.06085" lon="6.15534">
        <ele>654</ele>
        <time>2020-10-18T07:50:40Z</time>
      </trkpt>
      <trkpt lat="44.06086" lon="6.15536">
        <ele>653.6</ele>
        <time>2020-10-18T07:50:41Z</time>
      </trkpt>
      <trkpt lat="44.06087" lon="6.15538">
        <ele>653.4</ele>
        <time>2020-10-18T07:50:42Z</time>
      </trkpt>
      <trkpt lat="44.06087" lon="6.1554">
        <ele>653</ele>
        <time>2020-10-18T07:50:43Z</time>
      </trkpt>
      <trkpt lat="44.06088" lon="6.15542">
        <ele>652.6</ele>
        <time>2020-10-18T07:50:44Z</time>
      </trkpt>
      <trkpt lat="44.0609" lon="6.15544">
        <ele>652.6</ele>
        <time>2020-10-18T07:50:45Z</time>
      </trkpt>
      <trkpt lat="44.06091" lon="6.15546">
        <ele>652.4</ele>
        <time>2020-10-18T07:50:46Z</time>
      </trkpt>
      <trkpt lat="44.06093" lon="6.15552">
        <ele>651.8</ele>
        <time>2020-10-18T07:50:48Z</time>
      </trkpt>
      <trkpt lat="44.06094" lon="6.15553">
        <ele>651.6</ele>
        <time>2020-10-18T07:50:49Z</time>
      </trkpt>
      <trkpt lat="44.06095" lon="6.15556">
        <ele>651.4</ele>
        <time>2020-10-18T07:50:50Z</time>
      </trkpt>
      <trkpt lat="44.06095" lon="6.15558">
        <ele>651.4</ele>
        <time>2020-10-18T07:50:51Z</time>
      </trkpt>
      <trkpt lat="44.06096" lon="6.15559">
        <ele>651</ele>
        <time>2020-10-18T07:50:52Z</time>
      </trkpt>
      <trkpt lat="44.06097" lon="6.15559">
        <ele>650.4</ele>
        <time>2020-10-18T07:50:53Z</time>
      </trkpt>
      <trkpt lat="44.06097" lon="6.1556">
        <ele>649.8</ele>
        <time>2020-10-18T07:50:54Z</time>
      </trkpt>
      <trkpt lat="44.06097" lon="6.1556">
        <ele>649.6</ele>
        <time>2020-10-18T07:50:55Z</time>
      </trkpt>
      <trkpt lat="44.06097" lon="6.1556">
        <ele>649.2</ele>
        <time>2020-10-18T07:50:56Z</time>
      </trkpt>
      <trkpt lat="44.06097" lon="6.15561">
        <ele>648.6</ele>
        <time>2020-10-18T07:50:58Z</time>
      </trkpt>
      <trkpt lat="44.06097" lon="6.15561">
        <ele>648.6</ele>
        <time>2020-10-18T07:51:00Z</time>
      </trkpt>
      <trkpt lat="44.06097" lon="6.15562">
        <ele>648.4</ele>
        <time>2020-10-18T07:51:02Z</time>
      </trkpt>
      <trkpt lat="44.06096" lon="6.15564">
        <ele>648.4</ele>
        <time>2020-10-18T07:51:04Z</time>
      </trkpt>
      <trkpt lat="44.06096" lon="6.15566">
        <ele>648.4</ele>
        <time>2020-10-18T07:51:06Z</time>
      </trkpt>
      <trkpt lat="44.06095" lon="6.15567">
        <ele>648.4</ele>
        <time>2020-10-18T07:51:08Z</time>
      </trkpt>
      <trkpt lat="44.06096" lon="6.15567">
        <ele>648.4</ele>
        <time>2020-10-18T07:51:10Z</time>
      </trkpt>
      <trkpt lat="44.06096" lon="6.15567">
        <ele>648.4</ele>
        <time>2020-10-18T07:51:12Z</time>
      </trkpt>
      <trkpt lat="44.06096" lon="6.15567">
        <ele>648.4</ele>
        <time>2020-10-18T07:51:14Z</time>
      </trkpt>
      <trkpt lat="44.06096" lon="6.15567">
        <ele>648.2</ele>
        <time>2020-10-18T07:51:16Z</time>
      </trkpt>
      <trkpt lat="44.06096" lon="6.15567">
        <ele>648.4</ele>
        <time>2020-10-18T07:51:18Z</time>
      </trkpt>
      <trkpt lat="44.06096" lon="6.15566">
        <ele>648.4</ele>
        <time>2020-10-18T07:51:20Z</time>
      </trkpt>
      <trkpt lat="44.06096" lon="6.15566">
        <ele>648.4</ele>
        <time>2020-10-18T07:51:22Z</time>
      </trkpt>
      <trkpt lat="44.06096" lon="6.15566">
        <ele>648.4</ele>
        <time>2020-10-18T07:51:24Z</time>
      </trkpt>
      <trkpt lat="44.06096" lon="6.15566">
        <ele>648.2</ele>
        <time>2020-10-18T07:51:26Z</time>
      </trkpt>
      <trkpt lat="44.06096" lon="6.15566">
        <ele>648.4</ele>
        <time>2020-10-18T07:51:28Z</time>
      </trkpt>
      <trkpt lat="44.06096" lon="6.15566">
        <ele>648.4</ele>
        <time>2020-10-18T07:51:30Z</time>
      </trkpt>
      <trkpt lat="44.06096" lon="6.15566">
        <ele>648.2</ele>
        <time>2020-10-18T07:51:31Z</time>
      </trkpt>
      <trkpt lat="44.06096" lon="6.15566">
        <ele>648.4</ele>
        <time>2020-10-18T07:51:32Z</time>
      </trkpt>
      <trkpt lat="44.06096" lon="6.15566">
        <ele>648.2</ele>
        <time>2020-10-18T07:51:34Z</time>
      </trkpt>
      <trkpt lat="44.06097" lon="6.15565">
        <ele>648.4</ele>
        <time>2020-10-18T07:51:36Z</time>
      </trkpt>
      <trkpt lat="44.06096" lon="6.15564">
        <ele>648.4</ele>
        <time>2020-10-18T07:51:38Z</time>
      </trkpt>
      <trkpt lat="44.06095" lon="6.15562">
        <ele>648.4</ele>
        <time>2020-10-18T07:51:40Z</time>
      </trkpt>
      <trkpt lat="44.06094" lon="6.15561">
        <ele>648.4</ele>
        <time>2020-10-18T07:51:41Z</time>
      </trkpt>
      <trkpt lat="44.06093" lon="6.15559">
        <ele>648.4</ele>
        <time>2020-10-18T07:51:42Z</time>
      </trkpt>
      <trkpt lat="44.06092" lon="6.15558">
        <ele>648.4</ele>
        <time>2020-10-18T07:51:43Z</time>
      </trkpt>
      <trkpt lat="44.06091" lon="6.15556">
        <ele>648.4</ele>
        <time>2020-10-18T07:51:44Z</time>
      </trkpt>
      <trkpt lat="44.0609" lon="6.15552">
        <ele>648.6</ele>
        <time>2020-10-18T07:51:46Z</time>
      </trkpt>
      <trkpt lat="44.06089" lon="6.15551">
        <ele>648.6</ele>
        <time>2020-10-18T07:51:47Z</time>
      </trkpt>
      <trkpt lat="44.06088" lon="6.15549">
        <ele>648.6</ele>
        <time>2020-10-18T07:51:48Z</time>
      </trkpt>
      <trkpt lat="44.06088" lon="6.15547">
        <ele>648.8</ele>
        <time>2020-10-18T07:51:49Z</time>
      </trkpt>
      <trkpt lat="44.06087" lon="6.15545">
        <ele>648.6</ele>
        <time>2020-10-18T07:51:50Z</time>
      </trkpt>
      <trkpt lat="44.06086" lon="6.15541">
        <ele>649</ele>
        <time>2020-10-18T07:51:52Z</time>
      </trkpt>
      <trkpt lat="44.06085" lon="6.15537">
        <ele>649.2</ele>
        <time>2020-10-18T07:51:54Z</time>
      </trkpt>
      <trkpt lat="44.06084" lon="6.15535">
        <ele>649.4</ele>
        <time>2020-10-18T07:51:55Z</time>
      </trkpt>
      <trkpt lat="44.06083" lon="6.15533">
        <ele>649.8</ele>
        <time>2020-10-18T07:51:56Z</time>
      </trkpt>
      <trkpt lat="44.06083" lon="6.15531">
        <ele>650</ele>
        <time>2020-10-18T07:51:57Z</time>
      </trkpt>
      <trkpt lat="44.06082" lon="6.15528">
        <ele>650.4</ele>
        <time>2020-10-18T07:51:58Z</time>
      </trkpt>
      <trkpt lat="44.06082" lon="6.15526">
        <ele>650.6</ele>
        <time>2020-10-18T07:51:59Z</time>
      </trkpt>
      <trkpt lat="44.06081" lon="6.15524">
        <ele>651</ele>
        <time>2020-10-18T07:52:00Z</time>
      </trkpt>
      <trkpt lat="44.06081" lon="6.15521">
        <ele>651.4</ele>
        <time>2020-10-18T07:52:01Z</time>
      </trkpt>
      <trkpt lat="44.06081" lon="6.15518">
        <ele>651.6</ele>
        <time>2020-10-18T07:52:02Z</time>
      </trkpt>
      <trkpt lat="44.0608" lon="6.15516">
        <ele>651.8</ele>
        <time>2020-10-18T07:52:03Z</time>
      </trkpt>
      <trkpt lat="44.0608" lon="6.15513">
        <ele>652</ele>
        <time>2020-10-18T07:52:04Z</time>
      </trkpt>
      <trkpt lat="44.06079" lon="6.15511">
        <ele>652.2</ele>
        <time>2020-10-18T07:52:05Z</time>
      </trkpt>
      <trkpt lat="44.06079" lon="6.15508">
        <ele>652.4</ele>
        <time>2020-10-18T07:52:06Z</time>
      </trkpt>
      <trkpt lat="44.06078" lon="6.15506">
        <ele>652.6</ele>
        <time>2020-10-18T07:52:07Z</time>
      </trkpt>
      <trkpt lat="44.06078" lon="6.15503">
        <ele>652.8</ele>
        <time>2020-10-18T07:52:08Z</time>
      </trkpt>
      <trkpt lat="44.06078" lon="6.155">
        <ele>653</ele>
        <time>2020-10-18T07:52:09Z</time>
      </trkpt>
      <trkpt lat="44.06077" lon="6.15498">
        <ele>652.8</ele>
        <time>2020-10-18T07:52:10Z</time>
      </trkpt>
      <trkpt lat="44.06077" lon="6.15495">
        <ele>653</ele>
        <time>2020-10-18T07:52:11Z</time>
      </trkpt>
      <trkpt lat="44.06077" lon="6.15492">
        <ele>653</ele>
        <time>2020-10-18T07:52:12Z</time>
      </trkpt>
      <trkpt lat="44.06077" lon="6.1549">
        <ele>653.2</ele>
        <time>2020-10-18T07:52:13Z</time>
      </trkpt>
      <trkpt lat="44.06076" lon="6.15488">
        <ele>653.2</ele>
        <time>2020-10-18T07:52:14Z</time>
      </trkpt>
      <trkpt lat="44.06075" lon="6.15486">
        <ele>653.4</ele>
        <time>2020-10-18T07:52:15Z</time>
      </trkpt>
      <trkpt lat="44.06074" lon="6.15484">
        <ele>653.4</ele>
        <time>2020-10-18T07:52:16Z</time>
      </trkpt>
      <trkpt lat="44.06074" lon="6.15483">
        <ele>653.4</ele>
        <time>2020-10-18T07:52:17Z</time>
      </trkpt>
      <trkpt lat="44.06074" lon="6.15481">
        <ele>653.6</ele>
        <time>2020-10-18T07:52:18Z</time>
      </trkpt>
      <trkpt lat="44.06076" lon="6.15481">
        <ele>653.6</ele>
        <time>2020-10-18T07:52:19Z</time>
      </trkpt>
      <trkpt lat="44.06077" lon="6.15482">
        <ele>653.8</ele>
        <time>2020-10-18T07:52:20Z</time>
      </trkpt>
      <trkpt lat="44.06078" lon="6.15483">
        <ele>653.8</ele>
        <time>2020-10-18T07:52:21Z</time>
      </trkpt>
      <trkpt lat="44.06079" lon="6.15485">
        <ele>654</ele>
        <time>2020-10-18T07:52:22Z</time>
      </trkpt>
      <trkpt lat="44.0608" lon="6.15486">
        <ele>654.2</ele>
        <time>2020-10-18T07:52:23Z</time>
      </trkpt>
      <trkpt lat="44.06081" lon="6.15488">
        <ele>654.2</ele>
        <time>2020-10-18T07:52:24Z</time>
      </trkpt>
      <trkpt lat="44.06082" lon="6.15489">
        <ele>654.2</ele>
        <time>2020-10-18T07:52:25Z</time>
      </trkpt>
      <trkpt lat="44.06084" lon="6.1549">
        <ele>654.4</ele>
        <time>2020-10-18T07:52:26Z</time>
      </trkpt>
      <trkpt lat="44.06085" lon="6.15491">
        <ele>654.4</ele>
        <time>2020-10-18T07:52:27Z</time>
      </trkpt>
      <trkpt lat="44.06086" lon="6.15492">
        <ele>654.6</ele>
        <time>2020-10-18T07:52:28Z</time>
      </trkpt>
      <trkpt lat="44.06087" lon="6.15494">
        <ele>654.8</ele>
        <time>2020-10-18T07:52:29Z</time>
      </trkpt>
      <trkpt lat="44.06088" lon="6.15496">
        <ele>654.6</ele>
        <time>2020-10-18T07:52:30Z</time>
      </trkpt>
      <trkpt lat="44.06089" lon="6.15498">
        <ele>654.6</ele>
        <time>2020-10-18T07:52:31Z</time>
      </trkpt>
      <trkpt lat="44.06091" lon="6.155">
        <ele>654.6</ele>
        <time>2020-10-18T07:52:32Z</time>
      </trkpt>
      <trkpt lat="44.06092" lon="6.15502">
        <ele>654.8</ele>
        <time>2020-10-18T07:52:33Z</time>
      </trkpt>
      <trkpt lat="44.06093" lon="6.15503">
        <ele>654.8</ele>
        <time>2020-10-18T07:52:34Z</time>
      </trkpt>
      <trkpt lat="44.06094" lon="6.15504">
        <ele>654.8</ele>
        <time>2020-10-18T07:52:35Z</time>
      </trkpt>
      <trkpt lat="44.06095" lon="6.15505">
        <ele>655</ele>
        <time>2020-10-18T07:52:36Z</time>
      </trkpt>
      <trkpt lat="44.06097" lon="6.15505">
        <ele>655</ele>
        <time>2020-10-18T07:52:37Z</time>
      </trkpt>
      <trkpt lat="44.06098" lon="6.15506">
        <ele>655.2</ele>
        <time>2020-10-18T07:52:38Z</time>
      </trkpt>
      <trkpt lat="44.06099" lon="6.15508">
        <ele>655.4</ele>
        <time>2020-10-18T07:52:39Z</time>
      </trkpt>
      <trkpt lat="44.06101" lon="6.1551">
        <ele>655.4</ele>
        <time>2020-10-18T07:52:40Z</time>
      </trkpt>
      <trkpt lat="44.06102" lon="6.15511">
        <ele>656</ele>
        <time>2020-10-18T07:52:41Z</time>
      </trkpt>
      <trkpt lat="44.06104" lon="6.15512">
        <ele>656.4</ele>
        <time>2020-10-18T07:52:42Z</time>
      </trkpt>
      <trkpt lat="44.06104" lon="6.15513">
        <ele>656.6</ele>
        <time>2020-10-18T07:52:43Z</time>
      </trkpt>
      <trkpt lat="44.06105" lon="6.15513">
        <ele>656.8</ele>
        <time>2020-10-18T07:52:44Z</time>
      </trkpt>
      <trkpt lat="44.06106" lon="6.15513">
        <ele>657.2</ele>
        <time>2020-10-18T07:52:45Z</time>
      </trkpt>
      <trkpt lat="44.06106" lon="6.15512">
        <ele>657.2</ele>
        <time>2020-10-18T07:52:46Z</time>
      </trkpt>
      <trkpt lat="44.06107" lon="6.15512">
        <ele>657.4</ele>
        <time>2020-10-18T07:52:47Z</time>
      </trkpt>
      <trkpt lat="44.06108" lon="6.15511">
        <ele>657.6</ele>
        <time>2020-10-18T07:52:48Z</time>
      </trkpt>
      <trkpt lat="44.06109" lon="6.15511">
        <ele>657.6</ele>
        <time>2020-10-18T07:52:49Z</time>
      </trkpt>
      <trkpt lat="44.0611" lon="6.1551">
        <ele>657.6</ele>
        <time>2020-10-18T07:52:50Z</time>
      </trkpt>
      <trkpt lat="44.06111" lon="6.1551">
        <ele>657.6</ele>
        <time>2020-10-18T07:52:51Z</time>
      </trkpt>
      <trkpt lat="44.06111" lon="6.15509">
        <ele>657.6</ele>
        <time>2020-10-18T07:52:52Z</time>
      </trkpt>
      <trkpt lat="44.06113" lon="6.15508">
        <ele>658</ele>
        <time>2020-10-18T07:52:53Z</time>
      </trkpt>
      <trkpt lat="44.06114" lon="6.15506">
        <ele>658.2</ele>
        <time>2020-10-18T07:52:54Z</time>
      </trkpt>
      <trkpt lat="44.06114" lon="6.15505">
        <ele>658.2</ele>
        <time>2020-10-18T07:52:55Z</time>
      </trkpt>
      <trkpt lat="44.06115" lon="6.15504">
        <ele>658.2</ele>
        <time>2020-10-18T07:52:56Z</time>
      </trkpt>
      <trkpt lat="44.06116" lon="6.15502">
        <ele>658.6</ele>
        <time>2020-10-18T07:52:57Z</time>
      </trkpt>
      <trkpt lat="44.06117" lon="6.15501">
        <ele>658.6</ele>
        <time>2020-10-18T07:52:58Z</time>
      </trkpt>
      <trkpt lat="44.06117" lon="6.15501">
        <ele>659</ele>
        <time>2020-10-18T07:52:59Z</time>
      </trkpt>
      <trkpt lat="44.06117" lon="6.15501">
        <ele>659.6</ele>
        <time>2020-10-18T07:53:00Z</time>
      </trkpt>
      <trkpt lat="44.06118" lon="6.15501">
        <ele>660</ele>
        <time>2020-10-18T07:53:01Z</time>
      </trkpt>
      <trkpt lat="44.06119" lon="6.15501">
        <ele>660</ele>
        <time>2020-10-18T07:53:02Z</time>
      </trkpt>
      <trkpt lat="44.0612" lon="6.15499">
        <ele>660.8</ele>
        <time>2020-10-18T07:53:04Z</time>
      </trkpt>
      <trkpt lat="44.06121" lon="6.15499">
        <ele>661.2</ele>
        <time>2020-10-18T07:53:05Z</time>
      </trkpt>
      <trkpt lat="44.06122" lon="6.15499">
        <ele>661.8</ele>
        <time>2020-10-18T07:53:06Z</time>
      </trkpt>
      <trkpt lat="44.06122" lon="6.15498">
        <ele>662.2</ele>
        <time>2020-10-18T07:53:07Z</time>
      </trkpt>
      <trkpt lat="44.06123" lon="6.15498">
        <ele>662.2</ele>
        <time>2020-10-18T07:53:08Z</time>
      </trkpt>
      <trkpt lat="44.06123" lon="6.15497">
        <ele>662.4</ele>
        <time>2020-10-18T07:53:09Z</time>
      </trkpt>
      <trkpt lat="44.06124" lon="6.15497">
        <ele>662.6</ele>
        <time>2020-10-18T07:53:10Z</time>
      </trkpt>
      <trkpt lat="44.06124" lon="6.15497">
        <ele>662.8</ele>
        <time>2020-10-18T07:53:11Z</time>
      </trkpt>
      <trkpt lat="44.06125" lon="6.15497">
        <ele>663</ele>
        <time>2020-10-18T07:53:12Z</time>
      </trkpt>
      <trkpt lat="44.06125" lon="6.15497">
        <ele>663.4</ele>
        <time>2020-10-18T07:53:13Z</time>
      </trkpt>
      <trkpt lat="44.06126" lon="6.15497">
        <ele>663.8</ele>
        <time>2020-10-18T07:53:14Z</time>
      </trkpt>
      <trkpt lat="44.06126" lon="6.15497">
        <ele>663.8</ele>
        <time>2020-10-18T07:53:15Z</time>
      </trkpt>
      <trkpt lat="44.06127" lon="6.15497">
        <ele>663.8</ele>
        <time>2020-10-18T07:53:16Z</time>
      </trkpt>
      <trkpt lat="44.06128" lon="6.15497">
        <ele>664.4</ele>
        <time>2020-10-18T07:53:17Z</time>
      </trkpt>
      <trkpt lat="44.06129" lon="6.15498">
        <ele>664.4</ele>
        <time>2020-10-18T07:53:18Z</time>
      </trkpt>
      <trkpt lat="44.06129" lon="6.15498">
        <ele>664.6</ele>
        <time>2020-10-18T07:53:19Z</time>
      </trkpt>
      <trkpt lat="44.0613" lon="6.15498">
        <ele>664.8</ele>
        <time>2020-10-18T07:53:20Z</time>
      </trkpt>
      <trkpt lat="44.06131" lon="6.15498">
        <ele>665.2</ele>
        <time>2020-10-18T07:53:21Z</time>
      </trkpt>
      <trkpt lat="44.06131" lon="6.15498">
        <ele>665.4</ele>
        <time>2020-10-18T07:53:22Z</time>
      </trkpt>
      <trkpt lat="44.06132" lon="6.15499">
        <ele>665.6</ele>
        <time>2020-10-18T07:53:23Z</time>
      </trkpt>
      <trkpt lat="44.06133" lon="6.15499">
        <ele>665.6</ele>
        <time>2020-10-18T07:53:24Z</time>
      </trkpt>
      <trkpt lat="44.06133" lon="6.15499">
        <ele>665.8</ele>
        <time>2020-10-18T07:53:25Z</time>
      </trkpt>
      <trkpt lat="44.06134" lon="6.15498">
        <ele>666</ele>
        <time>2020-10-18T07:53:26Z</time>
      </trkpt>
      <trkpt lat="44.06135" lon="6.15498">
        <ele>666</ele>
        <time>2020-10-18T07:53:27Z</time>
      </trkpt>
      <trkpt lat="44.06136" lon="6.15498">
        <ele>666.4</ele>
        <time>2020-10-18T07:53:28Z</time>
      </trkpt>
      <trkpt lat="44.06137" lon="6.15498">
        <ele>666.4</ele>
        <time>2020-10-18T07:53:29Z</time>
      </trkpt>
      <trkpt lat="44.06137" lon="6.15497">
        <ele>666.6</ele>
        <time>2020-10-18T07:53:30Z</time>
      </trkpt>
      <trkpt lat="44.06138" lon="6.15497">
        <ele>667</ele>
        <time>2020-10-18T07:53:31Z</time>
      </trkpt>
      <trkpt lat="44.06139" lon="6.15496">
        <ele>667</ele>
        <time>2020-10-18T07:53:32Z</time>
      </trkpt>
      <trkpt lat="44.06139" lon="6.15496">
        <ele>667.2</ele>
        <time>2020-10-18T07:53:33Z</time>
      </trkpt>
      <trkpt lat="44.0614" lon="6.15496">
        <ele>667.4</ele>
        <time>2020-10-18T07:53:34Z</time>
      </trkpt>
      <trkpt lat="44.0614" lon="6.15496">
        <ele>667.6</ele>
        <time>2020-10-18T07:53:35Z</time>
      </trkpt>
      <trkpt lat="44.06141" lon="6.15496">
        <ele>667.8</ele>
        <time>2020-10-18T07:53:36Z</time>
      </trkpt>
      <trkpt lat="44.06141" lon="6.15496">
        <ele>668.2</ele>
        <time>2020-10-18T07:53:37Z</time>
      </trkpt>
      <trkpt lat="44.06142" lon="6.15496">
        <ele>668.2</ele>
        <time>2020-10-18T07:53:38Z</time>
      </trkpt>
      <trkpt lat="44.06142" lon="6.15496">
        <ele>668.2</ele>
        <time>2020-10-18T07:53:39Z</time>
      </trkpt>
      <trkpt lat="44.06143" lon="6.15496">
        <ele>668.4</ele>
        <time>2020-10-18T07:53:40Z</time>
      </trkpt>
      <trkpt lat="44.06143" lon="6.15495">
        <ele>668.4</ele>
        <time>2020-10-18T07:53:41Z</time>
      </trkpt>
      <trkpt lat="44.06143" lon="6.15495">
        <ele>668.8</ele>
        <time>2020-10-18T07:53:42Z</time>
      </trkpt>
      <trkpt lat="44.06144" lon="6.15496">
        <ele>669.6</ele>
        <time>2020-10-18T07:53:44Z</time>
      </trkpt>
      <trkpt lat="44.06144" lon="6.15496">
        <ele>669.6</ele>
        <time>2020-10-18T07:53:45Z</time>
      </trkpt>
      <trkpt lat="44.06144" lon="6.15496">
        <ele>669.8</ele>
        <time>2020-10-18T07:53:46Z</time>
      </trkpt>
      <trkpt lat="44.06145" lon="6.15496">
        <ele>670</ele>
        <time>2020-10-18T07:53:48Z</time>
      </trkpt>
      <trkpt lat="44.06147" lon="6.15495">
        <ele>670.4</ele>
        <time>2020-10-18T07:53:49Z</time>
      </trkpt>
      <trkpt lat="44.06147" lon="6.15496">
        <ele>670.6</ele>
        <time>2020-10-18T07:53:50Z</time>
      </trkpt>
      <trkpt lat="44.06148" lon="6.15495">
        <ele>670.6</ele>
        <time>2020-10-18T07:53:51Z</time>
      </trkpt>
      <trkpt lat="44.06149" lon="6.15495">
        <ele>670.8</ele>
        <time>2020-10-18T07:53:52Z</time>
      </trkpt>
      <trkpt lat="44.06149" lon="6.15496">
        <ele>670.8</ele>
        <time>2020-10-18T07:53:53Z</time>
      </trkpt>
      <trkpt lat="44.0615" lon="6.15496">
        <ele>671.2</ele>
        <time>2020-10-18T07:53:54Z</time>
      </trkpt>
      <trkpt lat="44.06151" lon="6.15495">
        <ele>671.2</ele>
        <time>2020-10-18T07:53:55Z</time>
      </trkpt>
      <trkpt lat="44.06151" lon="6.15495">
        <ele>671.4</ele>
        <time>2020-10-18T07:53:56Z</time>
      </trkpt>
      <trkpt lat="44.06152" lon="6.15495">
        <ele>671.6</ele>
        <time>2020-10-18T07:53:57Z</time>
      </trkpt>
      <trkpt lat="44.06152" lon="6.15496">
        <ele>672</ele>
        <time>2020-10-18T07:53:58Z</time>
      </trkpt>
      <trkpt lat="44.06153" lon="6.15496">
        <ele>672.2</ele>
        <time>2020-10-18T07:53:59Z</time>
      </trkpt>
      <trkpt lat="44.06153" lon="6.15496">
        <ele>672.2</ele>
        <time>2020-10-18T07:54:00Z</time>
      </trkpt>
      <trkpt lat="44.06154" lon="6.15496">
        <ele>672.4</ele>
        <time>2020-10-18T07:54:01Z</time>
      </trkpt>
      <trkpt lat="44.06155" lon="6.15496">
        <ele>672.8</ele>
        <time>2020-10-18T07:54:02Z</time>
      </trkpt>
      <trkpt lat="44.06155" lon="6.15496">
        <ele>673</ele>
        <time>2020-10-18T07:54:03Z</time>
      </trkpt>
      <trkpt lat="44.06156" lon="6.15496">
        <ele>673.2</ele>
        <time>2020-10-18T07:54:04Z</time>
      </trkpt>
      <trkpt lat="44.06156" lon="6.15497">
        <ele>673.4</ele>
        <time>2020-10-18T07:54:05Z</time>
      </trkpt>
      <trkpt lat="44.06157" lon="6.15497">
        <ele>673.8</ele>
        <time>2020-10-18T07:54:06Z</time>
      </trkpt>
      <trkpt lat="44.06157" lon="6.15497">
        <ele>673.8</ele>
        <time>2020-10-18T07:54:07Z</time>
      </trkpt>
      <trkpt lat="44.06158" lon="6.15497">
        <ele>674.2</ele>
        <time>2020-10-18T07:54:08Z</time>
      </trkpt>
      <trkpt lat="44.06159" lon="6.15496">
        <ele>674.6</ele>
        <time>2020-10-18T07:54:10Z</time>
      </trkpt>
      <trkpt lat="44.0616" lon="6.15496">
        <ele>674.6</ele>
        <time>2020-10-18T07:54:11Z</time>
      </trkpt>
      <trkpt lat="44.0616" lon="6.15496">
        <ele>674.8</ele>
        <time>2020-10-18T07:54:12Z</time>
      </trkpt>
      <trkpt lat="44.0616" lon="6.15496">
        <ele>675.2</ele>
        <time>2020-10-18T07:54:13Z</time>
      </trkpt>
      <trkpt lat="44.06161" lon="6.15496">
        <ele>675.4</ele>
        <time>2020-10-18T07:54:14Z</time>
      </trkpt>
      <trkpt lat="44.06161" lon="6.15496">
        <ele>675.6</ele>
        <time>2020-10-18T07:54:15Z</time>
      </trkpt>
      <trkpt lat="44.06162" lon="6.15495">
        <ele>675.8</ele>
        <time>2020-10-18T07:54:16Z</time>
      </trkpt>
      <trkpt lat="44.06162" lon="6.15495">
        <ele>676</ele>
        <time>2020-10-18T07:54:18Z</time>
      </trkpt>
      <trkpt lat="44.06162" lon="6.15495">
        <ele>676.4</ele>
        <time>2020-10-18T07:54:20Z</time>
      </trkpt>
      <trkpt lat="44.06163" lon="6.15495">
        <ele>676.6</ele>
        <time>2020-10-18T07:54:22Z</time>
      </trkpt>
      <trkpt lat="44.06164" lon="6.15495">
        <ele>676.8</ele>
        <time>2020-10-18T07:54:23Z</time>
      </trkpt>
      <trkpt lat="44.06165" lon="6.15495">
        <ele>676.8</ele>
        <time>2020-10-18T07:54:24Z</time>
      </trkpt>
      <trkpt lat="44.06166" lon="6.15495">
        <ele>677</ele>
        <time>2020-10-18T07:54:25Z</time>
      </trkpt>
      <trkpt lat="44.06166" lon="6.15494">
        <ele>677.2</ele>
        <time>2020-10-18T07:54:26Z</time>
      </trkpt>
      <trkpt lat="44.06167" lon="6.15494">
        <ele>677.4</ele>
        <time>2020-10-18T07:54:27Z</time>
      </trkpt>
      <trkpt lat="44.06167" lon="6.15494">
        <ele>677.4</ele>
        <time>2020-10-18T07:54:28Z</time>
      </trkpt>
      <trkpt lat="44.06168" lon="6.15494">
        <ele>677.4</ele>
        <time>2020-10-18T07:54:29Z</time>
      </trkpt>
      <trkpt lat="44.06168" lon="6.15494">
        <ele>677.6</ele>
        <time>2020-10-18T07:54:30Z</time>
      </trkpt>
      <trkpt lat="44.06168" lon="6.15494">
        <ele>677.6</ele>
        <time>2020-10-18T07:54:31Z</time>
      </trkpt>
      <trkpt lat="44.06168" lon="6.15493">
        <ele>677.8</ele>
        <time>2020-10-18T07:54:32Z</time>
      </trkpt>
      <trkpt lat="44.06169" lon="6.15493">
        <ele>678</ele>
        <time>2020-10-18T07:54:33Z</time>
      </trkpt>
      <trkpt lat="44.06169" lon="6.15493">
        <ele>678.4</ele>
        <time>2020-10-18T07:54:34Z</time>
      </trkpt>
      <trkpt lat="44.0617" lon="6.15493">
        <ele>678.4</ele>
        <time>2020-10-18T07:54:35Z</time>
      </trkpt>
      <trkpt lat="44.06171" lon="6.15493">
        <ele>678.6</ele>
        <time>2020-10-18T07:54:36Z</time>
      </trkpt>
      <trkpt lat="44.06171" lon="6.15493">
        <ele>678.8</ele>
        <time>2020-10-18T07:54:37Z</time>
      </trkpt>
      <trkpt lat="44.06172" lon="6.15492">
        <ele>679</ele>
        <time>2020-10-18T07:54:38Z</time>
      </trkpt>
      <trkpt lat="44.06173" lon="6.15492">
        <ele>679.4</ele>
        <time>2020-10-18T07:54:40Z</time>
      </trkpt>
      <trkpt lat="44.06173" lon="6.15492">
        <ele>679.6</ele>
        <time>2020-10-18T07:54:41Z</time>
      </trkpt>
      <trkpt lat="44.06173" lon="6.15492">
        <ele>679.6</ele>
        <time>2020-10-18T07:54:42Z</time>
      </trkpt>
      <trkpt lat="44.06174" lon="6.15492">
        <ele>679.8</ele>
        <time>2020-10-18T07:54:43Z</time>
      </trkpt>
      <trkpt lat="44.06174" lon="6.15492">
        <ele>680</ele>
        <time>2020-10-18T07:54:44Z</time>
      </trkpt>
      <trkpt lat="44.06175" lon="6.15492">
        <ele>680.2</ele>
        <time>2020-10-18T07:54:45Z</time>
      </trkpt>
      <trkpt lat="44.06175" lon="6.15492">
        <ele>680.2</ele>
        <time>2020-10-18T07:54:46Z</time>
      </trkpt>
      <trkpt lat="44.06176" lon="6.15492">
        <ele>680.6</ele>
        <time>2020-10-18T07:54:47Z</time>
      </trkpt>
      <trkpt lat="44.06176" lon="6.15492">
        <ele>681</ele>
        <time>2020-10-18T07:54:48Z</time>
      </trkpt>
      <trkpt lat="44.06177" lon="6.15492">
        <ele>681.4</ele>
        <time>2020-10-18T07:54:50Z</time>
      </trkpt>
      <trkpt lat="44.06177" lon="6.15492">
        <ele>681.4</ele>
        <time>2020-10-18T07:54:51Z</time>
      </trkpt>
      <trkpt lat="44.06178" lon="6.15492">
        <ele>681.4</ele>
        <time>2020-10-18T07:54:52Z</time>
      </trkpt>
      <trkpt lat="44.06178" lon="6.15492">
        <ele>681.6</ele>
        <time>2020-10-18T07:54:53Z</time>
      </trkpt>
      <trkpt lat="44.06179" lon="6.15492">
        <ele>681.8</ele>
        <time>2020-10-18T07:54:54Z</time>
      </trkpt>
      <trkpt lat="44.06179" lon="6.15492">
        <ele>682</ele>
        <time>2020-10-18T07:54:55Z</time>
      </trkpt>
      <trkpt lat="44.0618" lon="6.15492">
        <ele>682</ele>
        <time>2020-10-18T07:54:56Z</time>
      </trkpt>
      <trkpt lat="44.0618" lon="6.15492">
        <ele>682.4</ele>
        <time>2020-10-18T07:54:57Z</time>
      </trkpt>
      <trkpt lat="44.06181" lon="6.15492">
        <ele>682.6</ele>
        <time>2020-10-18T07:54:58Z</time>
      </trkpt>
      <trkpt lat="44.06182" lon="6.15492">
        <ele>682.8</ele>
        <time>2020-10-18T07:54:59Z</time>
      </trkpt>
      <trkpt lat="44.06183" lon="6.15491">
        <ele>683</ele>
        <time>2020-10-18T07:55:00Z</time>
      </trkpt>
      <trkpt lat="44.06183" lon="6.15491">
        <ele>683</ele>
        <time>2020-10-18T07:55:01Z</time>
      </trkpt>
      <trkpt lat="44.06184" lon="6.1549">
        <ele>683</ele>
        <time>2020-10-18T07:55:02Z</time>
      </trkpt>
      <trkpt lat="44.06184" lon="6.1549">
        <ele>683.2</ele>
        <time>2020-10-18T07:55:03Z</time>
      </trkpt>
      <trkpt lat="44.06185" lon="6.1549">
        <ele>683.4</ele>
        <time>2020-10-18T07:55:04Z</time>
      </trkpt>
      <trkpt lat="44.06185" lon="6.1549">
        <ele>683.6</ele>
        <time>2020-10-18T07:55:05Z</time>
      </trkpt>
      <trkpt lat="44.06186" lon="6.15489">
        <ele>683.8</ele>
        <time>2020-10-18T07:55:06Z</time>
      </trkpt>
      <trkpt lat="44.06187" lon="6.15489">
        <ele>684</ele>
        <time>2020-10-18T07:55:08Z</time>
      </trkpt>
      <trkpt lat="44.06187" lon="6.15489">
        <ele>684.4</ele>
        <time>2020-10-18T07:55:09Z</time>
      </trkpt>
      <trkpt lat="44.06188" lon="6.15489">
        <ele>684.4</ele>
        <time>2020-10-18T07:55:10Z</time>
      </trkpt>
      <trkpt lat="44.06188" lon="6.15488">
        <ele>684.6</ele>
        <time>2020-10-18T07:55:11Z</time>
      </trkpt>
      <trkpt lat="44.06189" lon="6.15488">
        <ele>684.6</ele>
        <time>2020-10-18T07:55:12Z</time>
      </trkpt>
      <trkpt lat="44.0619" lon="6.15488">
        <ele>685.2</ele>
        <time>2020-10-18T07:55:14Z</time>
      </trkpt>
      <trkpt lat="44.0619" lon="6.15487">
        <ele>685.4</ele>
        <time>2020-10-18T07:55:16Z</time>
      </trkpt>
      <trkpt lat="44.06191" lon="6.15486">
        <ele>686.4</ele>
        <time>2020-10-18T07:55:18Z</time>
      </trkpt>
      <trkpt lat="44.06191" lon="6.15486">
        <ele>686.4</ele>
        <time>2020-10-18T07:55:19Z</time>
      </trkpt>
      <trkpt lat="44.06192" lon="6.15486">
        <ele>686.8</ele>
        <time>2020-10-18T07:55:20Z</time>
      </trkpt>
      <trkpt lat="44.06193" lon="6.15485">
        <ele>686.8</ele>
        <time>2020-10-18T07:55:21Z</time>
      </trkpt>
      <trkpt lat="44.06193" lon="6.15485">
        <ele>687</ele>
        <time>2020-10-18T07:55:22Z</time>
      </trkpt>
      <trkpt lat="44.06194" lon="6.15485">
        <ele>687</ele>
        <time>2020-10-18T07:55:23Z</time>
      </trkpt>
      <trkpt lat="44.06194" lon="6.15485">
        <ele>687.2</ele>
        <time>2020-10-18T07:55:24Z</time>
      </trkpt>
      <trkpt lat="44.06195" lon="6.15485">
        <ele>687.6</ele>
        <time>2020-10-18T07:55:25Z</time>
      </trkpt>
      <trkpt lat="44.06195" lon="6.15485">
        <ele>687.6</ele>
        <time>2020-10-18T07:55:26Z</time>
      </trkpt>
      <trkpt lat="44.06196" lon="6.15485">
        <ele>687.6</ele>
        <time>2020-10-18T07:55:27Z</time>
      </trkpt>
      <trkpt lat="44.06196" lon="6.15485">
        <ele>688</ele>
        <time>2020-10-18T07:55:28Z</time>
      </trkpt>
      <trkpt lat="44.06197" lon="6.15485">
        <ele>688.2</ele>
        <time>2020-10-18T07:55:29Z</time>
      </trkpt>
      <trkpt lat="44.06198" lon="6.15485">
        <ele>688.6</ele>
        <time>2020-10-18T07:55:30Z</time>
      </trkpt>
      <trkpt lat="44.06198" lon="6.15485">
        <ele>688.8</ele>
        <time>2020-10-18T07:55:31Z</time>
      </trkpt>
      <trkpt lat="44.06199" lon="6.15485">
        <ele>689</ele>
        <time>2020-10-18T07:55:32Z</time>
      </trkpt>
      <trkpt lat="44.062" lon="6.15485">
        <ele>689.2</ele>
        <time>2020-10-18T07:55:33Z</time>
      </trkpt>
      <trkpt lat="44.062" lon="6.15486">
        <ele>689.2</ele>
        <time>2020-10-18T07:55:34Z</time>
      </trkpt>
      <trkpt lat="44.06201" lon="6.15485">
        <ele>689.2</ele>
        <time>2020-10-18T07:55:35Z</time>
      </trkpt>
      <trkpt lat="44.06201" lon="6.15485">
        <ele>689.4</ele>
        <time>2020-10-18T07:55:36Z</time>
      </trkpt>
      <trkpt lat="44.06202" lon="6.15485">
        <ele>689.6</ele>
        <time>2020-10-18T07:55:37Z</time>
      </trkpt>
      <trkpt lat="44.06202" lon="6.15486">
        <ele>689.8</ele>
        <time>2020-10-18T07:55:38Z</time>
      </trkpt>
      <trkpt lat="44.06202" lon="6.15486">
        <ele>690</ele>
        <time>2020-10-18T07:55:40Z</time>
      </trkpt>
      <trkpt lat="44.06203" lon="6.15486">
        <ele>690.4</ele>
        <time>2020-10-18T07:55:42Z</time>
      </trkpt>
      <trkpt lat="44.06204" lon="6.15486">
        <ele>690.6</ele>
        <time>2020-10-18T07:55:44Z</time>
      </trkpt>
      <trkpt lat="44.06206" lon="6.15486">
        <ele>690.8</ele>
        <time>2020-10-18T07:55:45Z</time>
      </trkpt>
      <trkpt lat="44.06207" lon="6.15486">
        <ele>691</ele>
        <time>2020-10-18T07:55:46Z</time>
      </trkpt>
      <trkpt lat="44.06208" lon="6.15487">
        <ele>691</ele>
        <time>2020-10-18T07:55:47Z</time>
      </trkpt>
      <trkpt lat="44.06209" lon="6.15487">
        <ele>691</ele>
        <time>2020-10-18T07:55:48Z</time>
      </trkpt>
      <trkpt lat="44.0621" lon="6.15487">
        <ele>691.2</ele>
        <time>2020-10-18T07:55:49Z</time>
      </trkpt>
      <trkpt lat="44.06211" lon="6.15487">
        <ele>691.2</ele>
        <time>2020-10-18T07:55:50Z</time>
      </trkpt>
      <trkpt lat="44.06212" lon="6.15487">
        <ele>691.4</ele>
        <time>2020-10-18T07:55:51Z</time>
      </trkpt>
      <trkpt lat="44.06214" lon="6.15487">
        <ele>691.4</ele>
        <time>2020-10-18T07:55:52Z</time>
      </trkpt>
      <trkpt lat="44.06215" lon="6.15487">
        <ele>691.4</ele>
        <time>2020-10-18T07:55:53Z</time>
      </trkpt>
      <trkpt lat="44.06216" lon="6.15487">
        <ele>691.8</ele>
        <time>2020-10-18T07:55:54Z</time>
      </trkpt>
      <trkpt lat="44.06217" lon="6.15486">
        <ele>692</ele>
        <time>2020-10-18T07:55:55Z</time>
      </trkpt>
      <trkpt lat="44.06218" lon="6.15486">
        <ele>692.2</ele>
        <time>2020-10-18T07:55:56Z</time>
      </trkpt>
      <trkpt lat="44.06219" lon="6.15486">
        <ele>692.4</ele>
        <time>2020-10-18T07:55:57Z</time>
      </trkpt>
      <trkpt lat="44.06221" lon="6.15485">
        <ele>692.6</ele>
        <time>2020-10-18T07:55:58Z</time>
      </trkpt>
      <trkpt lat="44.06222" lon="6.15485">
        <ele>693</ele>
        <time>2020-10-18T07:55:59Z</time>
      </trkpt>
      <trkpt lat="44.06224" lon="6.15486">
        <ele>693.2</ele>
        <time>2020-10-18T07:56:00Z</time>
      </trkpt>
      <trkpt lat="44.06226" lon="6.15486">
        <ele>693.4</ele>
        <time>2020-10-18T07:56:01Z</time>
      </trkpt>
      <trkpt lat="44.06228" lon="6.15487">
        <ele>693.8</ele>
        <time>2020-10-18T07:56:02Z</time>
      </trkpt>
      <trkpt lat="44.0623" lon="6.15487">
        <ele>693.8</ele>
        <time>2020-10-18T07:56:03Z</time>
      </trkpt>
      <trkpt lat="44.06231" lon="6.15488">
        <ele>694</ele>
        <time>2020-10-18T07:56:04Z</time>
      </trkpt>
      <trkpt lat="44.06233" lon="6.15489">
        <ele>694.4</ele>
        <time>2020-10-18T07:56:05Z</time>
      </trkpt>
      <trkpt lat="44.06236" lon="6.1549">
        <ele>694.6</ele>
        <time>2020-10-18T07:56:06Z</time>
      </trkpt>
      <trkpt lat="44.06238" lon="6.1549">
        <ele>695</ele>
        <time>2020-10-18T07:56:07Z</time>
      </trkpt>
      <trkpt lat="44.06239" lon="6.15491">
        <ele>695.2</ele>
        <time>2020-10-18T07:56:08Z</time>
      </trkpt>
      <trkpt lat="44.06242" lon="6.15492">
        <ele>695.6</ele>
        <time>2020-10-18T07:56:09Z</time>
      </trkpt>
      <trkpt lat="44.06244" lon="6.15493">
        <ele>695.6</ele>
        <time>2020-10-18T07:56:10Z</time>
      </trkpt>
      <trkpt lat="44.06246" lon="6.15494">
        <ele>695.8</ele>
        <time>2020-10-18T07:56:11Z</time>
      </trkpt>
      <trkpt lat="44.06248" lon="6.15495">
        <ele>695.8</ele>
        <time>2020-10-18T07:56:12Z</time>
      </trkpt>
      <trkpt lat="44.0625" lon="6.15496">
        <ele>695.8</ele>
        <time>2020-10-18T07:56:13Z</time>
      </trkpt>
      <trkpt lat="44.06252" lon="6.15497">
        <ele>696</ele>
        <time>2020-10-18T07:56:14Z</time>
      </trkpt>
      <trkpt lat="44.06254" lon="6.15498">
        <ele>696.2</ele>
        <time>2020-10-18T07:56:15Z</time>
      </trkpt>
      <trkpt lat="44.06256" lon="6.15499">
        <ele>696.2</ele>
        <time>2020-10-18T07:56:16Z</time>
      </trkpt>
      <trkpt lat="44.06259" lon="6.155">
        <ele>696.2</ele>
        <time>2020-10-18T07:56:17Z</time>
      </trkpt>
      <trkpt lat="44.06262" lon="6.155">
        <ele>696.2</ele>
        <time>2020-10-18T07:56:18Z</time>
      </trkpt>
      <trkpt lat="44.06265" lon="6.155">
        <ele>696.2</ele>
        <time>2020-10-18T07:56:19Z</time>
      </trkpt>
      <trkpt lat="44.06268" lon="6.155">
        <ele>696.2</ele>
        <time>2020-10-18T07:56:20Z</time>
      </trkpt>
      <trkpt lat="44.06271" lon="6.15501">
        <ele>696.2</ele>
        <time>2020-10-18T07:56:21Z</time>
      </trkpt>
      <trkpt lat="44.06273" lon="6.15502">
        <ele>696.2</ele>
        <time>2020-10-18T07:56:22Z</time>
      </trkpt>
      <trkpt lat="44.06276" lon="6.15503">
        <ele>696.2</ele>
        <time>2020-10-18T07:56:23Z</time>
      </trkpt>
      <trkpt lat="44.0628" lon="6.15505">
        <ele>696.4</ele>
        <time>2020-10-18T07:56:24Z</time>
      </trkpt>
      <trkpt lat="44.06282" lon="6.15506">
        <ele>696.2</ele>
        <time>2020-10-18T07:56:25Z</time>
      </trkpt>
      <trkpt lat="44.06285" lon="6.15507">
        <ele>696.2</ele>
        <time>2020-10-18T07:56:26Z</time>
      </trkpt>
      <trkpt lat="44.06288" lon="6.15509">
        <ele>696</ele>
        <time>2020-10-18T07:56:27Z</time>
      </trkpt>
      <trkpt lat="44.06292" lon="6.15512">
        <ele>696</ele>
        <time>2020-10-18T07:56:28Z</time>
      </trkpt>
      <trkpt lat="44.06296" lon="6.15515">
        <ele>695.8</ele>
        <time>2020-10-18T07:56:29Z</time>
      </trkpt>
      <trkpt lat="44.063" lon="6.15518">
        <ele>695.4</ele>
        <time>2020-10-18T07:56:30Z</time>
      </trkpt>
      <trkpt lat="44.06308" lon="6.15523">
        <ele>694.6</ele>
        <time>2020-10-18T07:56:32Z</time>
      </trkpt>
      <trkpt lat="44.06311" lon="6.15525">
        <ele>694.4</ele>
        <time>2020-10-18T07:56:33Z</time>
      </trkpt>
      <trkpt lat="44.06313" lon="6.15526">
        <ele>693.8</ele>
        <time>2020-10-18T07:56:34Z</time>
      </trkpt>
      <trkpt lat="44.06314" lon="6.15528">
        <ele>693.6</ele>
        <time>2020-10-18T07:56:35Z</time>
      </trkpt>
      <trkpt lat="44.06316" lon="6.1553">
        <ele>693</ele>
        <time>2020-10-18T07:56:36Z</time>
      </trkpt>
      <trkpt lat="44.06317" lon="6.15532">
        <ele>692.6</ele>
        <time>2020-10-18T07:56:37Z</time>
      </trkpt>
      <trkpt lat="44.06319" lon="6.15534">
        <ele>692.6</ele>
        <time>2020-10-18T07:56:38Z</time>
      </trkpt>
      <trkpt lat="44.06321" lon="6.15535">
        <ele>692.6</ele>
        <time>2020-10-18T07:56:39Z</time>
      </trkpt>
      <trkpt lat="44.06324" lon="6.15537">
        <ele>692.4</ele>
        <time>2020-10-18T07:56:40Z</time>
      </trkpt>
      <trkpt lat="44.06328" lon="6.15538">
        <ele>692.4</ele>
        <time>2020-10-18T07:56:42Z</time>
      </trkpt>
      <trkpt lat="44.0633" lon="6.1554">
        <ele>692.6</ele>
        <time>2020-10-18T07:56:43Z</time>
      </trkpt>
      <trkpt lat="44.06332" lon="6.15541">
        <ele>692.6</ele>
        <time>2020-10-18T07:56:44Z</time>
      </trkpt>
      <trkpt lat="44.06333" lon="6.15542">
        <ele>692.4</ele>
        <time>2020-10-18T07:56:45Z</time>
      </trkpt>
      <trkpt lat="44.06335" lon="6.15543">
        <ele>692.4</ele>
        <time>2020-10-18T07:56:46Z</time>
      </trkpt>
      <trkpt lat="44.06336" lon="6.15545">
        <ele>692.4</ele>
        <time>2020-10-18T07:56:47Z</time>
      </trkpt>
      <trkpt lat="44.06338" lon="6.15546">
        <ele>692.6</ele>
        <time>2020-10-18T07:56:48Z</time>
      </trkpt>
      <trkpt lat="44.0634" lon="6.15549">
        <ele>693.4</ele>
        <time>2020-10-18T07:56:50Z</time>
      </trkpt>
      <trkpt lat="44.06341" lon="6.1555">
        <ele>693.6</ele>
        <time>2020-10-18T07:56:51Z</time>
      </trkpt>
      <trkpt lat="44.06343" lon="6.15551">
        <ele>694</ele>
        <time>2020-10-18T07:56:52Z</time>
      </trkpt>
      <trkpt lat="44.06344" lon="6.15551">
        <ele>694.4</ele>
        <time>2020-10-18T07:56:53Z</time>
      </trkpt>
      <trkpt lat="44.06345" lon="6.15551">
        <ele>694.6</ele>
        <time>2020-10-18T07:56:54Z</time>
      </trkpt>
      <trkpt lat="44.06347" lon="6.15552">
        <ele>694.8</ele>
        <time>2020-10-18T07:56:55Z</time>
      </trkpt>
      <trkpt lat="44.06349" lon="6.15553">
        <ele>695</ele>
        <time>2020-10-18T07:56:56Z</time>
      </trkpt>
      <trkpt lat="44.0635" lon="6.15553">
        <ele>695</ele>
        <time>2020-10-18T07:56:57Z</time>
      </trkpt>
      <trkpt lat="44.06352" lon="6.15554">
        <ele>695.4</ele>
        <time>2020-10-18T07:56:58Z</time>
      </trkpt>
      <trkpt lat="44.06353" lon="6.15554">
        <ele>695.8</ele>
        <time>2020-10-18T07:56:59Z</time>
      </trkpt>
      <trkpt lat="44.06355" lon="6.15554">
        <ele>696.2</ele>
        <time>2020-10-18T07:57:00Z</time>
      </trkpt>
      <trkpt lat="44.06356" lon="6.15554">
        <ele>696.4</ele>
        <time>2020-10-18T07:57:01Z</time>
      </trkpt>
      <trkpt lat="44.06358" lon="6.15554">
        <ele>696.4</ele>
        <time>2020-10-18T07:57:02Z</time>
      </trkpt>
      <trkpt lat="44.0636" lon="6.15554">
        <ele>696.8</ele>
        <time>2020-10-18T07:57:03Z</time>
      </trkpt>
      <trkpt lat="44.06361" lon="6.15554">
        <ele>696.8</ele>
        <time>2020-10-18T07:57:04Z</time>
      </trkpt>
      <trkpt lat="44.06363" lon="6.15554">
        <ele>697</ele>
        <time>2020-10-18T07:57:05Z</time>
      </trkpt>
      <trkpt lat="44.06364" lon="6.15553">
        <ele>697.4</ele>
        <time>2020-10-18T07:57:06Z</time>
      </trkpt>
      <trkpt lat="44.06366" lon="6.15553">
        <ele>697.6</ele>
        <time>2020-10-18T07:57:07Z</time>
      </trkpt>
      <trkpt lat="44.06367" lon="6.15553">
        <ele>698</ele>
        <time>2020-10-18T07:57:08Z</time>
      </trkpt>
      <trkpt lat="44.06369" lon="6.15553">
        <ele>698</ele>
        <time>2020-10-18T07:57:09Z</time>
      </trkpt>
      <trkpt lat="44.06371" lon="6.15553">
        <ele>698.6</ele>
        <time>2020-10-18T07:57:10Z</time>
      </trkpt>
      <trkpt lat="44.06372" lon="6.15554">
        <ele>698.6</ele>
        <time>2020-10-18T07:57:11Z</time>
      </trkpt>
      <trkpt lat="44.06374" lon="6.15555">
        <ele>698.8</ele>
        <time>2020-10-18T07:57:12Z</time>
      </trkpt>
      <trkpt lat="44.06375" lon="6.15556">
        <ele>698.8</ele>
        <time>2020-10-18T07:57:13Z</time>
      </trkpt>
      <trkpt lat="44.06377" lon="6.15556">
        <ele>699.2</ele>
        <time>2020-10-18T07:57:14Z</time>
      </trkpt>
      <trkpt lat="44.06379" lon="6.15557">
        <ele>699.2</ele>
        <time>2020-10-18T07:57:15Z</time>
      </trkpt>
      <trkpt lat="44.0638" lon="6.15557">
        <ele>699.6</ele>
        <time>2020-10-18T07:57:16Z</time>
      </trkpt>
      <trkpt lat="44.06382" lon="6.15558">
        <ele>699.6</ele>
        <time>2020-10-18T07:57:17Z</time>
      </trkpt>
      <trkpt lat="44.06384" lon="6.15559">
        <ele>699.8</ele>
        <time>2020-10-18T07:57:18Z</time>
      </trkpt>
      <trkpt lat="44.06387" lon="6.15559">
        <ele>700.2</ele>
        <time>2020-10-18T07:57:19Z</time>
      </trkpt>
      <trkpt lat="44.06389" lon="6.15559">
        <ele>700.6</ele>
        <time>2020-10-18T07:57:20Z</time>
      </trkpt>
      <trkpt lat="44.0639" lon="6.15559">
        <ele>700.6</ele>
        <time>2020-10-18T07:57:21Z</time>
      </trkpt>
      <trkpt lat="44.06392" lon="6.15559">
        <ele>701</ele>
        <time>2020-10-18T07:57:22Z</time>
      </trkpt>
      <trkpt lat="44.06394" lon="6.15559">
        <ele>701.2</ele>
        <time>2020-10-18T07:57:23Z</time>
      </trkpt>
      <trkpt lat="44.06396" lon="6.1556">
        <ele>701.4</ele>
        <time>2020-10-18T07:57:24Z</time>
      </trkpt>
      <trkpt lat="44.06397" lon="6.15561">
        <ele>701.4</ele>
        <time>2020-10-18T07:57:25Z</time>
      </trkpt>
      <trkpt lat="44.06399" lon="6.15563">
        <ele>701.6</ele>
        <time>2020-10-18T07:57:26Z</time>
      </trkpt>
      <trkpt lat="44.064" lon="6.15565">
        <ele>701.8</ele>
        <time>2020-10-18T07:57:27Z</time>
      </trkpt>
      <trkpt lat="44.06402" lon="6.15566">
        <ele>702.2</ele>
        <time>2020-10-18T07:57:28Z</time>
      </trkpt>
      <trkpt lat="44.06403" lon="6.15568">
        <ele>702.2</ele>
        <time>2020-10-18T07:57:29Z</time>
      </trkpt>
      <trkpt lat="44.06405" lon="6.15568">
        <ele>702.4</ele>
        <time>2020-10-18T07:57:30Z</time>
      </trkpt>
      <trkpt lat="44.06407" lon="6.15568">
        <ele>702.6</ele>
        <time>2020-10-18T07:57:31Z</time>
      </trkpt>
      <trkpt lat="44.06408" lon="6.15568">
        <ele>702.6</ele>
        <time>2020-10-18T07:57:32Z</time>
      </trkpt>
      <trkpt lat="44.06409" lon="6.15569">
        <ele>702.8</ele>
        <time>2020-10-18T07:57:33Z</time>
      </trkpt>
      <trkpt lat="44.06411" lon="6.1557">
        <ele>703</ele>
        <time>2020-10-18T07:57:34Z</time>
      </trkpt>
      <trkpt lat="44.06413" lon="6.15571">
        <ele>703</ele>
        <time>2020-10-18T07:57:35Z</time>
      </trkpt>
      <trkpt lat="44.06414" lon="6.15571">
        <ele>703.2</ele>
        <time>2020-10-18T07:57:36Z</time>
      </trkpt>
      <trkpt lat="44.06416" lon="6.15572">
        <ele>703.4</ele>
        <time>2020-10-18T07:57:37Z</time>
      </trkpt>
      <trkpt lat="44.06418" lon="6.15573">
        <ele>703.4</ele>
        <time>2020-10-18T07:57:38Z</time>
      </trkpt>
      <trkpt lat="44.0642" lon="6.15575">
        <ele>703.4</ele>
        <time>2020-10-18T07:57:39Z</time>
      </trkpt>
      <trkpt lat="44.06421" lon="6.15577">
        <ele>703.8</ele>
        <time>2020-10-18T07:57:40Z</time>
      </trkpt>
      <trkpt lat="44.06422" lon="6.15579">
        <ele>704.2</ele>
        <time>2020-10-18T07:57:41Z</time>
      </trkpt>
      <trkpt lat="44.06424" lon="6.15582">
        <ele>704</ele>
        <time>2020-10-18T07:57:42Z</time>
      </trkpt>
      <trkpt lat="44.06426" lon="6.15583">
        <ele>704.2</ele>
        <time>2020-10-18T07:57:43Z</time>
      </trkpt>
      <trkpt lat="44.06428" lon="6.15585">
        <ele>704.4</ele>
        <time>2020-10-18T07:57:44Z</time>
      </trkpt>
      <trkpt lat="44.0643" lon="6.15587">
        <ele>704.4</ele>
        <time>2020-10-18T07:57:45Z</time>
      </trkpt>
      <trkpt lat="44.06432" lon="6.15588">
        <ele>704.6</ele>
        <time>2020-10-18T07:57:46Z</time>
      </trkpt>
      <trkpt lat="44.06434" lon="6.15591">
        <ele>704.6</ele>
        <time>2020-10-18T07:57:47Z</time>
      </trkpt>
      <trkpt lat="44.06436" lon="6.15593">
        <ele>704.8</ele>
        <time>2020-10-18T07:57:48Z</time>
      </trkpt>
      <trkpt lat="44.06439" lon="6.15594">
        <ele>704.8</ele>
        <time>2020-10-18T07:57:49Z</time>
      </trkpt>
      <trkpt lat="44.06441" lon="6.15595">
        <ele>705</ele>
        <time>2020-10-18T07:57:50Z</time>
      </trkpt>
      <trkpt lat="44.06444" lon="6.15596">
        <ele>705</ele>
        <time>2020-10-18T07:57:51Z</time>
      </trkpt>
      <trkpt lat="44.06447" lon="6.15596">
        <ele>705.2</ele>
        <time>2020-10-18T07:57:52Z</time>
      </trkpt>
      <trkpt lat="44.0645" lon="6.15597">
        <ele>705.2</ele>
        <time>2020-10-18T07:57:53Z</time>
      </trkpt>
      <trkpt lat="44.06453" lon="6.15597">
        <ele>705.2</ele>
        <time>2020-10-18T07:57:54Z</time>
      </trkpt>
      <trkpt lat="44.06456" lon="6.15597">
        <ele>705</ele>
        <time>2020-10-18T07:57:55Z</time>
      </trkpt>
      <trkpt lat="44.06458" lon="6.15597">
        <ele>705.2</ele>
        <time>2020-10-18T07:57:56Z</time>
      </trkpt>
      <trkpt lat="44.0646" lon="6.15597">
        <ele>705.2</ele>
        <time>2020-10-18T07:57:57Z</time>
      </trkpt>
      <trkpt lat="44.06462" lon="6.15597">
        <ele>705.4</ele>
        <time>2020-10-18T07:57:58Z</time>
      </trkpt>
      <trkpt lat="44.06465" lon="6.15598">
        <ele>705.6</ele>
        <time>2020-10-18T07:57:59Z</time>
      </trkpt>
      <trkpt lat="44.06467" lon="6.15598">
        <ele>705.4</ele>
        <time>2020-10-18T07:58:00Z</time>
      </trkpt>
      <trkpt lat="44.06471" lon="6.15598">
        <ele>705.4</ele>
        <time>2020-10-18T07:58:02Z</time>
      </trkpt>
      <trkpt lat="44.06473" lon="6.15598">
        <ele>705.4</ele>
        <time>2020-10-18T07:58:03Z</time>
      </trkpt>
      <trkpt lat="44.06475" lon="6.15598">
        <ele>705.6</ele>
        <time>2020-10-18T07:58:04Z</time>
      </trkpt>
      <trkpt lat="44.06477" lon="6.15597">
        <ele>705.6</ele>
        <time>2020-10-18T07:58:05Z</time>
      </trkpt>
      <trkpt lat="44.06479" lon="6.15597">
        <ele>705.6</ele>
        <time>2020-10-18T07:58:06Z</time>
      </trkpt>
      <trkpt lat="44.06483" lon="6.15596">
        <ele>705.6</ele>
        <time>2020-10-18T07:58:08Z</time>
      </trkpt>
      <trkpt lat="44.06485" lon="6.15594">
        <ele>705.8</ele>
        <time>2020-10-18T07:58:09Z</time>
      </trkpt>
      <trkpt lat="44.06487" lon="6.15593">
        <ele>705.8</ele>
        <time>2020-10-18T07:58:10Z</time>
      </trkpt>
      <trkpt lat="44.06488" lon="6.15591">
        <ele>705.8</ele>
        <time>2020-10-18T07:58:11Z</time>
      </trkpt>
      <trkpt lat="44.0649" lon="6.1559">
        <ele>705.8</ele>
        <time>2020-10-18T07:58:12Z</time>
      </trkpt>
      <trkpt lat="44.06491" lon="6.1559">
        <ele>705.8</ele>
        <time>2020-10-18T07:58:13Z</time>
      </trkpt>
      <trkpt lat="44.06493" lon="6.15589">
        <ele>705.8</ele>
        <time>2020-10-18T07:58:14Z</time>
      </trkpt>
      <trkpt lat="44.06497" lon="6.15587">
        <ele>705.8</ele>
        <time>2020-10-18T07:58:16Z</time>
      </trkpt>
      <trkpt lat="44.06499" lon="6.15587">
        <ele>706</ele>
        <time>2020-10-18T07:58:17Z</time>
      </trkpt>
      <trkpt lat="44.06501" lon="6.15586">
        <ele>706</ele>
        <time>2020-10-18T07:58:18Z</time>
      </trkpt>
      <trkpt lat="44.06503" lon="6.15586">
        <ele>706</ele>
        <time>2020-10-18T07:58:19Z</time>
      </trkpt>
      <trkpt lat="44.06505" lon="6.15585">
        <ele>706.8</ele>
        <time>2020-10-18T07:58:20Z</time>
      </trkpt>
      <trkpt lat="44.06507" lon="6.15585">
        <ele>706.8</ele>
        <time>2020-10-18T07:58:21Z</time>
      </trkpt>
      <trkpt lat="44.06509" lon="6.15585">
        <ele>707.2</ele>
        <time>2020-10-18T07:58:22Z</time>
      </trkpt>
      <trkpt lat="44.06512" lon="6.15585">
        <ele>707.4</ele>
        <time>2020-10-18T07:58:23Z</time>
      </trkpt>
      <trkpt lat="44.06514" lon="6.15586">
        <ele>707.6</ele>
        <time>2020-10-18T07:58:24Z</time>
      </trkpt>
      <trkpt lat="44.06516" lon="6.15587">
        <ele>707.6</ele>
        <time>2020-10-18T07:58:25Z</time>
      </trkpt>
      <trkpt lat="44.06518" lon="6.15588">
        <ele>707.8</ele>
        <time>2020-10-18T07:58:26Z</time>
      </trkpt>
      <trkpt lat="44.06521" lon="6.15589">
        <ele>708</ele>
        <time>2020-10-18T07:58:27Z</time>
      </trkpt>
      <trkpt lat="44.06524" lon="6.1559">
        <ele>708.2</ele>
        <time>2020-10-18T07:58:28Z</time>
      </trkpt>
      <trkpt lat="44.06526" lon="6.1559">
        <ele>708.4</ele>
        <time>2020-10-18T07:58:29Z</time>
      </trkpt>
      <trkpt lat="44.06529" lon="6.15591">
        <ele>708.6</ele>
        <time>2020-10-18T07:58:30Z</time>
      </trkpt>
      <trkpt lat="44.06531" lon="6.15591">
        <ele>708.8</ele>
        <time>2020-10-18T07:58:31Z</time>
      </trkpt>
      <trkpt lat="44.06532" lon="6.15591">
        <ele>708.8</ele>
        <time>2020-10-18T07:58:32Z</time>
      </trkpt>
      <trkpt lat="44.06533" lon="6.15591">
        <ele>708.8</ele>
        <time>2020-10-18T07:58:33Z</time>
      </trkpt>
      <trkpt lat="44.06535" lon="6.1559">
        <ele>709</ele>
        <time>2020-10-18T07:58:34Z</time>
      </trkpt>
      <trkpt lat="44.06535" lon="6.15589">
        <ele>709</ele>
        <time>2020-10-18T07:58:35Z</time>
      </trkpt>
      <trkpt lat="44.06537" lon="6.15587">
        <ele>709</ele>
        <time>2020-10-18T07:58:36Z</time>
      </trkpt>
      <trkpt lat="44.06538" lon="6.15585">
        <ele>709.2</ele>
        <time>2020-10-18T07:58:37Z</time>
      </trkpt>
      <trkpt lat="44.06539" lon="6.15584">
        <ele>709.4</ele>
        <time>2020-10-18T07:58:38Z</time>
      </trkpt>
      <trkpt lat="44.0654" lon="6.15582">
        <ele>709.6</ele>
        <time>2020-10-18T07:58:39Z</time>
      </trkpt>
      <trkpt lat="44.06541" lon="6.1558">
        <ele>709.6</ele>
        <time>2020-10-18T07:58:40Z</time>
      </trkpt>
      <trkpt lat="44.06542" lon="6.15579">
        <ele>709.6</ele>
        <time>2020-10-18T07:58:41Z</time>
      </trkpt>
      <trkpt lat="44.06543" lon="6.15577">
        <ele>709.8</ele>
        <time>2020-10-18T07:58:42Z</time>
      </trkpt>
      <trkpt lat="44.06544" lon="6.15575">
        <ele>710.2</ele>
        <time>2020-10-18T07:58:43Z</time>
      </trkpt>
      <trkpt lat="44.06546" lon="6.15574">
        <ele>710.6</ele>
        <time>2020-10-18T07:58:44Z</time>
      </trkpt>
      <trkpt lat="44.06548" lon="6.15572">
        <ele>710.6</ele>
        <time>2020-10-18T07:58:45Z</time>
      </trkpt>
      <trkpt lat="44.0655" lon="6.15572">
        <ele>710.8</ele>
        <time>2020-10-18T07:58:46Z</time>
      </trkpt>
      <trkpt lat="44.06552" lon="6.15572">
        <ele>710.8</ele>
        <time>2020-10-18T07:58:47Z</time>
      </trkpt>
      <trkpt lat="44.06554" lon="6.15572">
        <ele>710.8</ele>
        <time>2020-10-18T07:58:48Z</time>
      </trkpt>
      <trkpt lat="44.06556" lon="6.15572">
        <ele>711</ele>
        <time>2020-10-18T07:58:49Z</time>
      </trkpt>
      <trkpt lat="44.06558" lon="6.15573">
        <ele>711.2</ele>
        <time>2020-10-18T07:58:50Z</time>
      </trkpt>
      <trkpt lat="44.0656" lon="6.15572">
        <ele>711.6</ele>
        <time>2020-10-18T07:58:51Z</time>
      </trkpt>
      <trkpt lat="44.06561" lon="6.15571">
        <ele>712</ele>
        <time>2020-10-18T07:58:52Z</time>
      </trkpt>
      <trkpt lat="44.06562" lon="6.1557">
        <ele>712.4</ele>
        <time>2020-10-18T07:58:53Z</time>
      </trkpt>
      <trkpt lat="44.06563" lon="6.15568">
        <ele>712.6</ele>
        <time>2020-10-18T07:58:54Z</time>
      </trkpt>
      <trkpt lat="44.06564" lon="6.15565">
        <ele>713</ele>
        <time>2020-10-18T07:58:55Z</time>
      </trkpt>
      <trkpt lat="44.06564" lon="6.15563">
        <ele>713.2</ele>
        <time>2020-10-18T07:58:56Z</time>
      </trkpt>
      <trkpt lat="44.06565" lon="6.1556">
        <ele>713.4</ele>
        <time>2020-10-18T07:58:57Z</time>
      </trkpt>
      <trkpt lat="44.06565" lon="6.15558">
        <ele>713.6</ele>
        <time>2020-10-18T07:58:58Z</time>
      </trkpt>
      <trkpt lat="44.06565" lon="6.15555">
        <ele>713.8</ele>
        <time>2020-10-18T07:58:59Z</time>
      </trkpt>
      <trkpt lat="44.06566" lon="6.15553">
        <ele>714</ele>
        <time>2020-10-18T07:59:00Z</time>
      </trkpt>
      <trkpt lat="44.06566" lon="6.1555">
        <ele>714.2</ele>
        <time>2020-10-18T07:59:01Z</time>
      </trkpt>
      <trkpt lat="44.06567" lon="6.15548">
        <ele>714.2</ele>
        <time>2020-10-18T07:59:02Z</time>
      </trkpt>
      <trkpt lat="44.06567" lon="6.15545">
        <ele>714.4</ele>
        <time>2020-10-18T07:59:03Z</time>
      </trkpt>
      <trkpt lat="44.06568" lon="6.15543">
        <ele>714.6</ele>
        <time>2020-10-18T07:59:04Z</time>
      </trkpt>
      <trkpt lat="44.06568" lon="6.15542">
        <ele>714.6</ele>
        <time>2020-10-18T07:59:05Z</time>
      </trkpt>
      <trkpt lat="44.06569" lon="6.15539">
        <ele>715</ele>
        <time>2020-10-18T07:59:06Z</time>
      </trkpt>
      <trkpt lat="44.0657" lon="6.15537">
        <ele>715</ele>
        <time>2020-10-18T07:59:07Z</time>
      </trkpt>
      <trkpt lat="44.06571" lon="6.15535">
        <ele>715.2</ele>
        <time>2020-10-18T07:59:08Z</time>
      </trkpt>
      <trkpt lat="44.06572" lon="6.15533">
        <ele>715.2</ele>
        <time>2020-10-18T07:59:09Z</time>
      </trkpt>
      <trkpt lat="44.06573" lon="6.15531">
        <ele>715.2</ele>
        <time>2020-10-18T07:59:10Z</time>
      </trkpt>
      <trkpt lat="44.06574" lon="6.15531">
        <ele>715.4</ele>
        <time>2020-10-18T07:59:11Z</time>
      </trkpt>
      <trkpt lat="44.06576" lon="6.15531">
        <ele>715.6</ele>
        <time>2020-10-18T07:59:12Z</time>
      </trkpt>
      <trkpt lat="44.06577" lon="6.15531">
        <ele>715.6</ele>
        <time>2020-10-18T07:59:13Z</time>
      </trkpt>
      <trkpt lat="44.06579" lon="6.15532">
        <ele>715.8</ele>
        <time>2020-10-18T07:59:14Z</time>
      </trkpt>
      <trkpt lat="44.06581" lon="6.15533">
        <ele>716</ele>
        <time>2020-10-18T07:59:15Z</time>
      </trkpt>
      <trkpt lat="44.06583" lon="6.15533">
        <ele>716.2</ele>
        <time>2020-10-18T07:59:16Z</time>
      </trkpt>
      <trkpt lat="44.06585" lon="6.15534">
        <ele>716.4</ele>
        <time>2020-10-18T07:59:17Z</time>
      </trkpt>
      <trkpt lat="44.06588" lon="6.15534">
        <ele>716.6</ele>
        <time>2020-10-18T07:59:18Z</time>
      </trkpt>
      <trkpt lat="44.06589" lon="6.15535">
        <ele>716.6</ele>
        <time>2020-10-18T07:59:19Z</time>
      </trkpt>
      <trkpt lat="44.06591" lon="6.15537">
        <ele>716.8</ele>
        <time>2020-10-18T07:59:20Z</time>
      </trkpt>
      <trkpt lat="44.06593" lon="6.15538">
        <ele>716.8</ele>
        <time>2020-10-18T07:59:21Z</time>
      </trkpt>
      <trkpt lat="44.06594" lon="6.1554">
        <ele>717</ele>
        <time>2020-10-18T07:59:22Z</time>
      </trkpt>
      <trkpt lat="44.06596" lon="6.15542">
        <ele>717.2</ele>
        <time>2020-10-18T07:59:23Z</time>
      </trkpt>
      <trkpt lat="44.06598" lon="6.15543">
        <ele>717.4</ele>
        <time>2020-10-18T07:59:24Z</time>
      </trkpt>
      <trkpt lat="44.066" lon="6.15544">
        <ele>717.6</ele>
        <time>2020-10-18T07:59:25Z</time>
      </trkpt>
      <trkpt lat="44.06602" lon="6.15546">
        <ele>717.6</ele>
        <time>2020-10-18T07:59:26Z</time>
      </trkpt>
      <trkpt lat="44.06604" lon="6.15548">
        <ele>718</ele>
        <time>2020-10-18T07:59:27Z</time>
      </trkpt>
      <trkpt lat="44.06606" lon="6.15549">
        <ele>718</ele>
        <time>2020-10-18T07:59:28Z</time>
      </trkpt>
      <trkpt lat="44.06608" lon="6.1555">
        <ele>718</ele>
        <time>2020-10-18T07:59:29Z</time>
      </trkpt>
      <trkpt lat="44.0661" lon="6.1555">
        <ele>718</ele>
        <time>2020-10-18T07:59:30Z</time>
      </trkpt>
      <trkpt lat="44.06612" lon="6.15551">
        <ele>718.2</ele>
        <time>2020-10-18T07:59:31Z</time>
      </trkpt>
      <trkpt lat="44.06615" lon="6.15551">
        <ele>718.2</ele>
        <time>2020-10-18T07:59:32Z</time>
      </trkpt>
      <trkpt lat="44.06617" lon="6.15552">
        <ele>718.6</ele>
        <time>2020-10-18T07:59:33Z</time>
      </trkpt>
      <trkpt lat="44.06619" lon="6.15552">
        <ele>718.6</ele>
        <time>2020-10-18T07:59:34Z</time>
      </trkpt>
      <trkpt lat="44.06621" lon="6.15552">
        <ele>718.8</ele>
        <time>2020-10-18T07:59:35Z</time>
      </trkpt>
      <trkpt lat="44.06623" lon="6.15552">
        <ele>718.6</ele>
        <time>2020-10-18T07:59:36Z</time>
      </trkpt>
      <trkpt lat="44.06625" lon="6.15552">
        <ele>718.8</ele>
        <time>2020-10-18T07:59:37Z</time>
      </trkpt>
      <trkpt lat="44.06628" lon="6.15552">
        <ele>719</ele>
        <time>2020-10-18T07:59:38Z</time>
      </trkpt>
      <trkpt lat="44.0663" lon="6.15552">
        <ele>718.8</ele>
        <time>2020-10-18T07:59:39Z</time>
      </trkpt>
      <trkpt lat="44.06633" lon="6.15553">
        <ele>719</ele>
        <time>2020-10-18T07:59:40Z</time>
      </trkpt>
      <trkpt lat="44.06635" lon="6.15554">
        <ele>719</ele>
        <time>2020-10-18T07:59:41Z</time>
      </trkpt>
      <trkpt lat="44.06637" lon="6.15556">
        <ele>719</ele>
        <time>2020-10-18T07:59:42Z</time>
      </trkpt>
      <trkpt lat="44.06639" lon="6.15558">
        <ele>719.2</ele>
        <time>2020-10-18T07:59:43Z</time>
      </trkpt>
      <trkpt lat="44.06641" lon="6.15559">
        <ele>719.2</ele>
        <time>2020-10-18T07:59:44Z</time>
      </trkpt>
      <trkpt lat="44.06643" lon="6.1556">
        <ele>719.4</ele>
        <time>2020-10-18T07:59:45Z</time>
      </trkpt>
      <trkpt lat="44.06645" lon="6.15561">
        <ele>719.8</ele>
        <time>2020-10-18T07:59:46Z</time>
      </trkpt>
      <trkpt lat="44.06647" lon="6.15563">
        <ele>720.2</ele>
        <time>2020-10-18T07:59:47Z</time>
      </trkpt>
      <trkpt lat="44.06649" lon="6.15564">
        <ele>720.2</ele>
        <time>2020-10-18T07:59:48Z</time>
      </trkpt>
      <trkpt lat="44.06652" lon="6.15565">
        <ele>720.2</ele>
        <time>2020-10-18T07:59:49Z</time>
      </trkpt>
      <trkpt lat="44.06654" lon="6.15566">
        <ele>720.6</ele>
        <time>2020-10-18T07:59:50Z</time>
      </trkpt>
      <trkpt lat="44.06656" lon="6.15567">
        <ele>720.6</ele>
        <time>2020-10-18T07:59:51Z</time>
      </trkpt>
      <trkpt lat="44.06657" lon="6.15568">
        <ele>720.8</ele>
        <time>2020-10-18T07:59:52Z</time>
      </trkpt>
      <trkpt lat="44.06659" lon="6.15569">
        <ele>721</ele>
        <time>2020-10-18T07:59:53Z</time>
      </trkpt>
      <trkpt lat="44.06661" lon="6.15571">
        <ele>721</ele>
        <time>2020-10-18T07:59:54Z</time>
      </trkpt>
      <trkpt lat="44.06663" lon="6.15572">
        <ele>721.2</ele>
        <time>2020-10-18T07:59:55Z</time>
      </trkpt>
      <trkpt lat="44.06665" lon="6.15574">
        <ele>721.4</ele>
        <time>2020-10-18T07:59:56Z</time>
      </trkpt>
      <trkpt lat="44.06668" lon="6.15575">
        <ele>721.8</ele>
        <time>2020-10-18T07:59:57Z</time>
      </trkpt>
      <trkpt lat="44.0667" lon="6.15576">
        <ele>722</ele>
        <time>2020-10-18T07:59:58Z</time>
      </trkpt>
      <trkpt lat="44.06672" lon="6.15577">
        <ele>722.4</ele>
        <time>2020-10-18T07:59:59Z</time>
      </trkpt>
      <trkpt lat="44.06674" lon="6.15579">
        <ele>722.6</ele>
        <time>2020-10-18T08:00:00Z</time>
      </trkpt>
      <trkpt lat="44.06677" lon="6.1558">
        <ele>722.8</ele>
        <time>2020-10-18T08:00:01Z</time>
      </trkpt>
      <trkpt lat="44.06679" lon="6.1558">
        <ele>723</ele>
        <time>2020-10-18T08:00:02Z</time>
      </trkpt>
      <trkpt lat="44.06681" lon="6.15581">
        <ele>723</ele>
        <time>2020-10-18T08:00:03Z</time>
      </trkpt>
      <trkpt lat="44.06684" lon="6.15582">
        <ele>723</ele>
        <time>2020-10-18T08:00:04Z</time>
      </trkpt>
      <trkpt lat="44.06686" lon="6.15584">
        <ele>723.2</ele>
        <time>2020-10-18T08:00:05Z</time>
      </trkpt>
      <trkpt lat="44.06688" lon="6.15585">
        <ele>723.2</ele>
        <time>2020-10-18T08:00:06Z</time>
      </trkpt>
      <trkpt lat="44.06691" lon="6.15587">
        <ele>723.6</ele>
        <time>2020-10-18T08:00:07Z</time>
      </trkpt>
      <trkpt lat="44.06693" lon="6.15588">
        <ele>724</ele>
        <time>2020-10-18T08:00:08Z</time>
      </trkpt>
      <trkpt lat="44.06695" lon="6.15589">
        <ele>724</ele>
        <time>2020-10-18T08:00:09Z</time>
      </trkpt>
      <trkpt lat="44.06697" lon="6.1559">
        <ele>724</ele>
        <time>2020-10-18T08:00:10Z</time>
      </trkpt>
      <trkpt lat="44.06699" lon="6.15592">
        <ele>724.2</ele>
        <time>2020-10-18T08:00:11Z</time>
      </trkpt>
      <trkpt lat="44.06702" lon="6.15593">
        <ele>724.4</ele>
        <time>2020-10-18T08:00:12Z</time>
      </trkpt>
      <trkpt lat="44.06704" lon="6.15594">
        <ele>724.4</ele>
        <time>2020-10-18T08:00:13Z</time>
      </trkpt>
      <trkpt lat="44.06707" lon="6.15595">
        <ele>724.6</ele>
        <time>2020-10-18T08:00:14Z</time>
      </trkpt>
      <trkpt lat="44.06709" lon="6.15596">
        <ele>724.6</ele>
        <time>2020-10-18T08:00:15Z</time>
      </trkpt>
      <trkpt lat="44.06711" lon="6.15596">
        <ele>724.8</ele>
        <time>2020-10-18T08:00:16Z</time>
      </trkpt>
      <trkpt lat="44.06713" lon="6.15597">
        <ele>724.8</ele>
        <time>2020-10-18T08:00:17Z</time>
      </trkpt>
      <trkpt lat="44.06715" lon="6.15598">
        <ele>724.8</ele>
        <time>2020-10-18T08:00:18Z</time>
      </trkpt>
      <trkpt lat="44.06718" lon="6.15601">
        <ele>724.8</ele>
        <time>2020-10-18T08:00:19Z</time>
      </trkpt>
      <trkpt lat="44.0672" lon="6.15603">
        <ele>724.8</ele>
        <time>2020-10-18T08:00:20Z</time>
      </trkpt>
      <trkpt lat="44.06722" lon="6.15604">
        <ele>725</ele>
        <time>2020-10-18T08:00:21Z</time>
      </trkpt>
      <trkpt lat="44.06725" lon="6.15606">
        <ele>725</ele>
        <time>2020-10-18T08:00:22Z</time>
      </trkpt>
      <trkpt lat="44.06728" lon="6.15607">
        <ele>725.2</ele>
        <time>2020-10-18T08:00:23Z</time>
      </trkpt>
      <trkpt lat="44.0673" lon="6.15607">
        <ele>725.2</ele>
        <time>2020-10-18T08:00:24Z</time>
      </trkpt>
      <trkpt lat="44.06733" lon="6.15608">
        <ele>725.8</ele>
        <time>2020-10-18T08:00:25Z</time>
      </trkpt>
      <trkpt lat="44.06735" lon="6.1561">
        <ele>726</ele>
        <time>2020-10-18T08:00:26Z</time>
      </trkpt>
      <trkpt lat="44.06737" lon="6.15611">
        <ele>726.2</ele>
        <time>2020-10-18T08:00:27Z</time>
      </trkpt>
      <trkpt lat="44.0674" lon="6.15613">
        <ele>726.2</ele>
        <time>2020-10-18T08:00:28Z</time>
      </trkpt>
      <trkpt lat="44.06742" lon="6.15615">
        <ele>726.4</ele>
        <time>2020-10-18T08:00:29Z</time>
      </trkpt>
      <trkpt lat="44.06745" lon="6.15616">
        <ele>726.4</ele>
        <time>2020-10-18T08:00:30Z</time>
      </trkpt>
      <trkpt lat="44.06748" lon="6.15617">
        <ele>726.6</ele>
        <time>2020-10-18T08:00:31Z</time>
      </trkpt>
      <trkpt lat="44.06751" lon="6.15619">
        <ele>726.6</ele>
        <time>2020-10-18T08:00:32Z</time>
      </trkpt>
      <trkpt lat="44.06754" lon="6.1562">
        <ele>726.6</ele>
        <time>2020-10-18T08:00:33Z</time>
      </trkpt>
      <trkpt lat="44.06757" lon="6.15621">
        <ele>726.8</ele>
        <time>2020-10-18T08:00:34Z</time>
      </trkpt>
      <trkpt lat="44.06761" lon="6.15623">
        <ele>727</ele>
        <time>2020-10-18T08:00:35Z</time>
      </trkpt>
      <trkpt lat="44.06764" lon="6.15624">
        <ele>727</ele>
        <time>2020-10-18T08:00:36Z</time>
      </trkpt>
      <trkpt lat="44.06768" lon="6.15625">
        <ele>727</ele>
        <time>2020-10-18T08:00:37Z</time>
      </trkpt>
      <trkpt lat="44.06771" lon="6.15625">
        <ele>727</ele>
        <time>2020-10-18T08:00:38Z</time>
      </trkpt>
      <trkpt lat="44.06778" lon="6.15625">
        <ele>727</ele>
        <time>2020-10-18T08:00:40Z</time>
      </trkpt>
      <trkpt lat="44.06781" lon="6.15625">
        <ele>727</ele>
        <time>2020-10-18T08:00:41Z</time>
      </trkpt>
      <trkpt lat="44.06784" lon="6.15625">
        <ele>727</ele>
        <time>2020-10-18T08:00:42Z</time>
      </trkpt>
      <trkpt lat="44.06792" lon="6.15623">
        <ele>727</ele>
        <time>2020-10-18T08:00:44Z</time>
      </trkpt>
      <trkpt lat="44.06795" lon="6.15622">
        <ele>727</ele>
        <time>2020-10-18T08:00:45Z</time>
      </trkpt>
      <trkpt lat="44.06799" lon="6.15621">
        <ele>727</ele>
        <time>2020-10-18T08:00:46Z</time>
      </trkpt>
      <trkpt lat="44.06805" lon="6.15619">
        <ele>726.8</ele>
        <time>2020-10-18T08:00:48Z</time>
      </trkpt>
      <trkpt lat="44.06809" lon="6.15619">
        <ele>727</ele>
        <time>2020-10-18T08:00:49Z</time>
      </trkpt>
      <trkpt lat="44.06813" lon="6.15619">
        <ele>727</ele>
        <time>2020-10-18T08:00:50Z</time>
      </trkpt>
      <trkpt lat="44.06816" lon="6.1562">
        <ele>727</ele>
        <time>2020-10-18T08:00:51Z</time>
      </trkpt>
      <trkpt lat="44.06819" lon="6.15623">
        <ele>727</ele>
        <time>2020-10-18T08:00:52Z</time>
      </trkpt>
      <trkpt lat="44.06822" lon="6.15626">
        <ele>727.2</ele>
        <time>2020-10-18T08:00:53Z</time>
      </trkpt>
      <trkpt lat="44.06825" lon="6.1563">
        <ele>727</ele>
        <time>2020-10-18T08:00:54Z</time>
      </trkpt>
      <trkpt lat="44.06829" lon="6.15636">
        <ele>727</ele>
        <time>2020-10-18T08:00:55Z</time>
      </trkpt>
      <trkpt lat="44.06831" lon="6.15642">
        <ele>727</ele>
        <time>2020-10-18T08:00:56Z</time>
      </trkpt>
      <trkpt lat="44.06834" lon="6.15649">
        <ele>727.2</ele>
        <time>2020-10-18T08:00:57Z</time>
      </trkpt>
      <trkpt lat="44.06837" lon="6.15655">
        <ele>727</ele>
        <time>2020-10-18T08:00:58Z</time>
      </trkpt>
      <trkpt lat="44.06839" lon="6.15661">
        <ele>727.2</ele>
        <time>2020-10-18T08:00:59Z</time>
      </trkpt>
      <trkpt lat="44.06841" lon="6.15667">
        <ele>727</ele>
        <time>2020-10-18T08:01:00Z</time>
      </trkpt>
      <trkpt lat="44.06844" lon="6.15672">
        <ele>727</ele>
        <time>2020-10-18T08:01:01Z</time>
      </trkpt>
      <trkpt lat="44.06847" lon="6.15677">
        <ele>727</ele>
        <time>2020-10-18T08:01:02Z</time>
      </trkpt>
      <trkpt lat="44.06849" lon="6.15682">
        <ele>726.8</ele>
        <time>2020-10-18T08:01:03Z</time>
      </trkpt>
      <trkpt lat="44.06853" lon="6.15686">
        <ele>726.8</ele>
        <time>2020-10-18T08:01:04Z</time>
      </trkpt>
      <trkpt lat="44.06858" lon="6.15696">
        <ele>726.6</ele>
        <time>2020-10-18T08:01:06Z</time>
      </trkpt>
      <trkpt lat="44.06864" lon="6.15705">
        <ele>726.4</ele>
        <time>2020-10-18T08:01:08Z</time>
      </trkpt>
      <trkpt lat="44.06868" lon="6.1571">
        <ele>726.4</ele>
        <time>2020-10-18T08:01:09Z</time>
      </trkpt>
      <trkpt lat="44.06872" lon="6.15716">
        <ele>726.4</ele>
        <time>2020-10-18T08:01:10Z</time>
      </trkpt>
      <trkpt lat="44.0688" lon="6.1573">
        <ele>726.4</ele>
        <time>2020-10-18T08:01:12Z</time>
      </trkpt>
      <trkpt lat="44.06885" lon="6.15738">
        <ele>726.4</ele>
        <time>2020-10-18T08:01:13Z</time>
      </trkpt>
      <trkpt lat="44.06889" lon="6.15746">
        <ele>726.4</ele>
        <time>2020-10-18T08:01:14Z</time>
      </trkpt>
      <trkpt lat="44.06899" lon="6.15761">
        <ele>726.2</ele>
        <time>2020-10-18T08:01:16Z</time>
      </trkpt>
      <trkpt lat="44.06902" lon="6.15766">
        <ele>726.2</ele>
        <time>2020-10-18T08:01:17Z</time>
      </trkpt>
      <trkpt lat="44.06905" lon="6.15771">
        <ele>725.8</ele>
        <time>2020-10-18T08:01:18Z</time>
      </trkpt>
      <trkpt lat="44.06905" lon="6.15776">
        <ele>725</ele>
        <time>2020-10-18T08:01:19Z</time>
      </trkpt>
      <trkpt lat="44.06905" lon="6.15781">
        <ele>724.4</ele>
        <time>2020-10-18T08:01:20Z</time>
      </trkpt>
      <trkpt lat="44.06906" lon="6.15786">
        <ele>723.8</ele>
        <time>2020-10-18T08:01:21Z</time>
      </trkpt>
      <trkpt lat="44.06908" lon="6.1579">
        <ele>723</ele>
        <time>2020-10-18T08:01:22Z</time>
      </trkpt>
      <trkpt lat="44.06911" lon="6.15792">
        <ele>722.6</ele>
        <time>2020-10-18T08:01:23Z</time>
      </trkpt>
      <trkpt lat="44.06914" lon="6.15793">
        <ele>722.2</ele>
        <time>2020-10-18T08:01:24Z</time>
      </trkpt>
      <trkpt lat="44.06917" lon="6.15792">
        <ele>722.2</ele>
        <time>2020-10-18T08:01:25Z</time>
      </trkpt>
      <trkpt lat="44.06919" lon="6.15791">
        <ele>722.2</ele>
        <time>2020-10-18T08:01:26Z</time>
      </trkpt>
      <trkpt lat="44.06922" lon="6.1579">
        <ele>722</ele>
        <time>2020-10-18T08:01:27Z</time>
      </trkpt>
      <trkpt lat="44.06923" lon="6.1579">
        <ele>721.8</ele>
        <time>2020-10-18T08:01:28Z</time>
      </trkpt>
      <trkpt lat="44.06925" lon="6.1579">
        <ele>721.6</ele>
        <time>2020-10-18T08:01:29Z</time>
      </trkpt>
      <trkpt lat="44.06927" lon="6.1579">
        <ele>721.6</ele>
        <time>2020-10-18T08:01:30Z</time>
      </trkpt>
      <trkpt lat="44.06929" lon="6.1579">
        <ele>721.6</ele>
        <time>2020-10-18T08:01:31Z</time>
      </trkpt>
      <trkpt lat="44.06932" lon="6.1579">
        <ele>721.4</ele>
        <time>2020-10-18T08:01:32Z</time>
      </trkpt>
      <trkpt lat="44.06938" lon="6.1579">
        <ele>720.6</ele>
        <time>2020-10-18T08:01:34Z</time>
      </trkpt>
      <trkpt lat="44.06942" lon="6.1579">
        <ele>720.4</ele>
        <time>2020-10-18T08:01:35Z</time>
      </trkpt>
      <trkpt lat="44.06946" lon="6.1579">
        <ele>720</ele>
        <time>2020-10-18T08:01:36Z</time>
      </trkpt>
      <trkpt lat="44.06951" lon="6.15789">
        <ele>719.8</ele>
        <time>2020-10-18T08:01:37Z</time>
      </trkpt>
      <trkpt lat="44.06956" lon="6.15789">
        <ele>719.8</ele>
        <time>2020-10-18T08:01:38Z</time>
      </trkpt>
      <trkpt lat="44.06968" lon="6.15792">
        <ele>719.4</ele>
        <time>2020-10-18T08:01:40Z</time>
      </trkpt>
      <trkpt lat="44.06975" lon="6.15793">
        <ele>719.2</ele>
        <time>2020-10-18T08:01:41Z</time>
      </trkpt>
      <trkpt lat="44.06981" lon="6.15792">
        <ele>719</ele>
        <time>2020-10-18T08:01:42Z</time>
      </trkpt>
      <trkpt lat="44.06988" lon="6.1579">
        <ele>718.6</ele>
        <time>2020-10-18T08:01:43Z</time>
      </trkpt>
      <trkpt lat="44.06995" lon="6.15787">
        <ele>718.2</ele>
        <time>2020-10-18T08:01:44Z</time>
      </trkpt>
      <trkpt lat="44.07002" lon="6.15783">
        <ele>717.4</ele>
        <time>2020-10-18T08:01:45Z</time>
      </trkpt>
      <trkpt lat="44.07009" lon="6.15779">
        <ele>716</ele>
        <time>2020-10-18T08:01:46Z</time>
      </trkpt>
      <trkpt lat="44.07017" lon="6.15776">
        <ele>715.2</ele>
        <time>2020-10-18T08:01:47Z</time>
      </trkpt>
      <trkpt lat="44.07024" lon="6.15772">
        <ele>714.4</ele>
        <time>2020-10-18T08:01:48Z</time>
      </trkpt>
      <trkpt lat="44.07032" lon="6.15769">
        <ele>714</ele>
        <time>2020-10-18T08:01:49Z</time>
      </trkpt>
      <trkpt lat="44.0704" lon="6.15766">
        <ele>714</ele>
        <time>2020-10-18T08:01:50Z</time>
      </trkpt>
      <trkpt lat="44.07053" lon="6.15759">
        <ele>712.4</ele>
        <time>2020-10-18T08:01:52Z</time>
      </trkpt>
      <trkpt lat="44.07059" lon="6.15756">
        <ele>711.8</ele>
        <time>2020-10-18T08:01:53Z</time>
      </trkpt>
      <trkpt lat="44.07064" lon="6.15755">
        <ele>710.8</ele>
        <time>2020-10-18T08:01:54Z</time>
      </trkpt>
      <trkpt lat="44.07071" lon="6.15756">
        <ele>710.2</ele>
        <time>2020-10-18T08:01:55Z</time>
      </trkpt>
      <trkpt lat="44.07077" lon="6.15758">
        <ele>709.6</ele>
        <time>2020-10-18T08:01:56Z</time>
      </trkpt>
      <trkpt lat="44.07083" lon="6.15762">
        <ele>709</ele>
        <time>2020-10-18T08:01:57Z</time>
      </trkpt>
      <trkpt lat="44.07089" lon="6.15767">
        <ele>708.4</ele>
        <time>2020-10-18T08:01:58Z</time>
      </trkpt>
      <trkpt lat="44.07095" lon="6.15773">
        <ele>708.4</ele>
        <time>2020-10-18T08:01:59Z</time>
      </trkpt>
      <trkpt lat="44.071" lon="6.1578">
        <ele>708.2</ele>
        <time>2020-10-18T08:02:00Z</time>
      </trkpt>
      <trkpt lat="44.07105" lon="6.15789">
        <ele>707.8</ele>
        <time>2020-10-18T08:02:01Z</time>
      </trkpt>
      <trkpt lat="44.0711" lon="6.15799">
        <ele>707.4</ele>
        <time>2020-10-18T08:02:02Z</time>
      </trkpt>
      <trkpt lat="44.07114" lon="6.15809">
        <ele>707</ele>
        <time>2020-10-18T08:02:03Z</time>
      </trkpt>
      <trkpt lat="44.07115" lon="6.15818">
        <ele>706.4</ele>
        <time>2020-10-18T08:02:04Z</time>
      </trkpt>
      <trkpt lat="44.07112" lon="6.1583">
        <ele>704.8</ele>
        <time>2020-10-18T08:02:05Z</time>
      </trkpt>
      <trkpt lat="44.07109" lon="6.1584">
        <ele>703.8</ele>
        <time>2020-10-18T08:02:06Z</time>
      </trkpt>
      <trkpt lat="44.07106" lon="6.15851">
        <ele>702.4</ele>
        <time>2020-10-18T08:02:07Z</time>
      </trkpt>
      <trkpt lat="44.07101" lon="6.1586">
        <ele>701.2</ele>
        <time>2020-10-18T08:02:08Z</time>
      </trkpt>
      <trkpt lat="44.07095" lon="6.15869">
        <ele>700</ele>
        <time>2020-10-18T08:02:09Z</time>
      </trkpt>
      <trkpt lat="44.0709" lon="6.15878">
        <ele>699.6</ele>
        <time>2020-10-18T08:02:10Z</time>
      </trkpt>
      <trkpt lat="44.07079" lon="6.159">
        <ele>699</ele>
        <time>2020-10-18T08:02:12Z</time>
      </trkpt>
      <trkpt lat="44.07075" lon="6.15912">
        <ele>698.4</ele>
        <time>2020-10-18T08:02:13Z</time>
      </trkpt>
      <trkpt lat="44.07072" lon="6.15924">
        <ele>697.8</ele>
        <time>2020-10-18T08:02:14Z</time>
      </trkpt>
      <trkpt lat="44.0707" lon="6.15937">
        <ele>697.4</ele>
        <time>2020-10-18T08:02:15Z</time>
      </trkpt>
      <trkpt lat="44.07069" lon="6.15951">
        <ele>696.6</ele>
        <time>2020-10-18T08:02:16Z</time>
      </trkpt>
      <trkpt lat="44.0707" lon="6.15964">
        <ele>696.2</ele>
        <time>2020-10-18T08:02:17Z</time>
      </trkpt>
      <trkpt lat="44.07071" lon="6.15976">
        <ele>695.2</ele>
        <time>2020-10-18T08:02:18Z</time>
      </trkpt>
      <trkpt lat="44.07073" lon="6.15988">
        <ele>694.6</ele>
        <time>2020-10-18T08:02:19Z</time>
      </trkpt>
      <trkpt lat="44.07075" lon="6.16">
        <ele>693.6</ele>
        <time>2020-10-18T08:02:20Z</time>
      </trkpt>
      <trkpt lat="44.07076" lon="6.16012">
        <ele>692.8</ele>
        <time>2020-10-18T08:02:21Z</time>
      </trkpt>
      <trkpt lat="44.07077" lon="6.16024">
        <ele>692.2</ele>
        <time>2020-10-18T08:02:22Z</time>
      </trkpt>
      <trkpt lat="44.07077" lon="6.16047">
        <ele>691.2</ele>
        <time>2020-10-18T08:02:24Z</time>
      </trkpt>
      <trkpt lat="44.07076" lon="6.1607">
        <ele>690.8</ele>
        <time>2020-10-18T08:02:26Z</time>
      </trkpt>
      <trkpt lat="44.07075" lon="6.16082">
        <ele>690.8</ele>
        <time>2020-10-18T08:02:27Z</time>
      </trkpt>
      <trkpt lat="44.07076" lon="6.16093">
        <ele>690.4</ele>
        <time>2020-10-18T08:02:28Z</time>
      </trkpt>
      <trkpt lat="44.07079" lon="6.16105">
        <ele>690.2</ele>
        <time>2020-10-18T08:02:29Z</time>
      </trkpt>
      <trkpt lat="44.07082" lon="6.16117">
        <ele>689.8</ele>
        <time>2020-10-18T08:02:30Z</time>
      </trkpt>
      <trkpt lat="44.0709" lon="6.16142">
        <ele>689.2</ele>
        <time>2020-10-18T08:02:32Z</time>
      </trkpt>
      <trkpt lat="44.07093" lon="6.16156">
        <ele>688.4</ele>
        <time>2020-10-18T08:02:33Z</time>
      </trkpt>
      <trkpt lat="44.07096" lon="6.1617">
        <ele>687.6</ele>
        <time>2020-10-18T08:02:34Z</time>
      </trkpt>
      <trkpt lat="44.07098" lon="6.16185">
        <ele>687</ele>
        <time>2020-10-18T08:02:35Z</time>
      </trkpt>
      <trkpt lat="44.07101" lon="6.16199">
        <ele>685.8</ele>
        <time>2020-10-18T08:02:36Z</time>
      </trkpt>
      <trkpt lat="44.07103" lon="6.16213">
        <ele>684.8</ele>
        <time>2020-10-18T08:02:37Z</time>
      </trkpt>
      <trkpt lat="44.07104" lon="6.16227">
        <ele>683.2</ele>
        <time>2020-10-18T08:02:38Z</time>
      </trkpt>
      <trkpt lat="44.07104" lon="6.16239">
        <ele>681.4</ele>
        <time>2020-10-18T08:02:39Z</time>
      </trkpt>
      <trkpt lat="44.07103" lon="6.1625">
        <ele>679.8</ele>
        <time>2020-10-18T08:02:40Z</time>
      </trkpt>
      <trkpt lat="44.07099" lon="6.1626">
        <ele>678.2</ele>
        <time>2020-10-18T08:02:41Z</time>
      </trkpt>
      <trkpt lat="44.07093" lon="6.16268">
        <ele>676.4</ele>
        <time>2020-10-18T08:02:42Z</time>
      </trkpt>
      <trkpt lat="44.07088" lon="6.16278">
        <ele>674.6</ele>
        <time>2020-10-18T08:02:43Z</time>
      </trkpt>
      <trkpt lat="44.07085" lon="6.1629">
        <ele>673</ele>
        <time>2020-10-18T08:02:44Z</time>
      </trkpt>
      <trkpt lat="44.07083" lon="6.16302">
        <ele>671.8</ele>
        <time>2020-10-18T08:02:45Z</time>
      </trkpt>
      <trkpt lat="44.07082" lon="6.16316">
        <ele>670.4</ele>
        <time>2020-10-18T08:02:46Z</time>
      </trkpt>
      <trkpt lat="44.07081" lon="6.16329">
        <ele>669.6</ele>
        <time>2020-10-18T08:02:47Z</time>
      </trkpt>
      <trkpt lat="44.0708" lon="6.16343">
        <ele>668.2</ele>
        <time>2020-10-18T08:02:48Z</time>
      </trkpt>
      <trkpt lat="44.0708" lon="6.16356">
        <ele>667.4</ele>
        <time>2020-10-18T08:02:49Z</time>
      </trkpt>
      <trkpt lat="44.0708" lon="6.1637">
        <ele>666.2</ele>
        <time>2020-10-18T08:02:50Z</time>
      </trkpt>
      <trkpt lat="44.07082" lon="6.16382">
        <ele>665.2</ele>
        <time>2020-10-18T08:02:51Z</time>
      </trkpt>
      <trkpt lat="44.07085" lon="6.16392">
        <ele>665.2</ele>
        <time>2020-10-18T08:02:52Z</time>
      </trkpt>
      <trkpt lat="44.07088" lon="6.16402">
        <ele>663.8</ele>
        <time>2020-10-18T08:02:53Z</time>
      </trkpt>
      <trkpt lat="44.07091" lon="6.16411">
        <ele>662.2</ele>
        <time>2020-10-18T08:02:54Z</time>
      </trkpt>
      <trkpt lat="44.07092" lon="6.16418">
        <ele>660.8</ele>
        <time>2020-10-18T08:02:55Z</time>
      </trkpt>
      <trkpt lat="44.07089" lon="6.16424">
        <ele>658.8</ele>
        <time>2020-10-18T08:02:56Z</time>
      </trkpt>
      <trkpt lat="44.07085" lon="6.16428">
        <ele>657.6</ele>
        <time>2020-10-18T08:02:57Z</time>
      </trkpt>
      <trkpt lat="44.0708" lon="6.16433">
        <ele>656.2</ele>
        <time>2020-10-18T08:02:58Z</time>
      </trkpt>
      <trkpt lat="44.07075" lon="6.16438">
        <ele>655</ele>
        <time>2020-10-18T08:02:59Z</time>
      </trkpt>
      <trkpt lat="44.07071" lon="6.16445">
        <ele>653.6</ele>
        <time>2020-10-18T08:03:00Z</time>
      </trkpt>
      <trkpt lat="44.07069" lon="6.16454">
        <ele>652.2</ele>
        <time>2020-10-18T08:03:01Z</time>
      </trkpt>
      <trkpt lat="44.07068" lon="6.16463">
        <ele>651</ele>
        <time>2020-10-18T08:03:02Z</time>
      </trkpt>
      <trkpt lat="44.07068" lon="6.16475">
        <ele>650.2</ele>
        <time>2020-10-18T08:03:03Z</time>
      </trkpt>
      <trkpt lat="44.07068" lon="6.16488">
        <ele>649.4</ele>
        <time>2020-10-18T08:03:04Z</time>
      </trkpt>
      <trkpt lat="44.07069" lon="6.16501">
        <ele>648.4</ele>
        <time>2020-10-18T08:03:05Z</time>
      </trkpt>
      <trkpt lat="44.07069" lon="6.16514">
        <ele>647.2</ele>
        <time>2020-10-18T08:03:06Z</time>
      </trkpt>
      <trkpt lat="44.07069" lon="6.16526">
        <ele>645.8</ele>
        <time>2020-10-18T08:03:07Z</time>
      </trkpt>
      <trkpt lat="44.07068" lon="6.16538">
        <ele>644.6</ele>
        <time>2020-10-18T08:03:08Z</time>
      </trkpt>
      <trkpt lat="44.07067" lon="6.1655">
        <ele>642.8</ele>
        <time>2020-10-18T08:03:09Z</time>
      </trkpt>
      <trkpt lat="44.07065" lon="6.1656">
        <ele>641.4</ele>
        <time>2020-10-18T08:03:10Z</time>
      </trkpt>
      <trkpt lat="44.07063" lon="6.16572">
        <ele>639.2</ele>
        <time>2020-10-18T08:03:11Z</time>
      </trkpt>
      <trkpt lat="44.07062" lon="6.16584">
        <ele>637</ele>
        <time>2020-10-18T08:03:12Z</time>
      </trkpt>
      <trkpt lat="44.0706" lon="6.16595">
        <ele>637</ele>
        <time>2020-10-18T08:03:13Z</time>
      </trkpt>
      <trkpt lat="44.07059" lon="6.16606">
        <ele>635.2</ele>
        <time>2020-10-18T08:03:14Z</time>
      </trkpt>
      <trkpt lat="44.07059" lon="6.16615">
        <ele>633.2</ele>
        <time>2020-10-18T08:03:15Z</time>
      </trkpt>
      <trkpt lat="44.07058" lon="6.16622">
        <ele>631.4</ele>
        <time>2020-10-18T08:03:16Z</time>
      </trkpt>
      <trkpt lat="44.07058" lon="6.16626">
        <ele>629.6</ele>
        <time>2020-10-18T08:03:17Z</time>
      </trkpt>
      <trkpt lat="44.07059" lon="6.16629">
        <ele>628</ele>
        <time>2020-10-18T08:03:18Z</time>
      </trkpt>
      <trkpt lat="44.07058" lon="6.16632">
        <ele>626.2</ele>
        <time>2020-10-18T08:03:19Z</time>
      </trkpt>
      <trkpt lat="44.07057" lon="6.16635">
        <ele>624.2</ele>
        <time>2020-10-18T08:03:20Z</time>
      </trkpt>
      <trkpt lat="44.07056" lon="6.16638">
        <ele>622.6</ele>
        <time>2020-10-18T08:03:21Z</time>
      </trkpt>
      <trkpt lat="44.07057" lon="6.1664">
        <ele>620.6</ele>
        <time>2020-10-18T08:03:22Z</time>
      </trkpt>
      <trkpt lat="44.07057" lon="6.16641">
        <ele>619.2</ele>
        <time>2020-10-18T08:03:23Z</time>
      </trkpt>
      <trkpt lat="44.07058" lon="6.1664">
        <ele>618.6</ele>
        <time>2020-10-18T08:03:24Z</time>
      </trkpt>
      <trkpt lat="44.07059" lon="6.1664">
        <ele>618</ele>
        <time>2020-10-18T08:03:25Z</time>
      </trkpt>
      <trkpt lat="44.0706" lon="6.16639">
        <ele>617.6</ele>
        <time>2020-10-18T08:03:26Z</time>
      </trkpt>
      <trkpt lat="44.07061" lon="6.16638">
        <ele>617.2</ele>
        <time>2020-10-18T08:03:27Z</time>
      </trkpt>
      <trkpt lat="44.07063" lon="6.16637">
        <ele>616.8</ele>
        <time>2020-10-18T08:03:28Z</time>
      </trkpt>
      <trkpt lat="44.07066" lon="6.16637">
        <ele>616.4</ele>
        <time>2020-10-18T08:03:30Z</time>
      </trkpt>
      <trkpt lat="44.07069" lon="6.16637">
        <ele>616.4</ele>
        <time>2020-10-18T08:03:31Z</time>
      </trkpt>
      <trkpt lat="44.07071" lon="6.16638">
        <ele>616.4</ele>
        <time>2020-10-18T08:03:32Z</time>
      </trkpt>
      <trkpt lat="44.07075" lon="6.16638">
        <ele>616.4</ele>
        <time>2020-10-18T08:03:33Z</time>
      </trkpt>
      <trkpt lat="44.07077" lon="6.1664">
        <ele>616.4</ele>
        <time>2020-10-18T08:03:34Z</time>
      </trkpt>
      <trkpt lat="44.07084" lon="6.16645">
        <ele>616.2</ele>
        <time>2020-10-18T08:03:36Z</time>
      </trkpt>
      <trkpt lat="44.07091" lon="6.16651">
        <ele>616.2</ele>
        <time>2020-10-18T08:03:38Z</time>
      </trkpt>
      <trkpt lat="44.07095" lon="6.16654">
        <ele>616.2</ele>
        <time>2020-10-18T08:03:39Z</time>
      </trkpt>
      <trkpt lat="44.07098" lon="6.16658">
        <ele>616.2</ele>
        <time>2020-10-18T08:03:40Z</time>
      </trkpt>
      <trkpt lat="44.07106" lon="6.16666">
        <ele>616</ele>
        <time>2020-10-18T08:03:42Z</time>
      </trkpt>
      <trkpt lat="44.07113" lon="6.16675">
        <ele>615.6</ele>
        <time>2020-10-18T08:03:44Z</time>
      </trkpt>
      <trkpt lat="44.07117" lon="6.16679">
        <ele>615.2</ele>
        <time>2020-10-18T08:03:45Z</time>
      </trkpt>
      <trkpt lat="44.0712" lon="6.16683">
        <ele>614.6</ele>
        <time>2020-10-18T08:03:46Z</time>
      </trkpt>
      <trkpt lat="44.07124" lon="6.16686">
        <ele>614.2</ele>
        <time>2020-10-18T08:03:47Z</time>
      </trkpt>
      <trkpt lat="44.07127" lon="6.16688">
        <ele>614.2</ele>
        <time>2020-10-18T08:03:48Z</time>
      </trkpt>
      <trkpt lat="44.0713" lon="6.16689">
        <ele>614</ele>
        <time>2020-10-18T08:03:49Z</time>
      </trkpt>
      <trkpt lat="44.07133" lon="6.1669">
        <ele>614</ele>
        <time>2020-10-18T08:03:50Z</time>
      </trkpt>
      <trkpt lat="44.07136" lon="6.1669">
        <ele>613.8</ele>
        <time>2020-10-18T08:03:51Z</time>
      </trkpt>
      <trkpt lat="44.07139" lon="6.1669">
        <ele>614</ele>
        <time>2020-10-18T08:03:52Z</time>
      </trkpt>
      <trkpt lat="44.07141" lon="6.1669">
        <ele>613.8</ele>
        <time>2020-10-18T08:03:53Z</time>
      </trkpt>
      <trkpt lat="44.07142" lon="6.16692">
        <ele>613.8</ele>
        <time>2020-10-18T08:03:54Z</time>
      </trkpt>
      <trkpt lat="44.07143" lon="6.16694">
        <ele>613.8</ele>
        <time>2020-10-18T08:03:55Z</time>
      </trkpt>
      <trkpt lat="44.07145" lon="6.16696">
        <ele>613.8</ele>
        <time>2020-10-18T08:03:56Z</time>
      </trkpt>
      <trkpt lat="44.07148" lon="6.167">
        <ele>613.6</ele>
        <time>2020-10-18T08:03:58Z</time>
      </trkpt>
      <trkpt lat="44.07152" lon="6.16706">
        <ele>613.8</ele>
        <time>2020-10-18T08:04:00Z</time>
      </trkpt>
      <trkpt lat="44.07154" lon="6.1671">
        <ele>613.6</ele>
        <time>2020-10-18T08:04:01Z</time>
      </trkpt>
      <trkpt lat="44.07155" lon="6.16716">
        <ele>613.6</ele>
        <time>2020-10-18T08:04:02Z</time>
      </trkpt>
      <trkpt lat="44.07158" lon="6.16726">
        <ele>613.6</ele>
        <time>2020-10-18T08:04:04Z</time>
      </trkpt>
      <trkpt lat="44.07159" lon="6.16731">
        <ele>613.6</ele>
        <time>2020-10-18T08:04:05Z</time>
      </trkpt>
      <trkpt lat="44.0716" lon="6.16736">
        <ele>613.6</ele>
        <time>2020-10-18T08:04:06Z</time>
      </trkpt>
      <trkpt lat="44.07162" lon="6.16747">
        <ele>613.6</ele>
        <time>2020-10-18T08:04:08Z</time>
      </trkpt>
      <trkpt lat="44.07164" lon="6.16753">
        <ele>613.4</ele>
        <time>2020-10-18T08:04:09Z</time>
      </trkpt>
      <trkpt lat="44.07167" lon="6.16759">
        <ele>612.8</ele>
        <time>2020-10-18T08:04:10Z</time>
      </trkpt>
      <trkpt lat="44.0717" lon="6.16764">
        <ele>612</ele>
        <time>2020-10-18T08:04:11Z</time>
      </trkpt>
      <trkpt lat="44.07174" lon="6.16768">
        <ele>611.2</ele>
        <time>2020-10-18T08:04:12Z</time>
      </trkpt>
      <trkpt lat="44.07178" lon="6.16771">
        <ele>611</ele>
        <time>2020-10-18T08:04:13Z</time>
      </trkpt>
      <trkpt lat="44.07183" lon="6.16773">
        <ele>610.6</ele>
        <time>2020-10-18T08:04:14Z</time>
      </trkpt>
      <trkpt lat="44.07188" lon="6.16775">
        <ele>610.4</ele>
        <time>2020-10-18T08:04:15Z</time>
      </trkpt>
      <trkpt lat="44.07192" lon="6.16777">
        <ele>610</ele>
        <time>2020-10-18T08:04:16Z</time>
      </trkpt>
      <trkpt lat="44.07203" lon="6.1678">
        <ele>608.4</ele>
        <time>2020-10-18T08:04:18Z</time>
      </trkpt>
      <trkpt lat="44.07208" lon="6.16782">
        <ele>607.6</ele>
        <time>2020-10-18T08:04:19Z</time>
      </trkpt>
      <trkpt lat="44.07213" lon="6.16784">
        <ele>606.6</ele>
        <time>2020-10-18T08:04:20Z</time>
      </trkpt>
      <trkpt lat="44.07217" lon="6.16786">
        <ele>605.8</ele>
        <time>2020-10-18T08:04:21Z</time>
      </trkpt>
      <trkpt lat="44.07222" lon="6.16787">
        <ele>604.8</ele>
        <time>2020-10-18T08:04:22Z</time>
      </trkpt>
      <trkpt lat="44.07226" lon="6.16789">
        <ele>604.4</ele>
        <time>2020-10-18T08:04:23Z</time>
      </trkpt>
      <trkpt lat="44.07231" lon="6.16791">
        <ele>604</ele>
        <time>2020-10-18T08:04:24Z</time>
      </trkpt>
      <trkpt lat="44.07236" lon="6.16793">
        <ele>604</ele>
        <time>2020-10-18T08:04:25Z</time>
      </trkpt>
      <trkpt lat="44.0724" lon="6.16795">
        <ele>603.6</ele>
        <time>2020-10-18T08:04:26Z</time>
      </trkpt>
      <trkpt lat="44.07244" lon="6.16797">
        <ele>603.6</ele>
        <time>2020-10-18T08:04:27Z</time>
      </trkpt>
      <trkpt lat="44.07249" lon="6.16799">
        <ele>603.4</ele>
        <time>2020-10-18T08:04:28Z</time>
      </trkpt>
      <trkpt lat="44.07253" lon="6.168">
        <ele>602.8</ele>
        <time>2020-10-18T08:04:29Z</time>
      </trkpt>
      <trkpt lat="44.07258" lon="6.16802">
        <ele>602.6</ele>
        <time>2020-10-18T08:04:30Z</time>
      </trkpt>
      <trkpt lat="44.07262" lon="6.16803">
        <ele>602.4</ele>
        <time>2020-10-18T08:04:31Z</time>
      </trkpt>
      <trkpt lat="44.07266" lon="6.16803">
        <ele>602.4</ele>
        <time>2020-10-18T08:04:32Z</time>
      </trkpt>
      <trkpt lat="44.0727" lon="6.16804">
        <ele>602.4</ele>
        <time>2020-10-18T08:04:33Z</time>
      </trkpt>
      <trkpt lat="44.07275" lon="6.16805">
        <ele>602.2</ele>
        <time>2020-10-18T08:04:34Z</time>
      </trkpt>
      <trkpt lat="44.07279" lon="6.16806">
        <ele>602.4</ele>
        <time>2020-10-18T08:04:35Z</time>
      </trkpt>
      <trkpt lat="44.07283" lon="6.16807">
        <ele>602.4</ele>
        <time>2020-10-18T08:04:36Z</time>
      </trkpt>
      <trkpt lat="44.07293" lon="6.16809">
        <ele>602.2</ele>
        <time>2020-10-18T08:04:38Z</time>
      </trkpt>
      <trkpt lat="44.07297" lon="6.1681">
        <ele>602.2</ele>
        <time>2020-10-18T08:04:39Z</time>
      </trkpt>
      <trkpt lat="44.07301" lon="6.16811">
        <ele>602.2</ele>
        <time>2020-10-18T08:04:40Z</time>
      </trkpt>
      <trkpt lat="44.07305" lon="6.16813">
        <ele>602</ele>
        <time>2020-10-18T08:04:41Z</time>
      </trkpt>
      <trkpt lat="44.07309" lon="6.16814">
        <ele>602</ele>
        <time>2020-10-18T08:04:42Z</time>
      </trkpt>
      <trkpt lat="44.07314" lon="6.16816">
        <ele>602</ele>
        <time>2020-10-18T08:04:43Z</time>
      </trkpt>
      <trkpt lat="44.07319" lon="6.16817">
        <ele>602</ele>
        <time>2020-10-18T08:04:44Z</time>
      </trkpt>
      <trkpt lat="44.07325" lon="6.16819">
        <ele>601.8</ele>
        <time>2020-10-18T08:04:45Z</time>
      </trkpt>
      <trkpt lat="44.07331" lon="6.16821">
        <ele>601.6</ele>
        <time>2020-10-18T08:04:46Z</time>
      </trkpt>
      <trkpt lat="44.07344" lon="6.16824">
        <ele>601.6</ele>
        <time>2020-10-18T08:04:48Z</time>
      </trkpt>
      <trkpt lat="44.0735" lon="6.16825">
        <ele>601.6</ele>
        <time>2020-10-18T08:04:49Z</time>
      </trkpt>
      <trkpt lat="44.07355" lon="6.16825">
        <ele>600.8</ele>
        <time>2020-10-18T08:04:50Z</time>
      </trkpt>
      <trkpt lat="44.07359" lon="6.16825">
        <ele>599.4</ele>
        <time>2020-10-18T08:04:51Z</time>
      </trkpt>
      <trkpt lat="44.07362" lon="6.16824">
        <ele>598.6</ele>
        <time>2020-10-18T08:04:52Z</time>
      </trkpt>
      <trkpt lat="44.07365" lon="6.16823">
        <ele>597.4</ele>
        <time>2020-10-18T08:04:53Z</time>
      </trkpt>
      <trkpt lat="44.07368" lon="6.16821">
        <ele>595.4</ele>
        <time>2020-10-18T08:04:54Z</time>
      </trkpt>
      <trkpt lat="44.07371" lon="6.16819">
        <ele>594</ele>
        <time>2020-10-18T08:04:55Z</time>
      </trkpt>
      <trkpt lat="44.07373" lon="6.16816">
        <ele>593.2</ele>
        <time>2020-10-18T08:04:56Z</time>
      </trkpt>
      <trkpt lat="44.07375" lon="6.16813">
        <ele>592.4</ele>
        <time>2020-10-18T08:04:57Z</time>
      </trkpt>
      <trkpt lat="44.07376" lon="6.1681">
        <ele>592</ele>
        <time>2020-10-18T08:04:58Z</time>
      </trkpt>
      <trkpt lat="44.07379" lon="6.16809">
        <ele>592</ele>
        <time>2020-10-18T08:04:59Z</time>
      </trkpt>
      <trkpt lat="44.07381" lon="6.16809">
        <ele>591.6</ele>
        <time>2020-10-18T08:05:00Z</time>
      </trkpt>
      <trkpt lat="44.07384" lon="6.16809">
        <ele>591.4</ele>
        <time>2020-10-18T08:05:01Z</time>
      </trkpt>
      <trkpt lat="44.07387" lon="6.16811">
        <ele>591.4</ele>
        <time>2020-10-18T08:05:02Z</time>
      </trkpt>
      <trkpt lat="44.07388" lon="6.16813">
        <ele>591</ele>
        <time>2020-10-18T08:05:03Z</time>
      </trkpt>
      <trkpt lat="44.07389" lon="6.16816">
        <ele>591</ele>
        <time>2020-10-18T08:05:04Z</time>
      </trkpt>
      <trkpt lat="44.0739" lon="6.16818">
        <ele>591</ele>
        <time>2020-10-18T08:05:05Z</time>
      </trkpt>
      <trkpt lat="44.0739" lon="6.16821">
        <ele>591</ele>
        <time>2020-10-18T08:05:06Z</time>
      </trkpt>
      <trkpt lat="44.0739" lon="6.16824">
        <ele>591</ele>
        <time>2020-10-18T08:05:07Z</time>
      </trkpt>
      <trkpt lat="44.07391" lon="6.16826">
        <ele>591</ele>
        <time>2020-10-18T08:05:08Z</time>
      </trkpt>
      <trkpt lat="44.07392" lon="6.16828">
        <ele>591</ele>
        <time>2020-10-18T08:05:09Z</time>
      </trkpt>
      <trkpt lat="44.07393" lon="6.1683">
        <ele>591</ele>
        <time>2020-10-18T08:05:10Z</time>
      </trkpt>
      <trkpt lat="44.07394" lon="6.16832">
        <ele>591</ele>
        <time>2020-10-18T08:05:11Z</time>
      </trkpt>
      <trkpt lat="44.07396" lon="6.16834">
        <ele>591</ele>
        <time>2020-10-18T08:05:12Z</time>
      </trkpt>
      <trkpt lat="44.07398" lon="6.16838">
        <ele>590.8</ele>
        <time>2020-10-18T08:05:14Z</time>
      </trkpt>
      <trkpt lat="44.07399" lon="6.1684">
        <ele>591</ele>
        <time>2020-10-18T08:05:15Z</time>
      </trkpt>
      <trkpt lat="44.074" lon="6.16842">
        <ele>590.8</ele>
        <time>2020-10-18T08:05:16Z</time>
      </trkpt>
      <trkpt lat="44.07402" lon="6.16844">
        <ele>591.2</ele>
        <time>2020-10-18T08:05:17Z</time>
      </trkpt>
      <trkpt lat="44.07403" lon="6.16845">
        <ele>591.2</ele>
        <time>2020-10-18T08:05:18Z</time>
      </trkpt>
      <trkpt lat="44.07404" lon="6.16847">
        <ele>591.2</ele>
        <time>2020-10-18T08:05:19Z</time>
      </trkpt>
      <trkpt lat="44.07405" lon="6.16848">
        <ele>591.6</ele>
        <time>2020-10-18T08:05:20Z</time>
      </trkpt>
      <trkpt lat="44.07407" lon="6.1685">
        <ele>591.8</ele>
        <time>2020-10-18T08:05:21Z</time>
      </trkpt>
      <trkpt lat="44.07408" lon="6.16852">
        <ele>592</ele>
        <time>2020-10-18T08:05:22Z</time>
      </trkpt>
      <trkpt lat="44.07411" lon="6.16856">
        <ele>592.4</ele>
        <time>2020-10-18T08:05:24Z</time>
      </trkpt>
      <trkpt lat="44.07412" lon="6.16857">
        <ele>592.4</ele>
        <time>2020-10-18T08:05:25Z</time>
      </trkpt>
      <trkpt lat="44.07413" lon="6.16859">
        <ele>592.6</ele>
        <time>2020-10-18T08:05:26Z</time>
      </trkpt>
      <trkpt lat="44.07414" lon="6.16861">
        <ele>592.8</ele>
        <time>2020-10-18T08:05:27Z</time>
      </trkpt>
      <trkpt lat="44.07415" lon="6.16863">
        <ele>593</ele>
        <time>2020-10-18T08:05:28Z</time>
      </trkpt>
      <trkpt lat="44.07416" lon="6.16864">
        <ele>593.2</ele>
        <time>2020-10-18T08:05:29Z</time>
      </trkpt>
      <trkpt lat="44.07417" lon="6.16866">
        <ele>593.4</ele>
        <time>2020-10-18T08:05:30Z</time>
      </trkpt>
      <trkpt lat="44.07418" lon="6.16868">
        <ele>593.6</ele>
        <time>2020-10-18T08:05:31Z</time>
      </trkpt>
      <trkpt lat="44.07419" lon="6.1687">
        <ele>593.8</ele>
        <time>2020-10-18T08:05:32Z</time>
      </trkpt>
      <trkpt lat="44.0742" lon="6.16872">
        <ele>594</ele>
        <time>2020-10-18T08:05:33Z</time>
      </trkpt>
      <trkpt lat="44.07421" lon="6.16874">
        <ele>594.2</ele>
        <time>2020-10-18T08:05:34Z</time>
      </trkpt>
      <trkpt lat="44.07422" lon="6.16876">
        <ele>594.2</ele>
        <time>2020-10-18T08:05:35Z</time>
      </trkpt>
      <trkpt lat="44.07423" lon="6.16877">
        <ele>594.4</ele>
        <time>2020-10-18T08:05:36Z</time>
      </trkpt>
      <trkpt lat="44.07424" lon="6.16879">
        <ele>594.6</ele>
        <time>2020-10-18T08:05:37Z</time>
      </trkpt>
      <trkpt lat="44.07425" lon="6.16881">
        <ele>595</ele>
        <time>2020-10-18T08:05:38Z</time>
      </trkpt>
      <trkpt lat="44.07426" lon="6.16883">
        <ele>595.2</ele>
        <time>2020-10-18T08:05:39Z</time>
      </trkpt>
      <trkpt lat="44.07426" lon="6.16885">
        <ele>595.2</ele>
        <time>2020-10-18T08:05:40Z</time>
      </trkpt>
      <trkpt lat="44.07427" lon="6.16887">
        <ele>595.4</ele>
        <time>2020-10-18T08:05:41Z</time>
      </trkpt>
      <trkpt lat="44.07428" lon="6.16889">
        <ele>595.8</ele>
        <time>2020-10-18T08:05:42Z</time>
      </trkpt>
      <trkpt lat="44.07428" lon="6.16891">
        <ele>596</ele>
        <time>2020-10-18T08:05:43Z</time>
      </trkpt>
      <trkpt lat="44.07429" lon="6.16893">
        <ele>596.2</ele>
        <time>2020-10-18T08:05:44Z</time>
      </trkpt>
      <trkpt lat="44.0743" lon="6.16895">
        <ele>596.6</ele>
        <time>2020-10-18T08:05:45Z</time>
      </trkpt>
      <trkpt lat="44.0743" lon="6.16896">
        <ele>597.2</ele>
        <time>2020-10-18T08:05:46Z</time>
      </trkpt>
      <trkpt lat="44.07431" lon="6.16898">
        <ele>597.4</ele>
        <time>2020-10-18T08:05:47Z</time>
      </trkpt>
      <trkpt lat="44.07432" lon="6.169">
        <ele>597.8</ele>
        <time>2020-10-18T08:05:48Z</time>
      </trkpt>
      <trkpt lat="44.07433" lon="6.16902">
        <ele>598.2</ele>
        <time>2020-10-18T08:05:49Z</time>
      </trkpt>
      <trkpt lat="44.07433" lon="6.16903">
        <ele>598.4</ele>
        <time>2020-10-18T08:05:50Z</time>
      </trkpt>
      <trkpt lat="44.07434" lon="6.16905">
        <ele>598.8</ele>
        <time>2020-10-18T08:05:51Z</time>
      </trkpt>
      <trkpt lat="44.07435" lon="6.16906">
        <ele>599.4</ele>
        <time>2020-10-18T08:05:52Z</time>
      </trkpt>
      <trkpt lat="44.07436" lon="6.16908">
        <ele>599.8</ele>
        <time>2020-10-18T08:05:53Z</time>
      </trkpt>
      <trkpt lat="44.07437" lon="6.16909">
        <ele>600</ele>
        <time>2020-10-18T08:05:54Z</time>
      </trkpt>
      <trkpt lat="44.07437" lon="6.1691">
        <ele>600.2</ele>
        <time>2020-10-18T08:05:55Z</time>
      </trkpt>
      <trkpt lat="44.07438" lon="6.16912">
        <ele>600.4</ele>
        <time>2020-10-18T08:05:56Z</time>
      </trkpt>
      <trkpt lat="44.07438" lon="6.16913">
        <ele>600.8</ele>
        <time>2020-10-18T08:05:57Z</time>
      </trkpt>
      <trkpt lat="44.07439" lon="6.16915">
        <ele>601.2</ele>
        <time>2020-10-18T08:05:58Z</time>
      </trkpt>
      <trkpt lat="44.0744" lon="6.16917">
        <ele>601.6</ele>
        <time>2020-10-18T08:05:59Z</time>
      </trkpt>
      <trkpt lat="44.0744" lon="6.16918">
        <ele>601.8</ele>
        <time>2020-10-18T08:06:00Z</time>
      </trkpt>
      <trkpt lat="44.07441" lon="6.1692">
        <ele>601.8</ele>
        <time>2020-10-18T08:06:01Z</time>
      </trkpt>
      <trkpt lat="44.07441" lon="6.16922">
        <ele>602.2</ele>
        <time>2020-10-18T08:06:02Z</time>
      </trkpt>
      <trkpt lat="44.07442" lon="6.16923">
        <ele>602.4</ele>
        <time>2020-10-18T08:06:03Z</time>
      </trkpt>
      <trkpt lat="44.07443" lon="6.16925">
        <ele>602.6</ele>
        <time>2020-10-18T08:06:04Z</time>
      </trkpt>
      <trkpt lat="44.07443" lon="6.16926">
        <ele>602.8</ele>
        <time>2020-10-18T08:06:05Z</time>
      </trkpt>
      <trkpt lat="44.07444" lon="6.16927">
        <ele>603.2</ele>
        <time>2020-10-18T08:06:06Z</time>
      </trkpt>
      <trkpt lat="44.07444" lon="6.16929">
        <ele>603.4</ele>
        <time>2020-10-18T08:06:07Z</time>
      </trkpt>
      <trkpt lat="44.07445" lon="6.1693">
        <ele>603.6</ele>
        <time>2020-10-18T08:06:08Z</time>
      </trkpt>
      <trkpt lat="44.07446" lon="6.16932">
        <ele>603.6</ele>
        <time>2020-10-18T08:06:09Z</time>
      </trkpt>
      <trkpt lat="44.07446" lon="6.16934">
        <ele>604.2</ele>
        <time>2020-10-18T08:06:10Z</time>
      </trkpt>
      <trkpt lat="44.07447" lon="6.16935">
        <ele>604.4</ele>
        <time>2020-10-18T08:06:11Z</time>
      </trkpt>
      <trkpt lat="44.07447" lon="6.16937">
        <ele>604.6</ele>
        <time>2020-10-18T08:06:12Z</time>
      </trkpt>
      <trkpt lat="44.07448" lon="6.16938">
        <ele>605</ele>
        <time>2020-10-18T08:06:13Z</time>
      </trkpt>
      <trkpt lat="44.07448" lon="6.16938">
        <ele>605.4</ele>
        <time>2020-10-18T08:06:14Z</time>
      </trkpt>
      <trkpt lat="44.07448" lon="6.16939">
        <ele>606</ele>
        <time>2020-10-18T08:06:16Z</time>
      </trkpt>
      <trkpt lat="44.07449" lon="6.1694">
        <ele>606.6</ele>
        <time>2020-10-18T08:06:18Z</time>
      </trkpt>
      <trkpt lat="44.07449" lon="6.16941">
        <ele>607</ele>
        <time>2020-10-18T08:06:19Z</time>
      </trkpt>
      <trkpt lat="44.07449" lon="6.16942">
        <ele>607.2</ele>
        <time>2020-10-18T08:06:20Z</time>
      </trkpt>
      <trkpt lat="44.07449" lon="6.16942">
        <ele>607.4</ele>
        <time>2020-10-18T08:06:21Z</time>
      </trkpt>
      <trkpt lat="44.07449" lon="6.16943">
        <ele>607.6</ele>
        <time>2020-10-18T08:06:22Z</time>
      </trkpt>
      <trkpt lat="44.07449" lon="6.16944">
        <ele>607.6</ele>
        <time>2020-10-18T08:06:23Z</time>
      </trkpt>
      <trkpt lat="44.07449" lon="6.16944">
        <ele>607.8</ele>
        <time>2020-10-18T08:06:24Z</time>
      </trkpt>
      <trkpt lat="44.0745" lon="6.16944">
        <ele>608</ele>
        <time>2020-10-18T08:06:26Z</time>
      </trkpt>
      <trkpt lat="44.0745" lon="6.16944">
        <ele>608.2</ele>
        <time>2020-10-18T08:06:28Z</time>
      </trkpt>
      <trkpt lat="44.0745" lon="6.16945">
        <ele>608.4</ele>
        <time>2020-10-18T08:06:30Z</time>
      </trkpt>
      <trkpt lat="44.07451" lon="6.16945">
        <ele>608.4</ele>
        <time>2020-10-18T08:06:31Z</time>
      </trkpt>
      <trkpt lat="44.07451" lon="6.16945">
        <ele>608.4</ele>
        <time>2020-10-18T08:06:32Z</time>
      </trkpt>
      <trkpt lat="44.07451" lon="6.16947">
        <ele>608.4</ele>
        <time>2020-10-18T08:06:34Z</time>
      </trkpt>
      <trkpt lat="44.07452" lon="6.16948">
        <ele>608.6</ele>
        <time>2020-10-18T08:06:35Z</time>
      </trkpt>
      <trkpt lat="44.07453" lon="6.1695">
        <ele>608.6</ele>
        <time>2020-10-18T08:06:36Z</time>
      </trkpt>
      <trkpt lat="44.07453" lon="6.16951">
        <ele>608.6</ele>
        <time>2020-10-18T08:06:37Z</time>
      </trkpt>
      <trkpt lat="44.07454" lon="6.16953">
        <ele>608.8</ele>
        <time>2020-10-18T08:06:38Z</time>
      </trkpt>
      <trkpt lat="44.07455" lon="6.16954">
        <ele>608.8</ele>
        <time>2020-10-18T08:06:39Z</time>
      </trkpt>
      <trkpt lat="44.07456" lon="6.16956">
        <ele>608.8</ele>
        <time>2020-10-18T08:06:40Z</time>
      </trkpt>
      <trkpt lat="44.07457" lon="6.1696">
        <ele>608.8</ele>
        <time>2020-10-18T08:06:42Z</time>
      </trkpt>
      <trkpt lat="44.07459" lon="6.16963">
        <ele>608.8</ele>
        <time>2020-10-18T08:06:44Z</time>
      </trkpt>
      <trkpt lat="44.07459" lon="6.16965">
        <ele>609</ele>
        <time>2020-10-18T08:06:45Z</time>
      </trkpt>
      <trkpt lat="44.0746" lon="6.16967">
        <ele>609.2</ele>
        <time>2020-10-18T08:06:46Z</time>
      </trkpt>
      <trkpt lat="44.07461" lon="6.16969">
        <ele>609.2</ele>
        <time>2020-10-18T08:06:47Z</time>
      </trkpt>
      <trkpt lat="44.07461" lon="6.16971">
        <ele>609.4</ele>
        <time>2020-10-18T08:06:48Z</time>
      </trkpt>
      <trkpt lat="44.07462" lon="6.16972">
        <ele>609.4</ele>
        <time>2020-10-18T08:06:49Z</time>
      </trkpt>
      <trkpt lat="44.07462" lon="6.16974">
        <ele>609.8</ele>
        <time>2020-10-18T08:06:50Z</time>
      </trkpt>
      <trkpt lat="44.07463" lon="6.16976">
        <ele>610.2</ele>
        <time>2020-10-18T08:06:51Z</time>
      </trkpt>
      <trkpt lat="44.07463" lon="6.16978">
        <ele>610.6</ele>
        <time>2020-10-18T08:06:52Z</time>
      </trkpt>
      <trkpt lat="44.07463" lon="6.16979">
        <ele>610.8</ele>
        <time>2020-10-18T08:06:53Z</time>
      </trkpt>
      <trkpt lat="44.07464" lon="6.16981">
        <ele>611</ele>
        <time>2020-10-18T08:06:54Z</time>
      </trkpt>
      <trkpt lat="44.07464" lon="6.16983">
        <ele>611.4</ele>
        <time>2020-10-18T08:06:55Z</time>
      </trkpt>
      <trkpt lat="44.07465" lon="6.16985">
        <ele>611.6</ele>
        <time>2020-10-18T08:06:56Z</time>
      </trkpt>
      <trkpt lat="44.07465" lon="6.16987">
        <ele>611.8</ele>
        <time>2020-10-18T08:06:57Z</time>
      </trkpt>
      <trkpt lat="44.07466" lon="6.16989">
        <ele>612</ele>
        <time>2020-10-18T08:06:58Z</time>
      </trkpt>
      <trkpt lat="44.07466" lon="6.16991">
        <ele>612.2</ele>
        <time>2020-10-18T08:06:59Z</time>
      </trkpt>
      <trkpt lat="44.07467" lon="6.16993">
        <ele>612.6</ele>
        <time>2020-10-18T08:07:00Z</time>
      </trkpt>
      <trkpt lat="44.07467" lon="6.16995">
        <ele>612.6</ele>
        <time>2020-10-18T08:07:01Z</time>
      </trkpt>
      <trkpt lat="44.07468" lon="6.16997">
        <ele>612.8</ele>
        <time>2020-10-18T08:07:02Z</time>
      </trkpt>
      <trkpt lat="44.07468" lon="6.16999">
        <ele>613</ele>
        <time>2020-10-18T08:07:03Z</time>
      </trkpt>
      <trkpt lat="44.07469" lon="6.17">
        <ele>613</ele>
        <time>2020-10-18T08:07:04Z</time>
      </trkpt>
      <trkpt lat="44.07469" lon="6.17002">
        <ele>613.2</ele>
        <time>2020-10-18T08:07:05Z</time>
      </trkpt>
      <trkpt lat="44.0747" lon="6.17004">
        <ele>613.4</ele>
        <time>2020-10-18T08:07:06Z</time>
      </trkpt>
      <trkpt lat="44.0747" lon="6.17005">
        <ele>613.4</ele>
        <time>2020-10-18T08:07:07Z</time>
      </trkpt>
      <trkpt lat="44.07471" lon="6.17007">
        <ele>613.8</ele>
        <time>2020-10-18T08:07:08Z</time>
      </trkpt>
      <trkpt lat="44.07472" lon="6.17008">
        <ele>614</ele>
        <time>2020-10-18T08:07:09Z</time>
      </trkpt>
      <trkpt lat="44.07473" lon="6.1701">
        <ele>614</ele>
        <time>2020-10-18T08:07:10Z</time>
      </trkpt>
      <trkpt lat="44.07474" lon="6.17011">
        <ele>614.4</ele>
        <time>2020-10-18T08:07:11Z</time>
      </trkpt>
      <trkpt lat="44.07475" lon="6.17013">
        <ele>614.6</ele>
        <time>2020-10-18T08:07:12Z</time>
      </trkpt>
      <trkpt lat="44.07476" lon="6.17014">
        <ele>614.6</ele>
        <time>2020-10-18T08:07:13Z</time>
      </trkpt>
      <trkpt lat="44.07477" lon="6.17015">
        <ele>615</ele>
        <time>2020-10-18T08:07:14Z</time>
      </trkpt>
      <trkpt lat="44.07477" lon="6.17016">
        <ele>615.4</ele>
        <time>2020-10-18T08:07:15Z</time>
      </trkpt>
      <trkpt lat="44.07478" lon="6.17018">
        <ele>615.6</ele>
        <time>2020-10-18T08:07:16Z</time>
      </trkpt>
      <trkpt lat="44.07479" lon="6.17019">
        <ele>616</ele>
        <time>2020-10-18T08:07:17Z</time>
      </trkpt>
      <trkpt lat="44.0748" lon="6.17019">
        <ele>616.2</ele>
        <time>2020-10-18T08:07:18Z</time>
      </trkpt>
      <trkpt lat="44.0748" lon="6.1702">
        <ele>617.2</ele>
        <time>2020-10-18T08:07:20Z</time>
      </trkpt>
      <trkpt lat="44.0748" lon="6.17019">
        <ele>617.4</ele>
        <time>2020-10-18T08:07:21Z</time>
      </trkpt>
      <trkpt lat="44.0748" lon="6.1702">
        <ele>617.8</ele>
        <time>2020-10-18T08:07:22Z</time>
      </trkpt>
      <trkpt lat="44.07481" lon="6.1702">
        <ele>618</ele>
        <time>2020-10-18T08:07:24Z</time>
      </trkpt>
      <trkpt lat="44.07481" lon="6.1702">
        <ele>618.4</ele>
        <time>2020-10-18T08:07:25Z</time>
      </trkpt>
      <trkpt lat="44.07481" lon="6.1702">
        <ele>618.8</ele>
        <time>2020-10-18T08:07:26Z</time>
      </trkpt>
      <trkpt lat="44.07481" lon="6.17021">
        <ele>619.4</ele>
        <time>2020-10-18T08:07:28Z</time>
      </trkpt>
      <trkpt lat="44.07482" lon="6.17022">
        <ele>619.4</ele>
        <time>2020-10-18T08:07:30Z</time>
      </trkpt>
      <trkpt lat="44.07482" lon="6.17022">
        <ele>619.6</ele>
        <time>2020-10-18T08:07:32Z</time>
      </trkpt>
      <trkpt lat="44.07482" lon="6.17021">
        <ele>620</ele>
        <time>2020-10-18T08:07:34Z</time>
      </trkpt>
      <trkpt lat="44.07482" lon="6.17022">
        <ele>620</ele>
        <time>2020-10-18T08:07:35Z</time>
      </trkpt>
      <trkpt lat="44.07482" lon="6.17022">
        <ele>620.2</ele>
        <time>2020-10-18T08:07:36Z</time>
      </trkpt>
      <trkpt lat="44.07482" lon="6.17022">
        <ele>620.2</ele>
        <time>2020-10-18T08:07:37Z</time>
      </trkpt>
      <trkpt lat="44.07482" lon="6.17022">
        <ele>620.2</ele>
        <time>2020-10-18T08:07:38Z</time>
      </trkpt>
      <trkpt lat="44.07483" lon="6.17023">
        <ele>620.6</ele>
        <time>2020-10-18T08:07:40Z</time>
      </trkpt>
      <trkpt lat="44.07482" lon="6.17023">
        <ele>620.8</ele>
        <time>2020-10-18T08:07:42Z</time>
      </trkpt>
      <trkpt lat="44.07482" lon="6.17023">
        <ele>620.8</ele>
        <time>2020-10-18T08:07:43Z</time>
      </trkpt>
      <trkpt lat="44.07483" lon="6.17023">
        <ele>621</ele>
        <time>2020-10-18T08:07:44Z</time>
      </trkpt>
      <trkpt lat="44.07483" lon="6.17023">
        <ele>621</ele>
        <time>2020-10-18T08:07:45Z</time>
      </trkpt>
      <trkpt lat="44.07483" lon="6.17024">
        <ele>621.2</ele>
        <time>2020-10-18T08:07:46Z</time>
      </trkpt>
      <trkpt lat="44.07483" lon="6.17024">
        <ele>621.2</ele>
        <time>2020-10-18T08:07:48Z</time>
      </trkpt>
      <trkpt lat="44.07483" lon="6.17025">
        <ele>621.4</ele>
        <time>2020-10-18T08:07:49Z</time>
      </trkpt>
      <trkpt lat="44.07483" lon="6.17025">
        <ele>621.6</ele>
        <time>2020-10-18T08:07:50Z</time>
      </trkpt>
      <trkpt lat="44.07483" lon="6.17026">
        <ele>622</ele>
        <time>2020-10-18T08:07:52Z</time>
      </trkpt>
      <trkpt lat="44.07484" lon="6.17026">
        <ele>622.2</ele>
        <time>2020-10-18T08:07:53Z</time>
      </trkpt>
      <trkpt lat="44.07484" lon="6.17027">
        <ele>622.4</ele>
        <time>2020-10-18T08:07:54Z</time>
      </trkpt>
      <trkpt lat="44.07484" lon="6.17026">
        <ele>622.8</ele>
        <time>2020-10-18T08:07:56Z</time>
      </trkpt>
      <trkpt lat="44.07484" lon="6.17027">
        <ele>623.2</ele>
        <time>2020-10-18T08:07:58Z</time>
      </trkpt>
      <trkpt lat="44.07485" lon="6.17028">
        <ele>623.4</ele>
        <time>2020-10-18T08:07:59Z</time>
      </trkpt>
      <trkpt lat="44.07485" lon="6.17029">
        <ele>623.4</ele>
        <time>2020-10-18T08:08:00Z</time>
      </trkpt>
      <trkpt lat="44.07485" lon="6.17031">
        <ele>623.4</ele>
        <time>2020-10-18T08:08:01Z</time>
      </trkpt>
      <trkpt lat="44.07485" lon="6.17032">
        <ele>623.6</ele>
        <time>2020-10-18T08:08:02Z</time>
      </trkpt>
      <trkpt lat="44.07485" lon="6.17034">
        <ele>623.6</ele>
        <time>2020-10-18T08:08:03Z</time>
      </trkpt>
      <trkpt lat="44.07485" lon="6.17035">
        <ele>623.8</ele>
        <time>2020-10-18T08:08:04Z</time>
      </trkpt>
      <trkpt lat="44.07485" lon="6.17037">
        <ele>623.8</ele>
        <time>2020-10-18T08:08:05Z</time>
      </trkpt>
      <trkpt lat="44.07485" lon="6.17039">
        <ele>623.8</ele>
        <time>2020-10-18T08:08:06Z</time>
      </trkpt>
      <trkpt lat="44.07486" lon="6.17041">
        <ele>624</ele>
        <time>2020-10-18T08:08:07Z</time>
      </trkpt>
      <trkpt lat="44.07486" lon="6.17043">
        <ele>623.8</ele>
        <time>2020-10-18T08:08:08Z</time>
      </trkpt>
      <trkpt lat="44.07486" lon="6.17044">
        <ele>624</ele>
        <time>2020-10-18T08:08:09Z</time>
      </trkpt>
      <trkpt lat="44.07486" lon="6.17046">
        <ele>624.2</ele>
        <time>2020-10-18T08:08:10Z</time>
      </trkpt>
      <trkpt lat="44.07487" lon="6.17048">
        <ele>624.2</ele>
        <time>2020-10-18T08:08:11Z</time>
      </trkpt>
      <trkpt lat="44.07487" lon="6.17051">
        <ele>624.4</ele>
        <time>2020-10-18T08:08:12Z</time>
      </trkpt>
      <trkpt lat="44.07488" lon="6.17053">
        <ele>624.6</ele>
        <time>2020-10-18T08:08:13Z</time>
      </trkpt>
      <trkpt lat="44.07489" lon="6.17056">
        <ele>624.6</ele>
        <time>2020-10-18T08:08:14Z</time>
      </trkpt>
      <trkpt lat="44.07491" lon="6.17061">
        <ele>624.8</ele>
        <time>2020-10-18T08:08:16Z</time>
      </trkpt>
      <trkpt lat="44.07493" lon="6.17067">
        <ele>624.8</ele>
        <time>2020-10-18T08:08:18Z</time>
      </trkpt>
      <trkpt lat="44.07496" lon="6.17073">
        <ele>624.8</ele>
        <time>2020-10-18T08:08:20Z</time>
      </trkpt>
      <trkpt lat="44.07499" lon="6.1708">
        <ele>624.8</ele>
        <time>2020-10-18T08:08:22Z</time>
      </trkpt>
      <trkpt lat="44.07503" lon="6.17088">
        <ele>624.8</ele>
        <time>2020-10-18T08:08:24Z</time>
      </trkpt>
      <trkpt lat="44.07505" lon="6.17091">
        <ele>624.6</ele>
        <time>2020-10-18T08:08:25Z</time>
      </trkpt>
      <trkpt lat="44.07507" lon="6.17095">
        <ele>624.6</ele>
        <time>2020-10-18T08:08:26Z</time>
      </trkpt>
      <trkpt lat="44.07509" lon="6.17098">
        <ele>624.6</ele>
        <time>2020-10-18T08:08:27Z</time>
      </trkpt>
      <trkpt lat="44.0751" lon="6.17101">
        <ele>624.4</ele>
        <time>2020-10-18T08:08:28Z</time>
      </trkpt>
      <trkpt lat="44.07512" lon="6.17104">
        <ele>624.2</ele>
        <time>2020-10-18T08:08:29Z</time>
      </trkpt>
      <trkpt lat="44.07513" lon="6.17107">
        <ele>624.2</ele>
        <time>2020-10-18T08:08:30Z</time>
      </trkpt>
      <trkpt lat="44.07515" lon="6.1711">
        <ele>624</ele>
        <time>2020-10-18T08:08:31Z</time>
      </trkpt>
      <trkpt lat="44.07516" lon="6.17113">
        <ele>623.8</ele>
        <time>2020-10-18T08:08:32Z</time>
      </trkpt>
      <trkpt lat="44.07518" lon="6.1712">
        <ele>623.8</ele>
        <time>2020-10-18T08:08:34Z</time>
      </trkpt>
      <trkpt lat="44.0752" lon="6.17127">
        <ele>623.6</ele>
        <time>2020-10-18T08:08:36Z</time>
      </trkpt>
      <trkpt lat="44.07522" lon="6.17135">
        <ele>623.6</ele>
        <time>2020-10-18T08:08:38Z</time>
      </trkpt>
      <trkpt lat="44.07523" lon="6.17144">
        <ele>623.4</ele>
        <time>2020-10-18T08:08:40Z</time>
      </trkpt>
      <trkpt lat="44.07526" lon="6.17153">
        <ele>623.4</ele>
        <time>2020-10-18T08:08:42Z</time>
      </trkpt>
      <trkpt lat="44.07528" lon="6.17163">
        <ele>623.6</ele>
        <time>2020-10-18T08:08:44Z</time>
      </trkpt>
      <trkpt lat="44.0753" lon="6.17174">
        <ele>623.4</ele>
        <time>2020-10-18T08:08:46Z</time>
      </trkpt>
      <trkpt lat="44.07533" lon="6.17185">
        <ele>623.2</ele>
        <time>2020-10-18T08:08:48Z</time>
      </trkpt>
      <trkpt lat="44.07536" lon="6.17196">
        <ele>623.2</ele>
        <time>2020-10-18T08:08:50Z</time>
      </trkpt>
      <trkpt lat="44.07537" lon="6.17202">
        <ele>623.2</ele>
        <time>2020-10-18T08:08:51Z</time>
      </trkpt>
      <trkpt lat="44.07539" lon="6.17207">
        <ele>623.2</ele>
        <time>2020-10-18T08:08:52Z</time>
      </trkpt>
      <trkpt lat="44.07541" lon="6.17212">
        <ele>622.6</ele>
        <time>2020-10-18T08:08:53Z</time>
      </trkpt>
      <trkpt lat="44.07542" lon="6.17217">
        <ele>622.4</ele>
        <time>2020-10-18T08:08:54Z</time>
      </trkpt>
      <trkpt lat="44.07543" lon="6.17221">
        <ele>622.2</ele>
        <time>2020-10-18T08:08:55Z</time>
      </trkpt>
      <trkpt lat="44.07545" lon="6.17225">
        <ele>622</ele>
        <time>2020-10-18T08:08:56Z</time>
      </trkpt>
      <trkpt lat="44.07547" lon="6.17227">
        <ele>621.8</ele>
        <time>2020-10-18T08:08:57Z</time>
      </trkpt>
      <trkpt lat="44.07548" lon="6.17229">
        <ele>621.8</ele>
        <time>2020-10-18T08:08:58Z</time>
      </trkpt>
      <trkpt lat="44.07549" lon="6.17229">
        <ele>621.8</ele>
        <time>2020-10-18T08:08:59Z</time>
      </trkpt>
      <trkpt lat="44.0755" lon="6.17229">
        <ele>621.8</ele>
        <time>2020-10-18T08:09:00Z</time>
      </trkpt>
      <trkpt lat="44.0755" lon="6.1723">
        <ele>621.6</ele>
        <time>2020-10-18T08:09:02Z</time>
      </trkpt>
      <trkpt lat="44.0755" lon="6.1723">
        <ele>621.6</ele>
        <time>2020-10-18T08:09:03Z</time>
      </trkpt>
      <trkpt lat="44.0755" lon="6.1723">
        <ele>621.6</ele>
        <time>2020-10-18T08:09:04Z</time>
      </trkpt>
      <trkpt lat="44.07551" lon="6.1723">
        <ele>621.6</ele>
        <time>2020-10-18T08:09:05Z</time>
      </trkpt>
      <trkpt lat="44.07551" lon="6.1723">
        <ele>622</ele>
        <time>2020-10-18T08:09:06Z</time>
      </trkpt>
      <trkpt lat="44.07552" lon="6.1723">
        <ele>622</ele>
        <time>2020-10-18T08:09:08Z</time>
      </trkpt>
      <trkpt lat="44.07553" lon="6.17232">
        <ele>622.6</ele>
        <time>2020-10-18T08:09:10Z</time>
      </trkpt>
      <trkpt lat="44.07554" lon="6.17233">
        <ele>622.8</ele>
        <time>2020-10-18T08:09:11Z</time>
      </trkpt>
      <trkpt lat="44.07555" lon="6.17235">
        <ele>623</ele>
        <time>2020-10-18T08:09:12Z</time>
      </trkpt>
      <trkpt lat="44.07556" lon="6.17237">
        <ele>623</ele>
        <time>2020-10-18T08:09:13Z</time>
      </trkpt>
      <trkpt lat="44.07558" lon="6.17238">
        <ele>623.4</ele>
        <time>2020-10-18T08:09:14Z</time>
      </trkpt>
      <trkpt lat="44.0756" lon="6.17239">
        <ele>623.4</ele>
        <time>2020-10-18T08:09:15Z</time>
      </trkpt>
      <trkpt lat="44.07561" lon="6.1724">
        <ele>623.4</ele>
        <time>2020-10-18T08:09:16Z</time>
      </trkpt>
      <trkpt lat="44.07562" lon="6.1724">
        <ele>623.4</ele>
        <time>2020-10-18T08:09:17Z</time>
      </trkpt>
      <trkpt lat="44.07563" lon="6.17241">
        <ele>623.6</ele>
        <time>2020-10-18T08:09:18Z</time>
      </trkpt>
      <trkpt lat="44.07565" lon="6.17242">
        <ele>623.6</ele>
        <time>2020-10-18T08:09:20Z</time>
      </trkpt>
      <trkpt lat="44.07565" lon="6.17242">
        <ele>624</ele>
        <time>2020-10-18T08:09:22Z</time>
      </trkpt>
      <trkpt lat="44.07565" lon="6.17243">
        <ele>624.2</ele>
        <time>2020-10-18T08:09:24Z</time>
      </trkpt>
      <trkpt lat="44.07566" lon="6.17243">
        <ele>624.8</ele>
        <time>2020-10-18T08:09:26Z</time>
      </trkpt>
      <trkpt lat="44.07567" lon="6.17243">
        <ele>625</ele>
        <time>2020-10-18T08:09:27Z</time>
      </trkpt>
      <trkpt lat="44.07568" lon="6.17243">
        <ele>625</ele>
        <time>2020-10-18T08:09:28Z</time>
      </trkpt>
      <trkpt lat="44.07569" lon="6.17242">
        <ele>625.2</ele>
        <time>2020-10-18T08:09:29Z</time>
      </trkpt>
      <trkpt lat="44.07569" lon="6.17242">
        <ele>625.6</ele>
        <time>2020-10-18T08:09:30Z</time>
      </trkpt>
      <trkpt lat="44.0757" lon="6.17242">
        <ele>625.6</ele>
        <time>2020-10-18T08:09:31Z</time>
      </trkpt>
      <trkpt lat="44.07571" lon="6.17242">
        <ele>625.8</ele>
        <time>2020-10-18T08:09:32Z</time>
      </trkpt>
      <trkpt lat="44.07571" lon="6.17242">
        <ele>625.8</ele>
        <time>2020-10-18T08:09:33Z</time>
      </trkpt>
      <trkpt lat="44.07572" lon="6.17241">
        <ele>626.2</ele>
        <time>2020-10-18T08:09:34Z</time>
      </trkpt>
      <trkpt lat="44.07572" lon="6.17241">
        <ele>626</ele>
        <time>2020-10-18T08:09:35Z</time>
      </trkpt>
      <trkpt lat="44.07572" lon="6.1724">
        <ele>626.2</ele>
        <time>2020-10-18T08:09:36Z</time>
      </trkpt>
      <trkpt lat="44.07572" lon="6.17239">
        <ele>626.6</ele>
        <time>2020-10-18T08:09:37Z</time>
      </trkpt>
      <trkpt lat="44.07572" lon="6.17238">
        <ele>627</ele>
        <time>2020-10-18T08:09:38Z</time>
      </trkpt>
      <trkpt lat="44.07572" lon="6.17237">
        <ele>627.2</ele>
        <time>2020-10-18T08:09:39Z</time>
      </trkpt>
      <trkpt lat="44.07572" lon="6.17236">
        <ele>627.6</ele>
        <time>2020-10-18T08:09:40Z</time>
      </trkpt>
      <trkpt lat="44.07572" lon="6.17235">
        <ele>627.8</ele>
        <time>2020-10-18T08:09:41Z</time>
      </trkpt>
      <trkpt lat="44.07571" lon="6.17234">
        <ele>628</ele>
        <time>2020-10-18T08:09:42Z</time>
      </trkpt>
      <trkpt lat="44.07571" lon="6.17233">
        <ele>628.2</ele>
        <time>2020-10-18T08:09:43Z</time>
      </trkpt>
      <trkpt lat="44.07571" lon="6.17232">
        <ele>628.4</ele>
        <time>2020-10-18T08:09:44Z</time>
      </trkpt>
      <trkpt lat="44.0757" lon="6.17231">
        <ele>628.6</ele>
        <time>2020-10-18T08:09:45Z</time>
      </trkpt>
      <trkpt lat="44.0757" lon="6.17231">
        <ele>628.8</ele>
        <time>2020-10-18T08:09:46Z</time>
      </trkpt>
      <trkpt lat="44.07569" lon="6.1723">
        <ele>629.2</ele>
        <time>2020-10-18T08:09:47Z</time>
      </trkpt>
      <trkpt lat="44.07569" lon="6.17229">
        <ele>629.2</ele>
        <time>2020-10-18T08:09:48Z</time>
      </trkpt>
      <trkpt lat="44.07569" lon="6.17228">
        <ele>629.2</ele>
        <time>2020-10-18T08:09:49Z</time>
      </trkpt>
      <trkpt lat="44.07568" lon="6.17227">
        <ele>629.4</ele>
        <time>2020-10-18T08:09:50Z</time>
      </trkpt>
      <trkpt lat="44.07568" lon="6.17226">
        <ele>629.6</ele>
        <time>2020-10-18T08:09:51Z</time>
      </trkpt>
      <trkpt lat="44.07568" lon="6.17225">
        <ele>629.8</ele>
        <time>2020-10-18T08:09:52Z</time>
      </trkpt>
      <trkpt lat="44.07568" lon="6.17224">
        <ele>630.2</ele>
        <time>2020-10-18T08:09:54Z</time>
      </trkpt>
      <trkpt lat="44.07568" lon="6.17224">
        <ele>630.6</ele>
        <time>2020-10-18T08:09:56Z</time>
      </trkpt>
      <trkpt lat="44.07568" lon="6.17223">
        <ele>631</ele>
        <time>2020-10-18T08:09:58Z</time>
      </trkpt>
      <trkpt lat="44.07568" lon="6.17223">
        <ele>631.2</ele>
        <time>2020-10-18T08:10:00Z</time>
      </trkpt>
      <trkpt lat="44.07568" lon="6.17224">
        <ele>631.4</ele>
        <time>2020-10-18T08:10:02Z</time>
      </trkpt>
      <trkpt lat="44.07568" lon="6.17224">
        <ele>631.6</ele>
        <time>2020-10-18T08:10:04Z</time>
      </trkpt>
      <trkpt lat="44.07568" lon="6.17224">
        <ele>631.6</ele>
        <time>2020-10-18T08:10:06Z</time>
      </trkpt>
      <trkpt lat="44.07568" lon="6.17224">
        <ele>631.6</ele>
        <time>2020-10-18T08:10:08Z</time>
      </trkpt>
      <trkpt lat="44.07568" lon="6.17224">
        <ele>631.8</ele>
        <time>2020-10-18T08:10:10Z</time>
      </trkpt>
      <trkpt lat="44.07568" lon="6.17223">
        <ele>631.8</ele>
        <time>2020-10-18T08:10:12Z</time>
      </trkpt>
      <trkpt lat="44.07568" lon="6.17222">
        <ele>631.8</ele>
        <time>2020-10-18T08:10:13Z</time>
      </trkpt>
      <trkpt lat="44.07568" lon="6.17221">
        <ele>631.8</ele>
        <time>2020-10-18T08:10:14Z</time>
      </trkpt>
      <trkpt lat="44.07567" lon="6.1722">
        <ele>631.8</ele>
        <time>2020-10-18T08:10:15Z</time>
      </trkpt>
      <trkpt lat="44.07566" lon="6.17219">
        <ele>631.8</ele>
        <time>2020-10-18T08:10:16Z</time>
      </trkpt>
      <trkpt lat="44.07566" lon="6.17218">
        <ele>631.8</ele>
        <time>2020-10-18T08:10:17Z</time>
      </trkpt>
      <trkpt lat="44.07564" lon="6.17216">
        <ele>631.8</ele>
        <time>2020-10-18T08:10:18Z</time>
      </trkpt>
      <trkpt lat="44.07564" lon="6.17214">
        <ele>631.8</ele>
        <time>2020-10-18T08:10:19Z</time>
      </trkpt>
      <trkpt lat="44.07563" lon="6.17212">
        <ele>631.8</ele>
        <time>2020-10-18T08:10:20Z</time>
      </trkpt>
      <trkpt lat="44.07563" lon="6.1721">
        <ele>631.8</ele>
        <time>2020-10-18T08:10:21Z</time>
      </trkpt>
      <trkpt lat="44.07563" lon="6.17208">
        <ele>631.8</ele>
        <time>2020-10-18T08:10:22Z</time>
      </trkpt>
      <trkpt lat="44.07563" lon="6.17205">
        <ele>632</ele>
        <time>2020-10-18T08:10:23Z</time>
      </trkpt>
      <trkpt lat="44.07563" lon="6.17203">
        <ele>632</ele>
        <time>2020-10-18T08:10:24Z</time>
      </trkpt>
      <trkpt lat="44.07563" lon="6.17201">
        <ele>632.2</ele>
        <time>2020-10-18T08:10:25Z</time>
      </trkpt>
      <trkpt lat="44.07563" lon="6.17199">
        <ele>632.4</ele>
        <time>2020-10-18T08:10:26Z</time>
      </trkpt>
      <trkpt lat="44.07563" lon="6.17197">
        <ele>632.6</ele>
        <time>2020-10-18T08:10:27Z</time>
      </trkpt>
      <trkpt lat="44.07563" lon="6.17195">
        <ele>633</ele>
        <time>2020-10-18T08:10:28Z</time>
      </trkpt>
      <trkpt lat="44.07563" lon="6.17193">
        <ele>633</ele>
        <time>2020-10-18T08:10:29Z</time>
      </trkpt>
      <trkpt lat="44.07562" lon="6.1719">
        <ele>633.2</ele>
        <time>2020-10-18T08:10:30Z</time>
      </trkpt>
      <trkpt lat="44.07562" lon="6.17188">
        <ele>633.4</ele>
        <time>2020-10-18T08:10:31Z</time>
      </trkpt>
      <trkpt lat="44.07561" lon="6.17186">
        <ele>633.6</ele>
        <time>2020-10-18T08:10:32Z</time>
      </trkpt>
      <trkpt lat="44.0756" lon="6.17184">
        <ele>634</ele>
        <time>2020-10-18T08:10:33Z</time>
      </trkpt>
      <trkpt lat="44.0756" lon="6.17182">
        <ele>634.4</ele>
        <time>2020-10-18T08:10:34Z</time>
      </trkpt>
      <trkpt lat="44.0756" lon="6.1718">
        <ele>634.6</ele>
        <time>2020-10-18T08:10:35Z</time>
      </trkpt>
      <trkpt lat="44.07559" lon="6.17178">
        <ele>634.8</ele>
        <time>2020-10-18T08:10:36Z</time>
      </trkpt>
      <trkpt lat="44.07559" lon="6.17176">
        <ele>635</ele>
        <time>2020-10-18T08:10:37Z</time>
      </trkpt>
      <trkpt lat="44.07559" lon="6.17174">
        <ele>635.2</ele>
        <time>2020-10-18T08:10:38Z</time>
      </trkpt>
      <trkpt lat="44.07559" lon="6.17172">
        <ele>635.6</ele>
        <time>2020-10-18T08:10:39Z</time>
      </trkpt>
      <trkpt lat="44.07559" lon="6.17171">
        <ele>635.8</ele>
        <time>2020-10-18T08:10:40Z</time>
      </trkpt>
      <trkpt lat="44.07559" lon="6.17169">
        <ele>636</ele>
        <time>2020-10-18T08:10:41Z</time>
      </trkpt>
      <trkpt lat="44.07558" lon="6.17168">
        <ele>636.2</ele>
        <time>2020-10-18T08:10:42Z</time>
      </trkpt>
      <trkpt lat="44.07558" lon="6.17166">
        <ele>636.4</ele>
        <time>2020-10-18T08:10:43Z</time>
      </trkpt>
      <trkpt lat="44.07557" lon="6.17164">
        <ele>636.8</ele>
        <time>2020-10-18T08:10:44Z</time>
      </trkpt>
      <trkpt lat="44.07557" lon="6.17162">
        <ele>637</ele>
        <time>2020-10-18T08:10:45Z</time>
      </trkpt>
      <trkpt lat="44.07557" lon="6.1716">
        <ele>637.6</ele>
        <time>2020-10-18T08:10:46Z</time>
      </trkpt>
      <trkpt lat="44.07557" lon="6.17158">
        <ele>638</ele>
        <time>2020-10-18T08:10:47Z</time>
      </trkpt>
      <trkpt lat="44.07558" lon="6.17156">
        <ele>638</ele>
        <time>2020-10-18T08:10:48Z</time>
      </trkpt>
      <trkpt lat="44.07558" lon="6.17155">
        <ele>638.2</ele>
        <time>2020-10-18T08:10:49Z</time>
      </trkpt>
      <trkpt lat="44.07558" lon="6.17153">
        <ele>638.2</ele>
        <time>2020-10-18T08:10:50Z</time>
      </trkpt>
      <trkpt lat="44.07558" lon="6.17151">
        <ele>638.8</ele>
        <time>2020-10-18T08:10:51Z</time>
      </trkpt>
      <trkpt lat="44.07559" lon="6.17149">
        <ele>639</ele>
        <time>2020-10-18T08:10:52Z</time>
      </trkpt>
      <trkpt lat="44.07559" lon="6.17147">
        <ele>639.2</ele>
        <time>2020-10-18T08:10:53Z</time>
      </trkpt>
      <trkpt lat="44.07559" lon="6.17146">
        <ele>639.4</ele>
        <time>2020-10-18T08:10:54Z</time>
      </trkpt>
      <trkpt lat="44.07559" lon="6.17144">
        <ele>639.8</ele>
        <time>2020-10-18T08:10:55Z</time>
      </trkpt>
      <trkpt lat="44.07559" lon="6.17142">
        <ele>639.8</ele>
        <time>2020-10-18T08:10:56Z</time>
      </trkpt>
      <trkpt lat="44.07559" lon="6.1714">
        <ele>640</ele>
        <time>2020-10-18T08:10:57Z</time>
      </trkpt>
      <trkpt lat="44.0756" lon="6.17139">
        <ele>640.2</ele>
        <time>2020-10-18T08:10:58Z</time>
      </trkpt>
      <trkpt lat="44.0756" lon="6.17137">
        <ele>640.4</ele>
        <time>2020-10-18T08:10:59Z</time>
      </trkpt>
      <trkpt lat="44.0756" lon="6.17136">
        <ele>640.6</ele>
        <time>2020-10-18T08:11:00Z</time>
      </trkpt>
      <trkpt lat="44.0756" lon="6.17135">
        <ele>641.2</ele>
        <time>2020-10-18T08:11:02Z</time>
      </trkpt>
      <trkpt lat="44.07561" lon="6.17134">
        <ele>641.8</ele>
        <time>2020-10-18T08:11:03Z</time>
      </trkpt>
      <trkpt lat="44.07561" lon="6.17132">
        <ele>642</ele>
        <time>2020-10-18T08:11:04Z</time>
      </trkpt>
      <trkpt lat="44.07561" lon="6.17131">
        <ele>642.4</ele>
        <time>2020-10-18T08:11:05Z</time>
      </trkpt>
      <trkpt lat="44.07561" lon="6.1713">
        <ele>642.6</ele>
        <time>2020-10-18T08:11:06Z</time>
      </trkpt>
      <trkpt lat="44.07562" lon="6.17129">
        <ele>643</ele>
        <time>2020-10-18T08:11:07Z</time>
      </trkpt>
      <trkpt lat="44.07562" lon="6.17127">
        <ele>643.4</ele>
        <time>2020-10-18T08:11:08Z</time>
      </trkpt>
      <trkpt lat="44.07562" lon="6.17126">
        <ele>643.4</ele>
        <time>2020-10-18T08:11:09Z</time>
      </trkpt>
      <trkpt lat="44.07562" lon="6.17125">
        <ele>643.4</ele>
        <time>2020-10-18T08:11:10Z</time>
      </trkpt>
      <trkpt lat="44.07562" lon="6.17124">
        <ele>643.4</ele>
        <time>2020-10-18T08:11:11Z</time>
      </trkpt>
      <trkpt lat="44.07562" lon="6.17124">
        <ele>643.6</ele>
        <time>2020-10-18T08:11:12Z</time>
      </trkpt>
      <trkpt lat="44.07562" lon="6.17123">
        <ele>644.2</ele>
        <time>2020-10-18T08:11:14Z</time>
      </trkpt>
      <trkpt lat="44.07562" lon="6.17122">
        <ele>644</ele>
        <time>2020-10-18T08:11:15Z</time>
      </trkpt>
      <trkpt lat="44.07563" lon="6.17121">
        <ele>644.4</ele>
        <time>2020-10-18T08:11:16Z</time>
      </trkpt>
      <trkpt lat="44.07563" lon="6.1712">
        <ele>644.8</ele>
        <time>2020-10-18T08:11:17Z</time>
      </trkpt>
      <trkpt lat="44.07563" lon="6.17119">
        <ele>644.8</ele>
        <time>2020-10-18T08:11:18Z</time>
      </trkpt>
      <trkpt lat="44.07563" lon="6.17118">
        <ele>645.2</ele>
        <time>2020-10-18T08:11:19Z</time>
      </trkpt>
      <trkpt lat="44.07564" lon="6.17117">
        <ele>645.4</ele>
        <time>2020-10-18T08:11:20Z</time>
      </trkpt>
      <trkpt lat="44.07564" lon="6.17116">
        <ele>645.6</ele>
        <time>2020-10-18T08:11:21Z</time>
      </trkpt>
      <trkpt lat="44.07564" lon="6.17116">
        <ele>645.4</ele>
        <time>2020-10-18T08:11:22Z</time>
      </trkpt>
      <trkpt lat="44.07564" lon="6.17115">
        <ele>645.8</ele>
        <time>2020-10-18T08:11:24Z</time>
      </trkpt>
      <trkpt lat="44.07564" lon="6.17115">
        <ele>646.2</ele>
        <time>2020-10-18T08:11:26Z</time>
      </trkpt>
      <trkpt lat="44.07564" lon="6.17116">
        <ele>646.8</ele>
        <time>2020-10-18T08:11:28Z</time>
      </trkpt>
      <trkpt lat="44.07564" lon="6.17116">
        <ele>647</ele>
        <time>2020-10-18T08:11:29Z</time>
      </trkpt>
      <trkpt lat="44.07564" lon="6.17116">
        <ele>647.2</ele>
        <time>2020-10-18T08:11:30Z</time>
      </trkpt>
      <trkpt lat="44.07563" lon="6.17115">
        <ele>647.4</ele>
        <time>2020-10-18T08:11:32Z</time>
      </trkpt>
      <trkpt lat="44.07563" lon="6.17115">
        <ele>647.6</ele>
        <time>2020-10-18T08:11:34Z</time>
      </trkpt>
      <trkpt lat="44.07563" lon="6.17115">
        <ele>647.6</ele>
        <time>2020-10-18T08:11:36Z</time>
      </trkpt>
      <trkpt lat="44.07563" lon="6.17114">
        <ele>647.6</ele>
        <time>2020-10-18T08:11:37Z</time>
      </trkpt>
      <trkpt lat="44.07563" lon="6.17113">
        <ele>647.8</ele>
        <time>2020-10-18T08:11:38Z</time>
      </trkpt>
      <trkpt lat="44.07563" lon="6.1711">
        <ele>647.8</ele>
        <time>2020-10-18T08:11:40Z</time>
      </trkpt>
      <trkpt lat="44.07563" lon="6.17108">
        <ele>647.8</ele>
        <time>2020-10-18T08:11:41Z</time>
      </trkpt>
      <trkpt lat="44.07564" lon="6.17107">
        <ele>647.8</ele>
        <time>2020-10-18T08:11:42Z</time>
      </trkpt>
      <trkpt lat="44.07564" lon="6.17105">
        <ele>647.8</ele>
        <time>2020-10-18T08:11:44Z</time>
      </trkpt>
      <trkpt lat="44.07565" lon="6.17103">
        <ele>647.8</ele>
        <time>2020-10-18T08:11:45Z</time>
      </trkpt>
      <trkpt lat="44.07565" lon="6.17102">
        <ele>648</ele>
        <time>2020-10-18T08:11:46Z</time>
      </trkpt>
      <trkpt lat="44.07566" lon="6.17101">
        <ele>648</ele>
        <time>2020-10-18T08:11:47Z</time>
      </trkpt>
      <trkpt lat="44.07566" lon="6.17099">
        <ele>648.4</ele>
        <time>2020-10-18T08:11:48Z</time>
      </trkpt>
      <trkpt lat="44.07566" lon="6.17098">
        <ele>648.4</ele>
        <time>2020-10-18T08:11:49Z</time>
      </trkpt>
      <trkpt lat="44.07566" lon="6.17097">
        <ele>648.8</ele>
        <time>2020-10-18T08:11:50Z</time>
      </trkpt>
      <trkpt lat="44.07567" lon="6.17096">
        <ele>648.8</ele>
        <time>2020-10-18T08:11:51Z</time>
      </trkpt>
      <trkpt lat="44.07567" lon="6.17094">
        <ele>649</ele>
        <time>2020-10-18T08:11:52Z</time>
      </trkpt>
      <trkpt lat="44.07568" lon="6.17093">
        <ele>649.4</ele>
        <time>2020-10-18T08:11:53Z</time>
      </trkpt>
      <trkpt lat="44.07568" lon="6.17091">
        <ele>649.8</ele>
        <time>2020-10-18T08:11:54Z</time>
      </trkpt>
      <trkpt lat="44.07569" lon="6.1709">
        <ele>650</ele>
        <time>2020-10-18T08:11:55Z</time>
      </trkpt>
      <trkpt lat="44.07569" lon="6.17089">
        <ele>650.4</ele>
        <time>2020-10-18T08:11:56Z</time>
      </trkpt>
      <trkpt lat="44.0757" lon="6.17087">
        <ele>650.8</ele>
        <time>2020-10-18T08:11:57Z</time>
      </trkpt>
      <trkpt lat="44.0757" lon="6.17086">
        <ele>650.8</ele>
        <time>2020-10-18T08:11:58Z</time>
      </trkpt>
      <trkpt lat="44.0757" lon="6.17084">
        <ele>651.2</ele>
        <time>2020-10-18T08:11:59Z</time>
      </trkpt>
      <trkpt lat="44.07571" lon="6.17083">
        <ele>651.6</ele>
        <time>2020-10-18T08:12:00Z</time>
      </trkpt>
      <trkpt lat="44.07571" lon="6.17081">
        <ele>651.8</ele>
        <time>2020-10-18T08:12:01Z</time>
      </trkpt>
      <trkpt lat="44.07572" lon="6.1708">
        <ele>652.4</ele>
        <time>2020-10-18T08:12:02Z</time>
      </trkpt>
      <trkpt lat="44.07572" lon="6.17079">
        <ele>652.8</ele>
        <time>2020-10-18T08:12:03Z</time>
      </trkpt>
      <trkpt lat="44.07572" lon="6.17077">
        <ele>653</ele>
        <time>2020-10-18T08:12:04Z</time>
      </trkpt>
      <trkpt lat="44.07571" lon="6.17075">
        <ele>653.4</ele>
        <time>2020-10-18T08:12:05Z</time>
      </trkpt>
      <trkpt lat="44.07571" lon="6.17073">
        <ele>653.8</ele>
        <time>2020-10-18T08:12:06Z</time>
      </trkpt>
      <trkpt lat="44.07571" lon="6.17072">
        <ele>654</ele>
        <time>2020-10-18T08:12:07Z</time>
      </trkpt>
      <trkpt lat="44.07572" lon="6.1707">
        <ele>654.4</ele>
        <time>2020-10-18T08:12:08Z</time>
      </trkpt>
      <trkpt lat="44.07572" lon="6.17068">
        <ele>654.6</ele>
        <time>2020-10-18T08:12:09Z</time>
      </trkpt>
      <trkpt lat="44.07572" lon="6.17067">
        <ele>655.2</ele>
        <time>2020-10-18T08:12:10Z</time>
      </trkpt>
      <trkpt lat="44.07572" lon="6.17065">
        <ele>655.2</ele>
        <time>2020-10-18T08:12:11Z</time>
      </trkpt>
      <trkpt lat="44.07572" lon="6.17064">
        <ele>655.6</ele>
        <time>2020-10-18T08:12:12Z</time>
      </trkpt>
      <trkpt lat="44.07572" lon="6.17062">
        <ele>655.8</ele>
        <time>2020-10-18T08:12:13Z</time>
      </trkpt>
      <trkpt lat="44.07572" lon="6.17059">
        <ele>656</ele>
        <time>2020-10-18T08:12:14Z</time>
      </trkpt>
      <trkpt lat="44.07572" lon="6.17057">
        <ele>656.2</ele>
        <time>2020-10-18T08:12:15Z</time>
      </trkpt>
      <trkpt lat="44.07572" lon="6.17055">
        <ele>656.4</ele>
        <time>2020-10-18T08:12:16Z</time>
      </trkpt>
      <trkpt lat="44.07572" lon="6.17054">
        <ele>656.6</ele>
        <time>2020-10-18T08:12:17Z</time>
      </trkpt>
      <trkpt lat="44.07572" lon="6.17053">
        <ele>656.8</ele>
        <time>2020-10-18T08:12:18Z</time>
      </trkpt>
      <trkpt lat="44.07571" lon="6.17051">
        <ele>656.8</ele>
        <time>2020-10-18T08:12:19Z</time>
      </trkpt>
      <trkpt lat="44.07571" lon="6.17049">
        <ele>656.8</ele>
        <time>2020-10-18T08:12:20Z</time>
      </trkpt>
      <trkpt lat="44.07571" lon="6.17047">
        <ele>656.8</ele>
        <time>2020-10-18T08:12:21Z</time>
      </trkpt>
      <trkpt lat="44.07571" lon="6.17044">
        <ele>657</ele>
        <time>2020-10-18T08:12:22Z</time>
      </trkpt>
      <trkpt lat="44.07571" lon="6.17042">
        <ele>657</ele>
        <time>2020-10-18T08:12:23Z</time>
      </trkpt>
      <trkpt lat="44.07571" lon="6.1704">
        <ele>657</ele>
        <time>2020-10-18T08:12:24Z</time>
      </trkpt>
      <trkpt lat="44.07571" lon="6.17038">
        <ele>657.2</ele>
        <time>2020-10-18T08:12:25Z</time>
      </trkpt>
      <trkpt lat="44.07571" lon="6.17036">
        <ele>657.4</ele>
        <time>2020-10-18T08:12:26Z</time>
      </trkpt>
      <trkpt lat="44.07572" lon="6.17034">
        <ele>657.4</ele>
        <time>2020-10-18T08:12:27Z</time>
      </trkpt>
      <trkpt lat="44.07572" lon="6.17032">
        <ele>657.6</ele>
        <time>2020-10-18T08:12:28Z</time>
      </trkpt>
      <trkpt lat="44.07572" lon="6.1703">
        <ele>657.6</ele>
        <time>2020-10-18T08:12:29Z</time>
      </trkpt>
      <trkpt lat="44.07571" lon="6.17028">
        <ele>657.6</ele>
        <time>2020-10-18T08:12:30Z</time>
      </trkpt>
      <trkpt lat="44.07571" lon="6.17026">
        <ele>658</ele>
        <time>2020-10-18T08:12:31Z</time>
      </trkpt>
      <trkpt lat="44.07571" lon="6.17025">
        <ele>658</ele>
        <time>2020-10-18T08:12:32Z</time>
      </trkpt>
      <trkpt lat="44.07571" lon="6.17023">
        <ele>658.2</ele>
        <time>2020-10-18T08:12:33Z</time>
      </trkpt>
      <trkpt lat="44.0757" lon="6.17021">
        <ele>658.6</ele>
        <time>2020-10-18T08:12:34Z</time>
      </trkpt>
      <trkpt lat="44.0757" lon="6.17019">
        <ele>658.6</ele>
        <time>2020-10-18T08:12:35Z</time>
      </trkpt>
      <trkpt lat="44.0757" lon="6.17017">
        <ele>659</ele>
        <time>2020-10-18T08:12:36Z</time>
      </trkpt>
      <trkpt lat="44.0757" lon="6.17014">
        <ele>659</ele>
        <time>2020-10-18T08:12:37Z</time>
      </trkpt>
      <trkpt lat="44.0757" lon="6.17011">
        <ele>659.2</ele>
        <time>2020-10-18T08:12:38Z</time>
      </trkpt>
      <trkpt lat="44.07571" lon="6.17009">
        <ele>659.8</ele>
        <time>2020-10-18T08:12:39Z</time>
      </trkpt>
      <trkpt lat="44.07571" lon="6.17007">
        <ele>660</ele>
        <time>2020-10-18T08:12:40Z</time>
      </trkpt>
      <trkpt lat="44.07571" lon="6.17005">
        <ele>660.2</ele>
        <time>2020-10-18T08:12:41Z</time>
      </trkpt>
      <trkpt lat="44.07572" lon="6.17004">
        <ele>660.4</ele>
        <time>2020-10-18T08:12:42Z</time>
      </trkpt>
      <trkpt lat="44.07572" lon="6.17001">
        <ele>660.6</ele>
        <time>2020-10-18T08:12:43Z</time>
      </trkpt>
      <trkpt lat="44.07573" lon="6.16999">
        <ele>660.6</ele>
        <time>2020-10-18T08:12:44Z</time>
      </trkpt>
      <trkpt lat="44.07574" lon="6.16996">
        <ele>660.8</ele>
        <time>2020-10-18T08:12:45Z</time>
      </trkpt>
      <trkpt lat="44.07575" lon="6.16993">
        <ele>660.8</ele>
        <time>2020-10-18T08:12:46Z</time>
      </trkpt>
      <trkpt lat="44.07577" lon="6.1699">
        <ele>661</ele>
        <time>2020-10-18T08:12:47Z</time>
      </trkpt>
      <trkpt lat="44.07578" lon="6.16987">
        <ele>660.8</ele>
        <time>2020-10-18T08:12:48Z</time>
      </trkpt>
      <trkpt lat="44.07579" lon="6.16985">
        <ele>660.8</ele>
        <time>2020-10-18T08:12:49Z</time>
      </trkpt>
      <trkpt lat="44.07581" lon="6.16984">
        <ele>661</ele>
        <time>2020-10-18T08:12:50Z</time>
      </trkpt>
      <trkpt lat="44.07583" lon="6.16982">
        <ele>661</ele>
        <time>2020-10-18T08:12:51Z</time>
      </trkpt>
      <trkpt lat="44.07585" lon="6.1698">
        <ele>661</ele>
        <time>2020-10-18T08:12:52Z</time>
      </trkpt>
      <trkpt lat="44.0759" lon="6.16976">
        <ele>661.2</ele>
        <time>2020-10-18T08:12:54Z</time>
      </trkpt>
      <trkpt lat="44.07592" lon="6.16974">
        <ele>661</ele>
        <time>2020-10-18T08:12:55Z</time>
      </trkpt>
      <trkpt lat="44.07593" lon="6.16971">
        <ele>661.2</ele>
        <time>2020-10-18T08:12:56Z</time>
      </trkpt>
      <trkpt lat="44.07594" lon="6.16967">
        <ele>661.4</ele>
        <time>2020-10-18T08:12:57Z</time>
      </trkpt>
      <trkpt lat="44.07595" lon="6.16964">
        <ele>661.2</ele>
        <time>2020-10-18T08:12:58Z</time>
      </trkpt>
      <trkpt lat="44.07596" lon="6.1696">
        <ele>661.4</ele>
        <time>2020-10-18T08:12:59Z</time>
      </trkpt>
      <trkpt lat="44.07597" lon="6.16958">
        <ele>661.4</ele>
        <time>2020-10-18T08:13:00Z</time>
      </trkpt>
      <trkpt lat="44.07598" lon="6.16955">
        <ele>661.4</ele>
        <time>2020-10-18T08:13:01Z</time>
      </trkpt>
      <trkpt lat="44.076" lon="6.16954">
        <ele>661.4</ele>
        <time>2020-10-18T08:13:02Z</time>
      </trkpt>
      <trkpt lat="44.07601" lon="6.16952">
        <ele>661.4</ele>
        <time>2020-10-18T08:13:03Z</time>
      </trkpt>
      <trkpt lat="44.07602" lon="6.1695">
        <ele>661.2</ele>
        <time>2020-10-18T08:13:04Z</time>
      </trkpt>
      <trkpt lat="44.07605" lon="6.16946">
        <ele>661.4</ele>
        <time>2020-10-18T08:13:06Z</time>
      </trkpt>
      <trkpt lat="44.07606" lon="6.16944">
        <ele>661.4</ele>
        <time>2020-10-18T08:13:07Z</time>
      </trkpt>
      <trkpt lat="44.07607" lon="6.16943">
        <ele>661.4</ele>
        <time>2020-10-18T08:13:08Z</time>
      </trkpt>
      <trkpt lat="44.07609" lon="6.16942">
        <ele>661.4</ele>
        <time>2020-10-18T08:13:09Z</time>
      </trkpt>
      <trkpt lat="44.0761" lon="6.16941">
        <ele>661.6</ele>
        <time>2020-10-18T08:13:10Z</time>
      </trkpt>
      <trkpt lat="44.07611" lon="6.1694">
        <ele>661.8</ele>
        <time>2020-10-18T08:13:11Z</time>
      </trkpt>
      <trkpt lat="44.07613" lon="6.16939">
        <ele>662</ele>
        <time>2020-10-18T08:13:12Z</time>
      </trkpt>
      <trkpt lat="44.07615" lon="6.16938">
        <ele>662.2</ele>
        <time>2020-10-18T08:13:13Z</time>
      </trkpt>
      <trkpt lat="44.07617" lon="6.16937">
        <ele>662.2</ele>
        <time>2020-10-18T08:13:14Z</time>
      </trkpt>
      <trkpt lat="44.07619" lon="6.16936">
        <ele>662.2</ele>
        <time>2020-10-18T08:13:15Z</time>
      </trkpt>
      <trkpt lat="44.07621" lon="6.16935">
        <ele>662.4</ele>
        <time>2020-10-18T08:13:16Z</time>
      </trkpt>
      <trkpt lat="44.07623" lon="6.16933">
        <ele>662.4</ele>
        <time>2020-10-18T08:13:17Z</time>
      </trkpt>
      <trkpt lat="44.07624" lon="6.16932">
        <ele>662.8</ele>
        <time>2020-10-18T08:13:18Z</time>
      </trkpt>
      <trkpt lat="44.07626" lon="6.16932">
        <ele>663.2</ele>
        <time>2020-10-18T08:13:20Z</time>
      </trkpt>
      <trkpt lat="44.07627" lon="6.16932">
        <ele>663.4</ele>
        <time>2020-10-18T08:13:21Z</time>
      </trkpt>
      <trkpt lat="44.07629" lon="6.16931">
        <ele>663.8</ele>
        <time>2020-10-18T08:13:22Z</time>
      </trkpt>
      <trkpt lat="44.0763" lon="6.1693">
        <ele>663.8</ele>
        <time>2020-10-18T08:13:23Z</time>
      </trkpt>
      <trkpt lat="44.07631" lon="6.1693">
        <ele>664.2</ele>
        <time>2020-10-18T08:13:24Z</time>
      </trkpt>
      <trkpt lat="44.07632" lon="6.16929">
        <ele>664.4</ele>
        <time>2020-10-18T08:13:25Z</time>
      </trkpt>
      <trkpt lat="44.07633" lon="6.16928">
        <ele>664.8</ele>
        <time>2020-10-18T08:13:26Z</time>
      </trkpt>
      <trkpt lat="44.07633" lon="6.16928">
        <ele>664.8</ele>
        <time>2020-10-18T08:13:27Z</time>
      </trkpt>
      <trkpt lat="44.07634" lon="6.16927">
        <ele>664.8</ele>
        <time>2020-10-18T08:13:28Z</time>
      </trkpt>
      <trkpt lat="44.07635" lon="6.16926">
        <ele>665</ele>
        <time>2020-10-18T08:13:29Z</time>
      </trkpt>
      <trkpt lat="44.07635" lon="6.16926">
        <ele>665.2</ele>
        <time>2020-10-18T08:13:30Z</time>
      </trkpt>
      <trkpt lat="44.07636" lon="6.16925">
        <ele>665.4</ele>
        <time>2020-10-18T08:13:31Z</time>
      </trkpt>
      <trkpt lat="44.07636" lon="6.16924">
        <ele>665.6</ele>
        <time>2020-10-18T08:13:32Z</time>
      </trkpt>
      <trkpt lat="44.07636" lon="6.16924">
        <ele>665.8</ele>
        <time>2020-10-18T08:13:33Z</time>
      </trkpt>
      <trkpt lat="44.07636" lon="6.16923">
        <ele>665.8</ele>
        <time>2020-10-18T08:13:34Z</time>
      </trkpt>
      <trkpt lat="44.07637" lon="6.16923">
        <ele>665.8</ele>
        <time>2020-10-18T08:13:35Z</time>
      </trkpt>
      <trkpt lat="44.07637" lon="6.16922">
        <ele>666</ele>
        <time>2020-10-18T08:13:36Z</time>
      </trkpt>
      <trkpt lat="44.07638" lon="6.16922">
        <ele>666.2</ele>
        <time>2020-10-18T08:13:37Z</time>
      </trkpt>
      <trkpt lat="44.07639" lon="6.16922">
        <ele>666.4</ele>
        <time>2020-10-18T08:13:38Z</time>
      </trkpt>
      <trkpt lat="44.0764" lon="6.16922">
        <ele>666.4</ele>
        <time>2020-10-18T08:13:39Z</time>
      </trkpt>
      <trkpt lat="44.0764" lon="6.16922">
        <ele>666.6</ele>
        <time>2020-10-18T08:13:40Z</time>
      </trkpt>
      <trkpt lat="44.07641" lon="6.16922">
        <ele>667</ele>
        <time>2020-10-18T08:13:42Z</time>
      </trkpt>
      <trkpt lat="44.07641" lon="6.16922">
        <ele>667</ele>
        <time>2020-10-18T08:13:43Z</time>
      </trkpt>
      <trkpt lat="44.07641" lon="6.16922">
        <ele>667.2</ele>
        <time>2020-10-18T08:13:44Z</time>
      </trkpt>
      <trkpt lat="44.07642" lon="6.16923">
        <ele>667.4</ele>
        <time>2020-10-18T08:13:46Z</time>
      </trkpt>
      <trkpt lat="44.07643" lon="6.16923">
        <ele>667.6</ele>
        <time>2020-10-18T08:13:47Z</time>
      </trkpt>
      <trkpt lat="44.07644" lon="6.16924">
        <ele>667.6</ele>
        <time>2020-10-18T08:13:48Z</time>
      </trkpt>
      <trkpt lat="44.07645" lon="6.16924">
        <ele>667.8</ele>
        <time>2020-10-18T08:13:49Z</time>
      </trkpt>
      <trkpt lat="44.07647" lon="6.16926">
        <ele>668</ele>
        <time>2020-10-18T08:13:50Z</time>
      </trkpt>
      <trkpt lat="44.07648" lon="6.16927">
        <ele>668</ele>
        <time>2020-10-18T08:13:51Z</time>
      </trkpt>
      <trkpt lat="44.07649" lon="6.16928">
        <ele>668.2</ele>
        <time>2020-10-18T08:13:52Z</time>
      </trkpt>
      <trkpt lat="44.0765" lon="6.16928">
        <ele>668</ele>
        <time>2020-10-18T08:13:53Z</time>
      </trkpt>
      <trkpt lat="44.07652" lon="6.16929">
        <ele>668</ele>
        <time>2020-10-18T08:13:54Z</time>
      </trkpt>
      <trkpt lat="44.07653" lon="6.16929">
        <ele>668</ele>
        <time>2020-10-18T08:13:55Z</time>
      </trkpt>
      <trkpt lat="44.07654" lon="6.16929">
        <ele>668.4</ele>
        <time>2020-10-18T08:13:56Z</time>
      </trkpt>
      <trkpt lat="44.07654" lon="6.16928">
        <ele>668.6</ele>
        <time>2020-10-18T08:13:57Z</time>
      </trkpt>
      <trkpt lat="44.07655" lon="6.16928">
        <ele>668.6</ele>
        <time>2020-10-18T08:13:58Z</time>
      </trkpt>
      <trkpt lat="44.07655" lon="6.16928">
        <ele>668.6</ele>
        <time>2020-10-18T08:13:59Z</time>
      </trkpt>
      <trkpt lat="44.07655" lon="6.16928">
        <ele>669</ele>
        <time>2020-10-18T08:14:00Z</time>
      </trkpt>
      <trkpt lat="44.07655" lon="6.16928">
        <ele>669.8</ele>
        <time>2020-10-18T08:14:02Z</time>
      </trkpt>
      <trkpt lat="44.07656" lon="6.16928">
        <ele>670.6</ele>
        <time>2020-10-18T08:14:04Z</time>
      </trkpt>
      <trkpt lat="44.07656" lon="6.16928">
        <ele>671.2</ele>
        <time>2020-10-18T08:14:06Z</time>
      </trkpt>
      <trkpt lat="44.07656" lon="6.16928">
        <ele>671.6</ele>
        <time>2020-10-18T08:14:08Z</time>
      </trkpt>
      <trkpt lat="44.07656" lon="6.16928">
        <ele>671.8</ele>
        <time>2020-10-18T08:14:09Z</time>
      </trkpt>
      <trkpt lat="44.07656" lon="6.16928">
        <ele>671.8</ele>
        <time>2020-10-18T08:14:10Z</time>
      </trkpt>
      <trkpt lat="44.07656" lon="6.16928">
        <ele>671.8</ele>
        <time>2020-10-18T08:14:12Z</time>
      </trkpt>
      <trkpt lat="44.07657" lon="6.16927">
        <ele>671.8</ele>
        <time>2020-10-18T08:14:14Z</time>
      </trkpt>
      <trkpt lat="44.07657" lon="6.16927">
        <ele>671.8</ele>
        <time>2020-10-18T08:14:16Z</time>
      </trkpt>
      <trkpt lat="44.07657" lon="6.16927">
        <ele>671.8</ele>
        <time>2020-10-18T08:14:18Z</time>
      </trkpt>
      <trkpt lat="44.07657" lon="6.16925">
        <ele>671.8</ele>
        <time>2020-10-18T08:14:19Z</time>
      </trkpt>
      <trkpt lat="44.07657" lon="6.16924">
        <ele>671.8</ele>
        <time>2020-10-18T08:14:20Z</time>
      </trkpt>
      <trkpt lat="44.07659" lon="6.16922">
        <ele>672</ele>
        <time>2020-10-18T08:14:22Z</time>
      </trkpt>
      <trkpt lat="44.07661" lon="6.16919">
        <ele>672.2</ele>
        <time>2020-10-18T08:14:24Z</time>
      </trkpt>
      <trkpt lat="44.07661" lon="6.16919">
        <ele>672.4</ele>
        <time>2020-10-18T08:14:25Z</time>
      </trkpt>
      <trkpt lat="44.07662" lon="6.16917">
        <ele>672.4</ele>
        <time>2020-10-18T08:14:26Z</time>
      </trkpt>
      <trkpt lat="44.07663" lon="6.16917">
        <ele>672.6</ele>
        <time>2020-10-18T08:14:27Z</time>
      </trkpt>
      <trkpt lat="44.07664" lon="6.16916">
        <ele>672.6</ele>
        <time>2020-10-18T08:14:28Z</time>
      </trkpt>
      <trkpt lat="44.07665" lon="6.16915">
        <ele>672.8</ele>
        <time>2020-10-18T08:14:29Z</time>
      </trkpt>
      <trkpt lat="44.07666" lon="6.16914">
        <ele>672.8</ele>
        <time>2020-10-18T08:14:30Z</time>
      </trkpt>
      <trkpt lat="44.07666" lon="6.16913">
        <ele>673.4</ele>
        <time>2020-10-18T08:14:31Z</time>
      </trkpt>
      <trkpt lat="44.07667" lon="6.16912">
        <ele>673.4</ele>
        <time>2020-10-18T08:14:32Z</time>
      </trkpt>
      <trkpt lat="44.07667" lon="6.16911">
        <ele>673.8</ele>
        <time>2020-10-18T08:14:33Z</time>
      </trkpt>
      <trkpt lat="44.07668" lon="6.1691">
        <ele>674</ele>
        <time>2020-10-18T08:14:34Z</time>
      </trkpt>
      <trkpt lat="44.07669" lon="6.16909">
        <ele>674</ele>
        <time>2020-10-18T08:14:35Z</time>
      </trkpt>
      <trkpt lat="44.07669" lon="6.16908">
        <ele>674.4</ele>
        <time>2020-10-18T08:14:36Z</time>
      </trkpt>
      <trkpt lat="44.07669" lon="6.16906">
        <ele>674.8</ele>
        <time>2020-10-18T08:14:37Z</time>
      </trkpt>
      <trkpt lat="44.07669" lon="6.16905">
        <ele>675</ele>
        <time>2020-10-18T08:14:38Z</time>
      </trkpt>
      <trkpt lat="44.0767" lon="6.16903">
        <ele>675.4</ele>
        <time>2020-10-18T08:14:39Z</time>
      </trkpt>
      <trkpt lat="44.0767" lon="6.16902">
        <ele>675.8</ele>
        <time>2020-10-18T08:14:40Z</time>
      </trkpt>
      <trkpt lat="44.07671" lon="6.16901">
        <ele>676.2</ele>
        <time>2020-10-18T08:14:41Z</time>
      </trkpt>
      <trkpt lat="44.07672" lon="6.16899">
        <ele>676.4</ele>
        <time>2020-10-18T08:14:42Z</time>
      </trkpt>
      <trkpt lat="44.07672" lon="6.16898">
        <ele>676.6</ele>
        <time>2020-10-18T08:14:43Z</time>
      </trkpt>
      <trkpt lat="44.07673" lon="6.16897">
        <ele>677</ele>
        <time>2020-10-18T08:14:44Z</time>
      </trkpt>
      <trkpt lat="44.07674" lon="6.16896">
        <ele>677</ele>
        <time>2020-10-18T08:14:45Z</time>
      </trkpt>
      <trkpt lat="44.07674" lon="6.16895">
        <ele>677.4</ele>
        <time>2020-10-18T08:14:46Z</time>
      </trkpt>
      <trkpt lat="44.07675" lon="6.16894">
        <ele>677.6</ele>
        <time>2020-10-18T08:14:47Z</time>
      </trkpt>
      <trkpt lat="44.07676" lon="6.16893">
        <ele>678</ele>
        <time>2020-10-18T08:14:48Z</time>
      </trkpt>
      <trkpt lat="44.07677" lon="6.16892">
        <ele>678.4</ele>
        <time>2020-10-18T08:14:49Z</time>
      </trkpt>
      <trkpt lat="44.07677" lon="6.16891">
        <ele>678.8</ele>
        <time>2020-10-18T08:14:50Z</time>
      </trkpt>
      <trkpt lat="44.07678" lon="6.1689">
        <ele>679</ele>
        <time>2020-10-18T08:14:51Z</time>
      </trkpt>
      <trkpt lat="44.07679" lon="6.16889">
        <ele>679.2</ele>
        <time>2020-10-18T08:14:52Z</time>
      </trkpt>
      <trkpt lat="44.0768" lon="6.16889">
        <ele>679.6</ele>
        <time>2020-10-18T08:14:53Z</time>
      </trkpt>
      <trkpt lat="44.07681" lon="6.16888">
        <ele>679.8</ele>
        <time>2020-10-18T08:14:54Z</time>
      </trkpt>
      <trkpt lat="44.07682" lon="6.16887">
        <ele>680.2</ele>
        <time>2020-10-18T08:14:55Z</time>
      </trkpt>
      <trkpt lat="44.07682" lon="6.16885">
        <ele>680.2</ele>
        <time>2020-10-18T08:14:56Z</time>
      </trkpt>
      <trkpt lat="44.07683" lon="6.16884">
        <ele>680.4</ele>
        <time>2020-10-18T08:14:57Z</time>
      </trkpt>
      <trkpt lat="44.07684" lon="6.16883">
        <ele>680.8</ele>
        <time>2020-10-18T08:14:58Z</time>
      </trkpt>
      <trkpt lat="44.07684" lon="6.16881">
        <ele>681</ele>
        <time>2020-10-18T08:14:59Z</time>
      </trkpt>
      <trkpt lat="44.07685" lon="6.16881">
        <ele>681.2</ele>
        <time>2020-10-18T08:15:00Z</time>
      </trkpt>
      <trkpt lat="44.07686" lon="6.1688">
        <ele>681.4</ele>
        <time>2020-10-18T08:15:01Z</time>
      </trkpt>
      <trkpt lat="44.07687" lon="6.1688">
        <ele>681.6</ele>
        <time>2020-10-18T08:15:02Z</time>
      </trkpt>
      <trkpt lat="44.07688" lon="6.1688">
        <ele>681.6</ele>
        <time>2020-10-18T08:15:03Z</time>
      </trkpt>
      <trkpt lat="44.07688" lon="6.16879">
        <ele>681.8</ele>
        <time>2020-10-18T08:15:04Z</time>
      </trkpt>
      <trkpt lat="44.07689" lon="6.16879">
        <ele>681.6</ele>
        <time>2020-10-18T08:15:06Z</time>
      </trkpt>
      <trkpt lat="44.0769" lon="6.16879">
        <ele>681.8</ele>
        <time>2020-10-18T08:15:07Z</time>
      </trkpt>
      <trkpt lat="44.07691" lon="6.16879">
        <ele>681.8</ele>
        <time>2020-10-18T08:15:08Z</time>
      </trkpt>
      <trkpt lat="44.07692" lon="6.16879">
        <ele>682.2</ele>
        <time>2020-10-18T08:15:09Z</time>
      </trkpt>
      <trkpt lat="44.07693" lon="6.16878">
        <ele>682.2</ele>
        <time>2020-10-18T08:15:10Z</time>
      </trkpt>
      <trkpt lat="44.07693" lon="6.16878">
        <ele>682.2</ele>
        <time>2020-10-18T08:15:11Z</time>
      </trkpt>
      <trkpt lat="44.07693" lon="6.16877">
        <ele>682.4</ele>
        <time>2020-10-18T08:15:12Z</time>
      </trkpt>
      <trkpt lat="44.07694" lon="6.16877">
        <ele>682.4</ele>
        <time>2020-10-18T08:15:13Z</time>
      </trkpt>
      <trkpt lat="44.07694" lon="6.16877">
        <ele>682.6</ele>
        <time>2020-10-18T08:15:14Z</time>
      </trkpt>
      <trkpt lat="44.07694" lon="6.16877">
        <ele>682.8</ele>
        <time>2020-10-18T08:15:16Z</time>
      </trkpt>
      <trkpt lat="44.07694" lon="6.16877">
        <ele>682.8</ele>
        <time>2020-10-18T08:15:17Z</time>
      </trkpt>
      <trkpt lat="44.07694" lon="6.16878">
        <ele>683</ele>
        <time>2020-10-18T08:15:18Z</time>
      </trkpt>
      <trkpt lat="44.07694" lon="6.16878">
        <ele>683.4</ele>
        <time>2020-10-18T08:15:20Z</time>
      </trkpt>
      <trkpt lat="44.07694" lon="6.16879">
        <ele>683.4</ele>
        <time>2020-10-18T08:15:22Z</time>
      </trkpt>
      <trkpt lat="44.07694" lon="6.16877">
        <ele>683.8</ele>
        <time>2020-10-18T08:15:24Z</time>
      </trkpt>
      <trkpt lat="44.07695" lon="6.16876">
        <ele>683.6</ele>
        <time>2020-10-18T08:15:25Z</time>
      </trkpt>
      <trkpt lat="44.07695" lon="6.16875">
        <ele>683.8</ele>
        <time>2020-10-18T08:15:26Z</time>
      </trkpt>
      <trkpt lat="44.07695" lon="6.16874">
        <ele>683.6</ele>
        <time>2020-10-18T08:15:27Z</time>
      </trkpt>
      <trkpt lat="44.07695" lon="6.16873">
        <ele>683.8</ele>
        <time>2020-10-18T08:15:28Z</time>
      </trkpt>
      <trkpt lat="44.07695" lon="6.16872">
        <ele>683.8</ele>
        <time>2020-10-18T08:15:29Z</time>
      </trkpt>
      <trkpt lat="44.07694" lon="6.1687">
        <ele>684</ele>
        <time>2020-10-18T08:15:30Z</time>
      </trkpt>
      <trkpt lat="44.07694" lon="6.16868">
        <ele>684</ele>
        <time>2020-10-18T08:15:31Z</time>
      </trkpt>
      <trkpt lat="44.07694" lon="6.16866">
        <ele>684</ele>
        <time>2020-10-18T08:15:32Z</time>
      </trkpt>
      <trkpt lat="44.07693" lon="6.16863">
        <ele>684.2</ele>
        <time>2020-10-18T08:15:34Z</time>
      </trkpt>
      <trkpt lat="44.07693" lon="6.16861">
        <ele>684.4</ele>
        <time>2020-10-18T08:15:35Z</time>
      </trkpt>
      <trkpt lat="44.07693" lon="6.16859">
        <ele>684.6</ele>
        <time>2020-10-18T08:15:36Z</time>
      </trkpt>
      <trkpt lat="44.07692" lon="6.16856">
        <ele>684.6</ele>
        <time>2020-10-18T08:15:37Z</time>
      </trkpt>
      <trkpt lat="44.07691" lon="6.16855">
        <ele>684.8</ele>
        <time>2020-10-18T08:15:38Z</time>
      </trkpt>
      <trkpt lat="44.0769" lon="6.16853">
        <ele>685</ele>
        <time>2020-10-18T08:15:39Z</time>
      </trkpt>
      <trkpt lat="44.07689" lon="6.16852">
        <ele>685</ele>
        <time>2020-10-18T08:15:40Z</time>
      </trkpt>
      <trkpt lat="44.07688" lon="6.1685">
        <ele>685.4</ele>
        <time>2020-10-18T08:15:41Z</time>
      </trkpt>
      <trkpt lat="44.07688" lon="6.16849">
        <ele>685.8</ele>
        <time>2020-10-18T08:15:42Z</time>
      </trkpt>
      <trkpt lat="44.07688" lon="6.16847">
        <ele>686.2</ele>
        <time>2020-10-18T08:15:43Z</time>
      </trkpt>
      <trkpt lat="44.07689" lon="6.16845">
        <ele>686.2</ele>
        <time>2020-10-18T08:15:44Z</time>
      </trkpt>
      <trkpt lat="44.0769" lon="6.16844">
        <ele>686.6</ele>
        <time>2020-10-18T08:15:45Z</time>
      </trkpt>
      <trkpt lat="44.07691" lon="6.16843">
        <ele>686.6</ele>
        <time>2020-10-18T08:15:46Z</time>
      </trkpt>
      <trkpt lat="44.07691" lon="6.16841">
        <ele>687</ele>
        <time>2020-10-18T08:15:47Z</time>
      </trkpt>
      <trkpt lat="44.07692" lon="6.1684">
        <ele>687.4</ele>
        <time>2020-10-18T08:15:48Z</time>
      </trkpt>
      <trkpt lat="44.07693" lon="6.1684">
        <ele>687.6</ele>
        <time>2020-10-18T08:15:49Z</time>
      </trkpt>
      <trkpt lat="44.07694" lon="6.16839">
        <ele>688.2</ele>
        <time>2020-10-18T08:15:50Z</time>
      </trkpt>
      <trkpt lat="44.07695" lon="6.16839">
        <ele>688.4</ele>
        <time>2020-10-18T08:15:51Z</time>
      </trkpt>
      <trkpt lat="44.07696" lon="6.16839">
        <ele>688.8</ele>
        <time>2020-10-18T08:15:52Z</time>
      </trkpt>
      <trkpt lat="44.07698" lon="6.16839">
        <ele>689.2</ele>
        <time>2020-10-18T08:15:53Z</time>
      </trkpt>
      <trkpt lat="44.07699" lon="6.16839">
        <ele>689.4</ele>
        <time>2020-10-18T08:15:54Z</time>
      </trkpt>
      <trkpt lat="44.077" lon="6.16838">
        <ele>689.8</ele>
        <time>2020-10-18T08:15:55Z</time>
      </trkpt>
      <trkpt lat="44.07701" lon="6.16836">
        <ele>690.2</ele>
        <time>2020-10-18T08:15:56Z</time>
      </trkpt>
      <trkpt lat="44.07701" lon="6.16834">
        <ele>690.6</ele>
        <time>2020-10-18T08:15:57Z</time>
      </trkpt>
      <trkpt lat="44.07702" lon="6.16833">
        <ele>690.6</ele>
        <time>2020-10-18T08:15:58Z</time>
      </trkpt>
      <trkpt lat="44.07703" lon="6.16831">
        <ele>691</ele>
        <time>2020-10-18T08:15:59Z</time>
      </trkpt>
      <trkpt lat="44.07703" lon="6.16829">
        <ele>691.4</ele>
        <time>2020-10-18T08:16:00Z</time>
      </trkpt>
      <trkpt lat="44.07704" lon="6.16827">
        <ele>691.6</ele>
        <time>2020-10-18T08:16:01Z</time>
      </trkpt>
      <trkpt lat="44.07704" lon="6.16825">
        <ele>692</ele>
        <time>2020-10-18T08:16:02Z</time>
      </trkpt>
      <trkpt lat="44.07704" lon="6.16823">
        <ele>692.6</ele>
        <time>2020-10-18T08:16:03Z</time>
      </trkpt>
      <trkpt lat="44.07705" lon="6.16821">
        <ele>693</ele>
        <time>2020-10-18T08:16:04Z</time>
      </trkpt>
      <trkpt lat="44.07706" lon="6.16819">
        <ele>693.4</ele>
        <time>2020-10-18T08:16:05Z</time>
      </trkpt>
      <trkpt lat="44.07706" lon="6.16817">
        <ele>693.4</ele>
        <time>2020-10-18T08:16:06Z</time>
      </trkpt>
      <trkpt lat="44.07707" lon="6.16815">
        <ele>693.8</ele>
        <time>2020-10-18T08:16:07Z</time>
      </trkpt>
      <trkpt lat="44.07708" lon="6.16812">
        <ele>694.2</ele>
        <time>2020-10-18T08:16:08Z</time>
      </trkpt>
      <trkpt lat="44.0771" lon="6.16808">
        <ele>694.4</ele>
        <time>2020-10-18T08:16:09Z</time>
      </trkpt>
      <trkpt lat="44.07712" lon="6.16804">
        <ele>694.4</ele>
        <time>2020-10-18T08:16:10Z</time>
      </trkpt>
      <trkpt lat="44.07715" lon="6.168">
        <ele>694.6</ele>
        <time>2020-10-18T08:16:11Z</time>
      </trkpt>
      <trkpt lat="44.07716" lon="6.16797">
        <ele>694.6</ele>
        <time>2020-10-18T08:16:12Z</time>
      </trkpt>
      <trkpt lat="44.07718" lon="6.16794">
        <ele>694.8</ele>
        <time>2020-10-18T08:16:13Z</time>
      </trkpt>
      <trkpt lat="44.07719" lon="6.1679">
        <ele>694.8</ele>
        <time>2020-10-18T08:16:14Z</time>
      </trkpt>
      <trkpt lat="44.07719" lon="6.16788">
        <ele>695</ele>
        <time>2020-10-18T08:16:15Z</time>
      </trkpt>
      <trkpt lat="44.07719" lon="6.16785">
        <ele>695</ele>
        <time>2020-10-18T08:16:16Z</time>
      </trkpt>
      <trkpt lat="44.07719" lon="6.16783">
        <ele>695</ele>
        <time>2020-10-18T08:16:17Z</time>
      </trkpt>
      <trkpt lat="44.0772" lon="6.16781">
        <ele>695.2</ele>
        <time>2020-10-18T08:16:18Z</time>
      </trkpt>
      <trkpt lat="44.0772" lon="6.16779">
        <ele>695.2</ele>
        <time>2020-10-18T08:16:19Z</time>
      </trkpt>
      <trkpt lat="44.0772" lon="6.16778">
        <ele>695.2</ele>
        <time>2020-10-18T08:16:20Z</time>
      </trkpt>
      <trkpt lat="44.07721" lon="6.16776">
        <ele>695.4</ele>
        <time>2020-10-18T08:16:21Z</time>
      </trkpt>
      <trkpt lat="44.07722" lon="6.16774">
        <ele>695.4</ele>
        <time>2020-10-18T08:16:22Z</time>
      </trkpt>
      <trkpt lat="44.07723" lon="6.16772">
        <ele>695.4</ele>
        <time>2020-10-18T08:16:23Z</time>
      </trkpt>
      <trkpt lat="44.07723" lon="6.16771">
        <ele>695.4</ele>
        <time>2020-10-18T08:16:24Z</time>
      </trkpt>
      <trkpt lat="44.07724" lon="6.16769">
        <ele>695.4</ele>
        <time>2020-10-18T08:16:25Z</time>
      </trkpt>
      <trkpt lat="44.07724" lon="6.16767">
        <ele>695.4</ele>
        <time>2020-10-18T08:16:26Z</time>
      </trkpt>
      <trkpt lat="44.07724" lon="6.16766">
        <ele>695.4</ele>
        <time>2020-10-18T08:16:27Z</time>
      </trkpt>
      <trkpt lat="44.07725" lon="6.16765">
        <ele>695.6</ele>
        <time>2020-10-18T08:16:28Z</time>
      </trkpt>
      <trkpt lat="44.07725" lon="6.16764">
        <ele>695.8</ele>
        <time>2020-10-18T08:16:29Z</time>
      </trkpt>
      <trkpt lat="44.07726" lon="6.16763">
        <ele>696</ele>
        <time>2020-10-18T08:16:30Z</time>
      </trkpt>
      <trkpt lat="44.07727" lon="6.16762">
        <ele>696.4</ele>
        <time>2020-10-18T08:16:31Z</time>
      </trkpt>
      <trkpt lat="44.07727" lon="6.16761">
        <ele>696.4</ele>
        <time>2020-10-18T08:16:32Z</time>
      </trkpt>
      <trkpt lat="44.07728" lon="6.16759">
        <ele>696.6</ele>
        <time>2020-10-18T08:16:33Z</time>
      </trkpt>
      <trkpt lat="44.07728" lon="6.16758">
        <ele>697</ele>
        <time>2020-10-18T08:16:34Z</time>
      </trkpt>
      <trkpt lat="44.07728" lon="6.16756">
        <ele>697.2</ele>
        <time>2020-10-18T08:16:35Z</time>
      </trkpt>
      <trkpt lat="44.07728" lon="6.16754">
        <ele>697.6</ele>
        <time>2020-10-18T08:16:36Z</time>
      </trkpt>
      <trkpt lat="44.07728" lon="6.16752">
        <ele>697.6</ele>
        <time>2020-10-18T08:16:37Z</time>
      </trkpt>
      <trkpt lat="44.07728" lon="6.1675">
        <ele>697.6</ele>
        <time>2020-10-18T08:16:38Z</time>
      </trkpt>
      <trkpt lat="44.07728" lon="6.16749">
        <ele>697.6</ele>
        <time>2020-10-18T08:16:39Z</time>
      </trkpt>
      <trkpt lat="44.07728" lon="6.16747">
        <ele>697.8</ele>
        <time>2020-10-18T08:16:40Z</time>
      </trkpt>
      <trkpt lat="44.07728" lon="6.16746">
        <ele>698</ele>
        <time>2020-10-18T08:16:41Z</time>
      </trkpt>
      <trkpt lat="44.07727" lon="6.16744">
        <ele>698.4</ele>
        <time>2020-10-18T08:16:42Z</time>
      </trkpt>
      <trkpt lat="44.07726" lon="6.16743">
        <ele>698.6</ele>
        <time>2020-10-18T08:16:43Z</time>
      </trkpt>
      <trkpt lat="44.07726" lon="6.16742">
        <ele>698.8</ele>
        <time>2020-10-18T08:16:44Z</time>
      </trkpt>
      <trkpt lat="44.07725" lon="6.16741">
        <ele>699</ele>
        <time>2020-10-18T08:16:45Z</time>
      </trkpt>
      <trkpt lat="44.07724" lon="6.1674">
        <ele>699.4</ele>
        <time>2020-10-18T08:16:46Z</time>
      </trkpt>
      <trkpt lat="44.07724" lon="6.16738">
        <ele>699.6</ele>
        <time>2020-10-18T08:16:47Z</time>
      </trkpt>
      <trkpt lat="44.07723" lon="6.16736">
        <ele>699.8</ele>
        <time>2020-10-18T08:16:48Z</time>
      </trkpt>
      <trkpt lat="44.07723" lon="6.16735">
        <ele>699.8</ele>
        <time>2020-10-18T08:16:49Z</time>
      </trkpt>
      <trkpt lat="44.07722" lon="6.16734">
        <ele>700</ele>
        <time>2020-10-18T08:16:50Z</time>
      </trkpt>
      <trkpt lat="44.07722" lon="6.16732">
        <ele>700.4</ele>
        <time>2020-10-18T08:16:51Z</time>
      </trkpt>
      <trkpt lat="44.07722" lon="6.16731">
        <ele>700.8</ele>
        <time>2020-10-18T08:16:52Z</time>
      </trkpt>
      <trkpt lat="44.07722" lon="6.1673">
        <ele>701</ele>
        <time>2020-10-18T08:16:53Z</time>
      </trkpt>
      <trkpt lat="44.07723" lon="6.16729">
        <ele>701.6</ele>
        <time>2020-10-18T08:16:54Z</time>
      </trkpt>
      <trkpt lat="44.07724" lon="6.16728">
        <ele>702.2</ele>
        <time>2020-10-18T08:16:55Z</time>
      </trkpt>
      <trkpt lat="44.07725" lon="6.16727">
        <ele>702.6</ele>
        <time>2020-10-18T08:16:56Z</time>
      </trkpt>
      <trkpt lat="44.07726" lon="6.16727">
        <ele>702.8</ele>
        <time>2020-10-18T08:16:57Z</time>
      </trkpt>
      <trkpt lat="44.07727" lon="6.16727">
        <ele>703</ele>
        <time>2020-10-18T08:16:58Z</time>
      </trkpt>
      <trkpt lat="44.07728" lon="6.16726">
        <ele>703</ele>
        <time>2020-10-18T08:16:59Z</time>
      </trkpt>
      <trkpt lat="44.07729" lon="6.16726">
        <ele>703.6</ele>
        <time>2020-10-18T08:17:00Z</time>
      </trkpt>
      <trkpt lat="44.07731" lon="6.16726">
        <ele>704</ele>
        <time>2020-10-18T08:17:01Z</time>
      </trkpt>
      <trkpt lat="44.07732" lon="6.16726">
        <ele>704.4</ele>
        <time>2020-10-18T08:17:02Z</time>
      </trkpt>
      <trkpt lat="44.07733" lon="6.16726">
        <ele>704.4</ele>
        <time>2020-10-18T08:17:03Z</time>
      </trkpt>
      <trkpt lat="44.07735" lon="6.16726">
        <ele>705</ele>
        <time>2020-10-18T08:17:04Z</time>
      </trkpt>
      <trkpt lat="44.07736" lon="6.16727">
        <ele>705.2</ele>
        <time>2020-10-18T08:17:05Z</time>
      </trkpt>
      <trkpt lat="44.07737" lon="6.16727">
        <ele>705.6</ele>
        <time>2020-10-18T08:17:06Z</time>
      </trkpt>
      <trkpt lat="44.07738" lon="6.16728">
        <ele>705.8</ele>
        <time>2020-10-18T08:17:07Z</time>
      </trkpt>
      <trkpt lat="44.0774" lon="6.16729">
        <ele>705.8</ele>
        <time>2020-10-18T08:17:08Z</time>
      </trkpt>
      <trkpt lat="44.07741" lon="6.16729">
        <ele>706.2</ele>
        <time>2020-10-18T08:17:09Z</time>
      </trkpt>
      <trkpt lat="44.07742" lon="6.16729">
        <ele>706.2</ele>
        <time>2020-10-18T08:17:10Z</time>
      </trkpt>
      <trkpt lat="44.07743" lon="6.16727">
        <ele>706.6</ele>
        <time>2020-10-18T08:17:11Z</time>
      </trkpt>
      <trkpt lat="44.07743" lon="6.16726">
        <ele>707</ele>
        <time>2020-10-18T08:17:12Z</time>
      </trkpt>
      <trkpt lat="44.07742" lon="6.16725">
        <ele>707.2</ele>
        <time>2020-10-18T08:17:13Z</time>
      </trkpt>
      <trkpt lat="44.07742" lon="6.16725">
        <ele>707.4</ele>
        <time>2020-10-18T08:17:14Z</time>
      </trkpt>
      <trkpt lat="44.07743" lon="6.16725">
        <ele>707.6</ele>
        <time>2020-10-18T08:17:16Z</time>
      </trkpt>
      <trkpt lat="44.07743" lon="6.16725">
        <ele>707.6</ele>
        <time>2020-10-18T08:17:17Z</time>
      </trkpt>
      <trkpt lat="44.07743" lon="6.16725">
        <ele>707.8</ele>
        <time>2020-10-18T08:17:18Z</time>
      </trkpt>
      <trkpt lat="44.07743" lon="6.16724">
        <ele>708.2</ele>
        <time>2020-10-18T08:17:20Z</time>
      </trkpt>
      <trkpt lat="44.07743" lon="6.16723">
        <ele>708.4</ele>
        <time>2020-10-18T08:17:21Z</time>
      </trkpt>
      <trkpt lat="44.07743" lon="6.16722">
        <ele>708.6</ele>
        <time>2020-10-18T08:17:22Z</time>
      </trkpt>
      <trkpt lat="44.07743" lon="6.16721">
        <ele>708.8</ele>
        <time>2020-10-18T08:17:23Z</time>
      </trkpt>
      <trkpt lat="44.07743" lon="6.1672">
        <ele>709</ele>
        <time>2020-10-18T08:17:24Z</time>
      </trkpt>
      <trkpt lat="44.07743" lon="6.16719">
        <ele>709.2</ele>
        <time>2020-10-18T08:17:25Z</time>
      </trkpt>
      <trkpt lat="44.07743" lon="6.16718">
        <ele>709</ele>
        <time>2020-10-18T08:17:26Z</time>
      </trkpt>
      <trkpt lat="44.07742" lon="6.16717">
        <ele>709.2</ele>
        <time>2020-10-18T08:17:28Z</time>
      </trkpt>
      <trkpt lat="44.07742" lon="6.16717">
        <ele>709.2</ele>
        <time>2020-10-18T08:17:29Z</time>
      </trkpt>
      <trkpt lat="44.07742" lon="6.16716">
        <ele>709.4</ele>
        <time>2020-10-18T08:17:30Z</time>
      </trkpt>
      <trkpt lat="44.07742" lon="6.16716">
        <ele>709.4</ele>
        <time>2020-10-18T08:17:31Z</time>
      </trkpt>
      <trkpt lat="44.07741" lon="6.16715">
        <ele>709.4</ele>
        <time>2020-10-18T08:17:32Z</time>
      </trkpt>
      <trkpt lat="44.07741" lon="6.16714">
        <ele>709.8</ele>
        <time>2020-10-18T08:17:33Z</time>
      </trkpt>
      <trkpt lat="44.07741" lon="6.16713">
        <ele>709.8</ele>
        <time>2020-10-18T08:17:34Z</time>
      </trkpt>
      <trkpt lat="44.07741" lon="6.16712">
        <ele>710.2</ele>
        <time>2020-10-18T08:17:35Z</time>
      </trkpt>
      <trkpt lat="44.0774" lon="6.16711">
        <ele>710.6</ele>
        <time>2020-10-18T08:17:36Z</time>
      </trkpt>
      <trkpt lat="44.0774" lon="6.1671">
        <ele>710.8</ele>
        <time>2020-10-18T08:17:37Z</time>
      </trkpt>
      <trkpt lat="44.0774" lon="6.16709">
        <ele>711.2</ele>
        <time>2020-10-18T08:17:38Z</time>
      </trkpt>
      <trkpt lat="44.0774" lon="6.16708">
        <ele>711.4</ele>
        <time>2020-10-18T08:17:39Z</time>
      </trkpt>
      <trkpt lat="44.0774" lon="6.16707">
        <ele>711.6</ele>
        <time>2020-10-18T08:17:40Z</time>
      </trkpt>
      <trkpt lat="44.0774" lon="6.16706">
        <ele>711.6</ele>
        <time>2020-10-18T08:17:41Z</time>
      </trkpt>
      <trkpt lat="44.07739" lon="6.16705">
        <ele>711.8</ele>
        <time>2020-10-18T08:17:42Z</time>
      </trkpt>
      <trkpt lat="44.07739" lon="6.16704">
        <ele>712.2</ele>
        <time>2020-10-18T08:17:43Z</time>
      </trkpt>
      <trkpt lat="44.07739" lon="6.16704">
        <ele>712</ele>
        <time>2020-10-18T08:17:44Z</time>
      </trkpt>
      <trkpt lat="44.07739" lon="6.16703">
        <ele>712.4</ele>
        <time>2020-10-18T08:17:45Z</time>
      </trkpt>
      <trkpt lat="44.07738" lon="6.16702">
        <ele>712.6</ele>
        <time>2020-10-18T08:17:46Z</time>
      </trkpt>
      <trkpt lat="44.07738" lon="6.16701">
        <ele>712.6</ele>
        <time>2020-10-18T08:17:47Z</time>
      </trkpt>
      <trkpt lat="44.07738" lon="6.167">
        <ele>712.8</ele>
        <time>2020-10-18T08:17:48Z</time>
      </trkpt>
      <trkpt lat="44.07737" lon="6.16699">
        <ele>712.8</ele>
        <time>2020-10-18T08:17:49Z</time>
      </trkpt>
      <trkpt lat="44.07737" lon="6.16699">
        <ele>713</ele>
        <time>2020-10-18T08:17:50Z</time>
      </trkpt>
      <trkpt lat="44.07737" lon="6.16697">
        <ele>713</ele>
        <time>2020-10-18T08:17:51Z</time>
      </trkpt>
      <trkpt lat="44.07737" lon="6.16696">
        <ele>713.2</ele>
        <time>2020-10-18T08:17:52Z</time>
      </trkpt>
      <trkpt lat="44.07737" lon="6.16695">
        <ele>713.4</ele>
        <time>2020-10-18T08:17:53Z</time>
      </trkpt>
      <trkpt lat="44.07737" lon="6.16694">
        <ele>713.6</ele>
        <time>2020-10-18T08:17:54Z</time>
      </trkpt>
      <trkpt lat="44.07736" lon="6.16693">
        <ele>714</ele>
        <time>2020-10-18T08:17:55Z</time>
      </trkpt>
      <trkpt lat="44.07736" lon="6.16693">
        <ele>714.2</ele>
        <time>2020-10-18T08:17:56Z</time>
      </trkpt>
      <trkpt lat="44.07735" lon="6.16692">
        <ele>714.6</ele>
        <time>2020-10-18T08:17:57Z</time>
      </trkpt>
      <trkpt lat="44.07735" lon="6.16692">
        <ele>714.6</ele>
        <time>2020-10-18T08:17:58Z</time>
      </trkpt>
      <trkpt lat="44.07735" lon="6.16692">
        <ele>714.8</ele>
        <time>2020-10-18T08:17:59Z</time>
      </trkpt>
      <trkpt lat="44.07735" lon="6.16692">
        <ele>715</ele>
        <time>2020-10-18T08:18:00Z</time>
      </trkpt>
      <trkpt lat="44.07734" lon="6.16691">
        <ele>715.2</ele>
        <time>2020-10-18T08:18:01Z</time>
      </trkpt>
      <trkpt lat="44.07734" lon="6.16691">
        <ele>715.4</ele>
        <time>2020-10-18T08:18:02Z</time>
      </trkpt>
      <trkpt lat="44.07734" lon="6.1669">
        <ele>715.4</ele>
        <time>2020-10-18T08:18:03Z</time>
      </trkpt>
      <trkpt lat="44.07733" lon="6.16689">
        <ele>715.4</ele>
        <time>2020-10-18T08:18:04Z</time>
      </trkpt>
      <trkpt lat="44.07733" lon="6.16688">
        <ele>715.8</ele>
        <time>2020-10-18T08:18:05Z</time>
      </trkpt>
      <trkpt lat="44.07734" lon="6.16687">
        <ele>716</ele>
        <time>2020-10-18T08:18:06Z</time>
      </trkpt>
      <trkpt lat="44.07734" lon="6.16686">
        <ele>716.2</ele>
        <time>2020-10-18T08:18:07Z</time>
      </trkpt>
      <trkpt lat="44.07734" lon="6.16686">
        <ele>716.2</ele>
        <time>2020-10-18T08:18:08Z</time>
      </trkpt>
      <trkpt lat="44.07733" lon="6.16686">
        <ele>716.6</ele>
        <time>2020-10-18T08:18:10Z</time>
      </trkpt>
      <trkpt lat="44.07734" lon="6.16685">
        <ele>717</ele>
        <time>2020-10-18T08:18:12Z</time>
      </trkpt>
      <trkpt lat="44.07734" lon="6.16683">
        <ele>717.2</ele>
        <time>2020-10-18T08:18:13Z</time>
      </trkpt>
      <trkpt lat="44.07734" lon="6.16681">
        <ele>717.4</ele>
        <time>2020-10-18T08:18:14Z</time>
      </trkpt>
      <trkpt lat="44.07735" lon="6.16679">
        <ele>717.4</ele>
        <time>2020-10-18T08:18:15Z</time>
      </trkpt>
      <trkpt lat="44.07735" lon="6.16676">
        <ele>717.4</ele>
        <time>2020-10-18T08:18:16Z</time>
      </trkpt>
      <trkpt lat="44.07736" lon="6.16674">
        <ele>717.4</ele>
        <time>2020-10-18T08:18:17Z</time>
      </trkpt>
      <trkpt lat="44.07736" lon="6.16671">
        <ele>717.6</ele>
        <time>2020-10-18T08:18:18Z</time>
      </trkpt>
      <trkpt lat="44.07736" lon="6.16669">
        <ele>717.6</ele>
        <time>2020-10-18T08:18:19Z</time>
      </trkpt>
      <trkpt lat="44.07737" lon="6.16666">
        <ele>717.6</ele>
        <time>2020-10-18T08:18:20Z</time>
      </trkpt>
      <trkpt lat="44.07738" lon="6.16664">
        <ele>717.6</ele>
        <time>2020-10-18T08:18:21Z</time>
      </trkpt>
      <trkpt lat="44.07738" lon="6.16661">
        <ele>717.6</ele>
        <time>2020-10-18T08:18:22Z</time>
      </trkpt>
      <trkpt lat="44.0774" lon="6.16656">
        <ele>717.6</ele>
        <time>2020-10-18T08:18:24Z</time>
      </trkpt>
      <trkpt lat="44.0774" lon="6.16651">
        <ele>717.6</ele>
        <time>2020-10-18T08:18:26Z</time>
      </trkpt>
      <trkpt lat="44.07741" lon="6.16648">
        <ele>717.6</ele>
        <time>2020-10-18T08:18:27Z</time>
      </trkpt>
      <trkpt lat="44.07741" lon="6.16645">
        <ele>717.8</ele>
        <time>2020-10-18T08:18:28Z</time>
      </trkpt>
      <trkpt lat="44.0774" lon="6.16643">
        <ele>718</ele>
        <time>2020-10-18T08:18:29Z</time>
      </trkpt>
      <trkpt lat="44.0774" lon="6.16641">
        <ele>718</ele>
        <time>2020-10-18T08:18:30Z</time>
      </trkpt>
      <trkpt lat="44.0774" lon="6.16636">
        <ele>718.2</ele>
        <time>2020-10-18T08:18:32Z</time>
      </trkpt>
      <trkpt lat="44.07739" lon="6.16633">
        <ele>718.4</ele>
        <time>2020-10-18T08:18:33Z</time>
      </trkpt>
      <trkpt lat="44.07739" lon="6.16631">
        <ele>718.4</ele>
        <time>2020-10-18T08:18:34Z</time>
      </trkpt>
      <trkpt lat="44.07738" lon="6.16629">
        <ele>718.6</ele>
        <time>2020-10-18T08:18:35Z</time>
      </trkpt>
      <trkpt lat="44.07737" lon="6.16627">
        <ele>718.6</ele>
        <time>2020-10-18T08:18:36Z</time>
      </trkpt>
      <trkpt lat="44.07737" lon="6.16625">
        <ele>718.8</ele>
        <time>2020-10-18T08:18:37Z</time>
      </trkpt>
      <trkpt lat="44.07737" lon="6.16623">
        <ele>719</ele>
        <time>2020-10-18T08:18:38Z</time>
      </trkpt>
      <trkpt lat="44.07737" lon="6.16621">
        <ele>719.4</ele>
        <time>2020-10-18T08:18:39Z</time>
      </trkpt>
      <trkpt lat="44.07737" lon="6.16618">
        <ele>719.6</ele>
        <time>2020-10-18T08:18:40Z</time>
      </trkpt>
      <trkpt lat="44.07737" lon="6.16616">
        <ele>720</ele>
        <time>2020-10-18T08:18:41Z</time>
      </trkpt>
      <trkpt lat="44.07737" lon="6.16613">
        <ele>720.4</ele>
        <time>2020-10-18T08:18:42Z</time>
      </trkpt>
      <trkpt lat="44.07739" lon="6.16611">
        <ele>720.4</ele>
        <time>2020-10-18T08:18:43Z</time>
      </trkpt>
      <trkpt lat="44.0774" lon="6.16607">
        <ele>720.6</ele>
        <time>2020-10-18T08:18:44Z</time>
      </trkpt>
      <trkpt lat="44.0774" lon="6.16602">
        <ele>721.4</ele>
        <time>2020-10-18T08:18:45Z</time>
      </trkpt>
      <trkpt lat="44.0774" lon="6.16599">
        <ele>721.6</ele>
        <time>2020-10-18T08:18:46Z</time>
      </trkpt>
      <trkpt lat="44.0774" lon="6.16596">
        <ele>722</ele>
        <time>2020-10-18T08:18:47Z</time>
      </trkpt>
      <trkpt lat="44.0774" lon="6.16593">
        <ele>722.2</ele>
        <time>2020-10-18T08:18:48Z</time>
      </trkpt>
      <trkpt lat="44.0774" lon="6.1659">
        <ele>722.4</ele>
        <time>2020-10-18T08:18:49Z</time>
      </trkpt>
      <trkpt lat="44.0774" lon="6.16587">
        <ele>722.6</ele>
        <time>2020-10-18T08:18:50Z</time>
      </trkpt>
      <trkpt lat="44.0774" lon="6.16584">
        <ele>722.6</ele>
        <time>2020-10-18T08:18:51Z</time>
      </trkpt>
      <trkpt lat="44.07741" lon="6.16581">
        <ele>722.6</ele>
        <time>2020-10-18T08:18:52Z</time>
      </trkpt>
      <trkpt lat="44.07741" lon="6.16578">
        <ele>722.8</ele>
        <time>2020-10-18T08:18:53Z</time>
      </trkpt>
      <trkpt lat="44.07741" lon="6.16575">
        <ele>722.8</ele>
        <time>2020-10-18T08:18:54Z</time>
      </trkpt>
      <trkpt lat="44.07741" lon="6.16573">
        <ele>722.8</ele>
        <time>2020-10-18T08:18:55Z</time>
      </trkpt>
      <trkpt lat="44.07742" lon="6.16571">
        <ele>722.8</ele>
        <time>2020-10-18T08:18:56Z</time>
      </trkpt>
      <trkpt lat="44.07742" lon="6.16569">
        <ele>723</ele>
        <time>2020-10-18T08:18:57Z</time>
      </trkpt>
      <trkpt lat="44.07742" lon="6.16567">
        <ele>723</ele>
        <time>2020-10-18T08:18:58Z</time>
      </trkpt>
      <trkpt lat="44.07741" lon="6.16565">
        <ele>723</ele>
        <time>2020-10-18T08:18:59Z</time>
      </trkpt>
      <trkpt lat="44.07741" lon="6.16563">
        <ele>723</ele>
        <time>2020-10-18T08:19:00Z</time>
      </trkpt>
      <trkpt lat="44.07742" lon="6.1656">
        <ele>723</ele>
        <time>2020-10-18T08:19:01Z</time>
      </trkpt>
      <trkpt lat="44.07742" lon="6.16558">
        <ele>723</ele>
        <time>2020-10-18T08:19:02Z</time>
      </trkpt>
      <trkpt lat="44.07742" lon="6.16556">
        <ele>723</ele>
        <time>2020-10-18T08:19:03Z</time>
      </trkpt>
      <trkpt lat="44.07742" lon="6.16554">
        <ele>723</ele>
        <time>2020-10-18T08:19:04Z</time>
      </trkpt>
      <trkpt lat="44.07742" lon="6.16552">
        <ele>723.4</ele>
        <time>2020-10-18T08:19:05Z</time>
      </trkpt>
      <trkpt lat="44.07742" lon="6.1655">
        <ele>723.6</ele>
        <time>2020-10-18T08:19:06Z</time>
      </trkpt>
      <trkpt lat="44.07742" lon="6.16548">
        <ele>724</ele>
        <time>2020-10-18T08:19:07Z</time>
      </trkpt>
      <trkpt lat="44.07743" lon="6.16545">
        <ele>724.2</ele>
        <time>2020-10-18T08:19:08Z</time>
      </trkpt>
      <trkpt lat="44.07743" lon="6.16543">
        <ele>724.8</ele>
        <time>2020-10-18T08:19:09Z</time>
      </trkpt>
      <trkpt lat="44.07744" lon="6.16542">
        <ele>725.2</ele>
        <time>2020-10-18T08:19:10Z</time>
      </trkpt>
      <trkpt lat="44.07744" lon="6.1654">
        <ele>725.4</ele>
        <time>2020-10-18T08:19:11Z</time>
      </trkpt>
      <trkpt lat="44.07744" lon="6.16538">
        <ele>725.6</ele>
        <time>2020-10-18T08:19:12Z</time>
      </trkpt>
      <trkpt lat="44.07745" lon="6.16535">
        <ele>725.8</ele>
        <time>2020-10-18T08:19:13Z</time>
      </trkpt>
      <trkpt lat="44.07745" lon="6.16533">
        <ele>726</ele>
        <time>2020-10-18T08:19:14Z</time>
      </trkpt>
      <trkpt lat="44.07746" lon="6.16531">
        <ele>726</ele>
        <time>2020-10-18T08:19:15Z</time>
      </trkpt>
      <trkpt lat="44.07746" lon="6.16528">
        <ele>726.2</ele>
        <time>2020-10-18T08:19:16Z</time>
      </trkpt>
      <trkpt lat="44.07746" lon="6.16526">
        <ele>726.2</ele>
        <time>2020-10-18T08:19:17Z</time>
      </trkpt>
      <trkpt lat="44.07747" lon="6.16524">
        <ele>726.2</ele>
        <time>2020-10-18T08:19:18Z</time>
      </trkpt>
      <trkpt lat="44.07747" lon="6.16521">
        <ele>726.4</ele>
        <time>2020-10-18T08:19:19Z</time>
      </trkpt>
      <trkpt lat="44.07748" lon="6.16519">
        <ele>726.4</ele>
        <time>2020-10-18T08:19:20Z</time>
      </trkpt>
      <trkpt lat="44.07748" lon="6.16517">
        <ele>726.6</ele>
        <time>2020-10-18T08:19:21Z</time>
      </trkpt>
      <trkpt lat="44.07749" lon="6.16516">
        <ele>726.8</ele>
        <time>2020-10-18T08:19:22Z</time>
      </trkpt>
      <trkpt lat="44.0775" lon="6.16516">
        <ele>726.8</ele>
        <time>2020-10-18T08:19:23Z</time>
      </trkpt>
      <trkpt lat="44.07751" lon="6.16516">
        <ele>726.6</ele>
        <time>2020-10-18T08:19:24Z</time>
      </trkpt>
      <trkpt lat="44.07752" lon="6.16515">
        <ele>726.8</ele>
        <time>2020-10-18T08:19:25Z</time>
      </trkpt>
      <trkpt lat="44.07753" lon="6.16515">
        <ele>726.8</ele>
        <time>2020-10-18T08:19:26Z</time>
      </trkpt>
      <trkpt lat="44.07753" lon="6.16514">
        <ele>727</ele>
        <time>2020-10-18T08:19:27Z</time>
      </trkpt>
      <trkpt lat="44.07754" lon="6.16514">
        <ele>727.2</ele>
        <time>2020-10-18T08:19:28Z</time>
      </trkpt>
      <trkpt lat="44.07755" lon="6.16513">
        <ele>727.2</ele>
        <time>2020-10-18T08:19:29Z</time>
      </trkpt>
      <trkpt lat="44.07755" lon="6.16513">
        <ele>727.4</ele>
        <time>2020-10-18T08:19:30Z</time>
      </trkpt>
      <trkpt lat="44.07756" lon="6.16514">
        <ele>727.6</ele>
        <time>2020-10-18T08:19:31Z</time>
      </trkpt>
      <trkpt lat="44.07756" lon="6.16514">
        <ele>727.8</ele>
        <time>2020-10-18T08:19:32Z</time>
      </trkpt>
      <trkpt lat="44.07757" lon="6.16514">
        <ele>728</ele>
        <time>2020-10-18T08:19:33Z</time>
      </trkpt>
      <trkpt lat="44.07757" lon="6.16514">
        <ele>728.2</ele>
        <time>2020-10-18T08:19:34Z</time>
      </trkpt>
      <trkpt lat="44.07757" lon="6.16514">
        <ele>728.4</ele>
        <time>2020-10-18T08:19:35Z</time>
      </trkpt>
      <trkpt lat="44.07757" lon="6.16514">
        <ele>728.6</ele>
        <time>2020-10-18T08:19:36Z</time>
      </trkpt>
      <trkpt lat="44.07758" lon="6.16515">
        <ele>728.8</ele>
        <time>2020-10-18T08:19:38Z</time>
      </trkpt>
      <trkpt lat="44.07758" lon="6.16515">
        <ele>729.6</ele>
        <time>2020-10-18T08:19:40Z</time>
      </trkpt>
      <trkpt lat="44.07758" lon="6.16515">
        <ele>730</ele>
        <time>2020-10-18T08:19:42Z</time>
      </trkpt>
      <trkpt lat="44.07759" lon="6.16516">
        <ele>730</ele>
        <time>2020-10-18T08:19:43Z</time>
      </trkpt>
      <trkpt lat="44.0776" lon="6.16515">
        <ele>730.2</ele>
        <time>2020-10-18T08:19:44Z</time>
      </trkpt>
      <trkpt lat="44.07762" lon="6.16516">
        <ele>730</ele>
        <time>2020-10-18T08:19:45Z</time>
      </trkpt>
      <trkpt lat="44.07763" lon="6.16516">
        <ele>730</ele>
        <time>2020-10-18T08:19:46Z</time>
      </trkpt>
      <trkpt lat="44.07765" lon="6.16516">
        <ele>730.2</ele>
        <time>2020-10-18T08:19:47Z</time>
      </trkpt>
      <trkpt lat="44.07766" lon="6.16516">
        <ele>730.2</ele>
        <time>2020-10-18T08:19:48Z</time>
      </trkpt>
      <trkpt lat="44.07767" lon="6.16517">
        <ele>730.2</ele>
        <time>2020-10-18T08:19:49Z</time>
      </trkpt>
      <trkpt lat="44.07768" lon="6.16517">
        <ele>730.2</ele>
        <time>2020-10-18T08:19:50Z</time>
      </trkpt>
      <trkpt lat="44.07769" lon="6.16518">
        <ele>730.4</ele>
        <time>2020-10-18T08:19:51Z</time>
      </trkpt>
      <trkpt lat="44.0777" lon="6.16518">
        <ele>730.4</ele>
        <time>2020-10-18T08:19:52Z</time>
      </trkpt>
      <trkpt lat="44.07771" lon="6.16519">
        <ele>730.6</ele>
        <time>2020-10-18T08:19:53Z</time>
      </trkpt>
      <trkpt lat="44.07772" lon="6.1652">
        <ele>730.8</ele>
        <time>2020-10-18T08:19:54Z</time>
      </trkpt>
      <trkpt lat="44.07773" lon="6.16521">
        <ele>731</ele>
        <time>2020-10-18T08:19:55Z</time>
      </trkpt>
      <trkpt lat="44.07774" lon="6.16522">
        <ele>731.4</ele>
        <time>2020-10-18T08:19:56Z</time>
      </trkpt>
      <trkpt lat="44.07775" lon="6.16522">
        <ele>731.4</ele>
        <time>2020-10-18T08:19:57Z</time>
      </trkpt>
      <trkpt lat="44.07775" lon="6.16522">
        <ele>731.6</ele>
        <time>2020-10-18T08:19:58Z</time>
      </trkpt>
      <trkpt lat="44.07776" lon="6.16522">
        <ele>731.8</ele>
        <time>2020-10-18T08:20:00Z</time>
      </trkpt>
      <trkpt lat="44.07776" lon="6.16522">
        <ele>732</ele>
        <time>2020-10-18T08:20:01Z</time>
      </trkpt>
      <trkpt lat="44.07775" lon="6.16522">
        <ele>732.2</ele>
        <time>2020-10-18T08:20:02Z</time>
      </trkpt>
      <trkpt lat="44.07775" lon="6.16522">
        <ele>732.4</ele>
        <time>2020-10-18T08:20:04Z</time>
      </trkpt>
      <trkpt lat="44.07776" lon="6.16522">
        <ele>732.8</ele>
        <time>2020-10-18T08:20:06Z</time>
      </trkpt>
      <trkpt lat="44.07777" lon="6.16522">
        <ele>732.8</ele>
        <time>2020-10-18T08:20:08Z</time>
      </trkpt>
      <trkpt lat="44.07778" lon="6.16522">
        <ele>732.8</ele>
        <time>2020-10-18T08:20:09Z</time>
      </trkpt>
      <trkpt lat="44.07778" lon="6.16521">
        <ele>732.8</ele>
        <time>2020-10-18T08:20:10Z</time>
      </trkpt>
      <trkpt lat="44.07778" lon="6.16522">
        <ele>732.8</ele>
        <time>2020-10-18T08:20:11Z</time>
      </trkpt>
      <trkpt lat="44.07778" lon="6.16522">
        <ele>733</ele>
        <time>2020-10-18T08:20:12Z</time>
      </trkpt>
      <trkpt lat="44.07778" lon="6.16524">
        <ele>733</ele>
        <time>2020-10-18T08:20:14Z</time>
      </trkpt>
      <trkpt lat="44.07779" lon="6.16525">
        <ele>733.2</ele>
        <time>2020-10-18T08:20:16Z</time>
      </trkpt>
      <trkpt lat="44.0778" lon="6.16525">
        <ele>733</ele>
        <time>2020-10-18T08:20:17Z</time>
      </trkpt>
      <trkpt lat="44.0778" lon="6.16526">
        <ele>733</ele>
        <time>2020-10-18T08:20:18Z</time>
      </trkpt>
      <trkpt lat="44.07781" lon="6.16526">
        <ele>733</ele>
        <time>2020-10-18T08:20:19Z</time>
      </trkpt>
      <trkpt lat="44.07781" lon="6.16526">
        <ele>733</ele>
        <time>2020-10-18T08:20:20Z</time>
      </trkpt>
      <trkpt lat="44.07781" lon="6.16527">
        <ele>733</ele>
        <time>2020-10-18T08:20:22Z</time>
      </trkpt>
      <trkpt lat="44.07781" lon="6.16527">
        <ele>733</ele>
        <time>2020-10-18T08:20:24Z</time>
      </trkpt>
      <trkpt lat="44.07781" lon="6.16527">
        <ele>733</ele>
        <time>2020-10-18T08:20:25Z</time>
      </trkpt>
      <trkpt lat="44.07781" lon="6.16526">
        <ele>733</ele>
        <time>2020-10-18T08:20:26Z</time>
      </trkpt>
      <trkpt lat="44.0778" lon="6.16526">
        <ele>732.8</ele>
        <time>2020-10-18T08:20:27Z</time>
      </trkpt>
      <trkpt lat="44.0778" lon="6.16525">
        <ele>732.8</ele>
        <time>2020-10-18T08:20:28Z</time>
      </trkpt>
      <trkpt lat="44.07779" lon="6.16524">
        <ele>732.8</ele>
        <time>2020-10-18T08:20:29Z</time>
      </trkpt>
      <trkpt lat="44.07779" lon="6.16524">
        <ele>732.8</ele>
        <time>2020-10-18T08:20:30Z</time>
      </trkpt>
      <trkpt lat="44.07779" lon="6.16523">
        <ele>732.8</ele>
        <time>2020-10-18T08:20:31Z</time>
      </trkpt>
      <trkpt lat="44.07779" lon="6.16522">
        <ele>732.6</ele>
        <time>2020-10-18T08:20:32Z</time>
      </trkpt>
      <trkpt lat="44.0778" lon="6.16522">
        <ele>732.8</ele>
        <time>2020-10-18T08:20:33Z</time>
      </trkpt>
      <trkpt lat="44.0778" lon="6.16521">
        <ele>732.8</ele>
        <time>2020-10-18T08:20:34Z</time>
      </trkpt>
      <trkpt lat="44.0778" lon="6.1652">
        <ele>732.8</ele>
        <time>2020-10-18T08:20:35Z</time>
      </trkpt>
      <trkpt lat="44.07781" lon="6.1652">
        <ele>732.8</ele>
        <time>2020-10-18T08:20:36Z</time>
      </trkpt>
      <trkpt lat="44.07781" lon="6.16519">
        <ele>732.8</ele>
        <time>2020-10-18T08:20:37Z</time>
      </trkpt>
      <trkpt lat="44.07781" lon="6.16518">
        <ele>733.2</ele>
        <time>2020-10-18T08:20:38Z</time>
      </trkpt>
      <trkpt lat="44.07781" lon="6.16517">
        <ele>733.4</ele>
        <time>2020-10-18T08:20:39Z</time>
      </trkpt>
      <trkpt lat="44.07781" lon="6.16516">
        <ele>733.4</ele>
        <time>2020-10-18T08:20:40Z</time>
      </trkpt>
      <trkpt lat="44.07781" lon="6.16516">
        <ele>733.8</ele>
        <time>2020-10-18T08:20:41Z</time>
      </trkpt>
      <trkpt lat="44.07781" lon="6.16515">
        <ele>734</ele>
        <time>2020-10-18T08:20:42Z</time>
      </trkpt>
      <trkpt lat="44.07781" lon="6.16514">
        <ele>734.2</ele>
        <time>2020-10-18T08:20:43Z</time>
      </trkpt>
      <trkpt lat="44.0778" lon="6.16513">
        <ele>734.2</ele>
        <time>2020-10-18T08:20:44Z</time>
      </trkpt>
      <trkpt lat="44.0778" lon="6.16513">
        <ele>734.4</ele>
        <time>2020-10-18T08:20:45Z</time>
      </trkpt>
      <trkpt lat="44.07779" lon="6.16512">
        <ele>734.6</ele>
        <time>2020-10-18T08:20:46Z</time>
      </trkpt>
      <trkpt lat="44.07779" lon="6.16511">
        <ele>735</ele>
        <time>2020-10-18T08:20:47Z</time>
      </trkpt>
      <trkpt lat="44.07778" lon="6.1651">
        <ele>735.4</ele>
        <time>2020-10-18T08:20:48Z</time>
      </trkpt>
      <trkpt lat="44.07778" lon="6.16509">
        <ele>735.6</ele>
        <time>2020-10-18T08:20:49Z</time>
      </trkpt>
      <trkpt lat="44.07778" lon="6.16507">
        <ele>735.8</ele>
        <time>2020-10-18T08:20:50Z</time>
      </trkpt>
      <trkpt lat="44.07778" lon="6.16506">
        <ele>735.8</ele>
        <time>2020-10-18T08:20:51Z</time>
      </trkpt>
      <trkpt lat="44.07778" lon="6.16505">
        <ele>736.2</ele>
        <time>2020-10-18T08:20:52Z</time>
      </trkpt>
      <trkpt lat="44.07777" lon="6.16505">
        <ele>736.8</ele>
        <time>2020-10-18T08:20:54Z</time>
      </trkpt>
      <trkpt lat="44.07777" lon="6.16504">
        <ele>737</ele>
        <time>2020-10-18T08:20:56Z</time>
      </trkpt>
      <trkpt lat="44.07778" lon="6.16505">
        <ele>737.4</ele>
        <time>2020-10-18T08:20:58Z</time>
      </trkpt>
      <trkpt lat="44.07779" lon="6.16504">
        <ele>737.8</ele>
        <time>2020-10-18T08:21:00Z</time>
      </trkpt>
      <trkpt lat="44.07779" lon="6.16504">
        <ele>738</ele>
        <time>2020-10-18T08:21:01Z</time>
      </trkpt>
      <trkpt lat="44.0778" lon="6.16504">
        <ele>738</ele>
        <time>2020-10-18T08:21:02Z</time>
      </trkpt>
      <trkpt lat="44.0778" lon="6.16503">
        <ele>738.2</ele>
        <time>2020-10-18T08:21:03Z</time>
      </trkpt>
      <trkpt lat="44.07781" lon="6.16503">
        <ele>738.2</ele>
        <time>2020-10-18T08:21:04Z</time>
      </trkpt>
      <trkpt lat="44.07781" lon="6.16503">
        <ele>738.2</ele>
        <time>2020-10-18T08:21:05Z</time>
      </trkpt>
      <trkpt lat="44.07782" lon="6.16503">
        <ele>738.2</ele>
        <time>2020-10-18T08:21:06Z</time>
      </trkpt>
      <trkpt lat="44.07782" lon="6.16503">
        <ele>738.4</ele>
        <time>2020-10-18T08:21:07Z</time>
      </trkpt>
      <trkpt lat="44.07783" lon="6.16503">
        <ele>738.4</ele>
        <time>2020-10-18T08:21:08Z</time>
      </trkpt>
      <trkpt lat="44.07783" lon="6.16503">
        <ele>738.4</ele>
        <time>2020-10-18T08:21:09Z</time>
      </trkpt>
      <trkpt lat="44.07784" lon="6.16503">
        <ele>738.6</ele>
        <time>2020-10-18T08:21:10Z</time>
      </trkpt>
      <trkpt lat="44.07785" lon="6.16504">
        <ele>738.8</ele>
        <time>2020-10-18T08:21:11Z</time>
      </trkpt>
      <trkpt lat="44.07785" lon="6.16504">
        <ele>739.2</ele>
        <time>2020-10-18T08:21:12Z</time>
      </trkpt>
      <trkpt lat="44.07785" lon="6.16504">
        <ele>739.4</ele>
        <time>2020-10-18T08:21:13Z</time>
      </trkpt>
      <trkpt lat="44.07786" lon="6.16504">
        <ele>739.6</ele>
        <time>2020-10-18T08:21:14Z</time>
      </trkpt>
      <trkpt lat="44.07786" lon="6.16504">
        <ele>739.6</ele>
        <time>2020-10-18T08:21:15Z</time>
      </trkpt>
      <trkpt lat="44.07787" lon="6.16504">
        <ele>739.8</ele>
        <time>2020-10-18T08:21:16Z</time>
      </trkpt>
      <trkpt lat="44.07787" lon="6.16503">
        <ele>740</ele>
        <time>2020-10-18T08:21:18Z</time>
      </trkpt>
      <trkpt lat="44.07787" lon="6.16503">
        <ele>740.2</ele>
        <time>2020-10-18T08:21:19Z</time>
      </trkpt>
      <trkpt lat="44.07787" lon="6.16503">
        <ele>740.6</ele>
        <time>2020-10-18T08:21:20Z</time>
      </trkpt>
      <trkpt lat="44.07788" lon="6.16503">
        <ele>741</ele>
        <time>2020-10-18T08:21:21Z</time>
      </trkpt>
      <trkpt lat="44.07788" lon="6.16503">
        <ele>741.4</ele>
        <time>2020-10-18T08:21:22Z</time>
      </trkpt>
      <trkpt lat="44.07789" lon="6.16503">
        <ele>741.6</ele>
        <time>2020-10-18T08:21:24Z</time>
      </trkpt>
      <trkpt lat="44.07789" lon="6.16503">
        <ele>742.2</ele>
        <time>2020-10-18T08:21:26Z</time>
      </trkpt>
      <trkpt lat="44.07788" lon="6.16503">
        <ele>742.2</ele>
        <time>2020-10-18T08:21:28Z</time>
      </trkpt>
      <trkpt lat="44.07788" lon="6.16504">
        <ele>742.4</ele>
        <time>2020-10-18T08:21:30Z</time>
      </trkpt>
      <trkpt lat="44.07788" lon="6.16503">
        <ele>742.6</ele>
        <time>2020-10-18T08:21:32Z</time>
      </trkpt>
      <trkpt lat="44.07789" lon="6.16503">
        <ele>742.8</ele>
        <time>2020-10-18T08:21:33Z</time>
      </trkpt>
      <trkpt lat="44.07789" lon="6.16503">
        <ele>742.6</ele>
        <time>2020-10-18T08:21:34Z</time>
      </trkpt>
      <trkpt lat="44.07789" lon="6.16502">
        <ele>742.8</ele>
        <time>2020-10-18T08:21:35Z</time>
      </trkpt>
      <trkpt lat="44.0779" lon="6.16502">
        <ele>742.6</ele>
        <time>2020-10-18T08:21:36Z</time>
      </trkpt>
      <trkpt lat="44.07791" lon="6.16502">
        <ele>742.8</ele>
        <time>2020-10-18T08:21:37Z</time>
      </trkpt>
      <trkpt lat="44.07791" lon="6.16502">
        <ele>743</ele>
        <time>2020-10-18T08:21:38Z</time>
      </trkpt>
      <trkpt lat="44.07792" lon="6.16501">
        <ele>742.8</ele>
        <time>2020-10-18T08:21:39Z</time>
      </trkpt>
      <trkpt lat="44.07793" lon="6.16501">
        <ele>742.8</ele>
        <time>2020-10-18T08:21:40Z</time>
      </trkpt>
      <trkpt lat="44.07793" lon="6.16501">
        <ele>743</ele>
        <time>2020-10-18T08:21:41Z</time>
      </trkpt>
      <trkpt lat="44.07794" lon="6.165">
        <ele>743.4</ele>
        <time>2020-10-18T08:21:42Z</time>
      </trkpt>
      <trkpt lat="44.07795" lon="6.165">
        <ele>743.4</ele>
        <time>2020-10-18T08:21:43Z</time>
      </trkpt>
      <trkpt lat="44.07797" lon="6.16501">
        <ele>743.4</ele>
        <time>2020-10-18T08:21:44Z</time>
      </trkpt>
      <trkpt lat="44.07798" lon="6.16502">
        <ele>743.6</ele>
        <time>2020-10-18T08:21:45Z</time>
      </trkpt>
      <trkpt lat="44.07798" lon="6.16502">
        <ele>743.6</ele>
        <time>2020-10-18T08:21:46Z</time>
      </trkpt>
      <trkpt lat="44.07799" lon="6.16503">
        <ele>743.8</ele>
        <time>2020-10-18T08:21:47Z</time>
      </trkpt>
      <trkpt lat="44.078" lon="6.16504">
        <ele>743.8</ele>
        <time>2020-10-18T08:21:48Z</time>
      </trkpt>
      <trkpt lat="44.07802" lon="6.16505">
        <ele>744</ele>
        <time>2020-10-18T08:21:50Z</time>
      </trkpt>
      <trkpt lat="44.07803" lon="6.16505">
        <ele>744</ele>
        <time>2020-10-18T08:21:51Z</time>
      </trkpt>
      <trkpt lat="44.07804" lon="6.16505">
        <ele>744.2</ele>
        <time>2020-10-18T08:21:52Z</time>
      </trkpt>
      <trkpt lat="44.07805" lon="6.16506">
        <ele>744.2</ele>
        <time>2020-10-18T08:21:53Z</time>
      </trkpt>
      <trkpt lat="44.07805" lon="6.16506">
        <ele>744.4</ele>
        <time>2020-10-18T08:21:54Z</time>
      </trkpt>
      <trkpt lat="44.07807" lon="6.16506">
        <ele>744.6</ele>
        <time>2020-10-18T08:21:56Z</time>
      </trkpt>
      <trkpt lat="44.07808" lon="6.16506">
        <ele>744.8</ele>
        <time>2020-10-18T08:21:57Z</time>
      </trkpt>
      <trkpt lat="44.07809" lon="6.16506">
        <ele>745</ele>
        <time>2020-10-18T08:21:58Z</time>
      </trkpt>
      <trkpt lat="44.07809" lon="6.16506">
        <ele>744.8</ele>
        <time>2020-10-18T08:21:59Z</time>
      </trkpt>
      <trkpt lat="44.0781" lon="6.16505">
        <ele>745.2</ele>
        <time>2020-10-18T08:22:00Z</time>
      </trkpt>
      <trkpt lat="44.0781" lon="6.16505">
        <ele>745.4</ele>
        <time>2020-10-18T08:22:01Z</time>
      </trkpt>
      <trkpt lat="44.07811" lon="6.16505">
        <ele>745.6</ele>
        <time>2020-10-18T08:22:02Z</time>
      </trkpt>
      <trkpt lat="44.07812" lon="6.16505">
        <ele>745.6</ele>
        <time>2020-10-18T08:22:03Z</time>
      </trkpt>
      <trkpt lat="44.07812" lon="6.16505">
        <ele>746</ele>
        <time>2020-10-18T08:22:04Z</time>
      </trkpt>
      <trkpt lat="44.07813" lon="6.16505">
        <ele>746</ele>
        <time>2020-10-18T08:22:05Z</time>
      </trkpt>
      <trkpt lat="44.07814" lon="6.16505">
        <ele>746.4</ele>
        <time>2020-10-18T08:22:06Z</time>
      </trkpt>
      <trkpt lat="44.07814" lon="6.16505">
        <ele>746.6</ele>
        <time>2020-10-18T08:22:07Z</time>
      </trkpt>
      <trkpt lat="44.07815" lon="6.16505">
        <ele>747</ele>
        <time>2020-10-18T08:22:08Z</time>
      </trkpt>
      <trkpt lat="44.07815" lon="6.16505">
        <ele>747.2</ele>
        <time>2020-10-18T08:22:09Z</time>
      </trkpt>
      <trkpt lat="44.07816" lon="6.16505">
        <ele>747.2</ele>
        <time>2020-10-18T08:22:10Z</time>
      </trkpt>
      <trkpt lat="44.07816" lon="6.16504">
        <ele>748</ele>
        <time>2020-10-18T08:22:12Z</time>
      </trkpt>
      <trkpt lat="44.07816" lon="6.16504">
        <ele>748.2</ele>
        <time>2020-10-18T08:22:13Z</time>
      </trkpt>
      <trkpt lat="44.07817" lon="6.16504">
        <ele>748.4</ele>
        <time>2020-10-18T08:22:14Z</time>
      </trkpt>
      <trkpt lat="44.07817" lon="6.16504">
        <ele>748.8</ele>
        <time>2020-10-18T08:22:15Z</time>
      </trkpt>
      <trkpt lat="44.07818" lon="6.16503">
        <ele>749</ele>
        <time>2020-10-18T08:22:16Z</time>
      </trkpt>
      <trkpt lat="44.07818" lon="6.16502">
        <ele>749.2</ele>
        <time>2020-10-18T08:22:17Z</time>
      </trkpt>
      <trkpt lat="44.07818" lon="6.16502">
        <ele>749.2</ele>
        <time>2020-10-18T08:22:18Z</time>
      </trkpt>
      <trkpt lat="44.07819" lon="6.16501">
        <ele>749.6</ele>
        <time>2020-10-18T08:22:19Z</time>
      </trkpt>
      <trkpt lat="44.07819" lon="6.165">
        <ele>749.6</ele>
        <time>2020-10-18T08:22:20Z</time>
      </trkpt>
      <trkpt lat="44.07819" lon="6.16498">
        <ele>749.8</ele>
        <time>2020-10-18T08:22:21Z</time>
      </trkpt>
      <trkpt lat="44.07819" lon="6.16497">
        <ele>749.8</ele>
        <time>2020-10-18T08:22:22Z</time>
      </trkpt>
      <trkpt lat="44.07819" lon="6.16496">
        <ele>750.2</ele>
        <time>2020-10-18T08:22:23Z</time>
      </trkpt>
      <trkpt lat="44.07819" lon="6.16495">
        <ele>750.2</ele>
        <time>2020-10-18T08:22:24Z</time>
      </trkpt>
      <trkpt lat="44.07819" lon="6.16494">
        <ele>750.4</ele>
        <time>2020-10-18T08:22:25Z</time>
      </trkpt>
      <trkpt lat="44.07818" lon="6.16493">
        <ele>750.6</ele>
        <time>2020-10-18T08:22:26Z</time>
      </trkpt>
      <trkpt lat="44.07818" lon="6.16492">
        <ele>751</ele>
        <time>2020-10-18T08:22:27Z</time>
      </trkpt>
      <trkpt lat="44.07818" lon="6.16492">
        <ele>751.2</ele>
        <time>2020-10-18T08:22:28Z</time>
      </trkpt>
      <trkpt lat="44.07817" lon="6.16491">
        <ele>751.4</ele>
        <time>2020-10-18T08:22:30Z</time>
      </trkpt>
      <trkpt lat="44.07817" lon="6.1649">
        <ele>751.8</ele>
        <time>2020-10-18T08:22:31Z</time>
      </trkpt>
      <trkpt lat="44.07817" lon="6.1649">
        <ele>751.8</ele>
        <time>2020-10-18T08:22:32Z</time>
      </trkpt>
      <trkpt lat="44.07817" lon="6.16489">
        <ele>752.2</ele>
        <time>2020-10-18T08:22:33Z</time>
      </trkpt>
      <trkpt lat="44.07817" lon="6.16488">
        <ele>752.4</ele>
        <time>2020-10-18T08:22:34Z</time>
      </trkpt>
      <trkpt lat="44.07817" lon="6.16487">
        <ele>752.8</ele>
        <time>2020-10-18T08:22:35Z</time>
      </trkpt>
      <trkpt lat="44.07817" lon="6.16486">
        <ele>752.8</ele>
        <time>2020-10-18T08:22:36Z</time>
      </trkpt>
      <trkpt lat="44.07817" lon="6.16485">
        <ele>753</ele>
        <time>2020-10-18T08:22:37Z</time>
      </trkpt>
      <trkpt lat="44.07817" lon="6.16484">
        <ele>753.2</ele>
        <time>2020-10-18T08:22:38Z</time>
      </trkpt>
      <trkpt lat="44.07816" lon="6.16483">
        <ele>753.4</ele>
        <time>2020-10-18T08:22:39Z</time>
      </trkpt>
      <trkpt lat="44.07816" lon="6.16482">
        <ele>753.4</ele>
        <time>2020-10-18T08:22:40Z</time>
      </trkpt>
      <trkpt lat="44.07816" lon="6.16481">
        <ele>753.6</ele>
        <time>2020-10-18T08:22:41Z</time>
      </trkpt>
      <trkpt lat="44.07816" lon="6.1648">
        <ele>753.6</ele>
        <time>2020-10-18T08:22:42Z</time>
      </trkpt>
      <trkpt lat="44.07816" lon="6.16479">
        <ele>753.6</ele>
        <time>2020-10-18T08:22:43Z</time>
      </trkpt>
      <trkpt lat="44.07816" lon="6.16478">
        <ele>753.6</ele>
        <time>2020-10-18T08:22:44Z</time>
      </trkpt>
      <trkpt lat="44.07816" lon="6.16477">
        <ele>754.2</ele>
        <time>2020-10-18T08:22:45Z</time>
      </trkpt>
      <trkpt lat="44.07816" lon="6.16476">
        <ele>754.4</ele>
        <time>2020-10-18T08:22:46Z</time>
      </trkpt>
      <trkpt lat="44.07815" lon="6.16476">
        <ele>754.8</ele>
        <time>2020-10-18T08:22:47Z</time>
      </trkpt>
      <trkpt lat="44.07815" lon="6.16475">
        <ele>755</ele>
        <time>2020-10-18T08:22:48Z</time>
      </trkpt>
      <trkpt lat="44.07815" lon="6.16474">
        <ele>755.4</ele>
        <time>2020-10-18T08:22:49Z</time>
      </trkpt>
      <trkpt lat="44.07815" lon="6.16474">
        <ele>755.8</ele>
        <time>2020-10-18T08:22:50Z</time>
      </trkpt>
      <trkpt lat="44.07815" lon="6.16473">
        <ele>755.8</ele>
        <time>2020-10-18T08:22:51Z</time>
      </trkpt>
      <trkpt lat="44.07815" lon="6.16471">
        <ele>756.2</ele>
        <time>2020-10-18T08:22:52Z</time>
      </trkpt>
      <trkpt lat="44.07816" lon="6.1647">
        <ele>756.2</ele>
        <time>2020-10-18T08:22:53Z</time>
      </trkpt>
      <trkpt lat="44.07816" lon="6.16469">
        <ele>756.2</ele>
        <time>2020-10-18T08:22:54Z</time>
      </trkpt>
      <trkpt lat="44.07816" lon="6.16467">
        <ele>756.4</ele>
        <time>2020-10-18T08:22:55Z</time>
      </trkpt>
      <trkpt lat="44.07816" lon="6.16466">
        <ele>756.6</ele>
        <time>2020-10-18T08:22:56Z</time>
      </trkpt>
      <trkpt lat="44.07816" lon="6.16465">
        <ele>756.8</ele>
        <time>2020-10-18T08:22:57Z</time>
      </trkpt>
      <trkpt lat="44.07816" lon="6.16464">
        <ele>757</ele>
        <time>2020-10-18T08:22:58Z</time>
      </trkpt>
      <trkpt lat="44.07816" lon="6.16463">
        <ele>757.4</ele>
        <time>2020-10-18T08:22:59Z</time>
      </trkpt>
      <trkpt lat="44.07816" lon="6.16462">
        <ele>757.4</ele>
        <time>2020-10-18T08:23:00Z</time>
      </trkpt>
      <trkpt lat="44.07817" lon="6.16461">
        <ele>757.6</ele>
        <time>2020-10-18T08:23:01Z</time>
      </trkpt>
      <trkpt lat="44.07817" lon="6.1646">
        <ele>758</ele>
        <time>2020-10-18T08:23:02Z</time>
      </trkpt>
      <trkpt lat="44.07818" lon="6.1646">
        <ele>758.2</ele>
        <time>2020-10-18T08:23:03Z</time>
      </trkpt>
      <trkpt lat="44.07818" lon="6.1646">
        <ele>758.2</ele>
        <time>2020-10-18T08:23:04Z</time>
      </trkpt>
      <trkpt lat="44.07818" lon="6.1646">
        <ele>758.2</ele>
        <time>2020-10-18T08:23:06Z</time>
      </trkpt>
      <trkpt lat="44.07818" lon="6.1646">
        <ele>758.4</ele>
        <time>2020-10-18T08:23:08Z</time>
      </trkpt>
      <trkpt lat="44.07818" lon="6.1646">
        <ele>758.6</ele>
        <time>2020-10-18T08:23:10Z</time>
      </trkpt>
      <trkpt lat="44.07817" lon="6.16461">
        <ele>758.6</ele>
        <time>2020-10-18T08:23:12Z</time>
      </trkpt>
      <trkpt lat="44.07817" lon="6.16461">
        <ele>758.6</ele>
        <time>2020-10-18T08:23:14Z</time>
      </trkpt>
      <trkpt lat="44.07818" lon="6.1646">
        <ele>758.8</ele>
        <time>2020-10-18T08:23:16Z</time>
      </trkpt>
      <trkpt lat="44.07818" lon="6.1646">
        <ele>758.6</ele>
        <time>2020-10-18T08:23:18Z</time>
      </trkpt>
      <trkpt lat="44.07818" lon="6.1646">
        <ele>758.8</ele>
        <time>2020-10-18T08:23:20Z</time>
      </trkpt>
      <trkpt lat="44.07818" lon="6.1646">
        <ele>758.6</ele>
        <time>2020-10-18T08:23:21Z</time>
      </trkpt>
      <trkpt lat="44.07818" lon="6.1646">
        <ele>758.8</ele>
        <time>2020-10-18T08:23:22Z</time>
      </trkpt>
      <trkpt lat="44.07818" lon="6.16459">
        <ele>758.6</ele>
        <time>2020-10-18T08:23:24Z</time>
      </trkpt>
      <trkpt lat="44.07818" lon="6.16459">
        <ele>758.6</ele>
        <time>2020-10-18T08:23:26Z</time>
      </trkpt>
      <trkpt lat="44.07818" lon="6.16459">
        <ele>758.8</ele>
        <time>2020-10-18T08:23:28Z</time>
      </trkpt>
      <trkpt lat="44.07818" lon="6.16459">
        <ele>758.8</ele>
        <time>2020-10-18T08:23:30Z</time>
      </trkpt>
      <trkpt lat="44.07818" lon="6.16459">
        <ele>758.6</ele>
        <time>2020-10-18T08:23:31Z</time>
      </trkpt>
      <trkpt lat="44.07818" lon="6.16459">
        <ele>758.6</ele>
        <time>2020-10-18T08:23:32Z</time>
      </trkpt>
      <trkpt lat="44.07818" lon="6.16459">
        <ele>758.6</ele>
        <time>2020-10-18T08:23:33Z</time>
      </trkpt>
      <trkpt lat="44.07818" lon="6.16459">
        <ele>758.6</ele>
        <time>2020-10-18T08:23:34Z</time>
      </trkpt>
      <trkpt lat="44.07818" lon="6.16459">
        <ele>758.6</ele>
        <time>2020-10-18T08:23:36Z</time>
      </trkpt>
      <trkpt lat="44.07818" lon="6.16459">
        <ele>758.6</ele>
        <time>2020-10-18T08:23:38Z</time>
      </trkpt>
      <trkpt lat="44.07818" lon="6.16459">
        <ele>758.6</ele>
        <time>2020-10-18T08:23:39Z</time>
      </trkpt>
      <trkpt lat="44.07819" lon="6.16458">
        <ele>758.6</ele>
        <time>2020-10-18T08:23:40Z</time>
      </trkpt>
      <trkpt lat="44.07819" lon="6.16455">
        <ele>758.6</ele>
        <time>2020-10-18T08:23:42Z</time>
      </trkpt>
      <trkpt lat="44.0782" lon="6.16454">
        <ele>758.8</ele>
        <time>2020-10-18T08:23:43Z</time>
      </trkpt>
      <trkpt lat="44.07819" lon="6.16453">
        <ele>758.4</ele>
        <time>2020-10-18T08:23:44Z</time>
      </trkpt>
      <trkpt lat="44.07819" lon="6.16453">
        <ele>758.4</ele>
        <time>2020-10-18T08:23:45Z</time>
      </trkpt>
      <trkpt lat="44.07818" lon="6.16452">
        <ele>758.6</ele>
        <time>2020-10-18T08:23:46Z</time>
      </trkpt>
      <trkpt lat="44.07816" lon="6.16453">
        <ele>758.6</ele>
        <time>2020-10-18T08:23:48Z</time>
      </trkpt>
      <trkpt lat="44.07814" lon="6.16453">
        <ele>758.6</ele>
        <time>2020-10-18T08:23:49Z</time>
      </trkpt>
      <trkpt lat="44.07813" lon="6.16454">
        <ele>758.6</ele>
        <time>2020-10-18T08:23:50Z</time>
      </trkpt>
      <trkpt lat="44.07811" lon="6.16456">
        <ele>758.6</ele>
        <time>2020-10-18T08:23:51Z</time>
      </trkpt>
      <trkpt lat="44.0781" lon="6.16457">
        <ele>758.6</ele>
        <time>2020-10-18T08:23:52Z</time>
      </trkpt>
      <trkpt lat="44.07809" lon="6.16457">
        <ele>758.6</ele>
        <time>2020-10-18T08:23:53Z</time>
      </trkpt>
      <trkpt lat="44.07808" lon="6.16457">
        <ele>758.6</ele>
        <time>2020-10-18T08:23:54Z</time>
      </trkpt>
      <trkpt lat="44.07807" lon="6.16457">
        <ele>758.6</ele>
        <time>2020-10-18T08:23:55Z</time>
      </trkpt>
      <trkpt lat="44.07806" lon="6.16457">
        <ele>758.6</ele>
        <time>2020-10-18T08:23:56Z</time>
      </trkpt>
      <trkpt lat="44.07806" lon="6.16456">
        <ele>758.8</ele>
        <time>2020-10-18T08:23:57Z</time>
      </trkpt>
      <trkpt lat="44.07805" lon="6.16455">
        <ele>759</ele>
        <time>2020-10-18T08:23:58Z</time>
      </trkpt>
      <trkpt lat="44.07805" lon="6.16455">
        <ele>759.6</ele>
        <time>2020-10-18T08:24:00Z</time>
      </trkpt>
      <trkpt lat="44.07805" lon="6.16454">
        <ele>760</ele>
        <time>2020-10-18T08:24:01Z</time>
      </trkpt>
      <trkpt lat="44.07805" lon="6.16453">
        <ele>760</ele>
        <time>2020-10-18T08:24:02Z</time>
      </trkpt>
      <trkpt lat="44.07805" lon="6.16451">
        <ele>760.4</ele>
        <time>2020-10-18T08:24:04Z</time>
      </trkpt>
      <trkpt lat="44.07805" lon="6.16449">
        <ele>760.4</ele>
        <time>2020-10-18T08:24:05Z</time>
      </trkpt>
      <trkpt lat="44.07805" lon="6.16448">
        <ele>760.6</ele>
        <time>2020-10-18T08:24:06Z</time>
      </trkpt>
      <trkpt lat="44.07805" lon="6.16447">
        <ele>760.8</ele>
        <time>2020-10-18T08:24:07Z</time>
      </trkpt>
      <trkpt lat="44.07805" lon="6.16446">
        <ele>761</ele>
        <time>2020-10-18T08:24:08Z</time>
      </trkpt>
      <trkpt lat="44.07805" lon="6.16445">
        <ele>761</ele>
        <time>2020-10-18T08:24:09Z</time>
      </trkpt>
      <trkpt lat="44.07806" lon="6.16444">
        <ele>761</ele>
        <time>2020-10-18T08:24:10Z</time>
      </trkpt>
      <trkpt lat="44.07806" lon="6.16443">
        <ele>761</ele>
        <time>2020-10-18T08:24:11Z</time>
      </trkpt>
      <trkpt lat="44.07806" lon="6.16441">
        <ele>761.2</ele>
        <time>2020-10-18T08:24:12Z</time>
      </trkpt>
      <trkpt lat="44.07806" lon="6.1644">
        <ele>761.4</ele>
        <time>2020-10-18T08:24:13Z</time>
      </trkpt>
      <trkpt lat="44.07806" lon="6.16439">
        <ele>761.6</ele>
        <time>2020-10-18T08:24:14Z</time>
      </trkpt>
      <trkpt lat="44.07806" lon="6.16438">
        <ele>761.8</ele>
        <time>2020-10-18T08:24:15Z</time>
      </trkpt>
      <trkpt lat="44.07806" lon="6.16436">
        <ele>761.8</ele>
        <time>2020-10-18T08:24:16Z</time>
      </trkpt>
      <trkpt lat="44.07806" lon="6.16435">
        <ele>762</ele>
        <time>2020-10-18T08:24:17Z</time>
      </trkpt>
      <trkpt lat="44.07806" lon="6.16434">
        <ele>762.4</ele>
        <time>2020-10-18T08:24:18Z</time>
      </trkpt>
      <trkpt lat="44.07806" lon="6.16433">
        <ele>762.6</ele>
        <time>2020-10-18T08:24:19Z</time>
      </trkpt>
      <trkpt lat="44.07806" lon="6.16431">
        <ele>763</ele>
        <time>2020-10-18T08:24:20Z</time>
      </trkpt>
      <trkpt lat="44.07806" lon="6.1643">
        <ele>763.2</ele>
        <time>2020-10-18T08:24:21Z</time>
      </trkpt>
      <trkpt lat="44.07805" lon="6.1643">
        <ele>763.4</ele>
        <time>2020-10-18T08:24:22Z</time>
      </trkpt>
      <trkpt lat="44.07805" lon="6.16429">
        <ele>763.6</ele>
        <time>2020-10-18T08:24:23Z</time>
      </trkpt>
      <trkpt lat="44.07805" lon="6.16429">
        <ele>763.6</ele>
        <time>2020-10-18T08:24:24Z</time>
      </trkpt>
      <trkpt lat="44.07804" lon="6.16429">
        <ele>763.8</ele>
        <time>2020-10-18T08:24:26Z</time>
      </trkpt>
      <trkpt lat="44.07804" lon="6.16427">
        <ele>764.2</ele>
        <time>2020-10-18T08:24:28Z</time>
      </trkpt>
      <trkpt lat="44.07804" lon="6.16426">
        <ele>764.2</ele>
        <time>2020-10-18T08:24:29Z</time>
      </trkpt>
      <trkpt lat="44.07804" lon="6.16424">
        <ele>764.4</ele>
        <time>2020-10-18T08:24:30Z</time>
      </trkpt>
      <trkpt lat="44.07804" lon="6.16423">
        <ele>764.4</ele>
        <time>2020-10-18T08:24:31Z</time>
      </trkpt>
      <trkpt lat="44.07805" lon="6.16421">
        <ele>764.6</ele>
        <time>2020-10-18T08:24:32Z</time>
      </trkpt>
      <trkpt lat="44.07805" lon="6.1642">
        <ele>764.6</ele>
        <time>2020-10-18T08:24:33Z</time>
      </trkpt>
      <trkpt lat="44.07805" lon="6.16419">
        <ele>764.6</ele>
        <time>2020-10-18T08:24:34Z</time>
      </trkpt>
      <trkpt lat="44.07805" lon="6.16418">
        <ele>764.6</ele>
        <time>2020-10-18T08:24:35Z</time>
      </trkpt>
      <trkpt lat="44.07805" lon="6.16417">
        <ele>764.6</ele>
        <time>2020-10-18T08:24:36Z</time>
      </trkpt>
      <trkpt lat="44.07806" lon="6.16416">
        <ele>764.6</ele>
        <time>2020-10-18T08:24:37Z</time>
      </trkpt>
      <trkpt lat="44.07806" lon="6.16416">
        <ele>765</ele>
        <time>2020-10-18T08:24:38Z</time>
      </trkpt>
      <trkpt lat="44.07806" lon="6.16416">
        <ele>765</ele>
        <time>2020-10-18T08:24:39Z</time>
      </trkpt>
      <trkpt lat="44.07806" lon="6.16416">
        <ele>765.4</ele>
        <time>2020-10-18T08:24:40Z</time>
      </trkpt>
      <trkpt lat="44.07806" lon="6.16416">
        <ele>765.6</ele>
        <time>2020-10-18T08:24:42Z</time>
      </trkpt>
      <trkpt lat="44.07806" lon="6.16416">
        <ele>765.8</ele>
        <time>2020-10-18T08:24:44Z</time>
      </trkpt>
      <trkpt lat="44.07806" lon="6.16416">
        <ele>766</ele>
        <time>2020-10-18T08:24:46Z</time>
      </trkpt>
      <trkpt lat="44.07806" lon="6.16416">
        <ele>766</ele>
        <time>2020-10-18T08:24:48Z</time>
      </trkpt>
      <trkpt lat="44.07806" lon="6.16416">
        <ele>766</ele>
        <time>2020-10-18T08:24:50Z</time>
      </trkpt>
      <trkpt lat="44.07806" lon="6.16416">
        <ele>766</ele>
        <time>2020-10-18T08:24:52Z</time>
      </trkpt>
      <trkpt lat="44.07806" lon="6.16416">
        <ele>765.8</ele>
        <time>2020-10-18T08:24:54Z</time>
      </trkpt>
      <trkpt lat="44.07806" lon="6.16416">
        <ele>766</ele>
        <time>2020-10-18T08:24:56Z</time>
      </trkpt>
      <trkpt lat="44.07806" lon="6.16416">
        <ele>766</ele>
        <time>2020-10-18T08:24:57Z</time>
      </trkpt>
      <trkpt lat="44.07806" lon="6.16416">
        <ele>766</ele>
        <time>2020-10-18T08:24:58Z</time>
      </trkpt>
      <trkpt lat="44.07806" lon="6.16416">
        <ele>766</ele>
        <time>2020-10-18T08:25:00Z</time>
      </trkpt>
      <trkpt lat="44.07806" lon="6.16416">
        <ele>765.8</ele>
        <time>2020-10-18T08:25:02Z</time>
      </trkpt>
      <trkpt lat="44.07806" lon="6.16416">
        <ele>765.8</ele>
        <time>2020-10-18T08:25:04Z</time>
      </trkpt>
      <trkpt lat="44.07806" lon="6.16416">
        <ele>766</ele>
        <time>2020-10-18T08:25:06Z</time>
      </trkpt>
      <trkpt lat="44.07806" lon="6.16416">
        <ele>766</ele>
        <time>2020-10-18T08:25:08Z</time>
      </trkpt>
      <trkpt lat="44.07806" lon="6.16416">
        <ele>766</ele>
        <time>2020-10-18T08:25:10Z</time>
      </trkpt>
      <trkpt lat="44.07806" lon="6.16416">
        <ele>766</ele>
        <time>2020-10-18T08:25:12Z</time>
      </trkpt>
      <trkpt lat="44.07806" lon="6.16416">
        <ele>766</ele>
        <time>2020-10-18T08:25:14Z</time>
      </trkpt>
      <trkpt lat="44.07806" lon="6.16416">
        <ele>765.8</ele>
        <time>2020-10-18T08:25:16Z</time>
      </trkpt>
      <trkpt lat="44.07806" lon="6.16416">
        <ele>765.8</ele>
        <time>2020-10-18T08:25:18Z</time>
      </trkpt>
      <trkpt lat="44.07806" lon="6.16416">
        <ele>766</ele>
        <time>2020-10-18T08:25:20Z</time>
      </trkpt>
      <trkpt lat="44.07806" lon="6.16416">
        <ele>766</ele>
        <time>2020-10-18T08:25:22Z</time>
      </trkpt>
      <trkpt lat="44.07806" lon="6.16416">
        <ele>766</ele>
        <time>2020-10-18T08:25:24Z</time>
      </trkpt>
      <trkpt lat="44.07806" lon="6.16416">
        <ele>766</ele>
        <time>2020-10-18T08:25:26Z</time>
      </trkpt>
      <trkpt lat="44.07806" lon="6.16416">
        <ele>766</ele>
        <time>2020-10-18T08:25:28Z</time>
      </trkpt>
      <trkpt lat="44.07806" lon="6.16416">
        <ele>766</ele>
        <time>2020-10-18T08:25:29Z</time>
      </trkpt>
      <trkpt lat="44.07806" lon="6.16416">
        <ele>766</ele>
        <time>2020-10-18T08:25:30Z</time>
      </trkpt>
      <trkpt lat="44.07806" lon="6.16416">
        <ele>766</ele>
        <time>2020-10-18T08:25:32Z</time>
      </trkpt>
      <trkpt lat="44.07806" lon="6.16416">
        <ele>766</ele>
        <time>2020-10-18T08:25:34Z</time>
      </trkpt>
      <trkpt lat="44.07806" lon="6.16416">
        <ele>766</ele>
        <time>2020-10-18T08:25:36Z</time>
      </trkpt>
      <trkpt lat="44.07806" lon="6.16416">
        <ele>766</ele>
        <time>2020-10-18T08:25:38Z</time>
      </trkpt>
      <trkpt lat="44.07807" lon="6.16416">
        <ele>766</ele>
        <time>2020-10-18T08:25:40Z</time>
      </trkpt>
      <trkpt lat="44.07807" lon="6.16417">
        <ele>766</ele>
        <time>2020-10-18T08:25:42Z</time>
      </trkpt>
      <trkpt lat="44.07807" lon="6.16417">
        <ele>766</ele>
        <time>2020-10-18T08:25:44Z</time>
      </trkpt>
      <trkpt lat="44.07807" lon="6.16417">
        <ele>766</ele>
        <time>2020-10-18T08:25:46Z</time>
      </trkpt>
      <trkpt lat="44.07807" lon="6.16418">
        <ele>765.8</ele>
        <time>2020-10-18T08:25:48Z</time>
      </trkpt>
      <trkpt lat="44.07807" lon="6.16418">
        <ele>766</ele>
        <time>2020-10-18T08:25:50Z</time>
      </trkpt>
      <trkpt lat="44.07807" lon="6.16418">
        <ele>765.8</ele>
        <time>2020-10-18T08:25:52Z</time>
      </trkpt>
      <trkpt lat="44.07807" lon="6.16419">
        <ele>766</ele>
        <time>2020-10-18T08:25:53Z</time>
      </trkpt>
      <trkpt lat="44.07807" lon="6.16422">
        <ele>766</ele>
        <time>2020-10-18T08:25:54Z</time>
      </trkpt>
      <trkpt lat="44.07807" lon="6.16428">
        <ele>766</ele>
        <time>2020-10-18T08:25:56Z</time>
      </trkpt>
      <trkpt lat="44.07807" lon="6.16431">
        <ele>766</ele>
        <time>2020-10-18T08:25:57Z</time>
      </trkpt>
      <trkpt lat="44.07807" lon="6.16435">
        <ele>766</ele>
        <time>2020-10-18T08:25:58Z</time>
      </trkpt>
      <trkpt lat="44.07807" lon="6.16438">
        <ele>765.8</ele>
        <time>2020-10-18T08:25:59Z</time>
      </trkpt>
      <trkpt lat="44.07807" lon="6.1644">
        <ele>765.8</ele>
        <time>2020-10-18T08:26:00Z</time>
      </trkpt>
      <trkpt lat="44.07808" lon="6.16443">
        <ele>765.4</ele>
        <time>2020-10-18T08:26:01Z</time>
      </trkpt>
      <trkpt lat="44.07808" lon="6.16445">
        <ele>765.4</ele>
        <time>2020-10-18T08:26:02Z</time>
      </trkpt>
      <trkpt lat="44.07807" lon="6.16448">
        <ele>765.2</ele>
        <time>2020-10-18T08:26:03Z</time>
      </trkpt>
      <trkpt lat="44.07807" lon="6.1645">
        <ele>765</ele>
        <time>2020-10-18T08:26:04Z</time>
      </trkpt>
      <trkpt lat="44.07807" lon="6.16452">
        <ele>764.4</ele>
        <time>2020-10-18T08:26:05Z</time>
      </trkpt>
      <trkpt lat="44.07808" lon="6.16453">
        <ele>764.4</ele>
        <time>2020-10-18T08:26:06Z</time>
      </trkpt>
      <trkpt lat="44.07809" lon="6.16454">
        <ele>764.2</ele>
        <time>2020-10-18T08:26:07Z</time>
      </trkpt>
      <trkpt lat="44.0781" lon="6.16455">
        <ele>764.2</ele>
        <time>2020-10-18T08:26:08Z</time>
      </trkpt>
      <trkpt lat="44.07812" lon="6.16457">
        <ele>763.6</ele>
        <time>2020-10-18T08:26:10Z</time>
      </trkpt>
      <trkpt lat="44.07813" lon="6.16459">
        <ele>763.2</ele>
        <time>2020-10-18T08:26:11Z</time>
      </trkpt>
      <trkpt lat="44.07814" lon="6.1646">
        <ele>762.4</ele>
        <time>2020-10-18T08:26:12Z</time>
      </trkpt>
      <trkpt lat="44.07815" lon="6.16463">
        <ele>761.6</ele>
        <time>2020-10-18T08:26:13Z</time>
      </trkpt>
      <trkpt lat="44.07816" lon="6.16465">
        <ele>761.2</ele>
        <time>2020-10-18T08:26:14Z</time>
      </trkpt>
      <trkpt lat="44.07817" lon="6.16467">
        <ele>761</ele>
        <time>2020-10-18T08:26:15Z</time>
      </trkpt>
      <trkpt lat="44.07817" lon="6.1647">
        <ele>760.8</ele>
        <time>2020-10-18T08:26:16Z</time>
      </trkpt>
      <trkpt lat="44.07817" lon="6.16472">
        <ele>760.6</ele>
        <time>2020-10-18T08:26:17Z</time>
      </trkpt>
      <trkpt lat="44.07818" lon="6.16475">
        <ele>760.6</ele>
        <time>2020-10-18T08:26:18Z</time>
      </trkpt>
      <trkpt lat="44.07818" lon="6.16477">
        <ele>760.2</ele>
        <time>2020-10-18T08:26:19Z</time>
      </trkpt>
      <trkpt lat="44.07818" lon="6.16479">
        <ele>759.8</ele>
        <time>2020-10-18T08:26:20Z</time>
      </trkpt>
      <trkpt lat="44.07819" lon="6.1648">
        <ele>759.4</ele>
        <time>2020-10-18T08:26:21Z</time>
      </trkpt>
      <trkpt lat="44.07819" lon="6.16482">
        <ele>758.8</ele>
        <time>2020-10-18T08:26:22Z</time>
      </trkpt>
      <trkpt lat="44.0782" lon="6.16483">
        <ele>758.4</ele>
        <time>2020-10-18T08:26:23Z</time>
      </trkpt>
      <trkpt lat="44.07821" lon="6.16485">
        <ele>758.2</ele>
        <time>2020-10-18T08:26:24Z</time>
      </trkpt>
      <trkpt lat="44.07822" lon="6.16486">
        <ele>757.4</ele>
        <time>2020-10-18T08:26:25Z</time>
      </trkpt>
      <trkpt lat="44.07823" lon="6.16488">
        <ele>757.4</ele>
        <time>2020-10-18T08:26:26Z</time>
      </trkpt>
      <trkpt lat="44.07823" lon="6.16491">
        <ele>756.6</ele>
        <time>2020-10-18T08:26:27Z</time>
      </trkpt>
      <trkpt lat="44.07823" lon="6.16493">
        <ele>756</ele>
        <time>2020-10-18T08:26:28Z</time>
      </trkpt>
      <trkpt lat="44.07822" lon="6.16494">
        <ele>755.8</ele>
        <time>2020-10-18T08:26:29Z</time>
      </trkpt>
      <trkpt lat="44.07821" lon="6.16495">
        <ele>755</ele>
        <time>2020-10-18T08:26:30Z</time>
      </trkpt>
      <trkpt lat="44.07817" lon="6.16496">
        <ele>754.2</ele>
        <time>2020-10-18T08:26:32Z</time>
      </trkpt>
      <trkpt lat="44.07815" lon="6.16497">
        <ele>753.6</ele>
        <time>2020-10-18T08:26:33Z</time>
      </trkpt>
      <trkpt lat="44.07812" lon="6.16497">
        <ele>753</ele>
        <time>2020-10-18T08:26:34Z</time>
      </trkpt>
      <trkpt lat="44.07807" lon="6.16497">
        <ele>751.6</ele>
        <time>2020-10-18T08:26:36Z</time>
      </trkpt>
      <trkpt lat="44.07804" lon="6.16496">
        <ele>751</ele>
        <time>2020-10-18T08:26:37Z</time>
      </trkpt>
      <trkpt lat="44.07801" lon="6.16495">
        <ele>750.6</ele>
        <time>2020-10-18T08:26:38Z</time>
      </trkpt>
      <trkpt lat="44.07798" lon="6.16495">
        <ele>750.2</ele>
        <time>2020-10-18T08:26:39Z</time>
      </trkpt>
      <trkpt lat="44.07796" lon="6.16496">
        <ele>749.4</ele>
        <time>2020-10-18T08:26:40Z</time>
      </trkpt>
      <trkpt lat="44.07794" lon="6.16497">
        <ele>748.2</ele>
        <time>2020-10-18T08:26:41Z</time>
      </trkpt>
      <trkpt lat="44.07792" lon="6.16498">
        <ele>746.8</ele>
        <time>2020-10-18T08:26:42Z</time>
      </trkpt>
      <trkpt lat="44.07791" lon="6.16499">
        <ele>746</ele>
        <time>2020-10-18T08:26:43Z</time>
      </trkpt>
      <trkpt lat="44.07789" lon="6.165">
        <ele>745.6</ele>
        <time>2020-10-18T08:26:44Z</time>
      </trkpt>
      <trkpt lat="44.07787" lon="6.165">
        <ele>745.6</ele>
        <time>2020-10-18T08:26:45Z</time>
      </trkpt>
      <trkpt lat="44.07785" lon="6.165">
        <ele>745.2</ele>
        <time>2020-10-18T08:26:46Z</time>
      </trkpt>
      <trkpt lat="44.07783" lon="6.165">
        <ele>744.6</ele>
        <time>2020-10-18T08:26:47Z</time>
      </trkpt>
      <trkpt lat="44.07782" lon="6.16501">
        <ele>744.2</ele>
        <time>2020-10-18T08:26:48Z</time>
      </trkpt>
      <trkpt lat="44.0778" lon="6.16501">
        <ele>743.8</ele>
        <time>2020-10-18T08:26:49Z</time>
      </trkpt>
      <trkpt lat="44.07779" lon="6.16502">
        <ele>743.2</ele>
        <time>2020-10-18T08:26:50Z</time>
      </trkpt>
      <trkpt lat="44.07777" lon="6.16502">
        <ele>743</ele>
        <time>2020-10-18T08:26:51Z</time>
      </trkpt>
      <trkpt lat="44.07776" lon="6.16504">
        <ele>742.2</ele>
        <time>2020-10-18T08:26:52Z</time>
      </trkpt>
      <trkpt lat="44.07775" lon="6.16505">
        <ele>741.8</ele>
        <time>2020-10-18T08:26:53Z</time>
      </trkpt>
      <trkpt lat="44.07774" lon="6.16507">
        <ele>741.2</ele>
        <time>2020-10-18T08:26:54Z</time>
      </trkpt>
      <trkpt lat="44.07775" lon="6.16509">
        <ele>740.4</ele>
        <time>2020-10-18T08:26:55Z</time>
      </trkpt>
      <trkpt lat="44.07774" lon="6.16511">
        <ele>739.6</ele>
        <time>2020-10-18T08:26:56Z</time>
      </trkpt>
      <trkpt lat="44.07774" lon="6.16512">
        <ele>738.8</ele>
        <time>2020-10-18T08:26:57Z</time>
      </trkpt>
      <trkpt lat="44.07775" lon="6.16513">
        <ele>738.2</ele>
        <time>2020-10-18T08:26:58Z</time>
      </trkpt>
      <trkpt lat="44.07775" lon="6.16514">
        <ele>738</ele>
        <time>2020-10-18T08:26:59Z</time>
      </trkpt>
      <trkpt lat="44.07775" lon="6.16515">
        <ele>737</ele>
        <time>2020-10-18T08:27:00Z</time>
      </trkpt>
      <trkpt lat="44.07774" lon="6.16517">
        <ele>735.2</ele>
        <time>2020-10-18T08:27:02Z</time>
      </trkpt>
      <trkpt lat="44.07774" lon="6.16518">
        <ele>734.6</ele>
        <time>2020-10-18T08:27:03Z</time>
      </trkpt>
      <trkpt lat="44.07773" lon="6.16519">
        <ele>734</ele>
        <time>2020-10-18T08:27:04Z</time>
      </trkpt>
      <trkpt lat="44.07772" lon="6.1652">
        <ele>733.2</ele>
        <time>2020-10-18T08:27:06Z</time>
      </trkpt>
      <trkpt lat="44.07772" lon="6.16521">
        <ele>732.8</ele>
        <time>2020-10-18T08:27:08Z</time>
      </trkpt>
      <trkpt lat="44.07771" lon="6.16522">
        <ele>732.6</ele>
        <time>2020-10-18T08:27:09Z</time>
      </trkpt>
      <trkpt lat="44.0777" lon="6.16523">
        <ele>732.4</ele>
        <time>2020-10-18T08:27:10Z</time>
      </trkpt>
      <trkpt lat="44.07768" lon="6.16524">
        <ele>732.2</ele>
        <time>2020-10-18T08:27:11Z</time>
      </trkpt>
      <trkpt lat="44.07768" lon="6.16526">
        <ele>732</ele>
        <time>2020-10-18T08:27:12Z</time>
      </trkpt>
      <trkpt lat="44.07767" lon="6.16527">
        <ele>732</ele>
        <time>2020-10-18T08:27:13Z</time>
      </trkpt>
      <trkpt lat="44.07769" lon="6.16528">
        <ele>731.8</ele>
        <time>2020-10-18T08:27:14Z</time>
      </trkpt>
      <trkpt lat="44.07769" lon="6.16531">
        <ele>731.8</ele>
        <time>2020-10-18T08:27:15Z</time>
      </trkpt>
      <trkpt lat="44.07769" lon="6.16534">
        <ele>731.8</ele>
        <time>2020-10-18T08:27:16Z</time>
      </trkpt>
      <trkpt lat="44.07767" lon="6.16537">
        <ele>731.6</ele>
        <time>2020-10-18T08:27:17Z</time>
      </trkpt>
      <trkpt lat="44.07765" lon="6.16541">
        <ele>731.2</ele>
        <time>2020-10-18T08:27:18Z</time>
      </trkpt>
      <trkpt lat="44.07762" lon="6.16545">
        <ele>730.8</ele>
        <time>2020-10-18T08:27:19Z</time>
      </trkpt>
      <trkpt lat="44.07759" lon="6.1655">
        <ele>730.2</ele>
        <time>2020-10-18T08:27:20Z</time>
      </trkpt>
      <trkpt lat="44.07754" lon="6.16562">
        <ele>729.8</ele>
        <time>2020-10-18T08:27:21Z</time>
      </trkpt>
      <trkpt lat="44.07753" lon="6.16565">
        <ele>729</ele>
        <time>2020-10-18T08:27:22Z</time>
      </trkpt>
      <trkpt lat="44.07752" lon="6.16568">
        <ele>728.6</ele>
        <time>2020-10-18T08:27:23Z</time>
      </trkpt>
      <trkpt lat="44.0775" lon="6.16572">
        <ele>727.6</ele>
        <time>2020-10-18T08:27:24Z</time>
      </trkpt>
      <trkpt lat="44.0775" lon="6.16576">
        <ele>726.4</ele>
        <time>2020-10-18T08:27:25Z</time>
      </trkpt>
      <trkpt lat="44.0775" lon="6.1658">
        <ele>726.4</ele>
        <time>2020-10-18T08:27:26Z</time>
      </trkpt>
      <trkpt lat="44.0775" lon="6.16583">
        <ele>725.2</ele>
        <time>2020-10-18T08:27:27Z</time>
      </trkpt>
      <trkpt lat="44.0775" lon="6.16586">
        <ele>723.4</ele>
        <time>2020-10-18T08:27:28Z</time>
      </trkpt>
      <trkpt lat="44.07751" lon="6.16588">
        <ele>722.4</ele>
        <time>2020-10-18T08:27:29Z</time>
      </trkpt>
      <trkpt lat="44.07751" lon="6.1659">
        <ele>721.6</ele>
        <time>2020-10-18T08:27:30Z</time>
      </trkpt>
      <trkpt lat="44.07753" lon="6.16594">
        <ele>721.2</ele>
        <time>2020-10-18T08:27:31Z</time>
      </trkpt>
      <trkpt lat="44.07753" lon="6.16598">
        <ele>721</ele>
        <time>2020-10-18T08:27:32Z</time>
      </trkpt>
      <trkpt lat="44.07754" lon="6.16603">
        <ele>720.8</ele>
        <time>2020-10-18T08:27:33Z</time>
      </trkpt>
      <trkpt lat="44.07754" lon="6.16609">
        <ele>720.8</ele>
        <time>2020-10-18T08:27:34Z</time>
      </trkpt>
      <trkpt lat="44.07755" lon="6.1662">
        <ele>720.6</ele>
        <time>2020-10-18T08:27:35Z</time>
      </trkpt>
      <trkpt lat="44.07755" lon="6.16623">
        <ele>720.2</ele>
        <time>2020-10-18T08:27:36Z</time>
      </trkpt>
      <trkpt lat="44.07755" lon="6.16626">
        <ele>719.4</ele>
        <time>2020-10-18T08:27:37Z</time>
      </trkpt>
      <trkpt lat="44.07756" lon="6.16631">
        <ele>718.8</ele>
        <time>2020-10-18T08:27:38Z</time>
      </trkpt>
      <trkpt lat="44.07757" lon="6.16636">
        <ele>718.2</ele>
        <time>2020-10-18T08:27:39Z</time>
      </trkpt>
      <trkpt lat="44.07759" lon="6.1664">
        <ele>717.4</ele>
        <time>2020-10-18T08:27:40Z</time>
      </trkpt>
      <trkpt lat="44.07759" lon="6.16646">
        <ele>716.8</ele>
        <time>2020-10-18T08:27:41Z</time>
      </trkpt>
      <trkpt lat="44.0776" lon="6.16657">
        <ele>715.8</ele>
        <time>2020-10-18T08:27:42Z</time>
      </trkpt>
      <trkpt lat="44.0776" lon="6.1666">
        <ele>715</ele>
        <time>2020-10-18T08:27:43Z</time>
      </trkpt>
      <trkpt lat="44.0776" lon="6.16662">
        <ele>714.8</ele>
        <time>2020-10-18T08:27:44Z</time>
      </trkpt>
      <trkpt lat="44.0776" lon="6.16668">
        <ele>713.4</ele>
        <time>2020-10-18T08:27:45Z</time>
      </trkpt>
      <trkpt lat="44.0776" lon="6.16672">
        <ele>712.6</ele>
        <time>2020-10-18T08:27:46Z</time>
      </trkpt>
      <trkpt lat="44.07759" lon="6.16678">
        <ele>712.6</ele>
        <time>2020-10-18T08:27:47Z</time>
      </trkpt>
      <trkpt lat="44.07758" lon="6.16683">
        <ele>712</ele>
        <time>2020-10-18T08:27:48Z</time>
      </trkpt>
      <trkpt lat="44.07757" lon="6.16695">
        <ele>710</ele>
        <time>2020-10-18T08:27:50Z</time>
      </trkpt>
      <trkpt lat="44.07756" lon="6.16703">
        <ele>709.6</ele>
        <time>2020-10-18T08:27:51Z</time>
      </trkpt>
      <trkpt lat="44.07756" lon="6.16709">
        <ele>708.8</ele>
        <time>2020-10-18T08:27:52Z</time>
      </trkpt>
      <trkpt lat="44.07756" lon="6.16714">
        <ele>708.4</ele>
        <time>2020-10-18T08:27:53Z</time>
      </trkpt>
      <trkpt lat="44.07757" lon="6.16717">
        <ele>708</ele>
        <time>2020-10-18T08:27:54Z</time>
      </trkpt>
      <trkpt lat="44.07758" lon="6.1672">
        <ele>707.6</ele>
        <time>2020-10-18T08:27:55Z</time>
      </trkpt>
      <trkpt lat="44.07758" lon="6.16723">
        <ele>707.4</ele>
        <time>2020-10-18T08:27:56Z</time>
      </trkpt>
      <trkpt lat="44.07759" lon="6.16727">
        <ele>707.2</ele>
        <time>2020-10-18T08:27:57Z</time>
      </trkpt>
      <trkpt lat="44.07759" lon="6.16729">
        <ele>707</ele>
        <time>2020-10-18T08:27:58Z</time>
      </trkpt>
      <trkpt lat="44.07761" lon="6.1673">
        <ele>706.4</ele>
        <time>2020-10-18T08:27:59Z</time>
      </trkpt>
      <trkpt lat="44.07762" lon="6.16729">
        <ele>706</ele>
        <time>2020-10-18T08:28:00Z</time>
      </trkpt>
      <trkpt lat="44.07764" lon="6.16727">
        <ele>705</ele>
        <time>2020-10-18T08:28:02Z</time>
      </trkpt>
      <trkpt lat="44.07764" lon="6.16726">
        <ele>704.4</ele>
        <time>2020-10-18T08:28:03Z</time>
      </trkpt>
      <trkpt lat="44.07765" lon="6.16726">
        <ele>703.8</ele>
        <time>2020-10-18T08:28:04Z</time>
      </trkpt>
      <trkpt lat="44.07765" lon="6.16727">
        <ele>703.4</ele>
        <time>2020-10-18T08:28:05Z</time>
      </trkpt>
      <trkpt lat="44.07765" lon="6.16727">
        <ele>703.4</ele>
        <time>2020-10-18T08:28:06Z</time>
      </trkpt>
      <trkpt lat="44.07765" lon="6.16729">
        <ele>703</ele>
        <time>2020-10-18T08:28:07Z</time>
      </trkpt>
      <trkpt lat="44.07765" lon="6.16733">
        <ele>702.8</ele>
        <time>2020-10-18T08:28:08Z</time>
      </trkpt>
      <trkpt lat="44.07765" lon="6.16739">
        <ele>701.8</ele>
        <time>2020-10-18T08:28:10Z</time>
      </trkpt>
      <trkpt lat="44.07764" lon="6.16743">
        <ele>701.4</ele>
        <time>2020-10-18T08:28:11Z</time>
      </trkpt>
      <trkpt lat="44.07764" lon="6.16746">
        <ele>700.8</ele>
        <time>2020-10-18T08:28:12Z</time>
      </trkpt>
      <trkpt lat="44.07765" lon="6.16749">
        <ele>700.2</ele>
        <time>2020-10-18T08:28:13Z</time>
      </trkpt>
      <trkpt lat="44.07767" lon="6.1675">
        <ele>699.4</ele>
        <time>2020-10-18T08:28:14Z</time>
      </trkpt>
      <trkpt lat="44.07768" lon="6.16751">
        <ele>698.8</ele>
        <time>2020-10-18T08:28:15Z</time>
      </trkpt>
      <trkpt lat="44.0777" lon="6.16751">
        <ele>698.4</ele>
        <time>2020-10-18T08:28:16Z</time>
      </trkpt>
      <trkpt lat="44.07771" lon="6.16751">
        <ele>698</ele>
        <time>2020-10-18T08:28:17Z</time>
      </trkpt>
      <trkpt lat="44.07771" lon="6.16749">
        <ele>697.8</ele>
        <time>2020-10-18T08:28:18Z</time>
      </trkpt>
      <trkpt lat="44.07773" lon="6.16745">
        <ele>697.2</ele>
        <time>2020-10-18T08:28:20Z</time>
      </trkpt>
      <trkpt lat="44.07773" lon="6.16744">
        <ele>697</ele>
        <time>2020-10-18T08:28:21Z</time>
      </trkpt>
      <trkpt lat="44.07773" lon="6.16744">
        <ele>696.8</ele>
        <time>2020-10-18T08:28:22Z</time>
      </trkpt>
      <trkpt lat="44.07774" lon="6.16744">
        <ele>696.4</ele>
        <time>2020-10-18T08:28:23Z</time>
      </trkpt>
      <trkpt lat="44.07774" lon="6.16745">
        <ele>696.2</ele>
        <time>2020-10-18T08:28:24Z</time>
      </trkpt>
      <trkpt lat="44.07774" lon="6.16746">
        <ele>695.6</ele>
        <time>2020-10-18T08:28:25Z</time>
      </trkpt>
      <trkpt lat="44.07775" lon="6.16749">
        <ele>695</ele>
        <time>2020-10-18T08:28:26Z</time>
      </trkpt>
      <trkpt lat="44.07775" lon="6.16754">
        <ele>695</ele>
        <time>2020-10-18T08:28:27Z</time>
      </trkpt>
      <trkpt lat="44.07777" lon="6.16759">
        <ele>694.8</ele>
        <time>2020-10-18T08:28:28Z</time>
      </trkpt>
      <trkpt lat="44.07778" lon="6.16764">
        <ele>694.4</ele>
        <time>2020-10-18T08:28:29Z</time>
      </trkpt>
      <trkpt lat="44.07779" lon="6.16769">
        <ele>694.2</ele>
        <time>2020-10-18T08:28:30Z</time>
      </trkpt>
      <trkpt lat="44.0778" lon="6.16772">
        <ele>693.8</ele>
        <time>2020-10-18T08:28:31Z</time>
      </trkpt>
      <trkpt lat="44.07781" lon="6.16774">
        <ele>693.2</ele>
        <time>2020-10-18T08:28:32Z</time>
      </trkpt>
      <trkpt lat="44.07782" lon="6.16775">
        <ele>692.8</ele>
        <time>2020-10-18T08:28:33Z</time>
      </trkpt>
      <trkpt lat="44.07784" lon="6.16776">
        <ele>692</ele>
        <time>2020-10-18T08:28:34Z</time>
      </trkpt>
      <trkpt lat="44.07785" lon="6.16778">
        <ele>691</ele>
        <time>2020-10-18T08:28:35Z</time>
      </trkpt>
      <trkpt lat="44.07787" lon="6.1678">
        <ele>690.2</ele>
        <time>2020-10-18T08:28:36Z</time>
      </trkpt>
      <trkpt lat="44.07788" lon="6.16782">
        <ele>689.8</ele>
        <time>2020-10-18T08:28:37Z</time>
      </trkpt>
      <trkpt lat="44.07789" lon="6.16784">
        <ele>688.8</ele>
        <time>2020-10-18T08:28:38Z</time>
      </trkpt>
      <trkpt lat="44.07789" lon="6.16785">
        <ele>688.4</ele>
        <time>2020-10-18T08:28:39Z</time>
      </trkpt>
      <trkpt lat="44.07789" lon="6.16787">
        <ele>687.6</ele>
        <time>2020-10-18T08:28:40Z</time>
      </trkpt>
      <trkpt lat="44.07787" lon="6.16788">
        <ele>686.8</ele>
        <time>2020-10-18T08:28:41Z</time>
      </trkpt>
      <trkpt lat="44.07786" lon="6.16789">
        <ele>686.4</ele>
        <time>2020-10-18T08:28:42Z</time>
      </trkpt>
      <trkpt lat="44.07784" lon="6.1679">
        <ele>685.4</ele>
        <time>2020-10-18T08:28:43Z</time>
      </trkpt>
      <trkpt lat="44.07782" lon="6.16793">
        <ele>684.8</ele>
        <time>2020-10-18T08:28:44Z</time>
      </trkpt>
      <trkpt lat="44.0778" lon="6.16796">
        <ele>684</ele>
        <time>2020-10-18T08:28:45Z</time>
      </trkpt>
      <trkpt lat="44.07778" lon="6.16801">
        <ele>684</ele>
        <time>2020-10-18T08:28:46Z</time>
      </trkpt>
      <trkpt lat="44.07777" lon="6.16806">
        <ele>683.4</ele>
        <time>2020-10-18T08:28:47Z</time>
      </trkpt>
      <trkpt lat="44.07776" lon="6.1681">
        <ele>683.2</ele>
        <time>2020-10-18T08:28:48Z</time>
      </trkpt>
      <trkpt lat="44.07778" lon="6.16813">
        <ele>682.8</ele>
        <time>2020-10-18T08:28:49Z</time>
      </trkpt>
      <trkpt lat="44.07781" lon="6.16816">
        <ele>682.6</ele>
        <time>2020-10-18T08:28:50Z</time>
      </trkpt>
      <trkpt lat="44.07785" lon="6.16818">
        <ele>682</ele>
        <time>2020-10-18T08:28:51Z</time>
      </trkpt>
      <trkpt lat="44.07788" lon="6.16819">
        <ele>681.8</ele>
        <time>2020-10-18T08:28:52Z</time>
      </trkpt>
      <trkpt lat="44.0779" lon="6.16819">
        <ele>681</ele>
        <time>2020-10-18T08:28:53Z</time>
      </trkpt>
      <trkpt lat="44.07791" lon="6.16819">
        <ele>680.6</ele>
        <time>2020-10-18T08:28:54Z</time>
      </trkpt>
      <trkpt lat="44.07793" lon="6.16819">
        <ele>680</ele>
        <time>2020-10-18T08:28:55Z</time>
      </trkpt>
      <trkpt lat="44.07795" lon="6.16821">
        <ele>678.8</ele>
        <time>2020-10-18T08:28:56Z</time>
      </trkpt>
      <trkpt lat="44.07796" lon="6.16824">
        <ele>678</ele>
        <time>2020-10-18T08:28:57Z</time>
      </trkpt>
      <trkpt lat="44.07795" lon="6.16829">
        <ele>676.6</ele>
        <time>2020-10-18T08:28:58Z</time>
      </trkpt>
      <trkpt lat="44.07795" lon="6.16834">
        <ele>675.4</ele>
        <time>2020-10-18T08:28:59Z</time>
      </trkpt>
      <trkpt lat="44.07795" lon="6.16839">
        <ele>674.4</ele>
        <time>2020-10-18T08:29:00Z</time>
      </trkpt>
      <trkpt lat="44.07794" lon="6.16842">
        <ele>673.8</ele>
        <time>2020-10-18T08:29:01Z</time>
      </trkpt>
      <trkpt lat="44.07794" lon="6.16844">
        <ele>673.2</ele>
        <time>2020-10-18T08:29:02Z</time>
      </trkpt>
      <trkpt lat="44.07796" lon="6.16845">
        <ele>672.8</ele>
        <time>2020-10-18T08:29:03Z</time>
      </trkpt>
      <trkpt lat="44.07798" lon="6.16847">
        <ele>672.6</ele>
        <time>2020-10-18T08:29:04Z</time>
      </trkpt>
      <trkpt lat="44.07801" lon="6.16848">
        <ele>672</ele>
        <time>2020-10-18T08:29:05Z</time>
      </trkpt>
      <trkpt lat="44.07805" lon="6.1685">
        <ele>672</ele>
        <time>2020-10-18T08:29:06Z</time>
      </trkpt>
      <trkpt lat="44.07808" lon="6.16853">
        <ele>671.2</ele>
        <time>2020-10-18T08:29:07Z</time>
      </trkpt>
      <trkpt lat="44.07811" lon="6.16857">
        <ele>670.6</ele>
        <time>2020-10-18T08:29:08Z</time>
      </trkpt>
      <trkpt lat="44.07813" lon="6.16861">
        <ele>669.8</ele>
        <time>2020-10-18T08:29:09Z</time>
      </trkpt>
      <trkpt lat="44.07815" lon="6.16866">
        <ele>669.2</ele>
        <time>2020-10-18T08:29:10Z</time>
      </trkpt>
      <trkpt lat="44.07817" lon="6.1687">
        <ele>669</ele>
        <time>2020-10-18T08:29:11Z</time>
      </trkpt>
      <trkpt lat="44.0782" lon="6.16873">
        <ele>668.4</ele>
        <time>2020-10-18T08:29:12Z</time>
      </trkpt>
      <trkpt lat="44.07822" lon="6.16878">
        <ele>668</ele>
        <time>2020-10-18T08:29:13Z</time>
      </trkpt>
      <trkpt lat="44.07825" lon="6.16882">
        <ele>667.2</ele>
        <time>2020-10-18T08:29:14Z</time>
      </trkpt>
      <trkpt lat="44.07827" lon="6.16894">
        <ele>666.4</ele>
        <time>2020-10-18T08:29:16Z</time>
      </trkpt>
      <trkpt lat="44.07828" lon="6.169">
        <ele>666</ele>
        <time>2020-10-18T08:29:17Z</time>
      </trkpt>
      <trkpt lat="44.07828" lon="6.16905">
        <ele>665.4</ele>
        <time>2020-10-18T08:29:18Z</time>
      </trkpt>
      <trkpt lat="44.07828" lon="6.16909">
        <ele>664.8</ele>
        <time>2020-10-18T08:29:19Z</time>
      </trkpt>
      <trkpt lat="44.07827" lon="6.1691">
        <ele>664.6</ele>
        <time>2020-10-18T08:29:20Z</time>
      </trkpt>
      <trkpt lat="44.07824" lon="6.1691">
        <ele>663.8</ele>
        <time>2020-10-18T08:29:21Z</time>
      </trkpt>
      <trkpt lat="44.0782" lon="6.16909">
        <ele>663</ele>
        <time>2020-10-18T08:29:22Z</time>
      </trkpt>
      <trkpt lat="44.07815" lon="6.16913">
        <ele>661.4</ele>
        <time>2020-10-18T08:29:24Z</time>
      </trkpt>
      <trkpt lat="44.07812" lon="6.16914">
        <ele>660.4</ele>
        <time>2020-10-18T08:29:25Z</time>
      </trkpt>
      <trkpt lat="44.07809" lon="6.16917">
        <ele>660.4</ele>
        <time>2020-10-18T08:29:26Z</time>
      </trkpt>
      <trkpt lat="44.07805" lon="6.16919">
        <ele>660</ele>
        <time>2020-10-18T08:29:27Z</time>
      </trkpt>
      <trkpt lat="44.07803" lon="6.16923">
        <ele>659.6</ele>
        <time>2020-10-18T08:29:28Z</time>
      </trkpt>
      <trkpt lat="44.07801" lon="6.16927">
        <ele>659</ele>
        <time>2020-10-18T08:29:29Z</time>
      </trkpt>
      <trkpt lat="44.078" lon="6.16932">
        <ele>658</ele>
        <time>2020-10-18T08:29:30Z</time>
      </trkpt>
      <trkpt lat="44.07801" lon="6.16934">
        <ele>657.4</ele>
        <time>2020-10-18T08:29:31Z</time>
      </trkpt>
      <trkpt lat="44.07801" lon="6.16936">
        <ele>657</ele>
        <time>2020-10-18T08:29:32Z</time>
      </trkpt>
      <trkpt lat="44.07802" lon="6.16938">
        <ele>656.4</ele>
        <time>2020-10-18T08:29:33Z</time>
      </trkpt>
      <trkpt lat="44.07803" lon="6.16941">
        <ele>655.8</ele>
        <time>2020-10-18T08:29:34Z</time>
      </trkpt>
      <trkpt lat="44.07804" lon="6.16949">
        <ele>655.2</ele>
        <time>2020-10-18T08:29:36Z</time>
      </trkpt>
      <trkpt lat="44.07806" lon="6.16952">
        <ele>655</ele>
        <time>2020-10-18T08:29:37Z</time>
      </trkpt>
      <trkpt lat="44.07808" lon="6.16956">
        <ele>654.8</ele>
        <time>2020-10-18T08:29:38Z</time>
      </trkpt>
      <trkpt lat="44.0781" lon="6.16959">
        <ele>654.8</ele>
        <time>2020-10-18T08:29:39Z</time>
      </trkpt>
      <trkpt lat="44.07811" lon="6.16962">
        <ele>654.6</ele>
        <time>2020-10-18T08:29:40Z</time>
      </trkpt>
      <trkpt lat="44.07812" lon="6.16965">
        <ele>654.6</ele>
        <time>2020-10-18T08:29:41Z</time>
      </trkpt>
      <trkpt lat="44.07812" lon="6.16968">
        <ele>654.6</ele>
        <time>2020-10-18T08:29:42Z</time>
      </trkpt>
      <trkpt lat="44.07812" lon="6.16972">
        <ele>654.6</ele>
        <time>2020-10-18T08:29:43Z</time>
      </trkpt>
      <trkpt lat="44.07812" lon="6.16976">
        <ele>654.4</ele>
        <time>2020-10-18T08:29:44Z</time>
      </trkpt>
      <trkpt lat="44.07813" lon="6.16979">
        <ele>654.4</ele>
        <time>2020-10-18T08:29:45Z</time>
      </trkpt>
      <trkpt lat="44.07814" lon="6.16983">
        <ele>654.4</ele>
        <time>2020-10-18T08:29:46Z</time>
      </trkpt>
      <trkpt lat="44.07818" lon="6.16992">
        <ele>654.4</ele>
        <time>2020-10-18T08:29:48Z</time>
      </trkpt>
      <trkpt lat="44.0782" lon="6.16997">
        <ele>654.6</ele>
        <time>2020-10-18T08:29:49Z</time>
      </trkpt>
      <trkpt lat="44.07821" lon="6.17001">
        <ele>654.4</ele>
        <time>2020-10-18T08:29:50Z</time>
      </trkpt>
      <trkpt lat="44.0782" lon="6.17004">
        <ele>654.4</ele>
        <time>2020-10-18T08:29:51Z</time>
      </trkpt>
      <trkpt lat="44.0782" lon="6.17007">
        <ele>654.6</ele>
        <time>2020-10-18T08:29:52Z</time>
      </trkpt>
      <trkpt lat="44.0782" lon="6.17012">
        <ele>654.6</ele>
        <time>2020-10-18T08:29:53Z</time>
      </trkpt>
      <trkpt lat="44.0782" lon="6.17015">
        <ele>654.2</ele>
        <time>2020-10-18T08:29:54Z</time>
      </trkpt>
      <trkpt lat="44.07821" lon="6.17017">
        <ele>654.2</ele>
        <time>2020-10-18T08:29:55Z</time>
      </trkpt>
      <trkpt lat="44.07822" lon="6.1702">
        <ele>654.2</ele>
        <time>2020-10-18T08:29:56Z</time>
      </trkpt>
      <trkpt lat="44.07823" lon="6.17025">
        <ele>654.2</ele>
        <time>2020-10-18T08:29:57Z</time>
      </trkpt>
      <trkpt lat="44.07824" lon="6.17029">
        <ele>654.2</ele>
        <time>2020-10-18T08:29:58Z</time>
      </trkpt>
      <trkpt lat="44.07825" lon="6.17034">
        <ele>653.8</ele>
        <time>2020-10-18T08:29:59Z</time>
      </trkpt>
      <trkpt lat="44.07826" lon="6.17039">
        <ele>653.6</ele>
        <time>2020-10-18T08:30:00Z</time>
      </trkpt>
      <trkpt lat="44.07828" lon="6.17052">
        <ele>652.8</ele>
        <time>2020-10-18T08:30:02Z</time>
      </trkpt>
      <trkpt lat="44.0783" lon="6.17057">
        <ele>652.8</ele>
        <time>2020-10-18T08:30:03Z</time>
      </trkpt>
      <trkpt lat="44.07831" lon="6.17063">
        <ele>652.4</ele>
        <time>2020-10-18T08:30:04Z</time>
      </trkpt>
      <trkpt lat="44.07832" lon="6.17069">
        <ele>652.2</ele>
        <time>2020-10-18T08:30:05Z</time>
      </trkpt>
      <trkpt lat="44.07833" lon="6.17073">
        <ele>651</ele>
        <time>2020-10-18T08:30:06Z</time>
      </trkpt>
      <trkpt lat="44.07834" lon="6.17076">
        <ele>651</ele>
        <time>2020-10-18T08:30:07Z</time>
      </trkpt>
      <trkpt lat="44.07835" lon="6.17078">
        <ele>650.6</ele>
        <time>2020-10-18T08:30:08Z</time>
      </trkpt>
      <trkpt lat="44.07835" lon="6.1708">
        <ele>649.2</ele>
        <time>2020-10-18T08:30:09Z</time>
      </trkpt>
      <trkpt lat="44.07835" lon="6.1708">
        <ele>648</ele>
        <time>2020-10-18T08:30:10Z</time>
      </trkpt>
      <trkpt lat="44.07837" lon="6.17081">
        <ele>647.4</ele>
        <time>2020-10-18T08:30:11Z</time>
      </trkpt>
      <trkpt lat="44.07839" lon="6.17083">
        <ele>646.8</ele>
        <time>2020-10-18T08:30:12Z</time>
      </trkpt>
      <trkpt lat="44.07841" lon="6.17085">
        <ele>645.4</ele>
        <time>2020-10-18T08:30:13Z</time>
      </trkpt>
      <trkpt lat="44.07843" lon="6.17087">
        <ele>644.2</ele>
        <time>2020-10-18T08:30:14Z</time>
      </trkpt>
      <trkpt lat="44.07844" lon="6.17092">
        <ele>643.6</ele>
        <time>2020-10-18T08:30:15Z</time>
      </trkpt>
      <trkpt lat="44.07846" lon="6.17097">
        <ele>642.8</ele>
        <time>2020-10-18T08:30:16Z</time>
      </trkpt>
      <trkpt lat="44.07847" lon="6.17101">
        <ele>642.6</ele>
        <time>2020-10-18T08:30:17Z</time>
      </trkpt>
      <trkpt lat="44.07848" lon="6.17104">
        <ele>642.2</ele>
        <time>2020-10-18T08:30:18Z</time>
      </trkpt>
      <trkpt lat="44.0785" lon="6.17106">
        <ele>641.8</ele>
        <time>2020-10-18T08:30:19Z</time>
      </trkpt>
      <trkpt lat="44.07852" lon="6.17108">
        <ele>641.2</ele>
        <time>2020-10-18T08:30:20Z</time>
      </trkpt>
      <trkpt lat="44.07853" lon="6.17109">
        <ele>640.4</ele>
        <time>2020-10-18T08:30:21Z</time>
      </trkpt>
      <trkpt lat="44.07853" lon="6.17112">
        <ele>639</ele>
        <time>2020-10-18T08:30:22Z</time>
      </trkpt>
      <trkpt lat="44.07854" lon="6.17112">
        <ele>638.2</ele>
        <time>2020-10-18T08:30:23Z</time>
      </trkpt>
      <trkpt lat="44.07855" lon="6.17111">
        <ele>637.2</ele>
        <time>2020-10-18T08:30:24Z</time>
      </trkpt>
      <trkpt lat="44.07856" lon="6.17108">
        <ele>636.4</ele>
        <time>2020-10-18T08:30:25Z</time>
      </trkpt>
      <trkpt lat="44.07857" lon="6.17106">
        <ele>636</ele>
        <time>2020-10-18T08:30:26Z</time>
      </trkpt>
      <trkpt lat="44.07859" lon="6.17102">
        <ele>635.8</ele>
        <time>2020-10-18T08:30:27Z</time>
      </trkpt>
      <trkpt lat="44.07861" lon="6.17098">
        <ele>635.8</ele>
        <time>2020-10-18T08:30:28Z</time>
      </trkpt>
      <trkpt lat="44.07866" lon="6.17091">
        <ele>634.8</ele>
        <time>2020-10-18T08:30:30Z</time>
      </trkpt>
      <trkpt lat="44.07871" lon="6.17084">
        <ele>633.2</ele>
        <time>2020-10-18T08:30:32Z</time>
      </trkpt>
      <trkpt lat="44.07873" lon="6.17082">
        <ele>632.2</ele>
        <time>2020-10-18T08:30:33Z</time>
      </trkpt>
      <trkpt lat="44.07874" lon="6.17079">
        <ele>631.8</ele>
        <time>2020-10-18T08:30:34Z</time>
      </trkpt>
      <trkpt lat="44.07877" lon="6.17078">
        <ele>630.6</ele>
        <time>2020-10-18T08:30:35Z</time>
      </trkpt>
      <trkpt lat="44.07879" lon="6.17079">
        <ele>629.8</ele>
        <time>2020-10-18T08:30:36Z</time>
      </trkpt>
      <trkpt lat="44.07881" lon="6.17082">
        <ele>629.2</ele>
        <time>2020-10-18T08:30:37Z</time>
      </trkpt>
      <trkpt lat="44.07884" lon="6.17085">
        <ele>628.6</ele>
        <time>2020-10-18T08:30:38Z</time>
      </trkpt>
      <trkpt lat="44.07889" lon="6.17088">
        <ele>628</ele>
        <time>2020-10-18T08:30:40Z</time>
      </trkpt>
      <trkpt lat="44.07892" lon="6.1709">
        <ele>627.6</ele>
        <time>2020-10-18T08:30:41Z</time>
      </trkpt>
      <trkpt lat="44.07895" lon="6.17096">
        <ele>627.4</ele>
        <time>2020-10-18T08:30:42Z</time>
      </trkpt>
      <trkpt lat="44.07895" lon="6.17096">
        <ele>627.4</ele>
        <time>2020-10-18T08:30:43Z</time>
      </trkpt>
      <trkpt lat="44.07895" lon="6.171">
        <ele>627</ele>
        <time>2020-10-18T08:30:44Z</time>
      </trkpt>
      <trkpt lat="44.0789" lon="6.1711">
        <ele>626.6</ele>
        <time>2020-10-18T08:30:46Z</time>
      </trkpt>
      <trkpt lat="44.07889" lon="6.17113">
        <ele>626.4</ele>
        <time>2020-10-18T08:30:47Z</time>
      </trkpt>
      <trkpt lat="44.07887" lon="6.17116">
        <ele>626.4</ele>
        <time>2020-10-18T08:30:48Z</time>
      </trkpt>
      <trkpt lat="44.07885" lon="6.17127">
        <ele>625.8</ele>
        <time>2020-10-18T08:30:50Z</time>
      </trkpt>
      <trkpt lat="44.07885" lon="6.17131">
        <ele>625.8</ele>
        <time>2020-10-18T08:30:51Z</time>
      </trkpt>
      <trkpt lat="44.07887" lon="6.17134">
        <ele>624.4</ele>
        <time>2020-10-18T08:30:52Z</time>
      </trkpt>
      <trkpt lat="44.07887" lon="6.17134">
        <ele>623.6</ele>
        <time>2020-10-18T08:30:53Z</time>
      </trkpt>
      <trkpt lat="44.07891" lon="6.17135">
        <ele>622.8</ele>
        <time>2020-10-18T08:30:54Z</time>
      </trkpt>
      <trkpt lat="44.07891" lon="6.17135">
        <ele>622.2</ele>
        <time>2020-10-18T08:30:55Z</time>
      </trkpt>
      <trkpt lat="44.07893" lon="6.17136">
        <ele>621.6</ele>
        <time>2020-10-18T08:30:56Z</time>
      </trkpt>
      <trkpt lat="44.07896" lon="6.17136">
        <ele>621.2</ele>
        <time>2020-10-18T08:30:57Z</time>
      </trkpt>
      <trkpt lat="44.07901" lon="6.17137">
        <ele>620.6</ele>
        <time>2020-10-18T08:30:58Z</time>
      </trkpt>
      <trkpt lat="44.07904" lon="6.17138">
        <ele>620.4</ele>
        <time>2020-10-18T08:30:59Z</time>
      </trkpt>
      <trkpt lat="44.07908" lon="6.17139">
        <ele>620.2</ele>
        <time>2020-10-18T08:31:00Z</time>
      </trkpt>
      <trkpt lat="44.0791" lon="6.17142">
        <ele>619.2</ele>
        <time>2020-10-18T08:31:01Z</time>
      </trkpt>
      <trkpt lat="44.07912" lon="6.17145">
        <ele>618.6</ele>
        <time>2020-10-18T08:31:02Z</time>
      </trkpt>
      <trkpt lat="44.07915" lon="6.17149">
        <ele>618.2</ele>
        <time>2020-10-18T08:31:03Z</time>
      </trkpt>
      <trkpt lat="44.07917" lon="6.17154">
        <ele>617.8</ele>
        <time>2020-10-18T08:31:04Z</time>
      </trkpt>
      <trkpt lat="44.07918" lon="6.17159">
        <ele>617.6</ele>
        <time>2020-10-18T08:31:05Z</time>
      </trkpt>
      <trkpt lat="44.07919" lon="6.17164">
        <ele>617.4</ele>
        <time>2020-10-18T08:31:06Z</time>
      </trkpt>
      <trkpt lat="44.07919" lon="6.1717">
        <ele>617.2</ele>
        <time>2020-10-18T08:31:07Z</time>
      </trkpt>
      <trkpt lat="44.07921" lon="6.17174">
        <ele>616.8</ele>
        <time>2020-10-18T08:31:08Z</time>
      </trkpt>
      <trkpt lat="44.07923" lon="6.17178">
        <ele>616.8</ele>
        <time>2020-10-18T08:31:09Z</time>
      </trkpt>
      <trkpt lat="44.07925" lon="6.17185">
        <ele>616.6</ele>
        <time>2020-10-18T08:31:10Z</time>
      </trkpt>
      <trkpt lat="44.07927" lon="6.17191">
        <ele>615.8</ele>
        <time>2020-10-18T08:31:11Z</time>
      </trkpt>
      <trkpt lat="44.0793" lon="6.17196">
        <ele>615.4</ele>
        <time>2020-10-18T08:31:12Z</time>
      </trkpt>
      <trkpt lat="44.07933" lon="6.172">
        <ele>613.4</ele>
        <time>2020-10-18T08:31:14Z</time>
      </trkpt>
      <trkpt lat="44.07938" lon="6.17204">
        <ele>612.4</ele>
        <time>2020-10-18T08:31:15Z</time>
      </trkpt>
      <trkpt lat="44.07944" lon="6.1721">
        <ele>611.8</ele>
        <time>2020-10-18T08:31:16Z</time>
      </trkpt>
      <trkpt lat="44.07945" lon="6.17212">
        <ele>610.6</ele>
        <time>2020-10-18T08:31:17Z</time>
      </trkpt>
      <trkpt lat="44.07947" lon="6.17215">
        <ele>610</ele>
        <time>2020-10-18T08:31:18Z</time>
      </trkpt>
      <trkpt lat="44.07947" lon="6.17219">
        <ele>609</ele>
        <time>2020-10-18T08:31:19Z</time>
      </trkpt>
      <trkpt lat="44.07947" lon="6.17219">
        <ele>607.8</ele>
        <time>2020-10-18T08:31:20Z</time>
      </trkpt>
      <trkpt lat="44.07946" lon="6.17223">
        <ele>605.8</ele>
        <time>2020-10-18T08:31:21Z</time>
      </trkpt>
      <trkpt lat="44.07945" lon="6.17227">
        <ele>604.8</ele>
        <time>2020-10-18T08:31:22Z</time>
      </trkpt>
      <trkpt lat="44.07944" lon="6.17231">
        <ele>604.2</ele>
        <time>2020-10-18T08:31:23Z</time>
      </trkpt>
      <trkpt lat="44.07943" lon="6.17237">
        <ele>604</ele>
        <time>2020-10-18T08:31:24Z</time>
      </trkpt>
      <trkpt lat="44.07943" lon="6.17243">
        <ele>603.8</ele>
        <time>2020-10-18T08:31:25Z</time>
      </trkpt>
      <trkpt lat="44.07943" lon="6.17248">
        <ele>603.8</ele>
        <time>2020-10-18T08:31:26Z</time>
      </trkpt>
      <trkpt lat="44.07942" lon="6.17254">
        <ele>603.6</ele>
        <time>2020-10-18T08:31:27Z</time>
      </trkpt>
      <trkpt lat="44.07941" lon="6.17259">
        <ele>603.6</ele>
        <time>2020-10-18T08:31:28Z</time>
      </trkpt>
      <trkpt lat="44.07942" lon="6.17264">
        <ele>603</ele>
        <time>2020-10-18T08:31:29Z</time>
      </trkpt>
      <trkpt lat="44.07942" lon="6.17271">
        <ele>603</ele>
        <time>2020-10-18T08:31:30Z</time>
      </trkpt>
      <trkpt lat="44.07943" lon="6.17279">
        <ele>602.4</ele>
        <time>2020-10-18T08:31:31Z</time>
      </trkpt>
      <trkpt lat="44.07945" lon="6.17286">
        <ele>602.2</ele>
        <time>2020-10-18T08:31:32Z</time>
      </trkpt>
      <trkpt lat="44.07946" lon="6.17293">
        <ele>602</ele>
        <time>2020-10-18T08:31:33Z</time>
      </trkpt>
      <trkpt lat="44.07948" lon="6.17298">
        <ele>602</ele>
        <time>2020-10-18T08:31:34Z</time>
      </trkpt>
      <trkpt lat="44.07952" lon="6.17302">
        <ele>600.8</ele>
        <time>2020-10-18T08:31:35Z</time>
      </trkpt>
      <trkpt lat="44.07955" lon="6.17306">
        <ele>599.8</ele>
        <time>2020-10-18T08:31:36Z</time>
      </trkpt>
      <trkpt lat="44.07957" lon="6.17309">
        <ele>599</ele>
        <time>2020-10-18T08:31:37Z</time>
      </trkpt>
      <trkpt lat="44.07957" lon="6.17313">
        <ele>598.2</ele>
        <time>2020-10-18T08:31:38Z</time>
      </trkpt>
      <trkpt lat="44.07958" lon="6.17316">
        <ele>597.4</ele>
        <time>2020-10-18T08:31:39Z</time>
      </trkpt>
      <trkpt lat="44.07957" lon="6.17321">
        <ele>597</ele>
        <time>2020-10-18T08:31:40Z</time>
      </trkpt>
      <trkpt lat="44.07955" lon="6.17326">
        <ele>596.6</ele>
        <time>2020-10-18T08:31:41Z</time>
      </trkpt>
      <trkpt lat="44.07955" lon="6.17331">
        <ele>596.4</ele>
        <time>2020-10-18T08:31:42Z</time>
      </trkpt>
      <trkpt lat="44.07955" lon="6.17341">
        <ele>595.6</ele>
        <time>2020-10-18T08:31:44Z</time>
      </trkpt>
      <trkpt lat="44.07956" lon="6.17351">
        <ele>595.2</ele>
        <time>2020-10-18T08:31:46Z</time>
      </trkpt>
      <trkpt lat="44.07957" lon="6.17358">
        <ele>595</ele>
        <time>2020-10-18T08:31:47Z</time>
      </trkpt>
      <trkpt lat="44.07957" lon="6.17366">
        <ele>594.8</ele>
        <time>2020-10-18T08:31:48Z</time>
      </trkpt>
      <trkpt lat="44.07957" lon="6.17374">
        <ele>594.8</ele>
        <time>2020-10-18T08:31:49Z</time>
      </trkpt>
      <trkpt lat="44.07957" lon="6.17383">
        <ele>594.4</ele>
        <time>2020-10-18T08:31:50Z</time>
      </trkpt>
      <trkpt lat="44.07957" lon="6.17392">
        <ele>594.4</ele>
        <time>2020-10-18T08:31:51Z</time>
      </trkpt>
      <trkpt lat="44.07956" lon="6.17402">
        <ele>593.6</ele>
        <time>2020-10-18T08:31:52Z</time>
      </trkpt>
      <trkpt lat="44.07956" lon="6.17413">
        <ele>593</ele>
        <time>2020-10-18T08:31:53Z</time>
      </trkpt>
      <trkpt lat="44.07957" lon="6.17423">
        <ele>592.6</ele>
        <time>2020-10-18T08:31:54Z</time>
      </trkpt>
      <trkpt lat="44.07957" lon="6.17434">
        <ele>592.4</ele>
        <time>2020-10-18T08:31:55Z</time>
      </trkpt>
      <trkpt lat="44.07956" lon="6.17443">
        <ele>592</ele>
        <time>2020-10-18T08:31:56Z</time>
      </trkpt>
      <trkpt lat="44.07956" lon="6.17451">
        <ele>591.4</ele>
        <time>2020-10-18T08:31:57Z</time>
      </trkpt>
      <trkpt lat="44.07956" lon="6.17457">
        <ele>590.6</ele>
        <time>2020-10-18T08:31:58Z</time>
      </trkpt>
      <trkpt lat="44.07955" lon="6.17463">
        <ele>589.6</ele>
        <time>2020-10-18T08:31:59Z</time>
      </trkpt>
      <trkpt lat="44.07954" lon="6.17467">
        <ele>588.4</ele>
        <time>2020-10-18T08:32:00Z</time>
      </trkpt>
      <trkpt lat="44.07954" lon="6.1747">
        <ele>587.6</ele>
        <time>2020-10-18T08:32:01Z</time>
      </trkpt>
      <trkpt lat="44.07953" lon="6.17473">
        <ele>587</ele>
        <time>2020-10-18T08:32:02Z</time>
      </trkpt>
      <trkpt lat="44.07952" lon="6.17477">
        <ele>586.2</ele>
        <time>2020-10-18T08:32:03Z</time>
      </trkpt>
      <trkpt lat="44.07951" lon="6.1748">
        <ele>585.4</ele>
        <time>2020-10-18T08:32:04Z</time>
      </trkpt>
      <trkpt lat="44.07951" lon="6.17487">
        <ele>584.8</ele>
        <time>2020-10-18T08:32:06Z</time>
      </trkpt>
      <trkpt lat="44.07952" lon="6.17489">
        <ele>584.6</ele>
        <time>2020-10-18T08:32:07Z</time>
      </trkpt>
      <trkpt lat="44.07954" lon="6.1749">
        <ele>584.4</ele>
        <time>2020-10-18T08:32:08Z</time>
      </trkpt>
      <trkpt lat="44.07959" lon="6.17489">
        <ele>584.2</ele>
        <time>2020-10-18T08:32:10Z</time>
      </trkpt>
      <trkpt lat="44.07964" lon="6.17487">
        <ele>584</ele>
        <time>2020-10-18T08:32:12Z</time>
      </trkpt>
      <trkpt lat="44.07973" lon="6.17485">
        <ele>583.6</ele>
        <time>2020-10-18T08:32:14Z</time>
      </trkpt>
      <trkpt lat="44.07976" lon="6.17484">
        <ele>583.6</ele>
        <time>2020-10-18T08:32:16Z</time>
      </trkpt>
      <trkpt lat="44.07979" lon="6.17483">
        <ele>583.4</ele>
        <time>2020-10-18T08:32:17Z</time>
      </trkpt>
      <trkpt lat="44.07983" lon="6.17482">
        <ele>583.4</ele>
        <time>2020-10-18T08:32:18Z</time>
      </trkpt>
      <trkpt lat="44.07989" lon="6.17481">
        <ele>583.4</ele>
        <time>2020-10-18T08:32:20Z</time>
      </trkpt>
      <trkpt lat="44.07996" lon="6.17479">
        <ele>583.4</ele>
        <time>2020-10-18T08:32:22Z</time>
      </trkpt>
      <trkpt lat="44.08003" lon="6.17478">
        <ele>583.4</ele>
        <time>2020-10-18T08:32:23Z</time>
      </trkpt>
      <trkpt lat="44.08003" lon="6.17478">
        <ele>583.6</ele>
        <time>2020-10-18T08:32:24Z</time>
      </trkpt>
      <trkpt lat="44.08007" lon="6.17477">
        <ele>583.6</ele>
        <time>2020-10-18T08:32:25Z</time>
      </trkpt>
      <trkpt lat="44.0801" lon="6.17476">
        <ele>583.8</ele>
        <time>2020-10-18T08:32:26Z</time>
      </trkpt>
      <trkpt lat="44.08017" lon="6.17475">
        <ele>584</ele>
        <time>2020-10-18T08:32:28Z</time>
      </trkpt>
      <trkpt lat="44.08024" lon="6.17473">
        <ele>584.4</ele>
        <time>2020-10-18T08:32:30Z</time>
      </trkpt>
      <trkpt lat="44.08034" lon="6.17471">
        <ele>584.8</ele>
        <time>2020-10-18T08:32:32Z</time>
      </trkpt>
      <trkpt lat="44.08037" lon="6.17471">
        <ele>584.6</ele>
        <time>2020-10-18T08:32:33Z</time>
      </trkpt>
      <trkpt lat="44.0804" lon="6.17471">
        <ele>585</ele>
        <time>2020-10-18T08:32:34Z</time>
      </trkpt>
      <trkpt lat="44.08043" lon="6.17471">
        <ele>585</ele>
        <time>2020-10-18T08:32:35Z</time>
      </trkpt>
      <trkpt lat="44.08047" lon="6.17471">
        <ele>585</ele>
        <time>2020-10-18T08:32:36Z</time>
      </trkpt>
      <trkpt lat="44.0805" lon="6.1747">
        <ele>585.2</ele>
        <time>2020-10-18T08:32:37Z</time>
      </trkpt>
      <trkpt lat="44.08053" lon="6.1747">
        <ele>585.6</ele>
        <time>2020-10-18T08:32:38Z</time>
      </trkpt>
      <trkpt lat="44.08056" lon="6.1747">
        <ele>585.6</ele>
        <time>2020-10-18T08:32:39Z</time>
      </trkpt>
      <trkpt lat="44.08059" lon="6.1747">
        <ele>585.8</ele>
        <time>2020-10-18T08:32:40Z</time>
      </trkpt>
      <trkpt lat="44.08062" lon="6.1747">
        <ele>586</ele>
        <time>2020-10-18T08:32:41Z</time>
      </trkpt>
      <trkpt lat="44.08066" lon="6.1747">
        <ele>586.4</ele>
        <time>2020-10-18T08:32:42Z</time>
      </trkpt>
      <trkpt lat="44.08069" lon="6.1747">
        <ele>586.6</ele>
        <time>2020-10-18T08:32:43Z</time>
      </trkpt>
      <trkpt lat="44.08073" lon="6.1747">
        <ele>586.6</ele>
        <time>2020-10-18T08:32:44Z</time>
      </trkpt>
      <trkpt lat="44.08073" lon="6.1747">
        <ele>586.8</ele>
        <time>2020-10-18T08:32:45Z</time>
      </trkpt>
      <trkpt lat="44.08076" lon="6.17469">
        <ele>586.8</ele>
        <time>2020-10-18T08:32:46Z</time>
      </trkpt>
      <trkpt lat="44.08083" lon="6.17469">
        <ele>587</ele>
        <time>2020-10-18T08:32:47Z</time>
      </trkpt>
      <trkpt lat="44.08087" lon="6.17469">
        <ele>587</ele>
        <time>2020-10-18T08:32:48Z</time>
      </trkpt>
      <trkpt lat="44.0809" lon="6.17469">
        <ele>587</ele>
        <time>2020-10-18T08:32:49Z</time>
      </trkpt>
      <trkpt lat="44.08093" lon="6.17469">
        <ele>587.2</ele>
        <time>2020-10-18T08:32:50Z</time>
      </trkpt>
      <trkpt lat="44.08096" lon="6.17469">
        <ele>587</ele>
        <time>2020-10-18T08:32:51Z</time>
      </trkpt>
      <trkpt lat="44.08099" lon="6.17469">
        <ele>587</ele>
        <time>2020-10-18T08:32:52Z</time>
      </trkpt>
      <trkpt lat="44.08103" lon="6.17469">
        <ele>587</ele>
        <time>2020-10-18T08:32:53Z</time>
      </trkpt>
      <trkpt lat="44.08106" lon="6.17468">
        <ele>587.2</ele>
        <time>2020-10-18T08:32:54Z</time>
      </trkpt>
      <trkpt lat="44.08113" lon="6.17468">
        <ele>587.4</ele>
        <time>2020-10-18T08:32:56Z</time>
      </trkpt>
      <trkpt lat="44.0812" lon="6.17468">
        <ele>587.4</ele>
        <time>2020-10-18T08:32:58Z</time>
      </trkpt>
      <trkpt lat="44.08124" lon="6.17468">
        <ele>587.6</ele>
        <time>2020-10-18T08:32:59Z</time>
      </trkpt>
      <trkpt lat="44.08127" lon="6.17468">
        <ele>587.8</ele>
        <time>2020-10-18T08:33:00Z</time>
      </trkpt>
      <trkpt lat="44.08131" lon="6.17468">
        <ele>587.6</ele>
        <time>2020-10-18T08:33:01Z</time>
      </trkpt>
      <trkpt lat="44.08134" lon="6.17468">
        <ele>587.8</ele>
        <time>2020-10-18T08:33:02Z</time>
      </trkpt>
      <trkpt lat="44.08142" lon="6.17467">
        <ele>588.2</ele>
        <time>2020-10-18T08:33:04Z</time>
      </trkpt>
      <trkpt lat="44.08149" lon="6.17467">
        <ele>588.4</ele>
        <time>2020-10-18T08:33:06Z</time>
      </trkpt>
      <trkpt lat="44.08152" lon="6.17467">
        <ele>588.4</ele>
        <time>2020-10-18T08:33:07Z</time>
      </trkpt>
      <trkpt lat="44.08156" lon="6.17467">
        <ele>588.6</ele>
        <time>2020-10-18T08:33:08Z</time>
      </trkpt>
      <trkpt lat="44.08159" lon="6.17467">
        <ele>588.6</ele>
        <time>2020-10-18T08:33:09Z</time>
      </trkpt>
      <trkpt lat="44.08163" lon="6.17466">
        <ele>588.8</ele>
        <time>2020-10-18T08:33:10Z</time>
      </trkpt>
      <trkpt lat="44.08166" lon="6.17466">
        <ele>588.8</ele>
        <time>2020-10-18T08:33:11Z</time>
      </trkpt>
      <trkpt lat="44.08169" lon="6.17466">
        <ele>589</ele>
        <time>2020-10-18T08:33:12Z</time>
      </trkpt>
      <trkpt lat="44.08172" lon="6.17466">
        <ele>589.2</ele>
        <time>2020-10-18T08:33:13Z</time>
      </trkpt>
      <trkpt lat="44.08175" lon="6.17465">
        <ele>589.2</ele>
        <time>2020-10-18T08:33:14Z</time>
      </trkpt>
      <trkpt lat="44.08178" lon="6.17465">
        <ele>589.2</ele>
        <time>2020-10-18T08:33:15Z</time>
      </trkpt>
      <trkpt lat="44.08181" lon="6.17465">
        <ele>589.4</ele>
        <time>2020-10-18T08:33:16Z</time>
      </trkpt>
      <trkpt lat="44.08183" lon="6.17465">
        <ele>589.4</ele>
        <time>2020-10-18T08:33:17Z</time>
      </trkpt>
      <trkpt lat="44.08186" lon="6.17465">
        <ele>589.6</ele>
        <time>2020-10-18T08:33:18Z</time>
      </trkpt>
      <trkpt lat="44.08189" lon="6.17465">
        <ele>589.8</ele>
        <time>2020-10-18T08:33:19Z</time>
      </trkpt>
      <trkpt lat="44.08192" lon="6.17464">
        <ele>590</ele>
        <time>2020-10-18T08:33:20Z</time>
      </trkpt>
      <trkpt lat="44.08195" lon="6.17464">
        <ele>590.2</ele>
        <time>2020-10-18T08:33:21Z</time>
      </trkpt>
      <trkpt lat="44.08195" lon="6.17464">
        <ele>590.6</ele>
        <time>2020-10-18T08:33:22Z</time>
      </trkpt>
      <trkpt lat="44.08199" lon="6.17464">
        <ele>590.8</ele>
        <time>2020-10-18T08:33:23Z</time>
      </trkpt>
      <trkpt lat="44.08205" lon="6.17464">
        <ele>591</ele>
        <time>2020-10-18T08:33:24Z</time>
      </trkpt>
      <trkpt lat="44.08208" lon="6.17464">
        <ele>591.2</ele>
        <time>2020-10-18T08:33:25Z</time>
      </trkpt>
      <trkpt lat="44.08211" lon="6.17464">
        <ele>591.4</ele>
        <time>2020-10-18T08:33:26Z</time>
      </trkpt>
      <trkpt lat="44.08214" lon="6.17464">
        <ele>591.6</ele>
        <time>2020-10-18T08:33:27Z</time>
      </trkpt>
      <trkpt lat="44.08217" lon="6.17464">
        <ele>591.6</ele>
        <time>2020-10-18T08:33:28Z</time>
      </trkpt>
      <trkpt lat="44.08219" lon="6.17464">
        <ele>592</ele>
        <time>2020-10-18T08:33:29Z</time>
      </trkpt>
      <trkpt lat="44.08222" lon="6.17463">
        <ele>592</ele>
        <time>2020-10-18T08:33:30Z</time>
      </trkpt>
      <trkpt lat="44.08225" lon="6.17463">
        <ele>592.4</ele>
        <time>2020-10-18T08:33:31Z</time>
      </trkpt>
      <trkpt lat="44.08228" lon="6.17463">
        <ele>592.6</ele>
        <time>2020-10-18T08:33:32Z</time>
      </trkpt>
      <trkpt lat="44.08231" lon="6.17462">
        <ele>592.8</ele>
        <time>2020-10-18T08:33:33Z</time>
      </trkpt>
      <trkpt lat="44.08234" lon="6.17462">
        <ele>592.8</ele>
        <time>2020-10-18T08:33:34Z</time>
      </trkpt>
      <trkpt lat="44.08237" lon="6.17461">
        <ele>593</ele>
        <time>2020-10-18T08:33:35Z</time>
      </trkpt>
      <trkpt lat="44.0824" lon="6.17461">
        <ele>593.2</ele>
        <time>2020-10-18T08:33:36Z</time>
      </trkpt>
      <trkpt lat="44.08243" lon="6.1746">
        <ele>593.4</ele>
        <time>2020-10-18T08:33:37Z</time>
      </trkpt>
      <trkpt lat="44.08246" lon="6.17459">
        <ele>593.6</ele>
        <time>2020-10-18T08:33:38Z</time>
      </trkpt>
      <trkpt lat="44.08249" lon="6.17459">
        <ele>593.8</ele>
        <time>2020-10-18T08:33:39Z</time>
      </trkpt>
      <trkpt lat="44.08252" lon="6.17459">
        <ele>594</ele>
        <time>2020-10-18T08:33:40Z</time>
      </trkpt>
      <trkpt lat="44.08254" lon="6.17458">
        <ele>594.2</ele>
        <time>2020-10-18T08:33:41Z</time>
      </trkpt>
      <trkpt lat="44.08254" lon="6.17458">
        <ele>594.4</ele>
        <time>2020-10-18T08:33:42Z</time>
      </trkpt>
      <trkpt lat="44.08257" lon="6.17458">
        <ele>594.6</ele>
        <time>2020-10-18T08:33:43Z</time>
      </trkpt>
      <trkpt lat="44.08261" lon="6.17456">
        <ele>595</ele>
        <time>2020-10-18T08:33:44Z</time>
      </trkpt>
      <trkpt lat="44.08264" lon="6.17454">
        <ele>595</ele>
        <time>2020-10-18T08:33:45Z</time>
      </trkpt>
      <trkpt lat="44.08266" lon="6.17453">
        <ele>595.2</ele>
        <time>2020-10-18T08:33:46Z</time>
      </trkpt>
      <trkpt lat="44.08269" lon="6.17451">
        <ele>595.2</ele>
        <time>2020-10-18T08:33:47Z</time>
      </trkpt>
      <trkpt lat="44.08271" lon="6.1745">
        <ele>595.4</ele>
        <time>2020-10-18T08:33:48Z</time>
      </trkpt>
      <trkpt lat="44.08273" lon="6.17448">
        <ele>595.8</ele>
        <time>2020-10-18T08:33:49Z</time>
      </trkpt>
      <trkpt lat="44.08275" lon="6.17447">
        <ele>596</ele>
        <time>2020-10-18T08:33:50Z</time>
      </trkpt>
      <trkpt lat="44.08275" lon="6.17447">
        <ele>596.2</ele>
        <time>2020-10-18T08:33:51Z</time>
      </trkpt>
      <trkpt lat="44.08278" lon="6.17446">
        <ele>596.4</ele>
        <time>2020-10-18T08:33:52Z</time>
      </trkpt>
      <trkpt lat="44.0828" lon="6.17444">
        <ele>596.8</ele>
        <time>2020-10-18T08:33:53Z</time>
      </trkpt>
      <trkpt lat="44.08282" lon="6.17441">
        <ele>597</ele>
        <time>2020-10-18T08:33:54Z</time>
      </trkpt>
      <trkpt lat="44.08286" lon="6.17435">
        <ele>597</ele>
        <time>2020-10-18T08:33:55Z</time>
      </trkpt>
      <trkpt lat="44.08288" lon="6.17432">
        <ele>597.2</ele>
        <time>2020-10-18T08:33:56Z</time>
      </trkpt>
      <trkpt lat="44.0829" lon="6.1743">
        <ele>597.4</ele>
        <time>2020-10-18T08:33:57Z</time>
      </trkpt>
      <trkpt lat="44.08292" lon="6.17427">
        <ele>597.8</ele>
        <time>2020-10-18T08:33:58Z</time>
      </trkpt>
      <trkpt lat="44.08295" lon="6.17425">
        <ele>597.8</ele>
        <time>2020-10-18T08:33:59Z</time>
      </trkpt>
      <trkpt lat="44.08297" lon="6.17422">
        <ele>598</ele>
        <time>2020-10-18T08:34:00Z</time>
      </trkpt>
      <trkpt lat="44.08299" lon="6.17419">
        <ele>598</ele>
        <time>2020-10-18T08:34:01Z</time>
      </trkpt>
      <trkpt lat="44.08301" lon="6.17416">
        <ele>598.4</ele>
        <time>2020-10-18T08:34:02Z</time>
      </trkpt>
      <trkpt lat="44.08303" lon="6.17413">
        <ele>598.6</ele>
        <time>2020-10-18T08:34:03Z</time>
      </trkpt>
      <trkpt lat="44.08303" lon="6.17413">
        <ele>598.6</ele>
        <time>2020-10-18T08:34:04Z</time>
      </trkpt>
      <trkpt lat="44.08304" lon="6.1741">
        <ele>598.8</ele>
        <time>2020-10-18T08:34:05Z</time>
      </trkpt>
      <trkpt lat="44.08307" lon="6.17404">
        <ele>598.8</ele>
        <time>2020-10-18T08:34:06Z</time>
      </trkpt>
      <trkpt lat="44.08309" lon="6.17401">
        <ele>599</ele>
        <time>2020-10-18T08:34:07Z</time>
      </trkpt>
      <trkpt lat="44.08309" lon="6.17401">
        <ele>599</ele>
        <time>2020-10-18T08:34:08Z</time>
      </trkpt>
      <trkpt lat="44.08311" lon="6.17398">
        <ele>599.2</ele>
        <time>2020-10-18T08:34:09Z</time>
      </trkpt>
      <trkpt lat="44.08313" lon="6.17394">
        <ele>599.2</ele>
        <time>2020-10-18T08:34:10Z</time>
      </trkpt>
      <trkpt lat="44.08314" lon="6.17391">
        <ele>599.2</ele>
        <time>2020-10-18T08:34:11Z</time>
      </trkpt>
      <trkpt lat="44.08316" lon="6.17388">
        <ele>599.4</ele>
        <time>2020-10-18T08:34:12Z</time>
      </trkpt>
      <trkpt lat="44.0832" lon="6.17382">
        <ele>599.4</ele>
        <time>2020-10-18T08:34:13Z</time>
      </trkpt>
      <trkpt lat="44.0832" lon="6.17382">
        <ele>599.6</ele>
        <time>2020-10-18T08:34:14Z</time>
      </trkpt>
      <trkpt lat="44.08322" lon="6.17379">
        <ele>599.6</ele>
        <time>2020-10-18T08:34:15Z</time>
      </trkpt>
      <trkpt lat="44.08326" lon="6.17373">
        <ele>599.6</ele>
        <time>2020-10-18T08:34:16Z</time>
      </trkpt>
      <trkpt lat="44.08329" lon="6.1737">
        <ele>599.6</ele>
        <time>2020-10-18T08:34:17Z</time>
      </trkpt>
      <trkpt lat="44.08329" lon="6.1737">
        <ele>599.8</ele>
        <time>2020-10-18T08:34:18Z</time>
      </trkpt>
      <trkpt lat="44.08331" lon="6.17367">
        <ele>600.2</ele>
        <time>2020-10-18T08:34:19Z</time>
      </trkpt>
      <trkpt lat="44.08334" lon="6.17365">
        <ele>600.2</ele>
        <time>2020-10-18T08:34:20Z</time>
      </trkpt>
      <trkpt lat="44.08336" lon="6.17363">
        <ele>600.2</ele>
        <time>2020-10-18T08:34:21Z</time>
      </trkpt>
      <trkpt lat="44.08342" lon="6.17357">
        <ele>600.2</ele>
        <time>2020-10-18T08:34:22Z</time>
      </trkpt>
      <trkpt lat="44.08344" lon="6.17356">
        <ele>600.4</ele>
        <time>2020-10-18T08:34:23Z</time>
      </trkpt>
      <trkpt lat="44.08346" lon="6.17355">
        <ele>600.4</ele>
        <time>2020-10-18T08:34:24Z</time>
      </trkpt>
      <trkpt lat="44.08356" lon="6.17344">
        <ele>600.4</ele>
        <time>2020-10-18T08:34:26Z</time>
      </trkpt>
      <trkpt lat="44.0836" lon="6.17341">
        <ele>600.4</ele>
        <time>2020-10-18T08:34:28Z</time>
      </trkpt>
      <trkpt lat="44.08363" lon="6.17338">
        <ele>600.4</ele>
        <time>2020-10-18T08:34:29Z</time>
      </trkpt>
      <trkpt lat="44.08367" lon="6.17335">
        <ele>600.6</ele>
        <time>2020-10-18T08:34:30Z</time>
      </trkpt>
      <trkpt lat="44.08371" lon="6.17332">
        <ele>600.6</ele>
        <time>2020-10-18T08:34:31Z</time>
      </trkpt>
      <trkpt lat="44.08375" lon="6.17329">
        <ele>600.6</ele>
        <time>2020-10-18T08:34:32Z</time>
      </trkpt>
      <trkpt lat="44.08379" lon="6.17327">
        <ele>600.4</ele>
        <time>2020-10-18T08:34:33Z</time>
      </trkpt>
      <trkpt lat="44.08382" lon="6.17324">
        <ele>600.2</ele>
        <time>2020-10-18T08:34:34Z</time>
      </trkpt>
      <trkpt lat="44.0839" lon="6.17318">
        <ele>600.2</ele>
        <time>2020-10-18T08:34:36Z</time>
      </trkpt>
      <trkpt lat="44.08393" lon="6.17315">
        <ele>600</ele>
        <time>2020-10-18T08:34:37Z</time>
      </trkpt>
      <trkpt lat="44.08397" lon="6.17311">
        <ele>600</ele>
        <time>2020-10-18T08:34:38Z</time>
      </trkpt>
      <trkpt lat="44.08406" lon="6.17305">
        <ele>600</ele>
        <time>2020-10-18T08:34:40Z</time>
      </trkpt>
      <trkpt lat="44.08414" lon="6.17298">
        <ele>599.8</ele>
        <time>2020-10-18T08:34:41Z</time>
      </trkpt>
      <trkpt lat="44.08416" lon="6.17297">
        <ele>600</ele>
        <time>2020-10-18T08:34:42Z</time>
      </trkpt>
      <trkpt lat="44.08418" lon="6.17295">
        <ele>600</ele>
        <time>2020-10-18T08:34:43Z</time>
      </trkpt>
      <trkpt lat="44.08422" lon="6.17292">
        <ele>599.8</ele>
        <time>2020-10-18T08:34:44Z</time>
      </trkpt>
      <trkpt lat="44.08431" lon="6.17285">
        <ele>599.8</ele>
        <time>2020-10-18T08:34:46Z</time>
      </trkpt>
      <trkpt lat="44.0844" lon="6.17279">
        <ele>599.8</ele>
        <time>2020-10-18T08:34:48Z</time>
      </trkpt>
      <trkpt lat="44.08449" lon="6.17272">
        <ele>599.8</ele>
        <time>2020-10-18T08:34:50Z</time>
      </trkpt>
      <trkpt lat="44.08457" lon="6.17265">
        <ele>599.8</ele>
        <time>2020-10-18T08:34:52Z</time>
      </trkpt>
      <trkpt lat="44.08461" lon="6.17262">
        <ele>599.8</ele>
        <time>2020-10-18T08:34:53Z</time>
      </trkpt>
      <trkpt lat="44.08466" lon="6.17258">
        <ele>600</ele>
        <time>2020-10-18T08:34:54Z</time>
      </trkpt>
      <trkpt lat="44.08474" lon="6.17251">
        <ele>599.8</ele>
        <time>2020-10-18T08:34:56Z</time>
      </trkpt>
      <trkpt lat="44.08483" lon="6.17244">
        <ele>599.8</ele>
        <time>2020-10-18T08:34:58Z</time>
      </trkpt>
      <trkpt lat="44.08487" lon="6.17241">
        <ele>600</ele>
        <time>2020-10-18T08:34:59Z</time>
      </trkpt>
      <trkpt lat="44.08491" lon="6.17238">
        <ele>599.8</ele>
        <time>2020-10-18T08:35:00Z</time>
      </trkpt>
      <trkpt lat="44.08499" lon="6.17231">
        <ele>599.8</ele>
        <time>2020-10-18T08:35:01Z</time>
      </trkpt>
      <trkpt lat="44.085" lon="6.17229">
        <ele>599.8</ele>
        <time>2020-10-18T08:35:02Z</time>
      </trkpt>
      <trkpt lat="44.08502" lon="6.17227">
        <ele>600</ele>
        <time>2020-10-18T08:35:03Z</time>
      </trkpt>
      <trkpt lat="44.08505" lon="6.17223">
        <ele>600</ele>
        <time>2020-10-18T08:35:04Z</time>
      </trkpt>
      <trkpt lat="44.08511" lon="6.17215">
        <ele>600</ele>
        <time>2020-10-18T08:35:05Z</time>
      </trkpt>
      <trkpt lat="44.08514" lon="6.1721">
        <ele>600</ele>
        <time>2020-10-18T08:35:06Z</time>
      </trkpt>
      <trkpt lat="44.08517" lon="6.17206">
        <ele>600.2</ele>
        <time>2020-10-18T08:35:08Z</time>
      </trkpt>
      <trkpt lat="44.08523" lon="6.17197">
        <ele>600.8</ele>
        <time>2020-10-18T08:35:10Z</time>
      </trkpt>
      <trkpt lat="44.08528" lon="6.17188">
        <ele>601</ele>
        <time>2020-10-18T08:35:11Z</time>
      </trkpt>
      <trkpt lat="44.08531" lon="6.17184">
        <ele>601.2</ele>
        <time>2020-10-18T08:35:12Z</time>
      </trkpt>
      <trkpt lat="44.08533" lon="6.17183">
        <ele>601.4</ele>
        <time>2020-10-18T08:35:13Z</time>
      </trkpt>
      <trkpt lat="44.08534" lon="6.17181">
        <ele>601.6</ele>
        <time>2020-10-18T08:35:14Z</time>
      </trkpt>
      <trkpt lat="44.08537" lon="6.17177">
        <ele>601.6</ele>
        <time>2020-10-18T08:35:15Z</time>
      </trkpt>
      <trkpt lat="44.0854" lon="6.17174">
        <ele>601.6</ele>
        <time>2020-10-18T08:35:16Z</time>
      </trkpt>
      <trkpt lat="44.08542" lon="6.1717">
        <ele>602</ele>
        <time>2020-10-18T08:35:17Z</time>
      </trkpt>
      <trkpt lat="44.08548" lon="6.17163">
        <ele>602</ele>
        <time>2020-10-18T08:35:18Z</time>
      </trkpt>
      <trkpt lat="44.0855" lon="6.1716">
        <ele>602</ele>
        <time>2020-10-18T08:35:19Z</time>
      </trkpt>
      <trkpt lat="44.08553" lon="6.17157">
        <ele>602.2</ele>
        <time>2020-10-18T08:35:20Z</time>
      </trkpt>
      <trkpt lat="44.08554" lon="6.17155">
        <ele>602.2</ele>
        <time>2020-10-18T08:35:21Z</time>
      </trkpt>
      <trkpt lat="44.08555" lon="6.17153">
        <ele>602.4</ele>
        <time>2020-10-18T08:35:22Z</time>
      </trkpt>
      <trkpt lat="44.08561" lon="6.17146">
        <ele>602.4</ele>
        <time>2020-10-18T08:35:23Z</time>
      </trkpt>
      <trkpt lat="44.08561" lon="6.17146">
        <ele>602.6</ele>
        <time>2020-10-18T08:35:24Z</time>
      </trkpt>
      <trkpt lat="44.08564" lon="6.17143">
        <ele>602.8</ele>
        <time>2020-10-18T08:35:25Z</time>
      </trkpt>
      <trkpt lat="44.08566" lon="6.1714">
        <ele>603</ele>
        <time>2020-10-18T08:35:26Z</time>
      </trkpt>
      <trkpt lat="44.08569" lon="6.17137">
        <ele>603.2</ele>
        <time>2020-10-18T08:35:27Z</time>
      </trkpt>
      <trkpt lat="44.08572" lon="6.17134">
        <ele>603.2</ele>
        <time>2020-10-18T08:35:28Z</time>
      </trkpt>
      <trkpt lat="44.08575" lon="6.17131">
        <ele>603.4</ele>
        <time>2020-10-18T08:35:29Z</time>
      </trkpt>
      <trkpt lat="44.08579" lon="6.17128">
        <ele>603.8</ele>
        <time>2020-10-18T08:35:30Z</time>
      </trkpt>
      <trkpt lat="44.08582" lon="6.17124">
        <ele>603.8</ele>
        <time>2020-10-18T08:35:31Z</time>
      </trkpt>
      <trkpt lat="44.08587" lon="6.17117">
        <ele>603.8</ele>
        <time>2020-10-18T08:35:32Z</time>
      </trkpt>
      <trkpt lat="44.08589" lon="6.17116">
        <ele>604</ele>
        <time>2020-10-18T08:35:33Z</time>
      </trkpt>
      <trkpt lat="44.08591" lon="6.17114">
        <ele>604.2</ele>
        <time>2020-10-18T08:35:34Z</time>
      </trkpt>
      <trkpt lat="44.08593" lon="6.1711">
        <ele>604.4</ele>
        <time>2020-10-18T08:35:35Z</time>
      </trkpt>
      <trkpt lat="44.08598" lon="6.17104">
        <ele>604.2</ele>
        <time>2020-10-18T08:35:36Z</time>
      </trkpt>
      <trkpt lat="44.08598" lon="6.17104">
        <ele>604.2</ele>
        <time>2020-10-18T08:35:37Z</time>
      </trkpt>
      <trkpt lat="44.08601" lon="6.17101">
        <ele>604.4</ele>
        <time>2020-10-18T08:35:38Z</time>
      </trkpt>
      <trkpt lat="44.08603" lon="6.17098">
        <ele>604.4</ele>
        <time>2020-10-18T08:35:39Z</time>
      </trkpt>
      <trkpt lat="44.08606" lon="6.17095">
        <ele>604.6</ele>
        <time>2020-10-18T08:35:40Z</time>
      </trkpt>
      <trkpt lat="44.08609" lon="6.17091">
        <ele>604.8</ele>
        <time>2020-10-18T08:35:41Z</time>
      </trkpt>
      <trkpt lat="44.08611" lon="6.17087">
        <ele>604.8</ele>
        <time>2020-10-18T08:35:42Z</time>
      </trkpt>
      <trkpt lat="44.08614" lon="6.17084">
        <ele>605</ele>
        <time>2020-10-18T08:35:43Z</time>
      </trkpt>
      <trkpt lat="44.08616" lon="6.1708">
        <ele>605.2</ele>
        <time>2020-10-18T08:35:44Z</time>
      </trkpt>
      <trkpt lat="44.08618" lon="6.17077">
        <ele>605.2</ele>
        <time>2020-10-18T08:35:45Z</time>
      </trkpt>
      <trkpt lat="44.08621" lon="6.17074">
        <ele>605.4</ele>
        <time>2020-10-18T08:35:46Z</time>
      </trkpt>
      <trkpt lat="44.08626" lon="6.17067">
        <ele>605.6</ele>
        <time>2020-10-18T08:35:47Z</time>
      </trkpt>
      <trkpt lat="44.08629" lon="6.17063">
        <ele>605.8</ele>
        <time>2020-10-18T08:35:48Z</time>
      </trkpt>
      <trkpt lat="44.08632" lon="6.17059">
        <ele>605.8</ele>
        <time>2020-10-18T08:35:49Z</time>
      </trkpt>
      <trkpt lat="44.08634" lon="6.17055">
        <ele>606</ele>
        <time>2020-10-18T08:35:50Z</time>
      </trkpt>
      <trkpt lat="44.08636" lon="6.17053">
        <ele>606.2</ele>
        <time>2020-10-18T08:35:51Z</time>
      </trkpt>
      <trkpt lat="44.08637" lon="6.17051">
        <ele>606.4</ele>
        <time>2020-10-18T08:35:52Z</time>
      </trkpt>
      <trkpt lat="44.08642" lon="6.17043">
        <ele>606.6</ele>
        <time>2020-10-18T08:35:53Z</time>
      </trkpt>
      <trkpt lat="44.08643" lon="6.17041">
        <ele>606.8</ele>
        <time>2020-10-18T08:35:54Z</time>
      </trkpt>
      <trkpt lat="44.08645" lon="6.17039">
        <ele>607</ele>
        <time>2020-10-18T08:35:55Z</time>
      </trkpt>
      <trkpt lat="44.08647" lon="6.17035">
        <ele>607.2</ele>
        <time>2020-10-18T08:35:56Z</time>
      </trkpt>
      <trkpt lat="44.0865" lon="6.17032">
        <ele>607.2</ele>
        <time>2020-10-18T08:35:57Z</time>
      </trkpt>
      <trkpt lat="44.08652" lon="6.17028">
        <ele>607.4</ele>
        <time>2020-10-18T08:35:58Z</time>
      </trkpt>
      <trkpt lat="44.08655" lon="6.17025">
        <ele>607.6</ele>
        <time>2020-10-18T08:35:59Z</time>
      </trkpt>
      <trkpt lat="44.08657" lon="6.17022">
        <ele>607.6</ele>
        <time>2020-10-18T08:36:00Z</time>
      </trkpt>
      <trkpt lat="44.0866" lon="6.17019">
        <ele>608</ele>
        <time>2020-10-18T08:36:01Z</time>
      </trkpt>
      <trkpt lat="44.08662" lon="6.17016">
        <ele>608</ele>
        <time>2020-10-18T08:36:02Z</time>
      </trkpt>
      <trkpt lat="44.08664" lon="6.17014">
        <ele>608.2</ele>
        <time>2020-10-18T08:36:03Z</time>
      </trkpt>
      <trkpt lat="44.08666" lon="6.17012">
        <ele>608.4</ele>
        <time>2020-10-18T08:36:04Z</time>
      </trkpt>
      <trkpt lat="44.08669" lon="6.1701">
        <ele>608.6</ele>
        <time>2020-10-18T08:36:05Z</time>
      </trkpt>
      <trkpt lat="44.08671" lon="6.17008">
        <ele>608.8</ele>
        <time>2020-10-18T08:36:06Z</time>
      </trkpt>
      <trkpt lat="44.08674" lon="6.17006">
        <ele>609</ele>
        <time>2020-10-18T08:36:07Z</time>
      </trkpt>
      <trkpt lat="44.08679" lon="6.17002">
        <ele>609.2</ele>
        <time>2020-10-18T08:36:08Z</time>
      </trkpt>
      <trkpt lat="44.08679" lon="6.17002">
        <ele>609.4</ele>
        <time>2020-10-18T08:36:09Z</time>
      </trkpt>
      <trkpt lat="44.08682" lon="6.17">
        <ele>609.6</ele>
        <time>2020-10-18T08:36:10Z</time>
      </trkpt>
      <trkpt lat="44.08687" lon="6.16998">
        <ele>609.8</ele>
        <time>2020-10-18T08:36:11Z</time>
      </trkpt>
      <trkpt lat="44.08687" lon="6.16998">
        <ele>610.2</ele>
        <time>2020-10-18T08:36:12Z</time>
      </trkpt>
      <trkpt lat="44.0869" lon="6.16996">
        <ele>610.4</ele>
        <time>2020-10-18T08:36:13Z</time>
      </trkpt>
      <trkpt lat="44.08692" lon="6.16996">
        <ele>610.4</ele>
        <time>2020-10-18T08:36:14Z</time>
      </trkpt>
      <trkpt lat="44.08695" lon="6.16995">
        <ele>610.6</ele>
        <time>2020-10-18T08:36:15Z</time>
      </trkpt>
      <trkpt lat="44.08697" lon="6.16994">
        <ele>610.8</ele>
        <time>2020-10-18T08:36:16Z</time>
      </trkpt>
      <trkpt lat="44.087" lon="6.16994">
        <ele>610.8</ele>
        <time>2020-10-18T08:36:17Z</time>
      </trkpt>
      <trkpt lat="44.08702" lon="6.16993">
        <ele>611</ele>
        <time>2020-10-18T08:36:18Z</time>
      </trkpt>
      <trkpt lat="44.08705" lon="6.16992">
        <ele>611.2</ele>
        <time>2020-10-18T08:36:19Z</time>
      </trkpt>
      <trkpt lat="44.08708" lon="6.1699">
        <ele>611.4</ele>
        <time>2020-10-18T08:36:20Z</time>
      </trkpt>
      <trkpt lat="44.08711" lon="6.1699">
        <ele>611.2</ele>
        <time>2020-10-18T08:36:21Z</time>
      </trkpt>
      <trkpt lat="44.08714" lon="6.16989">
        <ele>611.4</ele>
        <time>2020-10-18T08:36:22Z</time>
      </trkpt>
      <trkpt lat="44.0872" lon="6.16987">
        <ele>611.6</ele>
        <time>2020-10-18T08:36:23Z</time>
      </trkpt>
      <trkpt lat="44.08723" lon="6.16986">
        <ele>611.6</ele>
        <time>2020-10-18T08:36:24Z</time>
      </trkpt>
      <trkpt lat="44.08726" lon="6.16986">
        <ele>611.8</ele>
        <time>2020-10-18T08:36:25Z</time>
      </trkpt>
      <trkpt lat="44.08726" lon="6.16986">
        <ele>611.8</ele>
        <time>2020-10-18T08:36:26Z</time>
      </trkpt>
      <trkpt lat="44.08729" lon="6.16985">
        <ele>612</ele>
        <time>2020-10-18T08:36:27Z</time>
      </trkpt>
      <trkpt lat="44.08732" lon="6.16984">
        <ele>612.2</ele>
        <time>2020-10-18T08:36:28Z</time>
      </trkpt>
      <trkpt lat="44.08734" lon="6.16983">
        <ele>612.4</ele>
        <time>2020-10-18T08:36:29Z</time>
      </trkpt>
      <trkpt lat="44.08737" lon="6.16981">
        <ele>612.6</ele>
        <time>2020-10-18T08:36:30Z</time>
      </trkpt>
      <trkpt lat="44.08739" lon="6.1698">
        <ele>612.8</ele>
        <time>2020-10-18T08:36:31Z</time>
      </trkpt>
      <trkpt lat="44.08743" lon="6.16979">
        <ele>612.8</ele>
        <time>2020-10-18T08:36:32Z</time>
      </trkpt>
      <trkpt lat="44.08746" lon="6.16978">
        <ele>613.2</ele>
        <time>2020-10-18T08:36:33Z</time>
      </trkpt>
      <trkpt lat="44.08752" lon="6.16976">
        <ele>613.4</ele>
        <time>2020-10-18T08:36:34Z</time>
      </trkpt>
      <trkpt lat="44.08752" lon="6.16976">
        <ele>613.4</ele>
        <time>2020-10-18T08:36:35Z</time>
      </trkpt>
      <trkpt lat="44.08755" lon="6.16976">
        <ele>613.4</ele>
        <time>2020-10-18T08:36:36Z</time>
      </trkpt>
      <trkpt lat="44.08759" lon="6.16975">
        <ele>613.6</ele>
        <time>2020-10-18T08:36:37Z</time>
      </trkpt>
      <trkpt lat="44.08763" lon="6.16974">
        <ele>613.6</ele>
        <time>2020-10-18T08:36:38Z</time>
      </trkpt>
      <trkpt lat="44.08766" lon="6.16972">
        <ele>613.6</ele>
        <time>2020-10-18T08:36:39Z</time>
      </trkpt>
      <trkpt lat="44.0877" lon="6.16971">
        <ele>613.8</ele>
        <time>2020-10-18T08:36:40Z</time>
      </trkpt>
      <trkpt lat="44.08773" lon="6.16969">
        <ele>614</ele>
        <time>2020-10-18T08:36:41Z</time>
      </trkpt>
      <trkpt lat="44.08777" lon="6.16966">
        <ele>614.4</ele>
        <time>2020-10-18T08:36:42Z</time>
      </trkpt>
      <trkpt lat="44.0878" lon="6.16964">
        <ele>614.4</ele>
        <time>2020-10-18T08:36:43Z</time>
      </trkpt>
      <trkpt lat="44.08783" lon="6.16962">
        <ele>614.4</ele>
        <time>2020-10-18T08:36:44Z</time>
      </trkpt>
      <trkpt lat="44.08785" lon="6.1696">
        <ele>614.4</ele>
        <time>2020-10-18T08:36:45Z</time>
      </trkpt>
      <trkpt lat="44.08787" lon="6.16957">
        <ele>614.6</ele>
        <time>2020-10-18T08:36:46Z</time>
      </trkpt>
      <trkpt lat="44.08789" lon="6.16954">
        <ele>614.8</ele>
        <time>2020-10-18T08:36:47Z</time>
      </trkpt>
      <trkpt lat="44.08791" lon="6.1695">
        <ele>615</ele>
        <time>2020-10-18T08:36:48Z</time>
      </trkpt>
      <trkpt lat="44.08792" lon="6.16945">
        <ele>615</ele>
        <time>2020-10-18T08:36:49Z</time>
      </trkpt>
      <trkpt lat="44.08794" lon="6.16941">
        <ele>615</ele>
        <time>2020-10-18T08:36:50Z</time>
      </trkpt>
      <trkpt lat="44.08796" lon="6.16936">
        <ele>615.2</ele>
        <time>2020-10-18T08:36:51Z</time>
      </trkpt>
      <trkpt lat="44.08796" lon="6.16931">
        <ele>615.2</ele>
        <time>2020-10-18T08:36:52Z</time>
      </trkpt>
      <trkpt lat="44.08796" lon="6.16926">
        <ele>615.4</ele>
        <time>2020-10-18T08:36:53Z</time>
      </trkpt>
      <trkpt lat="44.08796" lon="6.16921">
        <ele>615.6</ele>
        <time>2020-10-18T08:36:54Z</time>
      </trkpt>
      <trkpt lat="44.08795" lon="6.16916">
        <ele>615.6</ele>
        <time>2020-10-18T08:36:55Z</time>
      </trkpt>
      <trkpt lat="44.08795" lon="6.16911">
        <ele>615.8</ele>
        <time>2020-10-18T08:36:56Z</time>
      </trkpt>
      <trkpt lat="44.08795" lon="6.16906">
        <ele>615.8</ele>
        <time>2020-10-18T08:36:57Z</time>
      </trkpt>
      <trkpt lat="44.08795" lon="6.16902">
        <ele>615.8</ele>
        <time>2020-10-18T08:36:58Z</time>
      </trkpt>
      <trkpt lat="44.08795" lon="6.16894">
        <ele>616</ele>
        <time>2020-10-18T08:36:59Z</time>
      </trkpt>
      <trkpt lat="44.08795" lon="6.16894">
        <ele>616.2</ele>
        <time>2020-10-18T08:37:00Z</time>
      </trkpt>
      <trkpt lat="44.08795" lon="6.1689">
        <ele>616.2</ele>
        <time>2020-10-18T08:37:01Z</time>
      </trkpt>
      <trkpt lat="44.08795" lon="6.16886">
        <ele>616.4</ele>
        <time>2020-10-18T08:37:02Z</time>
      </trkpt>
      <trkpt lat="44.08795" lon="6.16883">
        <ele>616.6</ele>
        <time>2020-10-18T08:37:03Z</time>
      </trkpt>
      <trkpt lat="44.08796" lon="6.16879">
        <ele>617</ele>
        <time>2020-10-18T08:37:04Z</time>
      </trkpt>
      <trkpt lat="44.08796" lon="6.16875">
        <ele>617</ele>
        <time>2020-10-18T08:37:05Z</time>
      </trkpt>
      <trkpt lat="44.08796" lon="6.16871">
        <ele>617</ele>
        <time>2020-10-18T08:37:06Z</time>
      </trkpt>
      <trkpt lat="44.08796" lon="6.16867">
        <ele>617.4</ele>
        <time>2020-10-18T08:37:07Z</time>
      </trkpt>
      <trkpt lat="44.08797" lon="6.16863">
        <ele>617.6</ele>
        <time>2020-10-18T08:37:08Z</time>
      </trkpt>
      <trkpt lat="44.08799" lon="6.16859">
        <ele>617.8</ele>
        <time>2020-10-18T08:37:09Z</time>
      </trkpt>
      <trkpt lat="44.088" lon="6.16856">
        <ele>618</ele>
        <time>2020-10-18T08:37:10Z</time>
      </trkpt>
      <trkpt lat="44.08801" lon="6.16848">
        <ele>618</ele>
        <time>2020-10-18T08:37:11Z</time>
      </trkpt>
      <trkpt lat="44.08801" lon="6.16848">
        <ele>618.4</ele>
        <time>2020-10-18T08:37:12Z</time>
      </trkpt>
      <trkpt lat="44.08802" lon="6.16844">
        <ele>618.8</ele>
        <time>2020-10-18T08:37:13Z</time>
      </trkpt>
      <trkpt lat="44.08803" lon="6.1684">
        <ele>619</ele>
        <time>2020-10-18T08:37:14Z</time>
      </trkpt>
      <trkpt lat="44.08803" lon="6.16836">
        <ele>619.2</ele>
        <time>2020-10-18T08:37:15Z</time>
      </trkpt>
      <trkpt lat="44.08804" lon="6.16832">
        <ele>619.6</ele>
        <time>2020-10-18T08:37:16Z</time>
      </trkpt>
      <trkpt lat="44.08804" lon="6.16829">
        <ele>619.8</ele>
        <time>2020-10-18T08:37:17Z</time>
      </trkpt>
      <trkpt lat="44.08804" lon="6.16825">
        <ele>619.8</ele>
        <time>2020-10-18T08:37:18Z</time>
      </trkpt>
      <trkpt lat="44.08805" lon="6.16821">
        <ele>619.8</ele>
        <time>2020-10-18T08:37:19Z</time>
      </trkpt>
      <trkpt lat="44.08805" lon="6.16817">
        <ele>620.2</ele>
        <time>2020-10-18T08:37:20Z</time>
      </trkpt>
      <trkpt lat="44.08805" lon="6.16813">
        <ele>620.2</ele>
        <time>2020-10-18T08:37:21Z</time>
      </trkpt>
      <trkpt lat="44.08805" lon="6.16809">
        <ele>620.4</ele>
        <time>2020-10-18T08:37:22Z</time>
      </trkpt>
      <trkpt lat="44.08806" lon="6.16805">
        <ele>620.6</ele>
        <time>2020-10-18T08:37:23Z</time>
      </trkpt>
      <trkpt lat="44.08806" lon="6.16801">
        <ele>620.8</ele>
        <time>2020-10-18T08:37:24Z</time>
      </trkpt>
      <trkpt lat="44.08806" lon="6.16797">
        <ele>621</ele>
        <time>2020-10-18T08:37:25Z</time>
      </trkpt>
      <trkpt lat="44.08807" lon="6.16789">
        <ele>621.2</ele>
        <time>2020-10-18T08:37:26Z</time>
      </trkpt>
      <trkpt lat="44.08807" lon="6.16789">
        <ele>621.4</ele>
        <time>2020-10-18T08:37:27Z</time>
      </trkpt>
      <trkpt lat="44.08808" lon="6.16786">
        <ele>621.6</ele>
        <time>2020-10-18T08:37:28Z</time>
      </trkpt>
      <trkpt lat="44.08809" lon="6.16778">
        <ele>621.8</ele>
        <time>2020-10-18T08:37:29Z</time>
      </trkpt>
      <trkpt lat="44.08809" lon="6.16778">
        <ele>622.2</ele>
        <time>2020-10-18T08:37:30Z</time>
      </trkpt>
      <trkpt lat="44.0881" lon="6.16774">
        <ele>622.2</ele>
        <time>2020-10-18T08:37:31Z</time>
      </trkpt>
      <trkpt lat="44.0881" lon="6.1677">
        <ele>622.6</ele>
        <time>2020-10-18T08:37:32Z</time>
      </trkpt>
      <trkpt lat="44.08811" lon="6.16766">
        <ele>622.8</ele>
        <time>2020-10-18T08:37:33Z</time>
      </trkpt>
      <trkpt lat="44.08811" lon="6.16762">
        <ele>622.8</ele>
        <time>2020-10-18T08:37:34Z</time>
      </trkpt>
      <trkpt lat="44.08811" lon="6.16759">
        <ele>623</ele>
        <time>2020-10-18T08:37:35Z</time>
      </trkpt>
      <trkpt lat="44.08812" lon="6.16755">
        <ele>623</ele>
        <time>2020-10-18T08:37:36Z</time>
      </trkpt>
      <trkpt lat="44.08813" lon="6.16751">
        <ele>623.2</ele>
        <time>2020-10-18T08:37:37Z</time>
      </trkpt>
      <trkpt lat="44.08814" lon="6.16747">
        <ele>623.4</ele>
        <time>2020-10-18T08:37:38Z</time>
      </trkpt>
      <trkpt lat="44.08815" lon="6.16739">
        <ele>623.6</ele>
        <time>2020-10-18T08:37:39Z</time>
      </trkpt>
      <trkpt lat="44.08816" lon="6.16736">
        <ele>623.6</ele>
        <time>2020-10-18T08:37:40Z</time>
      </trkpt>
      <trkpt lat="44.08817" lon="6.16732">
        <ele>623.8</ele>
        <time>2020-10-18T08:37:41Z</time>
      </trkpt>
      <trkpt lat="44.08818" lon="6.16728">
        <ele>624</ele>
        <time>2020-10-18T08:37:42Z</time>
      </trkpt>
      <trkpt lat="44.08819" lon="6.16724">
        <ele>624.2</ele>
        <time>2020-10-18T08:37:43Z</time>
      </trkpt>
      <trkpt lat="44.0882" lon="6.1672">
        <ele>624.4</ele>
        <time>2020-10-18T08:37:44Z</time>
      </trkpt>
      <trkpt lat="44.0882" lon="6.16716">
        <ele>624.6</ele>
        <time>2020-10-18T08:37:45Z</time>
      </trkpt>
      <trkpt lat="44.0882" lon="6.16713">
        <ele>624.8</ele>
        <time>2020-10-18T08:37:46Z</time>
      </trkpt>
      <trkpt lat="44.08821" lon="6.16709">
        <ele>625</ele>
        <time>2020-10-18T08:37:47Z</time>
      </trkpt>
      <trkpt lat="44.08821" lon="6.16705">
        <ele>625</ele>
        <time>2020-10-18T08:37:48Z</time>
      </trkpt>
      <trkpt lat="44.08821" lon="6.16705">
        <ele>625.2</ele>
        <time>2020-10-18T08:37:49Z</time>
      </trkpt>
      <trkpt lat="44.08821" lon="6.16701">
        <ele>625.4</ele>
        <time>2020-10-18T08:37:50Z</time>
      </trkpt>
      <trkpt lat="44.08822" lon="6.16693">
        <ele>625.4</ele>
        <time>2020-10-18T08:37:51Z</time>
      </trkpt>
      <trkpt lat="44.08823" lon="6.1669">
        <ele>625.6</ele>
        <time>2020-10-18T08:37:52Z</time>
      </trkpt>
      <trkpt lat="44.08823" lon="6.16686">
        <ele>625.8</ele>
        <time>2020-10-18T08:37:53Z</time>
      </trkpt>
      <trkpt lat="44.08824" lon="6.16683">
        <ele>626</ele>
        <time>2020-10-18T08:37:54Z</time>
      </trkpt>
      <trkpt lat="44.08824" lon="6.16679">
        <ele>626.2</ele>
        <time>2020-10-18T08:37:55Z</time>
      </trkpt>
      <trkpt lat="44.08825" lon="6.16675">
        <ele>626.4</ele>
        <time>2020-10-18T08:37:56Z</time>
      </trkpt>
      <trkpt lat="44.08826" lon="6.16671">
        <ele>626.6</ele>
        <time>2020-10-18T08:37:57Z</time>
      </trkpt>
      <trkpt lat="44.08826" lon="6.16668">
        <ele>626.8</ele>
        <time>2020-10-18T08:37:58Z</time>
      </trkpt>
      <trkpt lat="44.08827" lon="6.16664">
        <ele>627</ele>
        <time>2020-10-18T08:37:59Z</time>
      </trkpt>
      <trkpt lat="44.08828" lon="6.1666">
        <ele>627</ele>
        <time>2020-10-18T08:38:00Z</time>
      </trkpt>
      <trkpt lat="44.08828" lon="6.16657">
        <ele>627.2</ele>
        <time>2020-10-18T08:38:01Z</time>
      </trkpt>
      <trkpt lat="44.08829" lon="6.16653">
        <ele>627.2</ele>
        <time>2020-10-18T08:38:02Z</time>
      </trkpt>
      <trkpt lat="44.08829" lon="6.1665">
        <ele>627.4</ele>
        <time>2020-10-18T08:38:03Z</time>
      </trkpt>
      <trkpt lat="44.08829" lon="6.16646">
        <ele>627.6</ele>
        <time>2020-10-18T08:38:04Z</time>
      </trkpt>
      <trkpt lat="44.0883" lon="6.16643">
        <ele>627.8</ele>
        <time>2020-10-18T08:38:05Z</time>
      </trkpt>
      <trkpt lat="44.08831" lon="6.1664">
        <ele>628</ele>
        <time>2020-10-18T08:38:06Z</time>
      </trkpt>
      <trkpt lat="44.08832" lon="6.16636">
        <ele>628</ele>
        <time>2020-10-18T08:38:07Z</time>
      </trkpt>
      <trkpt lat="44.08833" lon="6.16633">
        <ele>628.4</ele>
        <time>2020-10-18T08:38:08Z</time>
      </trkpt>
      <trkpt lat="44.08834" lon="6.16629">
        <ele>628.6</ele>
        <time>2020-10-18T08:38:09Z</time>
      </trkpt>
      <trkpt lat="44.08835" lon="6.16625">
        <ele>628.6</ele>
        <time>2020-10-18T08:38:10Z</time>
      </trkpt>
      <trkpt lat="44.08836" lon="6.16621">
        <ele>629</ele>
        <time>2020-10-18T08:38:11Z</time>
      </trkpt>
      <trkpt lat="44.08836" lon="6.16618">
        <ele>629.2</ele>
        <time>2020-10-18T08:38:12Z</time>
      </trkpt>
      <trkpt lat="44.08837" lon="6.16615">
        <ele>629.2</ele>
        <time>2020-10-18T08:38:13Z</time>
      </trkpt>
      <trkpt lat="44.08837" lon="6.16611">
        <ele>629.4</ele>
        <time>2020-10-18T08:38:14Z</time>
      </trkpt>
      <trkpt lat="44.08838" lon="6.16608">
        <ele>629.8</ele>
        <time>2020-10-18T08:38:15Z</time>
      </trkpt>
      <trkpt lat="44.08838" lon="6.16605">
        <ele>630</ele>
        <time>2020-10-18T08:38:16Z</time>
      </trkpt>
      <trkpt lat="44.08839" lon="6.16602">
        <ele>630.2</ele>
        <time>2020-10-18T08:38:17Z</time>
      </trkpt>
      <trkpt lat="44.0884" lon="6.166">
        <ele>630.4</ele>
        <time>2020-10-18T08:38:18Z</time>
      </trkpt>
      <trkpt lat="44.08841" lon="6.16598">
        <ele>630.6</ele>
        <time>2020-10-18T08:38:19Z</time>
      </trkpt>
      <trkpt lat="44.08841" lon="6.16598">
        <ele>630.8</ele>
        <time>2020-10-18T08:38:20Z</time>
      </trkpt>
      <trkpt lat="44.08843" lon="6.16595">
        <ele>631.2</ele>
        <time>2020-10-18T08:38:21Z</time>
      </trkpt>
      <trkpt lat="44.08844" lon="6.16593">
        <ele>631.2</ele>
        <time>2020-10-18T08:38:22Z</time>
      </trkpt>
      <trkpt lat="44.08846" lon="6.1659">
        <ele>631.4</ele>
        <time>2020-10-18T08:38:23Z</time>
      </trkpt>
      <trkpt lat="44.08848" lon="6.16585">
        <ele>631.6</ele>
        <time>2020-10-18T08:38:24Z</time>
      </trkpt>
      <trkpt lat="44.08849" lon="6.16582">
        <ele>631.8</ele>
        <time>2020-10-18T08:38:25Z</time>
      </trkpt>
      <trkpt lat="44.08849" lon="6.16582">
        <ele>632.2</ele>
        <time>2020-10-18T08:38:26Z</time>
      </trkpt>
      <trkpt lat="44.08849" lon="6.16579">
        <ele>632.4</ele>
        <time>2020-10-18T08:38:27Z</time>
      </trkpt>
      <trkpt lat="44.0885" lon="6.16576">
        <ele>632.6</ele>
        <time>2020-10-18T08:38:28Z</time>
      </trkpt>
      <trkpt lat="44.08852" lon="6.16573">
        <ele>632.8</ele>
        <time>2020-10-18T08:38:29Z</time>
      </trkpt>
      <trkpt lat="44.08854" lon="6.1657">
        <ele>633</ele>
        <time>2020-10-18T08:38:30Z</time>
      </trkpt>
      <trkpt lat="44.08855" lon="6.16567">
        <ele>633.2</ele>
        <time>2020-10-18T08:38:31Z</time>
      </trkpt>
      <trkpt lat="44.08856" lon="6.16564">
        <ele>633.2</ele>
        <time>2020-10-18T08:38:32Z</time>
      </trkpt>
      <trkpt lat="44.08857" lon="6.16561">
        <ele>633.6</ele>
        <time>2020-10-18T08:38:33Z</time>
      </trkpt>
      <trkpt lat="44.08859" lon="6.16558">
        <ele>633.8</ele>
        <time>2020-10-18T08:38:34Z</time>
      </trkpt>
      <trkpt lat="44.08861" lon="6.16554">
        <ele>633.8</ele>
        <time>2020-10-18T08:38:35Z</time>
      </trkpt>
      <trkpt lat="44.08864" lon="6.16548">
        <ele>634</ele>
        <time>2020-10-18T08:38:36Z</time>
      </trkpt>
      <trkpt lat="44.08864" lon="6.16548">
        <ele>634.2</ele>
        <time>2020-10-18T08:38:37Z</time>
      </trkpt>
      <trkpt lat="44.08865" lon="6.16546">
        <ele>634.4</ele>
        <time>2020-10-18T08:38:38Z</time>
      </trkpt>
      <trkpt lat="44.08868" lon="6.1654">
        <ele>634.4</ele>
        <time>2020-10-18T08:38:39Z</time>
      </trkpt>
      <trkpt lat="44.08868" lon="6.1654">
        <ele>634.6</ele>
        <time>2020-10-18T08:38:40Z</time>
      </trkpt>
      <trkpt lat="44.0887" lon="6.16537">
        <ele>635</ele>
        <time>2020-10-18T08:38:41Z</time>
      </trkpt>
      <trkpt lat="44.08875" lon="6.16529">
        <ele>635</ele>
        <time>2020-10-18T08:38:42Z</time>
      </trkpt>
      <trkpt lat="44.08877" lon="6.16527">
        <ele>635</ele>
        <time>2020-10-18T08:38:43Z</time>
      </trkpt>
      <trkpt lat="44.08878" lon="6.16525">
        <ele>635.2</ele>
        <time>2020-10-18T08:38:44Z</time>
      </trkpt>
      <trkpt lat="44.08882" lon="6.16517">
        <ele>635.2</ele>
        <time>2020-10-18T08:38:45Z</time>
      </trkpt>
      <trkpt lat="44.08884" lon="6.16513">
        <ele>635.6</ele>
        <time>2020-10-18T08:38:46Z</time>
      </trkpt>
      <trkpt lat="44.08886" lon="6.16509">
        <ele>635.6</ele>
        <time>2020-10-18T08:38:47Z</time>
      </trkpt>
      <trkpt lat="44.08888" lon="6.16506">
        <ele>635.8</ele>
        <time>2020-10-18T08:38:48Z</time>
      </trkpt>
      <trkpt lat="44.0889" lon="6.16502">
        <ele>635.8</ele>
        <time>2020-10-18T08:38:49Z</time>
      </trkpt>
      <trkpt lat="44.08892" lon="6.16498">
        <ele>635.8</ele>
        <time>2020-10-18T08:38:50Z</time>
      </trkpt>
      <trkpt lat="44.08894" lon="6.16495">
        <ele>636</ele>
        <time>2020-10-18T08:38:51Z</time>
      </trkpt>
      <trkpt lat="44.08896" lon="6.16491">
        <ele>636.2</ele>
        <time>2020-10-18T08:38:52Z</time>
      </trkpt>
      <trkpt lat="44.08898" lon="6.16488">
        <ele>636.2</ele>
        <time>2020-10-18T08:38:53Z</time>
      </trkpt>
      <trkpt lat="44.089" lon="6.16485">
        <ele>636.2</ele>
        <time>2020-10-18T08:38:54Z</time>
      </trkpt>
      <trkpt lat="44.08902" lon="6.16482">
        <ele>636.2</ele>
        <time>2020-10-18T08:38:55Z</time>
      </trkpt>
      <trkpt lat="44.08904" lon="6.16478">
        <ele>636.4</ele>
        <time>2020-10-18T08:38:56Z</time>
      </trkpt>
      <trkpt lat="44.08905" lon="6.16475">
        <ele>636.6</ele>
        <time>2020-10-18T08:38:57Z</time>
      </trkpt>
      <trkpt lat="44.08907" lon="6.16472">
        <ele>636.6</ele>
        <time>2020-10-18T08:38:58Z</time>
      </trkpt>
      <trkpt lat="44.08909" lon="6.16469">
        <ele>636.8</ele>
        <time>2020-10-18T08:38:59Z</time>
      </trkpt>
      <trkpt lat="44.08911" lon="6.16467">
        <ele>637</ele>
        <time>2020-10-18T08:39:00Z</time>
      </trkpt>
      <trkpt lat="44.08913" lon="6.16464">
        <ele>637</ele>
        <time>2020-10-18T08:39:01Z</time>
      </trkpt>
      <trkpt lat="44.08915" lon="6.16462">
        <ele>637.4</ele>
        <time>2020-10-18T08:39:02Z</time>
      </trkpt>
      <trkpt lat="44.08917" lon="6.16459">
        <ele>637.6</ele>
        <time>2020-10-18T08:39:03Z</time>
      </trkpt>
      <trkpt lat="44.0892" lon="6.16457">
        <ele>637.6</ele>
        <time>2020-10-18T08:39:04Z</time>
      </trkpt>
      <trkpt lat="44.08922" lon="6.16454">
        <ele>637.8</ele>
        <time>2020-10-18T08:39:05Z</time>
      </trkpt>
      <trkpt lat="44.08924" lon="6.16452">
        <ele>637.8</ele>
        <time>2020-10-18T08:39:06Z</time>
      </trkpt>
      <trkpt lat="44.08926" lon="6.16449">
        <ele>637.8</ele>
        <time>2020-10-18T08:39:07Z</time>
      </trkpt>
      <trkpt lat="44.08928" lon="6.16446">
        <ele>638.2</ele>
        <time>2020-10-18T08:39:08Z</time>
      </trkpt>
      <trkpt lat="44.0893" lon="6.16444">
        <ele>638.2</ele>
        <time>2020-10-18T08:39:09Z</time>
      </trkpt>
      <trkpt lat="44.08932" lon="6.16441">
        <ele>638.6</ele>
        <time>2020-10-18T08:39:10Z</time>
      </trkpt>
      <trkpt lat="44.08934" lon="6.16439">
        <ele>638.6</ele>
        <time>2020-10-18T08:39:11Z</time>
      </trkpt>
      <trkpt lat="44.08936" lon="6.16436">
        <ele>638.8</ele>
        <time>2020-10-18T08:39:12Z</time>
      </trkpt>
      <trkpt lat="44.08937" lon="6.16433">
        <ele>639</ele>
        <time>2020-10-18T08:39:13Z</time>
      </trkpt>
      <trkpt lat="44.08938" lon="6.16429">
        <ele>639</ele>
        <time>2020-10-18T08:39:14Z</time>
      </trkpt>
      <trkpt lat="44.08938" lon="6.16426">
        <ele>639.2</ele>
        <time>2020-10-18T08:39:15Z</time>
      </trkpt>
      <trkpt lat="44.08939" lon="6.16423">
        <ele>639.4</ele>
        <time>2020-10-18T08:39:16Z</time>
      </trkpt>
      <trkpt lat="44.0894" lon="6.16419">
        <ele>639.8</ele>
        <time>2020-10-18T08:39:17Z</time>
      </trkpt>
      <trkpt lat="44.08941" lon="6.16416">
        <ele>639.8</ele>
        <time>2020-10-18T08:39:18Z</time>
      </trkpt>
      <trkpt lat="44.08942" lon="6.16413">
        <ele>639.8</ele>
        <time>2020-10-18T08:39:19Z</time>
      </trkpt>
      <trkpt lat="44.08942" lon="6.16409">
        <ele>640</ele>
        <time>2020-10-18T08:39:20Z</time>
      </trkpt>
      <trkpt lat="44.08943" lon="6.16406">
        <ele>640</ele>
        <time>2020-10-18T08:39:21Z</time>
      </trkpt>
      <trkpt lat="44.08943" lon="6.16402">
        <ele>640</ele>
        <time>2020-10-18T08:39:22Z</time>
      </trkpt>
      <trkpt lat="44.08944" lon="6.16399">
        <ele>640.4</ele>
        <time>2020-10-18T08:39:23Z</time>
      </trkpt>
      <trkpt lat="44.08944" lon="6.16395">
        <ele>640.4</ele>
        <time>2020-10-18T08:39:24Z</time>
      </trkpt>
      <trkpt lat="44.08945" lon="6.16391">
        <ele>640.8</ele>
        <time>2020-10-18T08:39:25Z</time>
      </trkpt>
      <trkpt lat="44.08945" lon="6.16388">
        <ele>640.8</ele>
        <time>2020-10-18T08:39:26Z</time>
      </trkpt>
      <trkpt lat="44.08945" lon="6.16384">
        <ele>641.2</ele>
        <time>2020-10-18T08:39:27Z</time>
      </trkpt>
      <trkpt lat="44.08945" lon="6.1638">
        <ele>641.4</ele>
        <time>2020-10-18T08:39:28Z</time>
      </trkpt>
      <trkpt lat="44.08945" lon="6.16376">
        <ele>641.6</ele>
        <time>2020-10-18T08:39:29Z</time>
      </trkpt>
      <trkpt lat="44.08945" lon="6.16372">
        <ele>641.6</ele>
        <time>2020-10-18T08:39:30Z</time>
      </trkpt>
      <trkpt lat="44.08946" lon="6.16368">
        <ele>641.8</ele>
        <time>2020-10-18T08:39:31Z</time>
      </trkpt>
      <trkpt lat="44.08946" lon="6.16365">
        <ele>642.2</ele>
        <time>2020-10-18T08:39:32Z</time>
      </trkpt>
      <trkpt lat="44.08946" lon="6.16361">
        <ele>642.2</ele>
        <time>2020-10-18T08:39:33Z</time>
      </trkpt>
      <trkpt lat="44.08946" lon="6.16357">
        <ele>642.6</ele>
        <time>2020-10-18T08:39:34Z</time>
      </trkpt>
      <trkpt lat="44.08947" lon="6.16353">
        <ele>642.8</ele>
        <time>2020-10-18T08:39:35Z</time>
      </trkpt>
      <trkpt lat="44.08947" lon="6.1635">
        <ele>642.8</ele>
        <time>2020-10-18T08:39:36Z</time>
      </trkpt>
      <trkpt lat="44.08948" lon="6.16346">
        <ele>643.2</ele>
        <time>2020-10-18T08:39:37Z</time>
      </trkpt>
      <trkpt lat="44.08948" lon="6.16342">
        <ele>643.2</ele>
        <time>2020-10-18T08:39:38Z</time>
      </trkpt>
      <trkpt lat="44.08948" lon="6.16338">
        <ele>643.4</ele>
        <time>2020-10-18T08:39:39Z</time>
      </trkpt>
      <trkpt lat="44.08948" lon="6.16335">
        <ele>643.4</ele>
        <time>2020-10-18T08:39:40Z</time>
      </trkpt>
      <trkpt lat="44.08949" lon="6.16331">
        <ele>643.6</ele>
        <time>2020-10-18T08:39:41Z</time>
      </trkpt>
      <trkpt lat="44.08949" lon="6.16327">
        <ele>643.8</ele>
        <time>2020-10-18T08:39:42Z</time>
      </trkpt>
      <trkpt lat="44.08949" lon="6.16323">
        <ele>643.8</ele>
        <time>2020-10-18T08:39:43Z</time>
      </trkpt>
      <trkpt lat="44.0895" lon="6.16319">
        <ele>644.2</ele>
        <time>2020-10-18T08:39:44Z</time>
      </trkpt>
      <trkpt lat="44.0895" lon="6.16315">
        <ele>644.2</ele>
        <time>2020-10-18T08:39:45Z</time>
      </trkpt>
      <trkpt lat="44.08951" lon="6.16311">
        <ele>644.2</ele>
        <time>2020-10-18T08:39:46Z</time>
      </trkpt>
      <trkpt lat="44.08952" lon="6.16307">
        <ele>644.2</ele>
        <time>2020-10-18T08:39:47Z</time>
      </trkpt>
      <trkpt lat="44.08952" lon="6.16304">
        <ele>644.4</ele>
        <time>2020-10-18T08:39:48Z</time>
      </trkpt>
      <trkpt lat="44.08953" lon="6.163">
        <ele>644.4</ele>
        <time>2020-10-18T08:39:49Z</time>
      </trkpt>
      <trkpt lat="44.08954" lon="6.16297">
        <ele>644.6</ele>
        <time>2020-10-18T08:39:50Z</time>
      </trkpt>
      <trkpt lat="44.08954" lon="6.16294">
        <ele>644.6</ele>
        <time>2020-10-18T08:39:51Z</time>
      </trkpt>
      <trkpt lat="44.08955" lon="6.1629">
        <ele>644.8</ele>
        <time>2020-10-18T08:39:52Z</time>
      </trkpt>
      <trkpt lat="44.08956" lon="6.16287">
        <ele>645</ele>
        <time>2020-10-18T08:39:53Z</time>
      </trkpt>
      <trkpt lat="44.08956" lon="6.16284">
        <ele>645.2</ele>
        <time>2020-10-18T08:39:54Z</time>
      </trkpt>
      <trkpt lat="44.08956" lon="6.16281">
        <ele>645.2</ele>
        <time>2020-10-18T08:39:55Z</time>
      </trkpt>
      <trkpt lat="44.08956" lon="6.16277">
        <ele>645.4</ele>
        <time>2020-10-18T08:39:56Z</time>
      </trkpt>
      <trkpt lat="44.08956" lon="6.16274">
        <ele>645.6</ele>
        <time>2020-10-18T08:39:57Z</time>
      </trkpt>
      <trkpt lat="44.08955" lon="6.16271">
        <ele>645.8</ele>
        <time>2020-10-18T08:39:58Z</time>
      </trkpt>
      <trkpt lat="44.08954" lon="6.16269">
        <ele>646.2</ele>
        <time>2020-10-18T08:39:59Z</time>
      </trkpt>
      <trkpt lat="44.08952" lon="6.16267">
        <ele>646.4</ele>
        <time>2020-10-18T08:40:00Z</time>
      </trkpt>
      <trkpt lat="44.0895" lon="6.16266">
        <ele>646.6</ele>
        <time>2020-10-18T08:40:01Z</time>
      </trkpt>
      <trkpt lat="44.08948" lon="6.16265">
        <ele>647</ele>
        <time>2020-10-18T08:40:02Z</time>
      </trkpt>
      <trkpt lat="44.08945" lon="6.16265">
        <ele>647</ele>
        <time>2020-10-18T08:40:03Z</time>
      </trkpt>
      <trkpt lat="44.08942" lon="6.16265">
        <ele>647.4</ele>
        <time>2020-10-18T08:40:04Z</time>
      </trkpt>
      <trkpt lat="44.08939" lon="6.16264">
        <ele>647.8</ele>
        <time>2020-10-18T08:40:05Z</time>
      </trkpt>
      <trkpt lat="44.08937" lon="6.16263">
        <ele>647.8</ele>
        <time>2020-10-18T08:40:06Z</time>
      </trkpt>
      <trkpt lat="44.08935" lon="6.16261">
        <ele>647.8</ele>
        <time>2020-10-18T08:40:07Z</time>
      </trkpt>
      <trkpt lat="44.08933" lon="6.1626">
        <ele>648</ele>
        <time>2020-10-18T08:40:08Z</time>
      </trkpt>
      <trkpt lat="44.0893" lon="6.16257">
        <ele>648.4</ele>
        <time>2020-10-18T08:40:09Z</time>
      </trkpt>
      <trkpt lat="44.08928" lon="6.16254">
        <ele>648.4</ele>
        <time>2020-10-18T08:40:10Z</time>
      </trkpt>
      <trkpt lat="44.08926" lon="6.16251">
        <ele>648.6</ele>
        <time>2020-10-18T08:40:11Z</time>
      </trkpt>
      <trkpt lat="44.08925" lon="6.16248">
        <ele>648.8</ele>
        <time>2020-10-18T08:40:12Z</time>
      </trkpt>
      <trkpt lat="44.08923" lon="6.16245">
        <ele>648.8</ele>
        <time>2020-10-18T08:40:13Z</time>
      </trkpt>
      <trkpt lat="44.08921" lon="6.16242">
        <ele>648.8</ele>
        <time>2020-10-18T08:40:14Z</time>
      </trkpt>
      <trkpt lat="44.08919" lon="6.1624">
        <ele>648.8</ele>
        <time>2020-10-18T08:40:15Z</time>
      </trkpt>
      <trkpt lat="44.08917" lon="6.16238">
        <ele>648.8</ele>
        <time>2020-10-18T08:40:16Z</time>
      </trkpt>
      <trkpt lat="44.08915" lon="6.16235">
        <ele>649</ele>
        <time>2020-10-18T08:40:17Z</time>
      </trkpt>
      <trkpt lat="44.08913" lon="6.16233">
        <ele>649.2</ele>
        <time>2020-10-18T08:40:18Z</time>
      </trkpt>
      <trkpt lat="44.08912" lon="6.1623">
        <ele>649.2</ele>
        <time>2020-10-18T08:40:19Z</time>
      </trkpt>
      <trkpt lat="44.0891" lon="6.16228">
        <ele>649.2</ele>
        <time>2020-10-18T08:40:20Z</time>
      </trkpt>
      <trkpt lat="44.08908" lon="6.16225">
        <ele>649.4</ele>
        <time>2020-10-18T08:40:21Z</time>
      </trkpt>
      <trkpt lat="44.08907" lon="6.16222">
        <ele>649.8</ele>
        <time>2020-10-18T08:40:22Z</time>
      </trkpt>
      <trkpt lat="44.08906" lon="6.16219">
        <ele>649.8</ele>
        <time>2020-10-18T08:40:23Z</time>
      </trkpt>
      <trkpt lat="44.08904" lon="6.16216">
        <ele>650</ele>
        <time>2020-10-18T08:40:24Z</time>
      </trkpt>
      <trkpt lat="44.08902" lon="6.16214">
        <ele>650.2</ele>
        <time>2020-10-18T08:40:25Z</time>
      </trkpt>
      <trkpt lat="44.08901" lon="6.16212">
        <ele>650.2</ele>
        <time>2020-10-18T08:40:26Z</time>
      </trkpt>
      <trkpt lat="44.08899" lon="6.1621">
        <ele>650.4</ele>
        <time>2020-10-18T08:40:27Z</time>
      </trkpt>
      <trkpt lat="44.08897" lon="6.16207">
        <ele>650.8</ele>
        <time>2020-10-18T08:40:28Z</time>
      </trkpt>
      <trkpt lat="44.08895" lon="6.16205">
        <ele>650.8</ele>
        <time>2020-10-18T08:40:29Z</time>
      </trkpt>
      <trkpt lat="44.08893" lon="6.16202">
        <ele>651.2</ele>
        <time>2020-10-18T08:40:30Z</time>
      </trkpt>
      <trkpt lat="44.08892" lon="6.16199">
        <ele>651.6</ele>
        <time>2020-10-18T08:40:31Z</time>
      </trkpt>
      <trkpt lat="44.0889" lon="6.16196">
        <ele>651.6</ele>
        <time>2020-10-18T08:40:32Z</time>
      </trkpt>
      <trkpt lat="44.08888" lon="6.16194">
        <ele>651.8</ele>
        <time>2020-10-18T08:40:33Z</time>
      </trkpt>
      <trkpt lat="44.08887" lon="6.16191">
        <ele>651.8</ele>
        <time>2020-10-18T08:40:34Z</time>
      </trkpt>
      <trkpt lat="44.08885" lon="6.16188">
        <ele>652.2</ele>
        <time>2020-10-18T08:40:35Z</time>
      </trkpt>
      <trkpt lat="44.08884" lon="6.16185">
        <ele>652.2</ele>
        <time>2020-10-18T08:40:36Z</time>
      </trkpt>
      <trkpt lat="44.08883" lon="6.16182">
        <ele>652.2</ele>
        <time>2020-10-18T08:40:37Z</time>
      </trkpt>
      <trkpt lat="44.08881" lon="6.16179">
        <ele>652.4</ele>
        <time>2020-10-18T08:40:38Z</time>
      </trkpt>
      <trkpt lat="44.0888" lon="6.16176">
        <ele>652.6</ele>
        <time>2020-10-18T08:40:39Z</time>
      </trkpt>
      <trkpt lat="44.08879" lon="6.16173">
        <ele>652.8</ele>
        <time>2020-10-18T08:40:40Z</time>
      </trkpt>
      <trkpt lat="44.08878" lon="6.1617">
        <ele>652.8</ele>
        <time>2020-10-18T08:40:41Z</time>
      </trkpt>
      <trkpt lat="44.08877" lon="6.16168">
        <ele>653</ele>
        <time>2020-10-18T08:40:42Z</time>
      </trkpt>
      <trkpt lat="44.08876" lon="6.16166">
        <ele>653</ele>
        <time>2020-10-18T08:40:43Z</time>
      </trkpt>
      <trkpt lat="44.08875" lon="6.16164">
        <ele>653.4</ele>
        <time>2020-10-18T08:40:44Z</time>
      </trkpt>
      <trkpt lat="44.08874" lon="6.16161">
        <ele>653.6</ele>
        <time>2020-10-18T08:40:45Z</time>
      </trkpt>
      <trkpt lat="44.08873" lon="6.16159">
        <ele>653.6</ele>
        <time>2020-10-18T08:40:46Z</time>
      </trkpt>
      <trkpt lat="44.08872" lon="6.16156">
        <ele>653.6</ele>
        <time>2020-10-18T08:40:47Z</time>
      </trkpt>
      <trkpt lat="44.08871" lon="6.16154">
        <ele>653.8</ele>
        <time>2020-10-18T08:40:48Z</time>
      </trkpt>
      <trkpt lat="44.0887" lon="6.16151">
        <ele>654.2</ele>
        <time>2020-10-18T08:40:49Z</time>
      </trkpt>
      <trkpt lat="44.08869" lon="6.16149">
        <ele>654.4</ele>
        <time>2020-10-18T08:40:50Z</time>
      </trkpt>
      <trkpt lat="44.08868" lon="6.16146">
        <ele>654.4</ele>
        <time>2020-10-18T08:40:51Z</time>
      </trkpt>
      <trkpt lat="44.08867" lon="6.16143">
        <ele>654.8</ele>
        <time>2020-10-18T08:40:52Z</time>
      </trkpt>
      <trkpt lat="44.08865" lon="6.16141">
        <ele>655</ele>
        <time>2020-10-18T08:40:53Z</time>
      </trkpt>
      <trkpt lat="44.08864" lon="6.16138">
        <ele>655.2</ele>
        <time>2020-10-18T08:40:54Z</time>
      </trkpt>
      <trkpt lat="44.08863" lon="6.16135">
        <ele>655.6</ele>
        <time>2020-10-18T08:40:55Z</time>
      </trkpt>
      <trkpt lat="44.08861" lon="6.16133">
        <ele>656.2</ele>
        <time>2020-10-18T08:40:56Z</time>
      </trkpt>
      <trkpt lat="44.0886" lon="6.1613">
        <ele>656.6</ele>
        <time>2020-10-18T08:40:57Z</time>
      </trkpt>
      <trkpt lat="44.08858" lon="6.16128">
        <ele>657</ele>
        <time>2020-10-18T08:40:58Z</time>
      </trkpt>
      <trkpt lat="44.08857" lon="6.16125">
        <ele>657</ele>
        <time>2020-10-18T08:40:59Z</time>
      </trkpt>
      <trkpt lat="44.08855" lon="6.16122">
        <ele>657.4</ele>
        <time>2020-10-18T08:41:00Z</time>
      </trkpt>
      <trkpt lat="44.08854" lon="6.1612">
        <ele>657.8</ele>
        <time>2020-10-18T08:41:01Z</time>
      </trkpt>
      <trkpt lat="44.08853" lon="6.16117">
        <ele>658</ele>
        <time>2020-10-18T08:41:02Z</time>
      </trkpt>
      <trkpt lat="44.08851" lon="6.16115">
        <ele>658</ele>
        <time>2020-10-18T08:41:03Z</time>
      </trkpt>
      <trkpt lat="44.08851" lon="6.16112">
        <ele>658.4</ele>
        <time>2020-10-18T08:41:04Z</time>
      </trkpt>
      <trkpt lat="44.0885" lon="6.1611">
        <ele>658.8</ele>
        <time>2020-10-18T08:41:05Z</time>
      </trkpt>
      <trkpt lat="44.08848" lon="6.16107">
        <ele>658.8</ele>
        <time>2020-10-18T08:41:06Z</time>
      </trkpt>
      <trkpt lat="44.08848" lon="6.16104">
        <ele>659.2</ele>
        <time>2020-10-18T08:41:07Z</time>
      </trkpt>
      <trkpt lat="44.08847" lon="6.16102">
        <ele>659.2</ele>
        <time>2020-10-18T08:41:08Z</time>
      </trkpt>
      <trkpt lat="44.08846" lon="6.16099">
        <ele>659.4</ele>
        <time>2020-10-18T08:41:09Z</time>
      </trkpt>
      <trkpt lat="44.08845" lon="6.16096">
        <ele>659.6</ele>
        <time>2020-10-18T08:41:10Z</time>
      </trkpt>
      <trkpt lat="44.08844" lon="6.16093">
        <ele>659.8</ele>
        <time>2020-10-18T08:41:11Z</time>
      </trkpt>
      <trkpt lat="44.08844" lon="6.16091">
        <ele>659.8</ele>
        <time>2020-10-18T08:41:12Z</time>
      </trkpt>
      <trkpt lat="44.08843" lon="6.16088">
        <ele>660</ele>
        <time>2020-10-18T08:41:13Z</time>
      </trkpt>
      <trkpt lat="44.08842" lon="6.16085">
        <ele>660.4</ele>
        <time>2020-10-18T08:41:14Z</time>
      </trkpt>
      <trkpt lat="44.08842" lon="6.16083">
        <ele>660.6</ele>
        <time>2020-10-18T08:41:15Z</time>
      </trkpt>
      <trkpt lat="44.08841" lon="6.1608">
        <ele>660.8</ele>
        <time>2020-10-18T08:41:16Z</time>
      </trkpt>
      <trkpt lat="44.0884" lon="6.16077">
        <ele>661</ele>
        <time>2020-10-18T08:41:17Z</time>
      </trkpt>
      <trkpt lat="44.08839" lon="6.16075">
        <ele>661.2</ele>
        <time>2020-10-18T08:41:18Z</time>
      </trkpt>
      <trkpt lat="44.08838" lon="6.16073">
        <ele>661.2</ele>
        <time>2020-10-18T08:41:19Z</time>
      </trkpt>
      <trkpt lat="44.08838" lon="6.1607">
        <ele>661.6</ele>
        <time>2020-10-18T08:41:20Z</time>
      </trkpt>
      <trkpt lat="44.08837" lon="6.16067">
        <ele>661.8</ele>
        <time>2020-10-18T08:41:21Z</time>
      </trkpt>
      <trkpt lat="44.08836" lon="6.16064">
        <ele>661.8</ele>
        <time>2020-10-18T08:41:22Z</time>
      </trkpt>
      <trkpt lat="44.08835" lon="6.16062">
        <ele>662</ele>
        <time>2020-10-18T08:41:23Z</time>
      </trkpt>
      <trkpt lat="44.08834" lon="6.1606">
        <ele>662</ele>
        <time>2020-10-18T08:41:24Z</time>
      </trkpt>
      <trkpt lat="44.08834" lon="6.16057">
        <ele>662.4</ele>
        <time>2020-10-18T08:41:25Z</time>
      </trkpt>
      <trkpt lat="44.08833" lon="6.16055">
        <ele>662.4</ele>
        <time>2020-10-18T08:41:26Z</time>
      </trkpt>
      <trkpt lat="44.08833" lon="6.16052">
        <ele>662.6</ele>
        <time>2020-10-18T08:41:27Z</time>
      </trkpt>
      <trkpt lat="44.08832" lon="6.16049">
        <ele>662.6</ele>
        <time>2020-10-18T08:41:28Z</time>
      </trkpt>
      <trkpt lat="44.08832" lon="6.16047">
        <ele>662.8</ele>
        <time>2020-10-18T08:41:29Z</time>
      </trkpt>
      <trkpt lat="44.08831" lon="6.16044">
        <ele>662.8</ele>
        <time>2020-10-18T08:41:30Z</time>
      </trkpt>
      <trkpt lat="44.08831" lon="6.16041">
        <ele>663.2</ele>
        <time>2020-10-18T08:41:31Z</time>
      </trkpt>
      <trkpt lat="44.08831" lon="6.16038">
        <ele>663.2</ele>
        <time>2020-10-18T08:41:32Z</time>
      </trkpt>
      <trkpt lat="44.08831" lon="6.16035">
        <ele>663.6</ele>
        <time>2020-10-18T08:41:33Z</time>
      </trkpt>
      <trkpt lat="44.08831" lon="6.16033">
        <ele>663.8</ele>
        <time>2020-10-18T08:41:34Z</time>
      </trkpt>
      <trkpt lat="44.0883" lon="6.16031">
        <ele>664</ele>
        <time>2020-10-18T08:41:35Z</time>
      </trkpt>
      <trkpt lat="44.08829" lon="6.16029">
        <ele>664.2</ele>
        <time>2020-10-18T08:41:36Z</time>
      </trkpt>
      <trkpt lat="44.08829" lon="6.16027">
        <ele>664.2</ele>
        <time>2020-10-18T08:41:37Z</time>
      </trkpt>
      <trkpt lat="44.08828" lon="6.16025">
        <ele>664.4</ele>
        <time>2020-10-18T08:41:38Z</time>
      </trkpt>
      <trkpt lat="44.08827" lon="6.16022">
        <ele>664.8</ele>
        <time>2020-10-18T08:41:39Z</time>
      </trkpt>
      <trkpt lat="44.08827" lon="6.16019">
        <ele>665</ele>
        <time>2020-10-18T08:41:40Z</time>
      </trkpt>
      <trkpt lat="44.08826" lon="6.16016">
        <ele>665.2</ele>
        <time>2020-10-18T08:41:41Z</time>
      </trkpt>
      <trkpt lat="44.08825" lon="6.16013">
        <ele>665.6</ele>
        <time>2020-10-18T08:41:42Z</time>
      </trkpt>
      <trkpt lat="44.08824" lon="6.1601">
        <ele>665.8</ele>
        <time>2020-10-18T08:41:43Z</time>
      </trkpt>
      <trkpt lat="44.08824" lon="6.16006">
        <ele>666.2</ele>
        <time>2020-10-18T08:41:44Z</time>
      </trkpt>
      <trkpt lat="44.08823" lon="6.16003">
        <ele>666.4</ele>
        <time>2020-10-18T08:41:45Z</time>
      </trkpt>
      <trkpt lat="44.08822" lon="6.16">
        <ele>666.6</ele>
        <time>2020-10-18T08:41:46Z</time>
      </trkpt>
      <trkpt lat="44.08822" lon="6.15997">
        <ele>666.8</ele>
        <time>2020-10-18T08:41:47Z</time>
      </trkpt>
      <trkpt lat="44.08822" lon="6.15994">
        <ele>667</ele>
        <time>2020-10-18T08:41:48Z</time>
      </trkpt>
      <trkpt lat="44.08822" lon="6.1599">
        <ele>667</ele>
        <time>2020-10-18T08:41:49Z</time>
      </trkpt>
      <trkpt lat="44.08822" lon="6.15987">
        <ele>667</ele>
        <time>2020-10-18T08:41:50Z</time>
      </trkpt>
      <trkpt lat="44.08821" lon="6.15984">
        <ele>667.2</ele>
        <time>2020-10-18T08:41:51Z</time>
      </trkpt>
      <trkpt lat="44.08821" lon="6.1598">
        <ele>667.4</ele>
        <time>2020-10-18T08:41:52Z</time>
      </trkpt>
      <trkpt lat="44.08821" lon="6.15977">
        <ele>667.4</ele>
        <time>2020-10-18T08:41:53Z</time>
      </trkpt>
      <trkpt lat="44.08821" lon="6.15973">
        <ele>667.6</ele>
        <time>2020-10-18T08:41:54Z</time>
      </trkpt>
      <trkpt lat="44.08821" lon="6.15969">
        <ele>667.8</ele>
        <time>2020-10-18T08:41:55Z</time>
      </trkpt>
      <trkpt lat="44.08821" lon="6.15966">
        <ele>668</ele>
        <time>2020-10-18T08:41:56Z</time>
      </trkpt>
      <trkpt lat="44.08821" lon="6.15962">
        <ele>668</ele>
        <time>2020-10-18T08:41:57Z</time>
      </trkpt>
      <trkpt lat="44.08821" lon="6.15958">
        <ele>668</ele>
        <time>2020-10-18T08:41:58Z</time>
      </trkpt>
      <trkpt lat="44.0882" lon="6.15954">
        <ele>668.2</ele>
        <time>2020-10-18T08:41:59Z</time>
      </trkpt>
      <trkpt lat="44.0882" lon="6.15951">
        <ele>668.4</ele>
        <time>2020-10-18T08:42:00Z</time>
      </trkpt>
      <trkpt lat="44.0882" lon="6.15948">
        <ele>668.6</ele>
        <time>2020-10-18T08:42:01Z</time>
      </trkpt>
      <trkpt lat="44.0882" lon="6.15944">
        <ele>668.8</ele>
        <time>2020-10-18T08:42:02Z</time>
      </trkpt>
      <trkpt lat="44.0882" lon="6.15941">
        <ele>668.8</ele>
        <time>2020-10-18T08:42:03Z</time>
      </trkpt>
      <trkpt lat="44.0882" lon="6.15938">
        <ele>669</ele>
        <time>2020-10-18T08:42:04Z</time>
      </trkpt>
      <trkpt lat="44.0882" lon="6.15934">
        <ele>669</ele>
        <time>2020-10-18T08:42:05Z</time>
      </trkpt>
      <trkpt lat="44.0882" lon="6.1593">
        <ele>669.2</ele>
        <time>2020-10-18T08:42:06Z</time>
      </trkpt>
      <trkpt lat="44.0882" lon="6.15927">
        <ele>669.4</ele>
        <time>2020-10-18T08:42:07Z</time>
      </trkpt>
      <trkpt lat="44.08821" lon="6.15923">
        <ele>669.2</ele>
        <time>2020-10-18T08:42:08Z</time>
      </trkpt>
      <trkpt lat="44.08821" lon="6.1592">
        <ele>669.2</ele>
        <time>2020-10-18T08:42:09Z</time>
      </trkpt>
      <trkpt lat="44.08822" lon="6.15916">
        <ele>669.6</ele>
        <time>2020-10-18T08:42:10Z</time>
      </trkpt>
      <trkpt lat="44.08822" lon="6.15913">
        <ele>669.8</ele>
        <time>2020-10-18T08:42:11Z</time>
      </trkpt>
      <trkpt lat="44.08823" lon="6.1591">
        <ele>669.8</ele>
        <time>2020-10-18T08:42:12Z</time>
      </trkpt>
      <trkpt lat="44.08824" lon="6.15907">
        <ele>670.2</ele>
        <time>2020-10-18T08:42:13Z</time>
      </trkpt>
      <trkpt lat="44.08825" lon="6.15903">
        <ele>670.2</ele>
        <time>2020-10-18T08:42:14Z</time>
      </trkpt>
      <trkpt lat="44.08826" lon="6.159">
        <ele>670.6</ele>
        <time>2020-10-18T08:42:15Z</time>
      </trkpt>
      <trkpt lat="44.08828" lon="6.15897">
        <ele>670.6</ele>
        <time>2020-10-18T08:42:16Z</time>
      </trkpt>
      <trkpt lat="44.08829" lon="6.15895">
        <ele>671</ele>
        <time>2020-10-18T08:42:17Z</time>
      </trkpt>
      <trkpt lat="44.08831" lon="6.15892">
        <ele>671.2</ele>
        <time>2020-10-18T08:42:18Z</time>
      </trkpt>
      <trkpt lat="44.08833" lon="6.1589">
        <ele>671.2</ele>
        <time>2020-10-18T08:42:19Z</time>
      </trkpt>
      <trkpt lat="44.08836" lon="6.15887">
        <ele>671.2</ele>
        <time>2020-10-18T08:42:20Z</time>
      </trkpt>
      <trkpt lat="44.08838" lon="6.15885">
        <ele>671.4</ele>
        <time>2020-10-18T08:42:21Z</time>
      </trkpt>
      <trkpt lat="44.0884" lon="6.15883">
        <ele>671.8</ele>
        <time>2020-10-18T08:42:22Z</time>
      </trkpt>
      <trkpt lat="44.08842" lon="6.15881">
        <ele>672</ele>
        <time>2020-10-18T08:42:23Z</time>
      </trkpt>
      <trkpt lat="44.08844" lon="6.1588">
        <ele>672</ele>
        <time>2020-10-18T08:42:24Z</time>
      </trkpt>
      <trkpt lat="44.08847" lon="6.15878">
        <ele>672.2</ele>
        <time>2020-10-18T08:42:25Z</time>
      </trkpt>
      <trkpt lat="44.08849" lon="6.15876">
        <ele>672.4</ele>
        <time>2020-10-18T08:42:26Z</time>
      </trkpt>
      <trkpt lat="44.08852" lon="6.15875">
        <ele>672.6</ele>
        <time>2020-10-18T08:42:27Z</time>
      </trkpt>
      <trkpt lat="44.08854" lon="6.15873">
        <ele>672.6</ele>
        <time>2020-10-18T08:42:28Z</time>
      </trkpt>
      <trkpt lat="44.08857" lon="6.15871">
        <ele>672.8</ele>
        <time>2020-10-18T08:42:29Z</time>
      </trkpt>
      <trkpt lat="44.0886" lon="6.1587">
        <ele>672.8</ele>
        <time>2020-10-18T08:42:30Z</time>
      </trkpt>
      <trkpt lat="44.08863" lon="6.15869">
        <ele>672.8</ele>
        <time>2020-10-18T08:42:31Z</time>
      </trkpt>
      <trkpt lat="44.08865" lon="6.15867">
        <ele>673</ele>
        <time>2020-10-18T08:42:32Z</time>
      </trkpt>
      <trkpt lat="44.08868" lon="6.15866">
        <ele>673</ele>
        <time>2020-10-18T08:42:33Z</time>
      </trkpt>
      <trkpt lat="44.08871" lon="6.15864">
        <ele>673</ele>
        <time>2020-10-18T08:42:34Z</time>
      </trkpt>
      <trkpt lat="44.08874" lon="6.15863">
        <ele>673.2</ele>
        <time>2020-10-18T08:42:35Z</time>
      </trkpt>
      <trkpt lat="44.08877" lon="6.15861">
        <ele>673.4</ele>
        <time>2020-10-18T08:42:36Z</time>
      </trkpt>
      <trkpt lat="44.0888" lon="6.15859">
        <ele>673.8</ele>
        <time>2020-10-18T08:42:37Z</time>
      </trkpt>
      <trkpt lat="44.08882" lon="6.15858">
        <ele>673.8</ele>
        <time>2020-10-18T08:42:38Z</time>
      </trkpt>
      <trkpt lat="44.08885" lon="6.15856">
        <ele>674</ele>
        <time>2020-10-18T08:42:39Z</time>
      </trkpt>
      <trkpt lat="44.08888" lon="6.15855">
        <ele>674</ele>
        <time>2020-10-18T08:42:40Z</time>
      </trkpt>
      <trkpt lat="44.08891" lon="6.15853">
        <ele>674.4</ele>
        <time>2020-10-18T08:42:41Z</time>
      </trkpt>
      <trkpt lat="44.08893" lon="6.15852">
        <ele>674.4</ele>
        <time>2020-10-18T08:42:42Z</time>
      </trkpt>
      <trkpt lat="44.08896" lon="6.15851">
        <ele>674.4</ele>
        <time>2020-10-18T08:42:43Z</time>
      </trkpt>
      <trkpt lat="44.08898" lon="6.1585">
        <ele>674.6</ele>
        <time>2020-10-18T08:42:44Z</time>
      </trkpt>
      <trkpt lat="44.08901" lon="6.15849">
        <ele>674.6</ele>
        <time>2020-10-18T08:42:45Z</time>
      </trkpt>
      <trkpt lat="44.08903" lon="6.15847">
        <ele>674.6</ele>
        <time>2020-10-18T08:42:46Z</time>
      </trkpt>
      <trkpt lat="44.08905" lon="6.15846">
        <ele>674.8</ele>
        <time>2020-10-18T08:42:47Z</time>
      </trkpt>
      <trkpt lat="44.08908" lon="6.15845">
        <ele>674.8</ele>
        <time>2020-10-18T08:42:48Z</time>
      </trkpt>
      <trkpt lat="44.0891" lon="6.15843">
        <ele>674.8</ele>
        <time>2020-10-18T08:42:49Z</time>
      </trkpt>
      <trkpt lat="44.08913" lon="6.15842">
        <ele>675</ele>
        <time>2020-10-18T08:42:50Z</time>
      </trkpt>
      <trkpt lat="44.08916" lon="6.1584">
        <ele>675.2</ele>
        <time>2020-10-18T08:42:51Z</time>
      </trkpt>
      <trkpt lat="44.08918" lon="6.15839">
        <ele>675.2</ele>
        <time>2020-10-18T08:42:52Z</time>
      </trkpt>
      <trkpt lat="44.08921" lon="6.15837">
        <ele>675.4</ele>
        <time>2020-10-18T08:42:53Z</time>
      </trkpt>
      <trkpt lat="44.08923" lon="6.15836">
        <ele>675.4</ele>
        <time>2020-10-18T08:42:54Z</time>
      </trkpt>
      <trkpt lat="44.08927" lon="6.15832">
        <ele>675.4</ele>
        <time>2020-10-18T08:42:56Z</time>
      </trkpt>
      <trkpt lat="44.08929" lon="6.15829">
        <ele>675.4</ele>
        <time>2020-10-18T08:42:57Z</time>
      </trkpt>
      <trkpt lat="44.08931" lon="6.15826">
        <ele>675.6</ele>
        <time>2020-10-18T08:42:58Z</time>
      </trkpt>
      <trkpt lat="44.08934" lon="6.15819">
        <ele>675.8</ele>
        <time>2020-10-18T08:43:00Z</time>
      </trkpt>
      <trkpt lat="44.08936" lon="6.15811">
        <ele>676</ele>
        <time>2020-10-18T08:43:02Z</time>
      </trkpt>
      <trkpt lat="44.08936" lon="6.15807">
        <ele>676.2</ele>
        <time>2020-10-18T08:43:03Z</time>
      </trkpt>
      <trkpt lat="44.08937" lon="6.15804">
        <ele>676.4</ele>
        <time>2020-10-18T08:43:04Z</time>
      </trkpt>
      <trkpt lat="44.08938" lon="6.15801">
        <ele>676.4</ele>
        <time>2020-10-18T08:43:05Z</time>
      </trkpt>
      <trkpt lat="44.08939" lon="6.15798">
        <ele>676.4</ele>
        <time>2020-10-18T08:43:06Z</time>
      </trkpt>
      <trkpt lat="44.08939" lon="6.15794">
        <ele>676.6</ele>
        <time>2020-10-18T08:43:07Z</time>
      </trkpt>
      <trkpt lat="44.08939" lon="6.1579">
        <ele>676.8</ele>
        <time>2020-10-18T08:43:08Z</time>
      </trkpt>
      <trkpt lat="44.08939" lon="6.15786">
        <ele>677</ele>
        <time>2020-10-18T08:43:09Z</time>
      </trkpt>
      <trkpt lat="44.08939" lon="6.15783">
        <ele>677</ele>
        <time>2020-10-18T08:43:10Z</time>
      </trkpt>
      <trkpt lat="44.0894" lon="6.1578">
        <ele>677.2</ele>
        <time>2020-10-18T08:43:11Z</time>
      </trkpt>
      <trkpt lat="44.0894" lon="6.15776">
        <ele>677.4</ele>
        <time>2020-10-18T08:43:12Z</time>
      </trkpt>
      <trkpt lat="44.0894" lon="6.15773">
        <ele>677.4</ele>
        <time>2020-10-18T08:43:13Z</time>
      </trkpt>
      <trkpt lat="44.0894" lon="6.1577">
        <ele>677.6</ele>
        <time>2020-10-18T08:43:14Z</time>
      </trkpt>
      <trkpt lat="44.0894" lon="6.15767">
        <ele>677.8</ele>
        <time>2020-10-18T08:43:15Z</time>
      </trkpt>
      <trkpt lat="44.0894" lon="6.15764">
        <ele>678.2</ele>
        <time>2020-10-18T08:43:16Z</time>
      </trkpt>
      <trkpt lat="44.0894" lon="6.15762">
        <ele>678.4</ele>
        <time>2020-10-18T08:43:17Z</time>
      </trkpt>
      <trkpt lat="44.0894" lon="6.15759">
        <ele>678.6</ele>
        <time>2020-10-18T08:43:18Z</time>
      </trkpt>
      <trkpt lat="44.08941" lon="6.15757">
        <ele>678.6</ele>
        <time>2020-10-18T08:43:19Z</time>
      </trkpt>
      <trkpt lat="44.08941" lon="6.15754">
        <ele>678.8</ele>
        <time>2020-10-18T08:43:20Z</time>
      </trkpt>
      <trkpt lat="44.08942" lon="6.15751">
        <ele>678.8</ele>
        <time>2020-10-18T08:43:21Z</time>
      </trkpt>
      <trkpt lat="44.08942" lon="6.15748">
        <ele>679.2</ele>
        <time>2020-10-18T08:43:22Z</time>
      </trkpt>
      <trkpt lat="44.08943" lon="6.15746">
        <ele>679.4</ele>
        <time>2020-10-18T08:43:23Z</time>
      </trkpt>
      <trkpt lat="44.08946" lon="6.15743">
        <ele>679.6</ele>
        <time>2020-10-18T08:43:24Z</time>
      </trkpt>
      <trkpt lat="44.08948" lon="6.15739">
        <ele>679.8</ele>
        <time>2020-10-18T08:43:25Z</time>
      </trkpt>
      <trkpt lat="44.08948" lon="6.15736">
        <ele>680.2</ele>
        <time>2020-10-18T08:43:26Z</time>
      </trkpt>
      <trkpt lat="44.08949" lon="6.15733">
        <ele>680.4</ele>
        <time>2020-10-18T08:43:27Z</time>
      </trkpt>
      <trkpt lat="44.08951" lon="6.1573">
        <ele>680.6</ele>
        <time>2020-10-18T08:43:28Z</time>
      </trkpt>
      <trkpt lat="44.08952" lon="6.15727">
        <ele>680.8</ele>
        <time>2020-10-18T08:43:29Z</time>
      </trkpt>
      <trkpt lat="44.08954" lon="6.15724">
        <ele>681</ele>
        <time>2020-10-18T08:43:30Z</time>
      </trkpt>
      <trkpt lat="44.08954" lon="6.15722">
        <ele>681</ele>
        <time>2020-10-18T08:43:31Z</time>
      </trkpt>
      <trkpt lat="44.08955" lon="6.15719">
        <ele>681</ele>
        <time>2020-10-18T08:43:32Z</time>
      </trkpt>
      <trkpt lat="44.08955" lon="6.15716">
        <ele>681.2</ele>
        <time>2020-10-18T08:43:33Z</time>
      </trkpt>
      <trkpt lat="44.08956" lon="6.15713">
        <ele>681.4</ele>
        <time>2020-10-18T08:43:34Z</time>
      </trkpt>
      <trkpt lat="44.08957" lon="6.15711">
        <ele>681.6</ele>
        <time>2020-10-18T08:43:35Z</time>
      </trkpt>
      <trkpt lat="44.08958" lon="6.15709">
        <ele>681.8</ele>
        <time>2020-10-18T08:43:36Z</time>
      </trkpt>
      <trkpt lat="44.08959" lon="6.15706">
        <ele>682</ele>
        <time>2020-10-18T08:43:37Z</time>
      </trkpt>
      <trkpt lat="44.08959" lon="6.15703">
        <ele>682.2</ele>
        <time>2020-10-18T08:43:38Z</time>
      </trkpt>
      <trkpt lat="44.0896" lon="6.157">
        <ele>682.4</ele>
        <time>2020-10-18T08:43:39Z</time>
      </trkpt>
      <trkpt lat="44.0896" lon="6.15698">
        <ele>682.6</ele>
        <time>2020-10-18T08:43:40Z</time>
      </trkpt>
      <trkpt lat="44.08961" lon="6.15695">
        <ele>682.8</ele>
        <time>2020-10-18T08:43:41Z</time>
      </trkpt>
      <trkpt lat="44.08961" lon="6.15692">
        <ele>683</ele>
        <time>2020-10-18T08:43:42Z</time>
      </trkpt>
      <trkpt lat="44.08961" lon="6.15689">
        <ele>683.4</ele>
        <time>2020-10-18T08:43:43Z</time>
      </trkpt>
      <trkpt lat="44.08961" lon="6.15686">
        <ele>683.6</ele>
        <time>2020-10-18T08:43:44Z</time>
      </trkpt>
      <trkpt lat="44.0896" lon="6.15684">
        <ele>683.8</ele>
        <time>2020-10-18T08:43:45Z</time>
      </trkpt>
      <trkpt lat="44.0896" lon="6.15681">
        <ele>683.8</ele>
        <time>2020-10-18T08:43:46Z</time>
      </trkpt>
      <trkpt lat="44.0896" lon="6.15678">
        <ele>684</ele>
        <time>2020-10-18T08:43:47Z</time>
      </trkpt>
      <trkpt lat="44.0896" lon="6.15675">
        <ele>684.2</ele>
        <time>2020-10-18T08:43:48Z</time>
      </trkpt>
      <trkpt lat="44.08961" lon="6.15672">
        <ele>684.4</ele>
        <time>2020-10-18T08:43:49Z</time>
      </trkpt>
      <trkpt lat="44.08961" lon="6.1567">
        <ele>684.6</ele>
        <time>2020-10-18T08:43:50Z</time>
      </trkpt>
      <trkpt lat="44.08962" lon="6.15666">
        <ele>685</ele>
        <time>2020-10-18T08:43:51Z</time>
      </trkpt>
      <trkpt lat="44.08963" lon="6.15663">
        <ele>685</ele>
        <time>2020-10-18T08:43:52Z</time>
      </trkpt>
      <trkpt lat="44.08964" lon="6.1566">
        <ele>685</ele>
        <time>2020-10-18T08:43:53Z</time>
      </trkpt>
      <trkpt lat="44.08964" lon="6.15658">
        <ele>685.4</ele>
        <time>2020-10-18T08:43:54Z</time>
      </trkpt>
      <trkpt lat="44.08964" lon="6.15655">
        <ele>685.6</ele>
        <time>2020-10-18T08:43:55Z</time>
      </trkpt>
      <trkpt lat="44.08964" lon="6.15652">
        <ele>685.8</ele>
        <time>2020-10-18T08:43:56Z</time>
      </trkpt>
      <trkpt lat="44.08964" lon="6.15649">
        <ele>686</ele>
        <time>2020-10-18T08:43:57Z</time>
      </trkpt>
      <trkpt lat="44.08965" lon="6.15647">
        <ele>686.4</ele>
        <time>2020-10-18T08:43:58Z</time>
      </trkpt>
      <trkpt lat="44.08966" lon="6.15644">
        <ele>686.6</ele>
        <time>2020-10-18T08:43:59Z</time>
      </trkpt>
      <trkpt lat="44.08967" lon="6.15641">
        <ele>686.8</ele>
        <time>2020-10-18T08:44:00Z</time>
      </trkpt>
      <trkpt lat="44.08967" lon="6.15638">
        <ele>687</ele>
        <time>2020-10-18T08:44:01Z</time>
      </trkpt>
      <trkpt lat="44.08966" lon="6.15634">
        <ele>687.2</ele>
        <time>2020-10-18T08:44:02Z</time>
      </trkpt>
      <trkpt lat="44.08966" lon="6.15631">
        <ele>687.6</ele>
        <time>2020-10-18T08:44:03Z</time>
      </trkpt>
      <trkpt lat="44.08966" lon="6.15628">
        <ele>687.8</ele>
        <time>2020-10-18T08:44:04Z</time>
      </trkpt>
      <trkpt lat="44.08966" lon="6.15624">
        <ele>687.8</ele>
        <time>2020-10-18T08:44:05Z</time>
      </trkpt>
      <trkpt lat="44.08965" lon="6.15622">
        <ele>688.2</ele>
        <time>2020-10-18T08:44:06Z</time>
      </trkpt>
      <trkpt lat="44.08965" lon="6.15619">
        <ele>688.2</ele>
        <time>2020-10-18T08:44:07Z</time>
      </trkpt>
      <trkpt lat="44.08965" lon="6.15617">
        <ele>688.6</ele>
        <time>2020-10-18T08:44:08Z</time>
      </trkpt>
      <trkpt lat="44.08965" lon="6.15614">
        <ele>688.8</ele>
        <time>2020-10-18T08:44:09Z</time>
      </trkpt>
      <trkpt lat="44.08965" lon="6.15612">
        <ele>689</ele>
        <time>2020-10-18T08:44:10Z</time>
      </trkpt>
      <trkpt lat="44.08964" lon="6.15609">
        <ele>689.2</ele>
        <time>2020-10-18T08:44:11Z</time>
      </trkpt>
      <trkpt lat="44.08964" lon="6.15607">
        <ele>689.2</ele>
        <time>2020-10-18T08:44:12Z</time>
      </trkpt>
      <trkpt lat="44.08964" lon="6.15604">
        <ele>689.4</ele>
        <time>2020-10-18T08:44:13Z</time>
      </trkpt>
      <trkpt lat="44.08965" lon="6.15601">
        <ele>689.6</ele>
        <time>2020-10-18T08:44:14Z</time>
      </trkpt>
      <trkpt lat="44.08965" lon="6.15598">
        <ele>689.6</ele>
        <time>2020-10-18T08:44:15Z</time>
      </trkpt>
      <trkpt lat="44.08966" lon="6.15595">
        <ele>689.8</ele>
        <time>2020-10-18T08:44:16Z</time>
      </trkpt>
      <trkpt lat="44.08967" lon="6.15592">
        <ele>690</ele>
        <time>2020-10-18T08:44:17Z</time>
      </trkpt>
      <trkpt lat="44.08967" lon="6.15589">
        <ele>690.4</ele>
        <time>2020-10-18T08:44:18Z</time>
      </trkpt>
      <trkpt lat="44.08967" lon="6.15586">
        <ele>690.4</ele>
        <time>2020-10-18T08:44:19Z</time>
      </trkpt>
      <trkpt lat="44.08967" lon="6.15583">
        <ele>690.6</ele>
        <time>2020-10-18T08:44:20Z</time>
      </trkpt>
      <trkpt lat="44.08967" lon="6.1558">
        <ele>691</ele>
        <time>2020-10-18T08:44:21Z</time>
      </trkpt>
      <trkpt lat="44.08967" lon="6.15578">
        <ele>691</ele>
        <time>2020-10-18T08:44:22Z</time>
      </trkpt>
      <trkpt lat="44.08966" lon="6.15576">
        <ele>691.2</ele>
        <time>2020-10-18T08:44:23Z</time>
      </trkpt>
      <trkpt lat="44.08966" lon="6.15573">
        <ele>691.4</ele>
        <time>2020-10-18T08:44:24Z</time>
      </trkpt>
      <trkpt lat="44.08966" lon="6.15571">
        <ele>691.6</ele>
        <time>2020-10-18T08:44:25Z</time>
      </trkpt>
      <trkpt lat="44.08967" lon="6.15569">
        <ele>692</ele>
        <time>2020-10-18T08:44:26Z</time>
      </trkpt>
      <trkpt lat="44.08967" lon="6.15566">
        <ele>692</ele>
        <time>2020-10-18T08:44:27Z</time>
      </trkpt>
      <trkpt lat="44.08967" lon="6.15564">
        <ele>692.4</ele>
        <time>2020-10-18T08:44:28Z</time>
      </trkpt>
      <trkpt lat="44.08967" lon="6.15561">
        <ele>692.6</ele>
        <time>2020-10-18T08:44:29Z</time>
      </trkpt>
      <trkpt lat="44.08967" lon="6.15558">
        <ele>692.6</ele>
        <time>2020-10-18T08:44:30Z</time>
      </trkpt>
      <trkpt lat="44.08967" lon="6.15555">
        <ele>693</ele>
        <time>2020-10-18T08:44:31Z</time>
      </trkpt>
      <trkpt lat="44.08967" lon="6.15553">
        <ele>693.2</ele>
        <time>2020-10-18T08:44:32Z</time>
      </trkpt>
      <trkpt lat="44.08967" lon="6.1555">
        <ele>693.4</ele>
        <time>2020-10-18T08:44:33Z</time>
      </trkpt>
      <trkpt lat="44.08967" lon="6.15547">
        <ele>693.4</ele>
        <time>2020-10-18T08:44:34Z</time>
      </trkpt>
      <trkpt lat="44.08966" lon="6.15544">
        <ele>693.6</ele>
        <time>2020-10-18T08:44:35Z</time>
      </trkpt>
      <trkpt lat="44.08966" lon="6.15541">
        <ele>693.6</ele>
        <time>2020-10-18T08:44:36Z</time>
      </trkpt>
      <trkpt lat="44.08966" lon="6.15537">
        <ele>693.8</ele>
        <time>2020-10-18T08:44:37Z</time>
      </trkpt>
      <trkpt lat="44.08966" lon="6.15534">
        <ele>693.8</ele>
        <time>2020-10-18T08:44:38Z</time>
      </trkpt>
      <trkpt lat="44.08965" lon="6.15531">
        <ele>694.2</ele>
        <time>2020-10-18T08:44:39Z</time>
      </trkpt>
      <trkpt lat="44.08966" lon="6.15527">
        <ele>694.4</ele>
        <time>2020-10-18T08:44:40Z</time>
      </trkpt>
      <trkpt lat="44.08965" lon="6.15524">
        <ele>694.4</ele>
        <time>2020-10-18T08:44:41Z</time>
      </trkpt>
      <trkpt lat="44.08965" lon="6.15522">
        <ele>694.6</ele>
        <time>2020-10-18T08:44:42Z</time>
      </trkpt>
      <trkpt lat="44.08965" lon="6.15519">
        <ele>694.6</ele>
        <time>2020-10-18T08:44:43Z</time>
      </trkpt>
      <trkpt lat="44.08964" lon="6.15516">
        <ele>695</ele>
        <time>2020-10-18T08:44:44Z</time>
      </trkpt>
      <trkpt lat="44.08964" lon="6.15513">
        <ele>695.2</ele>
        <time>2020-10-18T08:44:45Z</time>
      </trkpt>
      <trkpt lat="44.08963" lon="6.1551">
        <ele>695.6</ele>
        <time>2020-10-18T08:44:46Z</time>
      </trkpt>
      <trkpt lat="44.08963" lon="6.15507">
        <ele>695.8</ele>
        <time>2020-10-18T08:44:47Z</time>
      </trkpt>
      <trkpt lat="44.08963" lon="6.15504">
        <ele>695.8</ele>
        <time>2020-10-18T08:44:48Z</time>
      </trkpt>
      <trkpt lat="44.08962" lon="6.15501">
        <ele>695.8</ele>
        <time>2020-10-18T08:44:49Z</time>
      </trkpt>
      <trkpt lat="44.08962" lon="6.15498">
        <ele>696.2</ele>
        <time>2020-10-18T08:44:50Z</time>
      </trkpt>
      <trkpt lat="44.08961" lon="6.15495">
        <ele>696.4</ele>
        <time>2020-10-18T08:44:51Z</time>
      </trkpt>
      <trkpt lat="44.08961" lon="6.15492">
        <ele>696.6</ele>
        <time>2020-10-18T08:44:52Z</time>
      </trkpt>
      <trkpt lat="44.0896" lon="6.15489">
        <ele>697</ele>
        <time>2020-10-18T08:44:53Z</time>
      </trkpt>
      <trkpt lat="44.0896" lon="6.15486">
        <ele>697</ele>
        <time>2020-10-18T08:44:54Z</time>
      </trkpt>
      <trkpt lat="44.08959" lon="6.15483">
        <ele>697.2</ele>
        <time>2020-10-18T08:44:55Z</time>
      </trkpt>
      <trkpt lat="44.08959" lon="6.1548">
        <ele>697.2</ele>
        <time>2020-10-18T08:44:56Z</time>
      </trkpt>
      <trkpt lat="44.08958" lon="6.15477">
        <ele>697.6</ele>
        <time>2020-10-18T08:44:57Z</time>
      </trkpt>
      <trkpt lat="44.08958" lon="6.15474">
        <ele>697.8</ele>
        <time>2020-10-18T08:44:58Z</time>
      </trkpt>
      <trkpt lat="44.08958" lon="6.15472">
        <ele>698</ele>
        <time>2020-10-18T08:44:59Z</time>
      </trkpt>
      <trkpt lat="44.08957" lon="6.15469">
        <ele>698.4</ele>
        <time>2020-10-18T08:45:00Z</time>
      </trkpt>
      <trkpt lat="44.08957" lon="6.15466">
        <ele>698.8</ele>
        <time>2020-10-18T08:45:01Z</time>
      </trkpt>
      <trkpt lat="44.08956" lon="6.15463">
        <ele>699.2</ele>
        <time>2020-10-18T08:45:02Z</time>
      </trkpt>
      <trkpt lat="44.08956" lon="6.15461">
        <ele>699.2</ele>
        <time>2020-10-18T08:45:03Z</time>
      </trkpt>
      <trkpt lat="44.08956" lon="6.15458">
        <ele>699.4</ele>
        <time>2020-10-18T08:45:04Z</time>
      </trkpt>
      <trkpt lat="44.08955" lon="6.15455">
        <ele>699.8</ele>
        <time>2020-10-18T08:45:05Z</time>
      </trkpt>
      <trkpt lat="44.08955" lon="6.15453">
        <ele>700</ele>
        <time>2020-10-18T08:45:06Z</time>
      </trkpt>
      <trkpt lat="44.08955" lon="6.1545">
        <ele>700.2</ele>
        <time>2020-10-18T08:45:07Z</time>
      </trkpt>
      <trkpt lat="44.08954" lon="6.15448">
        <ele>700.6</ele>
        <time>2020-10-18T08:45:08Z</time>
      </trkpt>
      <trkpt lat="44.08954" lon="6.15445">
        <ele>700.8</ele>
        <time>2020-10-18T08:45:09Z</time>
      </trkpt>
      <trkpt lat="44.08953" lon="6.15443">
        <ele>701</ele>
        <time>2020-10-18T08:45:10Z</time>
      </trkpt>
      <trkpt lat="44.08952" lon="6.1544">
        <ele>701</ele>
        <time>2020-10-18T08:45:11Z</time>
      </trkpt>
      <trkpt lat="44.08952" lon="6.15438">
        <ele>701.4</ele>
        <time>2020-10-18T08:45:12Z</time>
      </trkpt>
      <trkpt lat="44.08952" lon="6.15435">
        <ele>701.6</ele>
        <time>2020-10-18T08:45:13Z</time>
      </trkpt>
      <trkpt lat="44.08951" lon="6.15432">
        <ele>701.6</ele>
        <time>2020-10-18T08:45:14Z</time>
      </trkpt>
      <trkpt lat="44.0895" lon="6.1543">
        <ele>702</ele>
        <time>2020-10-18T08:45:15Z</time>
      </trkpt>
      <trkpt lat="44.08949" lon="6.15427">
        <ele>702.2</ele>
        <time>2020-10-18T08:45:16Z</time>
      </trkpt>
      <trkpt lat="44.0895" lon="6.15424">
        <ele>702.4</ele>
        <time>2020-10-18T08:45:17Z</time>
      </trkpt>
      <trkpt lat="44.08949" lon="6.15422">
        <ele>702.4</ele>
        <time>2020-10-18T08:45:18Z</time>
      </trkpt>
      <trkpt lat="44.08949" lon="6.15419">
        <ele>702.6</ele>
        <time>2020-10-18T08:45:19Z</time>
      </trkpt>
      <trkpt lat="44.08949" lon="6.15416">
        <ele>703</ele>
        <time>2020-10-18T08:45:20Z</time>
      </trkpt>
      <trkpt lat="44.08949" lon="6.15414">
        <ele>703.2</ele>
        <time>2020-10-18T08:45:21Z</time>
      </trkpt>
      <trkpt lat="44.0895" lon="6.1541">
        <ele>703.4</ele>
        <time>2020-10-18T08:45:22Z</time>
      </trkpt>
      <trkpt lat="44.0895" lon="6.15408">
        <ele>703.6</ele>
        <time>2020-10-18T08:45:23Z</time>
      </trkpt>
      <trkpt lat="44.08949" lon="6.15405">
        <ele>704</ele>
        <time>2020-10-18T08:45:24Z</time>
      </trkpt>
      <trkpt lat="44.08949" lon="6.15402">
        <ele>704</ele>
        <time>2020-10-18T08:45:25Z</time>
      </trkpt>
      <trkpt lat="44.08949" lon="6.154">
        <ele>704.4</ele>
        <time>2020-10-18T08:45:26Z</time>
      </trkpt>
      <trkpt lat="44.08949" lon="6.15397">
        <ele>704.6</ele>
        <time>2020-10-18T08:45:27Z</time>
      </trkpt>
      <trkpt lat="44.08948" lon="6.15395">
        <ele>704.8</ele>
        <time>2020-10-18T08:45:28Z</time>
      </trkpt>
      <trkpt lat="44.08948" lon="6.15392">
        <ele>705</ele>
        <time>2020-10-18T08:45:29Z</time>
      </trkpt>
      <trkpt lat="44.08947" lon="6.1539">
        <ele>705.2</ele>
        <time>2020-10-18T08:45:30Z</time>
      </trkpt>
      <trkpt lat="44.08947" lon="6.15387">
        <ele>705.4</ele>
        <time>2020-10-18T08:45:31Z</time>
      </trkpt>
      <trkpt lat="44.08947" lon="6.15385">
        <ele>705.6</ele>
        <time>2020-10-18T08:45:32Z</time>
      </trkpt>
      <trkpt lat="44.08946" lon="6.15383">
        <ele>705.6</ele>
        <time>2020-10-18T08:45:33Z</time>
      </trkpt>
      <trkpt lat="44.08946" lon="6.1538">
        <ele>705.8</ele>
        <time>2020-10-18T08:45:34Z</time>
      </trkpt>
      <trkpt lat="44.08945" lon="6.15378">
        <ele>706</ele>
        <time>2020-10-18T08:45:35Z</time>
      </trkpt>
      <trkpt lat="44.08945" lon="6.15376">
        <ele>706.4</ele>
        <time>2020-10-18T08:45:36Z</time>
      </trkpt>
      <trkpt lat="44.08946" lon="6.15374">
        <ele>706.4</ele>
        <time>2020-10-18T08:45:37Z</time>
      </trkpt>
      <trkpt lat="44.08946" lon="6.15372">
        <ele>706.6</ele>
        <time>2020-10-18T08:45:38Z</time>
      </trkpt>
      <trkpt lat="44.08947" lon="6.1537">
        <ele>706.6</ele>
        <time>2020-10-18T08:45:39Z</time>
      </trkpt>
      <trkpt lat="44.08947" lon="6.15369">
        <ele>706.8</ele>
        <time>2020-10-18T08:45:40Z</time>
      </trkpt>
      <trkpt lat="44.08948" lon="6.15367">
        <ele>707</ele>
        <time>2020-10-18T08:45:41Z</time>
      </trkpt>
      <trkpt lat="44.08949" lon="6.15366">
        <ele>707.4</ele>
        <time>2020-10-18T08:45:42Z</time>
      </trkpt>
      <trkpt lat="44.08951" lon="6.15365">
        <ele>707.8</ele>
        <time>2020-10-18T08:45:43Z</time>
      </trkpt>
      <trkpt lat="44.08954" lon="6.15365">
        <ele>708.2</ele>
        <time>2020-10-18T08:45:44Z</time>
      </trkpt>
      <trkpt lat="44.08956" lon="6.15365">
        <ele>708.4</ele>
        <time>2020-10-18T08:45:45Z</time>
      </trkpt>
      <trkpt lat="44.08958" lon="6.15366">
        <ele>709</ele>
        <time>2020-10-18T08:45:46Z</time>
      </trkpt>
      <trkpt lat="44.0896" lon="6.15367">
        <ele>709.2</ele>
        <time>2020-10-18T08:45:47Z</time>
      </trkpt>
      <trkpt lat="44.08961" lon="6.15369">
        <ele>709.4</ele>
        <time>2020-10-18T08:45:48Z</time>
      </trkpt>
      <trkpt lat="44.08963" lon="6.1537">
        <ele>709.8</ele>
        <time>2020-10-18T08:45:49Z</time>
      </trkpt>
      <trkpt lat="44.08964" lon="6.15372">
        <ele>710</ele>
        <time>2020-10-18T08:45:50Z</time>
      </trkpt>
      <trkpt lat="44.08965" lon="6.15373">
        <ele>710.6</ele>
        <time>2020-10-18T08:45:51Z</time>
      </trkpt>
      <trkpt lat="44.08966" lon="6.15375">
        <ele>710.8</ele>
        <time>2020-10-18T08:45:52Z</time>
      </trkpt>
      <trkpt lat="44.08967" lon="6.15377">
        <ele>711</ele>
        <time>2020-10-18T08:45:53Z</time>
      </trkpt>
      <trkpt lat="44.08968" lon="6.15379">
        <ele>711.4</ele>
        <time>2020-10-18T08:45:54Z</time>
      </trkpt>
      <trkpt lat="44.08969" lon="6.15381">
        <ele>711.8</ele>
        <time>2020-10-18T08:45:55Z</time>
      </trkpt>
      <trkpt lat="44.08971" lon="6.15383">
        <ele>712</ele>
        <time>2020-10-18T08:45:56Z</time>
      </trkpt>
      <trkpt lat="44.08973" lon="6.15385">
        <ele>712.6</ele>
        <time>2020-10-18T08:45:57Z</time>
      </trkpt>
      <trkpt lat="44.08974" lon="6.15386">
        <ele>712.8</ele>
        <time>2020-10-18T08:45:58Z</time>
      </trkpt>
      <trkpt lat="44.08975" lon="6.15388">
        <ele>712.8</ele>
        <time>2020-10-18T08:45:59Z</time>
      </trkpt>
      <trkpt lat="44.08976" lon="6.1539">
        <ele>713.2</ele>
        <time>2020-10-18T08:46:00Z</time>
      </trkpt>
      <trkpt lat="44.08977" lon="6.15392">
        <ele>713.4</ele>
        <time>2020-10-18T08:46:01Z</time>
      </trkpt>
      <trkpt lat="44.08978" lon="6.15394">
        <ele>713.6</ele>
        <time>2020-10-18T08:46:02Z</time>
      </trkpt>
      <trkpt lat="44.08979" lon="6.15395">
        <ele>714</ele>
        <time>2020-10-18T08:46:03Z</time>
      </trkpt>
      <trkpt lat="44.0898" lon="6.15397">
        <ele>714.4</ele>
        <time>2020-10-18T08:46:04Z</time>
      </trkpt>
      <trkpt lat="44.08982" lon="6.15398">
        <ele>714.4</ele>
        <time>2020-10-18T08:46:05Z</time>
      </trkpt>
      <trkpt lat="44.08983" lon="6.154">
        <ele>714.4</ele>
        <time>2020-10-18T08:46:06Z</time>
      </trkpt>
      <trkpt lat="44.08985" lon="6.15402">
        <ele>714.8</ele>
        <time>2020-10-18T08:46:07Z</time>
      </trkpt>
      <trkpt lat="44.08986" lon="6.15403">
        <ele>715</ele>
        <time>2020-10-18T08:46:08Z</time>
      </trkpt>
      <trkpt lat="44.08988" lon="6.15405">
        <ele>715.2</ele>
        <time>2020-10-18T08:46:09Z</time>
      </trkpt>
      <trkpt lat="44.08989" lon="6.15406">
        <ele>715.4</ele>
        <time>2020-10-18T08:46:10Z</time>
      </trkpt>
      <trkpt lat="44.08991" lon="6.15408">
        <ele>715.6</ele>
        <time>2020-10-18T08:46:11Z</time>
      </trkpt>
      <trkpt lat="44.08992" lon="6.15409">
        <ele>715.6</ele>
        <time>2020-10-18T08:46:12Z</time>
      </trkpt>
      <trkpt lat="44.08994" lon="6.15411">
        <ele>716</ele>
        <time>2020-10-18T08:46:13Z</time>
      </trkpt>
      <trkpt lat="44.08995" lon="6.15413">
        <ele>716</ele>
        <time>2020-10-18T08:46:14Z</time>
      </trkpt>
      <trkpt lat="44.08997" lon="6.15415">
        <ele>716.4</ele>
        <time>2020-10-18T08:46:15Z</time>
      </trkpt>
      <trkpt lat="44.08998" lon="6.15416">
        <ele>716.6</ele>
        <time>2020-10-18T08:46:16Z</time>
      </trkpt>
      <trkpt lat="44.08999" lon="6.15418">
        <ele>716.8</ele>
        <time>2020-10-18T08:46:17Z</time>
      </trkpt>
      <trkpt lat="44.09001" lon="6.15419">
        <ele>717</ele>
        <time>2020-10-18T08:46:18Z</time>
      </trkpt>
      <trkpt lat="44.09002" lon="6.1542">
        <ele>717</ele>
        <time>2020-10-18T08:46:19Z</time>
      </trkpt>
      <trkpt lat="44.09004" lon="6.15421">
        <ele>717</ele>
        <time>2020-10-18T08:46:20Z</time>
      </trkpt>
      <trkpt lat="44.09006" lon="6.15422">
        <ele>717.2</ele>
        <time>2020-10-18T08:46:21Z</time>
      </trkpt>
      <trkpt lat="44.09007" lon="6.15423">
        <ele>717.4</ele>
        <time>2020-10-18T08:46:22Z</time>
      </trkpt>
      <trkpt lat="44.09009" lon="6.15423">
        <ele>717.8</ele>
        <time>2020-10-18T08:46:23Z</time>
      </trkpt>
      <trkpt lat="44.09011" lon="6.15424">
        <ele>718</ele>
        <time>2020-10-18T08:46:24Z</time>
      </trkpt>
      <trkpt lat="44.09012" lon="6.15425">
        <ele>718</ele>
        <time>2020-10-18T08:46:25Z</time>
      </trkpt>
      <trkpt lat="44.09014" lon="6.15425">
        <ele>718.4</ele>
        <time>2020-10-18T08:46:26Z</time>
      </trkpt>
      <trkpt lat="44.09016" lon="6.15425">
        <ele>718.8</ele>
        <time>2020-10-18T08:46:27Z</time>
      </trkpt>
      <trkpt lat="44.09017" lon="6.15424">
        <ele>718.8</ele>
        <time>2020-10-18T08:46:28Z</time>
      </trkpt>
      <trkpt lat="44.09019" lon="6.15424">
        <ele>719</ele>
        <time>2020-10-18T08:46:29Z</time>
      </trkpt>
      <trkpt lat="44.09021" lon="6.15423">
        <ele>719.2</ele>
        <time>2020-10-18T08:46:30Z</time>
      </trkpt>
      <trkpt lat="44.09022" lon="6.15423">
        <ele>719.4</ele>
        <time>2020-10-18T08:46:31Z</time>
      </trkpt>
      <trkpt lat="44.09024" lon="6.15423">
        <ele>719.6</ele>
        <time>2020-10-18T08:46:32Z</time>
      </trkpt>
      <trkpt lat="44.09026" lon="6.15422">
        <ele>720</ele>
        <time>2020-10-18T08:46:33Z</time>
      </trkpt>
      <trkpt lat="44.09028" lon="6.15422">
        <ele>720.2</ele>
        <time>2020-10-18T08:46:34Z</time>
      </trkpt>
      <trkpt lat="44.09029" lon="6.15421">
        <ele>720.4</ele>
        <time>2020-10-18T08:46:35Z</time>
      </trkpt>
      <trkpt lat="44.09031" lon="6.1542">
        <ele>720.8</ele>
        <time>2020-10-18T08:46:36Z</time>
      </trkpt>
      <trkpt lat="44.09032" lon="6.15419">
        <ele>721</ele>
        <time>2020-10-18T08:46:37Z</time>
      </trkpt>
      <trkpt lat="44.09032" lon="6.15417">
        <ele>721.2</ele>
        <time>2020-10-18T08:46:38Z</time>
      </trkpt>
      <trkpt lat="44.09034" lon="6.15416">
        <ele>721.4</ele>
        <time>2020-10-18T08:46:39Z</time>
      </trkpt>
      <trkpt lat="44.09035" lon="6.15414">
        <ele>721.4</ele>
        <time>2020-10-18T08:46:40Z</time>
      </trkpt>
      <trkpt lat="44.09036" lon="6.15413">
        <ele>721.8</ele>
        <time>2020-10-18T08:46:41Z</time>
      </trkpt>
      <trkpt lat="44.09037" lon="6.15412">
        <ele>722.2</ele>
        <time>2020-10-18T08:46:42Z</time>
      </trkpt>
      <trkpt lat="44.09039" lon="6.1541">
        <ele>722.2</ele>
        <time>2020-10-18T08:46:43Z</time>
      </trkpt>
      <trkpt lat="44.0904" lon="6.15408">
        <ele>722.6</ele>
        <time>2020-10-18T08:46:44Z</time>
      </trkpt>
      <trkpt lat="44.09042" lon="6.15405">
        <ele>722.8</ele>
        <time>2020-10-18T08:46:45Z</time>
      </trkpt>
      <trkpt lat="44.09043" lon="6.15404">
        <ele>723</ele>
        <time>2020-10-18T08:46:46Z</time>
      </trkpt>
      <trkpt lat="44.09044" lon="6.15402">
        <ele>723.2</ele>
        <time>2020-10-18T08:46:47Z</time>
      </trkpt>
      <trkpt lat="44.09045" lon="6.15401">
        <ele>723.6</ele>
        <time>2020-10-18T08:46:48Z</time>
      </trkpt>
      <trkpt lat="44.09047" lon="6.15399">
        <ele>723.8</ele>
        <time>2020-10-18T08:46:49Z</time>
      </trkpt>
      <trkpt lat="44.09049" lon="6.15398">
        <ele>724</ele>
        <time>2020-10-18T08:46:50Z</time>
      </trkpt>
      <trkpt lat="44.09051" lon="6.15398">
        <ele>724.4</ele>
        <time>2020-10-18T08:46:51Z</time>
      </trkpt>
      <trkpt lat="44.09052" lon="6.15398">
        <ele>724.6</ele>
        <time>2020-10-18T08:46:52Z</time>
      </trkpt>
      <trkpt lat="44.09055" lon="6.15398">
        <ele>724.8</ele>
        <time>2020-10-18T08:46:53Z</time>
      </trkpt>
      <trkpt lat="44.09057" lon="6.15398">
        <ele>725</ele>
        <time>2020-10-18T08:46:54Z</time>
      </trkpt>
      <trkpt lat="44.09059" lon="6.15399">
        <ele>725.2</ele>
        <time>2020-10-18T08:46:55Z</time>
      </trkpt>
      <trkpt lat="44.09061" lon="6.154">
        <ele>725.6</ele>
        <time>2020-10-18T08:46:56Z</time>
      </trkpt>
      <trkpt lat="44.09063" lon="6.15401">
        <ele>725.8</ele>
        <time>2020-10-18T08:46:57Z</time>
      </trkpt>
      <trkpt lat="44.09064" lon="6.15402">
        <ele>725.8</ele>
        <time>2020-10-18T08:46:58Z</time>
      </trkpt>
      <trkpt lat="44.09066" lon="6.15404">
        <ele>726.2</ele>
        <time>2020-10-18T08:46:59Z</time>
      </trkpt>
      <trkpt lat="44.09068" lon="6.15405">
        <ele>726.2</ele>
        <time>2020-10-18T08:47:00Z</time>
      </trkpt>
      <trkpt lat="44.0907" lon="6.15406">
        <ele>726.4</ele>
        <time>2020-10-18T08:47:01Z</time>
      </trkpt>
      <trkpt lat="44.09072" lon="6.15407">
        <ele>726.6</ele>
        <time>2020-10-18T08:47:02Z</time>
      </trkpt>
      <trkpt lat="44.09074" lon="6.15408">
        <ele>727</ele>
        <time>2020-10-18T08:47:03Z</time>
      </trkpt>
      <trkpt lat="44.09076" lon="6.15409">
        <ele>727.4</ele>
        <time>2020-10-18T08:47:04Z</time>
      </trkpt>
      <trkpt lat="44.09077" lon="6.1541">
        <ele>727.8</ele>
        <time>2020-10-18T08:47:05Z</time>
      </trkpt>
      <trkpt lat="44.09079" lon="6.15411">
        <ele>728.2</ele>
        <time>2020-10-18T08:47:06Z</time>
      </trkpt>
      <trkpt lat="44.09081" lon="6.15413">
        <ele>728.6</ele>
        <time>2020-10-18T08:47:07Z</time>
      </trkpt>
      <trkpt lat="44.09083" lon="6.15414">
        <ele>729</ele>
        <time>2020-10-18T08:47:08Z</time>
      </trkpt>
      <trkpt lat="44.09085" lon="6.15415">
        <ele>729.4</ele>
        <time>2020-10-18T08:47:09Z</time>
      </trkpt>
      <trkpt lat="44.09087" lon="6.15417">
        <ele>729.6</ele>
        <time>2020-10-18T08:47:10Z</time>
      </trkpt>
      <trkpt lat="44.09089" lon="6.15418">
        <ele>730</ele>
        <time>2020-10-18T08:47:11Z</time>
      </trkpt>
      <trkpt lat="44.09092" lon="6.15419">
        <ele>730</ele>
        <time>2020-10-18T08:47:12Z</time>
      </trkpt>
      <trkpt lat="44.09094" lon="6.1542">
        <ele>730.4</ele>
        <time>2020-10-18T08:47:13Z</time>
      </trkpt>
      <trkpt lat="44.09095" lon="6.15421">
        <ele>730.8</ele>
        <time>2020-10-18T08:47:14Z</time>
      </trkpt>
      <trkpt lat="44.09097" lon="6.15422">
        <ele>731</ele>
        <time>2020-10-18T08:47:15Z</time>
      </trkpt>
      <trkpt lat="44.09099" lon="6.15423">
        <ele>731</ele>
        <time>2020-10-18T08:47:16Z</time>
      </trkpt>
      <trkpt lat="44.09101" lon="6.15425">
        <ele>731.2</ele>
        <time>2020-10-18T08:47:17Z</time>
      </trkpt>
      <trkpt lat="44.09103" lon="6.15427">
        <ele>731.4</ele>
        <time>2020-10-18T08:47:18Z</time>
      </trkpt>
      <trkpt lat="44.09105" lon="6.15429">
        <ele>731.6</ele>
        <time>2020-10-18T08:47:19Z</time>
      </trkpt>
      <trkpt lat="44.09106" lon="6.15431">
        <ele>731.8</ele>
        <time>2020-10-18T08:47:20Z</time>
      </trkpt>
      <trkpt lat="44.09108" lon="6.15434">
        <ele>731.8</ele>
        <time>2020-10-18T08:47:21Z</time>
      </trkpt>
      <trkpt lat="44.09109" lon="6.15437">
        <ele>732</ele>
        <time>2020-10-18T08:47:22Z</time>
      </trkpt>
      <trkpt lat="44.09111" lon="6.1544">
        <ele>732.2</ele>
        <time>2020-10-18T08:47:23Z</time>
      </trkpt>
      <trkpt lat="44.09112" lon="6.15443">
        <ele>732.4</ele>
        <time>2020-10-18T08:47:24Z</time>
      </trkpt>
      <trkpt lat="44.09114" lon="6.15445">
        <ele>732.8</ele>
        <time>2020-10-18T08:47:25Z</time>
      </trkpt>
      <trkpt lat="44.09116" lon="6.15448">
        <ele>733</ele>
        <time>2020-10-18T08:47:26Z</time>
      </trkpt>
      <trkpt lat="44.09117" lon="6.1545">
        <ele>733</ele>
        <time>2020-10-18T08:47:27Z</time>
      </trkpt>
      <trkpt lat="44.09118" lon="6.15453">
        <ele>733.2</ele>
        <time>2020-10-18T08:47:28Z</time>
      </trkpt>
      <trkpt lat="44.0912" lon="6.15456">
        <ele>733.4</ele>
        <time>2020-10-18T08:47:29Z</time>
      </trkpt>
      <trkpt lat="44.09121" lon="6.15459">
        <ele>733.4</ele>
        <time>2020-10-18T08:47:30Z</time>
      </trkpt>
      <trkpt lat="44.09123" lon="6.15461">
        <ele>733.2</ele>
        <time>2020-10-18T08:47:31Z</time>
      </trkpt>
      <trkpt lat="44.09124" lon="6.15464">
        <ele>733.4</ele>
        <time>2020-10-18T08:47:32Z</time>
      </trkpt>
      <trkpt lat="44.09125" lon="6.15467">
        <ele>733.6</ele>
        <time>2020-10-18T08:47:33Z</time>
      </trkpt>
      <trkpt lat="44.09126" lon="6.15469">
        <ele>733.6</ele>
        <time>2020-10-18T08:47:34Z</time>
      </trkpt>
      <trkpt lat="44.09128" lon="6.15472">
        <ele>733.6</ele>
        <time>2020-10-18T08:47:35Z</time>
      </trkpt>
      <trkpt lat="44.09129" lon="6.15475">
        <ele>733.8</ele>
        <time>2020-10-18T08:47:36Z</time>
      </trkpt>
      <trkpt lat="44.0913" lon="6.15477">
        <ele>733.8</ele>
        <time>2020-10-18T08:47:37Z</time>
      </trkpt>
      <trkpt lat="44.09131" lon="6.1548">
        <ele>734</ele>
        <time>2020-10-18T08:47:38Z</time>
      </trkpt>
      <trkpt lat="44.09132" lon="6.15483">
        <ele>734</ele>
        <time>2020-10-18T08:47:39Z</time>
      </trkpt>
      <trkpt lat="44.09133" lon="6.15485">
        <ele>734</ele>
        <time>2020-10-18T08:47:40Z</time>
      </trkpt>
      <trkpt lat="44.09134" lon="6.15488">
        <ele>734</ele>
        <time>2020-10-18T08:47:41Z</time>
      </trkpt>
      <trkpt lat="44.09136" lon="6.1549">
        <ele>734.2</ele>
        <time>2020-10-18T08:47:42Z</time>
      </trkpt>
      <trkpt lat="44.09137" lon="6.15492">
        <ele>734.4</ele>
        <time>2020-10-18T08:47:43Z</time>
      </trkpt>
      <trkpt lat="44.09139" lon="6.15494">
        <ele>734.8</ele>
        <time>2020-10-18T08:47:44Z</time>
      </trkpt>
      <trkpt lat="44.0914" lon="6.15495">
        <ele>735.2</ele>
        <time>2020-10-18T08:47:45Z</time>
      </trkpt>
      <trkpt lat="44.09142" lon="6.15497">
        <ele>735.2</ele>
        <time>2020-10-18T08:47:46Z</time>
      </trkpt>
      <trkpt lat="44.09144" lon="6.15498">
        <ele>735.4</ele>
        <time>2020-10-18T08:47:47Z</time>
      </trkpt>
      <trkpt lat="44.09146" lon="6.15499">
        <ele>735.4</ele>
        <time>2020-10-18T08:47:48Z</time>
      </trkpt>
      <trkpt lat="44.09147" lon="6.15499">
        <ele>735.8</ele>
        <time>2020-10-18T08:47:49Z</time>
      </trkpt>
      <trkpt lat="44.09149" lon="6.155">
        <ele>735.8</ele>
        <time>2020-10-18T08:47:50Z</time>
      </trkpt>
      <trkpt lat="44.09151" lon="6.15502">
        <ele>736</ele>
        <time>2020-10-18T08:47:51Z</time>
      </trkpt>
      <trkpt lat="44.09153" lon="6.15503">
        <ele>736</ele>
        <time>2020-10-18T08:47:52Z</time>
      </trkpt>
      <trkpt lat="44.09154" lon="6.15505">
        <ele>736.2</ele>
        <time>2020-10-18T08:47:53Z</time>
      </trkpt>
      <trkpt lat="44.09156" lon="6.15507">
        <ele>736.4</ele>
        <time>2020-10-18T08:47:54Z</time>
      </trkpt>
      <trkpt lat="44.09157" lon="6.15508">
        <ele>736.4</ele>
        <time>2020-10-18T08:47:55Z</time>
      </trkpt>
      <trkpt lat="44.09159" lon="6.15509">
        <ele>736.4</ele>
        <time>2020-10-18T08:47:56Z</time>
      </trkpt>
      <trkpt lat="44.0916" lon="6.1551">
        <ele>736.6</ele>
        <time>2020-10-18T08:47:57Z</time>
      </trkpt>
      <trkpt lat="44.09162" lon="6.15511">
        <ele>737.2</ele>
        <time>2020-10-18T08:47:58Z</time>
      </trkpt>
      <trkpt lat="44.09164" lon="6.15511">
        <ele>737.2</ele>
        <time>2020-10-18T08:47:59Z</time>
      </trkpt>
      <trkpt lat="44.09165" lon="6.15512">
        <ele>737.4</ele>
        <time>2020-10-18T08:48:00Z</time>
      </trkpt>
      <trkpt lat="44.09166" lon="6.15513">
        <ele>737.6</ele>
        <time>2020-10-18T08:48:01Z</time>
      </trkpt>
      <trkpt lat="44.09168" lon="6.15514">
        <ele>737.6</ele>
        <time>2020-10-18T08:48:02Z</time>
      </trkpt>
      <trkpt lat="44.09169" lon="6.15516">
        <ele>737.8</ele>
        <time>2020-10-18T08:48:03Z</time>
      </trkpt>
      <trkpt lat="44.0917" lon="6.15517">
        <ele>738</ele>
        <time>2020-10-18T08:48:04Z</time>
      </trkpt>
      <trkpt lat="44.09171" lon="6.15519">
        <ele>738.8</ele>
        <time>2020-10-18T08:48:05Z</time>
      </trkpt>
      <trkpt lat="44.09173" lon="6.15521">
        <ele>739</ele>
        <time>2020-10-18T08:48:06Z</time>
      </trkpt>
      <trkpt lat="44.09174" lon="6.15522">
        <ele>739.8</ele>
        <time>2020-10-18T08:48:07Z</time>
      </trkpt>
      <trkpt lat="44.09175" lon="6.15524">
        <ele>740.4</ele>
        <time>2020-10-18T08:48:08Z</time>
      </trkpt>
      <trkpt lat="44.09177" lon="6.15526">
        <ele>740.8</ele>
        <time>2020-10-18T08:48:09Z</time>
      </trkpt>
      <trkpt lat="44.09178" lon="6.15527">
        <ele>741.2</ele>
        <time>2020-10-18T08:48:10Z</time>
      </trkpt>
      <trkpt lat="44.0918" lon="6.15528">
        <ele>741.6</ele>
        <time>2020-10-18T08:48:11Z</time>
      </trkpt>
      <trkpt lat="44.09181" lon="6.15529">
        <ele>742.4</ele>
        <time>2020-10-18T08:48:12Z</time>
      </trkpt>
      <trkpt lat="44.09183" lon="6.1553">
        <ele>742.6</ele>
        <time>2020-10-18T08:48:13Z</time>
      </trkpt>
      <trkpt lat="44.09184" lon="6.15531">
        <ele>743.2</ele>
        <time>2020-10-18T08:48:14Z</time>
      </trkpt>
      <trkpt lat="44.09186" lon="6.15532">
        <ele>743.6</ele>
        <time>2020-10-18T08:48:15Z</time>
      </trkpt>
      <trkpt lat="44.09187" lon="6.15533">
        <ele>744</ele>
        <time>2020-10-18T08:48:16Z</time>
      </trkpt>
      <trkpt lat="44.09189" lon="6.15532">
        <ele>744.4</ele>
        <time>2020-10-18T08:48:17Z</time>
      </trkpt>
      <trkpt lat="44.0919" lon="6.15531">
        <ele>744.6</ele>
        <time>2020-10-18T08:48:18Z</time>
      </trkpt>
      <trkpt lat="44.0919" lon="6.15529">
        <ele>745</ele>
        <time>2020-10-18T08:48:19Z</time>
      </trkpt>
      <trkpt lat="44.0919" lon="6.15526">
        <ele>745.4</ele>
        <time>2020-10-18T08:48:20Z</time>
      </trkpt>
      <trkpt lat="44.09189" lon="6.15524">
        <ele>745.6</ele>
        <time>2020-10-18T08:48:21Z</time>
      </trkpt>
      <trkpt lat="44.09188" lon="6.15521">
        <ele>745.8</ele>
        <time>2020-10-18T08:48:22Z</time>
      </trkpt>
      <trkpt lat="44.09187" lon="6.15519">
        <ele>745.8</ele>
        <time>2020-10-18T08:48:23Z</time>
      </trkpt>
      <trkpt lat="44.09186" lon="6.15517">
        <ele>746</ele>
        <time>2020-10-18T08:48:24Z</time>
      </trkpt>
      <trkpt lat="44.09185" lon="6.15515">
        <ele>746.6</ele>
        <time>2020-10-18T08:48:25Z</time>
      </trkpt>
      <trkpt lat="44.09184" lon="6.15512">
        <ele>746.8</ele>
        <time>2020-10-18T08:48:26Z</time>
      </trkpt>
      <trkpt lat="44.09183" lon="6.1551">
        <ele>747.2</ele>
        <time>2020-10-18T08:48:27Z</time>
      </trkpt>
      <trkpt lat="44.09182" lon="6.15507">
        <ele>747.8</ele>
        <time>2020-10-18T08:48:28Z</time>
      </trkpt>
      <trkpt lat="44.09181" lon="6.15504">
        <ele>748</ele>
        <time>2020-10-18T08:48:29Z</time>
      </trkpt>
      <trkpt lat="44.09181" lon="6.15501">
        <ele>748</ele>
        <time>2020-10-18T08:48:30Z</time>
      </trkpt>
      <trkpt lat="44.0918" lon="6.15499">
        <ele>748.2</ele>
        <time>2020-10-18T08:48:31Z</time>
      </trkpt>
      <trkpt lat="44.09179" lon="6.15496">
        <ele>748.6</ele>
        <time>2020-10-18T08:48:32Z</time>
      </trkpt>
      <trkpt lat="44.09178" lon="6.15493">
        <ele>748.8</ele>
        <time>2020-10-18T08:48:33Z</time>
      </trkpt>
      <trkpt lat="44.09178" lon="6.15491">
        <ele>749</ele>
        <time>2020-10-18T08:48:34Z</time>
      </trkpt>
      <trkpt lat="44.09177" lon="6.15488">
        <ele>749</ele>
        <time>2020-10-18T08:48:35Z</time>
      </trkpt>
      <trkpt lat="44.09176" lon="6.15485">
        <ele>749.2</ele>
        <time>2020-10-18T08:48:36Z</time>
      </trkpt>
      <trkpt lat="44.09175" lon="6.15483">
        <ele>749.2</ele>
        <time>2020-10-18T08:48:37Z</time>
      </trkpt>
      <trkpt lat="44.09174" lon="6.1548">
        <ele>749.2</ele>
        <time>2020-10-18T08:48:38Z</time>
      </trkpt>
      <trkpt lat="44.09173" lon="6.15477">
        <ele>749.4</ele>
        <time>2020-10-18T08:48:39Z</time>
      </trkpt>
      <trkpt lat="44.09172" lon="6.15474">
        <ele>749.4</ele>
        <time>2020-10-18T08:48:40Z</time>
      </trkpt>
      <trkpt lat="44.09172" lon="6.15471">
        <ele>749.6</ele>
        <time>2020-10-18T08:48:41Z</time>
      </trkpt>
      <trkpt lat="44.09171" lon="6.15468">
        <ele>749.8</ele>
        <time>2020-10-18T08:48:42Z</time>
      </trkpt>
      <trkpt lat="44.09171" lon="6.15466">
        <ele>750</ele>
        <time>2020-10-18T08:48:43Z</time>
      </trkpt>
      <trkpt lat="44.09171" lon="6.15463">
        <ele>750</ele>
        <time>2020-10-18T08:48:44Z</time>
      </trkpt>
      <trkpt lat="44.09171" lon="6.15461">
        <ele>750.2</ele>
        <time>2020-10-18T08:48:45Z</time>
      </trkpt>
      <trkpt lat="44.09171" lon="6.15458">
        <ele>750.2</ele>
        <time>2020-10-18T08:48:46Z</time>
      </trkpt>
      <trkpt lat="44.09171" lon="6.15456">
        <ele>750.2</ele>
        <time>2020-10-18T08:48:47Z</time>
      </trkpt>
      <trkpt lat="44.09171" lon="6.15454">
        <ele>750.6</ele>
        <time>2020-10-18T08:48:48Z</time>
      </trkpt>
      <trkpt lat="44.0917" lon="6.15451">
        <ele>750.6</ele>
        <time>2020-10-18T08:48:49Z</time>
      </trkpt>
      <trkpt lat="44.0917" lon="6.15449">
        <ele>750.6</ele>
        <time>2020-10-18T08:48:50Z</time>
      </trkpt>
      <trkpt lat="44.0917" lon="6.15446">
        <ele>751</ele>
        <time>2020-10-18T08:48:51Z</time>
      </trkpt>
      <trkpt lat="44.09169" lon="6.15444">
        <ele>751.4</ele>
        <time>2020-10-18T08:48:52Z</time>
      </trkpt>
      <trkpt lat="44.09169" lon="6.15442">
        <ele>751.6</ele>
        <time>2020-10-18T08:48:53Z</time>
      </trkpt>
      <trkpt lat="44.09168" lon="6.15439">
        <ele>752</ele>
        <time>2020-10-18T08:48:54Z</time>
      </trkpt>
      <trkpt lat="44.09167" lon="6.15437">
        <ele>752.4</ele>
        <time>2020-10-18T08:48:55Z</time>
      </trkpt>
      <trkpt lat="44.09167" lon="6.15435">
        <ele>752.8</ele>
        <time>2020-10-18T08:48:56Z</time>
      </trkpt>
      <trkpt lat="44.09166" lon="6.15432">
        <ele>753</ele>
        <time>2020-10-18T08:48:57Z</time>
      </trkpt>
      <trkpt lat="44.09166" lon="6.1543">
        <ele>753.4</ele>
        <time>2020-10-18T08:48:58Z</time>
      </trkpt>
      <trkpt lat="44.09165" lon="6.15427">
        <ele>753.6</ele>
        <time>2020-10-18T08:48:59Z</time>
      </trkpt>
      <trkpt lat="44.09165" lon="6.15425">
        <ele>754</ele>
        <time>2020-10-18T08:49:00Z</time>
      </trkpt>
      <trkpt lat="44.09165" lon="6.15422">
        <ele>754</ele>
        <time>2020-10-18T08:49:01Z</time>
      </trkpt>
      <trkpt lat="44.09164" lon="6.1542">
        <ele>754.2</ele>
        <time>2020-10-18T08:49:02Z</time>
      </trkpt>
      <trkpt lat="44.09164" lon="6.15417">
        <ele>754.4</ele>
        <time>2020-10-18T08:49:03Z</time>
      </trkpt>
      <trkpt lat="44.09163" lon="6.15415">
        <ele>754.6</ele>
        <time>2020-10-18T08:49:04Z</time>
      </trkpt>
      <trkpt lat="44.09163" lon="6.15412">
        <ele>754.8</ele>
        <time>2020-10-18T08:49:05Z</time>
      </trkpt>
      <trkpt lat="44.09163" lon="6.15409">
        <ele>754.8</ele>
        <time>2020-10-18T08:49:06Z</time>
      </trkpt>
      <trkpt lat="44.09163" lon="6.15407">
        <ele>755.2</ele>
        <time>2020-10-18T08:49:07Z</time>
      </trkpt>
      <trkpt lat="44.09162" lon="6.15404">
        <ele>755.2</ele>
        <time>2020-10-18T08:49:08Z</time>
      </trkpt>
      <trkpt lat="44.09162" lon="6.15401">
        <ele>755.4</ele>
        <time>2020-10-18T08:49:09Z</time>
      </trkpt>
      <trkpt lat="44.09161" lon="6.15398">
        <ele>755.8</ele>
        <time>2020-10-18T08:49:10Z</time>
      </trkpt>
      <trkpt lat="44.09161" lon="6.15396">
        <ele>756</ele>
        <time>2020-10-18T08:49:11Z</time>
      </trkpt>
      <trkpt lat="44.09161" lon="6.15393">
        <ele>756.2</ele>
        <time>2020-10-18T08:49:12Z</time>
      </trkpt>
      <trkpt lat="44.0916" lon="6.15389">
        <ele>756.4</ele>
        <time>2020-10-18T08:49:13Z</time>
      </trkpt>
      <trkpt lat="44.0916" lon="6.15386">
        <ele>756.8</ele>
        <time>2020-10-18T08:49:14Z</time>
      </trkpt>
      <trkpt lat="44.0916" lon="6.15383">
        <ele>757.2</ele>
        <time>2020-10-18T08:49:15Z</time>
      </trkpt>
      <trkpt lat="44.09159" lon="6.1538">
        <ele>757.2</ele>
        <time>2020-10-18T08:49:16Z</time>
      </trkpt>
      <trkpt lat="44.09159" lon="6.15377">
        <ele>757.4</ele>
        <time>2020-10-18T08:49:17Z</time>
      </trkpt>
      <trkpt lat="44.09159" lon="6.15374">
        <ele>757.4</ele>
        <time>2020-10-18T08:49:18Z</time>
      </trkpt>
      <trkpt lat="44.09159" lon="6.15371">
        <ele>757.6</ele>
        <time>2020-10-18T08:49:19Z</time>
      </trkpt>
      <trkpt lat="44.09158" lon="6.15368">
        <ele>757.8</ele>
        <time>2020-10-18T08:49:20Z</time>
      </trkpt>
      <trkpt lat="44.09158" lon="6.15364">
        <ele>758</ele>
        <time>2020-10-18T08:49:21Z</time>
      </trkpt>
      <trkpt lat="44.09158" lon="6.15361">
        <ele>758</ele>
        <time>2020-10-18T08:49:22Z</time>
      </trkpt>
      <trkpt lat="44.09157" lon="6.15358">
        <ele>758.4</ele>
        <time>2020-10-18T08:49:23Z</time>
      </trkpt>
      <trkpt lat="44.09157" lon="6.15355">
        <ele>758.4</ele>
        <time>2020-10-18T08:49:24Z</time>
      </trkpt>
      <trkpt lat="44.09156" lon="6.15352">
        <ele>758.6</ele>
        <time>2020-10-18T08:49:25Z</time>
      </trkpt>
      <trkpt lat="44.09156" lon="6.15349">
        <ele>758.6</ele>
        <time>2020-10-18T08:49:26Z</time>
      </trkpt>
      <trkpt lat="44.09155" lon="6.15346">
        <ele>758.8</ele>
        <time>2020-10-18T08:49:27Z</time>
      </trkpt>
      <trkpt lat="44.09155" lon="6.15343">
        <ele>758.8</ele>
        <time>2020-10-18T08:49:28Z</time>
      </trkpt>
      <trkpt lat="44.09155" lon="6.1534">
        <ele>759</ele>
        <time>2020-10-18T08:49:29Z</time>
      </trkpt>
      <trkpt lat="44.09155" lon="6.15337">
        <ele>759.2</ele>
        <time>2020-10-18T08:49:30Z</time>
      </trkpt>
      <trkpt lat="44.09155" lon="6.15334">
        <ele>759.4</ele>
        <time>2020-10-18T08:49:31Z</time>
      </trkpt>
      <trkpt lat="44.09156" lon="6.15332">
        <ele>759.4</ele>
        <time>2020-10-18T08:49:32Z</time>
      </trkpt>
      <trkpt lat="44.09156" lon="6.15329">
        <ele>759.8</ele>
        <time>2020-10-18T08:49:33Z</time>
      </trkpt>
      <trkpt lat="44.09156" lon="6.15327">
        <ele>760</ele>
        <time>2020-10-18T08:49:34Z</time>
      </trkpt>
      <trkpt lat="44.09156" lon="6.15324">
        <ele>760.2</ele>
        <time>2020-10-18T08:49:35Z</time>
      </trkpt>
      <trkpt lat="44.09156" lon="6.15322">
        <ele>760.4</ele>
        <time>2020-10-18T08:49:36Z</time>
      </trkpt>
      <trkpt lat="44.09156" lon="6.1532">
        <ele>760.4</ele>
        <time>2020-10-18T08:49:37Z</time>
      </trkpt>
      <trkpt lat="44.09156" lon="6.15317">
        <ele>760.8</ele>
        <time>2020-10-18T08:49:38Z</time>
      </trkpt>
      <trkpt lat="44.09156" lon="6.15315">
        <ele>761</ele>
        <time>2020-10-18T08:49:39Z</time>
      </trkpt>
      <trkpt lat="44.09156" lon="6.15312">
        <ele>761.2</ele>
        <time>2020-10-18T08:49:40Z</time>
      </trkpt>
      <trkpt lat="44.09156" lon="6.1531">
        <ele>761.4</ele>
        <time>2020-10-18T08:49:41Z</time>
      </trkpt>
      <trkpt lat="44.09156" lon="6.15307">
        <ele>761.6</ele>
        <time>2020-10-18T08:49:42Z</time>
      </trkpt>
      <trkpt lat="44.09156" lon="6.15304">
        <ele>762</ele>
        <time>2020-10-18T08:49:43Z</time>
      </trkpt>
      <trkpt lat="44.09156" lon="6.15302">
        <ele>762</ele>
        <time>2020-10-18T08:49:44Z</time>
      </trkpt>
      <trkpt lat="44.09156" lon="6.153">
        <ele>762.2</ele>
        <time>2020-10-18T08:49:45Z</time>
      </trkpt>
      <trkpt lat="44.09157" lon="6.15297">
        <ele>762.4</ele>
        <time>2020-10-18T08:49:46Z</time>
      </trkpt>
      <trkpt lat="44.09157" lon="6.15295">
        <ele>762.4</ele>
        <time>2020-10-18T08:49:47Z</time>
      </trkpt>
      <trkpt lat="44.09157" lon="6.15292">
        <ele>762.8</ele>
        <time>2020-10-18T08:49:48Z</time>
      </trkpt>
      <trkpt lat="44.09157" lon="6.15289">
        <ele>763</ele>
        <time>2020-10-18T08:49:49Z</time>
      </trkpt>
      <trkpt lat="44.09157" lon="6.15287">
        <ele>763.4</ele>
        <time>2020-10-18T08:49:50Z</time>
      </trkpt>
      <trkpt lat="44.09157" lon="6.15285">
        <ele>763.6</ele>
        <time>2020-10-18T08:49:51Z</time>
      </trkpt>
      <trkpt lat="44.09157" lon="6.15283">
        <ele>763.8</ele>
        <time>2020-10-18T08:49:52Z</time>
      </trkpt>
      <trkpt lat="44.09157" lon="6.15281">
        <ele>764</ele>
        <time>2020-10-18T08:49:53Z</time>
      </trkpt>
      <trkpt lat="44.09158" lon="6.15279">
        <ele>764.2</ele>
        <time>2020-10-18T08:49:54Z</time>
      </trkpt>
      <trkpt lat="44.09158" lon="6.15277">
        <ele>764.4</ele>
        <time>2020-10-18T08:49:55Z</time>
      </trkpt>
      <trkpt lat="44.09159" lon="6.15275">
        <ele>764.6</ele>
        <time>2020-10-18T08:49:56Z</time>
      </trkpt>
      <trkpt lat="44.09159" lon="6.15273">
        <ele>765</ele>
        <time>2020-10-18T08:49:57Z</time>
      </trkpt>
      <trkpt lat="44.0916" lon="6.1527">
        <ele>765.2</ele>
        <time>2020-10-18T08:49:58Z</time>
      </trkpt>
      <trkpt lat="44.0916" lon="6.15268">
        <ele>765.8</ele>
        <time>2020-10-18T08:49:59Z</time>
      </trkpt>
      <trkpt lat="44.0916" lon="6.15265">
        <ele>766</ele>
        <time>2020-10-18T08:50:00Z</time>
      </trkpt>
      <trkpt lat="44.0916" lon="6.15263">
        <ele>766.4</ele>
        <time>2020-10-18T08:50:01Z</time>
      </trkpt>
      <trkpt lat="44.09161" lon="6.1526">
        <ele>766.8</ele>
        <time>2020-10-18T08:50:02Z</time>
      </trkpt>
      <trkpt lat="44.09161" lon="6.15258">
        <ele>767</ele>
        <time>2020-10-18T08:50:03Z</time>
      </trkpt>
      <trkpt lat="44.09162" lon="6.15255">
        <ele>767.4</ele>
        <time>2020-10-18T08:50:04Z</time>
      </trkpt>
      <trkpt lat="44.09162" lon="6.15253">
        <ele>767.4</ele>
        <time>2020-10-18T08:50:05Z</time>
      </trkpt>
      <trkpt lat="44.09163" lon="6.15251">
        <ele>767.8</ele>
        <time>2020-10-18T08:50:06Z</time>
      </trkpt>
      <trkpt lat="44.09164" lon="6.15249">
        <ele>768</ele>
        <time>2020-10-18T08:50:07Z</time>
      </trkpt>
      <trkpt lat="44.09165" lon="6.15246">
        <ele>768</ele>
        <time>2020-10-18T08:50:08Z</time>
      </trkpt>
      <trkpt lat="44.09166" lon="6.15244">
        <ele>768.2</ele>
        <time>2020-10-18T08:50:09Z</time>
      </trkpt>
      <trkpt lat="44.09166" lon="6.15242">
        <ele>768.4</ele>
        <time>2020-10-18T08:50:10Z</time>
      </trkpt>
      <trkpt lat="44.09167" lon="6.1524">
        <ele>768.6</ele>
        <time>2020-10-18T08:50:11Z</time>
      </trkpt>
      <trkpt lat="44.09167" lon="6.15237">
        <ele>768.8</ele>
        <time>2020-10-18T08:50:12Z</time>
      </trkpt>
      <trkpt lat="44.09168" lon="6.15235">
        <ele>769</ele>
        <time>2020-10-18T08:50:13Z</time>
      </trkpt>
      <trkpt lat="44.09168" lon="6.15233">
        <ele>769.2</ele>
        <time>2020-10-18T08:50:14Z</time>
      </trkpt>
      <trkpt lat="44.09168" lon="6.1523">
        <ele>769.4</ele>
        <time>2020-10-18T08:50:15Z</time>
      </trkpt>
      <trkpt lat="44.09168" lon="6.15228">
        <ele>769.6</ele>
        <time>2020-10-18T08:50:16Z</time>
      </trkpt>
      <trkpt lat="44.09168" lon="6.15226">
        <ele>770</ele>
        <time>2020-10-18T08:50:17Z</time>
      </trkpt>
      <trkpt lat="44.09168" lon="6.15223">
        <ele>770.2</ele>
        <time>2020-10-18T08:50:18Z</time>
      </trkpt>
      <trkpt lat="44.09168" lon="6.15221">
        <ele>770.2</ele>
        <time>2020-10-18T08:50:19Z</time>
      </trkpt>
      <trkpt lat="44.09167" lon="6.15218">
        <ele>770.6</ele>
        <time>2020-10-18T08:50:20Z</time>
      </trkpt>
      <trkpt lat="44.09167" lon="6.15216">
        <ele>770.6</ele>
        <time>2020-10-18T08:50:21Z</time>
      </trkpt>
      <trkpt lat="44.09167" lon="6.15213">
        <ele>770.8</ele>
        <time>2020-10-18T08:50:22Z</time>
      </trkpt>
      <trkpt lat="44.09166" lon="6.15211">
        <ele>771</ele>
        <time>2020-10-18T08:50:23Z</time>
      </trkpt>
      <trkpt lat="44.09166" lon="6.15209">
        <ele>771.2</ele>
        <time>2020-10-18T08:50:24Z</time>
      </trkpt>
      <trkpt lat="44.09166" lon="6.15206">
        <ele>771.4</ele>
        <time>2020-10-18T08:50:25Z</time>
      </trkpt>
      <trkpt lat="44.09166" lon="6.15204">
        <ele>771.6</ele>
        <time>2020-10-18T08:50:26Z</time>
      </trkpt>
      <trkpt lat="44.09165" lon="6.15202">
        <ele>771.8</ele>
        <time>2020-10-18T08:50:27Z</time>
      </trkpt>
      <trkpt lat="44.09165" lon="6.152">
        <ele>771.8</ele>
        <time>2020-10-18T08:50:28Z</time>
      </trkpt>
      <trkpt lat="44.09164" lon="6.15197">
        <ele>772.2</ele>
        <time>2020-10-18T08:50:29Z</time>
      </trkpt>
      <trkpt lat="44.09164" lon="6.15195">
        <ele>772.4</ele>
        <time>2020-10-18T08:50:30Z</time>
      </trkpt>
      <trkpt lat="44.09163" lon="6.15193">
        <ele>772.6</ele>
        <time>2020-10-18T08:50:31Z</time>
      </trkpt>
      <trkpt lat="44.09162" lon="6.1519">
        <ele>773</ele>
        <time>2020-10-18T08:50:32Z</time>
      </trkpt>
      <trkpt lat="44.09162" lon="6.15188">
        <ele>773.2</ele>
        <time>2020-10-18T08:50:33Z</time>
      </trkpt>
      <trkpt lat="44.09162" lon="6.15186">
        <ele>773.6</ele>
        <time>2020-10-18T08:50:34Z</time>
      </trkpt>
      <trkpt lat="44.09162" lon="6.15184">
        <ele>773.6</ele>
        <time>2020-10-18T08:50:35Z</time>
      </trkpt>
      <trkpt lat="44.09161" lon="6.15181">
        <ele>773.8</ele>
        <time>2020-10-18T08:50:36Z</time>
      </trkpt>
      <trkpt lat="44.09161" lon="6.15179">
        <ele>774</ele>
        <time>2020-10-18T08:50:37Z</time>
      </trkpt>
      <trkpt lat="44.09161" lon="6.15177">
        <ele>774.2</ele>
        <time>2020-10-18T08:50:38Z</time>
      </trkpt>
      <trkpt lat="44.0916" lon="6.15174">
        <ele>774.4</ele>
        <time>2020-10-18T08:50:39Z</time>
      </trkpt>
      <trkpt lat="44.0916" lon="6.15172">
        <ele>774.8</ele>
        <time>2020-10-18T08:50:40Z</time>
      </trkpt>
      <trkpt lat="44.0916" lon="6.15169">
        <ele>775</ele>
        <time>2020-10-18T08:50:41Z</time>
      </trkpt>
      <trkpt lat="44.0916" lon="6.15167">
        <ele>775.4</ele>
        <time>2020-10-18T08:50:42Z</time>
      </trkpt>
      <trkpt lat="44.0916" lon="6.15165">
        <ele>775.8</ele>
        <time>2020-10-18T08:50:43Z</time>
      </trkpt>
      <trkpt lat="44.0916" lon="6.15162">
        <ele>775.8</ele>
        <time>2020-10-18T08:50:44Z</time>
      </trkpt>
      <trkpt lat="44.0916" lon="6.15159">
        <ele>776.2</ele>
        <time>2020-10-18T08:50:45Z</time>
      </trkpt>
      <trkpt lat="44.0916" lon="6.15156">
        <ele>776.2</ele>
        <time>2020-10-18T08:50:46Z</time>
      </trkpt>
      <trkpt lat="44.0916" lon="6.15153">
        <ele>776.4</ele>
        <time>2020-10-18T08:50:47Z</time>
      </trkpt>
      <trkpt lat="44.0916" lon="6.1515">
        <ele>776.8</ele>
        <time>2020-10-18T08:50:48Z</time>
      </trkpt>
      <trkpt lat="44.09161" lon="6.15148">
        <ele>776.8</ele>
        <time>2020-10-18T08:50:49Z</time>
      </trkpt>
      <trkpt lat="44.09161" lon="6.15145">
        <ele>777</ele>
        <time>2020-10-18T08:50:50Z</time>
      </trkpt>
      <trkpt lat="44.09161" lon="6.15142">
        <ele>777.2</ele>
        <time>2020-10-18T08:50:51Z</time>
      </trkpt>
      <trkpt lat="44.09161" lon="6.15139">
        <ele>777.4</ele>
        <time>2020-10-18T08:50:52Z</time>
      </trkpt>
      <trkpt lat="44.09161" lon="6.15136">
        <ele>777.8</ele>
        <time>2020-10-18T08:50:53Z</time>
      </trkpt>
      <trkpt lat="44.09161" lon="6.15133">
        <ele>777.8</ele>
        <time>2020-10-18T08:50:54Z</time>
      </trkpt>
      <trkpt lat="44.09161" lon="6.1513">
        <ele>778</ele>
        <time>2020-10-18T08:50:55Z</time>
      </trkpt>
      <trkpt lat="44.09162" lon="6.15128">
        <ele>778.2</ele>
        <time>2020-10-18T08:50:56Z</time>
      </trkpt>
      <trkpt lat="44.09162" lon="6.15126">
        <ele>778.2</ele>
        <time>2020-10-18T08:50:57Z</time>
      </trkpt>
      <trkpt lat="44.09163" lon="6.15123">
        <ele>778.6</ele>
        <time>2020-10-18T08:50:58Z</time>
      </trkpt>
      <trkpt lat="44.09163" lon="6.1512">
        <ele>778.6</ele>
        <time>2020-10-18T08:50:59Z</time>
      </trkpt>
      <trkpt lat="44.09163" lon="6.15118">
        <ele>779</ele>
        <time>2020-10-18T08:51:00Z</time>
      </trkpt>
      <trkpt lat="44.09163" lon="6.15116">
        <ele>779</ele>
        <time>2020-10-18T08:51:01Z</time>
      </trkpt>
      <trkpt lat="44.09163" lon="6.15114">
        <ele>779.2</ele>
        <time>2020-10-18T08:51:02Z</time>
      </trkpt>
      <trkpt lat="44.09163" lon="6.15112">
        <ele>779.4</ele>
        <time>2020-10-18T08:51:03Z</time>
      </trkpt>
      <trkpt lat="44.09163" lon="6.1511">
        <ele>779.8</ele>
        <time>2020-10-18T08:51:04Z</time>
      </trkpt>
      <trkpt lat="44.09163" lon="6.15108">
        <ele>780</ele>
        <time>2020-10-18T08:51:05Z</time>
      </trkpt>
      <trkpt lat="44.09164" lon="6.15107">
        <ele>780.4</ele>
        <time>2020-10-18T08:51:06Z</time>
      </trkpt>
      <trkpt lat="44.09164" lon="6.15105">
        <ele>780.6</ele>
        <time>2020-10-18T08:51:07Z</time>
      </trkpt>
      <trkpt lat="44.09164" lon="6.15103">
        <ele>781</ele>
        <time>2020-10-18T08:51:08Z</time>
      </trkpt>
      <trkpt lat="44.09164" lon="6.15102">
        <ele>781</ele>
        <time>2020-10-18T08:51:09Z</time>
      </trkpt>
      <trkpt lat="44.09164" lon="6.151">
        <ele>781.2</ele>
        <time>2020-10-18T08:51:10Z</time>
      </trkpt>
      <trkpt lat="44.09164" lon="6.15098">
        <ele>781.4</ele>
        <time>2020-10-18T08:51:11Z</time>
      </trkpt>
      <trkpt lat="44.09164" lon="6.15097">
        <ele>781.6</ele>
        <time>2020-10-18T08:51:12Z</time>
      </trkpt>
      <trkpt lat="44.09164" lon="6.15095">
        <ele>782</ele>
        <time>2020-10-18T08:51:13Z</time>
      </trkpt>
      <trkpt lat="44.09164" lon="6.15093">
        <ele>782</ele>
        <time>2020-10-18T08:51:14Z</time>
      </trkpt>
      <trkpt lat="44.09164" lon="6.15091">
        <ele>782.2</ele>
        <time>2020-10-18T08:51:15Z</time>
      </trkpt>
      <trkpt lat="44.09164" lon="6.15089">
        <ele>782.6</ele>
        <time>2020-10-18T08:51:16Z</time>
      </trkpt>
      <trkpt lat="44.09164" lon="6.15087">
        <ele>782.8</ele>
        <time>2020-10-18T08:51:17Z</time>
      </trkpt>
      <trkpt lat="44.09165" lon="6.15085">
        <ele>783.2</ele>
        <time>2020-10-18T08:51:18Z</time>
      </trkpt>
      <trkpt lat="44.09165" lon="6.15084">
        <ele>783.4</ele>
        <time>2020-10-18T08:51:19Z</time>
      </trkpt>
      <trkpt lat="44.09165" lon="6.15082">
        <ele>783.8</ele>
        <time>2020-10-18T08:51:20Z</time>
      </trkpt>
      <trkpt lat="44.09166" lon="6.15081">
        <ele>783.8</ele>
        <time>2020-10-18T08:51:21Z</time>
      </trkpt>
      <trkpt lat="44.09166" lon="6.15079">
        <ele>784.2</ele>
        <time>2020-10-18T08:51:22Z</time>
      </trkpt>
      <trkpt lat="44.09167" lon="6.15078">
        <ele>784.4</ele>
        <time>2020-10-18T08:51:23Z</time>
      </trkpt>
      <trkpt lat="44.09167" lon="6.15076">
        <ele>784.8</ele>
        <time>2020-10-18T08:51:24Z</time>
      </trkpt>
      <trkpt lat="44.09167" lon="6.15074">
        <ele>784.8</ele>
        <time>2020-10-18T08:51:25Z</time>
      </trkpt>
      <trkpt lat="44.09167" lon="6.15072">
        <ele>785.2</ele>
        <time>2020-10-18T08:51:26Z</time>
      </trkpt>
      <trkpt lat="44.09167" lon="6.1507">
        <ele>785.4</ele>
        <time>2020-10-18T08:51:27Z</time>
      </trkpt>
      <trkpt lat="44.09167" lon="6.15068">
        <ele>785.6</ele>
        <time>2020-10-18T08:51:28Z</time>
      </trkpt>
      <trkpt lat="44.09167" lon="6.15066">
        <ele>785.8</ele>
        <time>2020-10-18T08:51:29Z</time>
      </trkpt>
      <trkpt lat="44.09167" lon="6.15064">
        <ele>785.8</ele>
        <time>2020-10-18T08:51:30Z</time>
      </trkpt>
      <trkpt lat="44.09167" lon="6.15063">
        <ele>786</ele>
        <time>2020-10-18T08:51:31Z</time>
      </trkpt>
      <trkpt lat="44.09168" lon="6.15061">
        <ele>786.2</ele>
        <time>2020-10-18T08:51:32Z</time>
      </trkpt>
      <trkpt lat="44.09168" lon="6.15059">
        <ele>786.6</ele>
        <time>2020-10-18T08:51:33Z</time>
      </trkpt>
      <trkpt lat="44.09168" lon="6.15057">
        <ele>786.8</ele>
        <time>2020-10-18T08:51:34Z</time>
      </trkpt>
      <trkpt lat="44.09168" lon="6.15056">
        <ele>787</ele>
        <time>2020-10-18T08:51:35Z</time>
      </trkpt>
      <trkpt lat="44.09167" lon="6.15054">
        <ele>787.4</ele>
        <time>2020-10-18T08:51:36Z</time>
      </trkpt>
      <trkpt lat="44.09168" lon="6.15052">
        <ele>787.6</ele>
        <time>2020-10-18T08:51:37Z</time>
      </trkpt>
      <trkpt lat="44.09168" lon="6.15051">
        <ele>787.8</ele>
        <time>2020-10-18T08:51:38Z</time>
      </trkpt>
      <trkpt lat="44.09168" lon="6.15049">
        <ele>788</ele>
        <time>2020-10-18T08:51:39Z</time>
      </trkpt>
      <trkpt lat="44.09168" lon="6.15047">
        <ele>788.4</ele>
        <time>2020-10-18T08:51:40Z</time>
      </trkpt>
      <trkpt lat="44.09168" lon="6.15045">
        <ele>788.6</ele>
        <time>2020-10-18T08:51:41Z</time>
      </trkpt>
      <trkpt lat="44.09168" lon="6.15043">
        <ele>788.6</ele>
        <time>2020-10-18T08:51:42Z</time>
      </trkpt>
      <trkpt lat="44.09168" lon="6.15041">
        <ele>788.8</ele>
        <time>2020-10-18T08:51:43Z</time>
      </trkpt>
      <trkpt lat="44.09168" lon="6.15039">
        <ele>789.2</ele>
        <time>2020-10-18T08:51:44Z</time>
      </trkpt>
      <trkpt lat="44.09168" lon="6.15037">
        <ele>789.4</ele>
        <time>2020-10-18T08:51:45Z</time>
      </trkpt>
      <trkpt lat="44.09168" lon="6.15035">
        <ele>789.6</ele>
        <time>2020-10-18T08:51:46Z</time>
      </trkpt>
      <trkpt lat="44.09168" lon="6.15033">
        <ele>790</ele>
        <time>2020-10-18T08:51:47Z</time>
      </trkpt>
      <trkpt lat="44.09168" lon="6.15031">
        <ele>790.2</ele>
        <time>2020-10-18T08:51:48Z</time>
      </trkpt>
      <trkpt lat="44.09169" lon="6.15029">
        <ele>790.4</ele>
        <time>2020-10-18T08:51:49Z</time>
      </trkpt>
      <trkpt lat="44.09169" lon="6.15028">
        <ele>790.6</ele>
        <time>2020-10-18T08:51:50Z</time>
      </trkpt>
      <trkpt lat="44.0917" lon="6.15026">
        <ele>790.6</ele>
        <time>2020-10-18T08:51:51Z</time>
      </trkpt>
      <trkpt lat="44.0917" lon="6.15024">
        <ele>790.6</ele>
        <time>2020-10-18T08:51:52Z</time>
      </trkpt>
      <trkpt lat="44.09171" lon="6.15022">
        <ele>790.8</ele>
        <time>2020-10-18T08:51:53Z</time>
      </trkpt>
      <trkpt lat="44.09171" lon="6.1502">
        <ele>791.2</ele>
        <time>2020-10-18T08:51:54Z</time>
      </trkpt>
      <trkpt lat="44.09171" lon="6.15018">
        <ele>791.4</ele>
        <time>2020-10-18T08:51:55Z</time>
      </trkpt>
      <trkpt lat="44.09172" lon="6.15016">
        <ele>791.6</ele>
        <time>2020-10-18T08:51:56Z</time>
      </trkpt>
      <trkpt lat="44.09172" lon="6.15015">
        <ele>792</ele>
        <time>2020-10-18T08:51:57Z</time>
      </trkpt>
      <trkpt lat="44.09172" lon="6.15013">
        <ele>792.2</ele>
        <time>2020-10-18T08:51:58Z</time>
      </trkpt>
      <trkpt lat="44.09173" lon="6.15011">
        <ele>792.4</ele>
        <time>2020-10-18T08:51:59Z</time>
      </trkpt>
      <trkpt lat="44.09173" lon="6.1501">
        <ele>792.6</ele>
        <time>2020-10-18T08:52:00Z</time>
      </trkpt>
      <trkpt lat="44.09173" lon="6.15008">
        <ele>792.8</ele>
        <time>2020-10-18T08:52:01Z</time>
      </trkpt>
      <trkpt lat="44.09174" lon="6.15007">
        <ele>793.2</ele>
        <time>2020-10-18T08:52:02Z</time>
      </trkpt>
      <trkpt lat="44.09175" lon="6.15005">
        <ele>793.4</ele>
        <time>2020-10-18T08:52:03Z</time>
      </trkpt>
      <trkpt lat="44.09175" lon="6.15003">
        <ele>793.6</ele>
        <time>2020-10-18T08:52:04Z</time>
      </trkpt>
      <trkpt lat="44.09176" lon="6.15001">
        <ele>794</ele>
        <time>2020-10-18T08:52:05Z</time>
      </trkpt>
      <trkpt lat="44.09176" lon="6.14998">
        <ele>794</ele>
        <time>2020-10-18T08:52:06Z</time>
      </trkpt>
      <trkpt lat="44.09176" lon="6.14995">
        <ele>794.4</ele>
        <time>2020-10-18T08:52:07Z</time>
      </trkpt>
      <trkpt lat="44.09177" lon="6.14993">
        <ele>794.8</ele>
        <time>2020-10-18T08:52:08Z</time>
      </trkpt>
      <trkpt lat="44.09177" lon="6.14991">
        <ele>795</ele>
        <time>2020-10-18T08:52:09Z</time>
      </trkpt>
      <trkpt lat="44.09178" lon="6.14988">
        <ele>795.2</ele>
        <time>2020-10-18T08:52:10Z</time>
      </trkpt>
      <trkpt lat="44.09179" lon="6.14986">
        <ele>795.4</ele>
        <time>2020-10-18T08:52:11Z</time>
      </trkpt>
      <trkpt lat="44.09179" lon="6.14984">
        <ele>795.4</ele>
        <time>2020-10-18T08:52:12Z</time>
      </trkpt>
      <trkpt lat="44.09179" lon="6.14982">
        <ele>795.6</ele>
        <time>2020-10-18T08:52:13Z</time>
      </trkpt>
      <trkpt lat="44.0918" lon="6.1498">
        <ele>796</ele>
        <time>2020-10-18T08:52:14Z</time>
      </trkpt>
      <trkpt lat="44.0918" lon="6.14978">
        <ele>796.4</ele>
        <time>2020-10-18T08:52:15Z</time>
      </trkpt>
      <trkpt lat="44.09181" lon="6.14976">
        <ele>796.4</ele>
        <time>2020-10-18T08:52:16Z</time>
      </trkpt>
      <trkpt lat="44.09181" lon="6.14974">
        <ele>796.8</ele>
        <time>2020-10-18T08:52:17Z</time>
      </trkpt>
      <trkpt lat="44.09181" lon="6.14972">
        <ele>797</ele>
        <time>2020-10-18T08:52:18Z</time>
      </trkpt>
      <trkpt lat="44.09182" lon="6.1497">
        <ele>797.2</ele>
        <time>2020-10-18T08:52:19Z</time>
      </trkpt>
      <trkpt lat="44.09182" lon="6.14967">
        <ele>797.6</ele>
        <time>2020-10-18T08:52:20Z</time>
      </trkpt>
      <trkpt lat="44.09182" lon="6.14965">
        <ele>797.8</ele>
        <time>2020-10-18T08:52:21Z</time>
      </trkpt>
      <trkpt lat="44.09182" lon="6.14963">
        <ele>798</ele>
        <time>2020-10-18T08:52:22Z</time>
      </trkpt>
      <trkpt lat="44.09183" lon="6.1496">
        <ele>798</ele>
        <time>2020-10-18T08:52:23Z</time>
      </trkpt>
      <trkpt lat="44.09183" lon="6.14958">
        <ele>798.2</ele>
        <time>2020-10-18T08:52:24Z</time>
      </trkpt>
      <trkpt lat="44.09184" lon="6.14956">
        <ele>798.4</ele>
        <time>2020-10-18T08:52:25Z</time>
      </trkpt>
      <trkpt lat="44.09184" lon="6.14954">
        <ele>798.6</ele>
        <time>2020-10-18T08:52:26Z</time>
      </trkpt>
      <trkpt lat="44.09185" lon="6.14952">
        <ele>798.8</ele>
        <time>2020-10-18T08:52:27Z</time>
      </trkpt>
      <trkpt lat="44.09186" lon="6.1495">
        <ele>799</ele>
        <time>2020-10-18T08:52:28Z</time>
      </trkpt>
      <trkpt lat="44.09188" lon="6.14949">
        <ele>799.4</ele>
        <time>2020-10-18T08:52:29Z</time>
      </trkpt>
      <trkpt lat="44.09189" lon="6.14947">
        <ele>799.2</ele>
        <time>2020-10-18T08:52:30Z</time>
      </trkpt>
      <trkpt lat="44.0919" lon="6.14946">
        <ele>799.6</ele>
        <time>2020-10-18T08:52:31Z</time>
      </trkpt>
      <trkpt lat="44.09192" lon="6.14945">
        <ele>799.8</ele>
        <time>2020-10-18T08:52:32Z</time>
      </trkpt>
      <trkpt lat="44.09194" lon="6.14944">
        <ele>799.8</ele>
        <time>2020-10-18T08:52:33Z</time>
      </trkpt>
      <trkpt lat="44.09196" lon="6.14945">
        <ele>799.8</ele>
        <time>2020-10-18T08:52:34Z</time>
      </trkpt>
      <trkpt lat="44.09198" lon="6.14945">
        <ele>800</ele>
        <time>2020-10-18T08:52:35Z</time>
      </trkpt>
      <trkpt lat="44.092" lon="6.14946">
        <ele>800.2</ele>
        <time>2020-10-18T08:52:36Z</time>
      </trkpt>
      <trkpt lat="44.09202" lon="6.14947">
        <ele>800.2</ele>
        <time>2020-10-18T08:52:37Z</time>
      </trkpt>
      <trkpt lat="44.09204" lon="6.14948">
        <ele>800.4</ele>
        <time>2020-10-18T08:52:38Z</time>
      </trkpt>
      <trkpt lat="44.09206" lon="6.1495">
        <ele>800.6</ele>
        <time>2020-10-18T08:52:39Z</time>
      </trkpt>
      <trkpt lat="44.09207" lon="6.14952">
        <ele>800.8</ele>
        <time>2020-10-18T08:52:40Z</time>
      </trkpt>
      <trkpt lat="44.09208" lon="6.14954">
        <ele>801</ele>
        <time>2020-10-18T08:52:41Z</time>
      </trkpt>
      <trkpt lat="44.0921" lon="6.14956">
        <ele>801.2</ele>
        <time>2020-10-18T08:52:42Z</time>
      </trkpt>
      <trkpt lat="44.09211" lon="6.14959">
        <ele>801.4</ele>
        <time>2020-10-18T08:52:43Z</time>
      </trkpt>
      <trkpt lat="44.09212" lon="6.14961">
        <ele>801.8</ele>
        <time>2020-10-18T08:52:44Z</time>
      </trkpt>
      <trkpt lat="44.09213" lon="6.14964">
        <ele>801.8</ele>
        <time>2020-10-18T08:52:45Z</time>
      </trkpt>
      <trkpt lat="44.09213" lon="6.14967">
        <ele>802</ele>
        <time>2020-10-18T08:52:46Z</time>
      </trkpt>
      <trkpt lat="44.09214" lon="6.14969">
        <ele>802.2</ele>
        <time>2020-10-18T08:52:47Z</time>
      </trkpt>
      <trkpt lat="44.09214" lon="6.14972">
        <ele>802.4</ele>
        <time>2020-10-18T08:52:48Z</time>
      </trkpt>
      <trkpt lat="44.09215" lon="6.14975">
        <ele>802.6</ele>
        <time>2020-10-18T08:52:49Z</time>
      </trkpt>
      <trkpt lat="44.09216" lon="6.14977">
        <ele>802.8</ele>
        <time>2020-10-18T08:52:50Z</time>
      </trkpt>
      <trkpt lat="44.09217" lon="6.1498">
        <ele>802.8</ele>
        <time>2020-10-18T08:52:51Z</time>
      </trkpt>
      <trkpt lat="44.09219" lon="6.14982">
        <ele>803</ele>
        <time>2020-10-18T08:52:52Z</time>
      </trkpt>
      <trkpt lat="44.0922" lon="6.14984">
        <ele>803</ele>
        <time>2020-10-18T08:52:53Z</time>
      </trkpt>
      <trkpt lat="44.09222" lon="6.14986">
        <ele>803</ele>
        <time>2020-10-18T08:52:54Z</time>
      </trkpt>
      <trkpt lat="44.09224" lon="6.14988">
        <ele>803.2</ele>
        <time>2020-10-18T08:52:55Z</time>
      </trkpt>
      <trkpt lat="44.09225" lon="6.14991">
        <ele>803.4</ele>
        <time>2020-10-18T08:52:56Z</time>
      </trkpt>
      <trkpt lat="44.09227" lon="6.14993">
        <ele>803.4</ele>
        <time>2020-10-18T08:52:57Z</time>
      </trkpt>
      <trkpt lat="44.09229" lon="6.14996">
        <ele>803.8</ele>
        <time>2020-10-18T08:52:58Z</time>
      </trkpt>
      <trkpt lat="44.09231" lon="6.14999">
        <ele>804</ele>
        <time>2020-10-18T08:52:59Z</time>
      </trkpt>
      <trkpt lat="44.09233" lon="6.15002">
        <ele>804.4</ele>
        <time>2020-10-18T08:53:00Z</time>
      </trkpt>
      <trkpt lat="44.09234" lon="6.15005">
        <ele>804.6</ele>
        <time>2020-10-18T08:53:01Z</time>
      </trkpt>
      <trkpt lat="44.09236" lon="6.15008">
        <ele>804.8</ele>
        <time>2020-10-18T08:53:02Z</time>
      </trkpt>
      <trkpt lat="44.09238" lon="6.15012">
        <ele>804.8</ele>
        <time>2020-10-18T08:53:03Z</time>
      </trkpt>
      <trkpt lat="44.09239" lon="6.15015">
        <ele>805.2</ele>
        <time>2020-10-18T08:53:04Z</time>
      </trkpt>
      <trkpt lat="44.09241" lon="6.15018">
        <ele>805.4</ele>
        <time>2020-10-18T08:53:05Z</time>
      </trkpt>
      <trkpt lat="44.09243" lon="6.15022">
        <ele>805.4</ele>
        <time>2020-10-18T08:53:06Z</time>
      </trkpt>
      <trkpt lat="44.09244" lon="6.15025">
        <ele>805.4</ele>
        <time>2020-10-18T08:53:07Z</time>
      </trkpt>
      <trkpt lat="44.09246" lon="6.15028">
        <ele>805.6</ele>
        <time>2020-10-18T08:53:08Z</time>
      </trkpt>
      <trkpt lat="44.09247" lon="6.15032">
        <ele>805.4</ele>
        <time>2020-10-18T08:53:09Z</time>
      </trkpt>
      <trkpt lat="44.09249" lon="6.15035">
        <ele>805.6</ele>
        <time>2020-10-18T08:53:10Z</time>
      </trkpt>
      <trkpt lat="44.09251" lon="6.15038">
        <ele>805.6</ele>
        <time>2020-10-18T08:53:11Z</time>
      </trkpt>
      <trkpt lat="44.09253" lon="6.15041">
        <ele>805.8</ele>
        <time>2020-10-18T08:53:12Z</time>
      </trkpt>
      <trkpt lat="44.09254" lon="6.15044">
        <ele>805.8</ele>
        <time>2020-10-18T08:53:13Z</time>
      </trkpt>
      <trkpt lat="44.09256" lon="6.15047">
        <ele>806</ele>
        <time>2020-10-18T08:53:14Z</time>
      </trkpt>
      <trkpt lat="44.09257" lon="6.1505">
        <ele>806</ele>
        <time>2020-10-18T08:53:15Z</time>
      </trkpt>
      <trkpt lat="44.09258" lon="6.15053">
        <ele>806</ele>
        <time>2020-10-18T08:53:16Z</time>
      </trkpt>
      <trkpt lat="44.0926" lon="6.15056">
        <ele>806.2</ele>
        <time>2020-10-18T08:53:17Z</time>
      </trkpt>
      <trkpt lat="44.09261" lon="6.15059">
        <ele>806.2</ele>
        <time>2020-10-18T08:53:18Z</time>
      </trkpt>
      <trkpt lat="44.09263" lon="6.15062">
        <ele>806.4</ele>
        <time>2020-10-18T08:53:19Z</time>
      </trkpt>
      <trkpt lat="44.09264" lon="6.15065">
        <ele>806.4</ele>
        <time>2020-10-18T08:53:20Z</time>
      </trkpt>
      <trkpt lat="44.09266" lon="6.15069">
        <ele>806.8</ele>
        <time>2020-10-18T08:53:21Z</time>
      </trkpt>
      <trkpt lat="44.09267" lon="6.15072">
        <ele>806.8</ele>
        <time>2020-10-18T08:53:22Z</time>
      </trkpt>
      <trkpt lat="44.09269" lon="6.15075">
        <ele>807</ele>
        <time>2020-10-18T08:53:23Z</time>
      </trkpt>
      <trkpt lat="44.0927" lon="6.15079">
        <ele>807</ele>
        <time>2020-10-18T08:53:24Z</time>
      </trkpt>
      <trkpt lat="44.09272" lon="6.15082">
        <ele>807.2</ele>
        <time>2020-10-18T08:53:25Z</time>
      </trkpt>
      <trkpt lat="44.09273" lon="6.15086">
        <ele>807.4</ele>
        <time>2020-10-18T08:53:26Z</time>
      </trkpt>
      <trkpt lat="44.09274" lon="6.15089">
        <ele>807.6</ele>
        <time>2020-10-18T08:53:27Z</time>
      </trkpt>
      <trkpt lat="44.09275" lon="6.15092">
        <ele>807.6</ele>
        <time>2020-10-18T08:53:28Z</time>
      </trkpt>
      <trkpt lat="44.09277" lon="6.15096">
        <ele>807.8</ele>
        <time>2020-10-18T08:53:29Z</time>
      </trkpt>
      <trkpt lat="44.09278" lon="6.15099">
        <ele>808.2</ele>
        <time>2020-10-18T08:53:30Z</time>
      </trkpt>
      <trkpt lat="44.09279" lon="6.15102">
        <ele>808.2</ele>
        <time>2020-10-18T08:53:31Z</time>
      </trkpt>
      <trkpt lat="44.0928" lon="6.15105">
        <ele>808.6</ele>
        <time>2020-10-18T08:53:32Z</time>
      </trkpt>
      <trkpt lat="44.09281" lon="6.15108">
        <ele>808.8</ele>
        <time>2020-10-18T08:53:33Z</time>
      </trkpt>
      <trkpt lat="44.09282" lon="6.15111">
        <ele>808.6</ele>
        <time>2020-10-18T08:53:34Z</time>
      </trkpt>
      <trkpt lat="44.09283" lon="6.15114">
        <ele>808.6</ele>
        <time>2020-10-18T08:53:35Z</time>
      </trkpt>
      <trkpt lat="44.09284" lon="6.15117">
        <ele>808.8</ele>
        <time>2020-10-18T08:53:36Z</time>
      </trkpt>
      <trkpt lat="44.09285" lon="6.1512">
        <ele>809.2</ele>
        <time>2020-10-18T08:53:37Z</time>
      </trkpt>
      <trkpt lat="44.09287" lon="6.15123">
        <ele>809.6</ele>
        <time>2020-10-18T08:53:38Z</time>
      </trkpt>
      <trkpt lat="44.09288" lon="6.15126">
        <ele>810</ele>
        <time>2020-10-18T08:53:39Z</time>
      </trkpt>
      <trkpt lat="44.0929" lon="6.1513">
        <ele>810</ele>
        <time>2020-10-18T08:53:40Z</time>
      </trkpt>
      <trkpt lat="44.09291" lon="6.15133">
        <ele>810.2</ele>
        <time>2020-10-18T08:53:41Z</time>
      </trkpt>
      <trkpt lat="44.09292" lon="6.15137">
        <ele>810.4</ele>
        <time>2020-10-18T08:53:42Z</time>
      </trkpt>
      <trkpt lat="44.09293" lon="6.1514">
        <ele>810.6</ele>
        <time>2020-10-18T08:53:43Z</time>
      </trkpt>
      <trkpt lat="44.09294" lon="6.15144">
        <ele>810.8</ele>
        <time>2020-10-18T08:53:44Z</time>
      </trkpt>
      <trkpt lat="44.09295" lon="6.15148">
        <ele>811</ele>
        <time>2020-10-18T08:53:45Z</time>
      </trkpt>
      <trkpt lat="44.09296" lon="6.15151">
        <ele>811</ele>
        <time>2020-10-18T08:53:46Z</time>
      </trkpt>
      <trkpt lat="44.09297" lon="6.15155">
        <ele>811</ele>
        <time>2020-10-18T08:53:47Z</time>
      </trkpt>
      <trkpt lat="44.09299" lon="6.15158">
        <ele>811.2</ele>
        <time>2020-10-18T08:53:48Z</time>
      </trkpt>
      <trkpt lat="44.093" lon="6.15161">
        <ele>811.6</ele>
        <time>2020-10-18T08:53:49Z</time>
      </trkpt>
      <trkpt lat="44.09301" lon="6.15164">
        <ele>811.6</ele>
        <time>2020-10-18T08:53:50Z</time>
      </trkpt>
      <trkpt lat="44.09303" lon="6.15167">
        <ele>811.8</ele>
        <time>2020-10-18T08:53:51Z</time>
      </trkpt>
      <trkpt lat="44.09304" lon="6.1517">
        <ele>812</ele>
        <time>2020-10-18T08:53:52Z</time>
      </trkpt>
      <trkpt lat="44.09306" lon="6.15173">
        <ele>812</ele>
        <time>2020-10-18T08:53:53Z</time>
      </trkpt>
      <trkpt lat="44.09308" lon="6.15175">
        <ele>812.2</ele>
        <time>2020-10-18T08:53:54Z</time>
      </trkpt>
      <trkpt lat="44.09309" lon="6.15178">
        <ele>812.6</ele>
        <time>2020-10-18T08:53:55Z</time>
      </trkpt>
      <trkpt lat="44.09311" lon="6.1518">
        <ele>812.6</ele>
        <time>2020-10-18T08:53:56Z</time>
      </trkpt>
      <trkpt lat="44.09312" lon="6.15183">
        <ele>812.6</ele>
        <time>2020-10-18T08:53:57Z</time>
      </trkpt>
      <trkpt lat="44.09314" lon="6.15185">
        <ele>812.8</ele>
        <time>2020-10-18T08:53:58Z</time>
      </trkpt>
      <trkpt lat="44.09316" lon="6.15188">
        <ele>813</ele>
        <time>2020-10-18T08:53:59Z</time>
      </trkpt>
      <trkpt lat="44.09317" lon="6.1519">
        <ele>813.2</ele>
        <time>2020-10-18T08:54:00Z</time>
      </trkpt>
      <trkpt lat="44.09319" lon="6.15193">
        <ele>813.6</ele>
        <time>2020-10-18T08:54:01Z</time>
      </trkpt>
      <trkpt lat="44.09321" lon="6.15196">
        <ele>814</ele>
        <time>2020-10-18T08:54:02Z</time>
      </trkpt>
      <trkpt lat="44.09322" lon="6.15199">
        <ele>814</ele>
        <time>2020-10-18T08:54:03Z</time>
      </trkpt>
      <trkpt lat="44.09324" lon="6.15202">
        <ele>814.2</ele>
        <time>2020-10-18T08:54:04Z</time>
      </trkpt>
      <trkpt lat="44.09325" lon="6.15205">
        <ele>814.6</ele>
        <time>2020-10-18T08:54:05Z</time>
      </trkpt>
      <trkpt lat="44.09326" lon="6.15208">
        <ele>814.8</ele>
        <time>2020-10-18T08:54:06Z</time>
      </trkpt>
      <trkpt lat="44.09328" lon="6.1521">
        <ele>815</ele>
        <time>2020-10-18T08:54:07Z</time>
      </trkpt>
      <trkpt lat="44.09329" lon="6.15212">
        <ele>815.2</ele>
        <time>2020-10-18T08:54:08Z</time>
      </trkpt>
      <trkpt lat="44.0933" lon="6.15215">
        <ele>815.4</ele>
        <time>2020-10-18T08:54:09Z</time>
      </trkpt>
      <trkpt lat="44.09331" lon="6.15217">
        <ele>815.4</ele>
        <time>2020-10-18T08:54:10Z</time>
      </trkpt>
      <trkpt lat="44.09332" lon="6.1522">
        <ele>815.6</ele>
        <time>2020-10-18T08:54:11Z</time>
      </trkpt>
      <trkpt lat="44.09333" lon="6.15222">
        <ele>815.4</ele>
        <time>2020-10-18T08:54:12Z</time>
      </trkpt>
      <trkpt lat="44.09334" lon="6.15224">
        <ele>815.6</ele>
        <time>2020-10-18T08:54:13Z</time>
      </trkpt>
      <trkpt lat="44.09336" lon="6.15227">
        <ele>816.2</ele>
        <time>2020-10-18T08:54:14Z</time>
      </trkpt>
      <trkpt lat="44.09337" lon="6.15229">
        <ele>816.2</ele>
        <time>2020-10-18T08:54:15Z</time>
      </trkpt>
      <trkpt lat="44.09339" lon="6.15231">
        <ele>816.4</ele>
        <time>2020-10-18T08:54:16Z</time>
      </trkpt>
      <trkpt lat="44.0934" lon="6.15234">
        <ele>816.8</ele>
        <time>2020-10-18T08:54:17Z</time>
      </trkpt>
      <trkpt lat="44.09342" lon="6.15236">
        <ele>816.8</ele>
        <time>2020-10-18T08:54:18Z</time>
      </trkpt>
      <trkpt lat="44.09343" lon="6.15239">
        <ele>817.2</ele>
        <time>2020-10-18T08:54:19Z</time>
      </trkpt>
      <trkpt lat="44.09344" lon="6.15241">
        <ele>817.4</ele>
        <time>2020-10-18T08:54:20Z</time>
      </trkpt>
      <trkpt lat="44.09346" lon="6.15244">
        <ele>817.6</ele>
        <time>2020-10-18T08:54:21Z</time>
      </trkpt>
      <trkpt lat="44.09347" lon="6.15246">
        <ele>817.8</ele>
        <time>2020-10-18T08:54:22Z</time>
      </trkpt>
      <trkpt lat="44.09349" lon="6.15249">
        <ele>817.8</ele>
        <time>2020-10-18T08:54:23Z</time>
      </trkpt>
      <trkpt lat="44.0935" lon="6.15251">
        <ele>818</ele>
        <time>2020-10-18T08:54:24Z</time>
      </trkpt>
      <trkpt lat="44.09352" lon="6.15253">
        <ele>818.2</ele>
        <time>2020-10-18T08:54:25Z</time>
      </trkpt>
      <trkpt lat="44.09354" lon="6.15255">
        <ele>818.4</ele>
        <time>2020-10-18T08:54:26Z</time>
      </trkpt>
      <trkpt lat="44.09356" lon="6.15257">
        <ele>818.6</ele>
        <time>2020-10-18T08:54:27Z</time>
      </trkpt>
      <trkpt lat="44.09357" lon="6.15259">
        <ele>818.8</ele>
        <time>2020-10-18T08:54:28Z</time>
      </trkpt>
      <trkpt lat="44.09359" lon="6.1526">
        <ele>819</ele>
        <time>2020-10-18T08:54:29Z</time>
      </trkpt>
      <trkpt lat="44.0936" lon="6.15261">
        <ele>819.2</ele>
        <time>2020-10-18T08:54:30Z</time>
      </trkpt>
      <trkpt lat="44.09362" lon="6.15263">
        <ele>819.4</ele>
        <time>2020-10-18T08:54:31Z</time>
      </trkpt>
      <trkpt lat="44.09364" lon="6.15264">
        <ele>819.4</ele>
        <time>2020-10-18T08:54:32Z</time>
      </trkpt>
      <trkpt lat="44.09366" lon="6.15264">
        <ele>819.6</ele>
        <time>2020-10-18T08:54:33Z</time>
      </trkpt>
      <trkpt lat="44.09369" lon="6.15265">
        <ele>820</ele>
        <time>2020-10-18T08:54:34Z</time>
      </trkpt>
      <trkpt lat="44.09371" lon="6.15266">
        <ele>820.4</ele>
        <time>2020-10-18T08:54:35Z</time>
      </trkpt>
      <trkpt lat="44.09373" lon="6.15267">
        <ele>820.6</ele>
        <time>2020-10-18T08:54:36Z</time>
      </trkpt>
      <trkpt lat="44.09375" lon="6.15268">
        <ele>820.8</ele>
        <time>2020-10-18T08:54:37Z</time>
      </trkpt>
      <trkpt lat="44.09377" lon="6.15268">
        <ele>820.8</ele>
        <time>2020-10-18T08:54:38Z</time>
      </trkpt>
      <trkpt lat="44.09379" lon="6.15267">
        <ele>821.4</ele>
        <time>2020-10-18T08:54:39Z</time>
      </trkpt>
      <trkpt lat="44.09381" lon="6.15266">
        <ele>821.4</ele>
        <time>2020-10-18T08:54:40Z</time>
      </trkpt>
      <trkpt lat="44.09383" lon="6.15265">
        <ele>821.4</ele>
        <time>2020-10-18T08:54:41Z</time>
      </trkpt>
      <trkpt lat="44.09385" lon="6.15264">
        <ele>821.8</ele>
        <time>2020-10-18T08:54:42Z</time>
      </trkpt>
      <trkpt lat="44.09386" lon="6.15262">
        <ele>822</ele>
        <time>2020-10-18T08:54:43Z</time>
      </trkpt>
      <trkpt lat="44.09388" lon="6.1526">
        <ele>822.2</ele>
        <time>2020-10-18T08:54:44Z</time>
      </trkpt>
      <trkpt lat="44.09389" lon="6.15258">
        <ele>822.6</ele>
        <time>2020-10-18T08:54:45Z</time>
      </trkpt>
      <trkpt lat="44.0939" lon="6.15256">
        <ele>823</ele>
        <time>2020-10-18T08:54:46Z</time>
      </trkpt>
      <trkpt lat="44.09391" lon="6.15253">
        <ele>823.2</ele>
        <time>2020-10-18T08:54:47Z</time>
      </trkpt>
      <trkpt lat="44.09392" lon="6.15251">
        <ele>823.4</ele>
        <time>2020-10-18T08:54:48Z</time>
      </trkpt>
      <trkpt lat="44.09392" lon="6.15248">
        <ele>823.8</ele>
        <time>2020-10-18T08:54:49Z</time>
      </trkpt>
      <trkpt lat="44.09393" lon="6.15245">
        <ele>824</ele>
        <time>2020-10-18T08:54:50Z</time>
      </trkpt>
      <trkpt lat="44.09392" lon="6.15242">
        <ele>824.2</ele>
        <time>2020-10-18T08:54:51Z</time>
      </trkpt>
      <trkpt lat="44.09392" lon="6.15239">
        <ele>824.6</ele>
        <time>2020-10-18T08:54:52Z</time>
      </trkpt>
      <trkpt lat="44.09392" lon="6.15236">
        <ele>824.8</ele>
        <time>2020-10-18T08:54:53Z</time>
      </trkpt>
      <trkpt lat="44.09392" lon="6.15234">
        <ele>825</ele>
        <time>2020-10-18T08:54:54Z</time>
      </trkpt>
      <trkpt lat="44.09391" lon="6.15231">
        <ele>825.2</ele>
        <time>2020-10-18T08:54:55Z</time>
      </trkpt>
      <trkpt lat="44.09391" lon="6.15228">
        <ele>825.6</ele>
        <time>2020-10-18T08:54:56Z</time>
      </trkpt>
      <trkpt lat="44.0939" lon="6.15225">
        <ele>825.8</ele>
        <time>2020-10-18T08:54:57Z</time>
      </trkpt>
      <trkpt lat="44.0939" lon="6.15223">
        <ele>826.2</ele>
        <time>2020-10-18T08:54:58Z</time>
      </trkpt>
      <trkpt lat="44.09389" lon="6.1522">
        <ele>826.4</ele>
        <time>2020-10-18T08:54:59Z</time>
      </trkpt>
      <trkpt lat="44.09389" lon="6.15217">
        <ele>826.4</ele>
        <time>2020-10-18T08:55:00Z</time>
      </trkpt>
      <trkpt lat="44.09388" lon="6.15214">
        <ele>826.6</ele>
        <time>2020-10-18T08:55:01Z</time>
      </trkpt>
      <trkpt lat="44.09388" lon="6.15212">
        <ele>827</ele>
        <time>2020-10-18T08:55:02Z</time>
      </trkpt>
      <trkpt lat="44.09388" lon="6.15209">
        <ele>827.2</ele>
        <time>2020-10-18T08:55:03Z</time>
      </trkpt>
      <trkpt lat="44.09388" lon="6.15206">
        <ele>827.4</ele>
        <time>2020-10-18T08:55:04Z</time>
      </trkpt>
      <trkpt lat="44.09388" lon="6.15204">
        <ele>827.8</ele>
        <time>2020-10-18T08:55:05Z</time>
      </trkpt>
      <trkpt lat="44.09388" lon="6.15201">
        <ele>828</ele>
        <time>2020-10-18T08:55:06Z</time>
      </trkpt>
      <trkpt lat="44.09388" lon="6.15198">
        <ele>828.2</ele>
        <time>2020-10-18T08:55:07Z</time>
      </trkpt>
      <trkpt lat="44.09388" lon="6.15195">
        <ele>828.2</ele>
        <time>2020-10-18T08:55:08Z</time>
      </trkpt>
      <trkpt lat="44.09387" lon="6.15192">
        <ele>828.4</ele>
        <time>2020-10-18T08:55:09Z</time>
      </trkpt>
      <trkpt lat="44.09387" lon="6.15189">
        <ele>828.6</ele>
        <time>2020-10-18T08:55:10Z</time>
      </trkpt>
      <trkpt lat="44.09387" lon="6.15186">
        <ele>828.8</ele>
        <time>2020-10-18T08:55:11Z</time>
      </trkpt>
      <trkpt lat="44.09387" lon="6.15184">
        <ele>829.2</ele>
        <time>2020-10-18T08:55:12Z</time>
      </trkpt>
      <trkpt lat="44.09387" lon="6.15181">
        <ele>829.8</ele>
        <time>2020-10-18T08:55:13Z</time>
      </trkpt>
      <trkpt lat="44.09386" lon="6.15178">
        <ele>830</ele>
        <time>2020-10-18T08:55:14Z</time>
      </trkpt>
      <trkpt lat="44.09386" lon="6.15175">
        <ele>830.2</ele>
        <time>2020-10-18T08:55:15Z</time>
      </trkpt>
      <trkpt lat="44.09386" lon="6.15172">
        <ele>830.4</ele>
        <time>2020-10-18T08:55:16Z</time>
      </trkpt>
      <trkpt lat="44.09386" lon="6.15169">
        <ele>830.6</ele>
        <time>2020-10-18T08:55:17Z</time>
      </trkpt>
      <trkpt lat="44.09386" lon="6.15166">
        <ele>830.8</ele>
        <time>2020-10-18T08:55:18Z</time>
      </trkpt>
      <trkpt lat="44.09385" lon="6.15163">
        <ele>831</ele>
        <time>2020-10-18T08:55:19Z</time>
      </trkpt>
      <trkpt lat="44.09385" lon="6.1516">
        <ele>831</ele>
        <time>2020-10-18T08:55:20Z</time>
      </trkpt>
      <trkpt lat="44.09384" lon="6.15157">
        <ele>831.2</ele>
        <time>2020-10-18T08:55:21Z</time>
      </trkpt>
      <trkpt lat="44.09384" lon="6.15154">
        <ele>831.6</ele>
        <time>2020-10-18T08:55:22Z</time>
      </trkpt>
      <trkpt lat="44.09383" lon="6.15151">
        <ele>831.8</ele>
        <time>2020-10-18T08:55:23Z</time>
      </trkpt>
      <trkpt lat="44.09383" lon="6.15148">
        <ele>831.8</ele>
        <time>2020-10-18T08:55:24Z</time>
      </trkpt>
      <trkpt lat="44.09382" lon="6.15144">
        <ele>832</ele>
        <time>2020-10-18T08:55:25Z</time>
      </trkpt>
      <trkpt lat="44.09382" lon="6.15141">
        <ele>832.2</ele>
        <time>2020-10-18T08:55:26Z</time>
      </trkpt>
      <trkpt lat="44.09381" lon="6.15139">
        <ele>832.2</ele>
        <time>2020-10-18T08:55:27Z</time>
      </trkpt>
      <trkpt lat="44.09381" lon="6.15136">
        <ele>832.4</ele>
        <time>2020-10-18T08:55:28Z</time>
      </trkpt>
      <trkpt lat="44.0938" lon="6.15133">
        <ele>832.4</ele>
        <time>2020-10-18T08:55:29Z</time>
      </trkpt>
      <trkpt lat="44.09379" lon="6.1513">
        <ele>832.4</ele>
        <time>2020-10-18T08:55:30Z</time>
      </trkpt>
      <trkpt lat="44.09378" lon="6.15127">
        <ele>832.6</ele>
        <time>2020-10-18T08:55:31Z</time>
      </trkpt>
      <trkpt lat="44.09377" lon="6.15125">
        <ele>832.6</ele>
        <time>2020-10-18T08:55:32Z</time>
      </trkpt>
      <trkpt lat="44.09376" lon="6.15122">
        <ele>833</ele>
        <time>2020-10-18T08:55:33Z</time>
      </trkpt>
      <trkpt lat="44.09376" lon="6.15119">
        <ele>833</ele>
        <time>2020-10-18T08:55:34Z</time>
      </trkpt>
      <trkpt lat="44.09375" lon="6.15116">
        <ele>833</ele>
        <time>2020-10-18T08:55:35Z</time>
      </trkpt>
      <trkpt lat="44.09374" lon="6.15113">
        <ele>833.2</ele>
        <time>2020-10-18T08:55:36Z</time>
      </trkpt>
      <trkpt lat="44.09373" lon="6.1511">
        <ele>833.4</ele>
        <time>2020-10-18T08:55:37Z</time>
      </trkpt>
      <trkpt lat="44.09372" lon="6.15107">
        <ele>833.6</ele>
        <time>2020-10-18T08:55:38Z</time>
      </trkpt>
      <trkpt lat="44.0937" lon="6.15104">
        <ele>833.6</ele>
        <time>2020-10-18T08:55:39Z</time>
      </trkpt>
      <trkpt lat="44.09369" lon="6.15101">
        <ele>833.8</ele>
        <time>2020-10-18T08:55:40Z</time>
      </trkpt>
      <trkpt lat="44.09368" lon="6.15097">
        <ele>833.8</ele>
        <time>2020-10-18T08:55:41Z</time>
      </trkpt>
      <trkpt lat="44.09367" lon="6.15094">
        <ele>834</ele>
        <time>2020-10-18T08:55:42Z</time>
      </trkpt>
      <trkpt lat="44.09366" lon="6.1509">
        <ele>834.2</ele>
        <time>2020-10-18T08:55:43Z</time>
      </trkpt>
      <trkpt lat="44.09365" lon="6.15087">
        <ele>834.2</ele>
        <time>2020-10-18T08:55:44Z</time>
      </trkpt>
      <trkpt lat="44.09364" lon="6.15083">
        <ele>834.4</ele>
        <time>2020-10-18T08:55:45Z</time>
      </trkpt>
      <trkpt lat="44.09363" lon="6.1508">
        <ele>834.6</ele>
        <time>2020-10-18T08:55:46Z</time>
      </trkpt>
      <trkpt lat="44.09361" lon="6.15077">
        <ele>834.8</ele>
        <time>2020-10-18T08:55:47Z</time>
      </trkpt>
      <trkpt lat="44.0936" lon="6.15073">
        <ele>834.8</ele>
        <time>2020-10-18T08:55:48Z</time>
      </trkpt>
      <trkpt lat="44.09359" lon="6.15069">
        <ele>835</ele>
        <time>2020-10-18T08:55:49Z</time>
      </trkpt>
      <trkpt lat="44.09358" lon="6.15065">
        <ele>835</ele>
        <time>2020-10-18T08:55:50Z</time>
      </trkpt>
      <trkpt lat="44.09357" lon="6.15061">
        <ele>835</ele>
        <time>2020-10-18T08:55:51Z</time>
      </trkpt>
      <trkpt lat="44.09356" lon="6.15057">
        <ele>835.2</ele>
        <time>2020-10-18T08:55:52Z</time>
      </trkpt>
      <trkpt lat="44.09356" lon="6.15053">
        <ele>835.2</ele>
        <time>2020-10-18T08:55:53Z</time>
      </trkpt>
      <trkpt lat="44.09355" lon="6.15049">
        <ele>835.6</ele>
        <time>2020-10-18T08:55:54Z</time>
      </trkpt>
      <trkpt lat="44.09354" lon="6.15044">
        <ele>835.4</ele>
        <time>2020-10-18T08:55:55Z</time>
      </trkpt>
      <trkpt lat="44.09353" lon="6.1504">
        <ele>835.8</ele>
        <time>2020-10-18T08:55:56Z</time>
      </trkpt>
      <trkpt lat="44.09353" lon="6.15035">
        <ele>835.8</ele>
        <time>2020-10-18T08:55:57Z</time>
      </trkpt>
      <trkpt lat="44.09352" lon="6.1503">
        <ele>835.8</ele>
        <time>2020-10-18T08:55:58Z</time>
      </trkpt>
      <trkpt lat="44.09352" lon="6.15024">
        <ele>836</ele>
        <time>2020-10-18T08:55:59Z</time>
      </trkpt>
      <trkpt lat="44.09351" lon="6.15019">
        <ele>836</ele>
        <time>2020-10-18T08:56:00Z</time>
      </trkpt>
      <trkpt lat="44.0935" lon="6.15008">
        <ele>836</ele>
        <time>2020-10-18T08:56:02Z</time>
      </trkpt>
      <trkpt lat="44.09349" lon="6.15002">
        <ele>836</ele>
        <time>2020-10-18T08:56:03Z</time>
      </trkpt>
      <trkpt lat="44.09348" lon="6.14997">
        <ele>836</ele>
        <time>2020-10-18T08:56:04Z</time>
      </trkpt>
      <trkpt lat="44.09348" lon="6.14991">
        <ele>836</ele>
        <time>2020-10-18T08:56:05Z</time>
      </trkpt>
      <trkpt lat="44.09347" lon="6.14986">
        <ele>836</ele>
        <time>2020-10-18T08:56:06Z</time>
      </trkpt>
      <trkpt lat="44.09347" lon="6.1498">
        <ele>835.8</ele>
        <time>2020-10-18T08:56:07Z</time>
      </trkpt>
      <trkpt lat="44.09346" lon="6.14975">
        <ele>836</ele>
        <time>2020-10-18T08:56:08Z</time>
      </trkpt>
      <trkpt lat="44.09345" lon="6.1497">
        <ele>835.8</ele>
        <time>2020-10-18T08:56:09Z</time>
      </trkpt>
      <trkpt lat="44.09345" lon="6.14965">
        <ele>835.8</ele>
        <time>2020-10-18T08:56:10Z</time>
      </trkpt>
      <trkpt lat="44.09344" lon="6.14959">
        <ele>835.8</ele>
        <time>2020-10-18T08:56:11Z</time>
      </trkpt>
      <trkpt lat="44.09343" lon="6.14954">
        <ele>835.6</ele>
        <time>2020-10-18T08:56:12Z</time>
      </trkpt>
      <trkpt lat="44.09343" lon="6.14949">
        <ele>835.6</ele>
        <time>2020-10-18T08:56:13Z</time>
      </trkpt>
      <trkpt lat="44.09344" lon="6.14944">
        <ele>835.6</ele>
        <time>2020-10-18T08:56:14Z</time>
      </trkpt>
      <trkpt lat="44.09346" lon="6.14941">
        <ele>835.6</ele>
        <time>2020-10-18T08:56:15Z</time>
      </trkpt>
      <trkpt lat="44.09348" lon="6.14939">
        <ele>835.4</ele>
        <time>2020-10-18T08:56:16Z</time>
      </trkpt>
      <trkpt lat="44.0935" lon="6.14938">
        <ele>835.6</ele>
        <time>2020-10-18T08:56:17Z</time>
      </trkpt>
      <trkpt lat="44.09353" lon="6.14937">
        <ele>835.6</ele>
        <time>2020-10-18T08:56:18Z</time>
      </trkpt>
      <trkpt lat="44.09355" lon="6.14936">
        <ele>835.6</ele>
        <time>2020-10-18T08:56:19Z</time>
      </trkpt>
      <trkpt lat="44.09357" lon="6.14934">
        <ele>835.6</ele>
        <time>2020-10-18T08:56:20Z</time>
      </trkpt>
      <trkpt lat="44.09359" lon="6.14933">
        <ele>835.6</ele>
        <time>2020-10-18T08:56:21Z</time>
      </trkpt>
      <trkpt lat="44.09361" lon="6.14932">
        <ele>835.6</ele>
        <time>2020-10-18T08:56:22Z</time>
      </trkpt>
      <trkpt lat="44.09363" lon="6.14931">
        <ele>835.4</ele>
        <time>2020-10-18T08:56:23Z</time>
      </trkpt>
      <trkpt lat="44.09364" lon="6.1493">
        <ele>835.6</ele>
        <time>2020-10-18T08:56:24Z</time>
      </trkpt>
      <trkpt lat="44.09366" lon="6.14929">
        <ele>836</ele>
        <time>2020-10-18T08:56:25Z</time>
      </trkpt>
      <trkpt lat="44.09367" lon="6.14928">
        <ele>836.2</ele>
        <time>2020-10-18T08:56:26Z</time>
      </trkpt>
      <trkpt lat="44.09369" lon="6.14926">
        <ele>836.4</ele>
        <time>2020-10-18T08:56:27Z</time>
      </trkpt>
      <trkpt lat="44.09371" lon="6.14925">
        <ele>836.8</ele>
        <time>2020-10-18T08:56:28Z</time>
      </trkpt>
      <trkpt lat="44.09373" lon="6.14923">
        <ele>837</ele>
        <time>2020-10-18T08:56:29Z</time>
      </trkpt>
      <trkpt lat="44.09374" lon="6.14921">
        <ele>837</ele>
        <time>2020-10-18T08:56:30Z</time>
      </trkpt>
      <trkpt lat="44.09375" lon="6.14919">
        <ele>837.4</ele>
        <time>2020-10-18T08:56:31Z</time>
      </trkpt>
      <trkpt lat="44.09377" lon="6.14917">
        <ele>837.6</ele>
        <time>2020-10-18T08:56:32Z</time>
      </trkpt>
      <trkpt lat="44.09379" lon="6.14915">
        <ele>838</ele>
        <time>2020-10-18T08:56:33Z</time>
      </trkpt>
      <trkpt lat="44.0938" lon="6.14914">
        <ele>838.4</ele>
        <time>2020-10-18T08:56:34Z</time>
      </trkpt>
      <trkpt lat="44.09381" lon="6.14912">
        <ele>838.6</ele>
        <time>2020-10-18T08:56:35Z</time>
      </trkpt>
      <trkpt lat="44.09383" lon="6.1491">
        <ele>839</ele>
        <time>2020-10-18T08:56:36Z</time>
      </trkpt>
      <trkpt lat="44.09384" lon="6.14909">
        <ele>839.4</ele>
        <time>2020-10-18T08:56:37Z</time>
      </trkpt>
      <trkpt lat="44.09385" lon="6.14907">
        <ele>839.6</ele>
        <time>2020-10-18T08:56:38Z</time>
      </trkpt>
      <trkpt lat="44.09386" lon="6.14905">
        <ele>840</ele>
        <time>2020-10-18T08:56:39Z</time>
      </trkpt>
      <trkpt lat="44.09386" lon="6.14903">
        <ele>840.4</ele>
        <time>2020-10-18T08:56:40Z</time>
      </trkpt>
      <trkpt lat="44.09387" lon="6.14901">
        <ele>840.4</ele>
        <time>2020-10-18T08:56:41Z</time>
      </trkpt>
      <trkpt lat="44.09386" lon="6.14898">
        <ele>840.8</ele>
        <time>2020-10-18T08:56:42Z</time>
      </trkpt>
      <trkpt lat="44.09387" lon="6.14896">
        <ele>841.2</ele>
        <time>2020-10-18T08:56:43Z</time>
      </trkpt>
      <trkpt lat="44.09388" lon="6.14894">
        <ele>841.4</ele>
        <time>2020-10-18T08:56:44Z</time>
      </trkpt>
      <trkpt lat="44.09389" lon="6.14892">
        <ele>841.6</ele>
        <time>2020-10-18T08:56:45Z</time>
      </trkpt>
      <trkpt lat="44.09389" lon="6.14889">
        <ele>842</ele>
        <time>2020-10-18T08:56:46Z</time>
      </trkpt>
      <trkpt lat="44.09389" lon="6.14887">
        <ele>842.2</ele>
        <time>2020-10-18T08:56:47Z</time>
      </trkpt>
      <trkpt lat="44.0939" lon="6.14885">
        <ele>842.8</ele>
        <time>2020-10-18T08:56:48Z</time>
      </trkpt>
      <trkpt lat="44.0939" lon="6.14882">
        <ele>842.8</ele>
        <time>2020-10-18T08:56:49Z</time>
      </trkpt>
      <trkpt lat="44.09391" lon="6.1488">
        <ele>843</ele>
        <time>2020-10-18T08:56:50Z</time>
      </trkpt>
      <trkpt lat="44.09391" lon="6.14878">
        <ele>843.2</ele>
        <time>2020-10-18T08:56:51Z</time>
      </trkpt>
      <trkpt lat="44.09392" lon="6.14875">
        <ele>843.4</ele>
        <time>2020-10-18T08:56:52Z</time>
      </trkpt>
      <trkpt lat="44.09392" lon="6.14873">
        <ele>843.6</ele>
        <time>2020-10-18T08:56:53Z</time>
      </trkpt>
      <trkpt lat="44.09393" lon="6.1487">
        <ele>844</ele>
        <time>2020-10-18T08:56:54Z</time>
      </trkpt>
      <trkpt lat="44.09393" lon="6.14867">
        <ele>844.2</ele>
        <time>2020-10-18T08:56:55Z</time>
      </trkpt>
      <trkpt lat="44.09393" lon="6.14865">
        <ele>844.4</ele>
        <time>2020-10-18T08:56:56Z</time>
      </trkpt>
      <trkpt lat="44.09393" lon="6.14863">
        <ele>845</ele>
        <time>2020-10-18T08:56:57Z</time>
      </trkpt>
      <trkpt lat="44.09394" lon="6.1486">
        <ele>845</ele>
        <time>2020-10-18T08:56:58Z</time>
      </trkpt>
      <trkpt lat="44.09394" lon="6.14858">
        <ele>845.4</ele>
        <time>2020-10-18T08:56:59Z</time>
      </trkpt>
      <trkpt lat="44.09394" lon="6.14856">
        <ele>845.6</ele>
        <time>2020-10-18T08:57:00Z</time>
      </trkpt>
      <trkpt lat="44.09395" lon="6.14854">
        <ele>845.6</ele>
        <time>2020-10-18T08:57:01Z</time>
      </trkpt>
      <trkpt lat="44.09395" lon="6.14852">
        <ele>845.8</ele>
        <time>2020-10-18T08:57:02Z</time>
      </trkpt>
      <trkpt lat="44.09396" lon="6.1485">
        <ele>846</ele>
        <time>2020-10-18T08:57:03Z</time>
      </trkpt>
      <trkpt lat="44.09396" lon="6.14849">
        <ele>846.4</ele>
        <time>2020-10-18T08:57:04Z</time>
      </trkpt>
      <trkpt lat="44.09396" lon="6.14847">
        <ele>846.6</ele>
        <time>2020-10-18T08:57:05Z</time>
      </trkpt>
      <trkpt lat="44.09397" lon="6.14845">
        <ele>846.8</ele>
        <time>2020-10-18T08:57:06Z</time>
      </trkpt>
      <trkpt lat="44.09397" lon="6.14843">
        <ele>847.2</ele>
        <time>2020-10-18T08:57:07Z</time>
      </trkpt>
      <trkpt lat="44.09398" lon="6.14841">
        <ele>847.4</ele>
        <time>2020-10-18T08:57:08Z</time>
      </trkpt>
      <trkpt lat="44.09397" lon="6.14838">
        <ele>847.6</ele>
        <time>2020-10-18T08:57:09Z</time>
      </trkpt>
      <trkpt lat="44.09397" lon="6.14835">
        <ele>847.6</ele>
        <time>2020-10-18T08:57:10Z</time>
      </trkpt>
      <trkpt lat="44.09398" lon="6.14833">
        <ele>848</ele>
        <time>2020-10-18T08:57:11Z</time>
      </trkpt>
      <trkpt lat="44.09398" lon="6.14831">
        <ele>848.6</ele>
        <time>2020-10-18T08:57:12Z</time>
      </trkpt>
      <trkpt lat="44.09398" lon="6.14829">
        <ele>848.8</ele>
        <time>2020-10-18T08:57:13Z</time>
      </trkpt>
      <trkpt lat="44.09398" lon="6.14827">
        <ele>849</ele>
        <time>2020-10-18T08:57:14Z</time>
      </trkpt>
      <trkpt lat="44.09399" lon="6.14825">
        <ele>849.2</ele>
        <time>2020-10-18T08:57:15Z</time>
      </trkpt>
      <trkpt lat="44.09399" lon="6.14823">
        <ele>849.4</ele>
        <time>2020-10-18T08:57:16Z</time>
      </trkpt>
      <trkpt lat="44.094" lon="6.14821">
        <ele>849.8</ele>
        <time>2020-10-18T08:57:17Z</time>
      </trkpt>
      <trkpt lat="44.094" lon="6.14819">
        <ele>850.2</ele>
        <time>2020-10-18T08:57:18Z</time>
      </trkpt>
      <trkpt lat="44.094" lon="6.14816">
        <ele>850.6</ele>
        <time>2020-10-18T08:57:19Z</time>
      </trkpt>
      <trkpt lat="44.094" lon="6.14814">
        <ele>850.6</ele>
        <time>2020-10-18T08:57:20Z</time>
      </trkpt>
      <trkpt lat="44.094" lon="6.14812">
        <ele>850.6</ele>
        <time>2020-10-18T08:57:21Z</time>
      </trkpt>
      <trkpt lat="44.094" lon="6.1481">
        <ele>851</ele>
        <time>2020-10-18T08:57:22Z</time>
      </trkpt>
      <trkpt lat="44.094" lon="6.14808">
        <ele>851</ele>
        <time>2020-10-18T08:57:23Z</time>
      </trkpt>
      <trkpt lat="44.094" lon="6.14807">
        <ele>851.4</ele>
        <time>2020-10-18T08:57:24Z</time>
      </trkpt>
      <trkpt lat="44.094" lon="6.14805">
        <ele>851.6</ele>
        <time>2020-10-18T08:57:25Z</time>
      </trkpt>
      <trkpt lat="44.09401" lon="6.14803">
        <ele>851.8</ele>
        <time>2020-10-18T08:57:26Z</time>
      </trkpt>
      <trkpt lat="44.09401" lon="6.14801">
        <ele>851.8</ele>
        <time>2020-10-18T08:57:27Z</time>
      </trkpt>
      <trkpt lat="44.09401" lon="6.14799">
        <ele>852</ele>
        <time>2020-10-18T08:57:28Z</time>
      </trkpt>
      <trkpt lat="44.09401" lon="6.14797">
        <ele>852.2</ele>
        <time>2020-10-18T08:57:29Z</time>
      </trkpt>
      <trkpt lat="44.09401" lon="6.14795">
        <ele>852.4</ele>
        <time>2020-10-18T08:57:30Z</time>
      </trkpt>
      <trkpt lat="44.09401" lon="6.14793">
        <ele>852.8</ele>
        <time>2020-10-18T08:57:31Z</time>
      </trkpt>
      <trkpt lat="44.09401" lon="6.14791">
        <ele>853</ele>
        <time>2020-10-18T08:57:32Z</time>
      </trkpt>
      <trkpt lat="44.09401" lon="6.14788">
        <ele>853.2</ele>
        <time>2020-10-18T08:57:33Z</time>
      </trkpt>
      <trkpt lat="44.094" lon="6.14786">
        <ele>853.4</ele>
        <time>2020-10-18T08:57:34Z</time>
      </trkpt>
      <trkpt lat="44.094" lon="6.14784">
        <ele>853.6</ele>
        <time>2020-10-18T08:57:35Z</time>
      </trkpt>
      <trkpt lat="44.094" lon="6.14782">
        <ele>854</ele>
        <time>2020-10-18T08:57:36Z</time>
      </trkpt>
      <trkpt lat="44.094" lon="6.1478">
        <ele>854</ele>
        <time>2020-10-18T08:57:37Z</time>
      </trkpt>
      <trkpt lat="44.09399" lon="6.14778">
        <ele>854.2</ele>
        <time>2020-10-18T08:57:38Z</time>
      </trkpt>
      <trkpt lat="44.09399" lon="6.14776">
        <ele>854.6</ele>
        <time>2020-10-18T08:57:39Z</time>
      </trkpt>
      <trkpt lat="44.09399" lon="6.14774">
        <ele>854.6</ele>
        <time>2020-10-18T08:57:40Z</time>
      </trkpt>
      <trkpt lat="44.09399" lon="6.14772">
        <ele>854.6</ele>
        <time>2020-10-18T08:57:41Z</time>
      </trkpt>
      <trkpt lat="44.09398" lon="6.1477">
        <ele>855</ele>
        <time>2020-10-18T08:57:42Z</time>
      </trkpt>
      <trkpt lat="44.09397" lon="6.14769">
        <ele>855.2</ele>
        <time>2020-10-18T08:57:43Z</time>
      </trkpt>
      <trkpt lat="44.09396" lon="6.14767">
        <ele>855.6</ele>
        <time>2020-10-18T08:57:44Z</time>
      </trkpt>
      <trkpt lat="44.09395" lon="6.14765">
        <ele>855.6</ele>
        <time>2020-10-18T08:57:45Z</time>
      </trkpt>
      <trkpt lat="44.09395" lon="6.14763">
        <ele>856</ele>
        <time>2020-10-18T08:57:46Z</time>
      </trkpt>
      <trkpt lat="44.09394" lon="6.14761">
        <ele>856</ele>
        <time>2020-10-18T08:57:47Z</time>
      </trkpt>
      <trkpt lat="44.09393" lon="6.14758">
        <ele>856.4</ele>
        <time>2020-10-18T08:57:48Z</time>
      </trkpt>
      <trkpt lat="44.09392" lon="6.14756">
        <ele>856.4</ele>
        <time>2020-10-18T08:57:49Z</time>
      </trkpt>
      <trkpt lat="44.09392" lon="6.14754">
        <ele>856.6</ele>
        <time>2020-10-18T08:57:50Z</time>
      </trkpt>
      <trkpt lat="44.09391" lon="6.14753">
        <ele>857</ele>
        <time>2020-10-18T08:57:51Z</time>
      </trkpt>
      <trkpt lat="44.0939" lon="6.14752">
        <ele>857</ele>
        <time>2020-10-18T08:57:52Z</time>
      </trkpt>
      <trkpt lat="44.09388" lon="6.14751">
        <ele>857.2</ele>
        <time>2020-10-18T08:57:53Z</time>
      </trkpt>
      <trkpt lat="44.09387" lon="6.1475">
        <ele>857.6</ele>
        <time>2020-10-18T08:57:54Z</time>
      </trkpt>
      <trkpt lat="44.09386" lon="6.14749">
        <ele>857.8</ele>
        <time>2020-10-18T08:57:55Z</time>
      </trkpt>
      <trkpt lat="44.09385" lon="6.14748">
        <ele>858.2</ele>
        <time>2020-10-18T08:57:56Z</time>
      </trkpt>
      <trkpt lat="44.09383" lon="6.14747">
        <ele>858.6</ele>
        <time>2020-10-18T08:57:57Z</time>
      </trkpt>
      <trkpt lat="44.09382" lon="6.14747">
        <ele>858.6</ele>
        <time>2020-10-18T08:57:58Z</time>
      </trkpt>
      <trkpt lat="44.0938" lon="6.14746">
        <ele>858.8</ele>
        <time>2020-10-18T08:57:59Z</time>
      </trkpt>
      <trkpt lat="44.09378" lon="6.14745">
        <ele>859</ele>
        <time>2020-10-18T08:58:00Z</time>
      </trkpt>
      <trkpt lat="44.09377" lon="6.14744">
        <ele>859</ele>
        <time>2020-10-18T08:58:01Z</time>
      </trkpt>
      <trkpt lat="44.09375" lon="6.14743">
        <ele>859.2</ele>
        <time>2020-10-18T08:58:02Z</time>
      </trkpt>
      <trkpt lat="44.09374" lon="6.14743">
        <ele>859.4</ele>
        <time>2020-10-18T08:58:03Z</time>
      </trkpt>
      <trkpt lat="44.09372" lon="6.14742">
        <ele>859.8</ele>
        <time>2020-10-18T08:58:04Z</time>
      </trkpt>
      <trkpt lat="44.0937" lon="6.14741">
        <ele>859.8</ele>
        <time>2020-10-18T08:58:05Z</time>
      </trkpt>
      <trkpt lat="44.09369" lon="6.1474">
        <ele>860.2</ele>
        <time>2020-10-18T08:58:06Z</time>
      </trkpt>
      <trkpt lat="44.09367" lon="6.14738">
        <ele>860.2</ele>
        <time>2020-10-18T08:58:07Z</time>
      </trkpt>
      <trkpt lat="44.09366" lon="6.14737">
        <ele>860.4</ele>
        <time>2020-10-18T08:58:08Z</time>
      </trkpt>
      <trkpt lat="44.09365" lon="6.14735">
        <ele>860.6</ele>
        <time>2020-10-18T08:58:09Z</time>
      </trkpt>
      <trkpt lat="44.09364" lon="6.14734">
        <ele>860.8</ele>
        <time>2020-10-18T08:58:10Z</time>
      </trkpt>
      <trkpt lat="44.09362" lon="6.14733">
        <ele>861</ele>
        <time>2020-10-18T08:58:11Z</time>
      </trkpt>
      <trkpt lat="44.09361" lon="6.14732">
        <ele>861.4</ele>
        <time>2020-10-18T08:58:12Z</time>
      </trkpt>
      <trkpt lat="44.09359" lon="6.1473">
        <ele>861.4</ele>
        <time>2020-10-18T08:58:13Z</time>
      </trkpt>
      <trkpt lat="44.09358" lon="6.14729">
        <ele>861.8</ele>
        <time>2020-10-18T08:58:14Z</time>
      </trkpt>
      <trkpt lat="44.09356" lon="6.14727">
        <ele>862.2</ele>
        <time>2020-10-18T08:58:15Z</time>
      </trkpt>
      <trkpt lat="44.09354" lon="6.14726">
        <ele>862.2</ele>
        <time>2020-10-18T08:58:16Z</time>
      </trkpt>
      <trkpt lat="44.09353" lon="6.14725">
        <ele>862.4</ele>
        <time>2020-10-18T08:58:17Z</time>
      </trkpt>
      <trkpt lat="44.09351" lon="6.14723">
        <ele>862.4</ele>
        <time>2020-10-18T08:58:18Z</time>
      </trkpt>
      <trkpt lat="44.0935" lon="6.14721">
        <ele>862.8</ele>
        <time>2020-10-18T08:58:19Z</time>
      </trkpt>
      <trkpt lat="44.09349" lon="6.14719">
        <ele>862.8</ele>
        <time>2020-10-18T08:58:20Z</time>
      </trkpt>
      <trkpt lat="44.09348" lon="6.14718">
        <ele>863</ele>
        <time>2020-10-18T08:58:21Z</time>
      </trkpt>
      <trkpt lat="44.09346" lon="6.14716">
        <ele>863.2</ele>
        <time>2020-10-18T08:58:22Z</time>
      </trkpt>
      <trkpt lat="44.09345" lon="6.14714">
        <ele>863.6</ele>
        <time>2020-10-18T08:58:23Z</time>
      </trkpt>
      <trkpt lat="44.09344" lon="6.14712">
        <ele>863.6</ele>
        <time>2020-10-18T08:58:24Z</time>
      </trkpt>
      <trkpt lat="44.09343" lon="6.1471">
        <ele>864</ele>
        <time>2020-10-18T08:58:25Z</time>
      </trkpt>
      <trkpt lat="44.09342" lon="6.14708">
        <ele>864.2</ele>
        <time>2020-10-18T08:58:26Z</time>
      </trkpt>
      <trkpt lat="44.09341" lon="6.14705">
        <ele>864.2</ele>
        <time>2020-10-18T08:58:27Z</time>
      </trkpt>
      <trkpt lat="44.0934" lon="6.14703">
        <ele>864.4</ele>
        <time>2020-10-18T08:58:28Z</time>
      </trkpt>
      <trkpt lat="44.09339" lon="6.14701">
        <ele>864.8</ele>
        <time>2020-10-18T08:58:29Z</time>
      </trkpt>
      <trkpt lat="44.09338" lon="6.14699">
        <ele>865</ele>
        <time>2020-10-18T08:58:30Z</time>
      </trkpt>
      <trkpt lat="44.09337" lon="6.14697">
        <ele>865.2</ele>
        <time>2020-10-18T08:58:31Z</time>
      </trkpt>
      <trkpt lat="44.09336" lon="6.14694">
        <ele>865.2</ele>
        <time>2020-10-18T08:58:32Z</time>
      </trkpt>
      <trkpt lat="44.09335" lon="6.14692">
        <ele>865.4</ele>
        <time>2020-10-18T08:58:33Z</time>
      </trkpt>
      <trkpt lat="44.09334" lon="6.14689">
        <ele>865.8</ele>
        <time>2020-10-18T08:58:34Z</time>
      </trkpt>
      <trkpt lat="44.09333" lon="6.14686">
        <ele>866</ele>
        <time>2020-10-18T08:58:35Z</time>
      </trkpt>
      <trkpt lat="44.09333" lon="6.14683">
        <ele>866</ele>
        <time>2020-10-18T08:58:36Z</time>
      </trkpt>
      <trkpt lat="44.09333" lon="6.14681">
        <ele>866.2</ele>
        <time>2020-10-18T08:58:37Z</time>
      </trkpt>
      <trkpt lat="44.09333" lon="6.14678">
        <ele>866.2</ele>
        <time>2020-10-18T08:58:38Z</time>
      </trkpt>
      <trkpt lat="44.09333" lon="6.14676">
        <ele>866.6</ele>
        <time>2020-10-18T08:58:39Z</time>
      </trkpt>
      <trkpt lat="44.09334" lon="6.14674">
        <ele>866.6</ele>
        <time>2020-10-18T08:58:40Z</time>
      </trkpt>
      <trkpt lat="44.09335" lon="6.14672">
        <ele>866.8</ele>
        <time>2020-10-18T08:58:41Z</time>
      </trkpt>
      <trkpt lat="44.09335" lon="6.1467">
        <ele>867.2</ele>
        <time>2020-10-18T08:58:42Z</time>
      </trkpt>
      <trkpt lat="44.09336" lon="6.14668">
        <ele>867.2</ele>
        <time>2020-10-18T08:58:43Z</time>
      </trkpt>
      <trkpt lat="44.09337" lon="6.14666">
        <ele>867.6</ele>
        <time>2020-10-18T08:58:44Z</time>
      </trkpt>
      <trkpt lat="44.09338" lon="6.14664">
        <ele>868</ele>
        <time>2020-10-18T08:58:45Z</time>
      </trkpt>
      <trkpt lat="44.09339" lon="6.14663">
        <ele>868.2</ele>
        <time>2020-10-18T08:58:46Z</time>
      </trkpt>
      <trkpt lat="44.0934" lon="6.14661">
        <ele>868.6</ele>
        <time>2020-10-18T08:58:47Z</time>
      </trkpt>
      <trkpt lat="44.09341" lon="6.1466">
        <ele>868.8</ele>
        <time>2020-10-18T08:58:48Z</time>
      </trkpt>
      <trkpt lat="44.09342" lon="6.14658">
        <ele>869.2</ele>
        <time>2020-10-18T08:58:49Z</time>
      </trkpt>
      <trkpt lat="44.09343" lon="6.14656">
        <ele>869.8</ele>
        <time>2020-10-18T08:58:50Z</time>
      </trkpt>
      <trkpt lat="44.09344" lon="6.14654">
        <ele>869.8</ele>
        <time>2020-10-18T08:58:51Z</time>
      </trkpt>
      <trkpt lat="44.09345" lon="6.14652">
        <ele>870.2</ele>
        <time>2020-10-18T08:58:52Z</time>
      </trkpt>
      <trkpt lat="44.09346" lon="6.1465">
        <ele>870.4</ele>
        <time>2020-10-18T08:58:53Z</time>
      </trkpt>
      <trkpt lat="44.09347" lon="6.14648">
        <ele>870.6</ele>
        <time>2020-10-18T08:58:54Z</time>
      </trkpt>
      <trkpt lat="44.09348" lon="6.14645">
        <ele>870.8</ele>
        <time>2020-10-18T08:58:55Z</time>
      </trkpt>
      <trkpt lat="44.09348" lon="6.14642">
        <ele>871</ele>
        <time>2020-10-18T08:58:56Z</time>
      </trkpt>
      <trkpt lat="44.09349" lon="6.1464">
        <ele>871.4</ele>
        <time>2020-10-18T08:58:57Z</time>
      </trkpt>
      <trkpt lat="44.09349" lon="6.14637">
        <ele>871.6</ele>
        <time>2020-10-18T08:58:58Z</time>
      </trkpt>
      <trkpt lat="44.09349" lon="6.14634">
        <ele>871.8</ele>
        <time>2020-10-18T08:58:59Z</time>
      </trkpt>
      <trkpt lat="44.0935" lon="6.14631">
        <ele>872</ele>
        <time>2020-10-18T08:59:00Z</time>
      </trkpt>
      <trkpt lat="44.0935" lon="6.14629">
        <ele>872</ele>
        <time>2020-10-18T08:59:01Z</time>
      </trkpt>
      <trkpt lat="44.09351" lon="6.14626">
        <ele>872.4</ele>
        <time>2020-10-18T08:59:02Z</time>
      </trkpt>
      <trkpt lat="44.09351" lon="6.14623">
        <ele>872.6</ele>
        <time>2020-10-18T08:59:03Z</time>
      </trkpt>
      <trkpt lat="44.09351" lon="6.1462">
        <ele>872.6</ele>
        <time>2020-10-18T08:59:04Z</time>
      </trkpt>
      <trkpt lat="44.09352" lon="6.14617">
        <ele>873</ele>
        <time>2020-10-18T08:59:05Z</time>
      </trkpt>
      <trkpt lat="44.09352" lon="6.14613">
        <ele>873.2</ele>
        <time>2020-10-18T08:59:06Z</time>
      </trkpt>
      <trkpt lat="44.09352" lon="6.1461">
        <ele>873.4</ele>
        <time>2020-10-18T08:59:07Z</time>
      </trkpt>
      <trkpt lat="44.09352" lon="6.14606">
        <ele>873.8</ele>
        <time>2020-10-18T08:59:08Z</time>
      </trkpt>
      <trkpt lat="44.09351" lon="6.14603">
        <ele>874</ele>
        <time>2020-10-18T08:59:09Z</time>
      </trkpt>
      <trkpt lat="44.09351" lon="6.146">
        <ele>874.2</ele>
        <time>2020-10-18T08:59:10Z</time>
      </trkpt>
      <trkpt lat="44.0935" lon="6.14597">
        <ele>874.4</ele>
        <time>2020-10-18T08:59:11Z</time>
      </trkpt>
      <trkpt lat="44.09349" lon="6.14595">
        <ele>874.4</ele>
        <time>2020-10-18T08:59:12Z</time>
      </trkpt>
      <trkpt lat="44.09348" lon="6.14592">
        <ele>874.4</ele>
        <time>2020-10-18T08:59:13Z</time>
      </trkpt>
      <trkpt lat="44.09347" lon="6.14589">
        <ele>874.4</ele>
        <time>2020-10-18T08:59:14Z</time>
      </trkpt>
      <trkpt lat="44.09345" lon="6.14586">
        <ele>874.4</ele>
        <time>2020-10-18T08:59:15Z</time>
      </trkpt>
      <trkpt lat="44.09344" lon="6.14584">
        <ele>874.4</ele>
        <time>2020-10-18T08:59:16Z</time>
      </trkpt>
      <trkpt lat="44.09343" lon="6.14582">
        <ele>874.6</ele>
        <time>2020-10-18T08:59:17Z</time>
      </trkpt>
      <trkpt lat="44.09342" lon="6.14579">
        <ele>874.6</ele>
        <time>2020-10-18T08:59:18Z</time>
      </trkpt>
      <trkpt lat="44.09341" lon="6.14577">
        <ele>874.8</ele>
        <time>2020-10-18T08:59:19Z</time>
      </trkpt>
      <trkpt lat="44.09339" lon="6.14575">
        <ele>874.8</ele>
        <time>2020-10-18T08:59:20Z</time>
      </trkpt>
      <trkpt lat="44.09338" lon="6.14573">
        <ele>874.8</ele>
        <time>2020-10-18T08:59:21Z</time>
      </trkpt>
      <trkpt lat="44.09336" lon="6.14571">
        <ele>874.8</ele>
        <time>2020-10-18T08:59:22Z</time>
      </trkpt>
      <trkpt lat="44.09334" lon="6.1457">
        <ele>875.2</ele>
        <time>2020-10-18T08:59:23Z</time>
      </trkpt>
      <trkpt lat="44.09333" lon="6.14568">
        <ele>875.2</ele>
        <time>2020-10-18T08:59:24Z</time>
      </trkpt>
      <trkpt lat="44.09332" lon="6.14565">
        <ele>875.6</ele>
        <time>2020-10-18T08:59:25Z</time>
      </trkpt>
      <trkpt lat="44.09331" lon="6.14563">
        <ele>876</ele>
        <time>2020-10-18T08:59:26Z</time>
      </trkpt>
      <trkpt lat="44.0933" lon="6.14561">
        <ele>876.2</ele>
        <time>2020-10-18T08:59:27Z</time>
      </trkpt>
      <trkpt lat="44.09328" lon="6.14559">
        <ele>876.6</ele>
        <time>2020-10-18T08:59:28Z</time>
      </trkpt>
      <trkpt lat="44.09327" lon="6.14557">
        <ele>876.8</ele>
        <time>2020-10-18T08:59:29Z</time>
      </trkpt>
      <trkpt lat="44.09326" lon="6.14554">
        <ele>876.8</ele>
        <time>2020-10-18T08:59:30Z</time>
      </trkpt>
      <trkpt lat="44.09325" lon="6.14552">
        <ele>877.2</ele>
        <time>2020-10-18T08:59:31Z</time>
      </trkpt>
      <trkpt lat="44.09324" lon="6.14549">
        <ele>877.6</ele>
        <time>2020-10-18T08:59:32Z</time>
      </trkpt>
      <trkpt lat="44.09323" lon="6.14546">
        <ele>878</ele>
        <time>2020-10-18T08:59:33Z</time>
      </trkpt>
      <trkpt lat="44.09323" lon="6.14543">
        <ele>878.2</ele>
        <time>2020-10-18T08:59:34Z</time>
      </trkpt>
      <trkpt lat="44.09322" lon="6.1454">
        <ele>878.6</ele>
        <time>2020-10-18T08:59:35Z</time>
      </trkpt>
      <trkpt lat="44.09322" lon="6.14537">
        <ele>879.2</ele>
        <time>2020-10-18T08:59:36Z</time>
      </trkpt>
      <trkpt lat="44.09322" lon="6.14534">
        <ele>879.4</ele>
        <time>2020-10-18T08:59:37Z</time>
      </trkpt>
      <trkpt lat="44.09321" lon="6.14531">
        <ele>879.8</ele>
        <time>2020-10-18T08:59:38Z</time>
      </trkpt>
      <trkpt lat="44.09321" lon="6.14528">
        <ele>880.2</ele>
        <time>2020-10-18T08:59:39Z</time>
      </trkpt>
      <trkpt lat="44.0932" lon="6.14525">
        <ele>880.4</ele>
        <time>2020-10-18T08:59:40Z</time>
      </trkpt>
      <trkpt lat="44.0932" lon="6.14522">
        <ele>880.4</ele>
        <time>2020-10-18T08:59:41Z</time>
      </trkpt>
      <trkpt lat="44.0932" lon="6.1452">
        <ele>880.8</ele>
        <time>2020-10-18T08:59:42Z</time>
      </trkpt>
      <trkpt lat="44.0932" lon="6.14517">
        <ele>881.4</ele>
        <time>2020-10-18T08:59:43Z</time>
      </trkpt>
      <trkpt lat="44.0932" lon="6.14514">
        <ele>881.6</ele>
        <time>2020-10-18T08:59:44Z</time>
      </trkpt>
      <trkpt lat="44.0932" lon="6.1451">
        <ele>882</ele>
        <time>2020-10-18T08:59:45Z</time>
      </trkpt>
      <trkpt lat="44.09321" lon="6.14507">
        <ele>882.2</ele>
        <time>2020-10-18T08:59:46Z</time>
      </trkpt>
      <trkpt lat="44.09321" lon="6.14504">
        <ele>882.6</ele>
        <time>2020-10-18T08:59:47Z</time>
      </trkpt>
      <trkpt lat="44.09321" lon="6.14501">
        <ele>883</ele>
        <time>2020-10-18T08:59:48Z</time>
      </trkpt>
      <trkpt lat="44.09321" lon="6.14498">
        <ele>883.2</ele>
        <time>2020-10-18T08:59:49Z</time>
      </trkpt>
      <trkpt lat="44.09322" lon="6.14495">
        <ele>883.8</ele>
        <time>2020-10-18T08:59:50Z</time>
      </trkpt>
      <trkpt lat="44.09322" lon="6.14492">
        <ele>884</ele>
        <time>2020-10-18T08:59:51Z</time>
      </trkpt>
      <trkpt lat="44.09322" lon="6.14489">
        <ele>884.4</ele>
        <time>2020-10-18T08:59:52Z</time>
      </trkpt>
      <trkpt lat="44.09322" lon="6.14486">
        <ele>885</ele>
        <time>2020-10-18T08:59:53Z</time>
      </trkpt>
      <trkpt lat="44.09323" lon="6.14482">
        <ele>885.4</ele>
        <time>2020-10-18T08:59:54Z</time>
      </trkpt>
      <trkpt lat="44.09323" lon="6.14479">
        <ele>885.6</ele>
        <time>2020-10-18T08:59:55Z</time>
      </trkpt>
      <trkpt lat="44.09322" lon="6.14476">
        <ele>885.8</ele>
        <time>2020-10-18T08:59:56Z</time>
      </trkpt>
      <trkpt lat="44.09322" lon="6.14472">
        <ele>886.2</ele>
        <time>2020-10-18T08:59:57Z</time>
      </trkpt>
      <trkpt lat="44.09321" lon="6.14469">
        <ele>886.4</ele>
        <time>2020-10-18T08:59:58Z</time>
      </trkpt>
      <trkpt lat="44.09321" lon="6.14466">
        <ele>886.8</ele>
        <time>2020-10-18T08:59:59Z</time>
      </trkpt>
      <trkpt lat="44.0932" lon="6.14463">
        <ele>886.8</ele>
        <time>2020-10-18T09:00:00Z</time>
      </trkpt>
      <trkpt lat="44.0932" lon="6.1446">
        <ele>887.2</ele>
        <time>2020-10-18T09:00:01Z</time>
      </trkpt>
      <trkpt lat="44.09319" lon="6.14457">
        <ele>887.2</ele>
        <time>2020-10-18T09:00:02Z</time>
      </trkpt>
      <trkpt lat="44.09319" lon="6.14454">
        <ele>887.6</ele>
        <time>2020-10-18T09:00:03Z</time>
      </trkpt>
      <trkpt lat="44.09318" lon="6.1445">
        <ele>888</ele>
        <time>2020-10-18T09:00:04Z</time>
      </trkpt>
      <trkpt lat="44.09318" lon="6.14447">
        <ele>888.2</ele>
        <time>2020-10-18T09:00:05Z</time>
      </trkpt>
      <trkpt lat="44.09317" lon="6.14443">
        <ele>888.4</ele>
        <time>2020-10-18T09:00:06Z</time>
      </trkpt>
      <trkpt lat="44.09317" lon="6.1444">
        <ele>888.8</ele>
        <time>2020-10-18T09:00:07Z</time>
      </trkpt>
      <trkpt lat="44.09317" lon="6.14436">
        <ele>888.8</ele>
        <time>2020-10-18T09:00:08Z</time>
      </trkpt>
      <trkpt lat="44.09317" lon="6.14433">
        <ele>889</ele>
        <time>2020-10-18T09:00:09Z</time>
      </trkpt>
      <trkpt lat="44.09317" lon="6.14429">
        <ele>889.2</ele>
        <time>2020-10-18T09:00:10Z</time>
      </trkpt>
      <trkpt lat="44.09318" lon="6.14426">
        <ele>889.8</ele>
        <time>2020-10-18T09:00:11Z</time>
      </trkpt>
      <trkpt lat="44.09318" lon="6.14422">
        <ele>890.2</ele>
        <time>2020-10-18T09:00:12Z</time>
      </trkpt>
      <trkpt lat="44.09319" lon="6.14418">
        <ele>890.6</ele>
        <time>2020-10-18T09:00:13Z</time>
      </trkpt>
      <trkpt lat="44.09319" lon="6.14415">
        <ele>890.6</ele>
        <time>2020-10-18T09:00:14Z</time>
      </trkpt>
      <trkpt lat="44.0932" lon="6.14411">
        <ele>891.2</ele>
        <time>2020-10-18T09:00:15Z</time>
      </trkpt>
      <trkpt lat="44.0932" lon="6.14407">
        <ele>891.8</ele>
        <time>2020-10-18T09:00:16Z</time>
      </trkpt>
      <trkpt lat="44.09321" lon="6.14404">
        <ele>892</ele>
        <time>2020-10-18T09:00:17Z</time>
      </trkpt>
      <trkpt lat="44.09322" lon="6.144">
        <ele>892.2</ele>
        <time>2020-10-18T09:00:18Z</time>
      </trkpt>
      <trkpt lat="44.09323" lon="6.14397">
        <ele>892.2</ele>
        <time>2020-10-18T09:00:19Z</time>
      </trkpt>
      <trkpt lat="44.09324" lon="6.14394">
        <ele>892.4</ele>
        <time>2020-10-18T09:00:20Z</time>
      </trkpt>
      <trkpt lat="44.09325" lon="6.14391">
        <ele>892.6</ele>
        <time>2020-10-18T09:00:21Z</time>
      </trkpt>
      <trkpt lat="44.09326" lon="6.14388">
        <ele>892.6</ele>
        <time>2020-10-18T09:00:22Z</time>
      </trkpt>
      <trkpt lat="44.09326" lon="6.14385">
        <ele>892.6</ele>
        <time>2020-10-18T09:00:23Z</time>
      </trkpt>
      <trkpt lat="44.09327" lon="6.14383">
        <ele>892.8</ele>
        <time>2020-10-18T09:00:24Z</time>
      </trkpt>
      <trkpt lat="44.09327" lon="6.14381">
        <ele>892.8</ele>
        <time>2020-10-18T09:00:25Z</time>
      </trkpt>
      <trkpt lat="44.09327" lon="6.14378">
        <ele>893</ele>
        <time>2020-10-18T09:00:26Z</time>
      </trkpt>
      <trkpt lat="44.09328" lon="6.14376">
        <ele>893.2</ele>
        <time>2020-10-18T09:00:27Z</time>
      </trkpt>
      <trkpt lat="44.09328" lon="6.14373">
        <ele>893.4</ele>
        <time>2020-10-18T09:00:28Z</time>
      </trkpt>
      <trkpt lat="44.09328" lon="6.14371">
        <ele>893.8</ele>
        <time>2020-10-18T09:00:29Z</time>
      </trkpt>
      <trkpt lat="44.09328" lon="6.14368">
        <ele>894.2</ele>
        <time>2020-10-18T09:00:30Z</time>
      </trkpt>
      <trkpt lat="44.09328" lon="6.14365">
        <ele>894.4</ele>
        <time>2020-10-18T09:00:31Z</time>
      </trkpt>
      <trkpt lat="44.09328" lon="6.14362">
        <ele>894.8</ele>
        <time>2020-10-18T09:00:32Z</time>
      </trkpt>
      <trkpt lat="44.09327" lon="6.14359">
        <ele>895</ele>
        <time>2020-10-18T09:00:33Z</time>
      </trkpt>
      <trkpt lat="44.09327" lon="6.14357">
        <ele>895.4</ele>
        <time>2020-10-18T09:00:34Z</time>
      </trkpt>
      <trkpt lat="44.09326" lon="6.14354">
        <ele>895.6</ele>
        <time>2020-10-18T09:00:35Z</time>
      </trkpt>
      <trkpt lat="44.09325" lon="6.14351">
        <ele>896</ele>
        <time>2020-10-18T09:00:36Z</time>
      </trkpt>
      <trkpt lat="44.09324" lon="6.14348">
        <ele>896.4</ele>
        <time>2020-10-18T09:00:37Z</time>
      </trkpt>
      <trkpt lat="44.09323" lon="6.14346">
        <ele>896.4</ele>
        <time>2020-10-18T09:00:38Z</time>
      </trkpt>
      <trkpt lat="44.09322" lon="6.14343">
        <ele>896.6</ele>
        <time>2020-10-18T09:00:39Z</time>
      </trkpt>
      <trkpt lat="44.09322" lon="6.1434">
        <ele>897</ele>
        <time>2020-10-18T09:00:40Z</time>
      </trkpt>
      <trkpt lat="44.09321" lon="6.14337">
        <ele>897.4</ele>
        <time>2020-10-18T09:00:41Z</time>
      </trkpt>
      <trkpt lat="44.0932" lon="6.14334">
        <ele>897.6</ele>
        <time>2020-10-18T09:00:42Z</time>
      </trkpt>
      <trkpt lat="44.0932" lon="6.14331">
        <ele>897.8</ele>
        <time>2020-10-18T09:00:43Z</time>
      </trkpt>
      <trkpt lat="44.09319" lon="6.14328">
        <ele>898.2</ele>
        <time>2020-10-18T09:00:44Z</time>
      </trkpt>
      <trkpt lat="44.09318" lon="6.14325">
        <ele>898.2</ele>
        <time>2020-10-18T09:00:45Z</time>
      </trkpt>
      <trkpt lat="44.09317" lon="6.14322">
        <ele>898.4</ele>
        <time>2020-10-18T09:00:46Z</time>
      </trkpt>
      <trkpt lat="44.09316" lon="6.14319">
        <ele>898.8</ele>
        <time>2020-10-18T09:00:47Z</time>
      </trkpt>
      <trkpt lat="44.09315" lon="6.14316">
        <ele>899.2</ele>
        <time>2020-10-18T09:00:48Z</time>
      </trkpt>
      <trkpt lat="44.09314" lon="6.14313">
        <ele>899.4</ele>
        <time>2020-10-18T09:00:49Z</time>
      </trkpt>
      <trkpt lat="44.09313" lon="6.1431">
        <ele>899.6</ele>
        <time>2020-10-18T09:00:50Z</time>
      </trkpt>
      <trkpt lat="44.09312" lon="6.14308">
        <ele>899.8</ele>
        <time>2020-10-18T09:00:51Z</time>
      </trkpt>
      <trkpt lat="44.09311" lon="6.14305">
        <ele>900</ele>
        <time>2020-10-18T09:00:52Z</time>
      </trkpt>
      <trkpt lat="44.0931" lon="6.14302">
        <ele>900.2</ele>
        <time>2020-10-18T09:00:53Z</time>
      </trkpt>
      <trkpt lat="44.09309" lon="6.14299">
        <ele>900.4</ele>
        <time>2020-10-18T09:00:54Z</time>
      </trkpt>
      <trkpt lat="44.09308" lon="6.14296">
        <ele>900.6</ele>
        <time>2020-10-18T09:00:55Z</time>
      </trkpt>
      <trkpt lat="44.09307" lon="6.14293">
        <ele>901</ele>
        <time>2020-10-18T09:00:56Z</time>
      </trkpt>
      <trkpt lat="44.09306" lon="6.1429">
        <ele>901</ele>
        <time>2020-10-18T09:00:57Z</time>
      </trkpt>
      <trkpt lat="44.09305" lon="6.14288">
        <ele>901.2</ele>
        <time>2020-10-18T09:00:58Z</time>
      </trkpt>
      <trkpt lat="44.09303" lon="6.14286">
        <ele>901.4</ele>
        <time>2020-10-18T09:00:59Z</time>
      </trkpt>
      <trkpt lat="44.09302" lon="6.14283">
        <ele>901.6</ele>
        <time>2020-10-18T09:01:00Z</time>
      </trkpt>
      <trkpt lat="44.093" lon="6.14281">
        <ele>902.2</ele>
        <time>2020-10-18T09:01:01Z</time>
      </trkpt>
      <trkpt lat="44.09299" lon="6.14278">
        <ele>902.4</ele>
        <time>2020-10-18T09:01:02Z</time>
      </trkpt>
      <trkpt lat="44.09298" lon="6.14276">
        <ele>902.6</ele>
        <time>2020-10-18T09:01:03Z</time>
      </trkpt>
      <trkpt lat="44.09297" lon="6.14273">
        <ele>903</ele>
        <time>2020-10-18T09:01:04Z</time>
      </trkpt>
      <trkpt lat="44.09296" lon="6.1427">
        <ele>903</ele>
        <time>2020-10-18T09:01:05Z</time>
      </trkpt>
      <trkpt lat="44.09295" lon="6.14267">
        <ele>903.2</ele>
        <time>2020-10-18T09:01:06Z</time>
      </trkpt>
      <trkpt lat="44.09294" lon="6.14263">
        <ele>903.6</ele>
        <time>2020-10-18T09:01:07Z</time>
      </trkpt>
      <trkpt lat="44.09294" lon="6.1426">
        <ele>903.6</ele>
        <time>2020-10-18T09:01:08Z</time>
      </trkpt>
      <trkpt lat="44.09294" lon="6.14257">
        <ele>904</ele>
        <time>2020-10-18T09:01:09Z</time>
      </trkpt>
      <trkpt lat="44.09294" lon="6.14254">
        <ele>904.2</ele>
        <time>2020-10-18T09:01:10Z</time>
      </trkpt>
      <trkpt lat="44.09294" lon="6.14251">
        <ele>904.4</ele>
        <time>2020-10-18T09:01:11Z</time>
      </trkpt>
      <trkpt lat="44.09294" lon="6.14247">
        <ele>904.6</ele>
        <time>2020-10-18T09:01:12Z</time>
      </trkpt>
      <trkpt lat="44.09294" lon="6.14244">
        <ele>904.6</ele>
        <time>2020-10-18T09:01:13Z</time>
      </trkpt>
      <trkpt lat="44.09294" lon="6.14241">
        <ele>904.8</ele>
        <time>2020-10-18T09:01:14Z</time>
      </trkpt>
      <trkpt lat="44.09294" lon="6.14238">
        <ele>905.2</ele>
        <time>2020-10-18T09:01:15Z</time>
      </trkpt>
      <trkpt lat="44.09294" lon="6.14235">
        <ele>905.4</ele>
        <time>2020-10-18T09:01:16Z</time>
      </trkpt>
      <trkpt lat="44.09294" lon="6.14231">
        <ele>905.4</ele>
        <time>2020-10-18T09:01:17Z</time>
      </trkpt>
      <trkpt lat="44.09294" lon="6.14228">
        <ele>905.8</ele>
        <time>2020-10-18T09:01:18Z</time>
      </trkpt>
      <trkpt lat="44.09295" lon="6.14225">
        <ele>906</ele>
        <time>2020-10-18T09:01:19Z</time>
      </trkpt>
      <trkpt lat="44.09295" lon="6.14222">
        <ele>906.2</ele>
        <time>2020-10-18T09:01:20Z</time>
      </trkpt>
      <trkpt lat="44.09295" lon="6.14219">
        <ele>906.4</ele>
        <time>2020-10-18T09:01:21Z</time>
      </trkpt>
      <trkpt lat="44.09295" lon="6.14216">
        <ele>906.6</ele>
        <time>2020-10-18T09:01:22Z</time>
      </trkpt>
      <trkpt lat="44.09295" lon="6.14213">
        <ele>907</ele>
        <time>2020-10-18T09:01:23Z</time>
      </trkpt>
      <trkpt lat="44.09295" lon="6.1421">
        <ele>907.2</ele>
        <time>2020-10-18T09:01:24Z</time>
      </trkpt>
      <trkpt lat="44.09296" lon="6.14207">
        <ele>907.6</ele>
        <time>2020-10-18T09:01:25Z</time>
      </trkpt>
      <trkpt lat="44.09296" lon="6.14204">
        <ele>907.8</ele>
        <time>2020-10-18T09:01:26Z</time>
      </trkpt>
      <trkpt lat="44.09296" lon="6.14201">
        <ele>908</ele>
        <time>2020-10-18T09:01:27Z</time>
      </trkpt>
      <trkpt lat="44.09296" lon="6.14198">
        <ele>908.2</ele>
        <time>2020-10-18T09:01:28Z</time>
      </trkpt>
      <trkpt lat="44.09296" lon="6.14195">
        <ele>908.8</ele>
        <time>2020-10-18T09:01:29Z</time>
      </trkpt>
      <trkpt lat="44.09296" lon="6.14192">
        <ele>909</ele>
        <time>2020-10-18T09:01:30Z</time>
      </trkpt>
      <trkpt lat="44.09296" lon="6.14188">
        <ele>909.4</ele>
        <time>2020-10-18T09:01:31Z</time>
      </trkpt>
      <trkpt lat="44.09297" lon="6.14185">
        <ele>909.6</ele>
        <time>2020-10-18T09:01:32Z</time>
      </trkpt>
      <trkpt lat="44.09297" lon="6.14181">
        <ele>910</ele>
        <time>2020-10-18T09:01:33Z</time>
      </trkpt>
      <trkpt lat="44.09297" lon="6.14178">
        <ele>910</ele>
        <time>2020-10-18T09:01:34Z</time>
      </trkpt>
      <trkpt lat="44.09297" lon="6.14175">
        <ele>910.4</ele>
        <time>2020-10-18T09:01:35Z</time>
      </trkpt>
      <trkpt lat="44.09297" lon="6.14172">
        <ele>910.4</ele>
        <time>2020-10-18T09:01:36Z</time>
      </trkpt>
      <trkpt lat="44.09297" lon="6.14168">
        <ele>910.6</ele>
        <time>2020-10-18T09:01:37Z</time>
      </trkpt>
      <trkpt lat="44.09298" lon="6.14165">
        <ele>911</ele>
        <time>2020-10-18T09:01:38Z</time>
      </trkpt>
      <trkpt lat="44.09298" lon="6.14161">
        <ele>911.2</ele>
        <time>2020-10-18T09:01:39Z</time>
      </trkpt>
      <trkpt lat="44.09298" lon="6.14158">
        <ele>911.4</ele>
        <time>2020-10-18T09:01:40Z</time>
      </trkpt>
      <trkpt lat="44.09299" lon="6.14154">
        <ele>911.6</ele>
        <time>2020-10-18T09:01:41Z</time>
      </trkpt>
      <trkpt lat="44.09299" lon="6.14151">
        <ele>912</ele>
        <time>2020-10-18T09:01:42Z</time>
      </trkpt>
      <trkpt lat="44.09299" lon="6.14147">
        <ele>912.2</ele>
        <time>2020-10-18T09:01:43Z</time>
      </trkpt>
      <trkpt lat="44.09299" lon="6.14144">
        <ele>912.4</ele>
        <time>2020-10-18T09:01:44Z</time>
      </trkpt>
      <trkpt lat="44.09299" lon="6.14141">
        <ele>912.8</ele>
        <time>2020-10-18T09:01:45Z</time>
      </trkpt>
      <trkpt lat="44.09299" lon="6.14138">
        <ele>913</ele>
        <time>2020-10-18T09:01:46Z</time>
      </trkpt>
      <trkpt lat="44.09299" lon="6.14135">
        <ele>913.4</ele>
        <time>2020-10-18T09:01:47Z</time>
      </trkpt>
      <trkpt lat="44.093" lon="6.14131">
        <ele>913.6</ele>
        <time>2020-10-18T09:01:48Z</time>
      </trkpt>
      <trkpt lat="44.093" lon="6.14128">
        <ele>913.8</ele>
        <time>2020-10-18T09:01:49Z</time>
      </trkpt>
      <trkpt lat="44.093" lon="6.14125">
        <ele>914.2</ele>
        <time>2020-10-18T09:01:50Z</time>
      </trkpt>
      <trkpt lat="44.09301" lon="6.14122">
        <ele>914.2</ele>
        <time>2020-10-18T09:01:51Z</time>
      </trkpt>
      <trkpt lat="44.09301" lon="6.14119">
        <ele>914.4</ele>
        <time>2020-10-18T09:01:52Z</time>
      </trkpt>
      <trkpt lat="44.09301" lon="6.14115">
        <ele>914.8</ele>
        <time>2020-10-18T09:01:53Z</time>
      </trkpt>
      <trkpt lat="44.09301" lon="6.14112">
        <ele>915</ele>
        <time>2020-10-18T09:01:54Z</time>
      </trkpt>
      <trkpt lat="44.09302" lon="6.14109">
        <ele>915.2</ele>
        <time>2020-10-18T09:01:55Z</time>
      </trkpt>
      <trkpt lat="44.09302" lon="6.14105">
        <ele>915.2</ele>
        <time>2020-10-18T09:01:56Z</time>
      </trkpt>
      <trkpt lat="44.09303" lon="6.14102">
        <ele>915.4</ele>
        <time>2020-10-18T09:01:57Z</time>
      </trkpt>
      <trkpt lat="44.09303" lon="6.14099">
        <ele>915.8</ele>
        <time>2020-10-18T09:01:58Z</time>
      </trkpt>
      <trkpt lat="44.09303" lon="6.14095">
        <ele>916.2</ele>
        <time>2020-10-18T09:01:59Z</time>
      </trkpt>
      <trkpt lat="44.09303" lon="6.14092">
        <ele>916.4</ele>
        <time>2020-10-18T09:02:00Z</time>
      </trkpt>
      <trkpt lat="44.09303" lon="6.14088">
        <ele>916.8</ele>
        <time>2020-10-18T09:02:01Z</time>
      </trkpt>
      <trkpt lat="44.09303" lon="6.14085">
        <ele>917</ele>
        <time>2020-10-18T09:02:02Z</time>
      </trkpt>
      <trkpt lat="44.09303" lon="6.14081">
        <ele>917.4</ele>
        <time>2020-10-18T09:02:03Z</time>
      </trkpt>
      <trkpt lat="44.09303" lon="6.14078">
        <ele>917.8</ele>
        <time>2020-10-18T09:02:04Z</time>
      </trkpt>
      <trkpt lat="44.09303" lon="6.14074">
        <ele>918</ele>
        <time>2020-10-18T09:02:05Z</time>
      </trkpt>
      <trkpt lat="44.09303" lon="6.1407">
        <ele>918.4</ele>
        <time>2020-10-18T09:02:06Z</time>
      </trkpt>
      <trkpt lat="44.09302" lon="6.14066">
        <ele>918.6</ele>
        <time>2020-10-18T09:02:07Z</time>
      </trkpt>
      <trkpt lat="44.09302" lon="6.14062">
        <ele>919</ele>
        <time>2020-10-18T09:02:08Z</time>
      </trkpt>
      <trkpt lat="44.09302" lon="6.14058">
        <ele>919</ele>
        <time>2020-10-18T09:02:09Z</time>
      </trkpt>
      <trkpt lat="44.09302" lon="6.14053">
        <ele>919.4</ele>
        <time>2020-10-18T09:02:10Z</time>
      </trkpt>
      <trkpt lat="44.09301" lon="6.14049">
        <ele>919.6</ele>
        <time>2020-10-18T09:02:11Z</time>
      </trkpt>
      <trkpt lat="44.09301" lon="6.14045">
        <ele>919.8</ele>
        <time>2020-10-18T09:02:12Z</time>
      </trkpt>
      <trkpt lat="44.093" lon="6.14041">
        <ele>920</ele>
        <time>2020-10-18T09:02:13Z</time>
      </trkpt>
      <trkpt lat="44.09299" lon="6.14037">
        <ele>920.2</ele>
        <time>2020-10-18T09:02:14Z</time>
      </trkpt>
      <trkpt lat="44.09298" lon="6.14033">
        <ele>920.2</ele>
        <time>2020-10-18T09:02:15Z</time>
      </trkpt>
      <trkpt lat="44.09297" lon="6.14029">
        <ele>920.6</ele>
        <time>2020-10-18T09:02:16Z</time>
      </trkpt>
      <trkpt lat="44.09296" lon="6.14026">
        <ele>920.8</ele>
        <time>2020-10-18T09:02:17Z</time>
      </trkpt>
      <trkpt lat="44.09295" lon="6.14023">
        <ele>921</ele>
        <time>2020-10-18T09:02:18Z</time>
      </trkpt>
      <trkpt lat="44.09293" lon="6.1402">
        <ele>921.2</ele>
        <time>2020-10-18T09:02:19Z</time>
      </trkpt>
      <trkpt lat="44.09292" lon="6.14016">
        <ele>921</ele>
        <time>2020-10-18T09:02:20Z</time>
      </trkpt>
      <trkpt lat="44.0929" lon="6.14013">
        <ele>921.2</ele>
        <time>2020-10-18T09:02:21Z</time>
      </trkpt>
      <trkpt lat="44.09289" lon="6.1401">
        <ele>921.4</ele>
        <time>2020-10-18T09:02:22Z</time>
      </trkpt>
      <trkpt lat="44.09287" lon="6.14006">
        <ele>921.6</ele>
        <time>2020-10-18T09:02:23Z</time>
      </trkpt>
      <trkpt lat="44.09286" lon="6.14003">
        <ele>921.8</ele>
        <time>2020-10-18T09:02:24Z</time>
      </trkpt>
      <trkpt lat="44.09285" lon="6.14">
        <ele>922</ele>
        <time>2020-10-18T09:02:25Z</time>
      </trkpt>
      <trkpt lat="44.09284" lon="6.13996">
        <ele>922.2</ele>
        <time>2020-10-18T09:02:26Z</time>
      </trkpt>
      <trkpt lat="44.09283" lon="6.13992">
        <ele>922.6</ele>
        <time>2020-10-18T09:02:27Z</time>
      </trkpt>
      <trkpt lat="44.09283" lon="6.13988">
        <ele>923</ele>
        <time>2020-10-18T09:02:28Z</time>
      </trkpt>
      <trkpt lat="44.09282" lon="6.13984">
        <ele>923</ele>
        <time>2020-10-18T09:02:29Z</time>
      </trkpt>
      <trkpt lat="44.09281" lon="6.13978">
        <ele>923.4</ele>
        <time>2020-10-18T09:02:30Z</time>
      </trkpt>
      <trkpt lat="44.0928" lon="6.13973">
        <ele>923.8</ele>
        <time>2020-10-18T09:02:31Z</time>
      </trkpt>
      <trkpt lat="44.09279" lon="6.13968">
        <ele>924.2</ele>
        <time>2020-10-18T09:02:32Z</time>
      </trkpt>
      <trkpt lat="44.09278" lon="6.13963">
        <ele>924.2</ele>
        <time>2020-10-18T09:02:33Z</time>
      </trkpt>
      <trkpt lat="44.09276" lon="6.13959">
        <ele>924.4</ele>
        <time>2020-10-18T09:02:34Z</time>
      </trkpt>
      <trkpt lat="44.09275" lon="6.13954">
        <ele>924.4</ele>
        <time>2020-10-18T09:02:35Z</time>
      </trkpt>
      <trkpt lat="44.09274" lon="6.1395">
        <ele>924.4</ele>
        <time>2020-10-18T09:02:36Z</time>
      </trkpt>
      <trkpt lat="44.09273" lon="6.13946">
        <ele>924.6</ele>
        <time>2020-10-18T09:02:37Z</time>
      </trkpt>
      <trkpt lat="44.09272" lon="6.13941">
        <ele>924.6</ele>
        <time>2020-10-18T09:02:38Z</time>
      </trkpt>
      <trkpt lat="44.09272" lon="6.13936">
        <ele>924.6</ele>
        <time>2020-10-18T09:02:39Z</time>
      </trkpt>
      <trkpt lat="44.09271" lon="6.13931">
        <ele>924.8</ele>
        <time>2020-10-18T09:02:40Z</time>
      </trkpt>
      <trkpt lat="44.0927" lon="6.13927">
        <ele>925</ele>
        <time>2020-10-18T09:02:41Z</time>
      </trkpt>
      <trkpt lat="44.0927" lon="6.13924">
        <ele>925</ele>
        <time>2020-10-18T09:02:42Z</time>
      </trkpt>
      <trkpt lat="44.09269" lon="6.1392">
        <ele>925</ele>
        <time>2020-10-18T09:02:43Z</time>
      </trkpt>
      <trkpt lat="44.09269" lon="6.13917">
        <ele>925</ele>
        <time>2020-10-18T09:02:44Z</time>
      </trkpt>
      <trkpt lat="44.09268" lon="6.13914">
        <ele>925</ele>
        <time>2020-10-18T09:02:45Z</time>
      </trkpt>
      <trkpt lat="44.09268" lon="6.13911">
        <ele>925</ele>
        <time>2020-10-18T09:02:46Z</time>
      </trkpt>
      <trkpt lat="44.09268" lon="6.13908">
        <ele>925.2</ele>
        <time>2020-10-18T09:02:47Z</time>
      </trkpt>
      <trkpt lat="44.09268" lon="6.13905">
        <ele>925.2</ele>
        <time>2020-10-18T09:02:48Z</time>
      </trkpt>
      <trkpt lat="44.09267" lon="6.13902">
        <ele>925.6</ele>
        <time>2020-10-18T09:02:49Z</time>
      </trkpt>
      <trkpt lat="44.09267" lon="6.139">
        <ele>926</ele>
        <time>2020-10-18T09:02:50Z</time>
      </trkpt>
      <trkpt lat="44.09267" lon="6.13897">
        <ele>926.6</ele>
        <time>2020-10-18T09:02:51Z</time>
      </trkpt>
      <trkpt lat="44.09267" lon="6.13893">
        <ele>927</ele>
        <time>2020-10-18T09:02:52Z</time>
      </trkpt>
      <trkpt lat="44.09266" lon="6.1389">
        <ele>927.6</ele>
        <time>2020-10-18T09:02:53Z</time>
      </trkpt>
      <trkpt lat="44.09266" lon="6.13887">
        <ele>928</ele>
        <time>2020-10-18T09:02:54Z</time>
      </trkpt>
      <trkpt lat="44.09266" lon="6.13884">
        <ele>928</ele>
        <time>2020-10-18T09:02:55Z</time>
      </trkpt>
      <trkpt lat="44.09265" lon="6.13881">
        <ele>928.4</ele>
        <time>2020-10-18T09:02:56Z</time>
      </trkpt>
      <trkpt lat="44.09265" lon="6.13877">
        <ele>928.8</ele>
        <time>2020-10-18T09:02:57Z</time>
      </trkpt>
      <trkpt lat="44.09264" lon="6.13872">
        <ele>929.2</ele>
        <time>2020-10-18T09:02:58Z</time>
      </trkpt>
      <trkpt lat="44.09263" lon="6.13867">
        <ele>929.6</ele>
        <time>2020-10-18T09:02:59Z</time>
      </trkpt>
      <trkpt lat="44.09263" lon="6.13863">
        <ele>930</ele>
        <time>2020-10-18T09:03:00Z</time>
      </trkpt>
      <trkpt lat="44.09262" lon="6.1386">
        <ele>930.4</ele>
        <time>2020-10-18T09:03:01Z</time>
      </trkpt>
      <trkpt lat="44.09262" lon="6.13856">
        <ele>931</ele>
        <time>2020-10-18T09:03:02Z</time>
      </trkpt>
      <trkpt lat="44.09261" lon="6.13853">
        <ele>931</ele>
        <time>2020-10-18T09:03:03Z</time>
      </trkpt>
      <trkpt lat="44.0926" lon="6.13851">
        <ele>931.6</ele>
        <time>2020-10-18T09:03:04Z</time>
      </trkpt>
      <trkpt lat="44.09259" lon="6.13848">
        <ele>931.8</ele>
        <time>2020-10-18T09:03:05Z</time>
      </trkpt>
      <trkpt lat="44.09258" lon="6.13845">
        <ele>932.2</ele>
        <time>2020-10-18T09:03:06Z</time>
      </trkpt>
      <trkpt lat="44.09257" lon="6.13841">
        <ele>932.8</ele>
        <time>2020-10-18T09:03:07Z</time>
      </trkpt>
      <trkpt lat="44.09256" lon="6.13838">
        <ele>933</ele>
        <time>2020-10-18T09:03:08Z</time>
      </trkpt>
      <trkpt lat="44.09254" lon="6.13834">
        <ele>933.2</ele>
        <time>2020-10-18T09:03:09Z</time>
      </trkpt>
      <trkpt lat="44.09253" lon="6.1383">
        <ele>933.6</ele>
        <time>2020-10-18T09:03:10Z</time>
      </trkpt>
      <trkpt lat="44.09252" lon="6.13827">
        <ele>933.8</ele>
        <time>2020-10-18T09:03:11Z</time>
      </trkpt>
      <trkpt lat="44.0925" lon="6.13823">
        <ele>934</ele>
        <time>2020-10-18T09:03:12Z</time>
      </trkpt>
      <trkpt lat="44.09249" lon="6.13819">
        <ele>934.2</ele>
        <time>2020-10-18T09:03:13Z</time>
      </trkpt>
      <trkpt lat="44.09247" lon="6.13815">
        <ele>934.2</ele>
        <time>2020-10-18T09:03:14Z</time>
      </trkpt>
      <trkpt lat="44.09245" lon="6.13811">
        <ele>934.2</ele>
        <time>2020-10-18T09:03:15Z</time>
      </trkpt>
      <trkpt lat="44.09243" lon="6.13807">
        <ele>934.4</ele>
        <time>2020-10-18T09:03:16Z</time>
      </trkpt>
      <trkpt lat="44.0924" lon="6.13803">
        <ele>934.2</ele>
        <time>2020-10-18T09:03:17Z</time>
      </trkpt>
      <trkpt lat="44.09238" lon="6.138">
        <ele>934.4</ele>
        <time>2020-10-18T09:03:18Z</time>
      </trkpt>
      <trkpt lat="44.09236" lon="6.13796">
        <ele>934.4</ele>
        <time>2020-10-18T09:03:19Z</time>
      </trkpt>
      <trkpt lat="44.09233" lon="6.13792">
        <ele>934.4</ele>
        <time>2020-10-18T09:03:20Z</time>
      </trkpt>
      <trkpt lat="44.09231" lon="6.13789">
        <ele>934.2</ele>
        <time>2020-10-18T09:03:21Z</time>
      </trkpt>
      <trkpt lat="44.09228" lon="6.13785">
        <ele>934.4</ele>
        <time>2020-10-18T09:03:22Z</time>
      </trkpt>
      <trkpt lat="44.09225" lon="6.13781">
        <ele>934.4</ele>
        <time>2020-10-18T09:03:23Z</time>
      </trkpt>
      <trkpt lat="44.09223" lon="6.13777">
        <ele>934.4</ele>
        <time>2020-10-18T09:03:24Z</time>
      </trkpt>
      <trkpt lat="44.09219" lon="6.1377">
        <ele>934.2</ele>
        <time>2020-10-18T09:03:26Z</time>
      </trkpt>
      <trkpt lat="44.09217" lon="6.13768">
        <ele>934.2</ele>
        <time>2020-10-18T09:03:27Z</time>
      </trkpt>
      <trkpt lat="44.09215" lon="6.13765">
        <ele>934.2</ele>
        <time>2020-10-18T09:03:28Z</time>
      </trkpt>
      <trkpt lat="44.09208" lon="6.1376">
        <ele>934.2</ele>
        <time>2020-10-18T09:03:30Z</time>
      </trkpt>
      <trkpt lat="44.09202" lon="6.13754">
        <ele>934.2</ele>
        <time>2020-10-18T09:03:32Z</time>
      </trkpt>
      <trkpt lat="44.09195" lon="6.13748">
        <ele>934.2</ele>
        <time>2020-10-18T09:03:34Z</time>
      </trkpt>
      <trkpt lat="44.09187" lon="6.13746">
        <ele>934</ele>
        <time>2020-10-18T09:03:36Z</time>
      </trkpt>
      <trkpt lat="44.09183" lon="6.13745">
        <ele>934</ele>
        <time>2020-10-18T09:03:37Z</time>
      </trkpt>
      <trkpt lat="44.0918" lon="6.13745">
        <ele>933.8</ele>
        <time>2020-10-18T09:03:38Z</time>
      </trkpt>
      <trkpt lat="44.09178" lon="6.13744">
        <ele>933.6</ele>
        <time>2020-10-18T09:03:39Z</time>
      </trkpt>
      <trkpt lat="44.09176" lon="6.13743">
        <ele>933.6</ele>
        <time>2020-10-18T09:03:40Z</time>
      </trkpt>
      <trkpt lat="44.09174" lon="6.13742">
        <ele>933.6</ele>
        <time>2020-10-18T09:03:41Z</time>
      </trkpt>
      <trkpt lat="44.09172" lon="6.13742">
        <ele>933.4</ele>
        <time>2020-10-18T09:03:42Z</time>
      </trkpt>
      <trkpt lat="44.0917" lon="6.13744">
        <ele>933.4</ele>
        <time>2020-10-18T09:03:43Z</time>
      </trkpt>
      <trkpt lat="44.09167" lon="6.13745">
        <ele>933.2</ele>
        <time>2020-10-18T09:03:44Z</time>
      </trkpt>
      <trkpt lat="44.09164" lon="6.13747">
        <ele>933.2</ele>
        <time>2020-10-18T09:03:45Z</time>
      </trkpt>
      <trkpt lat="44.09161" lon="6.13748">
        <ele>933.2</ele>
        <time>2020-10-18T09:03:46Z</time>
      </trkpt>
      <trkpt lat="44.09157" lon="6.1375">
        <ele>933.2</ele>
        <time>2020-10-18T09:03:47Z</time>
      </trkpt>
      <trkpt lat="44.09153" lon="6.13753">
        <ele>933</ele>
        <time>2020-10-18T09:03:48Z</time>
      </trkpt>
      <trkpt lat="44.09149" lon="6.13755">
        <ele>933</ele>
        <time>2020-10-18T09:03:49Z</time>
      </trkpt>
      <trkpt lat="44.09145" lon="6.13757">
        <ele>933</ele>
        <time>2020-10-18T09:03:50Z</time>
      </trkpt>
      <trkpt lat="44.09139" lon="6.13759">
        <ele>932.8</ele>
        <time>2020-10-18T09:03:51Z</time>
      </trkpt>
      <trkpt lat="44.09135" lon="6.1376">
        <ele>932.6</ele>
        <time>2020-10-18T09:03:52Z</time>
      </trkpt>
      <trkpt lat="44.09132" lon="6.13761">
        <ele>932.6</ele>
        <time>2020-10-18T09:03:53Z</time>
      </trkpt>
      <trkpt lat="44.09129" lon="6.13761">
        <ele>932.4</ele>
        <time>2020-10-18T09:03:54Z</time>
      </trkpt>
      <trkpt lat="44.09126" lon="6.13761">
        <ele>932.2</ele>
        <time>2020-10-18T09:03:55Z</time>
      </trkpt>
      <trkpt lat="44.09124" lon="6.1376">
        <ele>931.8</ele>
        <time>2020-10-18T09:03:56Z</time>
      </trkpt>
      <trkpt lat="44.09121" lon="6.1376">
        <ele>931.6</ele>
        <time>2020-10-18T09:03:57Z</time>
      </trkpt>
      <trkpt lat="44.09118" lon="6.13759">
        <ele>931.4</ele>
        <time>2020-10-18T09:03:58Z</time>
      </trkpt>
      <trkpt lat="44.09115" lon="6.13759">
        <ele>930.8</ele>
        <time>2020-10-18T09:03:59Z</time>
      </trkpt>
      <trkpt lat="44.09111" lon="6.13759">
        <ele>930.6</ele>
        <time>2020-10-18T09:04:00Z</time>
      </trkpt>
      <trkpt lat="44.09104" lon="6.13758">
        <ele>929.4</ele>
        <time>2020-10-18T09:04:02Z</time>
      </trkpt>
      <trkpt lat="44.09101" lon="6.13758">
        <ele>929</ele>
        <time>2020-10-18T09:04:03Z</time>
      </trkpt>
      <trkpt lat="44.09098" lon="6.13757">
        <ele>928.4</ele>
        <time>2020-10-18T09:04:04Z</time>
      </trkpt>
      <trkpt lat="44.09095" lon="6.13757">
        <ele>927.8</ele>
        <time>2020-10-18T09:04:05Z</time>
      </trkpt>
      <trkpt lat="44.09092" lon="6.13757">
        <ele>927.2</ele>
        <time>2020-10-18T09:04:06Z</time>
      </trkpt>
      <trkpt lat="44.0909" lon="6.13757">
        <ele>926.6</ele>
        <time>2020-10-18T09:04:07Z</time>
      </trkpt>
      <trkpt lat="44.09087" lon="6.13757">
        <ele>925.8</ele>
        <time>2020-10-18T09:04:08Z</time>
      </trkpt>
      <trkpt lat="44.09085" lon="6.13757">
        <ele>925.2</ele>
        <time>2020-10-18T09:04:09Z</time>
      </trkpt>
      <trkpt lat="44.09083" lon="6.13757">
        <ele>924.8</ele>
        <time>2020-10-18T09:04:10Z</time>
      </trkpt>
      <trkpt lat="44.0908" lon="6.13757">
        <ele>924.6</ele>
        <time>2020-10-18T09:04:11Z</time>
      </trkpt>
      <trkpt lat="44.09078" lon="6.13756">
        <ele>924.6</ele>
        <time>2020-10-18T09:04:12Z</time>
      </trkpt>
      <trkpt lat="44.09076" lon="6.13756">
        <ele>923.2</ele>
        <time>2020-10-18T09:04:13Z</time>
      </trkpt>
      <trkpt lat="44.09073" lon="6.13756">
        <ele>922.6</ele>
        <time>2020-10-18T09:04:14Z</time>
      </trkpt>
      <trkpt lat="44.09071" lon="6.13755">
        <ele>922.2</ele>
        <time>2020-10-18T09:04:15Z</time>
      </trkpt>
      <trkpt lat="44.09069" lon="6.13755">
        <ele>921.8</ele>
        <time>2020-10-18T09:04:16Z</time>
      </trkpt>
      <trkpt lat="44.09068" lon="6.13755">
        <ele>921.4</ele>
        <time>2020-10-18T09:04:17Z</time>
      </trkpt>
      <trkpt lat="44.09066" lon="6.13755">
        <ele>921</ele>
        <time>2020-10-18T09:04:18Z</time>
      </trkpt>
      <trkpt lat="44.09065" lon="6.13755">
        <ele>920.4</ele>
        <time>2020-10-18T09:04:19Z</time>
      </trkpt>
      <trkpt lat="44.09063" lon="6.13755">
        <ele>920.2</ele>
        <time>2020-10-18T09:04:20Z</time>
      </trkpt>
      <trkpt lat="44.09063" lon="6.13754">
        <ele>920</ele>
        <time>2020-10-18T09:04:21Z</time>
      </trkpt>
      <trkpt lat="44.09062" lon="6.13755">
        <ele>919.8</ele>
        <time>2020-10-18T09:04:22Z</time>
      </trkpt>
      <trkpt lat="44.09062" lon="6.13755">
        <ele>919.4</ele>
        <time>2020-10-18T09:04:23Z</time>
      </trkpt>
      <trkpt lat="44.09061" lon="6.13755">
        <ele>919.4</ele>
        <time>2020-10-18T09:04:24Z</time>
      </trkpt>
      <trkpt lat="44.09061" lon="6.13755">
        <ele>919.2</ele>
        <time>2020-10-18T09:04:25Z</time>
      </trkpt>
      <trkpt lat="44.09061" lon="6.13755">
        <ele>919</ele>
        <time>2020-10-18T09:04:26Z</time>
      </trkpt>
      <trkpt lat="44.0906" lon="6.13754">
        <ele>919</ele>
        <time>2020-10-18T09:04:28Z</time>
      </trkpt>
      <trkpt lat="44.0906" lon="6.13754">
        <ele>919</ele>
        <time>2020-10-18T09:04:30Z</time>
      </trkpt>
      <trkpt lat="44.0906" lon="6.13754">
        <ele>919</ele>
        <time>2020-10-18T09:04:32Z</time>
      </trkpt>
      <trkpt lat="44.09059" lon="6.13754">
        <ele>919</ele>
        <time>2020-10-18T09:04:34Z</time>
      </trkpt>
      <trkpt lat="44.09059" lon="6.13754">
        <ele>919</ele>
        <time>2020-10-18T09:04:36Z</time>
      </trkpt>
      <trkpt lat="44.09059" lon="6.13755">
        <ele>919</ele>
        <time>2020-10-18T09:04:38Z</time>
      </trkpt>
      <trkpt lat="44.09059" lon="6.13755">
        <ele>919</ele>
        <time>2020-10-18T09:04:39Z</time>
      </trkpt>
      <trkpt lat="44.09058" lon="6.13756">
        <ele>919</ele>
        <time>2020-10-18T09:04:40Z</time>
      </trkpt>
      <trkpt lat="44.09058" lon="6.13756">
        <ele>919</ele>
        <time>2020-10-18T09:04:42Z</time>
      </trkpt>
      <trkpt lat="44.09059" lon="6.13756">
        <ele>919</ele>
        <time>2020-10-18T09:04:44Z</time>
      </trkpt>
      <trkpt lat="44.09059" lon="6.13756">
        <ele>918.8</ele>
        <time>2020-10-18T09:04:46Z</time>
      </trkpt>
      <trkpt lat="44.09059" lon="6.13756">
        <ele>919</ele>
        <time>2020-10-18T09:04:48Z</time>
      </trkpt>
      <trkpt lat="44.09058" lon="6.13756">
        <ele>918.8</ele>
        <time>2020-10-18T09:04:50Z</time>
      </trkpt>
      <trkpt lat="44.09057" lon="6.13757">
        <ele>918.8</ele>
        <time>2020-10-18T09:04:51Z</time>
      </trkpt>
      <trkpt lat="44.09057" lon="6.13757">
        <ele>919</ele>
        <time>2020-10-18T09:04:52Z</time>
      </trkpt>
      <trkpt lat="44.09055" lon="6.13759">
        <ele>919</ele>
        <time>2020-10-18T09:04:54Z</time>
      </trkpt>
      <trkpt lat="44.09054" lon="6.13761">
        <ele>918.8</ele>
        <time>2020-10-18T09:04:56Z</time>
      </trkpt>
      <trkpt lat="44.09054" lon="6.13762">
        <ele>919</ele>
        <time>2020-10-18T09:04:57Z</time>
      </trkpt>
      <trkpt lat="44.09053" lon="6.13762">
        <ele>919</ele>
        <time>2020-10-18T09:04:58Z</time>
      </trkpt>
      <trkpt lat="44.09053" lon="6.13762">
        <ele>919</ele>
        <time>2020-10-18T09:04:59Z</time>
      </trkpt>
      <trkpt lat="44.09054" lon="6.13762">
        <ele>919</ele>
        <time>2020-10-18T09:05:00Z</time>
      </trkpt>
      <trkpt lat="44.09054" lon="6.13761">
        <ele>919</ele>
        <time>2020-10-18T09:05:02Z</time>
      </trkpt>
      <trkpt lat="44.09054" lon="6.13761">
        <ele>919</ele>
        <time>2020-10-18T09:05:04Z</time>
      </trkpt>
      <trkpt lat="44.09053" lon="6.13763">
        <ele>919.2</ele>
        <time>2020-10-18T09:05:06Z</time>
      </trkpt>
      <trkpt lat="44.09052" lon="6.13763">
        <ele>919.2</ele>
        <time>2020-10-18T09:05:07Z</time>
      </trkpt>
      <trkpt lat="44.09052" lon="6.13763">
        <ele>919.2</ele>
        <time>2020-10-18T09:05:08Z</time>
      </trkpt>
      <trkpt lat="44.09052" lon="6.13763">
        <ele>919.2</ele>
        <time>2020-10-18T09:05:10Z</time>
      </trkpt>
      <trkpt lat="44.09052" lon="6.13763">
        <ele>919.2</ele>
        <time>2020-10-18T09:05:12Z</time>
      </trkpt>
      <trkpt lat="44.09052" lon="6.13763">
        <ele>919.2</ele>
        <time>2020-10-18T09:05:14Z</time>
      </trkpt>
      <trkpt lat="44.09052" lon="6.13763">
        <ele>919.4</ele>
        <time>2020-10-18T09:05:16Z</time>
      </trkpt>
      <trkpt lat="44.09051" lon="6.13763">
        <ele>919.4</ele>
        <time>2020-10-18T09:05:17Z</time>
      </trkpt>
      <trkpt lat="44.09051" lon="6.13763">
        <ele>919.4</ele>
        <time>2020-10-18T09:05:18Z</time>
      </trkpt>
      <trkpt lat="44.0905" lon="6.13763">
        <ele>919.4</ele>
        <time>2020-10-18T09:05:19Z</time>
      </trkpt>
      <trkpt lat="44.0905" lon="6.13763">
        <ele>919.4</ele>
        <time>2020-10-18T09:05:20Z</time>
      </trkpt>
      <trkpt lat="44.0905" lon="6.13763">
        <ele>919.6</ele>
        <time>2020-10-18T09:05:22Z</time>
      </trkpt>
      <trkpt lat="44.0905" lon="6.13763">
        <ele>919.6</ele>
        <time>2020-10-18T09:05:24Z</time>
      </trkpt>
      <trkpt lat="44.0905" lon="6.13763">
        <ele>919.6</ele>
        <time>2020-10-18T09:05:26Z</time>
      </trkpt>
      <trkpt lat="44.0905" lon="6.13763">
        <ele>919.8</ele>
        <time>2020-10-18T09:05:28Z</time>
      </trkpt>
      <trkpt lat="44.0905" lon="6.13763">
        <ele>919.6</ele>
        <time>2020-10-18T09:05:30Z</time>
      </trkpt>
      <trkpt lat="44.0905" lon="6.13763">
        <ele>919.6</ele>
        <time>2020-10-18T09:05:32Z</time>
      </trkpt>
      <trkpt lat="44.09049" lon="6.13764">
        <ele>919.8</ele>
        <time>2020-10-18T09:05:34Z</time>
      </trkpt>
      <trkpt lat="44.09048" lon="6.13764">
        <ele>919.8</ele>
        <time>2020-10-18T09:05:36Z</time>
      </trkpt>
      <trkpt lat="44.09048" lon="6.13764">
        <ele>919.8</ele>
        <time>2020-10-18T09:05:37Z</time>
      </trkpt>
      <trkpt lat="44.09047" lon="6.13764">
        <ele>919.8</ele>
        <time>2020-10-18T09:05:38Z</time>
      </trkpt>
      <trkpt lat="44.09046" lon="6.13764">
        <ele>920</ele>
        <time>2020-10-18T09:05:39Z</time>
      </trkpt>
      <trkpt lat="44.09045" lon="6.13764">
        <ele>919.8</ele>
        <time>2020-10-18T09:05:40Z</time>
      </trkpt>
      <trkpt lat="44.09044" lon="6.13765">
        <ele>919.8</ele>
        <time>2020-10-18T09:05:41Z</time>
      </trkpt>
      <trkpt lat="44.09042" lon="6.13764">
        <ele>919.8</ele>
        <time>2020-10-18T09:05:42Z</time>
      </trkpt>
      <trkpt lat="44.09041" lon="6.13764">
        <ele>919.8</ele>
        <time>2020-10-18T09:05:43Z</time>
      </trkpt>
      <trkpt lat="44.09041" lon="6.13764">
        <ele>920</ele>
        <time>2020-10-18T09:05:44Z</time>
      </trkpt>
      <trkpt lat="44.0904" lon="6.13764">
        <ele>920.2</ele>
        <time>2020-10-18T09:05:45Z</time>
      </trkpt>
      <trkpt lat="44.09039" lon="6.13764">
        <ele>920.6</ele>
        <time>2020-10-18T09:05:46Z</time>
      </trkpt>
      <trkpt lat="44.09039" lon="6.13764">
        <ele>921</ele>
        <time>2020-10-18T09:05:47Z</time>
      </trkpt>
      <trkpt lat="44.09038" lon="6.13764">
        <ele>921.4</ele>
        <time>2020-10-18T09:05:48Z</time>
      </trkpt>
      <trkpt lat="44.09037" lon="6.13763">
        <ele>921.8</ele>
        <time>2020-10-18T09:05:49Z</time>
      </trkpt>
      <trkpt lat="44.09037" lon="6.13763">
        <ele>922.2</ele>
        <time>2020-10-18T09:05:50Z</time>
      </trkpt>
      <trkpt lat="44.09036" lon="6.13763">
        <ele>922.6</ele>
        <time>2020-10-18T09:05:51Z</time>
      </trkpt>
      <trkpt lat="44.09035" lon="6.13763">
        <ele>922.6</ele>
        <time>2020-10-18T09:05:52Z</time>
      </trkpt>
      <trkpt lat="44.09035" lon="6.13762">
        <ele>923</ele>
        <time>2020-10-18T09:05:53Z</time>
      </trkpt>
      <trkpt lat="44.09034" lon="6.13762">
        <ele>923.2</ele>
        <time>2020-10-18T09:05:54Z</time>
      </trkpt>
      <trkpt lat="44.09033" lon="6.13762">
        <ele>923.4</ele>
        <time>2020-10-18T09:05:55Z</time>
      </trkpt>
      <trkpt lat="44.09032" lon="6.13761">
        <ele>923.6</ele>
        <time>2020-10-18T09:05:56Z</time>
      </trkpt>
      <trkpt lat="44.09032" lon="6.13761">
        <ele>923.6</ele>
        <time>2020-10-18T09:05:57Z</time>
      </trkpt>
      <trkpt lat="44.09031" lon="6.13761">
        <ele>923.8</ele>
        <time>2020-10-18T09:05:58Z</time>
      </trkpt>
      <trkpt lat="44.0903" lon="6.13761">
        <ele>924</ele>
        <time>2020-10-18T09:05:59Z</time>
      </trkpt>
      <trkpt lat="44.09029" lon="6.13761">
        <ele>924.2</ele>
        <time>2020-10-18T09:06:00Z</time>
      </trkpt>
      <trkpt lat="44.09029" lon="6.1376">
        <ele>924.4</ele>
        <time>2020-10-18T09:06:01Z</time>
      </trkpt>
      <trkpt lat="44.09028" lon="6.1376">
        <ele>924.8</ele>
        <time>2020-10-18T09:06:02Z</time>
      </trkpt>
      <trkpt lat="44.09027" lon="6.1376">
        <ele>925</ele>
        <time>2020-10-18T09:06:03Z</time>
      </trkpt>
      <trkpt lat="44.09027" lon="6.1376">
        <ele>925.6</ele>
        <time>2020-10-18T09:06:04Z</time>
      </trkpt>
      <trkpt lat="44.09026" lon="6.1376">
        <ele>925.8</ele>
        <time>2020-10-18T09:06:05Z</time>
      </trkpt>
      <trkpt lat="44.09025" lon="6.13759">
        <ele>926.2</ele>
        <time>2020-10-18T09:06:06Z</time>
      </trkpt>
      <trkpt lat="44.09025" lon="6.13759">
        <ele>926.4</ele>
        <time>2020-10-18T09:06:07Z</time>
      </trkpt>
      <trkpt lat="44.09024" lon="6.13759">
        <ele>926.6</ele>
        <time>2020-10-18T09:06:08Z</time>
      </trkpt>
      <trkpt lat="44.09023" lon="6.13759">
        <ele>927</ele>
        <time>2020-10-18T09:06:09Z</time>
      </trkpt>
      <trkpt lat="44.09023" lon="6.13759">
        <ele>927</ele>
        <time>2020-10-18T09:06:10Z</time>
      </trkpt>
      <trkpt lat="44.09022" lon="6.13759">
        <ele>927</ele>
        <time>2020-10-18T09:06:11Z</time>
      </trkpt>
      <trkpt lat="44.09022" lon="6.13758">
        <ele>927.2</ele>
        <time>2020-10-18T09:06:12Z</time>
      </trkpt>
      <trkpt lat="44.09021" lon="6.13758">
        <ele>927.4</ele>
        <time>2020-10-18T09:06:13Z</time>
      </trkpt>
      <trkpt lat="44.09021" lon="6.13758">
        <ele>927.6</ele>
        <time>2020-10-18T09:06:14Z</time>
      </trkpt>
      <trkpt lat="44.0902" lon="6.13758">
        <ele>927.8</ele>
        <time>2020-10-18T09:06:15Z</time>
      </trkpt>
      <trkpt lat="44.09019" lon="6.13757">
        <ele>928</ele>
        <time>2020-10-18T09:06:16Z</time>
      </trkpt>
      <trkpt lat="44.09018" lon="6.13757">
        <ele>928</ele>
        <time>2020-10-18T09:06:17Z</time>
      </trkpt>
      <trkpt lat="44.09018" lon="6.13757">
        <ele>928.4</ele>
        <time>2020-10-18T09:06:18Z</time>
      </trkpt>
      <trkpt lat="44.09018" lon="6.13757">
        <ele>928.6</ele>
        <time>2020-10-18T09:06:20Z</time>
      </trkpt>
      <trkpt lat="44.09018" lon="6.13756">
        <ele>928.8</ele>
        <time>2020-10-18T09:06:22Z</time>
      </trkpt>
      <trkpt lat="44.09017" lon="6.13756">
        <ele>929</ele>
        <time>2020-10-18T09:06:23Z</time>
      </trkpt>
      <trkpt lat="44.09017" lon="6.13756">
        <ele>929.2</ele>
        <time>2020-10-18T09:06:24Z</time>
      </trkpt>
      <trkpt lat="44.09015" lon="6.13756">
        <ele>929.6</ele>
        <time>2020-10-18T09:06:26Z</time>
      </trkpt>
      <trkpt lat="44.09014" lon="6.13756">
        <ele>929.4</ele>
        <time>2020-10-18T09:06:27Z</time>
      </trkpt>
      <trkpt lat="44.09013" lon="6.13755">
        <ele>929.6</ele>
        <time>2020-10-18T09:06:28Z</time>
      </trkpt>
      <trkpt lat="44.09012" lon="6.13755">
        <ele>929.6</ele>
        <time>2020-10-18T09:06:29Z</time>
      </trkpt>
      <trkpt lat="44.0901" lon="6.13755">
        <ele>929.8</ele>
        <time>2020-10-18T09:06:30Z</time>
      </trkpt>
      <trkpt lat="44.09009" lon="6.13754">
        <ele>929.8</ele>
        <time>2020-10-18T09:06:31Z</time>
      </trkpt>
      <trkpt lat="44.09008" lon="6.13754">
        <ele>929.8</ele>
        <time>2020-10-18T09:06:32Z</time>
      </trkpt>
      <trkpt lat="44.09007" lon="6.13754">
        <ele>929.8</ele>
        <time>2020-10-18T09:06:33Z</time>
      </trkpt>
      <trkpt lat="44.09006" lon="6.13754">
        <ele>930</ele>
        <time>2020-10-18T09:06:34Z</time>
      </trkpt>
      <trkpt lat="44.09004" lon="6.13754">
        <ele>930</ele>
        <time>2020-10-18T09:06:35Z</time>
      </trkpt>
      <trkpt lat="44.09003" lon="6.13755">
        <ele>929.8</ele>
        <time>2020-10-18T09:06:36Z</time>
      </trkpt>
      <trkpt lat="44.09002" lon="6.13755">
        <ele>929.8</ele>
        <time>2020-10-18T09:06:37Z</time>
      </trkpt>
      <trkpt lat="44.09001" lon="6.13755">
        <ele>930.2</ele>
        <time>2020-10-18T09:06:38Z</time>
      </trkpt>
      <trkpt lat="44.09001" lon="6.13756">
        <ele>930.2</ele>
        <time>2020-10-18T09:06:39Z</time>
      </trkpt>
      <trkpt lat="44.09001" lon="6.13756">
        <ele>930.4</ele>
        <time>2020-10-18T09:06:40Z</time>
      </trkpt>
      <trkpt lat="44.09" lon="6.13755">
        <ele>930.6</ele>
        <time>2020-10-18T09:06:41Z</time>
      </trkpt>
      <trkpt lat="44.09" lon="6.13755">
        <ele>930.8</ele>
        <time>2020-10-18T09:06:42Z</time>
      </trkpt>
      <trkpt lat="44.08999" lon="6.13755">
        <ele>931</ele>
        <time>2020-10-18T09:06:44Z</time>
      </trkpt>
      <trkpt lat="44.08999" lon="6.13755">
        <ele>931.2</ele>
        <time>2020-10-18T09:06:45Z</time>
      </trkpt>
      <trkpt lat="44.08998" lon="6.13756">
        <ele>931.2</ele>
        <time>2020-10-18T09:06:46Z</time>
      </trkpt>
      <trkpt lat="44.08997" lon="6.13756">
        <ele>931.6</ele>
        <time>2020-10-18T09:06:47Z</time>
      </trkpt>
      <trkpt lat="44.08996" lon="6.13756">
        <ele>931.6</ele>
        <time>2020-10-18T09:06:48Z</time>
      </trkpt>
      <trkpt lat="44.08995" lon="6.13756">
        <ele>931.8</ele>
        <time>2020-10-18T09:06:49Z</time>
      </trkpt>
      <trkpt lat="44.08994" lon="6.13756">
        <ele>931.8</ele>
        <time>2020-10-18T09:06:50Z</time>
      </trkpt>
      <trkpt lat="44.08993" lon="6.13756">
        <ele>931.8</ele>
        <time>2020-10-18T09:06:51Z</time>
      </trkpt>
      <trkpt lat="44.08992" lon="6.13757">
        <ele>932</ele>
        <time>2020-10-18T09:06:52Z</time>
      </trkpt>
      <trkpt lat="44.0899" lon="6.13757">
        <ele>932</ele>
        <time>2020-10-18T09:06:54Z</time>
      </trkpt>
      <trkpt lat="44.0899" lon="6.13757">
        <ele>932.2</ele>
        <time>2020-10-18T09:06:55Z</time>
      </trkpt>
      <trkpt lat="44.08988" lon="6.13757">
        <ele>932.4</ele>
        <time>2020-10-18T09:06:56Z</time>
      </trkpt>
      <trkpt lat="44.08987" lon="6.13758">
        <ele>932.4</ele>
        <time>2020-10-18T09:06:57Z</time>
      </trkpt>
      <trkpt lat="44.08986" lon="6.13758">
        <ele>932.4</ele>
        <time>2020-10-18T09:06:58Z</time>
      </trkpt>
      <trkpt lat="44.08984" lon="6.13758">
        <ele>932.6</ele>
        <time>2020-10-18T09:06:59Z</time>
      </trkpt>
      <trkpt lat="44.08983" lon="6.13758">
        <ele>932.8</ele>
        <time>2020-10-18T09:07:00Z</time>
      </trkpt>
      <trkpt lat="44.08981" lon="6.13758">
        <ele>933</ele>
        <time>2020-10-18T09:07:01Z</time>
      </trkpt>
      <trkpt lat="44.0898" lon="6.13759">
        <ele>932.8</ele>
        <time>2020-10-18T09:07:02Z</time>
      </trkpt>
      <trkpt lat="44.08978" lon="6.13759">
        <ele>933.2</ele>
        <time>2020-10-18T09:07:03Z</time>
      </trkpt>
      <trkpt lat="44.08977" lon="6.1376">
        <ele>933.6</ele>
        <time>2020-10-18T09:07:04Z</time>
      </trkpt>
      <trkpt lat="44.08975" lon="6.1376">
        <ele>933.8</ele>
        <time>2020-10-18T09:07:05Z</time>
      </trkpt>
      <trkpt lat="44.08974" lon="6.1376">
        <ele>934.2</ele>
        <time>2020-10-18T09:07:06Z</time>
      </trkpt>
      <trkpt lat="44.08973" lon="6.13761">
        <ele>934.4</ele>
        <time>2020-10-18T09:07:07Z</time>
      </trkpt>
      <trkpt lat="44.08971" lon="6.13761">
        <ele>934.6</ele>
        <time>2020-10-18T09:07:08Z</time>
      </trkpt>
      <trkpt lat="44.0897" lon="6.13761">
        <ele>934.6</ele>
        <time>2020-10-18T09:07:09Z</time>
      </trkpt>
      <trkpt lat="44.08968" lon="6.13761">
        <ele>934.6</ele>
        <time>2020-10-18T09:07:10Z</time>
      </trkpt>
      <trkpt lat="44.08967" lon="6.13762">
        <ele>934.8</ele>
        <time>2020-10-18T09:07:11Z</time>
      </trkpt>
      <trkpt lat="44.08966" lon="6.13762">
        <ele>935</ele>
        <time>2020-10-18T09:07:12Z</time>
      </trkpt>
      <trkpt lat="44.08964" lon="6.13763">
        <ele>935.2</ele>
        <time>2020-10-18T09:07:13Z</time>
      </trkpt>
      <trkpt lat="44.08963" lon="6.13763">
        <ele>935.4</ele>
        <time>2020-10-18T09:07:14Z</time>
      </trkpt>
      <trkpt lat="44.08962" lon="6.13763">
        <ele>935.8</ele>
        <time>2020-10-18T09:07:15Z</time>
      </trkpt>
      <trkpt lat="44.0896" lon="6.13764">
        <ele>936</ele>
        <time>2020-10-18T09:07:16Z</time>
      </trkpt>
      <trkpt lat="44.08959" lon="6.13764">
        <ele>936.2</ele>
        <time>2020-10-18T09:07:17Z</time>
      </trkpt>
      <trkpt lat="44.08958" lon="6.13764">
        <ele>936.4</ele>
        <time>2020-10-18T09:07:18Z</time>
      </trkpt>
      <trkpt lat="44.08956" lon="6.13764">
        <ele>936.6</ele>
        <time>2020-10-18T09:07:19Z</time>
      </trkpt>
      <trkpt lat="44.08955" lon="6.13764">
        <ele>936.8</ele>
        <time>2020-10-18T09:07:20Z</time>
      </trkpt>
      <trkpt lat="44.08954" lon="6.13763">
        <ele>937</ele>
        <time>2020-10-18T09:07:21Z</time>
      </trkpt>
      <trkpt lat="44.08953" lon="6.13763">
        <ele>937.4</ele>
        <time>2020-10-18T09:07:22Z</time>
      </trkpt>
      <trkpt lat="44.08951" lon="6.13763">
        <ele>937.6</ele>
        <time>2020-10-18T09:07:23Z</time>
      </trkpt>
      <trkpt lat="44.0895" lon="6.13763">
        <ele>938</ele>
        <time>2020-10-18T09:07:24Z</time>
      </trkpt>
      <trkpt lat="44.08949" lon="6.13763">
        <ele>938</ele>
        <time>2020-10-18T09:07:25Z</time>
      </trkpt>
      <trkpt lat="44.08947" lon="6.13763">
        <ele>938.2</ele>
        <time>2020-10-18T09:07:26Z</time>
      </trkpt>
      <trkpt lat="44.08946" lon="6.13763">
        <ele>938.2</ele>
        <time>2020-10-18T09:07:27Z</time>
      </trkpt>
      <trkpt lat="44.08944" lon="6.13763">
        <ele>938.2</ele>
        <time>2020-10-18T09:07:28Z</time>
      </trkpt>
      <trkpt lat="44.08943" lon="6.13764">
        <ele>938.6</ele>
        <time>2020-10-18T09:07:29Z</time>
      </trkpt>
      <trkpt lat="44.08942" lon="6.13764">
        <ele>938.8</ele>
        <time>2020-10-18T09:07:30Z</time>
      </trkpt>
      <trkpt lat="44.08941" lon="6.13765">
        <ele>938.8</ele>
        <time>2020-10-18T09:07:31Z</time>
      </trkpt>
      <trkpt lat="44.0894" lon="6.13765">
        <ele>939</ele>
        <time>2020-10-18T09:07:32Z</time>
      </trkpt>
      <trkpt lat="44.08939" lon="6.13766">
        <ele>939</ele>
        <time>2020-10-18T09:07:33Z</time>
      </trkpt>
      <trkpt lat="44.08938" lon="6.13767">
        <ele>939.2</ele>
        <time>2020-10-18T09:07:34Z</time>
      </trkpt>
      <trkpt lat="44.08937" lon="6.13768">
        <ele>939.4</ele>
        <time>2020-10-18T09:07:35Z</time>
      </trkpt>
      <trkpt lat="44.08936" lon="6.13769">
        <ele>939.6</ele>
        <time>2020-10-18T09:07:36Z</time>
      </trkpt>
      <trkpt lat="44.08936" lon="6.1377">
        <ele>939.8</ele>
        <time>2020-10-18T09:07:37Z</time>
      </trkpt>
      <trkpt lat="44.08935" lon="6.1377">
        <ele>940.2</ele>
        <time>2020-10-18T09:07:38Z</time>
      </trkpt>
      <trkpt lat="44.08934" lon="6.13771">
        <ele>940.4</ele>
        <time>2020-10-18T09:07:39Z</time>
      </trkpt>
      <trkpt lat="44.08932" lon="6.13771">
        <ele>940.8</ele>
        <time>2020-10-18T09:07:40Z</time>
      </trkpt>
      <trkpt lat="44.08931" lon="6.13772">
        <ele>941.2</ele>
        <time>2020-10-18T09:07:41Z</time>
      </trkpt>
      <trkpt lat="44.0893" lon="6.13773">
        <ele>941.4</ele>
        <time>2020-10-18T09:07:42Z</time>
      </trkpt>
      <trkpt lat="44.08929" lon="6.13773">
        <ele>941.8</ele>
        <time>2020-10-18T09:07:43Z</time>
      </trkpt>
      <trkpt lat="44.08928" lon="6.13774">
        <ele>942</ele>
        <time>2020-10-18T09:07:44Z</time>
      </trkpt>
      <trkpt lat="44.08927" lon="6.13774">
        <ele>942.2</ele>
        <time>2020-10-18T09:07:45Z</time>
      </trkpt>
      <trkpt lat="44.08926" lon="6.13775">
        <ele>942.4</ele>
        <time>2020-10-18T09:07:46Z</time>
      </trkpt>
      <trkpt lat="44.08925" lon="6.13776">
        <ele>942.4</ele>
        <time>2020-10-18T09:07:47Z</time>
      </trkpt>
      <trkpt lat="44.08924" lon="6.13776">
        <ele>942.8</ele>
        <time>2020-10-18T09:07:48Z</time>
      </trkpt>
      <trkpt lat="44.08923" lon="6.13777">
        <ele>942.8</ele>
        <time>2020-10-18T09:07:49Z</time>
      </trkpt>
      <trkpt lat="44.08922" lon="6.13778">
        <ele>943.2</ele>
        <time>2020-10-18T09:07:50Z</time>
      </trkpt>
      <trkpt lat="44.08921" lon="6.13779">
        <ele>943.6</ele>
        <time>2020-10-18T09:07:51Z</time>
      </trkpt>
      <trkpt lat="44.0892" lon="6.1378">
        <ele>943.8</ele>
        <time>2020-10-18T09:07:52Z</time>
      </trkpt>
      <trkpt lat="44.08919" lon="6.1378">
        <ele>943.8</ele>
        <time>2020-10-18T09:07:53Z</time>
      </trkpt>
      <trkpt lat="44.08918" lon="6.13781">
        <ele>944</ele>
        <time>2020-10-18T09:07:54Z</time>
      </trkpt>
      <trkpt lat="44.08917" lon="6.13782">
        <ele>944.4</ele>
        <time>2020-10-18T09:07:55Z</time>
      </trkpt>
      <trkpt lat="44.08916" lon="6.13782">
        <ele>944.6</ele>
        <time>2020-10-18T09:07:56Z</time>
      </trkpt>
      <trkpt lat="44.08915" lon="6.13783">
        <ele>945</ele>
        <time>2020-10-18T09:07:57Z</time>
      </trkpt>
      <trkpt lat="44.08915" lon="6.13783">
        <ele>945.2</ele>
        <time>2020-10-18T09:07:58Z</time>
      </trkpt>
      <trkpt lat="44.08914" lon="6.13784">
        <ele>945.4</ele>
        <time>2020-10-18T09:07:59Z</time>
      </trkpt>
      <trkpt lat="44.08913" lon="6.13784">
        <ele>945.8</ele>
        <time>2020-10-18T09:08:00Z</time>
      </trkpt>
      <trkpt lat="44.08912" lon="6.13785">
        <ele>946</ele>
        <time>2020-10-18T09:08:01Z</time>
      </trkpt>
      <trkpt lat="44.08911" lon="6.13786">
        <ele>946.2</ele>
        <time>2020-10-18T09:08:02Z</time>
      </trkpt>
      <trkpt lat="44.0891" lon="6.13786">
        <ele>946.6</ele>
        <time>2020-10-18T09:08:03Z</time>
      </trkpt>
      <trkpt lat="44.08909" lon="6.13787">
        <ele>946.6</ele>
        <time>2020-10-18T09:08:04Z</time>
      </trkpt>
      <trkpt lat="44.08909" lon="6.13788">
        <ele>947</ele>
        <time>2020-10-18T09:08:05Z</time>
      </trkpt>
      <trkpt lat="44.08908" lon="6.13789">
        <ele>947</ele>
        <time>2020-10-18T09:08:06Z</time>
      </trkpt>
      <trkpt lat="44.08907" lon="6.1379">
        <ele>947.2</ele>
        <time>2020-10-18T09:08:07Z</time>
      </trkpt>
      <trkpt lat="44.08907" lon="6.13791">
        <ele>947.6</ele>
        <time>2020-10-18T09:08:08Z</time>
      </trkpt>
      <trkpt lat="44.08906" lon="6.13792">
        <ele>947.6</ele>
        <time>2020-10-18T09:08:09Z</time>
      </trkpt>
      <trkpt lat="44.08906" lon="6.13793">
        <ele>948</ele>
        <time>2020-10-18T09:08:10Z</time>
      </trkpt>
      <trkpt lat="44.08905" lon="6.13794">
        <ele>948.2</ele>
        <time>2020-10-18T09:08:11Z</time>
      </trkpt>
      <trkpt lat="44.08904" lon="6.13795">
        <ele>948.4</ele>
        <time>2020-10-18T09:08:12Z</time>
      </trkpt>
      <trkpt lat="44.08903" lon="6.13796">
        <ele>948.8</ele>
        <time>2020-10-18T09:08:13Z</time>
      </trkpt>
      <trkpt lat="44.08903" lon="6.13796">
        <ele>949</ele>
        <time>2020-10-18T09:08:14Z</time>
      </trkpt>
      <trkpt lat="44.08902" lon="6.13797">
        <ele>949</ele>
        <time>2020-10-18T09:08:15Z</time>
      </trkpt>
      <trkpt lat="44.08901" lon="6.13797">
        <ele>949.4</ele>
        <time>2020-10-18T09:08:16Z</time>
      </trkpt>
      <trkpt lat="44.089" lon="6.13797">
        <ele>949.6</ele>
        <time>2020-10-18T09:08:17Z</time>
      </trkpt>
      <trkpt lat="44.089" lon="6.13797">
        <ele>949.8</ele>
        <time>2020-10-18T09:08:18Z</time>
      </trkpt>
      <trkpt lat="44.08899" lon="6.13798">
        <ele>950</ele>
        <time>2020-10-18T09:08:19Z</time>
      </trkpt>
      <trkpt lat="44.08898" lon="6.13798">
        <ele>950.4</ele>
        <time>2020-10-18T09:08:20Z</time>
      </trkpt>
      <trkpt lat="44.08897" lon="6.13798">
        <ele>950.4</ele>
        <time>2020-10-18T09:08:21Z</time>
      </trkpt>
      <trkpt lat="44.08896" lon="6.13799">
        <ele>951</ele>
        <time>2020-10-18T09:08:22Z</time>
      </trkpt>
      <trkpt lat="44.08895" lon="6.138">
        <ele>951</ele>
        <time>2020-10-18T09:08:23Z</time>
      </trkpt>
      <trkpt lat="44.08894" lon="6.138">
        <ele>951.2</ele>
        <time>2020-10-18T09:08:24Z</time>
      </trkpt>
      <trkpt lat="44.08893" lon="6.13801">
        <ele>951.4</ele>
        <time>2020-10-18T09:08:25Z</time>
      </trkpt>
      <trkpt lat="44.08892" lon="6.13801">
        <ele>951.4</ele>
        <time>2020-10-18T09:08:26Z</time>
      </trkpt>
      <trkpt lat="44.08891" lon="6.13801">
        <ele>951.8</ele>
        <time>2020-10-18T09:08:27Z</time>
      </trkpt>
      <trkpt lat="44.0889" lon="6.13802">
        <ele>952</ele>
        <time>2020-10-18T09:08:28Z</time>
      </trkpt>
      <trkpt lat="44.08889" lon="6.13802">
        <ele>952.2</ele>
        <time>2020-10-18T09:08:29Z</time>
      </trkpt>
      <trkpt lat="44.08889" lon="6.13802">
        <ele>952.6</ele>
        <time>2020-10-18T09:08:30Z</time>
      </trkpt>
      <trkpt lat="44.08888" lon="6.13803">
        <ele>952.8</ele>
        <time>2020-10-18T09:08:31Z</time>
      </trkpt>
      <trkpt lat="44.08887" lon="6.13804">
        <ele>953.2</ele>
        <time>2020-10-18T09:08:32Z</time>
      </trkpt>
      <trkpt lat="44.08886" lon="6.13804">
        <ele>953.6</ele>
        <time>2020-10-18T09:08:33Z</time>
      </trkpt>
      <trkpt lat="44.08885" lon="6.13805">
        <ele>953.6</ele>
        <time>2020-10-18T09:08:34Z</time>
      </trkpt>
      <trkpt lat="44.08884" lon="6.13806">
        <ele>954</ele>
        <time>2020-10-18T09:08:35Z</time>
      </trkpt>
      <trkpt lat="44.08884" lon="6.13806">
        <ele>954.2</ele>
        <time>2020-10-18T09:08:36Z</time>
      </trkpt>
      <trkpt lat="44.08883" lon="6.13807">
        <ele>954.6</ele>
        <time>2020-10-18T09:08:37Z</time>
      </trkpt>
      <trkpt lat="44.08882" lon="6.13807">
        <ele>954.8</ele>
        <time>2020-10-18T09:08:38Z</time>
      </trkpt>
      <trkpt lat="44.08881" lon="6.13808">
        <ele>955.2</ele>
        <time>2020-10-18T09:08:39Z</time>
      </trkpt>
      <trkpt lat="44.0888" lon="6.13809">
        <ele>955.6</ele>
        <time>2020-10-18T09:08:40Z</time>
      </trkpt>
      <trkpt lat="44.08879" lon="6.13809">
        <ele>955.6</ele>
        <time>2020-10-18T09:08:41Z</time>
      </trkpt>
      <trkpt lat="44.08878" lon="6.1381">
        <ele>955.8</ele>
        <time>2020-10-18T09:08:42Z</time>
      </trkpt>
      <trkpt lat="44.08877" lon="6.1381">
        <ele>956</ele>
        <time>2020-10-18T09:08:43Z</time>
      </trkpt>
      <trkpt lat="44.08876" lon="6.13811">
        <ele>956.4</ele>
        <time>2020-10-18T09:08:44Z</time>
      </trkpt>
      <trkpt lat="44.08875" lon="6.13811">
        <ele>956.4</ele>
        <time>2020-10-18T09:08:45Z</time>
      </trkpt>
      <trkpt lat="44.08874" lon="6.13812">
        <ele>956.6</ele>
        <time>2020-10-18T09:08:46Z</time>
      </trkpt>
      <trkpt lat="44.08873" lon="6.13812">
        <ele>957</ele>
        <time>2020-10-18T09:08:47Z</time>
      </trkpt>
      <trkpt lat="44.08872" lon="6.13813">
        <ele>957.4</ele>
        <time>2020-10-18T09:08:48Z</time>
      </trkpt>
      <trkpt lat="44.0887" lon="6.13814">
        <ele>957.6</ele>
        <time>2020-10-18T09:08:49Z</time>
      </trkpt>
      <trkpt lat="44.08869" lon="6.13814">
        <ele>957.6</ele>
        <time>2020-10-18T09:08:50Z</time>
      </trkpt>
      <trkpt lat="44.08868" lon="6.13815">
        <ele>957.8</ele>
        <time>2020-10-18T09:08:51Z</time>
      </trkpt>
      <trkpt lat="44.08867" lon="6.13815">
        <ele>958.2</ele>
        <time>2020-10-18T09:08:52Z</time>
      </trkpt>
      <trkpt lat="44.08866" lon="6.13816">
        <ele>958.4</ele>
        <time>2020-10-18T09:08:53Z</time>
      </trkpt>
      <trkpt lat="44.08865" lon="6.13816">
        <ele>958.6</ele>
        <time>2020-10-18T09:08:54Z</time>
      </trkpt>
      <trkpt lat="44.08863" lon="6.13816">
        <ele>958.8</ele>
        <time>2020-10-18T09:08:55Z</time>
      </trkpt>
      <trkpt lat="44.08862" lon="6.13817">
        <ele>959</ele>
        <time>2020-10-18T09:08:56Z</time>
      </trkpt>
      <trkpt lat="44.08861" lon="6.13818">
        <ele>959.4</ele>
        <time>2020-10-18T09:08:57Z</time>
      </trkpt>
      <trkpt lat="44.08859" lon="6.13818">
        <ele>959.8</ele>
        <time>2020-10-18T09:08:58Z</time>
      </trkpt>
      <trkpt lat="44.08858" lon="6.13819">
        <ele>960</ele>
        <time>2020-10-18T09:08:59Z</time>
      </trkpt>
      <trkpt lat="44.08856" lon="6.13819">
        <ele>960.2</ele>
        <time>2020-10-18T09:09:00Z</time>
      </trkpt>
      <trkpt lat="44.08855" lon="6.1382">
        <ele>960.4</ele>
        <time>2020-10-18T09:09:01Z</time>
      </trkpt>
      <trkpt lat="44.08853" lon="6.1382">
        <ele>960.6</ele>
        <time>2020-10-18T09:09:02Z</time>
      </trkpt>
      <trkpt lat="44.08851" lon="6.1382">
        <ele>960.8</ele>
        <time>2020-10-18T09:09:03Z</time>
      </trkpt>
      <trkpt lat="44.0885" lon="6.13821">
        <ele>960.8</ele>
        <time>2020-10-18T09:09:04Z</time>
      </trkpt>
      <trkpt lat="44.08848" lon="6.13821">
        <ele>960.8</ele>
        <time>2020-10-18T09:09:05Z</time>
      </trkpt>
      <trkpt lat="44.08846" lon="6.13821">
        <ele>961.2</ele>
        <time>2020-10-18T09:09:06Z</time>
      </trkpt>
      <trkpt lat="44.08845" lon="6.13822">
        <ele>961.2</ele>
        <time>2020-10-18T09:09:07Z</time>
      </trkpt>
      <trkpt lat="44.08843" lon="6.13822">
        <ele>961.6</ele>
        <time>2020-10-18T09:09:08Z</time>
      </trkpt>
      <trkpt lat="44.08841" lon="6.13822">
        <ele>961.6</ele>
        <time>2020-10-18T09:09:09Z</time>
      </trkpt>
      <trkpt lat="44.08839" lon="6.13823">
        <ele>961.6</ele>
        <time>2020-10-18T09:09:10Z</time>
      </trkpt>
      <trkpt lat="44.08838" lon="6.13823">
        <ele>961.8</ele>
        <time>2020-10-18T09:09:11Z</time>
      </trkpt>
      <trkpt lat="44.08836" lon="6.13824">
        <ele>962</ele>
        <time>2020-10-18T09:09:12Z</time>
      </trkpt>
      <trkpt lat="44.08834" lon="6.13824">
        <ele>962</ele>
        <time>2020-10-18T09:09:13Z</time>
      </trkpt>
      <trkpt lat="44.08832" lon="6.13824">
        <ele>962</ele>
        <time>2020-10-18T09:09:14Z</time>
      </trkpt>
      <trkpt lat="44.08829" lon="6.13824">
        <ele>962</ele>
        <time>2020-10-18T09:09:15Z</time>
      </trkpt>
      <trkpt lat="44.08827" lon="6.13823">
        <ele>962</ele>
        <time>2020-10-18T09:09:16Z</time>
      </trkpt>
      <trkpt lat="44.08825" lon="6.13823">
        <ele>962.2</ele>
        <time>2020-10-18T09:09:17Z</time>
      </trkpt>
      <trkpt lat="44.08824" lon="6.13823">
        <ele>962.2</ele>
        <time>2020-10-18T09:09:18Z</time>
      </trkpt>
      <trkpt lat="44.08823" lon="6.13822">
        <ele>962</ele>
        <time>2020-10-18T09:09:19Z</time>
      </trkpt>
      <trkpt lat="44.08821" lon="6.13822">
        <ele>962.2</ele>
        <time>2020-10-18T09:09:20Z</time>
      </trkpt>
      <trkpt lat="44.0882" lon="6.13822">
        <ele>962</ele>
        <time>2020-10-18T09:09:21Z</time>
      </trkpt>
      <trkpt lat="44.08817" lon="6.13822">
        <ele>962.2</ele>
        <time>2020-10-18T09:09:22Z</time>
      </trkpt>
      <trkpt lat="44.08812" lon="6.13822">
        <ele>962</ele>
        <time>2020-10-18T09:09:24Z</time>
      </trkpt>
      <trkpt lat="44.08808" lon="6.13822">
        <ele>962.2</ele>
        <time>2020-10-18T09:09:26Z</time>
      </trkpt>
      <trkpt lat="44.08807" lon="6.13823">
        <ele>961.8</ele>
        <time>2020-10-18T09:09:27Z</time>
      </trkpt>
      <trkpt lat="44.08805" lon="6.13823">
        <ele>961.8</ele>
        <time>2020-10-18T09:09:28Z</time>
      </trkpt>
      <trkpt lat="44.08804" lon="6.13823">
        <ele>961.6</ele>
        <time>2020-10-18T09:09:29Z</time>
      </trkpt>
      <trkpt lat="44.08802" lon="6.13823">
        <ele>961.6</ele>
        <time>2020-10-18T09:09:30Z</time>
      </trkpt>
      <trkpt lat="44.08796" lon="6.13824">
        <ele>961</ele>
        <time>2020-10-18T09:09:32Z</time>
      </trkpt>
      <trkpt lat="44.08793" lon="6.13824">
        <ele>960.6</ele>
        <time>2020-10-18T09:09:33Z</time>
      </trkpt>
      <trkpt lat="44.08789" lon="6.13825">
        <ele>960.2</ele>
        <time>2020-10-18T09:09:34Z</time>
      </trkpt>
      <trkpt lat="44.08785" lon="6.13825">
        <ele>960.2</ele>
        <time>2020-10-18T09:09:35Z</time>
      </trkpt>
      <trkpt lat="44.08781" lon="6.13825">
        <ele>960</ele>
        <time>2020-10-18T09:09:36Z</time>
      </trkpt>
      <trkpt lat="44.08777" lon="6.13827">
        <ele>960</ele>
        <time>2020-10-18T09:09:37Z</time>
      </trkpt>
      <trkpt lat="44.08773" lon="6.13828">
        <ele>960</ele>
        <time>2020-10-18T09:09:38Z</time>
      </trkpt>
      <trkpt lat="44.0877" lon="6.1383">
        <ele>959.8</ele>
        <time>2020-10-18T09:09:39Z</time>
      </trkpt>
      <trkpt lat="44.08767" lon="6.13831">
        <ele>959.8</ele>
        <time>2020-10-18T09:09:40Z</time>
      </trkpt>
      <trkpt lat="44.08764" lon="6.13832">
        <ele>959.6</ele>
        <time>2020-10-18T09:09:41Z</time>
      </trkpt>
      <trkpt lat="44.08761" lon="6.13832">
        <ele>959.4</ele>
        <time>2020-10-18T09:09:42Z</time>
      </trkpt>
      <trkpt lat="44.08754" lon="6.13833">
        <ele>959</ele>
        <time>2020-10-18T09:09:44Z</time>
      </trkpt>
      <trkpt lat="44.08751" lon="6.13832">
        <ele>958.6</ele>
        <time>2020-10-18T09:09:45Z</time>
      </trkpt>
      <trkpt lat="44.08748" lon="6.13832">
        <ele>958.6</ele>
        <time>2020-10-18T09:09:46Z</time>
      </trkpt>
      <trkpt lat="44.08745" lon="6.13831">
        <ele>958.2</ele>
        <time>2020-10-18T09:09:47Z</time>
      </trkpt>
      <trkpt lat="44.08741" lon="6.13829">
        <ele>958</ele>
        <time>2020-10-18T09:09:48Z</time>
      </trkpt>
      <trkpt lat="44.08734" lon="6.13825">
        <ele>957.2</ele>
        <time>2020-10-18T09:09:50Z</time>
      </trkpt>
      <trkpt lat="44.08729" lon="6.13824">
        <ele>957</ele>
        <time>2020-10-18T09:09:51Z</time>
      </trkpt>
      <trkpt lat="44.08724" lon="6.13822">
        <ele>956.8</ele>
        <time>2020-10-18T09:09:52Z</time>
      </trkpt>
      <trkpt lat="44.08712" lon="6.13815">
        <ele>956.6</ele>
        <time>2020-10-18T09:09:54Z</time>
      </trkpt>
      <trkpt lat="44.08707" lon="6.13813">
        <ele>956.4</ele>
        <time>2020-10-18T09:09:55Z</time>
      </trkpt>
      <trkpt lat="44.08703" lon="6.13811">
        <ele>955.8</ele>
        <time>2020-10-18T09:09:56Z</time>
      </trkpt>
      <trkpt lat="44.08699" lon="6.13809">
        <ele>955.4</ele>
        <time>2020-10-18T09:09:57Z</time>
      </trkpt>
      <trkpt lat="44.08695" lon="6.13809">
        <ele>955</ele>
        <time>2020-10-18T09:09:58Z</time>
      </trkpt>
      <trkpt lat="44.08691" lon="6.13809">
        <ele>954</ele>
        <time>2020-10-18T09:09:59Z</time>
      </trkpt>
      <trkpt lat="44.08686" lon="6.13809">
        <ele>952.4</ele>
        <time>2020-10-18T09:10:00Z</time>
      </trkpt>
      <trkpt lat="44.08682" lon="6.1381">
        <ele>951.2</ele>
        <time>2020-10-18T09:10:01Z</time>
      </trkpt>
      <trkpt lat="44.08674" lon="6.13811">
        <ele>950.2</ele>
        <time>2020-10-18T09:10:03Z</time>
      </trkpt>
      <trkpt lat="44.08669" lon="6.13811">
        <ele>949.8</ele>
        <time>2020-10-18T09:10:04Z</time>
      </trkpt>
      <trkpt lat="44.08665" lon="6.13811">
        <ele>949.4</ele>
        <time>2020-10-18T09:10:05Z</time>
      </trkpt>
      <trkpt lat="44.0866" lon="6.13811">
        <ele>949.2</ele>
        <time>2020-10-18T09:10:06Z</time>
      </trkpt>
      <trkpt lat="44.08656" lon="6.1381">
        <ele>949</ele>
        <time>2020-10-18T09:10:07Z</time>
      </trkpt>
      <trkpt lat="44.0865" lon="6.13809">
        <ele>948.8</ele>
        <time>2020-10-18T09:10:08Z</time>
      </trkpt>
      <trkpt lat="44.08645" lon="6.13809">
        <ele>948.8</ele>
        <time>2020-10-18T09:10:09Z</time>
      </trkpt>
      <trkpt lat="44.08639" lon="6.13809">
        <ele>948.4</ele>
        <time>2020-10-18T09:10:10Z</time>
      </trkpt>
      <trkpt lat="44.08635" lon="6.13809">
        <ele>948</ele>
        <time>2020-10-18T09:10:11Z</time>
      </trkpt>
      <trkpt lat="44.08631" lon="6.13808">
        <ele>947.8</ele>
        <time>2020-10-18T09:10:12Z</time>
      </trkpt>
      <trkpt lat="44.08628" lon="6.13805">
        <ele>947.8</ele>
        <time>2020-10-18T09:10:13Z</time>
      </trkpt>
      <trkpt lat="44.08625" lon="6.13802">
        <ele>947.4</ele>
        <time>2020-10-18T09:10:14Z</time>
      </trkpt>
      <trkpt lat="44.08622" lon="6.13798">
        <ele>947.2</ele>
        <time>2020-10-18T09:10:15Z</time>
      </trkpt>
      <trkpt lat="44.0862" lon="6.13795">
        <ele>946.8</ele>
        <time>2020-10-18T09:10:16Z</time>
      </trkpt>
      <trkpt lat="44.08618" lon="6.13793">
        <ele>946.4</ele>
        <time>2020-10-18T09:10:17Z</time>
      </trkpt>
      <trkpt lat="44.08616" lon="6.13791">
        <ele>946.4</ele>
        <time>2020-10-18T09:10:18Z</time>
      </trkpt>
      <trkpt lat="44.08615" lon="6.1379">
        <ele>946.2</ele>
        <time>2020-10-18T09:10:19Z</time>
      </trkpt>
      <trkpt lat="44.08614" lon="6.13789">
        <ele>946</ele>
        <time>2020-10-18T09:10:20Z</time>
      </trkpt>
      <trkpt lat="44.08612" lon="6.13787">
        <ele>946</ele>
        <time>2020-10-18T09:10:21Z</time>
      </trkpt>
      <trkpt lat="44.08611" lon="6.13786">
        <ele>946</ele>
        <time>2020-10-18T09:10:22Z</time>
      </trkpt>
      <trkpt lat="44.08609" lon="6.13783">
        <ele>946</ele>
        <time>2020-10-18T09:10:23Z</time>
      </trkpt>
      <trkpt lat="44.08605" lon="6.13779">
        <ele>946.2</ele>
        <time>2020-10-18T09:10:25Z</time>
      </trkpt>
      <trkpt lat="44.08603" lon="6.13777">
        <ele>946.2</ele>
        <time>2020-10-18T09:10:26Z</time>
      </trkpt>
      <trkpt lat="44.08601" lon="6.13776">
        <ele>946</ele>
        <time>2020-10-18T09:10:27Z</time>
      </trkpt>
      <trkpt lat="44.08597" lon="6.13774">
        <ele>947.2</ele>
        <time>2020-10-18T09:10:29Z</time>
      </trkpt>
      <trkpt lat="44.08594" lon="6.13773">
        <ele>947.8</ele>
        <time>2020-10-18T09:10:30Z</time>
      </trkpt>
      <trkpt lat="44.08592" lon="6.13772">
        <ele>948.4</ele>
        <time>2020-10-18T09:10:31Z</time>
      </trkpt>
      <trkpt lat="44.08589" lon="6.1377">
        <ele>948.8</ele>
        <time>2020-10-18T09:10:32Z</time>
      </trkpt>
      <trkpt lat="44.08587" lon="6.1377">
        <ele>949.2</ele>
        <time>2020-10-18T09:10:33Z</time>
      </trkpt>
      <trkpt lat="44.08584" lon="6.13769">
        <ele>949.4</ele>
        <time>2020-10-18T09:10:34Z</time>
      </trkpt>
      <trkpt lat="44.08581" lon="6.13768">
        <ele>949.4</ele>
        <time>2020-10-18T09:10:35Z</time>
      </trkpt>
      <trkpt lat="44.08579" lon="6.13767">
        <ele>949.6</ele>
        <time>2020-10-18T09:10:36Z</time>
      </trkpt>
      <trkpt lat="44.08576" lon="6.13767">
        <ele>949.8</ele>
        <time>2020-10-18T09:10:37Z</time>
      </trkpt>
      <trkpt lat="44.08573" lon="6.13765">
        <ele>949.8</ele>
        <time>2020-10-18T09:10:38Z</time>
      </trkpt>
      <trkpt lat="44.08569" lon="6.13764">
        <ele>949.8</ele>
        <time>2020-10-18T09:10:39Z</time>
      </trkpt>
      <trkpt lat="44.08565" lon="6.13763">
        <ele>949.8</ele>
        <time>2020-10-18T09:10:40Z</time>
      </trkpt>
      <trkpt lat="44.08562" lon="6.13762">
        <ele>949.8</ele>
        <time>2020-10-18T09:10:41Z</time>
      </trkpt>
      <trkpt lat="44.08558" lon="6.13761">
        <ele>949.8</ele>
        <time>2020-10-18T09:10:42Z</time>
      </trkpt>
      <trkpt lat="44.08554" lon="6.13761">
        <ele>949.8</ele>
        <time>2020-10-18T09:10:43Z</time>
      </trkpt>
      <trkpt lat="44.08551" lon="6.1376">
        <ele>950</ele>
        <time>2020-10-18T09:10:44Z</time>
      </trkpt>
      <trkpt lat="44.08548" lon="6.1376">
        <ele>949.8</ele>
        <time>2020-10-18T09:10:45Z</time>
      </trkpt>
      <trkpt lat="44.0854" lon="6.13759">
        <ele>949.8</ele>
        <time>2020-10-18T09:10:47Z</time>
      </trkpt>
      <trkpt lat="44.08537" lon="6.13758">
        <ele>949.8</ele>
        <time>2020-10-18T09:10:48Z</time>
      </trkpt>
      <trkpt lat="44.08533" lon="6.13758">
        <ele>949.8</ele>
        <time>2020-10-18T09:10:49Z</time>
      </trkpt>
      <trkpt lat="44.08525" lon="6.13757">
        <ele>949.4</ele>
        <time>2020-10-18T09:10:51Z</time>
      </trkpt>
      <trkpt lat="44.08521" lon="6.13757">
        <ele>949</ele>
        <time>2020-10-18T09:10:52Z</time>
      </trkpt>
      <trkpt lat="44.08517" lon="6.13757">
        <ele>948.6</ele>
        <time>2020-10-18T09:10:53Z</time>
      </trkpt>
      <trkpt lat="44.08509" lon="6.13757">
        <ele>947.8</ele>
        <time>2020-10-18T09:10:55Z</time>
      </trkpt>
      <trkpt lat="44.08499" lon="6.13757">
        <ele>947.6</ele>
        <time>2020-10-18T09:10:57Z</time>
      </trkpt>
      <trkpt lat="44.08495" lon="6.13757">
        <ele>947.2</ele>
        <time>2020-10-18T09:10:58Z</time>
      </trkpt>
      <trkpt lat="44.0849" lon="6.13756">
        <ele>946.8</ele>
        <time>2020-10-18T09:10:59Z</time>
      </trkpt>
      <trkpt lat="44.08481" lon="6.13755">
        <ele>946.4</ele>
        <time>2020-10-18T09:11:01Z</time>
      </trkpt>
      <trkpt lat="44.08477" lon="6.13755">
        <ele>946.4</ele>
        <time>2020-10-18T09:11:02Z</time>
      </trkpt>
      <trkpt lat="44.08474" lon="6.13753">
        <ele>946</ele>
        <time>2020-10-18T09:11:03Z</time>
      </trkpt>
      <trkpt lat="44.08471" lon="6.13753">
        <ele>945.8</ele>
        <time>2020-10-18T09:11:04Z</time>
      </trkpt>
      <trkpt lat="44.08468" lon="6.13751">
        <ele>945.6</ele>
        <time>2020-10-18T09:11:05Z</time>
      </trkpt>
      <trkpt lat="44.08465" lon="6.1375">
        <ele>945.6</ele>
        <time>2020-10-18T09:11:06Z</time>
      </trkpt>
      <trkpt lat="44.08463" lon="6.1375">
        <ele>945.4</ele>
        <time>2020-10-18T09:11:07Z</time>
      </trkpt>
      <trkpt lat="44.08461" lon="6.13749">
        <ele>945</ele>
        <time>2020-10-18T09:11:08Z</time>
      </trkpt>
      <trkpt lat="44.08459" lon="6.13749">
        <ele>945</ele>
        <time>2020-10-18T09:11:09Z</time>
      </trkpt>
      <trkpt lat="44.08454" lon="6.13748">
        <ele>944.6</ele>
        <time>2020-10-18T09:11:11Z</time>
      </trkpt>
      <trkpt lat="44.08448" lon="6.13746">
        <ele>944.4</ele>
        <time>2020-10-18T09:11:13Z</time>
      </trkpt>
      <trkpt lat="44.08445" lon="6.13744">
        <ele>943.6</ele>
        <time>2020-10-18T09:11:14Z</time>
      </trkpt>
      <trkpt lat="44.08443" lon="6.13742">
        <ele>943.4</ele>
        <time>2020-10-18T09:11:15Z</time>
      </trkpt>
      <trkpt lat="44.0844" lon="6.1374">
        <ele>943.2</ele>
        <time>2020-10-18T09:11:16Z</time>
      </trkpt>
      <trkpt lat="44.08436" lon="6.13738">
        <ele>942.8</ele>
        <time>2020-10-18T09:11:17Z</time>
      </trkpt>
      <trkpt lat="44.08434" lon="6.13737">
        <ele>942.6</ele>
        <time>2020-10-18T09:11:18Z</time>
      </trkpt>
      <trkpt lat="44.08431" lon="6.13735">
        <ele>942.4</ele>
        <time>2020-10-18T09:11:19Z</time>
      </trkpt>
      <trkpt lat="44.08429" lon="6.13733">
        <ele>941</ele>
        <time>2020-10-18T09:11:20Z</time>
      </trkpt>
      <trkpt lat="44.08426" lon="6.13731">
        <ele>940.4</ele>
        <time>2020-10-18T09:11:21Z</time>
      </trkpt>
      <trkpt lat="44.08421" lon="6.13728">
        <ele>939.8</ele>
        <time>2020-10-18T09:11:23Z</time>
      </trkpt>
      <trkpt lat="44.08419" lon="6.13727">
        <ele>939.2</ele>
        <time>2020-10-18T09:11:24Z</time>
      </trkpt>
      <trkpt lat="44.08417" lon="6.13727">
        <ele>939</ele>
        <time>2020-10-18T09:11:25Z</time>
      </trkpt>
      <trkpt lat="44.08416" lon="6.13726">
        <ele>938.2</ele>
        <time>2020-10-18T09:11:26Z</time>
      </trkpt>
      <trkpt lat="44.08414" lon="6.13726">
        <ele>937.2</ele>
        <time>2020-10-18T09:11:27Z</time>
      </trkpt>
      <trkpt lat="44.08413" lon="6.13724">
        <ele>936.6</ele>
        <time>2020-10-18T09:11:28Z</time>
      </trkpt>
      <trkpt lat="44.08412" lon="6.13723">
        <ele>936</ele>
        <time>2020-10-18T09:11:29Z</time>
      </trkpt>
      <trkpt lat="44.08409" lon="6.13719">
        <ele>935.4</ele>
        <time>2020-10-18T09:11:31Z</time>
      </trkpt>
      <trkpt lat="44.08408" lon="6.13718">
        <ele>935.2</ele>
        <time>2020-10-18T09:11:32Z</time>
      </trkpt>
      <trkpt lat="44.08405" lon="6.13717">
        <ele>935</ele>
        <time>2020-10-18T09:11:33Z</time>
      </trkpt>
      <trkpt lat="44.08403" lon="6.13716">
        <ele>934.6</ele>
        <time>2020-10-18T09:11:34Z</time>
      </trkpt>
      <trkpt lat="44.08401" lon="6.13714">
        <ele>934.6</ele>
        <time>2020-10-18T09:11:35Z</time>
      </trkpt>
      <trkpt lat="44.084" lon="6.13712">
        <ele>934</ele>
        <time>2020-10-18T09:11:36Z</time>
      </trkpt>
      <trkpt lat="44.08399" lon="6.13709">
        <ele>933.4</ele>
        <time>2020-10-18T09:11:37Z</time>
      </trkpt>
      <trkpt lat="44.08398" lon="6.13704">
        <ele>932.6</ele>
        <time>2020-10-18T09:11:38Z</time>
      </trkpt>
      <trkpt lat="44.08397" lon="6.13701">
        <ele>932.2</ele>
        <time>2020-10-18T09:11:39Z</time>
      </trkpt>
      <trkpt lat="44.08394" lon="6.13698">
        <ele>931.4</ele>
        <time>2020-10-18T09:11:40Z</time>
      </trkpt>
      <trkpt lat="44.08392" lon="6.13696">
        <ele>930.2</ele>
        <time>2020-10-18T09:11:41Z</time>
      </trkpt>
      <trkpt lat="44.08389" lon="6.13697">
        <ele>930.2</ele>
        <time>2020-10-18T09:11:42Z</time>
      </trkpt>
      <trkpt lat="44.08387" lon="6.13698">
        <ele>929</ele>
        <time>2020-10-18T09:11:43Z</time>
      </trkpt>
      <trkpt lat="44.08384" lon="6.13704">
        <ele>927.6</ele>
        <time>2020-10-18T09:11:45Z</time>
      </trkpt>
      <trkpt lat="44.08382" lon="6.13713">
        <ele>926.4</ele>
        <time>2020-10-18T09:11:47Z</time>
      </trkpt>
      <trkpt lat="44.08381" lon="6.13718">
        <ele>926.4</ele>
        <time>2020-10-18T09:11:48Z</time>
      </trkpt>
      <trkpt lat="44.0838" lon="6.13722">
        <ele>926.2</ele>
        <time>2020-10-18T09:11:49Z</time>
      </trkpt>
      <trkpt lat="44.08379" lon="6.13731">
        <ele>925.4</ele>
        <time>2020-10-18T09:11:51Z</time>
      </trkpt>
      <trkpt lat="44.08378" lon="6.13736">
        <ele>925.2</ele>
        <time>2020-10-18T09:11:52Z</time>
      </trkpt>
      <trkpt lat="44.08378" lon="6.13742">
        <ele>925</ele>
        <time>2020-10-18T09:11:53Z</time>
      </trkpt>
      <trkpt lat="44.08379" lon="6.13747">
        <ele>924.4</ele>
        <time>2020-10-18T09:11:54Z</time>
      </trkpt>
      <trkpt lat="44.0838" lon="6.13751">
        <ele>923.8</ele>
        <time>2020-10-18T09:11:55Z</time>
      </trkpt>
      <trkpt lat="44.08381" lon="6.13756">
        <ele>923.2</ele>
        <time>2020-10-18T09:11:56Z</time>
      </trkpt>
      <trkpt lat="44.08383" lon="6.1376">
        <ele>922.8</ele>
        <time>2020-10-18T09:11:57Z</time>
      </trkpt>
      <trkpt lat="44.08384" lon="6.13762">
        <ele>922.2</ele>
        <time>2020-10-18T09:11:58Z</time>
      </trkpt>
      <trkpt lat="44.08386" lon="6.13764">
        <ele>921.8</ele>
        <time>2020-10-18T09:11:59Z</time>
      </trkpt>
      <trkpt lat="44.08387" lon="6.13766">
        <ele>920.8</ele>
        <time>2020-10-18T09:12:00Z</time>
      </trkpt>
      <trkpt lat="44.08389" lon="6.13768">
        <ele>920.4</ele>
        <time>2020-10-18T09:12:01Z</time>
      </trkpt>
      <trkpt lat="44.0839" lon="6.1377">
        <ele>920.4</ele>
        <time>2020-10-18T09:12:02Z</time>
      </trkpt>
      <trkpt lat="44.0839" lon="6.13773">
        <ele>920</ele>
        <time>2020-10-18T09:12:03Z</time>
      </trkpt>
      <trkpt lat="44.0839" lon="6.13777">
        <ele>920</ele>
        <time>2020-10-18T09:12:04Z</time>
      </trkpt>
      <trkpt lat="44.08391" lon="6.13782">
        <ele>920</ele>
        <time>2020-10-18T09:12:05Z</time>
      </trkpt>
      <trkpt lat="44.08391" lon="6.13788">
        <ele>919.8</ele>
        <time>2020-10-18T09:12:06Z</time>
      </trkpt>
      <trkpt lat="44.08392" lon="6.13793">
        <ele>919.6</ele>
        <time>2020-10-18T09:12:07Z</time>
      </trkpt>
      <trkpt lat="44.08393" lon="6.13805">
        <ele>919.4</ele>
        <time>2020-10-18T09:12:09Z</time>
      </trkpt>
      <trkpt lat="44.08395" lon="6.13811">
        <ele>919.2</ele>
        <time>2020-10-18T09:12:10Z</time>
      </trkpt>
      <trkpt lat="44.08397" lon="6.13816">
        <ele>919.4</ele>
        <time>2020-10-18T09:12:11Z</time>
      </trkpt>
      <trkpt lat="44.08399" lon="6.13821">
        <ele>919</ele>
        <time>2020-10-18T09:12:12Z</time>
      </trkpt>
      <trkpt lat="44.08401" lon="6.13826">
        <ele>918.6</ele>
        <time>2020-10-18T09:12:13Z</time>
      </trkpt>
      <trkpt lat="44.08403" lon="6.1383">
        <ele>918.4</ele>
        <time>2020-10-18T09:12:14Z</time>
      </trkpt>
      <trkpt lat="44.08404" lon="6.13834">
        <ele>918.2</ele>
        <time>2020-10-18T09:12:15Z</time>
      </trkpt>
      <trkpt lat="44.08406" lon="6.13836">
        <ele>918</ele>
        <time>2020-10-18T09:12:16Z</time>
      </trkpt>
      <trkpt lat="44.08407" lon="6.1384">
        <ele>917.6</ele>
        <time>2020-10-18T09:12:17Z</time>
      </trkpt>
      <trkpt lat="44.08408" lon="6.13843">
        <ele>917.4</ele>
        <time>2020-10-18T09:12:18Z</time>
      </trkpt>
      <trkpt lat="44.08409" lon="6.13846">
        <ele>917</ele>
        <time>2020-10-18T09:12:19Z</time>
      </trkpt>
      <trkpt lat="44.0841" lon="6.1385">
        <ele>916.8</ele>
        <time>2020-10-18T09:12:20Z</time>
      </trkpt>
      <trkpt lat="44.08411" lon="6.13854">
        <ele>916.8</ele>
        <time>2020-10-18T09:12:21Z</time>
      </trkpt>
      <trkpt lat="44.08414" lon="6.13861">
        <ele>916.8</ele>
        <time>2020-10-18T09:12:23Z</time>
      </trkpt>
      <trkpt lat="44.08415" lon="6.13865">
        <ele>916.6</ele>
        <time>2020-10-18T09:12:24Z</time>
      </trkpt>
      <trkpt lat="44.08417" lon="6.13868">
        <ele>916.6</ele>
        <time>2020-10-18T09:12:25Z</time>
      </trkpt>
      <trkpt lat="44.08418" lon="6.13871">
        <ele>916.4</ele>
        <time>2020-10-18T09:12:26Z</time>
      </trkpt>
      <trkpt lat="44.08419" lon="6.13875">
        <ele>916.6</ele>
        <time>2020-10-18T09:12:27Z</time>
      </trkpt>
      <trkpt lat="44.08421" lon="6.13878">
        <ele>916.6</ele>
        <time>2020-10-18T09:12:28Z</time>
      </trkpt>
      <trkpt lat="44.08422" lon="6.13882">
        <ele>916.6</ele>
        <time>2020-10-18T09:12:29Z</time>
      </trkpt>
      <trkpt lat="44.08424" lon="6.13884">
        <ele>916.6</ele>
        <time>2020-10-18T09:12:30Z</time>
      </trkpt>
      <trkpt lat="44.08426" lon="6.13887">
        <ele>916.6</ele>
        <time>2020-10-18T09:12:31Z</time>
      </trkpt>
      <trkpt lat="44.08427" lon="6.13889">
        <ele>916.8</ele>
        <time>2020-10-18T09:12:32Z</time>
      </trkpt>
      <trkpt lat="44.08428" lon="6.1389">
        <ele>916.8</ele>
        <time>2020-10-18T09:12:33Z</time>
      </trkpt>
      <trkpt lat="44.08429" lon="6.13893">
        <ele>917.2</ele>
        <time>2020-10-18T09:12:34Z</time>
      </trkpt>
      <trkpt lat="44.0843" lon="6.13896">
        <ele>917.4</ele>
        <time>2020-10-18T09:12:35Z</time>
      </trkpt>
      <trkpt lat="44.08433" lon="6.13902">
        <ele>917.4</ele>
        <time>2020-10-18T09:12:37Z</time>
      </trkpt>
      <trkpt lat="44.08434" lon="6.13905">
        <ele>917.4</ele>
        <time>2020-10-18T09:12:38Z</time>
      </trkpt>
      <trkpt lat="44.08435" lon="6.13908">
        <ele>918</ele>
        <time>2020-10-18T09:12:39Z</time>
      </trkpt>
      <trkpt lat="44.08436" lon="6.13911">
        <ele>918.2</ele>
        <time>2020-10-18T09:12:40Z</time>
      </trkpt>
      <trkpt lat="44.08438" lon="6.13914">
        <ele>918.2</ele>
        <time>2020-10-18T09:12:41Z</time>
      </trkpt>
      <trkpt lat="44.08439" lon="6.13919">
        <ele>918.4</ele>
        <time>2020-10-18T09:12:42Z</time>
      </trkpt>
      <trkpt lat="44.0844" lon="6.13922">
        <ele>918.4</ele>
        <time>2020-10-18T09:12:43Z</time>
      </trkpt>
      <trkpt lat="44.08441" lon="6.13926">
        <ele>918.6</ele>
        <time>2020-10-18T09:12:44Z</time>
      </trkpt>
      <trkpt lat="44.08442" lon="6.13929">
        <ele>918.6</ele>
        <time>2020-10-18T09:12:45Z</time>
      </trkpt>
      <trkpt lat="44.08444" lon="6.13933">
        <ele>918.8</ele>
        <time>2020-10-18T09:12:46Z</time>
      </trkpt>
      <trkpt lat="44.08445" lon="6.13936">
        <ele>919</ele>
        <time>2020-10-18T09:12:47Z</time>
      </trkpt>
      <trkpt lat="44.08446" lon="6.13939">
        <ele>919.2</ele>
        <time>2020-10-18T09:12:48Z</time>
      </trkpt>
      <trkpt lat="44.08448" lon="6.13943">
        <ele>919.2</ele>
        <time>2020-10-18T09:12:49Z</time>
      </trkpt>
      <trkpt lat="44.08449" lon="6.13946">
        <ele>919.6</ele>
        <time>2020-10-18T09:12:50Z</time>
      </trkpt>
      <trkpt lat="44.08451" lon="6.13949">
        <ele>920</ele>
        <time>2020-10-18T09:12:51Z</time>
      </trkpt>
      <trkpt lat="44.08452" lon="6.13952">
        <ele>920.2</ele>
        <time>2020-10-18T09:12:52Z</time>
      </trkpt>
      <trkpt lat="44.08454" lon="6.13955">
        <ele>920.4</ele>
        <time>2020-10-18T09:12:53Z</time>
      </trkpt>
      <trkpt lat="44.08455" lon="6.13959">
        <ele>920.4</ele>
        <time>2020-10-18T09:12:54Z</time>
      </trkpt>
      <trkpt lat="44.08456" lon="6.13962">
        <ele>920.4</ele>
        <time>2020-10-18T09:12:55Z</time>
      </trkpt>
      <trkpt lat="44.08458" lon="6.13965">
        <ele>920.6</ele>
        <time>2020-10-18T09:12:56Z</time>
      </trkpt>
      <trkpt lat="44.08458" lon="6.13967">
        <ele>920.6</ele>
        <time>2020-10-18T09:12:57Z</time>
      </trkpt>
      <trkpt lat="44.0846" lon="6.1397">
        <ele>920.8</ele>
        <time>2020-10-18T09:12:58Z</time>
      </trkpt>
      <trkpt lat="44.08461" lon="6.13972">
        <ele>920.8</ele>
        <time>2020-10-18T09:12:59Z</time>
      </trkpt>
      <trkpt lat="44.08463" lon="6.13974">
        <ele>920.8</ele>
        <time>2020-10-18T09:13:00Z</time>
      </trkpt>
      <trkpt lat="44.08465" lon="6.13977">
        <ele>920.8</ele>
        <time>2020-10-18T09:13:01Z</time>
      </trkpt>
      <trkpt lat="44.08466" lon="6.1398">
        <ele>921.4</ele>
        <time>2020-10-18T09:13:02Z</time>
      </trkpt>
      <trkpt lat="44.08467" lon="6.13984">
        <ele>921.4</ele>
        <time>2020-10-18T09:13:03Z</time>
      </trkpt>
      <trkpt lat="44.08468" lon="6.13987">
        <ele>921.8</ele>
        <time>2020-10-18T09:13:04Z</time>
      </trkpt>
      <trkpt lat="44.08469" lon="6.1399">
        <ele>921.8</ele>
        <time>2020-10-18T09:13:05Z</time>
      </trkpt>
      <trkpt lat="44.08471" lon="6.13993">
        <ele>921.8</ele>
        <time>2020-10-18T09:13:06Z</time>
      </trkpt>
      <trkpt lat="44.08472" lon="6.13995">
        <ele>922</ele>
        <time>2020-10-18T09:13:07Z</time>
      </trkpt>
      <trkpt lat="44.08473" lon="6.13996">
        <ele>922</ele>
        <time>2020-10-18T09:13:08Z</time>
      </trkpt>
      <trkpt lat="44.08475" lon="6.13999">
        <ele>922</ele>
        <time>2020-10-18T09:13:09Z</time>
      </trkpt>
      <trkpt lat="44.08476" lon="6.14001">
        <ele>922.2</ele>
        <time>2020-10-18T09:13:10Z</time>
      </trkpt>
      <trkpt lat="44.08478" lon="6.14003">
        <ele>922.4</ele>
        <time>2020-10-18T09:13:11Z</time>
      </trkpt>
      <trkpt lat="44.08479" lon="6.14005">
        <ele>922.6</ele>
        <time>2020-10-18T09:13:12Z</time>
      </trkpt>
      <trkpt lat="44.08481" lon="6.14007">
        <ele>922.8</ele>
        <time>2020-10-18T09:13:13Z</time>
      </trkpt>
      <trkpt lat="44.08481" lon="6.14008">
        <ele>923</ele>
        <time>2020-10-18T09:13:14Z</time>
      </trkpt>
      <trkpt lat="44.08482" lon="6.1401">
        <ele>923.2</ele>
        <time>2020-10-18T09:13:15Z</time>
      </trkpt>
      <trkpt lat="44.08483" lon="6.14012">
        <ele>923.2</ele>
        <time>2020-10-18T09:13:16Z</time>
      </trkpt>
      <trkpt lat="44.08483" lon="6.14014">
        <ele>923.6</ele>
        <time>2020-10-18T09:13:17Z</time>
      </trkpt>
      <trkpt lat="44.08484" lon="6.14016">
        <ele>924</ele>
        <time>2020-10-18T09:13:18Z</time>
      </trkpt>
      <trkpt lat="44.08484" lon="6.14018">
        <ele>924</ele>
        <time>2020-10-18T09:13:19Z</time>
      </trkpt>
      <trkpt lat="44.08485" lon="6.14021">
        <ele>924.4</ele>
        <time>2020-10-18T09:13:20Z</time>
      </trkpt>
      <trkpt lat="44.08485" lon="6.14023">
        <ele>924.4</ele>
        <time>2020-10-18T09:13:21Z</time>
      </trkpt>
      <trkpt lat="44.08485" lon="6.14025">
        <ele>925</ele>
        <time>2020-10-18T09:13:22Z</time>
      </trkpt>
      <trkpt lat="44.08485" lon="6.14027">
        <ele>925.6</ele>
        <time>2020-10-18T09:13:23Z</time>
      </trkpt>
      <trkpt lat="44.08484" lon="6.14029">
        <ele>926</ele>
        <time>2020-10-18T09:13:24Z</time>
      </trkpt>
      <trkpt lat="44.08483" lon="6.14031">
        <ele>926.4</ele>
        <time>2020-10-18T09:13:25Z</time>
      </trkpt>
      <trkpt lat="44.08482" lon="6.14033">
        <ele>926.4</ele>
        <time>2020-10-18T09:13:26Z</time>
      </trkpt>
      <trkpt lat="44.08481" lon="6.14036">
        <ele>926.4</ele>
        <time>2020-10-18T09:13:27Z</time>
      </trkpt>
      <trkpt lat="44.0848" lon="6.14039">
        <ele>926.6</ele>
        <time>2020-10-18T09:13:28Z</time>
      </trkpt>
      <trkpt lat="44.08479" lon="6.14041">
        <ele>926.6</ele>
        <time>2020-10-18T09:13:29Z</time>
      </trkpt>
      <trkpt lat="44.08477" lon="6.14044">
        <ele>926.8</ele>
        <time>2020-10-18T09:13:30Z</time>
      </trkpt>
      <trkpt lat="44.08476" lon="6.14046">
        <ele>926.8</ele>
        <time>2020-10-18T09:13:31Z</time>
      </trkpt>
      <trkpt lat="44.08474" lon="6.14048">
        <ele>927</ele>
        <time>2020-10-18T09:13:32Z</time>
      </trkpt>
      <trkpt lat="44.08472" lon="6.14049">
        <ele>927</ele>
        <time>2020-10-18T09:13:33Z</time>
      </trkpt>
      <trkpt lat="44.08471" lon="6.14052">
        <ele>927.2</ele>
        <time>2020-10-18T09:13:34Z</time>
      </trkpt>
      <trkpt lat="44.0847" lon="6.14054">
        <ele>927.2</ele>
        <time>2020-10-18T09:13:35Z</time>
      </trkpt>
      <trkpt lat="44.08469" lon="6.14055">
        <ele>927.2</ele>
        <time>2020-10-18T09:13:36Z</time>
      </trkpt>
      <trkpt lat="44.08468" lon="6.14056">
        <ele>927.4</ele>
        <time>2020-10-18T09:13:37Z</time>
      </trkpt>
      <trkpt lat="44.08468" lon="6.14058">
        <ele>927.4</ele>
        <time>2020-10-18T09:13:38Z</time>
      </trkpt>
      <trkpt lat="44.08467" lon="6.14059">
        <ele>927.4</ele>
        <time>2020-10-18T09:13:39Z</time>
      </trkpt>
      <trkpt lat="44.08465" lon="6.14061">
        <ele>927.6</ele>
        <time>2020-10-18T09:13:40Z</time>
      </trkpt>
      <trkpt lat="44.08464" lon="6.14062">
        <ele>927.6</ele>
        <time>2020-10-18T09:13:41Z</time>
      </trkpt>
      <trkpt lat="44.08462" lon="6.14063">
        <ele>927.6</ele>
        <time>2020-10-18T09:13:42Z</time>
      </trkpt>
      <trkpt lat="44.08461" lon="6.14064">
        <ele>927.6</ele>
        <time>2020-10-18T09:13:43Z</time>
      </trkpt>
      <trkpt lat="44.0846" lon="6.14065">
        <ele>928.2</ele>
        <time>2020-10-18T09:13:44Z</time>
      </trkpt>
      <trkpt lat="44.08458" lon="6.14066">
        <ele>928.2</ele>
        <time>2020-10-18T09:13:45Z</time>
      </trkpt>
      <trkpt lat="44.08457" lon="6.14067">
        <ele>928.4</ele>
        <time>2020-10-18T09:13:46Z</time>
      </trkpt>
      <trkpt lat="44.08455" lon="6.14067">
        <ele>929</ele>
        <time>2020-10-18T09:13:47Z</time>
      </trkpt>
      <trkpt lat="44.08453" lon="6.14068">
        <ele>929.2</ele>
        <time>2020-10-18T09:13:48Z</time>
      </trkpt>
      <trkpt lat="44.08452" lon="6.14068">
        <ele>929.4</ele>
        <time>2020-10-18T09:13:49Z</time>
      </trkpt>
      <trkpt lat="44.0845" lon="6.14068">
        <ele>929.6</ele>
        <time>2020-10-18T09:13:50Z</time>
      </trkpt>
      <trkpt lat="44.08448" lon="6.14069">
        <ele>929.8</ele>
        <time>2020-10-18T09:13:51Z</time>
      </trkpt>
      <trkpt lat="44.08446" lon="6.14069">
        <ele>930</ele>
        <time>2020-10-18T09:13:52Z</time>
      </trkpt>
      <trkpt lat="44.08445" lon="6.1407">
        <ele>930.4</ele>
        <time>2020-10-18T09:13:53Z</time>
      </trkpt>
      <trkpt lat="44.08444" lon="6.1407">
        <ele>930.6</ele>
        <time>2020-10-18T09:13:54Z</time>
      </trkpt>
      <trkpt lat="44.08442" lon="6.14071">
        <ele>930.8</ele>
        <time>2020-10-18T09:13:55Z</time>
      </trkpt>
      <trkpt lat="44.0844" lon="6.14071">
        <ele>931.2</ele>
        <time>2020-10-18T09:13:56Z</time>
      </trkpt>
      <trkpt lat="44.08439" lon="6.14071">
        <ele>931.4</ele>
        <time>2020-10-18T09:13:57Z</time>
      </trkpt>
      <trkpt lat="44.08438" lon="6.14071">
        <ele>931.4</ele>
        <time>2020-10-18T09:13:58Z</time>
      </trkpt>
      <trkpt lat="44.08436" lon="6.14072">
        <ele>931.6</ele>
        <time>2020-10-18T09:13:59Z</time>
      </trkpt>
      <trkpt lat="44.08435" lon="6.14073">
        <ele>932</ele>
        <time>2020-10-18T09:14:00Z</time>
      </trkpt>
      <trkpt lat="44.08433" lon="6.14073">
        <ele>932</ele>
        <time>2020-10-18T09:14:01Z</time>
      </trkpt>
      <trkpt lat="44.08432" lon="6.14074">
        <ele>932.4</ele>
        <time>2020-10-18T09:14:02Z</time>
      </trkpt>
      <trkpt lat="44.0843" lon="6.14075">
        <ele>932.4</ele>
        <time>2020-10-18T09:14:03Z</time>
      </trkpt>
      <trkpt lat="44.08428" lon="6.14076">
        <ele>932.6</ele>
        <time>2020-10-18T09:14:04Z</time>
      </trkpt>
      <trkpt lat="44.08427" lon="6.14076">
        <ele>932.8</ele>
        <time>2020-10-18T09:14:05Z</time>
      </trkpt>
      <trkpt lat="44.08425" lon="6.14077">
        <ele>933</ele>
        <time>2020-10-18T09:14:06Z</time>
      </trkpt>
      <trkpt lat="44.08424" lon="6.14078">
        <ele>933.2</ele>
        <time>2020-10-18T09:14:07Z</time>
      </trkpt>
      <trkpt lat="44.08422" lon="6.14078">
        <ele>933.4</ele>
        <time>2020-10-18T09:14:08Z</time>
      </trkpt>
      <trkpt lat="44.0842" lon="6.14078">
        <ele>933.4</ele>
        <time>2020-10-18T09:14:09Z</time>
      </trkpt>
      <trkpt lat="44.08418" lon="6.14079">
        <ele>933.4</ele>
        <time>2020-10-18T09:14:10Z</time>
      </trkpt>
      <trkpt lat="44.08416" lon="6.1408">
        <ele>933.6</ele>
        <time>2020-10-18T09:14:11Z</time>
      </trkpt>
      <trkpt lat="44.08415" lon="6.1408">
        <ele>934</ele>
        <time>2020-10-18T09:14:12Z</time>
      </trkpt>
      <trkpt lat="44.08413" lon="6.14081">
        <ele>934</ele>
        <time>2020-10-18T09:14:13Z</time>
      </trkpt>
      <trkpt lat="44.08411" lon="6.14082">
        <ele>934.2</ele>
        <time>2020-10-18T09:14:14Z</time>
      </trkpt>
      <trkpt lat="44.0841" lon="6.14083">
        <ele>934.4</ele>
        <time>2020-10-18T09:14:15Z</time>
      </trkpt>
      <trkpt lat="44.08408" lon="6.14083">
        <ele>934.6</ele>
        <time>2020-10-18T09:14:16Z</time>
      </trkpt>
      <trkpt lat="44.08406" lon="6.14084">
        <ele>934.6</ele>
        <time>2020-10-18T09:14:17Z</time>
      </trkpt>
      <trkpt lat="44.08405" lon="6.14084">
        <ele>934.8</ele>
        <time>2020-10-18T09:14:18Z</time>
      </trkpt>
      <trkpt lat="44.08403" lon="6.14085">
        <ele>935.2</ele>
        <time>2020-10-18T09:14:19Z</time>
      </trkpt>
      <trkpt lat="44.08401" lon="6.14086">
        <ele>935.2</ele>
        <time>2020-10-18T09:14:20Z</time>
      </trkpt>
      <trkpt lat="44.08399" lon="6.14086">
        <ele>935.4</ele>
        <time>2020-10-18T09:14:21Z</time>
      </trkpt>
      <trkpt lat="44.08397" lon="6.14086">
        <ele>935.6</ele>
        <time>2020-10-18T09:14:22Z</time>
      </trkpt>
      <trkpt lat="44.08395" lon="6.14087">
        <ele>935.6</ele>
        <time>2020-10-18T09:14:23Z</time>
      </trkpt>
      <trkpt lat="44.08392" lon="6.14088">
        <ele>936</ele>
        <time>2020-10-18T09:14:24Z</time>
      </trkpt>
      <trkpt lat="44.0839" lon="6.14088">
        <ele>936</ele>
        <time>2020-10-18T09:14:25Z</time>
      </trkpt>
      <trkpt lat="44.08388" lon="6.14089">
        <ele>936.2</ele>
        <time>2020-10-18T09:14:26Z</time>
      </trkpt>
      <trkpt lat="44.08386" lon="6.14091">
        <ele>936.2</ele>
        <time>2020-10-18T09:14:27Z</time>
      </trkpt>
      <trkpt lat="44.08384" lon="6.14091">
        <ele>936.4</ele>
        <time>2020-10-18T09:14:28Z</time>
      </trkpt>
      <trkpt lat="44.08382" lon="6.14092">
        <ele>936.4</ele>
        <time>2020-10-18T09:14:29Z</time>
      </trkpt>
      <trkpt lat="44.08381" lon="6.14093">
        <ele>936.6</ele>
        <time>2020-10-18T09:14:30Z</time>
      </trkpt>
      <trkpt lat="44.08379" lon="6.14093">
        <ele>936.6</ele>
        <time>2020-10-18T09:14:31Z</time>
      </trkpt>
      <trkpt lat="44.08377" lon="6.14093">
        <ele>936.8</ele>
        <time>2020-10-18T09:14:32Z</time>
      </trkpt>
      <trkpt lat="44.08375" lon="6.14094">
        <ele>936.8</ele>
        <time>2020-10-18T09:14:33Z</time>
      </trkpt>
      <trkpt lat="44.08373" lon="6.14094">
        <ele>937.2</ele>
        <time>2020-10-18T09:14:34Z</time>
      </trkpt>
      <trkpt lat="44.08372" lon="6.14095">
        <ele>937.2</ele>
        <time>2020-10-18T09:14:35Z</time>
      </trkpt>
      <trkpt lat="44.0837" lon="6.14096">
        <ele>937.4</ele>
        <time>2020-10-18T09:14:36Z</time>
      </trkpt>
      <trkpt lat="44.08368" lon="6.14097">
        <ele>937.6</ele>
        <time>2020-10-18T09:14:37Z</time>
      </trkpt>
      <trkpt lat="44.08366" lon="6.14097">
        <ele>937.8</ele>
        <time>2020-10-18T09:14:38Z</time>
      </trkpt>
      <trkpt lat="44.08364" lon="6.14098">
        <ele>938</ele>
        <time>2020-10-18T09:14:39Z</time>
      </trkpt>
      <trkpt lat="44.08362" lon="6.14099">
        <ele>938</ele>
        <time>2020-10-18T09:14:40Z</time>
      </trkpt>
      <trkpt lat="44.0836" lon="6.141">
        <ele>938</ele>
        <time>2020-10-18T09:14:41Z</time>
      </trkpt>
      <trkpt lat="44.08358" lon="6.14101">
        <ele>938.2</ele>
        <time>2020-10-18T09:14:42Z</time>
      </trkpt>
      <trkpt lat="44.08356" lon="6.14102">
        <ele>938.4</ele>
        <time>2020-10-18T09:14:43Z</time>
      </trkpt>
      <trkpt lat="44.08354" lon="6.14103">
        <ele>938.6</ele>
        <time>2020-10-18T09:14:44Z</time>
      </trkpt>
      <trkpt lat="44.08352" lon="6.14103">
        <ele>938.8</ele>
        <time>2020-10-18T09:14:45Z</time>
      </trkpt>
      <trkpt lat="44.0835" lon="6.14104">
        <ele>939</ele>
        <time>2020-10-18T09:14:46Z</time>
      </trkpt>
      <trkpt lat="44.08348" lon="6.14104">
        <ele>939</ele>
        <time>2020-10-18T09:14:47Z</time>
      </trkpt>
      <trkpt lat="44.08346" lon="6.14105">
        <ele>939.2</ele>
        <time>2020-10-18T09:14:48Z</time>
      </trkpt>
      <trkpt lat="44.08344" lon="6.14106">
        <ele>939.6</ele>
        <time>2020-10-18T09:14:49Z</time>
      </trkpt>
      <trkpt lat="44.08343" lon="6.14107">
        <ele>939.8</ele>
        <time>2020-10-18T09:14:50Z</time>
      </trkpt>
      <trkpt lat="44.08341" lon="6.14108">
        <ele>940</ele>
        <time>2020-10-18T09:14:51Z</time>
      </trkpt>
      <trkpt lat="44.0834" lon="6.14109">
        <ele>940.4</ele>
        <time>2020-10-18T09:14:52Z</time>
      </trkpt>
      <trkpt lat="44.08338" lon="6.1411">
        <ele>940.4</ele>
        <time>2020-10-18T09:14:53Z</time>
      </trkpt>
      <trkpt lat="44.08337" lon="6.14111">
        <ele>940.4</ele>
        <time>2020-10-18T09:14:54Z</time>
      </trkpt>
      <trkpt lat="44.08336" lon="6.14112">
        <ele>940.4</ele>
        <time>2020-10-18T09:14:55Z</time>
      </trkpt>
      <trkpt lat="44.08334" lon="6.14113">
        <ele>940.8</ele>
        <time>2020-10-18T09:14:56Z</time>
      </trkpt>
      <trkpt lat="44.08332" lon="6.14114">
        <ele>941</ele>
        <time>2020-10-18T09:14:57Z</time>
      </trkpt>
      <trkpt lat="44.0833" lon="6.14115">
        <ele>941</ele>
        <time>2020-10-18T09:14:58Z</time>
      </trkpt>
      <trkpt lat="44.08328" lon="6.14116">
        <ele>941.6</ele>
        <time>2020-10-18T09:14:59Z</time>
      </trkpt>
      <trkpt lat="44.08326" lon="6.14117">
        <ele>941.8</ele>
        <time>2020-10-18T09:15:00Z</time>
      </trkpt>
      <trkpt lat="44.08324" lon="6.14118">
        <ele>941.8</ele>
        <time>2020-10-18T09:15:01Z</time>
      </trkpt>
      <trkpt lat="44.08322" lon="6.14119">
        <ele>942</ele>
        <time>2020-10-18T09:15:02Z</time>
      </trkpt>
      <trkpt lat="44.0832" lon="6.14121">
        <ele>942.2</ele>
        <time>2020-10-18T09:15:03Z</time>
      </trkpt>
      <trkpt lat="44.08318" lon="6.14121">
        <ele>942.8</ele>
        <time>2020-10-18T09:15:04Z</time>
      </trkpt>
      <trkpt lat="44.08317" lon="6.14123">
        <ele>943.2</ele>
        <time>2020-10-18T09:15:05Z</time>
      </trkpt>
      <trkpt lat="44.08315" lon="6.14123">
        <ele>943.4</ele>
        <time>2020-10-18T09:15:06Z</time>
      </trkpt>
      <trkpt lat="44.08313" lon="6.14124">
        <ele>943.8</ele>
        <time>2020-10-18T09:15:07Z</time>
      </trkpt>
      <trkpt lat="44.08312" lon="6.14126">
        <ele>943.8</ele>
        <time>2020-10-18T09:15:08Z</time>
      </trkpt>
      <trkpt lat="44.0831" lon="6.14127">
        <ele>944</ele>
        <time>2020-10-18T09:15:09Z</time>
      </trkpt>
      <trkpt lat="44.08308" lon="6.14128">
        <ele>944.2</ele>
        <time>2020-10-18T09:15:10Z</time>
      </trkpt>
      <trkpt lat="44.08306" lon="6.14129">
        <ele>944.6</ele>
        <time>2020-10-18T09:15:11Z</time>
      </trkpt>
      <trkpt lat="44.08304" lon="6.1413">
        <ele>944.8</ele>
        <time>2020-10-18T09:15:12Z</time>
      </trkpt>
      <trkpt lat="44.08302" lon="6.14131">
        <ele>945.2</ele>
        <time>2020-10-18T09:15:13Z</time>
      </trkpt>
      <trkpt lat="44.083" lon="6.14133">
        <ele>945</ele>
        <time>2020-10-18T09:15:14Z</time>
      </trkpt>
      <trkpt lat="44.08298" lon="6.14134">
        <ele>945.2</ele>
        <time>2020-10-18T09:15:15Z</time>
      </trkpt>
      <trkpt lat="44.08295" lon="6.14135">
        <ele>945.4</ele>
        <time>2020-10-18T09:15:16Z</time>
      </trkpt>
      <trkpt lat="44.08293" lon="6.14136">
        <ele>945.6</ele>
        <time>2020-10-18T09:15:17Z</time>
      </trkpt>
      <trkpt lat="44.0829" lon="6.14137">
        <ele>945.8</ele>
        <time>2020-10-18T09:15:18Z</time>
      </trkpt>
      <trkpt lat="44.08288" lon="6.14138">
        <ele>946</ele>
        <time>2020-10-18T09:15:19Z</time>
      </trkpt>
      <trkpt lat="44.08286" lon="6.1414">
        <ele>946</ele>
        <time>2020-10-18T09:15:20Z</time>
      </trkpt>
      <trkpt lat="44.08283" lon="6.14142">
        <ele>946</ele>
        <time>2020-10-18T09:15:21Z</time>
      </trkpt>
      <trkpt lat="44.08281" lon="6.14143">
        <ele>946.2</ele>
        <time>2020-10-18T09:15:22Z</time>
      </trkpt>
      <trkpt lat="44.08279" lon="6.14144">
        <ele>946.2</ele>
        <time>2020-10-18T09:15:23Z</time>
      </trkpt>
      <trkpt lat="44.08276" lon="6.14145">
        <ele>946.2</ele>
        <time>2020-10-18T09:15:24Z</time>
      </trkpt>
      <trkpt lat="44.08275" lon="6.14147">
        <ele>946.4</ele>
        <time>2020-10-18T09:15:25Z</time>
      </trkpt>
      <trkpt lat="44.08273" lon="6.14148">
        <ele>946.4</ele>
        <time>2020-10-18T09:15:26Z</time>
      </trkpt>
      <trkpt lat="44.08272" lon="6.1415">
        <ele>946.6</ele>
        <time>2020-10-18T09:15:27Z</time>
      </trkpt>
      <trkpt lat="44.08272" lon="6.14151">
        <ele>946.6</ele>
        <time>2020-10-18T09:15:28Z</time>
      </trkpt>
      <trkpt lat="44.08271" lon="6.14151">
        <ele>946.4</ele>
        <time>2020-10-18T09:15:29Z</time>
      </trkpt>
      <trkpt lat="44.0827" lon="6.14151">
        <ele>946.6</ele>
        <time>2020-10-18T09:15:30Z</time>
      </trkpt>
      <trkpt lat="44.0827" lon="6.14152">
        <ele>946.8</ele>
        <time>2020-10-18T09:15:31Z</time>
      </trkpt>
      <trkpt lat="44.08268" lon="6.14152">
        <ele>946.6</ele>
        <time>2020-10-18T09:15:33Z</time>
      </trkpt>
      <trkpt lat="44.08266" lon="6.14154">
        <ele>946.8</ele>
        <time>2020-10-18T09:15:34Z</time>
      </trkpt>
      <trkpt lat="44.08265" lon="6.14156">
        <ele>946.8</ele>
        <time>2020-10-18T09:15:35Z</time>
      </trkpt>
      <trkpt lat="44.08265" lon="6.14158">
        <ele>947</ele>
        <time>2020-10-18T09:15:36Z</time>
      </trkpt>
      <trkpt lat="44.08264" lon="6.1416">
        <ele>947</ele>
        <time>2020-10-18T09:15:37Z</time>
      </trkpt>
      <trkpt lat="44.08263" lon="6.14162">
        <ele>947</ele>
        <time>2020-10-18T09:15:38Z</time>
      </trkpt>
      <trkpt lat="44.08262" lon="6.14165">
        <ele>947</ele>
        <time>2020-10-18T09:15:39Z</time>
      </trkpt>
      <trkpt lat="44.0826" lon="6.1417">
        <ele>947.2</ele>
        <time>2020-10-18T09:15:41Z</time>
      </trkpt>
      <trkpt lat="44.08258" lon="6.14172">
        <ele>947.2</ele>
        <time>2020-10-18T09:15:42Z</time>
      </trkpt>
      <trkpt lat="44.08257" lon="6.14174">
        <ele>947.2</ele>
        <time>2020-10-18T09:15:43Z</time>
      </trkpt>
      <trkpt lat="44.08256" lon="6.14176">
        <ele>947.2</ele>
        <time>2020-10-18T09:15:44Z</time>
      </trkpt>
      <trkpt lat="44.08255" lon="6.14178">
        <ele>947.2</ele>
        <time>2020-10-18T09:15:45Z</time>
      </trkpt>
      <trkpt lat="44.08253" lon="6.14181">
        <ele>947.2</ele>
        <time>2020-10-18T09:15:46Z</time>
      </trkpt>
      <trkpt lat="44.08252" lon="6.14183">
        <ele>947.4</ele>
        <time>2020-10-18T09:15:47Z</time>
      </trkpt>
      <trkpt lat="44.0825" lon="6.14188">
        <ele>947.4</ele>
        <time>2020-10-18T09:15:49Z</time>
      </trkpt>
      <trkpt lat="44.08248" lon="6.1419">
        <ele>947.6</ele>
        <time>2020-10-18T09:15:50Z</time>
      </trkpt>
      <trkpt lat="44.08246" lon="6.14192">
        <ele>947.8</ele>
        <time>2020-10-18T09:15:51Z</time>
      </trkpt>
      <trkpt lat="44.08242" lon="6.14195">
        <ele>948.4</ele>
        <time>2020-10-18T09:15:53Z</time>
      </trkpt>
      <trkpt lat="44.08241" lon="6.14197">
        <ele>948.4</ele>
        <time>2020-10-18T09:15:54Z</time>
      </trkpt>
      <trkpt lat="44.0824" lon="6.14199">
        <ele>948.6</ele>
        <time>2020-10-18T09:15:55Z</time>
      </trkpt>
      <trkpt lat="44.08238" lon="6.14201">
        <ele>948.8</ele>
        <time>2020-10-18T09:15:56Z</time>
      </trkpt>
      <trkpt lat="44.08237" lon="6.14203">
        <ele>949</ele>
        <time>2020-10-18T09:15:57Z</time>
      </trkpt>
      <trkpt lat="44.08236" lon="6.14205">
        <ele>949.2</ele>
        <time>2020-10-18T09:15:58Z</time>
      </trkpt>
      <trkpt lat="44.08234" lon="6.14206">
        <ele>949.4</ele>
        <time>2020-10-18T09:15:59Z</time>
      </trkpt>
      <trkpt lat="44.08232" lon="6.14208">
        <ele>949.4</ele>
        <time>2020-10-18T09:16:00Z</time>
      </trkpt>
      <trkpt lat="44.0823" lon="6.14211">
        <ele>949.6</ele>
        <time>2020-10-18T09:16:01Z</time>
      </trkpt>
      <trkpt lat="44.08228" lon="6.14213">
        <ele>949.6</ele>
        <time>2020-10-18T09:16:02Z</time>
      </trkpt>
      <trkpt lat="44.08226" lon="6.14214">
        <ele>949.8</ele>
        <time>2020-10-18T09:16:03Z</time>
      </trkpt>
      <trkpt lat="44.08224" lon="6.14216">
        <ele>949.8</ele>
        <time>2020-10-18T09:16:04Z</time>
      </trkpt>
      <trkpt lat="44.08222" lon="6.14218">
        <ele>950</ele>
        <time>2020-10-18T09:16:05Z</time>
      </trkpt>
      <trkpt lat="44.0822" lon="6.1422">
        <ele>950.2</ele>
        <time>2020-10-18T09:16:06Z</time>
      </trkpt>
      <trkpt lat="44.08218" lon="6.14221">
        <ele>950.2</ele>
        <time>2020-10-18T09:16:07Z</time>
      </trkpt>
      <trkpt lat="44.08217" lon="6.14222">
        <ele>950.6</ele>
        <time>2020-10-18T09:16:08Z</time>
      </trkpt>
      <trkpt lat="44.08214" lon="6.14223">
        <ele>950.8</ele>
        <time>2020-10-18T09:16:09Z</time>
      </trkpt>
      <trkpt lat="44.08212" lon="6.14223">
        <ele>951</ele>
        <time>2020-10-18T09:16:10Z</time>
      </trkpt>
      <trkpt lat="44.08209" lon="6.14224">
        <ele>951</ele>
        <time>2020-10-18T09:16:11Z</time>
      </trkpt>
      <trkpt lat="44.08207" lon="6.14225">
        <ele>951.2</ele>
        <time>2020-10-18T09:16:12Z</time>
      </trkpt>
      <trkpt lat="44.08205" lon="6.14225">
        <ele>951.4</ele>
        <time>2020-10-18T09:16:13Z</time>
      </trkpt>
      <trkpt lat="44.08203" lon="6.14226">
        <ele>951.2</ele>
        <time>2020-10-18T09:16:14Z</time>
      </trkpt>
      <trkpt lat="44.08201" lon="6.14227">
        <ele>951.4</ele>
        <time>2020-10-18T09:16:15Z</time>
      </trkpt>
      <trkpt lat="44.08199" lon="6.14228">
        <ele>951.6</ele>
        <time>2020-10-18T09:16:16Z</time>
      </trkpt>
      <trkpt lat="44.08197" lon="6.14229">
        <ele>951.6</ele>
        <time>2020-10-18T09:16:17Z</time>
      </trkpt>
      <trkpt lat="44.08195" lon="6.14229">
        <ele>951.6</ele>
        <time>2020-10-18T09:16:18Z</time>
      </trkpt>
      <trkpt lat="44.08194" lon="6.1423">
        <ele>951.6</ele>
        <time>2020-10-18T09:16:19Z</time>
      </trkpt>
      <trkpt lat="44.08192" lon="6.14231">
        <ele>951.6</ele>
        <time>2020-10-18T09:16:20Z</time>
      </trkpt>
      <trkpt lat="44.0819" lon="6.14231">
        <ele>951.8</ele>
        <time>2020-10-18T09:16:21Z</time>
      </trkpt>
      <trkpt lat="44.08189" lon="6.14232">
        <ele>951.8</ele>
        <time>2020-10-18T09:16:22Z</time>
      </trkpt>
      <trkpt lat="44.08187" lon="6.14232">
        <ele>951.8</ele>
        <time>2020-10-18T09:16:23Z</time>
      </trkpt>
      <trkpt lat="44.08186" lon="6.14232">
        <ele>952</ele>
        <time>2020-10-18T09:16:24Z</time>
      </trkpt>
      <trkpt lat="44.08184" lon="6.14231">
        <ele>952</ele>
        <time>2020-10-18T09:16:25Z</time>
      </trkpt>
      <trkpt lat="44.08182" lon="6.1423">
        <ele>952.4</ele>
        <time>2020-10-18T09:16:26Z</time>
      </trkpt>
      <trkpt lat="44.08181" lon="6.14229">
        <ele>952.6</ele>
        <time>2020-10-18T09:16:27Z</time>
      </trkpt>
      <trkpt lat="44.08179" lon="6.14228">
        <ele>952.6</ele>
        <time>2020-10-18T09:16:28Z</time>
      </trkpt>
      <trkpt lat="44.08177" lon="6.14227">
        <ele>953</ele>
        <time>2020-10-18T09:16:29Z</time>
      </trkpt>
      <trkpt lat="44.08175" lon="6.14227">
        <ele>953.2</ele>
        <time>2020-10-18T09:16:30Z</time>
      </trkpt>
      <trkpt lat="44.08174" lon="6.14226">
        <ele>953.6</ele>
        <time>2020-10-18T09:16:31Z</time>
      </trkpt>
      <trkpt lat="44.08172" lon="6.14225">
        <ele>954</ele>
        <time>2020-10-18T09:16:32Z</time>
      </trkpt>
      <trkpt lat="44.08171" lon="6.14225">
        <ele>954.2</ele>
        <time>2020-10-18T09:16:33Z</time>
      </trkpt>
      <trkpt lat="44.08169" lon="6.14224">
        <ele>954.2</ele>
        <time>2020-10-18T09:16:34Z</time>
      </trkpt>
      <trkpt lat="44.08168" lon="6.14223">
        <ele>954.4</ele>
        <time>2020-10-18T09:16:35Z</time>
      </trkpt>
      <trkpt lat="44.08166" lon="6.14223">
        <ele>954.6</ele>
        <time>2020-10-18T09:16:36Z</time>
      </trkpt>
      <trkpt lat="44.08164" lon="6.14222">
        <ele>955</ele>
        <time>2020-10-18T09:16:37Z</time>
      </trkpt>
      <trkpt lat="44.08162" lon="6.14222">
        <ele>955</ele>
        <time>2020-10-18T09:16:38Z</time>
      </trkpt>
      <trkpt lat="44.0816" lon="6.14221">
        <ele>955</ele>
        <time>2020-10-18T09:16:39Z</time>
      </trkpt>
      <trkpt lat="44.08158" lon="6.14221">
        <ele>955.4</ele>
        <time>2020-10-18T09:16:40Z</time>
      </trkpt>
      <trkpt lat="44.08157" lon="6.14221">
        <ele>955.4</ele>
        <time>2020-10-18T09:16:41Z</time>
      </trkpt>
      <trkpt lat="44.08155" lon="6.14221">
        <ele>955.6</ele>
        <time>2020-10-18T09:16:42Z</time>
      </trkpt>
      <trkpt lat="44.08154" lon="6.14221">
        <ele>955.6</ele>
        <time>2020-10-18T09:16:43Z</time>
      </trkpt>
      <trkpt lat="44.08152" lon="6.14221">
        <ele>956.2</ele>
        <time>2020-10-18T09:16:44Z</time>
      </trkpt>
      <trkpt lat="44.0815" lon="6.14221">
        <ele>956.4</ele>
        <time>2020-10-18T09:16:45Z</time>
      </trkpt>
      <trkpt lat="44.08148" lon="6.14222">
        <ele>956.6</ele>
        <time>2020-10-18T09:16:46Z</time>
      </trkpt>
      <trkpt lat="44.08147" lon="6.14222">
        <ele>956.8</ele>
        <time>2020-10-18T09:16:47Z</time>
      </trkpt>
      <trkpt lat="44.08145" lon="6.14222">
        <ele>957</ele>
        <time>2020-10-18T09:16:48Z</time>
      </trkpt>
      <trkpt lat="44.08143" lon="6.14222">
        <ele>957.4</ele>
        <time>2020-10-18T09:16:49Z</time>
      </trkpt>
      <trkpt lat="44.08141" lon="6.14223">
        <ele>957.8</ele>
        <time>2020-10-18T09:16:50Z</time>
      </trkpt>
      <trkpt lat="44.08139" lon="6.14223">
        <ele>958</ele>
        <time>2020-10-18T09:16:51Z</time>
      </trkpt>
      <trkpt lat="44.08137" lon="6.14223">
        <ele>958.2</ele>
        <time>2020-10-18T09:16:52Z</time>
      </trkpt>
      <trkpt lat="44.08136" lon="6.14223">
        <ele>958.4</ele>
        <time>2020-10-18T09:16:53Z</time>
      </trkpt>
      <trkpt lat="44.08134" lon="6.14223">
        <ele>958.6</ele>
        <time>2020-10-18T09:16:54Z</time>
      </trkpt>
      <trkpt lat="44.08133" lon="6.14221">
        <ele>959</ele>
        <time>2020-10-18T09:16:55Z</time>
      </trkpt>
      <trkpt lat="44.08131" lon="6.14218">
        <ele>959.4</ele>
        <time>2020-10-18T09:16:56Z</time>
      </trkpt>
      <trkpt lat="44.0813" lon="6.14216">
        <ele>959.6</ele>
        <time>2020-10-18T09:16:57Z</time>
      </trkpt>
      <trkpt lat="44.08129" lon="6.14213">
        <ele>959.6</ele>
        <time>2020-10-18T09:16:58Z</time>
      </trkpt>
      <trkpt lat="44.08128" lon="6.1421">
        <ele>959.8</ele>
        <time>2020-10-18T09:16:59Z</time>
      </trkpt>
      <trkpt lat="44.08127" lon="6.14208">
        <ele>960</ele>
        <time>2020-10-18T09:17:00Z</time>
      </trkpt>
      <trkpt lat="44.08126" lon="6.14205">
        <ele>960</ele>
        <time>2020-10-18T09:17:01Z</time>
      </trkpt>
      <trkpt lat="44.08125" lon="6.14203">
        <ele>960</ele>
        <time>2020-10-18T09:17:02Z</time>
      </trkpt>
      <trkpt lat="44.08125" lon="6.142">
        <ele>960.2</ele>
        <time>2020-10-18T09:17:03Z</time>
      </trkpt>
      <trkpt lat="44.08124" lon="6.14198">
        <ele>960.2</ele>
        <time>2020-10-18T09:17:04Z</time>
      </trkpt>
      <trkpt lat="44.08123" lon="6.14196">
        <ele>960.2</ele>
        <time>2020-10-18T09:17:05Z</time>
      </trkpt>
      <trkpt lat="44.08123" lon="6.14195">
        <ele>960.4</ele>
        <time>2020-10-18T09:17:06Z</time>
      </trkpt>
      <trkpt lat="44.08122" lon="6.14193">
        <ele>960.8</ele>
        <time>2020-10-18T09:17:07Z</time>
      </trkpt>
      <trkpt lat="44.08121" lon="6.14191">
        <ele>961.2</ele>
        <time>2020-10-18T09:17:08Z</time>
      </trkpt>
      <trkpt lat="44.0812" lon="6.1419">
        <ele>961.6</ele>
        <time>2020-10-18T09:17:09Z</time>
      </trkpt>
      <trkpt lat="44.08119" lon="6.14189">
        <ele>962</ele>
        <time>2020-10-18T09:17:10Z</time>
      </trkpt>
      <trkpt lat="44.08119" lon="6.14188">
        <ele>962.4</ele>
        <time>2020-10-18T09:17:11Z</time>
      </trkpt>
      <trkpt lat="44.08118" lon="6.14186">
        <ele>962.4</ele>
        <time>2020-10-18T09:17:12Z</time>
      </trkpt>
      <trkpt lat="44.08117" lon="6.14185">
        <ele>962.6</ele>
        <time>2020-10-18T09:17:13Z</time>
      </trkpt>
      <trkpt lat="44.08116" lon="6.14184">
        <ele>962.6</ele>
        <time>2020-10-18T09:17:14Z</time>
      </trkpt>
      <trkpt lat="44.08115" lon="6.14182">
        <ele>962.8</ele>
        <time>2020-10-18T09:17:15Z</time>
      </trkpt>
      <trkpt lat="44.08115" lon="6.14181">
        <ele>963.2</ele>
        <time>2020-10-18T09:17:16Z</time>
      </trkpt>
      <trkpt lat="44.08114" lon="6.14181">
        <ele>963.4</ele>
        <time>2020-10-18T09:17:17Z</time>
      </trkpt>
      <trkpt lat="44.08114" lon="6.14181">
        <ele>963.8</ele>
        <time>2020-10-18T09:17:18Z</time>
      </trkpt>
      <trkpt lat="44.08114" lon="6.1418">
        <ele>964</ele>
        <time>2020-10-18T09:17:19Z</time>
      </trkpt>
      <trkpt lat="44.08114" lon="6.1418">
        <ele>964.6</ele>
        <time>2020-10-18T09:17:21Z</time>
      </trkpt>
      <trkpt lat="44.08114" lon="6.1418">
        <ele>964.8</ele>
        <time>2020-10-18T09:17:23Z</time>
      </trkpt>
      <trkpt lat="44.08113" lon="6.1418">
        <ele>965.6</ele>
        <time>2020-10-18T09:17:25Z</time>
      </trkpt>
      <trkpt lat="44.08112" lon="6.1418">
        <ele>965.6</ele>
        <time>2020-10-18T09:17:26Z</time>
      </trkpt>
      <trkpt lat="44.08111" lon="6.1418">
        <ele>965.6</ele>
        <time>2020-10-18T09:17:27Z</time>
      </trkpt>
      <trkpt lat="44.0811" lon="6.14181">
        <ele>965.6</ele>
        <time>2020-10-18T09:17:28Z</time>
      </trkpt>
      <trkpt lat="44.08108" lon="6.14181">
        <ele>965.8</ele>
        <time>2020-10-18T09:17:29Z</time>
      </trkpt>
      <trkpt lat="44.08107" lon="6.14181">
        <ele>965.6</ele>
        <time>2020-10-18T09:17:30Z</time>
      </trkpt>
      <trkpt lat="44.08106" lon="6.14181">
        <ele>965.8</ele>
        <time>2020-10-18T09:17:31Z</time>
      </trkpt>
      <trkpt lat="44.08105" lon="6.14181">
        <ele>965.8</ele>
        <time>2020-10-18T09:17:32Z</time>
      </trkpt>
      <trkpt lat="44.08104" lon="6.14179">
        <ele>965.8</ele>
        <time>2020-10-18T09:17:33Z</time>
      </trkpt>
      <trkpt lat="44.08104" lon="6.14178">
        <ele>965.8</ele>
        <time>2020-10-18T09:17:34Z</time>
      </trkpt>
      <trkpt lat="44.08103" lon="6.14176">
        <ele>965.8</ele>
        <time>2020-10-18T09:17:35Z</time>
      </trkpt>
      <trkpt lat="44.08103" lon="6.14174">
        <ele>966.2</ele>
        <time>2020-10-18T09:17:36Z</time>
      </trkpt>
      <trkpt lat="44.08102" lon="6.14172">
        <ele>966.4</ele>
        <time>2020-10-18T09:17:37Z</time>
      </trkpt>
      <trkpt lat="44.08101" lon="6.14171">
        <ele>966.6</ele>
        <time>2020-10-18T09:17:38Z</time>
      </trkpt>
      <trkpt lat="44.081" lon="6.14171">
        <ele>967</ele>
        <time>2020-10-18T09:17:39Z</time>
      </trkpt>
      <trkpt lat="44.08099" lon="6.14172">
        <ele>967.2</ele>
        <time>2020-10-18T09:17:40Z</time>
      </trkpt>
      <trkpt lat="44.08098" lon="6.14172">
        <ele>967.4</ele>
        <time>2020-10-18T09:17:41Z</time>
      </trkpt>
      <trkpt lat="44.08097" lon="6.14173">
        <ele>967.8</ele>
        <time>2020-10-18T09:17:42Z</time>
      </trkpt>
      <trkpt lat="44.08096" lon="6.14174">
        <ele>967.8</ele>
        <time>2020-10-18T09:17:43Z</time>
      </trkpt>
      <trkpt lat="44.08095" lon="6.14175">
        <ele>967.8</ele>
        <time>2020-10-18T09:17:44Z</time>
      </trkpt>
      <trkpt lat="44.08094" lon="6.14175">
        <ele>968</ele>
        <time>2020-10-18T09:17:45Z</time>
      </trkpt>
      <trkpt lat="44.08093" lon="6.14176">
        <ele>968.4</ele>
        <time>2020-10-18T09:17:46Z</time>
      </trkpt>
      <trkpt lat="44.08092" lon="6.14176">
        <ele>968.6</ele>
        <time>2020-10-18T09:17:47Z</time>
      </trkpt>
      <trkpt lat="44.0809" lon="6.14177">
        <ele>969</ele>
        <time>2020-10-18T09:17:48Z</time>
      </trkpt>
      <trkpt lat="44.08089" lon="6.14177">
        <ele>969.2</ele>
        <time>2020-10-18T09:17:49Z</time>
      </trkpt>
      <trkpt lat="44.08088" lon="6.14177">
        <ele>969.4</ele>
        <time>2020-10-18T09:17:50Z</time>
      </trkpt>
      <trkpt lat="44.08087" lon="6.14178">
        <ele>969.8</ele>
        <time>2020-10-18T09:17:51Z</time>
      </trkpt>
      <trkpt lat="44.08086" lon="6.14178">
        <ele>970.4</ele>
        <time>2020-10-18T09:17:52Z</time>
      </trkpt>
      <trkpt lat="44.08085" lon="6.14179">
        <ele>970.6</ele>
        <time>2020-10-18T09:17:53Z</time>
      </trkpt>
      <trkpt lat="44.08084" lon="6.14179">
        <ele>970.8</ele>
        <time>2020-10-18T09:17:54Z</time>
      </trkpt>
      <trkpt lat="44.08083" lon="6.1418">
        <ele>971.2</ele>
        <time>2020-10-18T09:17:55Z</time>
      </trkpt>
      <trkpt lat="44.08082" lon="6.1418">
        <ele>971.2</ele>
        <time>2020-10-18T09:17:56Z</time>
      </trkpt>
      <trkpt lat="44.08081" lon="6.14181">
        <ele>971.8</ele>
        <time>2020-10-18T09:17:57Z</time>
      </trkpt>
      <trkpt lat="44.0808" lon="6.14182">
        <ele>972</ele>
        <time>2020-10-18T09:17:58Z</time>
      </trkpt>
      <trkpt lat="44.08079" lon="6.14182">
        <ele>972.2</ele>
        <time>2020-10-18T09:17:59Z</time>
      </trkpt>
      <trkpt lat="44.08078" lon="6.14183">
        <ele>972.6</ele>
        <time>2020-10-18T09:18:00Z</time>
      </trkpt>
      <trkpt lat="44.08077" lon="6.14184">
        <ele>972.6</ele>
        <time>2020-10-18T09:18:01Z</time>
      </trkpt>
      <trkpt lat="44.08076" lon="6.14184">
        <ele>973</ele>
        <time>2020-10-18T09:18:02Z</time>
      </trkpt>
      <trkpt lat="44.08074" lon="6.14185">
        <ele>973.2</ele>
        <time>2020-10-18T09:18:03Z</time>
      </trkpt>
      <trkpt lat="44.08073" lon="6.14186">
        <ele>973.2</ele>
        <time>2020-10-18T09:18:04Z</time>
      </trkpt>
      <trkpt lat="44.08072" lon="6.14187">
        <ele>973.4</ele>
        <time>2020-10-18T09:18:05Z</time>
      </trkpt>
      <trkpt lat="44.08071" lon="6.14188">
        <ele>973.6</ele>
        <time>2020-10-18T09:18:06Z</time>
      </trkpt>
      <trkpt lat="44.0807" lon="6.14189">
        <ele>974</ele>
        <time>2020-10-18T09:18:07Z</time>
      </trkpt>
      <trkpt lat="44.08069" lon="6.1419">
        <ele>974</ele>
        <time>2020-10-18T09:18:08Z</time>
      </trkpt>
      <trkpt lat="44.08068" lon="6.14191">
        <ele>974.6</ele>
        <time>2020-10-18T09:18:09Z</time>
      </trkpt>
      <trkpt lat="44.08067" lon="6.14192">
        <ele>975</ele>
        <time>2020-10-18T09:18:10Z</time>
      </trkpt>
      <trkpt lat="44.08067" lon="6.14193">
        <ele>975.2</ele>
        <time>2020-10-18T09:18:11Z</time>
      </trkpt>
      <trkpt lat="44.08066" lon="6.14194">
        <ele>975.4</ele>
        <time>2020-10-18T09:18:12Z</time>
      </trkpt>
      <trkpt lat="44.08065" lon="6.14195">
        <ele>975.6</ele>
        <time>2020-10-18T09:18:13Z</time>
      </trkpt>
      <trkpt lat="44.08064" lon="6.14196">
        <ele>975.8</ele>
        <time>2020-10-18T09:18:14Z</time>
      </trkpt>
      <trkpt lat="44.08063" lon="6.14197">
        <ele>975.8</ele>
        <time>2020-10-18T09:18:15Z</time>
      </trkpt>
      <trkpt lat="44.08062" lon="6.14198">
        <ele>976</ele>
        <time>2020-10-18T09:18:16Z</time>
      </trkpt>
      <trkpt lat="44.08061" lon="6.14199">
        <ele>976.4</ele>
        <time>2020-10-18T09:18:17Z</time>
      </trkpt>
      <trkpt lat="44.08061" lon="6.14201">
        <ele>976.6</ele>
        <time>2020-10-18T09:18:18Z</time>
      </trkpt>
      <trkpt lat="44.0806" lon="6.14202">
        <ele>976.8</ele>
        <time>2020-10-18T09:18:19Z</time>
      </trkpt>
      <trkpt lat="44.08059" lon="6.14203">
        <ele>977</ele>
        <time>2020-10-18T09:18:20Z</time>
      </trkpt>
      <trkpt lat="44.08058" lon="6.14204">
        <ele>977.4</ele>
        <time>2020-10-18T09:18:21Z</time>
      </trkpt>
      <trkpt lat="44.08057" lon="6.14205">
        <ele>977.4</ele>
        <time>2020-10-18T09:18:22Z</time>
      </trkpt>
      <trkpt lat="44.08057" lon="6.14206">
        <ele>977.8</ele>
        <time>2020-10-18T09:18:23Z</time>
      </trkpt>
      <trkpt lat="44.08056" lon="6.14207">
        <ele>977.8</ele>
        <time>2020-10-18T09:18:24Z</time>
      </trkpt>
      <trkpt lat="44.08055" lon="6.14209">
        <ele>978</ele>
        <time>2020-10-18T09:18:25Z</time>
      </trkpt>
      <trkpt lat="44.08054" lon="6.1421">
        <ele>978</ele>
        <time>2020-10-18T09:18:26Z</time>
      </trkpt>
      <trkpt lat="44.08053" lon="6.1421">
        <ele>978.4</ele>
        <time>2020-10-18T09:18:27Z</time>
      </trkpt>
      <trkpt lat="44.08053" lon="6.14211">
        <ele>978.6</ele>
        <time>2020-10-18T09:18:28Z</time>
      </trkpt>
      <trkpt lat="44.08052" lon="6.14213">
        <ele>978.8</ele>
        <time>2020-10-18T09:18:29Z</time>
      </trkpt>
      <trkpt lat="44.08051" lon="6.14214">
        <ele>979</ele>
        <time>2020-10-18T09:18:30Z</time>
      </trkpt>
      <trkpt lat="44.0805" lon="6.14215">
        <ele>979.4</ele>
        <time>2020-10-18T09:18:31Z</time>
      </trkpt>
      <trkpt lat="44.08049" lon="6.14215">
        <ele>979.4</ele>
        <time>2020-10-18T09:18:32Z</time>
      </trkpt>
      <trkpt lat="44.08048" lon="6.14216">
        <ele>980</ele>
        <time>2020-10-18T09:18:33Z</time>
      </trkpt>
      <trkpt lat="44.08048" lon="6.14217">
        <ele>980</ele>
        <time>2020-10-18T09:18:34Z</time>
      </trkpt>
      <trkpt lat="44.08047" lon="6.14218">
        <ele>980.2</ele>
        <time>2020-10-18T09:18:35Z</time>
      </trkpt>
      <trkpt lat="44.08046" lon="6.14219">
        <ele>980.6</ele>
        <time>2020-10-18T09:18:36Z</time>
      </trkpt>
      <trkpt lat="44.08046" lon="6.1422">
        <ele>980.6</ele>
        <time>2020-10-18T09:18:37Z</time>
      </trkpt>
      <trkpt lat="44.08045" lon="6.14221">
        <ele>980.8</ele>
        <time>2020-10-18T09:18:38Z</time>
      </trkpt>
      <trkpt lat="44.08044" lon="6.14222">
        <ele>981.2</ele>
        <time>2020-10-18T09:18:39Z</time>
      </trkpt>
      <trkpt lat="44.08043" lon="6.14223">
        <ele>981.4</ele>
        <time>2020-10-18T09:18:40Z</time>
      </trkpt>
      <trkpt lat="44.08043" lon="6.14223">
        <ele>982.2</ele>
        <time>2020-10-18T09:18:41Z</time>
      </trkpt>
      <trkpt lat="44.08042" lon="6.14224">
        <ele>982.2</ele>
        <time>2020-10-18T09:18:42Z</time>
      </trkpt>
      <trkpt lat="44.08041" lon="6.14225">
        <ele>982.8</ele>
        <time>2020-10-18T09:18:43Z</time>
      </trkpt>
      <trkpt lat="44.0804" lon="6.14225">
        <ele>982.8</ele>
        <time>2020-10-18T09:18:44Z</time>
      </trkpt>
      <trkpt lat="44.08039" lon="6.14226">
        <ele>982.8</ele>
        <time>2020-10-18T09:18:45Z</time>
      </trkpt>
      <trkpt lat="44.08038" lon="6.14227">
        <ele>983.2</ele>
        <time>2020-10-18T09:18:46Z</time>
      </trkpt>
      <trkpt lat="44.08037" lon="6.14228">
        <ele>983.2</ele>
        <time>2020-10-18T09:18:47Z</time>
      </trkpt>
      <trkpt lat="44.08036" lon="6.14228">
        <ele>983.4</ele>
        <time>2020-10-18T09:18:48Z</time>
      </trkpt>
      <trkpt lat="44.08035" lon="6.14228">
        <ele>983.6</ele>
        <time>2020-10-18T09:18:49Z</time>
      </trkpt>
      <trkpt lat="44.08034" lon="6.14229">
        <ele>983.8</ele>
        <time>2020-10-18T09:18:50Z</time>
      </trkpt>
      <trkpt lat="44.08033" lon="6.1423">
        <ele>984</ele>
        <time>2020-10-18T09:18:51Z</time>
      </trkpt>
      <trkpt lat="44.08033" lon="6.14231">
        <ele>984</ele>
        <time>2020-10-18T09:18:52Z</time>
      </trkpt>
      <trkpt lat="44.08032" lon="6.14232">
        <ele>984.4</ele>
        <time>2020-10-18T09:18:53Z</time>
      </trkpt>
      <trkpt lat="44.08031" lon="6.14233">
        <ele>984.6</ele>
        <time>2020-10-18T09:18:54Z</time>
      </trkpt>
      <trkpt lat="44.0803" lon="6.14234">
        <ele>985</ele>
        <time>2020-10-18T09:18:55Z</time>
      </trkpt>
      <trkpt lat="44.08029" lon="6.14234">
        <ele>985</ele>
        <time>2020-10-18T09:18:56Z</time>
      </trkpt>
      <trkpt lat="44.08029" lon="6.14235">
        <ele>985.2</ele>
        <time>2020-10-18T09:18:57Z</time>
      </trkpt>
      <trkpt lat="44.08028" lon="6.14236">
        <ele>985.4</ele>
        <time>2020-10-18T09:18:58Z</time>
      </trkpt>
      <trkpt lat="44.08027" lon="6.14236">
        <ele>985.8</ele>
        <time>2020-10-18T09:18:59Z</time>
      </trkpt>
      <trkpt lat="44.08026" lon="6.14237">
        <ele>986.2</ele>
        <time>2020-10-18T09:19:00Z</time>
      </trkpt>
      <trkpt lat="44.08025" lon="6.14237">
        <ele>986.6</ele>
        <time>2020-10-18T09:19:01Z</time>
      </trkpt>
      <trkpt lat="44.08024" lon="6.14238">
        <ele>986.8</ele>
        <time>2020-10-18T09:19:02Z</time>
      </trkpt>
      <trkpt lat="44.08023" lon="6.14239">
        <ele>987</ele>
        <time>2020-10-18T09:19:03Z</time>
      </trkpt>
      <trkpt lat="44.08022" lon="6.1424">
        <ele>987.4</ele>
        <time>2020-10-18T09:19:04Z</time>
      </trkpt>
      <trkpt lat="44.08021" lon="6.1424">
        <ele>987.4</ele>
        <time>2020-10-18T09:19:05Z</time>
      </trkpt>
      <trkpt lat="44.0802" lon="6.14241">
        <ele>987.4</ele>
        <time>2020-10-18T09:19:06Z</time>
      </trkpt>
      <trkpt lat="44.08018" lon="6.14242">
        <ele>987.8</ele>
        <time>2020-10-18T09:19:07Z</time>
      </trkpt>
      <trkpt lat="44.08017" lon="6.14242">
        <ele>988.2</ele>
        <time>2020-10-18T09:19:08Z</time>
      </trkpt>
      <trkpt lat="44.08016" lon="6.14243">
        <ele>988.4</ele>
        <time>2020-10-18T09:19:09Z</time>
      </trkpt>
      <trkpt lat="44.08015" lon="6.14244">
        <ele>988.6</ele>
        <time>2020-10-18T09:19:10Z</time>
      </trkpt>
      <trkpt lat="44.08014" lon="6.14245">
        <ele>988.8</ele>
        <time>2020-10-18T09:19:11Z</time>
      </trkpt>
      <trkpt lat="44.08014" lon="6.14246">
        <ele>989.2</ele>
        <time>2020-10-18T09:19:12Z</time>
      </trkpt>
      <trkpt lat="44.08013" lon="6.14248">
        <ele>989.4</ele>
        <time>2020-10-18T09:19:13Z</time>
      </trkpt>
      <trkpt lat="44.08013" lon="6.14249">
        <ele>989.8</ele>
        <time>2020-10-18T09:19:14Z</time>
      </trkpt>
      <trkpt lat="44.08012" lon="6.14251">
        <ele>990</ele>
        <time>2020-10-18T09:19:15Z</time>
      </trkpt>
      <trkpt lat="44.08011" lon="6.14253">
        <ele>990.4</ele>
        <time>2020-10-18T09:19:16Z</time>
      </trkpt>
      <trkpt lat="44.08011" lon="6.14255">
        <ele>990.8</ele>
        <time>2020-10-18T09:19:17Z</time>
      </trkpt>
      <trkpt lat="44.08011" lon="6.14257">
        <ele>991</ele>
        <time>2020-10-18T09:19:18Z</time>
      </trkpt>
      <trkpt lat="44.0801" lon="6.14259">
        <ele>991.2</ele>
        <time>2020-10-18T09:19:19Z</time>
      </trkpt>
      <trkpt lat="44.08009" lon="6.14261">
        <ele>991.2</ele>
        <time>2020-10-18T09:19:20Z</time>
      </trkpt>
      <trkpt lat="44.08008" lon="6.14263">
        <ele>991.4</ele>
        <time>2020-10-18T09:19:21Z</time>
      </trkpt>
      <trkpt lat="44.08007" lon="6.14265">
        <ele>991.4</ele>
        <time>2020-10-18T09:19:22Z</time>
      </trkpt>
      <trkpt lat="44.08007" lon="6.14268">
        <ele>991.6</ele>
        <time>2020-10-18T09:19:23Z</time>
      </trkpt>
      <trkpt lat="44.08007" lon="6.1427">
        <ele>991.8</ele>
        <time>2020-10-18T09:19:24Z</time>
      </trkpt>
      <trkpt lat="44.08006" lon="6.14272">
        <ele>992</ele>
        <time>2020-10-18T09:19:25Z</time>
      </trkpt>
      <trkpt lat="44.08006" lon="6.14275">
        <ele>992</ele>
        <time>2020-10-18T09:19:26Z</time>
      </trkpt>
      <trkpt lat="44.08006" lon="6.14278">
        <ele>992</ele>
        <time>2020-10-18T09:19:27Z</time>
      </trkpt>
      <trkpt lat="44.08006" lon="6.14281">
        <ele>992.4</ele>
        <time>2020-10-18T09:19:28Z</time>
      </trkpt>
      <trkpt lat="44.08005" lon="6.14285">
        <ele>992.4</ele>
        <time>2020-10-18T09:19:29Z</time>
      </trkpt>
      <trkpt lat="44.08005" lon="6.14289">
        <ele>992.6</ele>
        <time>2020-10-18T09:19:30Z</time>
      </trkpt>
      <trkpt lat="44.08004" lon="6.14292">
        <ele>992.6</ele>
        <time>2020-10-18T09:19:31Z</time>
      </trkpt>
      <trkpt lat="44.08004" lon="6.14296">
        <ele>992.4</ele>
        <time>2020-10-18T09:19:32Z</time>
      </trkpt>
      <trkpt lat="44.08003" lon="6.143">
        <ele>992.6</ele>
        <time>2020-10-18T09:19:33Z</time>
      </trkpt>
      <trkpt lat="44.08003" lon="6.14304">
        <ele>992.6</ele>
        <time>2020-10-18T09:19:34Z</time>
      </trkpt>
      <trkpt lat="44.08002" lon="6.14308">
        <ele>992.6</ele>
        <time>2020-10-18T09:19:35Z</time>
      </trkpt>
      <trkpt lat="44.08" lon="6.14317">
        <ele>992.6</ele>
        <time>2020-10-18T09:19:37Z</time>
      </trkpt>
      <trkpt lat="44.07999" lon="6.14321">
        <ele>992.6</ele>
        <time>2020-10-18T09:19:38Z</time>
      </trkpt>
      <trkpt lat="44.07998" lon="6.14326">
        <ele>992.6</ele>
        <time>2020-10-18T09:19:39Z</time>
      </trkpt>
      <trkpt lat="44.07997" lon="6.1433">
        <ele>992.4</ele>
        <time>2020-10-18T09:19:40Z</time>
      </trkpt>
      <trkpt lat="44.07996" lon="6.14335">
        <ele>992.4</ele>
        <time>2020-10-18T09:19:41Z</time>
      </trkpt>
      <trkpt lat="44.07996" lon="6.14347">
        <ele>992</ele>
        <time>2020-10-18T09:19:43Z</time>
      </trkpt>
      <trkpt lat="44.07996" lon="6.14353">
        <ele>991.8</ele>
        <time>2020-10-18T09:19:44Z</time>
      </trkpt>
      <trkpt lat="44.07996" lon="6.1436">
        <ele>991.6</ele>
        <time>2020-10-18T09:19:45Z</time>
      </trkpt>
      <trkpt lat="44.07996" lon="6.14374">
        <ele>991.6</ele>
        <time>2020-10-18T09:19:47Z</time>
      </trkpt>
      <trkpt lat="44.07996" lon="6.14381">
        <ele>991.2</ele>
        <time>2020-10-18T09:19:48Z</time>
      </trkpt>
      <trkpt lat="44.07995" lon="6.14388">
        <ele>991</ele>
        <time>2020-10-18T09:19:49Z</time>
      </trkpt>
      <trkpt lat="44.07995" lon="6.14396">
        <ele>990.6</ele>
        <time>2020-10-18T09:19:50Z</time>
      </trkpt>
      <trkpt lat="44.07995" lon="6.14403">
        <ele>990.4</ele>
        <time>2020-10-18T09:19:51Z</time>
      </trkpt>
      <trkpt lat="44.07994" lon="6.1441">
        <ele>990.2</ele>
        <time>2020-10-18T09:19:52Z</time>
      </trkpt>
      <trkpt lat="44.07994" lon="6.14417">
        <ele>989.6</ele>
        <time>2020-10-18T09:19:53Z</time>
      </trkpt>
      <trkpt lat="44.07994" lon="6.14424">
        <ele>989.2</ele>
        <time>2020-10-18T09:19:54Z</time>
      </trkpt>
      <trkpt lat="44.07994" lon="6.14431">
        <ele>989</ele>
        <time>2020-10-18T09:19:55Z</time>
      </trkpt>
      <trkpt lat="44.07995" lon="6.14438">
        <ele>988.4</ele>
        <time>2020-10-18T09:19:56Z</time>
      </trkpt>
      <trkpt lat="44.07995" lon="6.14444">
        <ele>988</ele>
        <time>2020-10-18T09:19:57Z</time>
      </trkpt>
      <trkpt lat="44.07996" lon="6.1445">
        <ele>987.8</ele>
        <time>2020-10-18T09:19:58Z</time>
      </trkpt>
      <trkpt lat="44.07995" lon="6.14454">
        <ele>986.4</ele>
        <time>2020-10-18T09:19:59Z</time>
      </trkpt>
      <trkpt lat="44.07995" lon="6.14458">
        <ele>985.6</ele>
        <time>2020-10-18T09:20:00Z</time>
      </trkpt>
      <trkpt lat="44.07994" lon="6.14461">
        <ele>984.6</ele>
        <time>2020-10-18T09:20:01Z</time>
      </trkpt>
      <trkpt lat="44.07994" lon="6.14464">
        <ele>983.8</ele>
        <time>2020-10-18T09:20:02Z</time>
      </trkpt>
      <trkpt lat="44.07993" lon="6.14466">
        <ele>983.2</ele>
        <time>2020-10-18T09:20:03Z</time>
      </trkpt>
      <trkpt lat="44.07993" lon="6.14467">
        <ele>982.6</ele>
        <time>2020-10-18T09:20:04Z</time>
      </trkpt>
      <trkpt lat="44.07992" lon="6.14469">
        <ele>982.2</ele>
        <time>2020-10-18T09:20:05Z</time>
      </trkpt>
      <trkpt lat="44.07992" lon="6.14471">
        <ele>981.6</ele>
        <time>2020-10-18T09:20:06Z</time>
      </trkpt>
      <trkpt lat="44.07992" lon="6.14472">
        <ele>981</ele>
        <time>2020-10-18T09:20:07Z</time>
      </trkpt>
      <trkpt lat="44.07992" lon="6.14473">
        <ele>981</ele>
        <time>2020-10-18T09:20:08Z</time>
      </trkpt>
      <trkpt lat="44.07991" lon="6.14475">
        <ele>980.4</ele>
        <time>2020-10-18T09:20:09Z</time>
      </trkpt>
      <trkpt lat="44.0799" lon="6.14476">
        <ele>980.2</ele>
        <time>2020-10-18T09:20:10Z</time>
      </trkpt>
      <trkpt lat="44.0799" lon="6.14478">
        <ele>980.2</ele>
        <time>2020-10-18T09:20:11Z</time>
      </trkpt>
      <trkpt lat="44.0799" lon="6.1448">
        <ele>979.8</ele>
        <time>2020-10-18T09:20:12Z</time>
      </trkpt>
      <trkpt lat="44.07989" lon="6.14482">
        <ele>979.4</ele>
        <time>2020-10-18T09:20:13Z</time>
      </trkpt>
      <trkpt lat="44.07989" lon="6.14484">
        <ele>978.8</ele>
        <time>2020-10-18T09:20:14Z</time>
      </trkpt>
      <trkpt lat="44.07988" lon="6.14486">
        <ele>978.2</ele>
        <time>2020-10-18T09:20:15Z</time>
      </trkpt>
      <trkpt lat="44.07987" lon="6.14489">
        <ele>977.8</ele>
        <time>2020-10-18T09:20:16Z</time>
      </trkpt>
      <trkpt lat="44.07985" lon="6.14492">
        <ele>977</ele>
        <time>2020-10-18T09:20:17Z</time>
      </trkpt>
      <trkpt lat="44.07984" lon="6.14495">
        <ele>976.6</ele>
        <time>2020-10-18T09:20:18Z</time>
      </trkpt>
      <trkpt lat="44.07983" lon="6.14497">
        <ele>976</ele>
        <time>2020-10-18T09:20:19Z</time>
      </trkpt>
      <trkpt lat="44.07981" lon="6.14499">
        <ele>975.4</ele>
        <time>2020-10-18T09:20:20Z</time>
      </trkpt>
      <trkpt lat="44.0798" lon="6.14501">
        <ele>974.6</ele>
        <time>2020-10-18T09:20:21Z</time>
      </trkpt>
      <trkpt lat="44.07979" lon="6.14503">
        <ele>973.8</ele>
        <time>2020-10-18T09:20:22Z</time>
      </trkpt>
      <trkpt lat="44.07979" lon="6.14506">
        <ele>973</ele>
        <time>2020-10-18T09:20:23Z</time>
      </trkpt>
      <trkpt lat="44.07977" lon="6.14509">
        <ele>972.2</ele>
        <time>2020-10-18T09:20:24Z</time>
      </trkpt>
      <trkpt lat="44.07975" lon="6.14512">
        <ele>970.6</ele>
        <time>2020-10-18T09:20:25Z</time>
      </trkpt>
      <trkpt lat="44.07973" lon="6.14516">
        <ele>970</ele>
        <time>2020-10-18T09:20:26Z</time>
      </trkpt>
      <trkpt lat="44.07971" lon="6.14521">
        <ele>968.8</ele>
        <time>2020-10-18T09:20:27Z</time>
      </trkpt>
      <trkpt lat="44.07968" lon="6.14526">
        <ele>968.8</ele>
        <time>2020-10-18T09:20:28Z</time>
      </trkpt>
      <trkpt lat="44.07965" lon="6.14533">
        <ele>968</ele>
        <time>2020-10-18T09:20:29Z</time>
      </trkpt>
      <trkpt lat="44.07963" lon="6.14539">
        <ele>967.2</ele>
        <time>2020-10-18T09:20:30Z</time>
      </trkpt>
      <trkpt lat="44.07961" lon="6.14546">
        <ele>966.6</ele>
        <time>2020-10-18T09:20:31Z</time>
      </trkpt>
      <trkpt lat="44.07957" lon="6.14562">
        <ele>965.4</ele>
        <time>2020-10-18T09:20:33Z</time>
      </trkpt>
      <trkpt lat="44.07956" lon="6.1457">
        <ele>964.2</ele>
        <time>2020-10-18T09:20:34Z</time>
      </trkpt>
      <trkpt lat="44.07956" lon="6.14577">
        <ele>963.2</ele>
        <time>2020-10-18T09:20:35Z</time>
      </trkpt>
      <trkpt lat="44.07954" lon="6.14593">
        <ele>961.8</ele>
        <time>2020-10-18T09:20:37Z</time>
      </trkpt>
      <trkpt lat="44.07952" lon="6.14609">
        <ele>960.8</ele>
        <time>2020-10-18T09:20:39Z</time>
      </trkpt>
      <trkpt lat="44.07951" lon="6.14617">
        <ele>959.4</ele>
        <time>2020-10-18T09:20:40Z</time>
      </trkpt>
      <trkpt lat="44.07951" lon="6.14624">
        <ele>958.2</ele>
        <time>2020-10-18T09:20:41Z</time>
      </trkpt>
      <trkpt lat="44.07951" lon="6.14631">
        <ele>957.6</ele>
        <time>2020-10-18T09:20:42Z</time>
      </trkpt>
      <trkpt lat="44.0795" lon="6.14638">
        <ele>957.2</ele>
        <time>2020-10-18T09:20:43Z</time>
      </trkpt>
      <trkpt lat="44.0795" lon="6.14645">
        <ele>956.8</ele>
        <time>2020-10-18T09:20:44Z</time>
      </trkpt>
      <trkpt lat="44.0795" lon="6.14653">
        <ele>956.6</ele>
        <time>2020-10-18T09:20:45Z</time>
      </trkpt>
      <trkpt lat="44.07949" lon="6.1466">
        <ele>956.4</ele>
        <time>2020-10-18T09:20:46Z</time>
      </trkpt>
      <trkpt lat="44.07949" lon="6.14667">
        <ele>956.2</ele>
        <time>2020-10-18T09:20:47Z</time>
      </trkpt>
      <trkpt lat="44.07948" lon="6.14675">
        <ele>955.8</ele>
        <time>2020-10-18T09:20:48Z</time>
      </trkpt>
      <trkpt lat="44.07948" lon="6.14683">
        <ele>955.8</ele>
        <time>2020-10-18T09:20:49Z</time>
      </trkpt>
      <trkpt lat="44.07947" lon="6.14692">
        <ele>955.6</ele>
        <time>2020-10-18T09:20:50Z</time>
      </trkpt>
      <trkpt lat="44.07945" lon="6.14701">
        <ele>955.2</ele>
        <time>2020-10-18T09:20:51Z</time>
      </trkpt>
      <trkpt lat="44.07944" lon="6.1471">
        <ele>955</ele>
        <time>2020-10-18T09:20:52Z</time>
      </trkpt>
      <trkpt lat="44.07942" lon="6.14718">
        <ele>954.6</ele>
        <time>2020-10-18T09:20:53Z</time>
      </trkpt>
      <trkpt lat="44.07941" lon="6.14726">
        <ele>954.2</ele>
        <time>2020-10-18T09:20:54Z</time>
      </trkpt>
      <trkpt lat="44.07941" lon="6.14734">
        <ele>953.8</ele>
        <time>2020-10-18T09:20:55Z</time>
      </trkpt>
      <trkpt lat="44.0794" lon="6.14742">
        <ele>953</ele>
        <time>2020-10-18T09:20:56Z</time>
      </trkpt>
      <trkpt lat="44.07939" lon="6.14749">
        <ele>952.4</ele>
        <time>2020-10-18T09:20:57Z</time>
      </trkpt>
      <trkpt lat="44.07937" lon="6.14756">
        <ele>951.4</ele>
        <time>2020-10-18T09:20:58Z</time>
      </trkpt>
      <trkpt lat="44.07935" lon="6.14763">
        <ele>950.4</ele>
        <time>2020-10-18T09:20:59Z</time>
      </trkpt>
      <trkpt lat="44.07933" lon="6.1477">
        <ele>950</ele>
        <time>2020-10-18T09:21:00Z</time>
      </trkpt>
      <trkpt lat="44.07931" lon="6.14776">
        <ele>949.2</ele>
        <time>2020-10-18T09:21:01Z</time>
      </trkpt>
      <trkpt lat="44.07931" lon="6.14783">
        <ele>948.6</ele>
        <time>2020-10-18T09:21:02Z</time>
      </trkpt>
      <trkpt lat="44.0793" lon="6.1479">
        <ele>948</ele>
        <time>2020-10-18T09:21:03Z</time>
      </trkpt>
      <trkpt lat="44.07929" lon="6.14797">
        <ele>947.6</ele>
        <time>2020-10-18T09:21:04Z</time>
      </trkpt>
      <trkpt lat="44.07928" lon="6.14803">
        <ele>947.2</ele>
        <time>2020-10-18T09:21:05Z</time>
      </trkpt>
      <trkpt lat="44.07926" lon="6.1481">
        <ele>947</ele>
        <time>2020-10-18T09:21:06Z</time>
      </trkpt>
      <trkpt lat="44.07925" lon="6.14815">
        <ele>946.8</ele>
        <time>2020-10-18T09:21:07Z</time>
      </trkpt>
      <trkpt lat="44.07923" lon="6.14821">
        <ele>946.6</ele>
        <time>2020-10-18T09:21:08Z</time>
      </trkpt>
      <trkpt lat="44.07922" lon="6.14827">
        <ele>946.6</ele>
        <time>2020-10-18T09:21:09Z</time>
      </trkpt>
      <trkpt lat="44.0792" lon="6.14839">
        <ele>946.6</ele>
        <time>2020-10-18T09:21:11Z</time>
      </trkpt>
      <trkpt lat="44.07919" lon="6.14844">
        <ele>946.2</ele>
        <time>2020-10-18T09:21:12Z</time>
      </trkpt>
      <trkpt lat="44.07918" lon="6.14849">
        <ele>946</ele>
        <time>2020-10-18T09:21:13Z</time>
      </trkpt>
      <trkpt lat="44.07917" lon="6.14854">
        <ele>946</ele>
        <time>2020-10-18T09:21:14Z</time>
      </trkpt>
      <trkpt lat="44.07916" lon="6.14858">
        <ele>946</ele>
        <time>2020-10-18T09:21:15Z</time>
      </trkpt>
      <trkpt lat="44.07915" lon="6.14863">
        <ele>946</ele>
        <time>2020-10-18T09:21:16Z</time>
      </trkpt>
      <trkpt lat="44.07914" lon="6.14867">
        <ele>946</ele>
        <time>2020-10-18T09:21:17Z</time>
      </trkpt>
      <trkpt lat="44.07913" lon="6.14872">
        <ele>946</ele>
        <time>2020-10-18T09:21:18Z</time>
      </trkpt>
      <trkpt lat="44.07912" lon="6.14876">
        <ele>946</ele>
        <time>2020-10-18T09:21:19Z</time>
      </trkpt>
      <trkpt lat="44.0791" lon="6.14881">
        <ele>946.2</ele>
        <time>2020-10-18T09:21:20Z</time>
      </trkpt>
      <trkpt lat="44.0791" lon="6.14885">
        <ele>946</ele>
        <time>2020-10-18T09:21:21Z</time>
      </trkpt>
      <trkpt lat="44.0791" lon="6.1489">
        <ele>946</ele>
        <time>2020-10-18T09:21:22Z</time>
      </trkpt>
      <trkpt lat="44.0791" lon="6.14896">
        <ele>945.8</ele>
        <time>2020-10-18T09:21:23Z</time>
      </trkpt>
      <trkpt lat="44.07911" lon="6.14902">
        <ele>946</ele>
        <time>2020-10-18T09:21:24Z</time>
      </trkpt>
      <trkpt lat="44.07911" lon="6.14907">
        <ele>946</ele>
        <time>2020-10-18T09:21:25Z</time>
      </trkpt>
      <trkpt lat="44.0791" lon="6.14919">
        <ele>945.6</ele>
        <time>2020-10-18T09:21:27Z</time>
      </trkpt>
      <trkpt lat="44.07911" lon="6.14925">
        <ele>945.6</ele>
        <time>2020-10-18T09:21:28Z</time>
      </trkpt>
      <trkpt lat="44.07911" lon="6.14931">
        <ele>945.6</ele>
        <time>2020-10-18T09:21:29Z</time>
      </trkpt>
      <trkpt lat="44.07915" lon="6.14944">
        <ele>945</ele>
        <time>2020-10-18T09:21:31Z</time>
      </trkpt>
      <trkpt lat="44.07916" lon="6.14951">
        <ele>944.6</ele>
        <time>2020-10-18T09:21:32Z</time>
      </trkpt>
      <trkpt lat="44.07919" lon="6.14958">
        <ele>944.4</ele>
        <time>2020-10-18T09:21:33Z</time>
      </trkpt>
      <trkpt lat="44.07922" lon="6.14965">
        <ele>944</ele>
        <time>2020-10-18T09:21:34Z</time>
      </trkpt>
      <trkpt lat="44.07924" lon="6.14971">
        <ele>942.4</ele>
        <time>2020-10-18T09:21:35Z</time>
      </trkpt>
      <trkpt lat="44.07927" lon="6.14978">
        <ele>941.2</ele>
        <time>2020-10-18T09:21:36Z</time>
      </trkpt>
      <trkpt lat="44.07928" lon="6.14985">
        <ele>940.6</ele>
        <time>2020-10-18T09:21:37Z</time>
      </trkpt>
      <trkpt lat="44.0793" lon="6.14991">
        <ele>939.8</ele>
        <time>2020-10-18T09:21:38Z</time>
      </trkpt>
      <trkpt lat="44.07932" lon="6.14998">
        <ele>939</ele>
        <time>2020-10-18T09:21:39Z</time>
      </trkpt>
      <trkpt lat="44.07934" lon="6.15004">
        <ele>938</ele>
        <time>2020-10-18T09:21:40Z</time>
      </trkpt>
      <trkpt lat="44.07935" lon="6.1501">
        <ele>936.4</ele>
        <time>2020-10-18T09:21:41Z</time>
      </trkpt>
      <trkpt lat="44.07937" lon="6.15016">
        <ele>935.4</ele>
        <time>2020-10-18T09:21:42Z</time>
      </trkpt>
      <trkpt lat="44.07939" lon="6.15023">
        <ele>934.4</ele>
        <time>2020-10-18T09:21:43Z</time>
      </trkpt>
      <trkpt lat="44.0794" lon="6.1503">
        <ele>932.4</ele>
        <time>2020-10-18T09:21:44Z</time>
      </trkpt>
      <trkpt lat="44.07942" lon="6.15035">
        <ele>930.4</ele>
        <time>2020-10-18T09:21:45Z</time>
      </trkpt>
      <trkpt lat="44.07943" lon="6.15041">
        <ele>929.4</ele>
        <time>2020-10-18T09:21:46Z</time>
      </trkpt>
      <trkpt lat="44.07944" lon="6.15048">
        <ele>927.4</ele>
        <time>2020-10-18T09:21:47Z</time>
      </trkpt>
      <trkpt lat="44.07944" lon="6.15054">
        <ele>925.6</ele>
        <time>2020-10-18T09:21:48Z</time>
      </trkpt>
      <trkpt lat="44.07945" lon="6.15061">
        <ele>924.4</ele>
        <time>2020-10-18T09:21:49Z</time>
      </trkpt>
      <trkpt lat="44.07947" lon="6.15073">
        <ele>923</ele>
        <time>2020-10-18T09:21:51Z</time>
      </trkpt>
      <trkpt lat="44.07948" lon="6.1508">
        <ele>922.4</ele>
        <time>2020-10-18T09:21:52Z</time>
      </trkpt>
      <trkpt lat="44.07949" lon="6.15088">
        <ele>921.8</ele>
        <time>2020-10-18T09:21:53Z</time>
      </trkpt>
      <trkpt lat="44.0795" lon="6.15096">
        <ele>920.8</ele>
        <time>2020-10-18T09:21:54Z</time>
      </trkpt>
      <trkpt lat="44.07952" lon="6.15104">
        <ele>919.4</ele>
        <time>2020-10-18T09:21:55Z</time>
      </trkpt>
      <trkpt lat="44.07953" lon="6.15112">
        <ele>918.6</ele>
        <time>2020-10-18T09:21:56Z</time>
      </trkpt>
      <trkpt lat="44.07955" lon="6.1512">
        <ele>917</ele>
        <time>2020-10-18T09:21:57Z</time>
      </trkpt>
      <trkpt lat="44.07956" lon="6.15128">
        <ele>915.8</ele>
        <time>2020-10-18T09:21:58Z</time>
      </trkpt>
      <trkpt lat="44.07956" lon="6.15136">
        <ele>915</ele>
        <time>2020-10-18T09:21:59Z</time>
      </trkpt>
      <trkpt lat="44.07956" lon="6.15145">
        <ele>913.6</ele>
        <time>2020-10-18T09:22:00Z</time>
      </trkpt>
      <trkpt lat="44.07956" lon="6.15154">
        <ele>912.4</ele>
        <time>2020-10-18T09:22:01Z</time>
      </trkpt>
      <trkpt lat="44.07957" lon="6.15164">
        <ele>911.2</ele>
        <time>2020-10-18T09:22:02Z</time>
      </trkpt>
      <trkpt lat="44.07958" lon="6.15174">
        <ele>909.8</ele>
        <time>2020-10-18T09:22:03Z</time>
      </trkpt>
      <trkpt lat="44.07958" lon="6.15184">
        <ele>908.6</ele>
        <time>2020-10-18T09:22:04Z</time>
      </trkpt>
      <trkpt lat="44.07958" lon="6.15194">
        <ele>907.8</ele>
        <time>2020-10-18T09:22:05Z</time>
      </trkpt>
      <trkpt lat="44.07958" lon="6.15203">
        <ele>907.2</ele>
        <time>2020-10-18T09:22:06Z</time>
      </trkpt>
      <trkpt lat="44.07958" lon="6.15211">
        <ele>906.4</ele>
        <time>2020-10-18T09:22:07Z</time>
      </trkpt>
      <trkpt lat="44.07957" lon="6.15228">
        <ele>903.8</ele>
        <time>2020-10-18T09:22:09Z</time>
      </trkpt>
      <trkpt lat="44.07957" lon="6.15236">
        <ele>903.8</ele>
        <time>2020-10-18T09:22:10Z</time>
      </trkpt>
      <trkpt lat="44.07957" lon="6.15245">
        <ele>903.2</ele>
        <time>2020-10-18T09:22:11Z</time>
      </trkpt>
      <trkpt lat="44.07958" lon="6.15253">
        <ele>902.6</ele>
        <time>2020-10-18T09:22:12Z</time>
      </trkpt>
      <trkpt lat="44.07958" lon="6.15259">
        <ele>902.4</ele>
        <time>2020-10-18T09:22:13Z</time>
      </trkpt>
      <trkpt lat="44.07958" lon="6.15265">
        <ele>901.4</ele>
        <time>2020-10-18T09:22:14Z</time>
      </trkpt>
      <trkpt lat="44.07959" lon="6.1527">
        <ele>901</ele>
        <time>2020-10-18T09:22:15Z</time>
      </trkpt>
      <trkpt lat="44.07959" lon="6.15276">
        <ele>900</ele>
        <time>2020-10-18T09:22:16Z</time>
      </trkpt>
      <trkpt lat="44.0796" lon="6.15282">
        <ele>899.4</ele>
        <time>2020-10-18T09:22:17Z</time>
      </trkpt>
      <trkpt lat="44.07962" lon="6.15292">
        <ele>898</ele>
        <time>2020-10-18T09:22:19Z</time>
      </trkpt>
      <trkpt lat="44.07964" lon="6.15297">
        <ele>897.4</ele>
        <time>2020-10-18T09:22:20Z</time>
      </trkpt>
      <trkpt lat="44.07965" lon="6.15302">
        <ele>897.2</ele>
        <time>2020-10-18T09:22:21Z</time>
      </trkpt>
      <trkpt lat="44.07966" lon="6.15306">
        <ele>896.2</ele>
        <time>2020-10-18T09:22:22Z</time>
      </trkpt>
      <trkpt lat="44.07966" lon="6.15311">
        <ele>895.6</ele>
        <time>2020-10-18T09:22:23Z</time>
      </trkpt>
      <trkpt lat="44.07967" lon="6.15315">
        <ele>894.4</ele>
        <time>2020-10-18T09:22:24Z</time>
      </trkpt>
      <trkpt lat="44.07968" lon="6.1532">
        <ele>893.6</ele>
        <time>2020-10-18T09:22:25Z</time>
      </trkpt>
      <trkpt lat="44.07968" lon="6.15324">
        <ele>893</ele>
        <time>2020-10-18T09:22:26Z</time>
      </trkpt>
      <trkpt lat="44.07968" lon="6.15329">
        <ele>892.4</ele>
        <time>2020-10-18T09:22:27Z</time>
      </trkpt>
      <trkpt lat="44.0797" lon="6.15338">
        <ele>891.2</ele>
        <time>2020-10-18T09:22:29Z</time>
      </trkpt>
      <trkpt lat="44.07971" lon="6.15347">
        <ele>890.4</ele>
        <time>2020-10-18T09:22:31Z</time>
      </trkpt>
      <trkpt lat="44.07973" lon="6.15351">
        <ele>889.2</ele>
        <time>2020-10-18T09:22:32Z</time>
      </trkpt>
      <trkpt lat="44.07975" lon="6.15356">
        <ele>888.8</ele>
        <time>2020-10-18T09:22:33Z</time>
      </trkpt>
      <trkpt lat="44.0798" lon="6.15364">
        <ele>888</ele>
        <time>2020-10-18T09:22:35Z</time>
      </trkpt>
      <trkpt lat="44.07986" lon="6.15371">
        <ele>886</ele>
        <time>2020-10-18T09:22:37Z</time>
      </trkpt>
      <trkpt lat="44.07988" lon="6.15375">
        <ele>885.2</ele>
        <time>2020-10-18T09:22:38Z</time>
      </trkpt>
      <trkpt lat="44.07988" lon="6.15379">
        <ele>884.2</ele>
        <time>2020-10-18T09:22:39Z</time>
      </trkpt>
      <trkpt lat="44.07988" lon="6.15382">
        <ele>883.2</ele>
        <time>2020-10-18T09:22:40Z</time>
      </trkpt>
      <trkpt lat="44.07987" lon="6.15384">
        <ele>882.8</ele>
        <time>2020-10-18T09:22:41Z</time>
      </trkpt>
      <trkpt lat="44.07985" lon="6.15385">
        <ele>882.2</ele>
        <time>2020-10-18T09:22:42Z</time>
      </trkpt>
      <trkpt lat="44.07984" lon="6.15387">
        <ele>881.8</ele>
        <time>2020-10-18T09:22:43Z</time>
      </trkpt>
      <trkpt lat="44.0798" lon="6.1539">
        <ele>880.2</ele>
        <time>2020-10-18T09:22:45Z</time>
      </trkpt>
      <trkpt lat="44.07978" lon="6.15391">
        <ele>879.8</ele>
        <time>2020-10-18T09:22:46Z</time>
      </trkpt>
      <trkpt lat="44.07975" lon="6.15393">
        <ele>879</ele>
        <time>2020-10-18T09:22:47Z</time>
      </trkpt>
      <trkpt lat="44.07973" lon="6.15395">
        <ele>878.6</ele>
        <time>2020-10-18T09:22:48Z</time>
      </trkpt>
      <trkpt lat="44.07971" lon="6.15397">
        <ele>878.4</ele>
        <time>2020-10-18T09:22:49Z</time>
      </trkpt>
      <trkpt lat="44.07966" lon="6.15398">
        <ele>878.2</ele>
        <time>2020-10-18T09:22:51Z</time>
      </trkpt>
      <trkpt lat="44.07963" lon="6.15399">
        <ele>878.2</ele>
        <time>2020-10-18T09:22:52Z</time>
      </trkpt>
      <trkpt lat="44.07961" lon="6.154">
        <ele>878.2</ele>
        <time>2020-10-18T09:22:53Z</time>
      </trkpt>
      <trkpt lat="44.0796" lon="6.15401">
        <ele>878</ele>
        <time>2020-10-18T09:22:54Z</time>
      </trkpt>
      <trkpt lat="44.07959" lon="6.15403">
        <ele>877.8</ele>
        <time>2020-10-18T09:22:55Z</time>
      </trkpt>
      <trkpt lat="44.07959" lon="6.15405">
        <ele>877.4</ele>
        <time>2020-10-18T09:22:56Z</time>
      </trkpt>
      <trkpt lat="44.07959" lon="6.15409">
        <ele>876.6</ele>
        <time>2020-10-18T09:22:57Z</time>
      </trkpt>
      <trkpt lat="44.07956" lon="6.15421">
        <ele>875.2</ele>
        <time>2020-10-18T09:22:59Z</time>
      </trkpt>
      <trkpt lat="44.07955" lon="6.15428">
        <ele>874.6</ele>
        <time>2020-10-18T09:23:00Z</time>
      </trkpt>
      <trkpt lat="44.07953" lon="6.15436">
        <ele>874</ele>
        <time>2020-10-18T09:23:01Z</time>
      </trkpt>
      <trkpt lat="44.07953" lon="6.15443">
        <ele>873.2</ele>
        <time>2020-10-18T09:23:02Z</time>
      </trkpt>
      <trkpt lat="44.07954" lon="6.1545">
        <ele>872.4</ele>
        <time>2020-10-18T09:23:03Z</time>
      </trkpt>
      <trkpt lat="44.07956" lon="6.15457">
        <ele>871.6</ele>
        <time>2020-10-18T09:23:04Z</time>
      </trkpt>
      <trkpt lat="44.07957" lon="6.15463">
        <ele>870.8</ele>
        <time>2020-10-18T09:23:05Z</time>
      </trkpt>
      <trkpt lat="44.07959" lon="6.1547">
        <ele>869.4</ele>
        <time>2020-10-18T09:23:06Z</time>
      </trkpt>
      <trkpt lat="44.0796" lon="6.15477">
        <ele>868.4</ele>
        <time>2020-10-18T09:23:07Z</time>
      </trkpt>
      <trkpt lat="44.07962" lon="6.15493">
        <ele>865.6</ele>
        <time>2020-10-18T09:23:09Z</time>
      </trkpt>
      <trkpt lat="44.07963" lon="6.15502">
        <ele>864.4</ele>
        <time>2020-10-18T09:23:10Z</time>
      </trkpt>
      <trkpt lat="44.07964" lon="6.1551">
        <ele>864.4</ele>
        <time>2020-10-18T09:23:11Z</time>
      </trkpt>
      <trkpt lat="44.07964" lon="6.15519">
        <ele>863.6</ele>
        <time>2020-10-18T09:23:12Z</time>
      </trkpt>
      <trkpt lat="44.07965" lon="6.15527">
        <ele>862.8</ele>
        <time>2020-10-18T09:23:13Z</time>
      </trkpt>
      <trkpt lat="44.07966" lon="6.15533">
        <ele>862.4</ele>
        <time>2020-10-18T09:23:14Z</time>
      </trkpt>
      <trkpt lat="44.07967" lon="6.15539">
        <ele>862.2</ele>
        <time>2020-10-18T09:23:15Z</time>
      </trkpt>
      <trkpt lat="44.07967" lon="6.15545">
        <ele>862</ele>
        <time>2020-10-18T09:23:16Z</time>
      </trkpt>
      <trkpt lat="44.07967" lon="6.15552">
        <ele>861.8</ele>
        <time>2020-10-18T09:23:17Z</time>
      </trkpt>
      <trkpt lat="44.07966" lon="6.15558">
        <ele>861.8</ele>
        <time>2020-10-18T09:23:18Z</time>
      </trkpt>
      <trkpt lat="44.07965" lon="6.15565">
        <ele>861.2</ele>
        <time>2020-10-18T09:23:19Z</time>
      </trkpt>
      <trkpt lat="44.07964" lon="6.15573">
        <ele>861</ele>
        <time>2020-10-18T09:23:20Z</time>
      </trkpt>
      <trkpt lat="44.07962" lon="6.15581">
        <ele>860.8</ele>
        <time>2020-10-18T09:23:21Z</time>
      </trkpt>
      <trkpt lat="44.07961" lon="6.15589">
        <ele>860.6</ele>
        <time>2020-10-18T09:23:22Z</time>
      </trkpt>
      <trkpt lat="44.0796" lon="6.15596">
        <ele>860.6</ele>
        <time>2020-10-18T09:23:23Z</time>
      </trkpt>
      <trkpt lat="44.07959" lon="6.15602">
        <ele>860.4</ele>
        <time>2020-10-18T09:23:24Z</time>
      </trkpt>
      <trkpt lat="44.07957" lon="6.15608">
        <ele>860.4</ele>
        <time>2020-10-18T09:23:25Z</time>
      </trkpt>
      <trkpt lat="44.07955" lon="6.15614">
        <ele>860.4</ele>
        <time>2020-10-18T09:23:26Z</time>
      </trkpt>
      <trkpt lat="44.07953" lon="6.15619">
        <ele>860.4</ele>
        <time>2020-10-18T09:23:27Z</time>
      </trkpt>
      <trkpt lat="44.07952" lon="6.15624">
        <ele>860.4</ele>
        <time>2020-10-18T09:23:28Z</time>
      </trkpt>
      <trkpt lat="44.07949" lon="6.1563">
        <ele>860.6</ele>
        <time>2020-10-18T09:23:29Z</time>
      </trkpt>
      <trkpt lat="44.07945" lon="6.15641">
        <ele>860.4</ele>
        <time>2020-10-18T09:23:31Z</time>
      </trkpt>
      <trkpt lat="44.07943" lon="6.15652">
        <ele>860.6</ele>
        <time>2020-10-18T09:23:33Z</time>
      </trkpt>
      <trkpt lat="44.07942" lon="6.15657">
        <ele>860.6</ele>
        <time>2020-10-18T09:23:34Z</time>
      </trkpt>
      <trkpt lat="44.07941" lon="6.15662">
        <ele>860.8</ele>
        <time>2020-10-18T09:23:35Z</time>
      </trkpt>
      <trkpt lat="44.07942" lon="6.15665">
        <ele>861</ele>
        <time>2020-10-18T09:23:36Z</time>
      </trkpt>
      <trkpt lat="44.07942" lon="6.15669">
        <ele>861</ele>
        <time>2020-10-18T09:23:37Z</time>
      </trkpt>
      <trkpt lat="44.07941" lon="6.15672">
        <ele>861.2</ele>
        <time>2020-10-18T09:23:38Z</time>
      </trkpt>
      <trkpt lat="44.07941" lon="6.15677">
        <ele>861.4</ele>
        <time>2020-10-18T09:23:39Z</time>
      </trkpt>
      <trkpt lat="44.07937" lon="6.15687">
        <ele>861.6</ele>
        <time>2020-10-18T09:23:41Z</time>
      </trkpt>
      <trkpt lat="44.07936" lon="6.15692">
        <ele>861.6</ele>
        <time>2020-10-18T09:23:42Z</time>
      </trkpt>
      <trkpt lat="44.07935" lon="6.15697">
        <ele>862</ele>
        <time>2020-10-18T09:23:43Z</time>
      </trkpt>
      <trkpt lat="44.07932" lon="6.15709">
        <ele>862</ele>
        <time>2020-10-18T09:23:45Z</time>
      </trkpt>
      <trkpt lat="44.0793" lon="6.15713">
        <ele>862</ele>
        <time>2020-10-18T09:23:46Z</time>
      </trkpt>
      <trkpt lat="44.07927" lon="6.15717">
        <ele>861.8</ele>
        <time>2020-10-18T09:23:47Z</time>
      </trkpt>
      <trkpt lat="44.07923" lon="6.15718">
        <ele>861.6</ele>
        <time>2020-10-18T09:23:48Z</time>
      </trkpt>
      <trkpt lat="44.07919" lon="6.15719">
        <ele>861.6</ele>
        <time>2020-10-18T09:23:49Z</time>
      </trkpt>
      <trkpt lat="44.07914" lon="6.1572">
        <ele>861.4</ele>
        <time>2020-10-18T09:23:50Z</time>
      </trkpt>
      <trkpt lat="44.07909" lon="6.1572">
        <ele>861.4</ele>
        <time>2020-10-18T09:23:51Z</time>
      </trkpt>
      <trkpt lat="44.07905" lon="6.15721">
        <ele>861.4</ele>
        <time>2020-10-18T09:23:52Z</time>
      </trkpt>
      <trkpt lat="44.07901" lon="6.15721">
        <ele>861.4</ele>
        <time>2020-10-18T09:23:53Z</time>
      </trkpt>
      <trkpt lat="44.07898" lon="6.15722">
        <ele>861.2</ele>
        <time>2020-10-18T09:23:54Z</time>
      </trkpt>
      <trkpt lat="44.07895" lon="6.15724">
        <ele>861</ele>
        <time>2020-10-18T09:23:55Z</time>
      </trkpt>
      <trkpt lat="44.07893" lon="6.15726">
        <ele>860.8</ele>
        <time>2020-10-18T09:23:56Z</time>
      </trkpt>
      <trkpt lat="44.0789" lon="6.15728">
        <ele>860.4</ele>
        <time>2020-10-18T09:23:57Z</time>
      </trkpt>
      <trkpt lat="44.07888" lon="6.15731">
        <ele>859.6</ele>
        <time>2020-10-18T09:23:58Z</time>
      </trkpt>
      <trkpt lat="44.07886" lon="6.15732">
        <ele>858.8</ele>
        <time>2020-10-18T09:23:59Z</time>
      </trkpt>
      <trkpt lat="44.07884" lon="6.15732">
        <ele>857.8</ele>
        <time>2020-10-18T09:24:00Z</time>
      </trkpt>
      <trkpt lat="44.07882" lon="6.15733">
        <ele>857.6</ele>
        <time>2020-10-18T09:24:01Z</time>
      </trkpt>
      <trkpt lat="44.0788" lon="6.15735">
        <ele>857.2</ele>
        <time>2020-10-18T09:24:02Z</time>
      </trkpt>
      <trkpt lat="44.07877" lon="6.15737">
        <ele>856</ele>
        <time>2020-10-18T09:24:03Z</time>
      </trkpt>
      <trkpt lat="44.0787" lon="6.15743">
        <ele>854.6</ele>
        <time>2020-10-18T09:24:05Z</time>
      </trkpt>
      <trkpt lat="44.07866" lon="6.15746">
        <ele>854</ele>
        <time>2020-10-18T09:24:06Z</time>
      </trkpt>
      <trkpt lat="44.07863" lon="6.15748">
        <ele>853</ele>
        <time>2020-10-18T09:24:07Z</time>
      </trkpt>
      <trkpt lat="44.07861" lon="6.15751">
        <ele>852.6</ele>
        <time>2020-10-18T09:24:08Z</time>
      </trkpt>
      <trkpt lat="44.07859" lon="6.15755">
        <ele>852</ele>
        <time>2020-10-18T09:24:09Z</time>
      </trkpt>
      <trkpt lat="44.07858" lon="6.15758">
        <ele>851.2</ele>
        <time>2020-10-18T09:24:10Z</time>
      </trkpt>
      <trkpt lat="44.07859" lon="6.1576">
        <ele>851.2</ele>
        <time>2020-10-18T09:24:11Z</time>
      </trkpt>
      <trkpt lat="44.07859" lon="6.15763">
        <ele>849.8</ele>
        <time>2020-10-18T09:24:12Z</time>
      </trkpt>
      <trkpt lat="44.07859" lon="6.15765">
        <ele>848.8</ele>
        <time>2020-10-18T09:24:13Z</time>
      </trkpt>
      <trkpt lat="44.07859" lon="6.15768">
        <ele>848</ele>
        <time>2020-10-18T09:24:14Z</time>
      </trkpt>
      <trkpt lat="44.0786" lon="6.1577">
        <ele>846.8</ele>
        <time>2020-10-18T09:24:15Z</time>
      </trkpt>
      <trkpt lat="44.07861" lon="6.15774">
        <ele>846</ele>
        <time>2020-10-18T09:24:16Z</time>
      </trkpt>
      <trkpt lat="44.07863" lon="6.15779">
        <ele>845.6</ele>
        <time>2020-10-18T09:24:17Z</time>
      </trkpt>
      <trkpt lat="44.07865" lon="6.1579">
        <ele>844.6</ele>
        <time>2020-10-18T09:24:19Z</time>
      </trkpt>
      <trkpt lat="44.07866" lon="6.15794">
        <ele>844</ele>
        <time>2020-10-18T09:24:20Z</time>
      </trkpt>
      <trkpt lat="44.07865" lon="6.15798">
        <ele>843.8</ele>
        <time>2020-10-18T09:24:21Z</time>
      </trkpt>
      <trkpt lat="44.07864" lon="6.15802">
        <ele>843</ele>
        <time>2020-10-18T09:24:22Z</time>
      </trkpt>
      <trkpt lat="44.07862" lon="6.15807">
        <ele>842.8</ele>
        <time>2020-10-18T09:24:23Z</time>
      </trkpt>
      <trkpt lat="44.07862" lon="6.15809">
        <ele>842</ele>
        <time>2020-10-18T09:24:24Z</time>
      </trkpt>
      <trkpt lat="44.07863" lon="6.15811">
        <ele>841.4</ele>
        <time>2020-10-18T09:24:25Z</time>
      </trkpt>
      <trkpt lat="44.07864" lon="6.15813">
        <ele>839.8</ele>
        <time>2020-10-18T09:24:26Z</time>
      </trkpt>
      <trkpt lat="44.07865" lon="6.15816">
        <ele>838.8</ele>
        <time>2020-10-18T09:24:27Z</time>
      </trkpt>
      <trkpt lat="44.07866" lon="6.15819">
        <ele>838.2</ele>
        <time>2020-10-18T09:24:28Z</time>
      </trkpt>
      <trkpt lat="44.07867" lon="6.15822">
        <ele>837.6</ele>
        <time>2020-10-18T09:24:29Z</time>
      </trkpt>
      <trkpt lat="44.07867" lon="6.15825">
        <ele>837</ele>
        <time>2020-10-18T09:24:30Z</time>
      </trkpt>
      <trkpt lat="44.07867" lon="6.15828">
        <ele>837</ele>
        <time>2020-10-18T09:24:31Z</time>
      </trkpt>
      <trkpt lat="44.07866" lon="6.15832">
        <ele>836</ele>
        <time>2020-10-18T09:24:32Z</time>
      </trkpt>
      <trkpt lat="44.07865" lon="6.15836">
        <ele>835.4</ele>
        <time>2020-10-18T09:24:33Z</time>
      </trkpt>
      <trkpt lat="44.07865" lon="6.1584">
        <ele>834.8</ele>
        <time>2020-10-18T09:24:34Z</time>
      </trkpt>
      <trkpt lat="44.07865" lon="6.15843">
        <ele>834.6</ele>
        <time>2020-10-18T09:24:35Z</time>
      </trkpt>
      <trkpt lat="44.07867" lon="6.15847">
        <ele>834.2</ele>
        <time>2020-10-18T09:24:36Z</time>
      </trkpt>
      <trkpt lat="44.0787" lon="6.15851">
        <ele>833.2</ele>
        <time>2020-10-18T09:24:37Z</time>
      </trkpt>
      <trkpt lat="44.07873" lon="6.15855">
        <ele>832.4</ele>
        <time>2020-10-18T09:24:38Z</time>
      </trkpt>
      <trkpt lat="44.07874" lon="6.1586">
        <ele>831.6</ele>
        <time>2020-10-18T09:24:39Z</time>
      </trkpt>
      <trkpt lat="44.07875" lon="6.15865">
        <ele>830.6</ele>
        <time>2020-10-18T09:24:40Z</time>
      </trkpt>
      <trkpt lat="44.07876" lon="6.1587">
        <ele>830</ele>
        <time>2020-10-18T09:24:41Z</time>
      </trkpt>
      <trkpt lat="44.07876" lon="6.15874">
        <ele>829.6</ele>
        <time>2020-10-18T09:24:42Z</time>
      </trkpt>
      <trkpt lat="44.07876" lon="6.15876">
        <ele>828.8</ele>
        <time>2020-10-18T09:24:43Z</time>
      </trkpt>
      <trkpt lat="44.07876" lon="6.15877">
        <ele>828.2</ele>
        <time>2020-10-18T09:24:44Z</time>
      </trkpt>
      <trkpt lat="44.07875" lon="6.15879">
        <ele>827.4</ele>
        <time>2020-10-18T09:24:45Z</time>
      </trkpt>
      <trkpt lat="44.07874" lon="6.15879">
        <ele>826.4</ele>
        <time>2020-10-18T09:24:46Z</time>
      </trkpt>
      <trkpt lat="44.07873" lon="6.1588">
        <ele>825.2</ele>
        <time>2020-10-18T09:24:47Z</time>
      </trkpt>
      <trkpt lat="44.07871" lon="6.1588">
        <ele>823.8</ele>
        <time>2020-10-18T09:24:48Z</time>
      </trkpt>
      <trkpt lat="44.07868" lon="6.15881">
        <ele>823</ele>
        <time>2020-10-18T09:24:49Z</time>
      </trkpt>
      <trkpt lat="44.07867" lon="6.15883">
        <ele>821.6</ele>
        <time>2020-10-18T09:24:50Z</time>
      </trkpt>
      <trkpt lat="44.07866" lon="6.15885">
        <ele>821.6</ele>
        <time>2020-10-18T09:24:51Z</time>
      </trkpt>
      <trkpt lat="44.07866" lon="6.15887">
        <ele>820.8</ele>
        <time>2020-10-18T09:24:52Z</time>
      </trkpt>
      <trkpt lat="44.07866" lon="6.15889">
        <ele>820</ele>
        <time>2020-10-18T09:24:53Z</time>
      </trkpt>
      <trkpt lat="44.07866" lon="6.15892">
        <ele>819.6</ele>
        <time>2020-10-18T09:24:54Z</time>
      </trkpt>
      <trkpt lat="44.07866" lon="6.15895">
        <ele>819.4</ele>
        <time>2020-10-18T09:24:55Z</time>
      </trkpt>
      <trkpt lat="44.07866" lon="6.15898">
        <ele>818.8</ele>
        <time>2020-10-18T09:24:56Z</time>
      </trkpt>
      <trkpt lat="44.07865" lon="6.15901">
        <ele>818.2</ele>
        <time>2020-10-18T09:24:57Z</time>
      </trkpt>
      <trkpt lat="44.07864" lon="6.15905">
        <ele>817.4</ele>
        <time>2020-10-18T09:24:58Z</time>
      </trkpt>
      <trkpt lat="44.07863" lon="6.15909">
        <ele>816.8</ele>
        <time>2020-10-18T09:24:59Z</time>
      </trkpt>
      <trkpt lat="44.07863" lon="6.15912">
        <ele>816.4</ele>
        <time>2020-10-18T09:25:00Z</time>
      </trkpt>
      <trkpt lat="44.07863" lon="6.15915">
        <ele>816</ele>
        <time>2020-10-18T09:25:01Z</time>
      </trkpt>
      <trkpt lat="44.07862" lon="6.15916">
        <ele>815.4</ele>
        <time>2020-10-18T09:25:02Z</time>
      </trkpt>
      <trkpt lat="44.07863" lon="6.15917">
        <ele>814.4</ele>
        <time>2020-10-18T09:25:03Z</time>
      </trkpt>
      <trkpt lat="44.07864" lon="6.15917">
        <ele>813.6</ele>
        <time>2020-10-18T09:25:05Z</time>
      </trkpt>
      <trkpt lat="44.07867" lon="6.15917">
        <ele>811.6</ele>
        <time>2020-10-18T09:25:07Z</time>
      </trkpt>
      <trkpt lat="44.07869" lon="6.15917">
        <ele>811</ele>
        <time>2020-10-18T09:25:09Z</time>
      </trkpt>
      <trkpt lat="44.0787" lon="6.15918">
        <ele>810.6</ele>
        <time>2020-10-18T09:25:10Z</time>
      </trkpt>
      <trkpt lat="44.0787" lon="6.1592">
        <ele>810.6</ele>
        <time>2020-10-18T09:25:11Z</time>
      </trkpt>
      <trkpt lat="44.0787" lon="6.15929">
        <ele>810.4</ele>
        <time>2020-10-18T09:25:13Z</time>
      </trkpt>
      <trkpt lat="44.07871" lon="6.15935">
        <ele>810</ele>
        <time>2020-10-18T09:25:15Z</time>
      </trkpt>
      <trkpt lat="44.07871" lon="6.15936">
        <ele>809.4</ele>
        <time>2020-10-18T09:25:16Z</time>
      </trkpt>
      <trkpt lat="44.07871" lon="6.15938">
        <ele>808.6</ele>
        <time>2020-10-18T09:25:17Z</time>
      </trkpt>
      <trkpt lat="44.07873" lon="6.15938">
        <ele>808.2</ele>
        <time>2020-10-18T09:25:18Z</time>
      </trkpt>
      <trkpt lat="44.07874" lon="6.15939">
        <ele>807.8</ele>
        <time>2020-10-18T09:25:19Z</time>
      </trkpt>
      <trkpt lat="44.07876" lon="6.1594">
        <ele>807.2</ele>
        <time>2020-10-18T09:25:20Z</time>
      </trkpt>
      <trkpt lat="44.07878" lon="6.15941">
        <ele>806.4</ele>
        <time>2020-10-18T09:25:21Z</time>
      </trkpt>
      <trkpt lat="44.0788" lon="6.15943">
        <ele>805.4</ele>
        <time>2020-10-18T09:25:22Z</time>
      </trkpt>
      <trkpt lat="44.07882" lon="6.15943">
        <ele>804.6</ele>
        <time>2020-10-18T09:25:23Z</time>
      </trkpt>
      <trkpt lat="44.07884" lon="6.15944">
        <ele>803.8</ele>
        <time>2020-10-18T09:25:24Z</time>
      </trkpt>
      <trkpt lat="44.07886" lon="6.15946">
        <ele>803</ele>
        <time>2020-10-18T09:25:25Z</time>
      </trkpt>
      <trkpt lat="44.07886" lon="6.15949">
        <ele>802.4</ele>
        <time>2020-10-18T09:25:26Z</time>
      </trkpt>
      <trkpt lat="44.07885" lon="6.15952">
        <ele>801.4</ele>
        <time>2020-10-18T09:25:27Z</time>
      </trkpt>
      <trkpt lat="44.07884" lon="6.15955">
        <ele>800.2</ele>
        <time>2020-10-18T09:25:28Z</time>
      </trkpt>
      <trkpt lat="44.07884" lon="6.15957">
        <ele>799.6</ele>
        <time>2020-10-18T09:25:29Z</time>
      </trkpt>
      <trkpt lat="44.07884" lon="6.15961">
        <ele>798.6</ele>
        <time>2020-10-18T09:25:30Z</time>
      </trkpt>
      <trkpt lat="44.07885" lon="6.15964">
        <ele>798.6</ele>
        <time>2020-10-18T09:25:31Z</time>
      </trkpt>
      <trkpt lat="44.07886" lon="6.15968">
        <ele>797.4</ele>
        <time>2020-10-18T09:25:32Z</time>
      </trkpt>
      <trkpt lat="44.07887" lon="6.15972">
        <ele>796.2</ele>
        <time>2020-10-18T09:25:33Z</time>
      </trkpt>
      <trkpt lat="44.07887" lon="6.15975">
        <ele>795.2</ele>
        <time>2020-10-18T09:25:34Z</time>
      </trkpt>
      <trkpt lat="44.07887" lon="6.15978">
        <ele>794.2</ele>
        <time>2020-10-18T09:25:35Z</time>
      </trkpt>
      <trkpt lat="44.07887" lon="6.15982">
        <ele>793.2</ele>
        <time>2020-10-18T09:25:36Z</time>
      </trkpt>
      <trkpt lat="44.07886" lon="6.15987">
        <ele>792.6</ele>
        <time>2020-10-18T09:25:37Z</time>
      </trkpt>
      <trkpt lat="44.07886" lon="6.15991">
        <ele>792.2</ele>
        <time>2020-10-18T09:25:38Z</time>
      </trkpt>
      <trkpt lat="44.07888" lon="6.15993">
        <ele>791.4</ele>
        <time>2020-10-18T09:25:39Z</time>
      </trkpt>
      <trkpt lat="44.0789" lon="6.15994">
        <ele>791</ele>
        <time>2020-10-18T09:25:40Z</time>
      </trkpt>
      <trkpt lat="44.07893" lon="6.15996">
        <ele>790.6</ele>
        <time>2020-10-18T09:25:41Z</time>
      </trkpt>
      <trkpt lat="44.07896" lon="6.15999">
        <ele>789.8</ele>
        <time>2020-10-18T09:25:42Z</time>
      </trkpt>
      <trkpt lat="44.07898" lon="6.16002">
        <ele>789</ele>
        <time>2020-10-18T09:25:43Z</time>
      </trkpt>
      <trkpt lat="44.079" lon="6.16006">
        <ele>788.2</ele>
        <time>2020-10-18T09:25:44Z</time>
      </trkpt>
      <trkpt lat="44.07901" lon="6.16008">
        <ele>787.2</ele>
        <time>2020-10-18T09:25:45Z</time>
      </trkpt>
      <trkpt lat="44.07902" lon="6.16012">
        <ele>786.4</ele>
        <time>2020-10-18T09:25:46Z</time>
      </trkpt>
      <trkpt lat="44.07902" lon="6.16015">
        <ele>786</ele>
        <time>2020-10-18T09:25:47Z</time>
      </trkpt>
      <trkpt lat="44.07902" lon="6.1602">
        <ele>785.2</ele>
        <time>2020-10-18T09:25:48Z</time>
      </trkpt>
      <trkpt lat="44.07902" lon="6.16023">
        <ele>784.6</ele>
        <time>2020-10-18T09:25:49Z</time>
      </trkpt>
      <trkpt lat="44.07903" lon="6.16027">
        <ele>784</ele>
        <time>2020-10-18T09:25:50Z</time>
      </trkpt>
      <trkpt lat="44.07904" lon="6.16033">
        <ele>784</ele>
        <time>2020-10-18T09:25:51Z</time>
      </trkpt>
      <trkpt lat="44.07904" lon="6.16036">
        <ele>783.8</ele>
        <time>2020-10-18T09:25:52Z</time>
      </trkpt>
      <trkpt lat="44.07904" lon="6.16039">
        <ele>783</ele>
        <time>2020-10-18T09:25:53Z</time>
      </trkpt>
      <trkpt lat="44.07905" lon="6.1604">
        <ele>782.6</ele>
        <time>2020-10-18T09:25:54Z</time>
      </trkpt>
      <trkpt lat="44.07906" lon="6.16042">
        <ele>782.2</ele>
        <time>2020-10-18T09:25:55Z</time>
      </trkpt>
      <trkpt lat="44.07907" lon="6.16044">
        <ele>781.6</ele>
        <time>2020-10-18T09:25:56Z</time>
      </trkpt>
      <trkpt lat="44.07907" lon="6.16046">
        <ele>781.2</ele>
        <time>2020-10-18T09:25:57Z</time>
      </trkpt>
      <trkpt lat="44.07907" lon="6.16048">
        <ele>780.2</ele>
        <time>2020-10-18T09:25:58Z</time>
      </trkpt>
      <trkpt lat="44.07909" lon="6.16051">
        <ele>779.2</ele>
        <time>2020-10-18T09:25:59Z</time>
      </trkpt>
      <trkpt lat="44.07911" lon="6.16053">
        <ele>778</ele>
        <time>2020-10-18T09:26:00Z</time>
      </trkpt>
      <trkpt lat="44.07913" lon="6.16055">
        <ele>777.2</ele>
        <time>2020-10-18T09:26:01Z</time>
      </trkpt>
      <trkpt lat="44.07913" lon="6.16057">
        <ele>776</ele>
        <time>2020-10-18T09:26:02Z</time>
      </trkpt>
      <trkpt lat="44.07914" lon="6.1606">
        <ele>775.2</ele>
        <time>2020-10-18T09:26:03Z</time>
      </trkpt>
      <trkpt lat="44.07915" lon="6.16064">
        <ele>774.4</ele>
        <time>2020-10-18T09:26:04Z</time>
      </trkpt>
      <trkpt lat="44.07916" lon="6.16067">
        <ele>773.8</ele>
        <time>2020-10-18T09:26:05Z</time>
      </trkpt>
      <trkpt lat="44.07916" lon="6.16071">
        <ele>773.4</ele>
        <time>2020-10-18T09:26:06Z</time>
      </trkpt>
      <trkpt lat="44.07916" lon="6.16076">
        <ele>772.2</ele>
        <time>2020-10-18T09:26:07Z</time>
      </trkpt>
      <trkpt lat="44.07916" lon="6.16081">
        <ele>771.4</ele>
        <time>2020-10-18T09:26:08Z</time>
      </trkpt>
      <trkpt lat="44.07916" lon="6.16085">
        <ele>770.6</ele>
        <time>2020-10-18T09:26:09Z</time>
      </trkpt>
      <trkpt lat="44.07917" lon="6.1609">
        <ele>770.2</ele>
        <time>2020-10-18T09:26:10Z</time>
      </trkpt>
      <trkpt lat="44.07917" lon="6.16095">
        <ele>770</ele>
        <time>2020-10-18T09:26:11Z</time>
      </trkpt>
      <trkpt lat="44.07916" lon="6.16099">
        <ele>770</ele>
        <time>2020-10-18T09:26:12Z</time>
      </trkpt>
      <trkpt lat="44.07916" lon="6.16103">
        <ele>769.4</ele>
        <time>2020-10-18T09:26:13Z</time>
      </trkpt>
      <trkpt lat="44.07916" lon="6.16107">
        <ele>768</ele>
        <time>2020-10-18T09:26:14Z</time>
      </trkpt>
      <trkpt lat="44.07917" lon="6.1611">
        <ele>767.2</ele>
        <time>2020-10-18T09:26:15Z</time>
      </trkpt>
      <trkpt lat="44.07916" lon="6.16114">
        <ele>766.4</ele>
        <time>2020-10-18T09:26:16Z</time>
      </trkpt>
      <trkpt lat="44.07916" lon="6.16119">
        <ele>765.2</ele>
        <time>2020-10-18T09:26:17Z</time>
      </trkpt>
      <trkpt lat="44.07914" lon="6.16124">
        <ele>762.8</ele>
        <time>2020-10-18T09:26:19Z</time>
      </trkpt>
      <trkpt lat="44.07913" lon="6.16126">
        <ele>762</ele>
        <time>2020-10-18T09:26:20Z</time>
      </trkpt>
      <trkpt lat="44.07912" lon="6.16129">
        <ele>761</ele>
        <time>2020-10-18T09:26:21Z</time>
      </trkpt>
      <trkpt lat="44.07911" lon="6.16131">
        <ele>760.2</ele>
        <time>2020-10-18T09:26:22Z</time>
      </trkpt>
      <trkpt lat="44.07909" lon="6.16135">
        <ele>758.8</ele>
        <time>2020-10-18T09:26:23Z</time>
      </trkpt>
      <trkpt lat="44.07907" lon="6.1614">
        <ele>758</ele>
        <time>2020-10-18T09:26:24Z</time>
      </trkpt>
      <trkpt lat="44.07906" lon="6.16144">
        <ele>757.2</ele>
        <time>2020-10-18T09:26:25Z</time>
      </trkpt>
      <trkpt lat="44.07905" lon="6.16147">
        <ele>756.8</ele>
        <time>2020-10-18T09:26:26Z</time>
      </trkpt>
      <trkpt lat="44.07906" lon="6.16148">
        <ele>756.6</ele>
        <time>2020-10-18T09:26:27Z</time>
      </trkpt>
      <trkpt lat="44.07907" lon="6.1615">
        <ele>756.2</ele>
        <time>2020-10-18T09:26:28Z</time>
      </trkpt>
      <trkpt lat="44.07908" lon="6.1615">
        <ele>756</ele>
        <time>2020-10-18T09:26:29Z</time>
      </trkpt>
      <trkpt lat="44.0791" lon="6.1615">
        <ele>755.8</ele>
        <time>2020-10-18T09:26:30Z</time>
      </trkpt>
      <trkpt lat="44.07912" lon="6.16151">
        <ele>755.2</ele>
        <time>2020-10-18T09:26:31Z</time>
      </trkpt>
      <trkpt lat="44.07913" lon="6.16153">
        <ele>755.2</ele>
        <time>2020-10-18T09:26:32Z</time>
      </trkpt>
      <trkpt lat="44.07914" lon="6.16155">
        <ele>754.6</ele>
        <time>2020-10-18T09:26:33Z</time>
      </trkpt>
      <trkpt lat="44.07915" lon="6.16162">
        <ele>753.2</ele>
        <time>2020-10-18T09:26:35Z</time>
      </trkpt>
      <trkpt lat="44.07915" lon="6.16166">
        <ele>752.8</ele>
        <time>2020-10-18T09:26:36Z</time>
      </trkpt>
      <trkpt lat="44.07914" lon="6.1617">
        <ele>752.2</ele>
        <time>2020-10-18T09:26:37Z</time>
      </trkpt>
      <trkpt lat="44.07914" lon="6.16173">
        <ele>752</ele>
        <time>2020-10-18T09:26:38Z</time>
      </trkpt>
      <trkpt lat="44.07915" lon="6.16175">
        <ele>751.6</ele>
        <time>2020-10-18T09:26:39Z</time>
      </trkpt>
      <trkpt lat="44.07918" lon="6.16177">
        <ele>750.8</ele>
        <time>2020-10-18T09:26:40Z</time>
      </trkpt>
      <trkpt lat="44.07921" lon="6.16178">
        <ele>749.6</ele>
        <time>2020-10-18T09:26:41Z</time>
      </trkpt>
      <trkpt lat="44.07924" lon="6.16177">
        <ele>748.6</ele>
        <time>2020-10-18T09:26:42Z</time>
      </trkpt>
      <trkpt lat="44.07925" lon="6.16176">
        <ele>747.8</ele>
        <time>2020-10-18T09:26:43Z</time>
      </trkpt>
      <trkpt lat="44.07926" lon="6.16175">
        <ele>747.4</ele>
        <time>2020-10-18T09:26:44Z</time>
      </trkpt>
      <trkpt lat="44.07928" lon="6.16175">
        <ele>747</ele>
        <time>2020-10-18T09:26:45Z</time>
      </trkpt>
      <trkpt lat="44.0793" lon="6.16176">
        <ele>746.4</ele>
        <time>2020-10-18T09:26:46Z</time>
      </trkpt>
      <trkpt lat="44.07932" lon="6.16179">
        <ele>746</ele>
        <time>2020-10-18T09:26:47Z</time>
      </trkpt>
      <trkpt lat="44.07935" lon="6.16185">
        <ele>744.6</ele>
        <time>2020-10-18T09:26:49Z</time>
      </trkpt>
      <trkpt lat="44.07936" lon="6.16188">
        <ele>744</ele>
        <time>2020-10-18T09:26:50Z</time>
      </trkpt>
      <trkpt lat="44.07938" lon="6.16192">
        <ele>743.6</ele>
        <time>2020-10-18T09:26:51Z</time>
      </trkpt>
      <trkpt lat="44.07938" lon="6.16195">
        <ele>743.6</ele>
        <time>2020-10-18T09:26:52Z</time>
      </trkpt>
      <trkpt lat="44.07938" lon="6.16198">
        <ele>743.2</ele>
        <time>2020-10-18T09:26:53Z</time>
      </trkpt>
      <trkpt lat="44.07938" lon="6.16203">
        <ele>743</ele>
        <time>2020-10-18T09:26:54Z</time>
      </trkpt>
      <trkpt lat="44.07936" lon="6.16207">
        <ele>742.8</ele>
        <time>2020-10-18T09:26:55Z</time>
      </trkpt>
      <trkpt lat="44.07935" lon="6.16211">
        <ele>742.6</ele>
        <time>2020-10-18T09:26:56Z</time>
      </trkpt>
      <trkpt lat="44.07933" lon="6.16215">
        <ele>742.4</ele>
        <time>2020-10-18T09:26:57Z</time>
      </trkpt>
      <trkpt lat="44.07932" lon="6.16218">
        <ele>742.2</ele>
        <time>2020-10-18T09:26:58Z</time>
      </trkpt>
      <trkpt lat="44.0793" lon="6.1622">
        <ele>742</ele>
        <time>2020-10-18T09:26:59Z</time>
      </trkpt>
      <trkpt lat="44.07929" lon="6.16223">
        <ele>741.4</ele>
        <time>2020-10-18T09:27:00Z</time>
      </trkpt>
      <trkpt lat="44.0793" lon="6.16226">
        <ele>740.6</ele>
        <time>2020-10-18T09:27:01Z</time>
      </trkpt>
      <trkpt lat="44.07931" lon="6.16232">
        <ele>740.2</ele>
        <time>2020-10-18T09:27:02Z</time>
      </trkpt>
      <trkpt lat="44.07932" lon="6.16237">
        <ele>739.8</ele>
        <time>2020-10-18T09:27:03Z</time>
      </trkpt>
      <trkpt lat="44.07933" lon="6.16242">
        <ele>739.6</ele>
        <time>2020-10-18T09:27:04Z</time>
      </trkpt>
      <trkpt lat="44.07935" lon="6.16248">
        <ele>739</ele>
        <time>2020-10-18T09:27:05Z</time>
      </trkpt>
      <trkpt lat="44.07936" lon="6.16255">
        <ele>738.8</ele>
        <time>2020-10-18T09:27:06Z</time>
      </trkpt>
      <trkpt lat="44.07936" lon="6.1626">
        <ele>738.2</ele>
        <time>2020-10-18T09:27:07Z</time>
      </trkpt>
      <trkpt lat="44.07937" lon="6.16263">
        <ele>737.6</ele>
        <time>2020-10-18T09:27:08Z</time>
      </trkpt>
      <trkpt lat="44.07938" lon="6.16267">
        <ele>736.6</ele>
        <time>2020-10-18T09:27:09Z</time>
      </trkpt>
      <trkpt lat="44.0794" lon="6.1627">
        <ele>735.8</ele>
        <time>2020-10-18T09:27:10Z</time>
      </trkpt>
      <trkpt lat="44.07942" lon="6.16274">
        <ele>735.4</ele>
        <time>2020-10-18T09:27:11Z</time>
      </trkpt>
      <trkpt lat="44.07946" lon="6.16282">
        <ele>734.8</ele>
        <time>2020-10-18T09:27:13Z</time>
      </trkpt>
      <trkpt lat="44.07949" lon="6.16292">
        <ele>733</ele>
        <time>2020-10-18T09:27:15Z</time>
      </trkpt>
      <trkpt lat="44.07949" lon="6.16296">
        <ele>732.4</ele>
        <time>2020-10-18T09:27:16Z</time>
      </trkpt>
      <trkpt lat="44.07948" lon="6.16301">
        <ele>731.8</ele>
        <time>2020-10-18T09:27:17Z</time>
      </trkpt>
      <trkpt lat="44.07947" lon="6.16306">
        <ele>731</ele>
        <time>2020-10-18T09:27:18Z</time>
      </trkpt>
      <trkpt lat="44.07946" lon="6.16311">
        <ele>730.2</ele>
        <time>2020-10-18T09:27:19Z</time>
      </trkpt>
      <trkpt lat="44.07944" lon="6.16316">
        <ele>729.6</ele>
        <time>2020-10-18T09:27:20Z</time>
      </trkpt>
      <trkpt lat="44.07943" lon="6.16321">
        <ele>729.4</ele>
        <time>2020-10-18T09:27:21Z</time>
      </trkpt>
      <trkpt lat="44.07942" lon="6.16326">
        <ele>727.6</ele>
        <time>2020-10-18T09:27:22Z</time>
      </trkpt>
      <trkpt lat="44.07941" lon="6.16331">
        <ele>726.6</ele>
        <time>2020-10-18T09:27:23Z</time>
      </trkpt>
      <trkpt lat="44.07939" lon="6.16336">
        <ele>725.6</ele>
        <time>2020-10-18T09:27:24Z</time>
      </trkpt>
      <trkpt lat="44.07938" lon="6.16341">
        <ele>724.8</ele>
        <time>2020-10-18T09:27:25Z</time>
      </trkpt>
      <trkpt lat="44.07937" lon="6.16347">
        <ele>724</ele>
        <time>2020-10-18T09:27:26Z</time>
      </trkpt>
      <trkpt lat="44.07936" lon="6.16352">
        <ele>723.6</ele>
        <time>2020-10-18T09:27:27Z</time>
      </trkpt>
      <trkpt lat="44.07937" lon="6.16357">
        <ele>723.4</ele>
        <time>2020-10-18T09:27:28Z</time>
      </trkpt>
      <trkpt lat="44.07938" lon="6.16362">
        <ele>723.2</ele>
        <time>2020-10-18T09:27:29Z</time>
      </trkpt>
      <trkpt lat="44.07939" lon="6.16368">
        <ele>723.2</ele>
        <time>2020-10-18T09:27:30Z</time>
      </trkpt>
      <trkpt lat="44.07939" lon="6.16372">
        <ele>723.2</ele>
        <time>2020-10-18T09:27:31Z</time>
      </trkpt>
      <trkpt lat="44.07939" lon="6.16375">
        <ele>723</ele>
        <time>2020-10-18T09:27:32Z</time>
      </trkpt>
      <trkpt lat="44.07939" lon="6.16379">
        <ele>723.2</ele>
        <time>2020-10-18T09:27:33Z</time>
      </trkpt>
      <trkpt lat="44.07938" lon="6.16382">
        <ele>723.2</ele>
        <time>2020-10-18T09:27:34Z</time>
      </trkpt>
      <trkpt lat="44.07936" lon="6.16385">
        <ele>723.2</ele>
        <time>2020-10-18T09:27:35Z</time>
      </trkpt>
      <trkpt lat="44.07935" lon="6.16389">
        <ele>723.2</ele>
        <time>2020-10-18T09:27:36Z</time>
      </trkpt>
      <trkpt lat="44.07932" lon="6.16392">
        <ele>723.2</ele>
        <time>2020-10-18T09:27:37Z</time>
      </trkpt>
      <trkpt lat="44.0793" lon="6.16395">
        <ele>723.2</ele>
        <time>2020-10-18T09:27:38Z</time>
      </trkpt>
      <trkpt lat="44.07928" lon="6.16398">
        <ele>723.2</ele>
        <time>2020-10-18T09:27:39Z</time>
      </trkpt>
      <trkpt lat="44.07926" lon="6.16401">
        <ele>723.2</ele>
        <time>2020-10-18T09:27:40Z</time>
      </trkpt>
      <trkpt lat="44.07925" lon="6.16404">
        <ele>723.4</ele>
        <time>2020-10-18T09:27:41Z</time>
      </trkpt>
      <trkpt lat="44.07924" lon="6.16409">
        <ele>723.8</ele>
        <time>2020-10-18T09:27:42Z</time>
      </trkpt>
      <trkpt lat="44.07924" lon="6.16413">
        <ele>723.8</ele>
        <time>2020-10-18T09:27:43Z</time>
      </trkpt>
      <trkpt lat="44.07923" lon="6.16417">
        <ele>724.2</ele>
        <time>2020-10-18T09:27:44Z</time>
      </trkpt>
      <trkpt lat="44.07921" lon="6.1642">
        <ele>724.2</ele>
        <time>2020-10-18T09:27:45Z</time>
      </trkpt>
      <trkpt lat="44.07919" lon="6.16424">
        <ele>724.4</ele>
        <time>2020-10-18T09:27:46Z</time>
      </trkpt>
      <trkpt lat="44.07917" lon="6.16426">
        <ele>724.4</ele>
        <time>2020-10-18T09:27:47Z</time>
      </trkpt>
      <trkpt lat="44.07915" lon="6.16428">
        <ele>725</ele>
        <time>2020-10-18T09:27:48Z</time>
      </trkpt>
      <trkpt lat="44.07913" lon="6.1643">
        <ele>725.4</ele>
        <time>2020-10-18T09:27:49Z</time>
      </trkpt>
      <trkpt lat="44.07911" lon="6.16432">
        <ele>725.6</ele>
        <time>2020-10-18T09:27:50Z</time>
      </trkpt>
      <trkpt lat="44.0791" lon="6.16434">
        <ele>726</ele>
        <time>2020-10-18T09:27:51Z</time>
      </trkpt>
      <trkpt lat="44.07908" lon="6.16436">
        <ele>726</ele>
        <time>2020-10-18T09:27:52Z</time>
      </trkpt>
      <trkpt lat="44.07907" lon="6.1644">
        <ele>726</ele>
        <time>2020-10-18T09:27:53Z</time>
      </trkpt>
      <trkpt lat="44.07906" lon="6.16443">
        <ele>726.2</ele>
        <time>2020-10-18T09:27:54Z</time>
      </trkpt>
      <trkpt lat="44.07905" lon="6.16445">
        <ele>726.2</ele>
        <time>2020-10-18T09:27:55Z</time>
      </trkpt>
      <trkpt lat="44.07903" lon="6.16447">
        <ele>726.2</ele>
        <time>2020-10-18T09:27:56Z</time>
      </trkpt>
      <trkpt lat="44.07902" lon="6.16449">
        <ele>726.6</ele>
        <time>2020-10-18T09:27:57Z</time>
      </trkpt>
      <trkpt lat="44.07901" lon="6.16451">
        <ele>726.6</ele>
        <time>2020-10-18T09:27:58Z</time>
      </trkpt>
      <trkpt lat="44.079" lon="6.16454">
        <ele>727</ele>
        <time>2020-10-18T09:27:59Z</time>
      </trkpt>
      <trkpt lat="44.07899" lon="6.16456">
        <ele>727.2</ele>
        <time>2020-10-18T09:28:00Z</time>
      </trkpt>
      <trkpt lat="44.07899" lon="6.16459">
        <ele>727.4</ele>
        <time>2020-10-18T09:28:01Z</time>
      </trkpt>
      <trkpt lat="44.07898" lon="6.16462">
        <ele>727.8</ele>
        <time>2020-10-18T09:28:02Z</time>
      </trkpt>
      <trkpt lat="44.07898" lon="6.16465">
        <ele>728.2</ele>
        <time>2020-10-18T09:28:03Z</time>
      </trkpt>
      <trkpt lat="44.07897" lon="6.16467">
        <ele>728.2</ele>
        <time>2020-10-18T09:28:04Z</time>
      </trkpt>
      <trkpt lat="44.07897" lon="6.1647">
        <ele>728.4</ele>
        <time>2020-10-18T09:28:05Z</time>
      </trkpt>
      <trkpt lat="44.07896" lon="6.16473">
        <ele>728.8</ele>
        <time>2020-10-18T09:28:06Z</time>
      </trkpt>
      <trkpt lat="44.07895" lon="6.16475">
        <ele>728.8</ele>
        <time>2020-10-18T09:28:07Z</time>
      </trkpt>
      <trkpt lat="44.07896" lon="6.16479">
        <ele>729.2</ele>
        <time>2020-10-18T09:28:08Z</time>
      </trkpt>
      <trkpt lat="44.07896" lon="6.16483">
        <ele>729.6</ele>
        <time>2020-10-18T09:28:09Z</time>
      </trkpt>
      <trkpt lat="44.07895" lon="6.16486">
        <ele>730</ele>
        <time>2020-10-18T09:28:10Z</time>
      </trkpt>
      <trkpt lat="44.07895" lon="6.16489">
        <ele>730.2</ele>
        <time>2020-10-18T09:28:11Z</time>
      </trkpt>
      <trkpt lat="44.07895" lon="6.16493">
        <ele>730.6</ele>
        <time>2020-10-18T09:28:12Z</time>
      </trkpt>
      <trkpt lat="44.07894" lon="6.16495">
        <ele>730.6</ele>
        <time>2020-10-18T09:28:13Z</time>
      </trkpt>
      <trkpt lat="44.07893" lon="6.16497">
        <ele>730.8</ele>
        <time>2020-10-18T09:28:14Z</time>
      </trkpt>
      <trkpt lat="44.07893" lon="6.165">
        <ele>730.8</ele>
        <time>2020-10-18T09:28:15Z</time>
      </trkpt>
      <trkpt lat="44.07892" lon="6.16503">
        <ele>731</ele>
        <time>2020-10-18T09:28:16Z</time>
      </trkpt>
      <trkpt lat="44.0789" lon="6.16505">
        <ele>731</ele>
        <time>2020-10-18T09:28:17Z</time>
      </trkpt>
      <trkpt lat="44.07889" lon="6.16508">
        <ele>731.2</ele>
        <time>2020-10-18T09:28:18Z</time>
      </trkpt>
      <trkpt lat="44.07888" lon="6.1651">
        <ele>731.4</ele>
        <time>2020-10-18T09:28:19Z</time>
      </trkpt>
      <trkpt lat="44.07886" lon="6.16513">
        <ele>731.8</ele>
        <time>2020-10-18T09:28:20Z</time>
      </trkpt>
      <trkpt lat="44.07885" lon="6.16515">
        <ele>732.2</ele>
        <time>2020-10-18T09:28:21Z</time>
      </trkpt>
      <trkpt lat="44.07884" lon="6.16517">
        <ele>732.2</ele>
        <time>2020-10-18T09:28:22Z</time>
      </trkpt>
      <trkpt lat="44.07883" lon="6.16519">
        <ele>732.4</ele>
        <time>2020-10-18T09:28:23Z</time>
      </trkpt>
      <trkpt lat="44.07882" lon="6.16521">
        <ele>732.6</ele>
        <time>2020-10-18T09:28:24Z</time>
      </trkpt>
      <trkpt lat="44.07881" lon="6.16523">
        <ele>732.6</ele>
        <time>2020-10-18T09:28:25Z</time>
      </trkpt>
      <trkpt lat="44.0788" lon="6.16526">
        <ele>732.8</ele>
        <time>2020-10-18T09:28:26Z</time>
      </trkpt>
      <trkpt lat="44.07878" lon="6.16528">
        <ele>733</ele>
        <time>2020-10-18T09:28:27Z</time>
      </trkpt>
      <trkpt lat="44.07877" lon="6.1653">
        <ele>733</ele>
        <time>2020-10-18T09:28:28Z</time>
      </trkpt>
      <trkpt lat="44.07875" lon="6.1653">
        <ele>733.2</ele>
        <time>2020-10-18T09:28:29Z</time>
      </trkpt>
      <trkpt lat="44.07873" lon="6.16531">
        <ele>733.4</ele>
        <time>2020-10-18T09:28:30Z</time>
      </trkpt>
      <trkpt lat="44.07872" lon="6.16531">
        <ele>733.4</ele>
        <time>2020-10-18T09:28:31Z</time>
      </trkpt>
      <trkpt lat="44.0787" lon="6.16531">
        <ele>733.6</ele>
        <time>2020-10-18T09:28:32Z</time>
      </trkpt>
      <trkpt lat="44.07868" lon="6.16531">
        <ele>733.8</ele>
        <time>2020-10-18T09:28:33Z</time>
      </trkpt>
      <trkpt lat="44.07866" lon="6.16531">
        <ele>734</ele>
        <time>2020-10-18T09:28:34Z</time>
      </trkpt>
      <trkpt lat="44.07864" lon="6.16531">
        <ele>734</ele>
        <time>2020-10-18T09:28:35Z</time>
      </trkpt>
      <trkpt lat="44.07863" lon="6.16531">
        <ele>734.2</ele>
        <time>2020-10-18T09:28:36Z</time>
      </trkpt>
      <trkpt lat="44.07861" lon="6.16531">
        <ele>734.4</ele>
        <time>2020-10-18T09:28:37Z</time>
      </trkpt>
      <trkpt lat="44.07859" lon="6.16532">
        <ele>734.6</ele>
        <time>2020-10-18T09:28:38Z</time>
      </trkpt>
      <trkpt lat="44.07857" lon="6.16532">
        <ele>735</ele>
        <time>2020-10-18T09:28:39Z</time>
      </trkpt>
      <trkpt lat="44.07855" lon="6.16532">
        <ele>735</ele>
        <time>2020-10-18T09:28:40Z</time>
      </trkpt>
      <trkpt lat="44.07854" lon="6.16533">
        <ele>735</ele>
        <time>2020-10-18T09:28:41Z</time>
      </trkpt>
      <trkpt lat="44.07852" lon="6.16533">
        <ele>735.6</ele>
        <time>2020-10-18T09:28:42Z</time>
      </trkpt>
      <trkpt lat="44.0785" lon="6.16533">
        <ele>735.8</ele>
        <time>2020-10-18T09:28:43Z</time>
      </trkpt>
      <trkpt lat="44.07848" lon="6.16532">
        <ele>735.8</ele>
        <time>2020-10-18T09:28:44Z</time>
      </trkpt>
      <trkpt lat="44.07846" lon="6.16532">
        <ele>736</ele>
        <time>2020-10-18T09:28:45Z</time>
      </trkpt>
      <trkpt lat="44.07845" lon="6.1653">
        <ele>736</ele>
        <time>2020-10-18T09:28:46Z</time>
      </trkpt>
      <trkpt lat="44.07844" lon="6.16529">
        <ele>736.2</ele>
        <time>2020-10-18T09:28:47Z</time>
      </trkpt>
      <trkpt lat="44.07844" lon="6.16527">
        <ele>736.2</ele>
        <time>2020-10-18T09:28:48Z</time>
      </trkpt>
      <trkpt lat="44.07844" lon="6.16525">
        <ele>736.4</ele>
        <time>2020-10-18T09:28:49Z</time>
      </trkpt>
      <trkpt lat="44.07845" lon="6.16523">
        <ele>736.6</ele>
        <time>2020-10-18T09:28:50Z</time>
      </trkpt>
      <trkpt lat="44.07846" lon="6.16522">
        <ele>736.6</ele>
        <time>2020-10-18T09:28:51Z</time>
      </trkpt>
      <trkpt lat="44.07847" lon="6.1652">
        <ele>736.8</ele>
        <time>2020-10-18T09:28:52Z</time>
      </trkpt>
      <trkpt lat="44.07849" lon="6.16519">
        <ele>737</ele>
        <time>2020-10-18T09:28:53Z</time>
      </trkpt>
      <trkpt lat="44.0785" lon="6.16517">
        <ele>737.2</ele>
        <time>2020-10-18T09:28:54Z</time>
      </trkpt>
      <trkpt lat="44.0785" lon="6.16515">
        <ele>737.4</ele>
        <time>2020-10-18T09:28:55Z</time>
      </trkpt>
      <trkpt lat="44.07851" lon="6.16513">
        <ele>737.4</ele>
        <time>2020-10-18T09:28:56Z</time>
      </trkpt>
      <trkpt lat="44.07852" lon="6.1651">
        <ele>737.6</ele>
        <time>2020-10-18T09:28:57Z</time>
      </trkpt>
      <trkpt lat="44.07853" lon="6.16508">
        <ele>738</ele>
        <time>2020-10-18T09:28:58Z</time>
      </trkpt>
      <trkpt lat="44.07853" lon="6.16506">
        <ele>738.2</ele>
        <time>2020-10-18T09:28:59Z</time>
      </trkpt>
      <trkpt lat="44.07854" lon="6.16504">
        <ele>738.4</ele>
        <time>2020-10-18T09:29:00Z</time>
      </trkpt>
      <trkpt lat="44.07854" lon="6.16502">
        <ele>738.8</ele>
        <time>2020-10-18T09:29:01Z</time>
      </trkpt>
      <trkpt lat="44.07855" lon="6.165">
        <ele>739</ele>
        <time>2020-10-18T09:29:02Z</time>
      </trkpt>
      <trkpt lat="44.07856" lon="6.16498">
        <ele>739.2</ele>
        <time>2020-10-18T09:29:03Z</time>
      </trkpt>
      <trkpt lat="44.07856" lon="6.16496">
        <ele>739.2</ele>
        <time>2020-10-18T09:29:04Z</time>
      </trkpt>
      <trkpt lat="44.07856" lon="6.16494">
        <ele>739.2</ele>
        <time>2020-10-18T09:29:05Z</time>
      </trkpt>
      <trkpt lat="44.07856" lon="6.16492">
        <ele>739.4</ele>
        <time>2020-10-18T09:29:06Z</time>
      </trkpt>
      <trkpt lat="44.07856" lon="6.1649">
        <ele>739.6</ele>
        <time>2020-10-18T09:29:07Z</time>
      </trkpt>
      <trkpt lat="44.07856" lon="6.16487">
        <ele>739.8</ele>
        <time>2020-10-18T09:29:08Z</time>
      </trkpt>
      <trkpt lat="44.07856" lon="6.16485">
        <ele>739.8</ele>
        <time>2020-10-18T09:29:09Z</time>
      </trkpt>
      <trkpt lat="44.07856" lon="6.16483">
        <ele>740</ele>
        <time>2020-10-18T09:29:10Z</time>
      </trkpt>
      <trkpt lat="44.07856" lon="6.16481">
        <ele>740</ele>
        <time>2020-10-18T09:29:11Z</time>
      </trkpt>
      <trkpt lat="44.07856" lon="6.16479">
        <ele>740.2</ele>
        <time>2020-10-18T09:29:12Z</time>
      </trkpt>
      <trkpt lat="44.07856" lon="6.16477">
        <ele>740.4</ele>
        <time>2020-10-18T09:29:13Z</time>
      </trkpt>
      <trkpt lat="44.07857" lon="6.16475">
        <ele>740.6</ele>
        <time>2020-10-18T09:29:14Z</time>
      </trkpt>
      <trkpt lat="44.07857" lon="6.16472">
        <ele>741</ele>
        <time>2020-10-18T09:29:15Z</time>
      </trkpt>
      <trkpt lat="44.07857" lon="6.1647">
        <ele>741.2</ele>
        <time>2020-10-18T09:29:16Z</time>
      </trkpt>
      <trkpt lat="44.07857" lon="6.16468">
        <ele>741.2</ele>
        <time>2020-10-18T09:29:17Z</time>
      </trkpt>
      <trkpt lat="44.07858" lon="6.16466">
        <ele>741.2</ele>
        <time>2020-10-18T09:29:18Z</time>
      </trkpt>
      <trkpt lat="44.07858" lon="6.16464">
        <ele>741.6</ele>
        <time>2020-10-18T09:29:19Z</time>
      </trkpt>
      <trkpt lat="44.07858" lon="6.16462">
        <ele>741.6</ele>
        <time>2020-10-18T09:29:20Z</time>
      </trkpt>
      <trkpt lat="44.07859" lon="6.16459">
        <ele>741.8</ele>
        <time>2020-10-18T09:29:21Z</time>
      </trkpt>
      <trkpt lat="44.07858" lon="6.16457">
        <ele>742.2</ele>
        <time>2020-10-18T09:29:22Z</time>
      </trkpt>
      <trkpt lat="44.07858" lon="6.16455">
        <ele>742.4</ele>
        <time>2020-10-18T09:29:23Z</time>
      </trkpt>
      <trkpt lat="44.07858" lon="6.16453">
        <ele>742.6</ele>
        <time>2020-10-18T09:29:24Z</time>
      </trkpt>
      <trkpt lat="44.07857" lon="6.16451">
        <ele>742.8</ele>
        <time>2020-10-18T09:29:25Z</time>
      </trkpt>
      <trkpt lat="44.07858" lon="6.16449">
        <ele>743.2</ele>
        <time>2020-10-18T09:29:26Z</time>
      </trkpt>
      <trkpt lat="44.07858" lon="6.16447">
        <ele>743.4</ele>
        <time>2020-10-18T09:29:27Z</time>
      </trkpt>
      <trkpt lat="44.07858" lon="6.16445">
        <ele>743.6</ele>
        <time>2020-10-18T09:29:28Z</time>
      </trkpt>
      <trkpt lat="44.07859" lon="6.16443">
        <ele>743.8</ele>
        <time>2020-10-18T09:29:29Z</time>
      </trkpt>
      <trkpt lat="44.07859" lon="6.16441">
        <ele>744</ele>
        <time>2020-10-18T09:29:30Z</time>
      </trkpt>
      <trkpt lat="44.07859" lon="6.16439">
        <ele>744</ele>
        <time>2020-10-18T09:29:31Z</time>
      </trkpt>
      <trkpt lat="44.07859" lon="6.16437">
        <ele>744.4</ele>
        <time>2020-10-18T09:29:32Z</time>
      </trkpt>
      <trkpt lat="44.07859" lon="6.16435">
        <ele>745</ele>
        <time>2020-10-18T09:29:33Z</time>
      </trkpt>
      <trkpt lat="44.0786" lon="6.16432">
        <ele>745.4</ele>
        <time>2020-10-18T09:29:34Z</time>
      </trkpt>
      <trkpt lat="44.0786" lon="6.16429">
        <ele>745.6</ele>
        <time>2020-10-18T09:29:35Z</time>
      </trkpt>
      <trkpt lat="44.07861" lon="6.16426">
        <ele>745.6</ele>
        <time>2020-10-18T09:29:36Z</time>
      </trkpt>
      <trkpt lat="44.07861" lon="6.16424">
        <ele>745.6</ele>
        <time>2020-10-18T09:29:37Z</time>
      </trkpt>
      <trkpt lat="44.07861" lon="6.16421">
        <ele>745.8</ele>
        <time>2020-10-18T09:29:38Z</time>
      </trkpt>
      <trkpt lat="44.07861" lon="6.16419">
        <ele>745.8</ele>
        <time>2020-10-18T09:29:39Z</time>
      </trkpt>
      <trkpt lat="44.07861" lon="6.16417">
        <ele>745.8</ele>
        <time>2020-10-18T09:29:40Z</time>
      </trkpt>
      <trkpt lat="44.07862" lon="6.16415">
        <ele>746</ele>
        <time>2020-10-18T09:29:41Z</time>
      </trkpt>
      <trkpt lat="44.07862" lon="6.16413">
        <ele>746.2</ele>
        <time>2020-10-18T09:29:42Z</time>
      </trkpt>
      <trkpt lat="44.07862" lon="6.1641">
        <ele>746.4</ele>
        <time>2020-10-18T09:29:43Z</time>
      </trkpt>
      <trkpt lat="44.07862" lon="6.16408">
        <ele>746.4</ele>
        <time>2020-10-18T09:29:44Z</time>
      </trkpt>
      <trkpt lat="44.07862" lon="6.16405">
        <ele>746.4</ele>
        <time>2020-10-18T09:29:45Z</time>
      </trkpt>
      <trkpt lat="44.07862" lon="6.16403">
        <ele>746.6</ele>
        <time>2020-10-18T09:29:46Z</time>
      </trkpt>
      <trkpt lat="44.07861" lon="6.164">
        <ele>746.8</ele>
        <time>2020-10-18T09:29:47Z</time>
      </trkpt>
      <trkpt lat="44.07861" lon="6.16398">
        <ele>747</ele>
        <time>2020-10-18T09:29:48Z</time>
      </trkpt>
      <trkpt lat="44.0786" lon="6.16395">
        <ele>747.2</ele>
        <time>2020-10-18T09:29:49Z</time>
      </trkpt>
      <trkpt lat="44.07859" lon="6.16393">
        <ele>747.2</ele>
        <time>2020-10-18T09:29:50Z</time>
      </trkpt>
      <trkpt lat="44.07858" lon="6.16391">
        <ele>747.4</ele>
        <time>2020-10-18T09:29:51Z</time>
      </trkpt>
      <trkpt lat="44.07858" lon="6.1639">
        <ele>747.8</ele>
        <time>2020-10-18T09:29:52Z</time>
      </trkpt>
      <trkpt lat="44.07857" lon="6.1639">
        <ele>748.2</ele>
        <time>2020-10-18T09:29:53Z</time>
      </trkpt>
      <trkpt lat="44.07856" lon="6.1639">
        <ele>748.4</ele>
        <time>2020-10-18T09:29:54Z</time>
      </trkpt>
      <trkpt lat="44.07855" lon="6.1639">
        <ele>748.2</ele>
        <time>2020-10-18T09:29:55Z</time>
      </trkpt>
      <trkpt lat="44.07854" lon="6.16391">
        <ele>748.6</ele>
        <time>2020-10-18T09:29:56Z</time>
      </trkpt>
      <trkpt lat="44.07853" lon="6.16392">
        <ele>748.6</ele>
        <time>2020-10-18T09:29:57Z</time>
      </trkpt>
      <trkpt lat="44.07853" lon="6.16394">
        <ele>749</ele>
        <time>2020-10-18T09:29:58Z</time>
      </trkpt>
      <trkpt lat="44.07852" lon="6.16395">
        <ele>749.2</ele>
        <time>2020-10-18T09:29:59Z</time>
      </trkpt>
      <trkpt lat="44.07852" lon="6.16397">
        <ele>749.8</ele>
        <time>2020-10-18T09:30:00Z</time>
      </trkpt>
      <trkpt lat="44.07852" lon="6.16399">
        <ele>749.8</ele>
        <time>2020-10-18T09:30:01Z</time>
      </trkpt>
      <trkpt lat="44.07851" lon="6.16401">
        <ele>750.2</ele>
        <time>2020-10-18T09:30:02Z</time>
      </trkpt>
      <trkpt lat="44.07851" lon="6.16403">
        <ele>750.4</ele>
        <time>2020-10-18T09:30:03Z</time>
      </trkpt>
      <trkpt lat="44.07851" lon="6.16404">
        <ele>750.8</ele>
        <time>2020-10-18T09:30:04Z</time>
      </trkpt>
      <trkpt lat="44.07851" lon="6.16406">
        <ele>751.2</ele>
        <time>2020-10-18T09:30:05Z</time>
      </trkpt>
      <trkpt lat="44.0785" lon="6.16408">
        <ele>751.6</ele>
        <time>2020-10-18T09:30:06Z</time>
      </trkpt>
      <trkpt lat="44.0785" lon="6.1641">
        <ele>751.8</ele>
        <time>2020-10-18T09:30:07Z</time>
      </trkpt>
      <trkpt lat="44.07849" lon="6.16412">
        <ele>752</ele>
        <time>2020-10-18T09:30:08Z</time>
      </trkpt>
      <trkpt lat="44.07848" lon="6.16413">
        <ele>752</ele>
        <time>2020-10-18T09:30:09Z</time>
      </trkpt>
      <trkpt lat="44.07848" lon="6.16415">
        <ele>752.2</ele>
        <time>2020-10-18T09:30:10Z</time>
      </trkpt>
      <trkpt lat="44.07847" lon="6.16417">
        <ele>752.6</ele>
        <time>2020-10-18T09:30:11Z</time>
      </trkpt>
      <trkpt lat="44.07845" lon="6.16419">
        <ele>752.8</ele>
        <time>2020-10-18T09:30:12Z</time>
      </trkpt>
      <trkpt lat="44.07844" lon="6.16421">
        <ele>752.8</ele>
        <time>2020-10-18T09:30:13Z</time>
      </trkpt>
      <trkpt lat="44.07843" lon="6.16423">
        <ele>753.2</ele>
        <time>2020-10-18T09:30:14Z</time>
      </trkpt>
      <trkpt lat="44.07842" lon="6.16425">
        <ele>753.4</ele>
        <time>2020-10-18T09:30:15Z</time>
      </trkpt>
      <trkpt lat="44.07841" lon="6.16426">
        <ele>753.4</ele>
        <time>2020-10-18T09:30:16Z</time>
      </trkpt>
      <trkpt lat="44.0784" lon="6.16428">
        <ele>753.6</ele>
        <time>2020-10-18T09:30:17Z</time>
      </trkpt>
      <trkpt lat="44.07838" lon="6.16429">
        <ele>753.6</ele>
        <time>2020-10-18T09:30:18Z</time>
      </trkpt>
      <trkpt lat="44.07837" lon="6.16431">
        <ele>753.6</ele>
        <time>2020-10-18T09:30:19Z</time>
      </trkpt>
      <trkpt lat="44.07836" lon="6.16432">
        <ele>753.8</ele>
        <time>2020-10-18T09:30:20Z</time>
      </trkpt>
      <trkpt lat="44.07835" lon="6.16434">
        <ele>753.8</ele>
        <time>2020-10-18T09:30:21Z</time>
      </trkpt>
      <trkpt lat="44.07833" lon="6.16435">
        <ele>754</ele>
        <time>2020-10-18T09:30:22Z</time>
      </trkpt>
      <trkpt lat="44.07831" lon="6.16436">
        <ele>754.2</ele>
        <time>2020-10-18T09:30:23Z</time>
      </trkpt>
      <trkpt lat="44.07829" lon="6.16437">
        <ele>754.2</ele>
        <time>2020-10-18T09:30:24Z</time>
      </trkpt>
      <trkpt lat="44.07828" lon="6.16438">
        <ele>754.4</ele>
        <time>2020-10-18T09:30:25Z</time>
      </trkpt>
      <trkpt lat="44.07826" lon="6.16439">
        <ele>754.4</ele>
        <time>2020-10-18T09:30:26Z</time>
      </trkpt>
      <trkpt lat="44.07824" lon="6.1644">
        <ele>754.6</ele>
        <time>2020-10-18T09:30:27Z</time>
      </trkpt>
      <trkpt lat="44.07823" lon="6.16442">
        <ele>755</ele>
        <time>2020-10-18T09:30:28Z</time>
      </trkpt>
      <trkpt lat="44.07821" lon="6.16443">
        <ele>755</ele>
        <time>2020-10-18T09:30:29Z</time>
      </trkpt>
      <trkpt lat="44.0782" lon="6.16444">
        <ele>755.2</ele>
        <time>2020-10-18T09:30:30Z</time>
      </trkpt>
      <trkpt lat="44.07819" lon="6.16446">
        <ele>755.4</ele>
        <time>2020-10-18T09:30:31Z</time>
      </trkpt>
      <trkpt lat="44.07818" lon="6.16448">
        <ele>755.4</ele>
        <time>2020-10-18T09:30:32Z</time>
      </trkpt>
      <trkpt lat="44.07818" lon="6.16451">
        <ele>755.4</ele>
        <time>2020-10-18T09:30:33Z</time>
      </trkpt>
      <trkpt lat="44.07817" lon="6.16454">
        <ele>755.6</ele>
        <time>2020-10-18T09:30:34Z</time>
      </trkpt>
      <trkpt lat="44.07817" lon="6.16456">
        <ele>755.6</ele>
        <time>2020-10-18T09:30:35Z</time>
      </trkpt>
      <trkpt lat="44.07816" lon="6.16459">
        <ele>755.6</ele>
        <time>2020-10-18T09:30:36Z</time>
      </trkpt>
      <trkpt lat="44.07816" lon="6.16462">
        <ele>755.8</ele>
        <time>2020-10-18T09:30:37Z</time>
      </trkpt>
      <trkpt lat="44.07815" lon="6.16464">
        <ele>755.8</ele>
        <time>2020-10-18T09:30:38Z</time>
      </trkpt>
      <trkpt lat="44.07815" lon="6.16467">
        <ele>755.8</ele>
        <time>2020-10-18T09:30:39Z</time>
      </trkpt>
      <trkpt lat="44.07815" lon="6.16469">
        <ele>755.8</ele>
        <time>2020-10-18T09:30:40Z</time>
      </trkpt>
      <trkpt lat="44.07815" lon="6.16472">
        <ele>755.8</ele>
        <time>2020-10-18T09:30:41Z</time>
      </trkpt>
      <trkpt lat="44.07816" lon="6.16477">
        <ele>755.8</ele>
        <time>2020-10-18T09:30:43Z</time>
      </trkpt>
      <trkpt lat="44.07817" lon="6.16479">
        <ele>755.8</ele>
        <time>2020-10-18T09:30:44Z</time>
      </trkpt>
      <trkpt lat="44.07817" lon="6.16481">
        <ele>755.8</ele>
        <time>2020-10-18T09:30:45Z</time>
      </trkpt>
      <trkpt lat="44.07817" lon="6.16483">
        <ele>756</ele>
        <time>2020-10-18T09:30:46Z</time>
      </trkpt>
      <trkpt lat="44.07818" lon="6.16485">
        <ele>756</ele>
        <time>2020-10-18T09:30:47Z</time>
      </trkpt>
      <trkpt lat="44.0782" lon="6.16489">
        <ele>755.4</ele>
        <time>2020-10-18T09:30:49Z</time>
      </trkpt>
      <trkpt lat="44.0782" lon="6.16491">
        <ele>754.8</ele>
        <time>2020-10-18T09:30:50Z</time>
      </trkpt>
      <trkpt lat="44.07821" lon="6.16493">
        <ele>754.6</ele>
        <time>2020-10-18T09:30:51Z</time>
      </trkpt>
      <trkpt lat="44.07821" lon="6.16494">
        <ele>754</ele>
        <time>2020-10-18T09:30:52Z</time>
      </trkpt>
      <trkpt lat="44.0782" lon="6.16496">
        <ele>753.6</ele>
        <time>2020-10-18T09:30:53Z</time>
      </trkpt>
      <trkpt lat="44.07819" lon="6.16497">
        <ele>752.8</ele>
        <time>2020-10-18T09:30:54Z</time>
      </trkpt>
      <trkpt lat="44.07817" lon="6.16498">
        <ele>752.2</ele>
        <time>2020-10-18T09:30:55Z</time>
      </trkpt>
      <trkpt lat="44.07815" lon="6.16499">
        <ele>751.8</ele>
        <time>2020-10-18T09:30:56Z</time>
      </trkpt>
      <trkpt lat="44.07813" lon="6.16499">
        <ele>751.6</ele>
        <time>2020-10-18T09:30:57Z</time>
      </trkpt>
      <trkpt lat="44.07811" lon="6.165">
        <ele>750.8</ele>
        <time>2020-10-18T09:30:58Z</time>
      </trkpt>
      <trkpt lat="44.07809" lon="6.165">
        <ele>750.8</ele>
        <time>2020-10-18T09:30:59Z</time>
      </trkpt>
      <trkpt lat="44.07806" lon="6.165">
        <ele>749.8</ele>
        <time>2020-10-18T09:31:00Z</time>
      </trkpt>
      <trkpt lat="44.07804" lon="6.165">
        <ele>749.4</ele>
        <time>2020-10-18T09:31:01Z</time>
      </trkpt>
      <trkpt lat="44.07802" lon="6.16498">
        <ele>748.8</ele>
        <time>2020-10-18T09:31:02Z</time>
      </trkpt>
      <trkpt lat="44.07799" lon="6.16497">
        <ele>748.4</ele>
        <time>2020-10-18T09:31:03Z</time>
      </trkpt>
      <trkpt lat="44.07796" lon="6.16496">
        <ele>747.8</ele>
        <time>2020-10-18T09:31:04Z</time>
      </trkpt>
      <trkpt lat="44.07794" lon="6.16497">
        <ele>747.4</ele>
        <time>2020-10-18T09:31:05Z</time>
      </trkpt>
      <trkpt lat="44.07793" lon="6.16497">
        <ele>747</ele>
        <time>2020-10-18T09:31:06Z</time>
      </trkpt>
      <trkpt lat="44.07791" lon="6.16498">
        <ele>746</ele>
        <time>2020-10-18T09:31:07Z</time>
      </trkpt>
      <trkpt lat="44.07789" lon="6.16499">
        <ele>745.2</ele>
        <time>2020-10-18T09:31:08Z</time>
      </trkpt>
      <trkpt lat="44.07788" lon="6.165">
        <ele>744.4</ele>
        <time>2020-10-18T09:31:09Z</time>
      </trkpt>
      <trkpt lat="44.07787" lon="6.165">
        <ele>743.8</ele>
        <time>2020-10-18T09:31:10Z</time>
      </trkpt>
      <trkpt lat="44.07785" lon="6.16501">
        <ele>743</ele>
        <time>2020-10-18T09:31:11Z</time>
      </trkpt>
      <trkpt lat="44.07784" lon="6.16501">
        <ele>742.6</ele>
        <time>2020-10-18T09:31:12Z</time>
      </trkpt>
      <trkpt lat="44.07781" lon="6.16502">
        <ele>742.2</ele>
        <time>2020-10-18T09:31:13Z</time>
      </trkpt>
      <trkpt lat="44.07779" lon="6.16502">
        <ele>742</ele>
        <time>2020-10-18T09:31:14Z</time>
      </trkpt>
      <trkpt lat="44.07776" lon="6.16503">
        <ele>741.8</ele>
        <time>2020-10-18T09:31:15Z</time>
      </trkpt>
      <trkpt lat="44.07772" lon="6.16502">
        <ele>740.4</ele>
        <time>2020-10-18T09:31:17Z</time>
      </trkpt>
      <trkpt lat="44.0777" lon="6.16502">
        <ele>739.8</ele>
        <time>2020-10-18T09:31:18Z</time>
      </trkpt>
      <trkpt lat="44.07769" lon="6.16501">
        <ele>739.8</ele>
        <time>2020-10-18T09:31:19Z</time>
      </trkpt>
      <trkpt lat="44.07768" lon="6.16501">
        <ele>739.4</ele>
        <time>2020-10-18T09:31:20Z</time>
      </trkpt>
      <trkpt lat="44.07767" lon="6.16502">
        <ele>739</ele>
        <time>2020-10-18T09:31:21Z</time>
      </trkpt>
      <trkpt lat="44.07766" lon="6.16502">
        <ele>738</ele>
        <time>2020-10-18T09:31:22Z</time>
      </trkpt>
      <trkpt lat="44.07765" lon="6.16502">
        <ele>736.8</ele>
        <time>2020-10-18T09:31:23Z</time>
      </trkpt>
      <trkpt lat="44.07765" lon="6.16502">
        <ele>735.4</ele>
        <time>2020-10-18T09:31:25Z</time>
      </trkpt>
      <trkpt lat="44.07765" lon="6.16502">
        <ele>734</ele>
        <time>2020-10-18T09:31:27Z</time>
      </trkpt>
      <trkpt lat="44.07765" lon="6.16502">
        <ele>733.6</ele>
        <time>2020-10-18T09:31:29Z</time>
      </trkpt>
      <trkpt lat="44.07765" lon="6.165">
        <ele>732.8</ele>
        <time>2020-10-18T09:31:31Z</time>
      </trkpt>
      <trkpt lat="44.07766" lon="6.165">
        <ele>732.6</ele>
        <time>2020-10-18T09:31:33Z</time>
      </trkpt>
      <trkpt lat="44.07767" lon="6.165">
        <ele>732.6</ele>
        <time>2020-10-18T09:31:34Z</time>
      </trkpt>
      <trkpt lat="44.07767" lon="6.165">
        <ele>732.6</ele>
        <time>2020-10-18T09:31:35Z</time>
      </trkpt>
      <trkpt lat="44.07767" lon="6.165">
        <ele>732.4</ele>
        <time>2020-10-18T09:31:36Z</time>
      </trkpt>
      <trkpt lat="44.07767" lon="6.165">
        <ele>732.4</ele>
        <time>2020-10-18T09:31:37Z</time>
      </trkpt>
      <trkpt lat="44.07768" lon="6.16501">
        <ele>732.4</ele>
        <time>2020-10-18T09:31:38Z</time>
      </trkpt>
      <trkpt lat="44.07769" lon="6.16501">
        <ele>732.4</ele>
        <time>2020-10-18T09:31:39Z</time>
      </trkpt>
      <trkpt lat="44.0777" lon="6.16502">
        <ele>732.4</ele>
        <time>2020-10-18T09:31:41Z</time>
      </trkpt>
      <trkpt lat="44.0777" lon="6.16502">
        <ele>732.6</ele>
        <time>2020-10-18T09:31:42Z</time>
      </trkpt>
      <trkpt lat="44.07771" lon="6.16502">
        <ele>732.6</ele>
        <time>2020-10-18T09:31:43Z</time>
      </trkpt>
      <trkpt lat="44.07771" lon="6.16502">
        <ele>733</ele>
        <time>2020-10-18T09:31:44Z</time>
      </trkpt>
      <trkpt lat="44.07771" lon="6.16503">
        <ele>733.2</ele>
        <time>2020-10-18T09:31:45Z</time>
      </trkpt>
      <trkpt lat="44.07771" lon="6.16505">
        <ele>733.6</ele>
        <time>2020-10-18T09:31:47Z</time>
      </trkpt>
      <trkpt lat="44.07769" lon="6.16508">
        <ele>733.8</ele>
        <time>2020-10-18T09:31:49Z</time>
      </trkpt>
      <trkpt lat="44.0777" lon="6.1651">
        <ele>733.8</ele>
        <time>2020-10-18T09:31:50Z</time>
      </trkpt>
      <trkpt lat="44.0777" lon="6.16512">
        <ele>733.6</ele>
        <time>2020-10-18T09:31:51Z</time>
      </trkpt>
      <trkpt lat="44.0777" lon="6.16514">
        <ele>733.8</ele>
        <time>2020-10-18T09:31:52Z</time>
      </trkpt>
      <trkpt lat="44.0777" lon="6.16516">
        <ele>733.8</ele>
        <time>2020-10-18T09:31:53Z</time>
      </trkpt>
      <trkpt lat="44.07769" lon="6.16517">
        <ele>733.8</ele>
        <time>2020-10-18T09:31:54Z</time>
      </trkpt>
      <trkpt lat="44.07767" lon="6.16517">
        <ele>733.8</ele>
        <time>2020-10-18T09:31:55Z</time>
      </trkpt>
      <trkpt lat="44.07765" lon="6.16517">
        <ele>733.8</ele>
        <time>2020-10-18T09:31:56Z</time>
      </trkpt>
      <trkpt lat="44.07762" lon="6.16517">
        <ele>733.6</ele>
        <time>2020-10-18T09:31:57Z</time>
      </trkpt>
      <trkpt lat="44.07759" lon="6.16516">
        <ele>733</ele>
        <time>2020-10-18T09:31:58Z</time>
      </trkpt>
      <trkpt lat="44.07757" lon="6.16516">
        <ele>732.4</ele>
        <time>2020-10-18T09:31:59Z</time>
      </trkpt>
      <trkpt lat="44.07756" lon="6.16515">
        <ele>732.4</ele>
        <time>2020-10-18T09:32:00Z</time>
      </trkpt>
      <trkpt lat="44.07754" lon="6.16515">
        <ele>731.6</ele>
        <time>2020-10-18T09:32:01Z</time>
      </trkpt>
      <trkpt lat="44.07752" lon="6.16517">
        <ele>731.4</ele>
        <time>2020-10-18T09:32:02Z</time>
      </trkpt>
      <trkpt lat="44.0775" lon="6.1652">
        <ele>730.6</ele>
        <time>2020-10-18T09:32:03Z</time>
      </trkpt>
      <trkpt lat="44.07749" lon="6.16524">
        <ele>730</ele>
        <time>2020-10-18T09:32:04Z</time>
      </trkpt>
      <trkpt lat="44.07747" lon="6.16529">
        <ele>729.6</ele>
        <time>2020-10-18T09:32:05Z</time>
      </trkpt>
      <trkpt lat="44.07744" lon="6.1654">
        <ele>728.2</ele>
        <time>2020-10-18T09:32:07Z</time>
      </trkpt>
      <trkpt lat="44.07743" lon="6.16545">
        <ele>727.8</ele>
        <time>2020-10-18T09:32:08Z</time>
      </trkpt>
      <trkpt lat="44.07741" lon="6.16551">
        <ele>727.4</ele>
        <time>2020-10-18T09:32:09Z</time>
      </trkpt>
      <trkpt lat="44.0774" lon="6.16557">
        <ele>727.2</ele>
        <time>2020-10-18T09:32:10Z</time>
      </trkpt>
      <trkpt lat="44.07739" lon="6.16563">
        <ele>726.6</ele>
        <time>2020-10-18T09:32:11Z</time>
      </trkpt>
      <trkpt lat="44.07739" lon="6.16577">
        <ele>725.2</ele>
        <time>2020-10-18T09:32:13Z</time>
      </trkpt>
      <trkpt lat="44.07738" lon="6.16585">
        <ele>724.4</ele>
        <time>2020-10-18T09:32:14Z</time>
      </trkpt>
      <trkpt lat="44.07738" lon="6.16593">
        <ele>723.8</ele>
        <time>2020-10-18T09:32:15Z</time>
      </trkpt>
      <trkpt lat="44.07738" lon="6.166">
        <ele>723.4</ele>
        <time>2020-10-18T09:32:16Z</time>
      </trkpt>
      <trkpt lat="44.07737" lon="6.16607">
        <ele>723.2</ele>
        <time>2020-10-18T09:32:17Z</time>
      </trkpt>
      <trkpt lat="44.07736" lon="6.16613">
        <ele>723</ele>
        <time>2020-10-18T09:32:18Z</time>
      </trkpt>
      <trkpt lat="44.07735" lon="6.16617">
        <ele>723</ele>
        <time>2020-10-18T09:32:19Z</time>
      </trkpt>
      <trkpt lat="44.07735" lon="6.16621">
        <ele>722.6</ele>
        <time>2020-10-18T09:32:20Z</time>
      </trkpt>
      <trkpt lat="44.07735" lon="6.16624">
        <ele>722.6</ele>
        <time>2020-10-18T09:32:21Z</time>
      </trkpt>
      <trkpt lat="44.07735" lon="6.16628">
        <ele>722.6</ele>
        <time>2020-10-18T09:32:22Z</time>
      </trkpt>
      <trkpt lat="44.07737" lon="6.16632">
        <ele>721.8</ele>
        <time>2020-10-18T09:32:23Z</time>
      </trkpt>
      <trkpt lat="44.07738" lon="6.16638">
        <ele>721.4</ele>
        <time>2020-10-18T09:32:24Z</time>
      </trkpt>
      <trkpt lat="44.07739" lon="6.16644">
        <ele>720.8</ele>
        <time>2020-10-18T09:32:25Z</time>
      </trkpt>
      <trkpt lat="44.0774" lon="6.16651">
        <ele>720.4</ele>
        <time>2020-10-18T09:32:26Z</time>
      </trkpt>
      <trkpt lat="44.07739" lon="6.16658">
        <ele>720.4</ele>
        <time>2020-10-18T09:32:27Z</time>
      </trkpt>
      <trkpt lat="44.07738" lon="6.16665">
        <ele>720</ele>
        <time>2020-10-18T09:32:28Z</time>
      </trkpt>
      <trkpt lat="44.07737" lon="6.16672">
        <ele>719.8</ele>
        <time>2020-10-18T09:32:29Z</time>
      </trkpt>
      <trkpt lat="44.07735" lon="6.16679">
        <ele>719.6</ele>
        <time>2020-10-18T09:32:30Z</time>
      </trkpt>
      <trkpt lat="44.07733" lon="6.16685">
        <ele>719.4</ele>
        <time>2020-10-18T09:32:31Z</time>
      </trkpt>
      <trkpt lat="44.07732" lon="6.1669">
        <ele>719.4</ele>
        <time>2020-10-18T09:32:32Z</time>
      </trkpt>
      <trkpt lat="44.07732" lon="6.16691">
        <ele>719.2</ele>
        <time>2020-10-18T09:32:33Z</time>
      </trkpt>
      <trkpt lat="44.07732" lon="6.16692">
        <ele>717.8</ele>
        <time>2020-10-18T09:32:34Z</time>
      </trkpt>
      <trkpt lat="44.07733" lon="6.16694">
        <ele>717</ele>
        <time>2020-10-18T09:32:35Z</time>
      </trkpt>
      <trkpt lat="44.07734" lon="6.16695">
        <ele>716</ele>
        <time>2020-10-18T09:32:36Z</time>
      </trkpt>
      <trkpt lat="44.07735" lon="6.16697">
        <ele>715.6</ele>
        <time>2020-10-18T09:32:37Z</time>
      </trkpt>
      <trkpt lat="44.07736" lon="6.16701">
        <ele>715</ele>
        <time>2020-10-18T09:32:38Z</time>
      </trkpt>
      <trkpt lat="44.07738" lon="6.16705">
        <ele>715</ele>
        <time>2020-10-18T09:32:39Z</time>
      </trkpt>
      <trkpt lat="44.07739" lon="6.1671">
        <ele>714.6</ele>
        <time>2020-10-18T09:32:40Z</time>
      </trkpt>
      <trkpt lat="44.07741" lon="6.16713">
        <ele>714.6</ele>
        <time>2020-10-18T09:32:41Z</time>
      </trkpt>
      <trkpt lat="44.07742" lon="6.16716">
        <ele>714.6</ele>
        <time>2020-10-18T09:32:42Z</time>
      </trkpt>
      <trkpt lat="44.07744" lon="6.16719">
        <ele>714.6</ele>
        <time>2020-10-18T09:32:43Z</time>
      </trkpt>
      <trkpt lat="44.07745" lon="6.16722">
        <ele>714.2</ele>
        <time>2020-10-18T09:32:44Z</time>
      </trkpt>
      <trkpt lat="44.07744" lon="6.16725">
        <ele>714</ele>
        <time>2020-10-18T09:32:45Z</time>
      </trkpt>
      <trkpt lat="44.07743" lon="6.16726">
        <ele>713.8</ele>
        <time>2020-10-18T09:32:46Z</time>
      </trkpt>
      <trkpt lat="44.0774" lon="6.16726">
        <ele>713.8</ele>
        <time>2020-10-18T09:32:47Z</time>
      </trkpt>
      <trkpt lat="44.07737" lon="6.16725">
        <ele>712.2</ele>
        <time>2020-10-18T09:32:48Z</time>
      </trkpt>
      <trkpt lat="44.07734" lon="6.16725">
        <ele>711.2</ele>
        <time>2020-10-18T09:32:49Z</time>
      </trkpt>
      <trkpt lat="44.07728" lon="6.16726">
        <ele>710</ele>
        <time>2020-10-18T09:32:51Z</time>
      </trkpt>
      <trkpt lat="44.07725" lon="6.16728">
        <ele>709.4</ele>
        <time>2020-10-18T09:32:52Z</time>
      </trkpt>
      <trkpt lat="44.07724" lon="6.16729">
        <ele>708.2</ele>
        <time>2020-10-18T09:32:53Z</time>
      </trkpt>
      <trkpt lat="44.07724" lon="6.16731">
        <ele>707.4</ele>
        <time>2020-10-18T09:32:54Z</time>
      </trkpt>
      <trkpt lat="44.07724" lon="6.16733">
        <ele>706.6</ele>
        <time>2020-10-18T09:32:55Z</time>
      </trkpt>
      <trkpt lat="44.07725" lon="6.16736">
        <ele>705.8</ele>
        <time>2020-10-18T09:32:56Z</time>
      </trkpt>
      <trkpt lat="44.07726" lon="6.16739">
        <ele>705.4</ele>
        <time>2020-10-18T09:32:57Z</time>
      </trkpt>
      <trkpt lat="44.07728" lon="6.16745">
        <ele>704.6</ele>
        <time>2020-10-18T09:32:59Z</time>
      </trkpt>
      <trkpt lat="44.07728" lon="6.1675">
        <ele>704</ele>
        <time>2020-10-18T09:33:00Z</time>
      </trkpt>
      <trkpt lat="44.07728" lon="6.16754">
        <ele>703.2</ele>
        <time>2020-10-18T09:33:01Z</time>
      </trkpt>
      <trkpt lat="44.07727" lon="6.16763">
        <ele>702.6</ele>
        <time>2020-10-18T09:33:03Z</time>
      </trkpt>
      <trkpt lat="44.07726" lon="6.16767">
        <ele>702</ele>
        <time>2020-10-18T09:33:04Z</time>
      </trkpt>
      <trkpt lat="44.07724" lon="6.1677">
        <ele>701.6</ele>
        <time>2020-10-18T09:33:05Z</time>
      </trkpt>
      <trkpt lat="44.07722" lon="6.16774">
        <ele>700.8</ele>
        <time>2020-10-18T09:33:06Z</time>
      </trkpt>
      <trkpt lat="44.07721" lon="6.16779">
        <ele>699.4</ele>
        <time>2020-10-18T09:33:07Z</time>
      </trkpt>
      <trkpt lat="44.07721" lon="6.16785">
        <ele>698.8</ele>
        <time>2020-10-18T09:33:08Z</time>
      </trkpt>
      <trkpt lat="44.07721" lon="6.1679">
        <ele>698.2</ele>
        <time>2020-10-18T09:33:09Z</time>
      </trkpt>
      <trkpt lat="44.0772" lon="6.16794">
        <ele>697.6</ele>
        <time>2020-10-18T09:33:10Z</time>
      </trkpt>
      <trkpt lat="44.07717" lon="6.16799">
        <ele>697</ele>
        <time>2020-10-18T09:33:11Z</time>
      </trkpt>
      <trkpt lat="44.07714" lon="6.16804">
        <ele>696.8</ele>
        <time>2020-10-18T09:33:12Z</time>
      </trkpt>
      <trkpt lat="44.07712" lon="6.16808">
        <ele>696.4</ele>
        <time>2020-10-18T09:33:13Z</time>
      </trkpt>
      <trkpt lat="44.0771" lon="6.16812">
        <ele>695.6</ele>
        <time>2020-10-18T09:33:14Z</time>
      </trkpt>
      <trkpt lat="44.07708" lon="6.16816">
        <ele>694.4</ele>
        <time>2020-10-18T09:33:15Z</time>
      </trkpt>
      <trkpt lat="44.07707" lon="6.16819">
        <ele>693.8</ele>
        <time>2020-10-18T09:33:16Z</time>
      </trkpt>
      <trkpt lat="44.07706" lon="6.16822">
        <ele>693.4</ele>
        <time>2020-10-18T09:33:17Z</time>
      </trkpt>
      <trkpt lat="44.07705" lon="6.16825">
        <ele>693</ele>
        <time>2020-10-18T09:33:18Z</time>
      </trkpt>
      <trkpt lat="44.07703" lon="6.1683">
        <ele>692.8</ele>
        <time>2020-10-18T09:33:19Z</time>
      </trkpt>
      <trkpt lat="44.07701" lon="6.16836">
        <ele>692.4</ele>
        <time>2020-10-18T09:33:21Z</time>
      </trkpt>
      <trkpt lat="44.07699" lon="6.16837">
        <ele>692.4</ele>
        <time>2020-10-18T09:33:22Z</time>
      </trkpt>
      <trkpt lat="44.07697" lon="6.16837">
        <ele>692.4</ele>
        <time>2020-10-18T09:33:23Z</time>
      </trkpt>
      <trkpt lat="44.07695" lon="6.16838">
        <ele>692</ele>
        <time>2020-10-18T09:33:24Z</time>
      </trkpt>
      <trkpt lat="44.07692" lon="6.1684">
        <ele>692</ele>
        <time>2020-10-18T09:33:25Z</time>
      </trkpt>
      <trkpt lat="44.0769" lon="6.16842">
        <ele>691.8</ele>
        <time>2020-10-18T09:33:26Z</time>
      </trkpt>
      <trkpt lat="44.07688" lon="6.16844">
        <ele>691.6</ele>
        <time>2020-10-18T09:33:27Z</time>
      </trkpt>
      <trkpt lat="44.07688" lon="6.16846">
        <ele>691.4</ele>
        <time>2020-10-18T09:33:28Z</time>
      </trkpt>
      <trkpt lat="44.07689" lon="6.16848">
        <ele>691.2</ele>
        <time>2020-10-18T09:33:29Z</time>
      </trkpt>
      <trkpt lat="44.07692" lon="6.16854">
        <ele>690.8</ele>
        <time>2020-10-18T09:33:31Z</time>
      </trkpt>
      <trkpt lat="44.07693" lon="6.16858">
        <ele>690.4</ele>
        <time>2020-10-18T09:33:32Z</time>
      </trkpt>
      <trkpt lat="44.07694" lon="6.16862">
        <ele>689.8</ele>
        <time>2020-10-18T09:33:33Z</time>
      </trkpt>
      <trkpt lat="44.07696" lon="6.16869">
        <ele>688.2</ele>
        <time>2020-10-18T09:33:35Z</time>
      </trkpt>
      <trkpt lat="44.07695" lon="6.16872">
        <ele>687.6</ele>
        <time>2020-10-18T09:33:36Z</time>
      </trkpt>
      <trkpt lat="44.07693" lon="6.16873">
        <ele>687</ele>
        <time>2020-10-18T09:33:37Z</time>
      </trkpt>
      <trkpt lat="44.07688" lon="6.16875">
        <ele>686</ele>
        <time>2020-10-18T09:33:39Z</time>
      </trkpt>
      <trkpt lat="44.07687" lon="6.16877">
        <ele>685.2</ele>
        <time>2020-10-18T09:33:40Z</time>
      </trkpt>
      <trkpt lat="44.07685" lon="6.16879">
        <ele>683.8</ele>
        <time>2020-10-18T09:33:41Z</time>
      </trkpt>
      <trkpt lat="44.07684" lon="6.16881">
        <ele>683.8</ele>
        <time>2020-10-18T09:33:42Z</time>
      </trkpt>
      <trkpt lat="44.07682" lon="6.16882">
        <ele>683.4</ele>
        <time>2020-10-18T09:33:43Z</time>
      </trkpt>
      <trkpt lat="44.0768" lon="6.16884">
        <ele>682.8</ele>
        <time>2020-10-18T09:33:44Z</time>
      </trkpt>
      <trkpt lat="44.07678" lon="6.16886">
        <ele>682.2</ele>
        <time>2020-10-18T09:33:45Z</time>
      </trkpt>
      <trkpt lat="44.07676" lon="6.1689">
        <ele>681.8</ele>
        <time>2020-10-18T09:33:46Z</time>
      </trkpt>
      <trkpt lat="44.07674" lon="6.16895">
        <ele>681.2</ele>
        <time>2020-10-18T09:33:47Z</time>
      </trkpt>
      <trkpt lat="44.07672" lon="6.169">
        <ele>680.8</ele>
        <time>2020-10-18T09:33:48Z</time>
      </trkpt>
      <trkpt lat="44.0767" lon="6.16905">
        <ele>680.2</ele>
        <time>2020-10-18T09:33:49Z</time>
      </trkpt>
      <trkpt lat="44.07668" lon="6.16909">
        <ele>680.2</ele>
        <time>2020-10-18T09:33:50Z</time>
      </trkpt>
      <trkpt lat="44.07665" lon="6.16912">
        <ele>680</ele>
        <time>2020-10-18T09:33:51Z</time>
      </trkpt>
      <trkpt lat="44.07663" lon="6.16915">
        <ele>679.8</ele>
        <time>2020-10-18T09:33:52Z</time>
      </trkpt>
      <trkpt lat="44.07661" lon="6.16918">
        <ele>679.6</ele>
        <time>2020-10-18T09:33:53Z</time>
      </trkpt>
      <trkpt lat="44.07659" lon="6.16921">
        <ele>679.4</ele>
        <time>2020-10-18T09:33:54Z</time>
      </trkpt>
      <trkpt lat="44.07657" lon="6.16922">
        <ele>679</ele>
        <time>2020-10-18T09:33:55Z</time>
      </trkpt>
      <trkpt lat="44.07655" lon="6.16923">
        <ele>678.4</ele>
        <time>2020-10-18T09:33:56Z</time>
      </trkpt>
      <trkpt lat="44.07652" lon="6.16923">
        <ele>677.6</ele>
        <time>2020-10-18T09:33:57Z</time>
      </trkpt>
      <trkpt lat="44.07649" lon="6.16921">
        <ele>676.2</ele>
        <time>2020-10-18T09:33:58Z</time>
      </trkpt>
      <trkpt lat="44.07647" lon="6.1692">
        <ele>675.4</ele>
        <time>2020-10-18T09:33:59Z</time>
      </trkpt>
      <trkpt lat="44.07644" lon="6.16919">
        <ele>674.2</ele>
        <time>2020-10-18T09:34:00Z</time>
      </trkpt>
      <trkpt lat="44.07642" lon="6.16919">
        <ele>672.8</ele>
        <time>2020-10-18T09:34:01Z</time>
      </trkpt>
      <trkpt lat="44.0764" lon="6.1692">
        <ele>671.8</ele>
        <time>2020-10-18T09:34:02Z</time>
      </trkpt>
      <trkpt lat="44.07639" lon="6.16922">
        <ele>671.8</ele>
        <time>2020-10-18T09:34:03Z</time>
      </trkpt>
      <trkpt lat="44.07637" lon="6.16924">
        <ele>671</ele>
        <time>2020-10-18T09:34:04Z</time>
      </trkpt>
      <trkpt lat="44.07635" lon="6.16926">
        <ele>670.4</ele>
        <time>2020-10-18T09:34:05Z</time>
      </trkpt>
      <trkpt lat="44.07632" lon="6.16928">
        <ele>669.8</ele>
        <time>2020-10-18T09:34:06Z</time>
      </trkpt>
      <trkpt lat="44.07628" lon="6.1693">
        <ele>668.6</ele>
        <time>2020-10-18T09:34:07Z</time>
      </trkpt>
      <trkpt lat="44.07622" lon="6.16935">
        <ele>667.2</ele>
        <time>2020-10-18T09:34:09Z</time>
      </trkpt>
      <trkpt lat="44.07619" lon="6.16938">
        <ele>667</ele>
        <time>2020-10-18T09:34:10Z</time>
      </trkpt>
      <trkpt lat="44.07615" lon="6.16941">
        <ele>666.4</ele>
        <time>2020-10-18T09:34:11Z</time>
      </trkpt>
      <trkpt lat="44.07611" lon="6.16945">
        <ele>666</ele>
        <time>2020-10-18T09:34:12Z</time>
      </trkpt>
      <trkpt lat="44.07608" lon="6.16949">
        <ele>665.2</ele>
        <time>2020-10-18T09:34:13Z</time>
      </trkpt>
      <trkpt lat="44.07606" lon="6.16952">
        <ele>664.4</ele>
        <time>2020-10-18T09:34:14Z</time>
      </trkpt>
      <trkpt lat="44.07605" lon="6.16956">
        <ele>663.2</ele>
        <time>2020-10-18T09:34:15Z</time>
      </trkpt>
      <trkpt lat="44.07603" lon="6.16961">
        <ele>662.6</ele>
        <time>2020-10-18T09:34:16Z</time>
      </trkpt>
      <trkpt lat="44.07601" lon="6.16965">
        <ele>662.2</ele>
        <time>2020-10-18T09:34:17Z</time>
      </trkpt>
      <trkpt lat="44.07596" lon="6.16971">
        <ele>661.2</ele>
        <time>2020-10-18T09:34:19Z</time>
      </trkpt>
      <trkpt lat="44.07592" lon="6.16973">
        <ele>661</ele>
        <time>2020-10-18T09:34:20Z</time>
      </trkpt>
      <trkpt lat="44.07589" lon="6.16975">
        <ele>660.4</ele>
        <time>2020-10-18T09:34:21Z</time>
      </trkpt>
      <trkpt lat="44.07587" lon="6.16977">
        <ele>660</ele>
        <time>2020-10-18T09:34:22Z</time>
      </trkpt>
      <trkpt lat="44.07584" lon="6.16979">
        <ele>660</ele>
        <time>2020-10-18T09:34:23Z</time>
      </trkpt>
      <trkpt lat="44.0758" lon="6.16986">
        <ele>659.8</ele>
        <time>2020-10-18T09:34:25Z</time>
      </trkpt>
      <trkpt lat="44.07578" lon="6.16989">
        <ele>659.4</ele>
        <time>2020-10-18T09:34:26Z</time>
      </trkpt>
      <trkpt lat="44.07576" lon="6.16992">
        <ele>659.2</ele>
        <time>2020-10-18T09:34:27Z</time>
      </trkpt>
      <trkpt lat="44.07574" lon="6.16995">
        <ele>659.2</ele>
        <time>2020-10-18T09:34:28Z</time>
      </trkpt>
      <trkpt lat="44.07572" lon="6.16998">
        <ele>659</ele>
        <time>2020-10-18T09:34:29Z</time>
      </trkpt>
      <trkpt lat="44.07571" lon="6.17001">
        <ele>659</ele>
        <time>2020-10-18T09:34:30Z</time>
      </trkpt>
      <trkpt lat="44.0757" lon="6.17005">
        <ele>658.8</ele>
        <time>2020-10-18T09:34:31Z</time>
      </trkpt>
      <trkpt lat="44.0757" lon="6.17009">
        <ele>658.8</ele>
        <time>2020-10-18T09:34:32Z</time>
      </trkpt>
      <trkpt lat="44.07571" lon="6.17013">
        <ele>658.8</ele>
        <time>2020-10-18T09:34:33Z</time>
      </trkpt>
      <trkpt lat="44.07572" lon="6.17018">
        <ele>658.6</ele>
        <time>2020-10-18T09:34:34Z</time>
      </trkpt>
      <trkpt lat="44.07573" lon="6.17023">
        <ele>658.6</ele>
        <time>2020-10-18T09:34:35Z</time>
      </trkpt>
      <trkpt lat="44.07573" lon="6.17027">
        <ele>658.6</ele>
        <time>2020-10-18T09:34:36Z</time>
      </trkpt>
      <trkpt lat="44.07573" lon="6.17031">
        <ele>658.4</ele>
        <time>2020-10-18T09:34:37Z</time>
      </trkpt>
      <trkpt lat="44.07573" lon="6.17035">
        <ele>658.4</ele>
        <time>2020-10-18T09:34:38Z</time>
      </trkpt>
      <trkpt lat="44.07574" lon="6.17039">
        <ele>658.2</ele>
        <time>2020-10-18T09:34:39Z</time>
      </trkpt>
      <trkpt lat="44.07575" lon="6.17043">
        <ele>658</ele>
        <time>2020-10-18T09:34:40Z</time>
      </trkpt>
      <trkpt lat="44.07575" lon="6.17047">
        <ele>657.6</ele>
        <time>2020-10-18T09:34:41Z</time>
      </trkpt>
      <trkpt lat="44.07575" lon="6.17052">
        <ele>657.6</ele>
        <time>2020-10-18T09:34:42Z</time>
      </trkpt>
      <trkpt lat="44.07576" lon="6.17056">
        <ele>657.2</ele>
        <time>2020-10-18T09:34:43Z</time>
      </trkpt>
      <trkpt lat="44.07575" lon="6.17067">
        <ele>656.2</ele>
        <time>2020-10-18T09:34:45Z</time>
      </trkpt>
      <trkpt lat="44.07574" lon="6.17072">
        <ele>656</ele>
        <time>2020-10-18T09:34:46Z</time>
      </trkpt>
      <trkpt lat="44.07573" lon="6.17077">
        <ele>655.6</ele>
        <time>2020-10-18T09:34:47Z</time>
      </trkpt>
      <trkpt lat="44.07571" lon="6.17083">
        <ele>655.6</ele>
        <time>2020-10-18T09:34:48Z</time>
      </trkpt>
      <trkpt lat="44.07569" lon="6.17088">
        <ele>655.4</ele>
        <time>2020-10-18T09:34:49Z</time>
      </trkpt>
      <trkpt lat="44.07568" lon="6.17093">
        <ele>655.4</ele>
        <time>2020-10-18T09:34:50Z</time>
      </trkpt>
      <trkpt lat="44.07567" lon="6.17098">
        <ele>655</ele>
        <time>2020-10-18T09:34:51Z</time>
      </trkpt>
      <trkpt lat="44.07567" lon="6.17104">
        <ele>654.6</ele>
        <time>2020-10-18T09:34:52Z</time>
      </trkpt>
      <trkpt lat="44.07566" lon="6.17109">
        <ele>654.4</ele>
        <time>2020-10-18T09:34:53Z</time>
      </trkpt>
      <trkpt lat="44.07565" lon="6.17121">
        <ele>653</ele>
        <time>2020-10-18T09:34:55Z</time>
      </trkpt>
      <trkpt lat="44.07563" lon="6.1713">
        <ele>651.2</ele>
        <time>2020-10-18T09:34:57Z</time>
      </trkpt>
      <trkpt lat="44.07563" lon="6.17133">
        <ele>650.4</ele>
        <time>2020-10-18T09:34:58Z</time>
      </trkpt>
      <trkpt lat="44.07562" lon="6.17137">
        <ele>649.2</ele>
        <time>2020-10-18T09:34:59Z</time>
      </trkpt>
      <trkpt lat="44.07562" lon="6.17145">
        <ele>646.8</ele>
        <time>2020-10-18T09:35:01Z</time>
      </trkpt>
      <trkpt lat="44.07561" lon="6.17151">
        <ele>645.8</ele>
        <time>2020-10-18T09:35:02Z</time>
      </trkpt>
      <trkpt lat="44.07561" lon="6.17156">
        <ele>645.8</ele>
        <time>2020-10-18T09:35:03Z</time>
      </trkpt>
      <trkpt lat="44.07562" lon="6.1716">
        <ele>645.4</ele>
        <time>2020-10-18T09:35:04Z</time>
      </trkpt>
      <trkpt lat="44.07563" lon="6.17164">
        <ele>643.8</ele>
        <time>2020-10-18T09:35:05Z</time>
      </trkpt>
      <trkpt lat="44.07562" lon="6.17168">
        <ele>642.8</ele>
        <time>2020-10-18T09:35:06Z</time>
      </trkpt>
      <trkpt lat="44.07562" lon="6.17173">
        <ele>642.4</ele>
        <time>2020-10-18T09:35:07Z</time>
      </trkpt>
      <trkpt lat="44.07562" lon="6.17177">
        <ele>641.8</ele>
        <time>2020-10-18T09:35:08Z</time>
      </trkpt>
      <trkpt lat="44.07563" lon="6.17182">
        <ele>641.4</ele>
        <time>2020-10-18T09:35:09Z</time>
      </trkpt>
      <trkpt lat="44.07564" lon="6.17187">
        <ele>641</ele>
        <time>2020-10-18T09:35:10Z</time>
      </trkpt>
      <trkpt lat="44.07564" lon="6.17192">
        <ele>640.4</ele>
        <time>2020-10-18T09:35:11Z</time>
      </trkpt>
      <trkpt lat="44.07564" lon="6.17196">
        <ele>639.4</ele>
        <time>2020-10-18T09:35:12Z</time>
      </trkpt>
      <trkpt lat="44.07564" lon="6.172">
        <ele>638.8</ele>
        <time>2020-10-18T09:35:13Z</time>
      </trkpt>
      <trkpt lat="44.07564" lon="6.17205">
        <ele>638</ele>
        <time>2020-10-18T09:35:14Z</time>
      </trkpt>
      <trkpt lat="44.07565" lon="6.17209">
        <ele>637.2</ele>
        <time>2020-10-18T09:35:15Z</time>
      </trkpt>
      <trkpt lat="44.07567" lon="6.17212">
        <ele>636.6</ele>
        <time>2020-10-18T09:35:16Z</time>
      </trkpt>
      <trkpt lat="44.07569" lon="6.17215">
        <ele>636</ele>
        <time>2020-10-18T09:35:17Z</time>
      </trkpt>
      <trkpt lat="44.0757" lon="6.17219">
        <ele>635.4</ele>
        <time>2020-10-18T09:35:18Z</time>
      </trkpt>
      <trkpt lat="44.07571" lon="6.17223">
        <ele>634.6</ele>
        <time>2020-10-18T09:35:19Z</time>
      </trkpt>
      <trkpt lat="44.07572" lon="6.17226">
        <ele>634.4</ele>
        <time>2020-10-18T09:35:20Z</time>
      </trkpt>
      <trkpt lat="44.07573" lon="6.17228">
        <ele>634.2</ele>
        <time>2020-10-18T09:35:21Z</time>
      </trkpt>
      <trkpt lat="44.07574" lon="6.1723">
        <ele>634.2</ele>
        <time>2020-10-18T09:35:22Z</time>
      </trkpt>
      <trkpt lat="44.07574" lon="6.17232">
        <ele>633.4</ele>
        <time>2020-10-18T09:35:23Z</time>
      </trkpt>
      <trkpt lat="44.07574" lon="6.17233">
        <ele>632.8</ele>
        <time>2020-10-18T09:35:24Z</time>
      </trkpt>
      <trkpt lat="44.07574" lon="6.17234">
        <ele>632.2</ele>
        <time>2020-10-18T09:35:25Z</time>
      </trkpt>
      <trkpt lat="44.07573" lon="6.17235">
        <ele>631.8</ele>
        <time>2020-10-18T09:35:26Z</time>
      </trkpt>
      <trkpt lat="44.07573" lon="6.17235">
        <ele>631.4</ele>
        <time>2020-10-18T09:35:27Z</time>
      </trkpt>
      <trkpt lat="44.07573" lon="6.17236">
        <ele>631</ele>
        <time>2020-10-18T09:35:28Z</time>
      </trkpt>
      <trkpt lat="44.07572" lon="6.17237">
        <ele>630.8</ele>
        <time>2020-10-18T09:35:29Z</time>
      </trkpt>
      <trkpt lat="44.07572" lon="6.17237">
        <ele>630</ele>
        <time>2020-10-18T09:35:30Z</time>
      </trkpt>
      <trkpt lat="44.07571" lon="6.17238">
        <ele>629.4</ele>
        <time>2020-10-18T09:35:31Z</time>
      </trkpt>
      <trkpt lat="44.0757" lon="6.17239">
        <ele>628.4</ele>
        <time>2020-10-18T09:35:33Z</time>
      </trkpt>
      <trkpt lat="44.0757" lon="6.17239">
        <ele>627.8</ele>
        <time>2020-10-18T09:35:34Z</time>
      </trkpt>
      <trkpt lat="44.07569" lon="6.17239">
        <ele>627.6</ele>
        <time>2020-10-18T09:35:35Z</time>
      </trkpt>
      <trkpt lat="44.07568" lon="6.17239">
        <ele>627.4</ele>
        <time>2020-10-18T09:35:36Z</time>
      </trkpt>
      <trkpt lat="44.07567" lon="6.17239">
        <ele>627.4</ele>
        <time>2020-10-18T09:35:37Z</time>
      </trkpt>
      <trkpt lat="44.07566" lon="6.17239">
        <ele>627.2</ele>
        <time>2020-10-18T09:35:38Z</time>
      </trkpt>
      <trkpt lat="44.07566" lon="6.17239">
        <ele>626.8</ele>
        <time>2020-10-18T09:35:39Z</time>
      </trkpt>
      <trkpt lat="44.07565" lon="6.17239">
        <ele>626.4</ele>
        <time>2020-10-18T09:35:40Z</time>
      </trkpt>
      <trkpt lat="44.07564" lon="6.17238">
        <ele>626.2</ele>
        <time>2020-10-18T09:35:41Z</time>
      </trkpt>
      <trkpt lat="44.07562" lon="6.17238">
        <ele>625.8</ele>
        <time>2020-10-18T09:35:43Z</time>
      </trkpt>
      <trkpt lat="44.0756" lon="6.17236">
        <ele>625.8</ele>
        <time>2020-10-18T09:35:44Z</time>
      </trkpt>
      <trkpt lat="44.07558" lon="6.17234">
        <ele>625.6</ele>
        <time>2020-10-18T09:35:45Z</time>
      </trkpt>
      <trkpt lat="44.07553" lon="6.17232">
        <ele>624.8</ele>
        <time>2020-10-18T09:35:47Z</time>
      </trkpt>
      <trkpt lat="44.0755" lon="6.17231">
        <ele>624.4</ele>
        <time>2020-10-18T09:35:48Z</time>
      </trkpt>
      <trkpt lat="44.07548" lon="6.1723">
        <ele>624.2</ele>
        <time>2020-10-18T09:35:49Z</time>
      </trkpt>
      <trkpt lat="44.07545" lon="6.17224">
        <ele>623.8</ele>
        <time>2020-10-18T09:35:51Z</time>
      </trkpt>
      <trkpt lat="44.07544" lon="6.17221">
        <ele>623.8</ele>
        <time>2020-10-18T09:35:52Z</time>
      </trkpt>
      <trkpt lat="44.07543" lon="6.17218">
        <ele>623.4</ele>
        <time>2020-10-18T09:35:53Z</time>
      </trkpt>
      <trkpt lat="44.07542" lon="6.17215">
        <ele>622.6</ele>
        <time>2020-10-18T09:35:54Z</time>
      </trkpt>
      <trkpt lat="44.0754" lon="6.17211">
        <ele>622.2</ele>
        <time>2020-10-18T09:35:55Z</time>
      </trkpt>
      <trkpt lat="44.07537" lon="6.17203">
        <ele>621.4</ele>
        <time>2020-10-18T09:35:57Z</time>
      </trkpt>
      <trkpt lat="44.07536" lon="6.17195">
        <ele>621</ele>
        <time>2020-10-18T09:35:59Z</time>
      </trkpt>
      <trkpt lat="44.07535" lon="6.17191">
        <ele>620.8</ele>
        <time>2020-10-18T09:36:00Z</time>
      </trkpt>
      <trkpt lat="44.07533" lon="6.17186">
        <ele>620.8</ele>
        <time>2020-10-18T09:36:01Z</time>
      </trkpt>
      <trkpt lat="44.07531" lon="6.17178">
        <ele>620.8</ele>
        <time>2020-10-18T09:36:03Z</time>
      </trkpt>
      <trkpt lat="44.07531" lon="6.17174">
        <ele>620.6</ele>
        <time>2020-10-18T09:36:04Z</time>
      </trkpt>
      <trkpt lat="44.0753" lon="6.1717">
        <ele>620.6</ele>
        <time>2020-10-18T09:36:05Z</time>
      </trkpt>
      <trkpt lat="44.07529" lon="6.17166">
        <ele>620.6</ele>
        <time>2020-10-18T09:36:06Z</time>
      </trkpt>
      <trkpt lat="44.07528" lon="6.17163">
        <ele>620.6</ele>
        <time>2020-10-18T09:36:07Z</time>
      </trkpt>
      <trkpt lat="44.07528" lon="6.17159">
        <ele>620.6</ele>
        <time>2020-10-18T09:36:08Z</time>
      </trkpt>
      <trkpt lat="44.07527" lon="6.17155">
        <ele>620.8</ele>
        <time>2020-10-18T09:36:09Z</time>
      </trkpt>
      <trkpt lat="44.07525" lon="6.17146">
        <ele>621.2</ele>
        <time>2020-10-18T09:36:11Z</time>
      </trkpt>
      <trkpt lat="44.07523" lon="6.17138">
        <ele>621.2</ele>
        <time>2020-10-18T09:36:13Z</time>
      </trkpt>
      <trkpt lat="44.07522" lon="6.1713">
        <ele>621.6</ele>
        <time>2020-10-18T09:36:15Z</time>
      </trkpt>
      <trkpt lat="44.07521" lon="6.17126">
        <ele>621.6</ele>
        <time>2020-10-18T09:36:16Z</time>
      </trkpt>
      <trkpt lat="44.0752" lon="6.17122">
        <ele>621.8</ele>
        <time>2020-10-18T09:36:17Z</time>
      </trkpt>
      <trkpt lat="44.07517" lon="6.17114">
        <ele>622.2</ele>
        <time>2020-10-18T09:36:19Z</time>
      </trkpt>
      <trkpt lat="44.07515" lon="6.1711">
        <ele>622</ele>
        <time>2020-10-18T09:36:20Z</time>
      </trkpt>
      <trkpt lat="44.07513" lon="6.17105">
        <ele>622.4</ele>
        <time>2020-10-18T09:36:21Z</time>
      </trkpt>
      <trkpt lat="44.07511" lon="6.17101">
        <ele>622.4</ele>
        <time>2020-10-18T09:36:22Z</time>
      </trkpt>
      <trkpt lat="44.07508" lon="6.17097">
        <ele>622.2</ele>
        <time>2020-10-18T09:36:23Z</time>
      </trkpt>
      <trkpt lat="44.07503" lon="6.17089">
        <ele>622.2</ele>
        <time>2020-10-18T09:36:25Z</time>
      </trkpt>
      <trkpt lat="44.07499" lon="6.1708">
        <ele>622.2</ele>
        <time>2020-10-18T09:36:27Z</time>
      </trkpt>
      <trkpt lat="44.07498" lon="6.17076">
        <ele>622.2</ele>
        <time>2020-10-18T09:36:28Z</time>
      </trkpt>
      <trkpt lat="44.07497" lon="6.17073">
        <ele>622.4</ele>
        <time>2020-10-18T09:36:29Z</time>
      </trkpt>
      <trkpt lat="44.07495" lon="6.17069">
        <ele>622.2</ele>
        <time>2020-10-18T09:36:30Z</time>
      </trkpt>
      <trkpt lat="44.07493" lon="6.17064">
        <ele>622.4</ele>
        <time>2020-10-18T09:36:31Z</time>
      </trkpt>
      <trkpt lat="44.07491" lon="6.1706">
        <ele>622.4</ele>
        <time>2020-10-18T09:36:32Z</time>
      </trkpt>
      <trkpt lat="44.07489" lon="6.17055">
        <ele>622.2</ele>
        <time>2020-10-18T09:36:33Z</time>
      </trkpt>
      <trkpt lat="44.07487" lon="6.17047">
        <ele>622.2</ele>
        <time>2020-10-18T09:36:35Z</time>
      </trkpt>
      <trkpt lat="44.07486" lon="6.17044">
        <ele>622.4</ele>
        <time>2020-10-18T09:36:36Z</time>
      </trkpt>
      <trkpt lat="44.07486" lon="6.1704">
        <ele>622.4</ele>
        <time>2020-10-18T09:36:37Z</time>
      </trkpt>
      <trkpt lat="44.07486" lon="6.17036">
        <ele>622.4</ele>
        <time>2020-10-18T09:36:38Z</time>
      </trkpt>
      <trkpt lat="44.07486" lon="6.17033">
        <ele>622.4</ele>
        <time>2020-10-18T09:36:39Z</time>
      </trkpt>
      <trkpt lat="44.07486" lon="6.1703">
        <ele>622.4</ele>
        <time>2020-10-18T09:36:40Z</time>
      </trkpt>
      <trkpt lat="44.07486" lon="6.17029">
        <ele>622.4</ele>
        <time>2020-10-18T09:36:41Z</time>
      </trkpt>
      <trkpt lat="44.07486" lon="6.17027">
        <ele>622.6</ele>
        <time>2020-10-18T09:36:42Z</time>
      </trkpt>
      <trkpt lat="44.07485" lon="6.17025">
        <ele>622.6</ele>
        <time>2020-10-18T09:36:43Z</time>
      </trkpt>
      <trkpt lat="44.07485" lon="6.17024">
        <ele>622.6</ele>
        <time>2020-10-18T09:36:44Z</time>
      </trkpt>
      <trkpt lat="44.07484" lon="6.17023">
        <ele>622.8</ele>
        <time>2020-10-18T09:36:45Z</time>
      </trkpt>
      <trkpt lat="44.07484" lon="6.17022">
        <ele>622.6</ele>
        <time>2020-10-18T09:36:46Z</time>
      </trkpt>
      <trkpt lat="44.07482" lon="6.1702">
        <ele>622.8</ele>
        <time>2020-10-18T09:36:47Z</time>
      </trkpt>
      <trkpt lat="44.0748" lon="6.17018">
        <ele>622.6</ele>
        <time>2020-10-18T09:36:48Z</time>
      </trkpt>
      <trkpt lat="44.07477" lon="6.17015">
        <ele>622.6</ele>
        <time>2020-10-18T09:36:49Z</time>
      </trkpt>
      <trkpt lat="44.07474" lon="6.17009">
        <ele>622.6</ele>
        <time>2020-10-18T09:36:50Z</time>
      </trkpt>
      <trkpt lat="44.07472" lon="6.17003">
        <ele>622.6</ele>
        <time>2020-10-18T09:36:51Z</time>
      </trkpt>
      <trkpt lat="44.0747" lon="6.16997">
        <ele>622.4</ele>
        <time>2020-10-18T09:36:52Z</time>
      </trkpt>
      <trkpt lat="44.07468" lon="6.16989">
        <ele>622.2</ele>
        <time>2020-10-18T09:36:53Z</time>
      </trkpt>
      <trkpt lat="44.07467" lon="6.16982">
        <ele>622.2</ele>
        <time>2020-10-18T09:36:54Z</time>
      </trkpt>
      <trkpt lat="44.07465" lon="6.16976">
        <ele>622</ele>
        <time>2020-10-18T09:36:55Z</time>
      </trkpt>
      <trkpt lat="44.07463" lon="6.16969">
        <ele>621</ele>
        <time>2020-10-18T09:36:56Z</time>
      </trkpt>
      <trkpt lat="44.07461" lon="6.16964">
        <ele>620.2</ele>
        <time>2020-10-18T09:36:57Z</time>
      </trkpt>
      <trkpt lat="44.07459" lon="6.16959">
        <ele>617.8</ele>
        <time>2020-10-18T09:36:58Z</time>
      </trkpt>
      <trkpt lat="44.07457" lon="6.16954">
        <ele>616.4</ele>
        <time>2020-10-18T09:36:59Z</time>
      </trkpt>
      <trkpt lat="44.07455" lon="6.1695">
        <ele>615.4</ele>
        <time>2020-10-18T09:37:00Z</time>
      </trkpt>
      <trkpt lat="44.07453" lon="6.16946">
        <ele>615.4</ele>
        <time>2020-10-18T09:37:01Z</time>
      </trkpt>
      <trkpt lat="44.07451" lon="6.16941">
        <ele>614</ele>
        <time>2020-10-18T09:37:02Z</time>
      </trkpt>
      <trkpt lat="44.07449" lon="6.16937">
        <ele>613.4</ele>
        <time>2020-10-18T09:37:03Z</time>
      </trkpt>
      <trkpt lat="44.07447" lon="6.16933">
        <ele>612.8</ele>
        <time>2020-10-18T09:37:04Z</time>
      </trkpt>
      <trkpt lat="44.07445" lon="6.16928">
        <ele>612.6</ele>
        <time>2020-10-18T09:37:05Z</time>
      </trkpt>
      <trkpt lat="44.07443" lon="6.16922">
        <ele>612</ele>
        <time>2020-10-18T09:37:06Z</time>
      </trkpt>
      <trkpt lat="44.07441" lon="6.16917">
        <ele>611</ele>
        <time>2020-10-18T09:37:07Z</time>
      </trkpt>
      <trkpt lat="44.07438" lon="6.16911">
        <ele>610</ele>
        <time>2020-10-18T09:37:08Z</time>
      </trkpt>
      <trkpt lat="44.07436" lon="6.16906">
        <ele>608.6</ele>
        <time>2020-10-18T09:37:09Z</time>
      </trkpt>
      <trkpt lat="44.07434" lon="6.16902">
        <ele>608</ele>
        <time>2020-10-18T09:37:10Z</time>
      </trkpt>
      <trkpt lat="44.07432" lon="6.16896">
        <ele>607.4</ele>
        <time>2020-10-18T09:37:11Z</time>
      </trkpt>
      <trkpt lat="44.07426" lon="6.16886">
        <ele>606.6</ele>
        <time>2020-10-18T09:37:13Z</time>
      </trkpt>
      <trkpt lat="44.07423" lon="6.1688">
        <ele>605</ele>
        <time>2020-10-18T09:37:14Z</time>
      </trkpt>
      <trkpt lat="44.07419" lon="6.16874">
        <ele>604.2</ele>
        <time>2020-10-18T09:37:15Z</time>
      </trkpt>
      <trkpt lat="44.07412" lon="6.16863">
        <ele>602.4</ele>
        <time>2020-10-18T09:37:17Z</time>
      </trkpt>
      <trkpt lat="44.07408" lon="6.16857">
        <ele>602</ele>
        <time>2020-10-18T09:37:18Z</time>
      </trkpt>
      <trkpt lat="44.07405" lon="6.16852">
        <ele>601</ele>
        <time>2020-10-18T09:37:19Z</time>
      </trkpt>
      <trkpt lat="44.07402" lon="6.16848">
        <ele>601</ele>
        <time>2020-10-18T09:37:20Z</time>
      </trkpt>
      <trkpt lat="44.07399" lon="6.16844">
        <ele>600.4</ele>
        <time>2020-10-18T09:37:21Z</time>
      </trkpt>
      <trkpt lat="44.07397" lon="6.1684">
        <ele>599.8</ele>
        <time>2020-10-18T09:37:22Z</time>
      </trkpt>
      <trkpt lat="44.07396" lon="6.16836">
        <ele>598.4</ele>
        <time>2020-10-18T09:37:23Z</time>
      </trkpt>
      <trkpt lat="44.07395" lon="6.16832">
        <ele>597.8</ele>
        <time>2020-10-18T09:37:24Z</time>
      </trkpt>
      <trkpt lat="44.07395" lon="6.16827">
        <ele>595.6</ele>
        <time>2020-10-18T09:37:25Z</time>
      </trkpt>
      <trkpt lat="44.07393" lon="6.16824">
        <ele>594.6</ele>
        <time>2020-10-18T09:37:26Z</time>
      </trkpt>
      <trkpt lat="44.07391" lon="6.16821">
        <ele>593.8</ele>
        <time>2020-10-18T09:37:27Z</time>
      </trkpt>
      <trkpt lat="44.07389" lon="6.16819">
        <ele>593.2</ele>
        <time>2020-10-18T09:37:28Z</time>
      </trkpt>
      <trkpt lat="44.07387" lon="6.16818">
        <ele>592.8</ele>
        <time>2020-10-18T09:37:29Z</time>
      </trkpt>
      <trkpt lat="44.07386" lon="6.16818">
        <ele>592.6</ele>
        <time>2020-10-18T09:37:30Z</time>
      </trkpt>
      <trkpt lat="44.07384" lon="6.16817">
        <ele>592.2</ele>
        <time>2020-10-18T09:37:31Z</time>
      </trkpt>
      <trkpt lat="44.07382" lon="6.16818">
        <ele>591.4</ele>
        <time>2020-10-18T09:37:32Z</time>
      </trkpt>
      <trkpt lat="44.07381" lon="6.1682">
        <ele>591</ele>
        <time>2020-10-18T09:37:33Z</time>
      </trkpt>
      <trkpt lat="44.07377" lon="6.16824">
        <ele>590.6</ele>
        <time>2020-10-18T09:37:35Z</time>
      </trkpt>
      <trkpt lat="44.07375" lon="6.16825">
        <ele>590.4</ele>
        <time>2020-10-18T09:37:36Z</time>
      </trkpt>
      <trkpt lat="44.07373" lon="6.16826">
        <ele>590.4</ele>
        <time>2020-10-18T09:37:37Z</time>
      </trkpt>
      <trkpt lat="44.07368" lon="6.16828">
        <ele>590.4</ele>
        <time>2020-10-18T09:37:39Z</time>
      </trkpt>
      <trkpt lat="44.07366" lon="6.16828">
        <ele>590.2</ele>
        <time>2020-10-18T09:37:40Z</time>
      </trkpt>
      <trkpt lat="44.07364" lon="6.16829">
        <ele>590.2</ele>
        <time>2020-10-18T09:37:41Z</time>
      </trkpt>
      <trkpt lat="44.07363" lon="6.16828">
        <ele>590.2</ele>
        <time>2020-10-18T09:37:42Z</time>
      </trkpt>
      <trkpt lat="44.07361" lon="6.16828">
        <ele>590.4</ele>
        <time>2020-10-18T09:37:43Z</time>
      </trkpt>
      <trkpt lat="44.07359" lon="6.16828">
        <ele>590.4</ele>
        <time>2020-10-18T09:37:44Z</time>
      </trkpt>
      <trkpt lat="44.07357" lon="6.16828">
        <ele>590.4</ele>
        <time>2020-10-18T09:37:45Z</time>
      </trkpt>
      <trkpt lat="44.07355" lon="6.16828">
        <ele>590.6</ele>
        <time>2020-10-18T09:37:46Z</time>
      </trkpt>
      <trkpt lat="44.07353" lon="6.16828">
        <ele>590.8</ele>
        <time>2020-10-18T09:37:47Z</time>
      </trkpt>
      <trkpt lat="44.07352" lon="6.16828">
        <ele>591</ele>
        <time>2020-10-18T09:37:48Z</time>
      </trkpt>
      <trkpt lat="44.07349" lon="6.16827">
        <ele>591.4</ele>
        <time>2020-10-18T09:37:49Z</time>
      </trkpt>
      <trkpt lat="44.07346" lon="6.16825">
        <ele>591.6</ele>
        <time>2020-10-18T09:37:51Z</time>
      </trkpt>
      <trkpt lat="44.07342" lon="6.16824">
        <ele>592.2</ele>
        <time>2020-10-18T09:37:53Z</time>
      </trkpt>
      <trkpt lat="44.0734" lon="6.16823">
        <ele>592.4</ele>
        <time>2020-10-18T09:37:54Z</time>
      </trkpt>
      <trkpt lat="44.07338" lon="6.16822">
        <ele>592.6</ele>
        <time>2020-10-18T09:37:55Z</time>
      </trkpt>
      <trkpt lat="44.07336" lon="6.1682">
        <ele>593</ele>
        <time>2020-10-18T09:37:56Z</time>
      </trkpt>
      <trkpt lat="44.07334" lon="6.16819">
        <ele>593</ele>
        <time>2020-10-18T09:37:57Z</time>
      </trkpt>
      <trkpt lat="44.07331" lon="6.16817">
        <ele>593.2</ele>
        <time>2020-10-18T09:37:59Z</time>
      </trkpt>
      <trkpt lat="44.07329" lon="6.16816">
        <ele>593.2</ele>
        <time>2020-10-18T09:38:00Z</time>
      </trkpt>
      <trkpt lat="44.07327" lon="6.16815">
        <ele>593.4</ele>
        <time>2020-10-18T09:38:01Z</time>
      </trkpt>
      <trkpt lat="44.07326" lon="6.16814">
        <ele>593.6</ele>
        <time>2020-10-18T09:38:02Z</time>
      </trkpt>
      <trkpt lat="44.07324" lon="6.16813">
        <ele>593.8</ele>
        <time>2020-10-18T09:38:03Z</time>
      </trkpt>
      <trkpt lat="44.07323" lon="6.16813">
        <ele>594</ele>
        <time>2020-10-18T09:38:04Z</time>
      </trkpt>
      <trkpt lat="44.07321" lon="6.16812">
        <ele>594</ele>
        <time>2020-10-18T09:38:05Z</time>
      </trkpt>
      <trkpt lat="44.0732" lon="6.16811">
        <ele>594.4</ele>
        <time>2020-10-18T09:38:06Z</time>
      </trkpt>
      <trkpt lat="44.07319" lon="6.16811">
        <ele>594.6</ele>
        <time>2020-10-18T09:38:07Z</time>
      </trkpt>
      <trkpt lat="44.07318" lon="6.16811">
        <ele>594.8</ele>
        <time>2020-10-18T09:38:08Z</time>
      </trkpt>
      <trkpt lat="44.07316" lon="6.16811">
        <ele>595.2</ele>
        <time>2020-10-18T09:38:09Z</time>
      </trkpt>
      <trkpt lat="44.07315" lon="6.16811">
        <ele>595.2</ele>
        <time>2020-10-18T09:38:10Z</time>
      </trkpt>
      <trkpt lat="44.07314" lon="6.16811">
        <ele>595.4</ele>
        <time>2020-10-18T09:38:11Z</time>
      </trkpt>
      <trkpt lat="44.07313" lon="6.16811">
        <ele>596</ele>
        <time>2020-10-18T09:38:12Z</time>
      </trkpt>
      <trkpt lat="44.07312" lon="6.16811">
        <ele>596.2</ele>
        <time>2020-10-18T09:38:13Z</time>
      </trkpt>
      <trkpt lat="44.07311" lon="6.16811">
        <ele>596.4</ele>
        <time>2020-10-18T09:38:14Z</time>
      </trkpt>
      <trkpt lat="44.0731" lon="6.16811">
        <ele>596.8</ele>
        <time>2020-10-18T09:38:15Z</time>
      </trkpt>
      <trkpt lat="44.07308" lon="6.1681">
        <ele>597.2</ele>
        <time>2020-10-18T09:38:16Z</time>
      </trkpt>
      <trkpt lat="44.07307" lon="6.1681">
        <ele>597.2</ele>
        <time>2020-10-18T09:38:17Z</time>
      </trkpt>
      <trkpt lat="44.07305" lon="6.1681">
        <ele>597.6</ele>
        <time>2020-10-18T09:38:18Z</time>
      </trkpt>
      <trkpt lat="44.07304" lon="6.16809">
        <ele>597.6</ele>
        <time>2020-10-18T09:38:19Z</time>
      </trkpt>
      <trkpt lat="44.07302" lon="6.16809">
        <ele>597.8</ele>
        <time>2020-10-18T09:38:20Z</time>
      </trkpt>
      <trkpt lat="44.07301" lon="6.16809">
        <ele>598</ele>
        <time>2020-10-18T09:38:21Z</time>
      </trkpt>
      <trkpt lat="44.073" lon="6.16808">
        <ele>598.2</ele>
        <time>2020-10-18T09:38:22Z</time>
      </trkpt>
      <trkpt lat="44.07298" lon="6.16808">
        <ele>598.8</ele>
        <time>2020-10-18T09:38:23Z</time>
      </trkpt>
      <trkpt lat="44.07296" lon="6.16809">
        <ele>599</ele>
        <time>2020-10-18T09:38:24Z</time>
      </trkpt>
      <trkpt lat="44.07295" lon="6.16809">
        <ele>599.6</ele>
        <time>2020-10-18T09:38:25Z</time>
      </trkpt>
      <trkpt lat="44.07293" lon="6.16808">
        <ele>599.8</ele>
        <time>2020-10-18T09:38:26Z</time>
      </trkpt>
      <trkpt lat="44.07291" lon="6.16808">
        <ele>600.2</ele>
        <time>2020-10-18T09:38:27Z</time>
      </trkpt>
      <trkpt lat="44.0729" lon="6.16809">
        <ele>600.4</ele>
        <time>2020-10-18T09:38:28Z</time>
      </trkpt>
      <trkpt lat="44.07288" lon="6.16808">
        <ele>600.6</ele>
        <time>2020-10-18T09:38:29Z</time>
      </trkpt>
      <trkpt lat="44.07286" lon="6.16808">
        <ele>600.6</ele>
        <time>2020-10-18T09:38:30Z</time>
      </trkpt>
      <trkpt lat="44.07284" lon="6.16807">
        <ele>601</ele>
        <time>2020-10-18T09:38:31Z</time>
      </trkpt>
      <trkpt lat="44.07282" lon="6.16807">
        <ele>601.2</ele>
        <time>2020-10-18T09:38:32Z</time>
      </trkpt>
      <trkpt lat="44.0728" lon="6.16807">
        <ele>601.2</ele>
        <time>2020-10-18T09:38:33Z</time>
      </trkpt>
      <trkpt lat="44.07278" lon="6.16807">
        <ele>601.2</ele>
        <time>2020-10-18T09:38:34Z</time>
      </trkpt>
      <trkpt lat="44.07276" lon="6.16807">
        <ele>601.4</ele>
        <time>2020-10-18T09:38:35Z</time>
      </trkpt>
      <trkpt lat="44.07273" lon="6.16807">
        <ele>601.4</ele>
        <time>2020-10-18T09:38:36Z</time>
      </trkpt>
      <trkpt lat="44.07271" lon="6.16807">
        <ele>601.4</ele>
        <time>2020-10-18T09:38:37Z</time>
      </trkpt>
      <trkpt lat="44.07268" lon="6.16806">
        <ele>601.6</ele>
        <time>2020-10-18T09:38:38Z</time>
      </trkpt>
      <trkpt lat="44.07266" lon="6.16805">
        <ele>601.6</ele>
        <time>2020-10-18T09:38:39Z</time>
      </trkpt>
      <trkpt lat="44.07264" lon="6.16805">
        <ele>601.6</ele>
        <time>2020-10-18T09:38:40Z</time>
      </trkpt>
      <trkpt lat="44.07261" lon="6.16803">
        <ele>601.6</ele>
        <time>2020-10-18T09:38:41Z</time>
      </trkpt>
      <trkpt lat="44.07258" lon="6.16802">
        <ele>601.8</ele>
        <time>2020-10-18T09:38:42Z</time>
      </trkpt>
      <trkpt lat="44.07256" lon="6.16801">
        <ele>601.8</ele>
        <time>2020-10-18T09:38:43Z</time>
      </trkpt>
      <trkpt lat="44.0725" lon="6.16799">
        <ele>601.8</ele>
        <time>2020-10-18T09:38:45Z</time>
      </trkpt>
      <trkpt lat="44.07245" lon="6.16798">
        <ele>601.8</ele>
        <time>2020-10-18T09:38:47Z</time>
      </trkpt>
      <trkpt lat="44.0724" lon="6.16797">
        <ele>601.8</ele>
        <time>2020-10-18T09:38:49Z</time>
      </trkpt>
      <trkpt lat="44.07237" lon="6.16796">
        <ele>601.8</ele>
        <time>2020-10-18T09:38:50Z</time>
      </trkpt>
      <trkpt lat="44.07235" lon="6.16795">
        <ele>601.8</ele>
        <time>2020-10-18T09:38:51Z</time>
      </trkpt>
      <trkpt lat="44.07232" lon="6.16794">
        <ele>601.8</ele>
        <time>2020-10-18T09:38:52Z</time>
      </trkpt>
      <trkpt lat="44.07229" lon="6.16793">
        <ele>601.8</ele>
        <time>2020-10-18T09:38:53Z</time>
      </trkpt>
      <trkpt lat="44.07226" lon="6.16793">
        <ele>601.6</ele>
        <time>2020-10-18T09:38:54Z</time>
      </trkpt>
      <trkpt lat="44.07224" lon="6.16791">
        <ele>601.8</ele>
        <time>2020-10-18T09:38:55Z</time>
      </trkpt>
      <trkpt lat="44.07221" lon="6.16789">
        <ele>601.6</ele>
        <time>2020-10-18T09:38:56Z</time>
      </trkpt>
      <trkpt lat="44.07218" lon="6.16788">
        <ele>601.8</ele>
        <time>2020-10-18T09:38:57Z</time>
      </trkpt>
      <trkpt lat="44.07216" lon="6.16787">
        <ele>601.8</ele>
        <time>2020-10-18T09:38:58Z</time>
      </trkpt>
      <trkpt lat="44.07213" lon="6.16786">
        <ele>601.8</ele>
        <time>2020-10-18T09:38:59Z</time>
      </trkpt>
      <trkpt lat="44.0721" lon="6.16784">
        <ele>601.6</ele>
        <time>2020-10-18T09:39:00Z</time>
      </trkpt>
      <trkpt lat="44.07207" lon="6.16782">
        <ele>601.8</ele>
        <time>2020-10-18T09:39:01Z</time>
      </trkpt>
      <trkpt lat="44.07202" lon="6.16778">
        <ele>602</ele>
        <time>2020-10-18T09:39:03Z</time>
      </trkpt>
      <trkpt lat="44.07196" lon="6.16776">
        <ele>602</ele>
        <time>2020-10-18T09:39:05Z</time>
      </trkpt>
      <trkpt lat="44.0719" lon="6.16773">
        <ele>602.2</ele>
        <time>2020-10-18T09:39:07Z</time>
      </trkpt>
      <trkpt lat="44.07187" lon="6.16773">
        <ele>602.2</ele>
        <time>2020-10-18T09:39:08Z</time>
      </trkpt>
      <trkpt lat="44.07185" lon="6.16773">
        <ele>602.2</ele>
        <time>2020-10-18T09:39:09Z</time>
      </trkpt>
      <trkpt lat="44.07183" lon="6.16772">
        <ele>602.4</ele>
        <time>2020-10-18T09:39:10Z</time>
      </trkpt>
      <trkpt lat="44.0718" lon="6.16772">
        <ele>602.4</ele>
        <time>2020-10-18T09:39:11Z</time>
      </trkpt>
      <trkpt lat="44.07178" lon="6.16771">
        <ele>602.4</ele>
        <time>2020-10-18T09:39:12Z</time>
      </trkpt>
      <trkpt lat="44.07177" lon="6.1677">
        <ele>602.4</ele>
        <time>2020-10-18T09:39:13Z</time>
      </trkpt>
      <trkpt lat="44.07175" lon="6.16769">
        <ele>602.6</ele>
        <time>2020-10-18T09:39:14Z</time>
      </trkpt>
      <trkpt lat="44.07174" lon="6.16768">
        <ele>602.8</ele>
        <time>2020-10-18T09:39:15Z</time>
      </trkpt>
      <trkpt lat="44.07173" lon="6.16767">
        <ele>603</ele>
        <time>2020-10-18T09:39:16Z</time>
      </trkpt>
      <trkpt lat="44.07171" lon="6.16766">
        <ele>603</ele>
        <time>2020-10-18T09:39:17Z</time>
      </trkpt>
      <trkpt lat="44.0717" lon="6.16765">
        <ele>603.4</ele>
        <time>2020-10-18T09:39:18Z</time>
      </trkpt>
      <trkpt lat="44.07169" lon="6.16764">
        <ele>603.4</ele>
        <time>2020-10-18T09:39:19Z</time>
      </trkpt>
      <trkpt lat="44.07167" lon="6.16762">
        <ele>603.4</ele>
        <time>2020-10-18T09:39:20Z</time>
      </trkpt>
      <trkpt lat="44.07166" lon="6.16761">
        <ele>603.6</ele>
        <time>2020-10-18T09:39:21Z</time>
      </trkpt>
      <trkpt lat="44.07165" lon="6.16759">
        <ele>603.8</ele>
        <time>2020-10-18T09:39:22Z</time>
      </trkpt>
      <trkpt lat="44.07164" lon="6.16756">
        <ele>603.8</ele>
        <time>2020-10-18T09:39:23Z</time>
      </trkpt>
      <trkpt lat="44.07163" lon="6.16755">
        <ele>603.8</ele>
        <time>2020-10-18T09:39:24Z</time>
      </trkpt>
      <trkpt lat="44.07161" lon="6.16752">
        <ele>604</ele>
        <time>2020-10-18T09:39:25Z</time>
      </trkpt>
      <trkpt lat="44.07161" lon="6.1675">
        <ele>604.4</ele>
        <time>2020-10-18T09:39:26Z</time>
      </trkpt>
      <trkpt lat="44.0716" lon="6.16749">
        <ele>604.6</ele>
        <time>2020-10-18T09:39:27Z</time>
      </trkpt>
      <trkpt lat="44.0716" lon="6.16747">
        <ele>604.6</ele>
        <time>2020-10-18T09:39:28Z</time>
      </trkpt>
      <trkpt lat="44.07159" lon="6.16745">
        <ele>605</ele>
        <time>2020-10-18T09:39:29Z</time>
      </trkpt>
      <trkpt lat="44.07158" lon="6.16743">
        <ele>605.4</ele>
        <time>2020-10-18T09:39:30Z</time>
      </trkpt>
      <trkpt lat="44.07158" lon="6.16741">
        <ele>605.8</ele>
        <time>2020-10-18T09:39:31Z</time>
      </trkpt>
      <trkpt lat="44.07158" lon="6.16739">
        <ele>606</ele>
        <time>2020-10-18T09:39:32Z</time>
      </trkpt>
      <trkpt lat="44.07157" lon="6.16737">
        <ele>606.2</ele>
        <time>2020-10-18T09:39:33Z</time>
      </trkpt>
      <trkpt lat="44.07157" lon="6.16736">
        <ele>606.2</ele>
        <time>2020-10-18T09:39:34Z</time>
      </trkpt>
      <trkpt lat="44.07156" lon="6.16733">
        <ele>606.4</ele>
        <time>2020-10-18T09:39:35Z</time>
      </trkpt>
      <trkpt lat="44.07156" lon="6.16731">
        <ele>606.4</ele>
        <time>2020-10-18T09:39:36Z</time>
      </trkpt>
      <trkpt lat="44.07156" lon="6.1673">
        <ele>606.8</ele>
        <time>2020-10-18T09:39:37Z</time>
      </trkpt>
      <trkpt lat="44.07155" lon="6.16728">
        <ele>606.8</ele>
        <time>2020-10-18T09:39:38Z</time>
      </trkpt>
      <trkpt lat="44.07155" lon="6.16725">
        <ele>607.2</ele>
        <time>2020-10-18T09:39:39Z</time>
      </trkpt>
      <trkpt lat="44.07154" lon="6.16722">
        <ele>607.4</ele>
        <time>2020-10-18T09:39:40Z</time>
      </trkpt>
      <trkpt lat="44.07153" lon="6.1672">
        <ele>607.8</ele>
        <time>2020-10-18T09:39:41Z</time>
      </trkpt>
      <trkpt lat="44.07153" lon="6.16717">
        <ele>608.2</ele>
        <time>2020-10-18T09:39:42Z</time>
      </trkpt>
      <trkpt lat="44.07152" lon="6.16716">
        <ele>608.6</ele>
        <time>2020-10-18T09:39:43Z</time>
      </trkpt>
      <trkpt lat="44.07152" lon="6.16714">
        <ele>608.6</ele>
        <time>2020-10-18T09:39:44Z</time>
      </trkpt>
      <trkpt lat="44.07151" lon="6.16712">
        <ele>608.8</ele>
        <time>2020-10-18T09:39:45Z</time>
      </trkpt>
      <trkpt lat="44.07151" lon="6.16711">
        <ele>609</ele>
        <time>2020-10-18T09:39:46Z</time>
      </trkpt>
      <trkpt lat="44.07151" lon="6.16709">
        <ele>609.2</ele>
        <time>2020-10-18T09:39:47Z</time>
      </trkpt>
      <trkpt lat="44.07151" lon="6.16708">
        <ele>609.6</ele>
        <time>2020-10-18T09:39:48Z</time>
      </trkpt>
      <trkpt lat="44.0715" lon="6.16706">
        <ele>609.8</ele>
        <time>2020-10-18T09:39:49Z</time>
      </trkpt>
      <trkpt lat="44.0715" lon="6.16704">
        <ele>610.2</ele>
        <time>2020-10-18T09:39:50Z</time>
      </trkpt>
      <trkpt lat="44.0715" lon="6.16702">
        <ele>610.6</ele>
        <time>2020-10-18T09:39:51Z</time>
      </trkpt>
      <trkpt lat="44.07149" lon="6.167">
        <ele>610.8</ele>
        <time>2020-10-18T09:39:52Z</time>
      </trkpt>
      <trkpt lat="44.07149" lon="6.16698">
        <ele>611</ele>
        <time>2020-10-18T09:39:53Z</time>
      </trkpt>
      <trkpt lat="44.07148" lon="6.16696">
        <ele>611.2</ele>
        <time>2020-10-18T09:39:54Z</time>
      </trkpt>
      <trkpt lat="44.07148" lon="6.16694">
        <ele>611.6</ele>
        <time>2020-10-18T09:39:55Z</time>
      </trkpt>
      <trkpt lat="44.07147" lon="6.16693">
        <ele>611.6</ele>
        <time>2020-10-18T09:39:56Z</time>
      </trkpt>
      <trkpt lat="44.07147" lon="6.16691">
        <ele>611.8</ele>
        <time>2020-10-18T09:39:57Z</time>
      </trkpt>
      <trkpt lat="44.07148" lon="6.16688">
        <ele>611.8</ele>
        <time>2020-10-18T09:39:58Z</time>
      </trkpt>
      <trkpt lat="44.07148" lon="6.16687">
        <ele>612</ele>
        <time>2020-10-18T09:39:59Z</time>
      </trkpt>
      <trkpt lat="44.07148" lon="6.16685">
        <ele>612.2</ele>
        <time>2020-10-18T09:40:00Z</time>
      </trkpt>
      <trkpt lat="44.07148" lon="6.16682">
        <ele>612.4</ele>
        <time>2020-10-18T09:40:01Z</time>
      </trkpt>
      <trkpt lat="44.07149" lon="6.1668">
        <ele>612.4</ele>
        <time>2020-10-18T09:40:02Z</time>
      </trkpt>
      <trkpt lat="44.07149" lon="6.16679">
        <ele>612.6</ele>
        <time>2020-10-18T09:40:03Z</time>
      </trkpt>
      <trkpt lat="44.0715" lon="6.16677">
        <ele>612.8</ele>
        <time>2020-10-18T09:40:04Z</time>
      </trkpt>
      <trkpt lat="44.07151" lon="6.16676">
        <ele>613</ele>
        <time>2020-10-18T09:40:05Z</time>
      </trkpt>
      <trkpt lat="44.07152" lon="6.16674">
        <ele>613.2</ele>
        <time>2020-10-18T09:40:06Z</time>
      </trkpt>
      <trkpt lat="44.07153" lon="6.16673">
        <ele>613.4</ele>
        <time>2020-10-18T09:40:07Z</time>
      </trkpt>
      <trkpt lat="44.07153" lon="6.16671">
        <ele>613.4</ele>
        <time>2020-10-18T09:40:08Z</time>
      </trkpt>
      <trkpt lat="44.07154" lon="6.16669">
        <ele>613.6</ele>
        <time>2020-10-18T09:40:09Z</time>
      </trkpt>
      <trkpt lat="44.07154" lon="6.16667">
        <ele>613.6</ele>
        <time>2020-10-18T09:40:10Z</time>
      </trkpt>
      <trkpt lat="44.07155" lon="6.16665">
        <ele>613.8</ele>
        <time>2020-10-18T09:40:11Z</time>
      </trkpt>
      <trkpt lat="44.07156" lon="6.16663">
        <ele>614.2</ele>
        <time>2020-10-18T09:40:12Z</time>
      </trkpt>
      <trkpt lat="44.07156" lon="6.16661">
        <ele>614.2</ele>
        <time>2020-10-18T09:40:13Z</time>
      </trkpt>
      <trkpt lat="44.07157" lon="6.16658">
        <ele>614.4</ele>
        <time>2020-10-18T09:40:14Z</time>
      </trkpt>
      <trkpt lat="44.07157" lon="6.16657">
        <ele>614.4</ele>
        <time>2020-10-18T09:40:15Z</time>
      </trkpt>
      <trkpt lat="44.07158" lon="6.16654">
        <ele>614.4</ele>
        <time>2020-10-18T09:40:16Z</time>
      </trkpt>
      <trkpt lat="44.07158" lon="6.16652">
        <ele>614.6</ele>
        <time>2020-10-18T09:40:17Z</time>
      </trkpt>
      <trkpt lat="44.07159" lon="6.1665">
        <ele>614.8</ele>
        <time>2020-10-18T09:40:18Z</time>
      </trkpt>
      <trkpt lat="44.0716" lon="6.16648">
        <ele>615</ele>
        <time>2020-10-18T09:40:19Z</time>
      </trkpt>
      <trkpt lat="44.07161" lon="6.16647">
        <ele>615</ele>
        <time>2020-10-18T09:40:20Z</time>
      </trkpt>
      <trkpt lat="44.07162" lon="6.16645">
        <ele>615.2</ele>
        <time>2020-10-18T09:40:21Z</time>
      </trkpt>
      <trkpt lat="44.07163" lon="6.16643">
        <ele>615.4</ele>
        <time>2020-10-18T09:40:22Z</time>
      </trkpt>
      <trkpt lat="44.07163" lon="6.16641">
        <ele>615.6</ele>
        <time>2020-10-18T09:40:23Z</time>
      </trkpt>
      <trkpt lat="44.07164" lon="6.16639">
        <ele>615.8</ele>
        <time>2020-10-18T09:40:24Z</time>
      </trkpt>
      <trkpt lat="44.07164" lon="6.16637">
        <ele>616</ele>
        <time>2020-10-18T09:40:25Z</time>
      </trkpt>
      <trkpt lat="44.07165" lon="6.16635">
        <ele>616.2</ele>
        <time>2020-10-18T09:40:26Z</time>
      </trkpt>
      <trkpt lat="44.07166" lon="6.16633">
        <ele>616.6</ele>
        <time>2020-10-18T09:40:27Z</time>
      </trkpt>
      <trkpt lat="44.07167" lon="6.16631">
        <ele>616.4</ele>
        <time>2020-10-18T09:40:28Z</time>
      </trkpt>
      <trkpt lat="44.07167" lon="6.16629">
        <ele>616.8</ele>
        <time>2020-10-18T09:40:29Z</time>
      </trkpt>
      <trkpt lat="44.07168" lon="6.16627">
        <ele>617</ele>
        <time>2020-10-18T09:40:30Z</time>
      </trkpt>
      <trkpt lat="44.07169" lon="6.16625">
        <ele>617.2</ele>
        <time>2020-10-18T09:40:31Z</time>
      </trkpt>
      <trkpt lat="44.07169" lon="6.16623">
        <ele>617.4</ele>
        <time>2020-10-18T09:40:32Z</time>
      </trkpt>
      <trkpt lat="44.0717" lon="6.16621">
        <ele>617.4</ele>
        <time>2020-10-18T09:40:33Z</time>
      </trkpt>
      <trkpt lat="44.07171" lon="6.16619">
        <ele>617.4</ele>
        <time>2020-10-18T09:40:34Z</time>
      </trkpt>
      <trkpt lat="44.07171" lon="6.16618">
        <ele>617.8</ele>
        <time>2020-10-18T09:40:35Z</time>
      </trkpt>
      <trkpt lat="44.07172" lon="6.16616">
        <ele>618</ele>
        <time>2020-10-18T09:40:36Z</time>
      </trkpt>
      <trkpt lat="44.07173" lon="6.16614">
        <ele>618</ele>
        <time>2020-10-18T09:40:37Z</time>
      </trkpt>
      <trkpt lat="44.07174" lon="6.16613">
        <ele>618.4</ele>
        <time>2020-10-18T09:40:38Z</time>
      </trkpt>
      <trkpt lat="44.07175" lon="6.16611">
        <ele>618.6</ele>
        <time>2020-10-18T09:40:39Z</time>
      </trkpt>
      <trkpt lat="44.07176" lon="6.1661">
        <ele>619</ele>
        <time>2020-10-18T09:40:40Z</time>
      </trkpt>
      <trkpt lat="44.07178" lon="6.16609">
        <ele>619.2</ele>
        <time>2020-10-18T09:40:41Z</time>
      </trkpt>
      <trkpt lat="44.07179" lon="6.16607">
        <ele>619.4</ele>
        <time>2020-10-18T09:40:42Z</time>
      </trkpt>
      <trkpt lat="44.0718" lon="6.16606">
        <ele>619.6</ele>
        <time>2020-10-18T09:40:43Z</time>
      </trkpt>
      <trkpt lat="44.07182" lon="6.16605">
        <ele>619.6</ele>
        <time>2020-10-18T09:40:44Z</time>
      </trkpt>
      <trkpt lat="44.07183" lon="6.16604">
        <ele>619.8</ele>
        <time>2020-10-18T09:40:45Z</time>
      </trkpt>
      <trkpt lat="44.07184" lon="6.16603">
        <ele>620.2</ele>
        <time>2020-10-18T09:40:46Z</time>
      </trkpt>
      <trkpt lat="44.07185" lon="6.16603">
        <ele>620.6</ele>
        <time>2020-10-18T09:40:47Z</time>
      </trkpt>
      <trkpt lat="44.07186" lon="6.16602">
        <ele>620.6</ele>
        <time>2020-10-18T09:40:48Z</time>
      </trkpt>
      <trkpt lat="44.07188" lon="6.16602">
        <ele>620.8</ele>
        <time>2020-10-18T09:40:49Z</time>
      </trkpt>
      <trkpt lat="44.07189" lon="6.16602">
        <ele>620.8</ele>
        <time>2020-10-18T09:40:50Z</time>
      </trkpt>
      <trkpt lat="44.07191" lon="6.16603">
        <ele>620.8</ele>
        <time>2020-10-18T09:40:51Z</time>
      </trkpt>
      <trkpt lat="44.07193" lon="6.16604">
        <ele>621</ele>
        <time>2020-10-18T09:40:52Z</time>
      </trkpt>
      <trkpt lat="44.07194" lon="6.16604">
        <ele>621</ele>
        <time>2020-10-18T09:40:53Z</time>
      </trkpt>
      <trkpt lat="44.07196" lon="6.16604">
        <ele>621.4</ele>
        <time>2020-10-18T09:40:54Z</time>
      </trkpt>
      <trkpt lat="44.07197" lon="6.16605">
        <ele>621.4</ele>
        <time>2020-10-18T09:40:55Z</time>
      </trkpt>
      <trkpt lat="44.07199" lon="6.16606">
        <ele>621.6</ele>
        <time>2020-10-18T09:40:56Z</time>
      </trkpt>
      <trkpt lat="44.072" lon="6.16606">
        <ele>622</ele>
        <time>2020-10-18T09:40:57Z</time>
      </trkpt>
      <trkpt lat="44.07201" lon="6.16607">
        <ele>622.2</ele>
        <time>2020-10-18T09:40:58Z</time>
      </trkpt>
      <trkpt lat="44.07203" lon="6.16607">
        <ele>622.2</ele>
        <time>2020-10-18T09:40:59Z</time>
      </trkpt>
      <trkpt lat="44.07204" lon="6.16608">
        <ele>622.4</ele>
        <time>2020-10-18T09:41:00Z</time>
      </trkpt>
      <trkpt lat="44.07206" lon="6.16609">
        <ele>622.4</ele>
        <time>2020-10-18T09:41:01Z</time>
      </trkpt>
      <trkpt lat="44.07208" lon="6.1661">
        <ele>622.8</ele>
        <time>2020-10-18T09:41:02Z</time>
      </trkpt>
      <trkpt lat="44.07209" lon="6.16611">
        <ele>622.8</ele>
        <time>2020-10-18T09:41:03Z</time>
      </trkpt>
      <trkpt lat="44.07211" lon="6.16612">
        <ele>623</ele>
        <time>2020-10-18T09:41:04Z</time>
      </trkpt>
      <trkpt lat="44.07213" lon="6.16613">
        <ele>623.2</ele>
        <time>2020-10-18T09:41:05Z</time>
      </trkpt>
      <trkpt lat="44.07214" lon="6.16614">
        <ele>623.6</ele>
        <time>2020-10-18T09:41:06Z</time>
      </trkpt>
      <trkpt lat="44.07216" lon="6.16615">
        <ele>623.6</ele>
        <time>2020-10-18T09:41:07Z</time>
      </trkpt>
      <trkpt lat="44.07217" lon="6.16617">
        <ele>623.6</ele>
        <time>2020-10-18T09:41:08Z</time>
      </trkpt>
      <trkpt lat="44.07219" lon="6.16619">
        <ele>624</ele>
        <time>2020-10-18T09:41:09Z</time>
      </trkpt>
      <trkpt lat="44.0722" lon="6.16621">
        <ele>624.2</ele>
        <time>2020-10-18T09:41:10Z</time>
      </trkpt>
      <trkpt lat="44.07222" lon="6.16622">
        <ele>624.4</ele>
        <time>2020-10-18T09:41:11Z</time>
      </trkpt>
      <trkpt lat="44.07223" lon="6.16624">
        <ele>624.4</ele>
        <time>2020-10-18T09:41:12Z</time>
      </trkpt>
      <trkpt lat="44.07225" lon="6.16626">
        <ele>624.4</ele>
        <time>2020-10-18T09:41:13Z</time>
      </trkpt>
      <trkpt lat="44.07226" lon="6.16627">
        <ele>624.6</ele>
        <time>2020-10-18T09:41:14Z</time>
      </trkpt>
      <trkpt lat="44.07228" lon="6.16629">
        <ele>624.8</ele>
        <time>2020-10-18T09:41:15Z</time>
      </trkpt>
      <trkpt lat="44.07229" lon="6.1663">
        <ele>625</ele>
        <time>2020-10-18T09:41:16Z</time>
      </trkpt>
      <trkpt lat="44.0723" lon="6.16632">
        <ele>625</ele>
        <time>2020-10-18T09:41:17Z</time>
      </trkpt>
      <trkpt lat="44.07231" lon="6.16634">
        <ele>625.4</ele>
        <time>2020-10-18T09:41:18Z</time>
      </trkpt>
      <trkpt lat="44.07232" lon="6.16636">
        <ele>625.4</ele>
        <time>2020-10-18T09:41:19Z</time>
      </trkpt>
      <trkpt lat="44.07233" lon="6.16637">
        <ele>625.6</ele>
        <time>2020-10-18T09:41:20Z</time>
      </trkpt>
      <trkpt lat="44.07235" lon="6.16638">
        <ele>625.8</ele>
        <time>2020-10-18T09:41:21Z</time>
      </trkpt>
      <trkpt lat="44.07237" lon="6.16638">
        <ele>626</ele>
        <time>2020-10-18T09:41:22Z</time>
      </trkpt>
      <trkpt lat="44.07238" lon="6.16638">
        <ele>626.2</ele>
        <time>2020-10-18T09:41:23Z</time>
      </trkpt>
      <trkpt lat="44.0724" lon="6.16638">
        <ele>626.4</ele>
        <time>2020-10-18T09:41:24Z</time>
      </trkpt>
      <trkpt lat="44.07241" lon="6.16638">
        <ele>626.6</ele>
        <time>2020-10-18T09:41:25Z</time>
      </trkpt>
      <trkpt lat="44.07243" lon="6.16638">
        <ele>626.6</ele>
        <time>2020-10-18T09:41:26Z</time>
      </trkpt>
      <trkpt lat="44.07245" lon="6.16637">
        <ele>627</ele>
        <time>2020-10-18T09:41:27Z</time>
      </trkpt>
      <trkpt lat="44.07246" lon="6.16636">
        <ele>627</ele>
        <time>2020-10-18T09:41:28Z</time>
      </trkpt>
      <trkpt lat="44.07247" lon="6.16634">
        <ele>627.2</ele>
        <time>2020-10-18T09:41:29Z</time>
      </trkpt>
      <trkpt lat="44.07248" lon="6.16633">
        <ele>627.4</ele>
        <time>2020-10-18T09:41:30Z</time>
      </trkpt>
      <trkpt lat="44.07249" lon="6.16631">
        <ele>627.4</ele>
        <time>2020-10-18T09:41:31Z</time>
      </trkpt>
      <trkpt lat="44.0725" lon="6.16629">
        <ele>627.6</ele>
        <time>2020-10-18T09:41:32Z</time>
      </trkpt>
      <trkpt lat="44.0725" lon="6.16627">
        <ele>627.8</ele>
        <time>2020-10-18T09:41:33Z</time>
      </trkpt>
      <trkpt lat="44.07251" lon="6.16626">
        <ele>628</ele>
        <time>2020-10-18T09:41:34Z</time>
      </trkpt>
      <trkpt lat="44.07252" lon="6.16624">
        <ele>628.2</ele>
        <time>2020-10-18T09:41:35Z</time>
      </trkpt>
      <trkpt lat="44.07253" lon="6.16622">
        <ele>628.2</ele>
        <time>2020-10-18T09:41:36Z</time>
      </trkpt>
      <trkpt lat="44.07253" lon="6.1662">
        <ele>628.4</ele>
        <time>2020-10-18T09:41:37Z</time>
      </trkpt>
      <trkpt lat="44.07253" lon="6.16617">
        <ele>628.4</ele>
        <time>2020-10-18T09:41:38Z</time>
      </trkpt>
      <trkpt lat="44.07253" lon="6.16615">
        <ele>628.6</ele>
        <time>2020-10-18T09:41:39Z</time>
      </trkpt>
      <trkpt lat="44.07253" lon="6.16613">
        <ele>628.6</ele>
        <time>2020-10-18T09:41:40Z</time>
      </trkpt>
      <trkpt lat="44.07254" lon="6.16611">
        <ele>629</ele>
        <time>2020-10-18T09:41:41Z</time>
      </trkpt>
      <trkpt lat="44.07254" lon="6.16609">
        <ele>629</ele>
        <time>2020-10-18T09:41:42Z</time>
      </trkpt>
      <trkpt lat="44.07254" lon="6.16607">
        <ele>629.2</ele>
        <time>2020-10-18T09:41:43Z</time>
      </trkpt>
      <trkpt lat="44.07254" lon="6.16605">
        <ele>629.4</ele>
        <time>2020-10-18T09:41:44Z</time>
      </trkpt>
      <trkpt lat="44.07255" lon="6.16603">
        <ele>629.8</ele>
        <time>2020-10-18T09:41:45Z</time>
      </trkpt>
      <trkpt lat="44.07255" lon="6.16601">
        <ele>629.8</ele>
        <time>2020-10-18T09:41:46Z</time>
      </trkpt>
      <trkpt lat="44.07255" lon="6.16599">
        <ele>630</ele>
        <time>2020-10-18T09:41:47Z</time>
      </trkpt>
      <trkpt lat="44.07255" lon="6.16597">
        <ele>630.4</ele>
        <time>2020-10-18T09:41:48Z</time>
      </trkpt>
      <trkpt lat="44.07255" lon="6.16595">
        <ele>630.4</ele>
        <time>2020-10-18T09:41:49Z</time>
      </trkpt>
      <trkpt lat="44.07256" lon="6.16593">
        <ele>630.6</ele>
        <time>2020-10-18T09:41:50Z</time>
      </trkpt>
      <trkpt lat="44.07256" lon="6.16591">
        <ele>630.6</ele>
        <time>2020-10-18T09:41:51Z</time>
      </trkpt>
      <trkpt lat="44.07257" lon="6.16589">
        <ele>630.6</ele>
        <time>2020-10-18T09:41:52Z</time>
      </trkpt>
      <trkpt lat="44.07257" lon="6.16586">
        <ele>631</ele>
        <time>2020-10-18T09:41:53Z</time>
      </trkpt>
      <trkpt lat="44.07257" lon="6.16584">
        <ele>631.4</ele>
        <time>2020-10-18T09:41:54Z</time>
      </trkpt>
      <trkpt lat="44.07258" lon="6.16582">
        <ele>631.6</ele>
        <time>2020-10-18T09:41:55Z</time>
      </trkpt>
      <trkpt lat="44.07259" lon="6.16581">
        <ele>631.8</ele>
        <time>2020-10-18T09:41:56Z</time>
      </trkpt>
      <trkpt lat="44.0726" lon="6.16579">
        <ele>631.8</ele>
        <time>2020-10-18T09:41:57Z</time>
      </trkpt>
      <trkpt lat="44.0726" lon="6.16578">
        <ele>632</ele>
        <time>2020-10-18T09:41:58Z</time>
      </trkpt>
      <trkpt lat="44.07261" lon="6.16576">
        <ele>632.4</ele>
        <time>2020-10-18T09:41:59Z</time>
      </trkpt>
      <trkpt lat="44.07261" lon="6.16574">
        <ele>632.8</ele>
        <time>2020-10-18T09:42:00Z</time>
      </trkpt>
      <trkpt lat="44.07262" lon="6.16572">
        <ele>633</ele>
        <time>2020-10-18T09:42:01Z</time>
      </trkpt>
      <trkpt lat="44.07262" lon="6.1657">
        <ele>633.2</ele>
        <time>2020-10-18T09:42:02Z</time>
      </trkpt>
      <trkpt lat="44.07263" lon="6.16568">
        <ele>633.4</ele>
        <time>2020-10-18T09:42:03Z</time>
      </trkpt>
      <trkpt lat="44.07263" lon="6.16566">
        <ele>633.4</ele>
        <time>2020-10-18T09:42:04Z</time>
      </trkpt>
      <trkpt lat="44.07264" lon="6.16563">
        <ele>633.6</ele>
        <time>2020-10-18T09:42:05Z</time>
      </trkpt>
      <trkpt lat="44.07265" lon="6.16561">
        <ele>633.8</ele>
        <time>2020-10-18T09:42:06Z</time>
      </trkpt>
      <trkpt lat="44.07266" lon="6.1656">
        <ele>634</ele>
        <time>2020-10-18T09:42:07Z</time>
      </trkpt>
      <trkpt lat="44.07267" lon="6.16558">
        <ele>634.2</ele>
        <time>2020-10-18T09:42:08Z</time>
      </trkpt>
      <trkpt lat="44.07268" lon="6.16557">
        <ele>634.6</ele>
        <time>2020-10-18T09:42:09Z</time>
      </trkpt>
      <trkpt lat="44.0727" lon="6.16556">
        <ele>634.6</ele>
        <time>2020-10-18T09:42:10Z</time>
      </trkpt>
      <trkpt lat="44.0727" lon="6.16555">
        <ele>634.8</ele>
        <time>2020-10-18T09:42:11Z</time>
      </trkpt>
      <trkpt lat="44.07271" lon="6.16553">
        <ele>634.8</ele>
        <time>2020-10-18T09:42:12Z</time>
      </trkpt>
      <trkpt lat="44.07273" lon="6.16552">
        <ele>635</ele>
        <time>2020-10-18T09:42:13Z</time>
      </trkpt>
      <trkpt lat="44.07274" lon="6.16551">
        <ele>635.4</ele>
        <time>2020-10-18T09:42:14Z</time>
      </trkpt>
      <trkpt lat="44.07276" lon="6.1655">
        <ele>635.6</ele>
        <time>2020-10-18T09:42:15Z</time>
      </trkpt>
      <trkpt lat="44.07277" lon="6.16549">
        <ele>635.8</ele>
        <time>2020-10-18T09:42:16Z</time>
      </trkpt>
      <trkpt lat="44.07278" lon="6.16548">
        <ele>636</ele>
        <time>2020-10-18T09:42:17Z</time>
      </trkpt>
      <trkpt lat="44.0728" lon="6.16548">
        <ele>636.2</ele>
        <time>2020-10-18T09:42:18Z</time>
      </trkpt>
      <trkpt lat="44.07281" lon="6.16547">
        <ele>636.2</ele>
        <time>2020-10-18T09:42:19Z</time>
      </trkpt>
      <trkpt lat="44.07283" lon="6.16547">
        <ele>636.4</ele>
        <time>2020-10-18T09:42:20Z</time>
      </trkpt>
      <trkpt lat="44.07285" lon="6.16546">
        <ele>636.4</ele>
        <time>2020-10-18T09:42:21Z</time>
      </trkpt>
      <trkpt lat="44.07286" lon="6.16545">
        <ele>636.6</ele>
        <time>2020-10-18T09:42:22Z</time>
      </trkpt>
      <trkpt lat="44.07287" lon="6.16544">
        <ele>636.8</ele>
        <time>2020-10-18T09:42:23Z</time>
      </trkpt>
      <trkpt lat="44.07288" lon="6.16543">
        <ele>636.8</ele>
        <time>2020-10-18T09:42:24Z</time>
      </trkpt>
      <trkpt lat="44.07289" lon="6.16541">
        <ele>637.2</ele>
        <time>2020-10-18T09:42:25Z</time>
      </trkpt>
      <trkpt lat="44.0729" lon="6.1654">
        <ele>637.4</ele>
        <time>2020-10-18T09:42:26Z</time>
      </trkpt>
      <trkpt lat="44.0729" lon="6.16539">
        <ele>637.6</ele>
        <time>2020-10-18T09:42:27Z</time>
      </trkpt>
      <trkpt lat="44.07291" lon="6.16538">
        <ele>637.6</ele>
        <time>2020-10-18T09:42:28Z</time>
      </trkpt>
      <trkpt lat="44.07293" lon="6.16537">
        <ele>637.6</ele>
        <time>2020-10-18T09:42:29Z</time>
      </trkpt>
      <trkpt lat="44.07294" lon="6.16536">
        <ele>638.2</ele>
        <time>2020-10-18T09:42:30Z</time>
      </trkpt>
      <trkpt lat="44.07295" lon="6.16535">
        <ele>638.4</ele>
        <time>2020-10-18T09:42:31Z</time>
      </trkpt>
      <trkpt lat="44.07296" lon="6.16533">
        <ele>638.8</ele>
        <time>2020-10-18T09:42:32Z</time>
      </trkpt>
      <trkpt lat="44.07297" lon="6.16532">
        <ele>638.8</ele>
        <time>2020-10-18T09:42:33Z</time>
      </trkpt>
      <trkpt lat="44.07298" lon="6.16531">
        <ele>639</ele>
        <time>2020-10-18T09:42:34Z</time>
      </trkpt>
      <trkpt lat="44.07299" lon="6.16529">
        <ele>639.4</ele>
        <time>2020-10-18T09:42:35Z</time>
      </trkpt>
      <trkpt lat="44.073" lon="6.16528">
        <ele>639.6</ele>
        <time>2020-10-18T09:42:36Z</time>
      </trkpt>
      <trkpt lat="44.07301" lon="6.16526">
        <ele>639.8</ele>
        <time>2020-10-18T09:42:37Z</time>
      </trkpt>
      <trkpt lat="44.07302" lon="6.16524">
        <ele>639.8</ele>
        <time>2020-10-18T09:42:38Z</time>
      </trkpt>
      <trkpt lat="44.07303" lon="6.16523">
        <ele>640</ele>
        <time>2020-10-18T09:42:39Z</time>
      </trkpt>
      <trkpt lat="44.07304" lon="6.16521">
        <ele>640.2</ele>
        <time>2020-10-18T09:42:40Z</time>
      </trkpt>
      <trkpt lat="44.07304" lon="6.1652">
        <ele>640.2</ele>
        <time>2020-10-18T09:42:41Z</time>
      </trkpt>
      <trkpt lat="44.07305" lon="6.16519">
        <ele>640.4</ele>
        <time>2020-10-18T09:42:42Z</time>
      </trkpt>
      <trkpt lat="44.07306" lon="6.16517">
        <ele>640.6</ele>
        <time>2020-10-18T09:42:43Z</time>
      </trkpt>
      <trkpt lat="44.07307" lon="6.16515">
        <ele>641</ele>
        <time>2020-10-18T09:42:44Z</time>
      </trkpt>
      <trkpt lat="44.07308" lon="6.16514">
        <ele>641.2</ele>
        <time>2020-10-18T09:42:45Z</time>
      </trkpt>
      <trkpt lat="44.07308" lon="6.16512">
        <ele>641.4</ele>
        <time>2020-10-18T09:42:46Z</time>
      </trkpt>
      <trkpt lat="44.07309" lon="6.16511">
        <ele>641.6</ele>
        <time>2020-10-18T09:42:47Z</time>
      </trkpt>
      <trkpt lat="44.07309" lon="6.16509">
        <ele>641.6</ele>
        <time>2020-10-18T09:42:48Z</time>
      </trkpt>
      <trkpt lat="44.0731" lon="6.16508">
        <ele>641.6</ele>
        <time>2020-10-18T09:42:49Z</time>
      </trkpt>
      <trkpt lat="44.0731" lon="6.16506">
        <ele>642</ele>
        <time>2020-10-18T09:42:50Z</time>
      </trkpt>
      <trkpt lat="44.0731" lon="6.16504">
        <ele>642.2</ele>
        <time>2020-10-18T09:42:51Z</time>
      </trkpt>
      <trkpt lat="44.07311" lon="6.16502">
        <ele>642.2</ele>
        <time>2020-10-18T09:42:52Z</time>
      </trkpt>
      <trkpt lat="44.07311" lon="6.165">
        <ele>642.4</ele>
        <time>2020-10-18T09:42:53Z</time>
      </trkpt>
      <trkpt lat="44.07311" lon="6.16498">
        <ele>642.4</ele>
        <time>2020-10-18T09:42:54Z</time>
      </trkpt>
      <trkpt lat="44.07311" lon="6.16496">
        <ele>642.4</ele>
        <time>2020-10-18T09:42:55Z</time>
      </trkpt>
      <trkpt lat="44.07311" lon="6.16494">
        <ele>642.6</ele>
        <time>2020-10-18T09:42:56Z</time>
      </trkpt>
      <trkpt lat="44.0731" lon="6.16493">
        <ele>642.8</ele>
        <time>2020-10-18T09:42:57Z</time>
      </trkpt>
      <trkpt lat="44.0731" lon="6.16491">
        <ele>643</ele>
        <time>2020-10-18T09:42:58Z</time>
      </trkpt>
      <trkpt lat="44.0731" lon="6.1649">
        <ele>643.4</ele>
        <time>2020-10-18T09:42:59Z</time>
      </trkpt>
      <trkpt lat="44.07309" lon="6.16489">
        <ele>643.6</ele>
        <time>2020-10-18T09:43:00Z</time>
      </trkpt>
      <trkpt lat="44.07308" lon="6.16488">
        <ele>643.8</ele>
        <time>2020-10-18T09:43:01Z</time>
      </trkpt>
      <trkpt lat="44.07307" lon="6.16486">
        <ele>644</ele>
        <time>2020-10-18T09:43:02Z</time>
      </trkpt>
      <trkpt lat="44.07305" lon="6.16485">
        <ele>644.4</ele>
        <time>2020-10-18T09:43:03Z</time>
      </trkpt>
      <trkpt lat="44.07304" lon="6.16484">
        <ele>644.6</ele>
        <time>2020-10-18T09:43:04Z</time>
      </trkpt>
      <trkpt lat="44.07303" lon="6.16484">
        <ele>644.8</ele>
        <time>2020-10-18T09:43:05Z</time>
      </trkpt>
      <trkpt lat="44.07302" lon="6.16484">
        <ele>644.8</ele>
        <time>2020-10-18T09:43:06Z</time>
      </trkpt>
      <trkpt lat="44.073" lon="6.16484">
        <ele>644.8</ele>
        <time>2020-10-18T09:43:07Z</time>
      </trkpt>
      <trkpt lat="44.07299" lon="6.16484">
        <ele>644.8</ele>
        <time>2020-10-18T09:43:08Z</time>
      </trkpt>
      <trkpt lat="44.07298" lon="6.16483">
        <ele>645</ele>
        <time>2020-10-18T09:43:09Z</time>
      </trkpt>
      <trkpt lat="44.07296" lon="6.16483">
        <ele>645.4</ele>
        <time>2020-10-18T09:43:10Z</time>
      </trkpt>
      <trkpt lat="44.07295" lon="6.16483">
        <ele>645.6</ele>
        <time>2020-10-18T09:43:11Z</time>
      </trkpt>
      <trkpt lat="44.07294" lon="6.16482">
        <ele>645.8</ele>
        <time>2020-10-18T09:43:12Z</time>
      </trkpt>
      <trkpt lat="44.07292" lon="6.16482">
        <ele>646</ele>
        <time>2020-10-18T09:43:13Z</time>
      </trkpt>
      <trkpt lat="44.07291" lon="6.16481">
        <ele>646</ele>
        <time>2020-10-18T09:43:14Z</time>
      </trkpt>
      <trkpt lat="44.0729" lon="6.1648">
        <ele>646.2</ele>
        <time>2020-10-18T09:43:15Z</time>
      </trkpt>
      <trkpt lat="44.07288" lon="6.16479">
        <ele>646.6</ele>
        <time>2020-10-18T09:43:16Z</time>
      </trkpt>
      <trkpt lat="44.07287" lon="6.16478">
        <ele>647</ele>
        <time>2020-10-18T09:43:17Z</time>
      </trkpt>
      <trkpt lat="44.07286" lon="6.16477">
        <ele>647.6</ele>
        <time>2020-10-18T09:43:18Z</time>
      </trkpt>
      <trkpt lat="44.07285" lon="6.16476">
        <ele>647.8</ele>
        <time>2020-10-18T09:43:19Z</time>
      </trkpt>
      <trkpt lat="44.07284" lon="6.16475">
        <ele>648.2</ele>
        <time>2020-10-18T09:43:20Z</time>
      </trkpt>
      <trkpt lat="44.07283" lon="6.16474">
        <ele>648.4</ele>
        <time>2020-10-18T09:43:21Z</time>
      </trkpt>
      <trkpt lat="44.07282" lon="6.16472">
        <ele>648.8</ele>
        <time>2020-10-18T09:43:22Z</time>
      </trkpt>
      <trkpt lat="44.07281" lon="6.16471">
        <ele>648.8</ele>
        <time>2020-10-18T09:43:23Z</time>
      </trkpt>
      <trkpt lat="44.0728" lon="6.1647">
        <ele>649.2</ele>
        <time>2020-10-18T09:43:24Z</time>
      </trkpt>
      <trkpt lat="44.07278" lon="6.16468">
        <ele>649.2</ele>
        <time>2020-10-18T09:43:25Z</time>
      </trkpt>
      <trkpt lat="44.07277" lon="6.16467">
        <ele>649.4</ele>
        <time>2020-10-18T09:43:26Z</time>
      </trkpt>
      <trkpt lat="44.07276" lon="6.16466">
        <ele>649.6</ele>
        <time>2020-10-18T09:43:27Z</time>
      </trkpt>
      <trkpt lat="44.07275" lon="6.16465">
        <ele>649.8</ele>
        <time>2020-10-18T09:43:28Z</time>
      </trkpt>
      <trkpt lat="44.07274" lon="6.16464">
        <ele>650</ele>
        <time>2020-10-18T09:43:29Z</time>
      </trkpt>
      <trkpt lat="44.07273" lon="6.16462">
        <ele>650</ele>
        <time>2020-10-18T09:43:30Z</time>
      </trkpt>
      <trkpt lat="44.07271" lon="6.16461">
        <ele>650</ele>
        <time>2020-10-18T09:43:31Z</time>
      </trkpt>
      <trkpt lat="44.0727" lon="6.1646">
        <ele>650.2</ele>
        <time>2020-10-18T09:43:32Z</time>
      </trkpt>
      <trkpt lat="44.07269" lon="6.16459">
        <ele>650.2</ele>
        <time>2020-10-18T09:43:33Z</time>
      </trkpt>
      <trkpt lat="44.07268" lon="6.16457">
        <ele>650.4</ele>
        <time>2020-10-18T09:43:34Z</time>
      </trkpt>
      <trkpt lat="44.07267" lon="6.16456">
        <ele>650.4</ele>
        <time>2020-10-18T09:43:35Z</time>
      </trkpt>
      <trkpt lat="44.07265" lon="6.16454">
        <ele>650.6</ele>
        <time>2020-10-18T09:43:36Z</time>
      </trkpt>
      <trkpt lat="44.07264" lon="6.16453">
        <ele>650.6</ele>
        <time>2020-10-18T09:43:37Z</time>
      </trkpt>
      <trkpt lat="44.07263" lon="6.16452">
        <ele>650.8</ele>
        <time>2020-10-18T09:43:38Z</time>
      </trkpt>
      <trkpt lat="44.07262" lon="6.16451">
        <ele>651</ele>
        <time>2020-10-18T09:43:39Z</time>
      </trkpt>
      <trkpt lat="44.07261" lon="6.1645">
        <ele>651.2</ele>
        <time>2020-10-18T09:43:40Z</time>
      </trkpt>
      <trkpt lat="44.0726" lon="6.1645">
        <ele>651.2</ele>
        <time>2020-10-18T09:43:41Z</time>
      </trkpt>
      <trkpt lat="44.07258" lon="6.16449">
        <ele>651.4</ele>
        <time>2020-10-18T09:43:42Z</time>
      </trkpt>
      <trkpt lat="44.07257" lon="6.16448">
        <ele>651.8</ele>
        <time>2020-10-18T09:43:43Z</time>
      </trkpt>
      <trkpt lat="44.07256" lon="6.16447">
        <ele>652</ele>
        <time>2020-10-18T09:43:44Z</time>
      </trkpt>
      <trkpt lat="44.07255" lon="6.16446">
        <ele>652</ele>
        <time>2020-10-18T09:43:45Z</time>
      </trkpt>
      <trkpt lat="44.07254" lon="6.16444">
        <ele>652</ele>
        <time>2020-10-18T09:43:46Z</time>
      </trkpt>
      <trkpt lat="44.07253" lon="6.16443">
        <ele>652.2</ele>
        <time>2020-10-18T09:43:47Z</time>
      </trkpt>
      <trkpt lat="44.07251" lon="6.16441">
        <ele>652.6</ele>
        <time>2020-10-18T09:43:48Z</time>
      </trkpt>
      <trkpt lat="44.0725" lon="6.1644">
        <ele>652.8</ele>
        <time>2020-10-18T09:43:49Z</time>
      </trkpt>
      <trkpt lat="44.07249" lon="6.16438">
        <ele>652.8</ele>
        <time>2020-10-18T09:43:50Z</time>
      </trkpt>
      <trkpt lat="44.07248" lon="6.16437">
        <ele>652.8</ele>
        <time>2020-10-18T09:43:51Z</time>
      </trkpt>
      <trkpt lat="44.07247" lon="6.16435">
        <ele>653</ele>
        <time>2020-10-18T09:43:52Z</time>
      </trkpt>
      <trkpt lat="44.07246" lon="6.16434">
        <ele>653</ele>
        <time>2020-10-18T09:43:53Z</time>
      </trkpt>
      <trkpt lat="44.07245" lon="6.16432">
        <ele>653.4</ele>
        <time>2020-10-18T09:43:54Z</time>
      </trkpt>
      <trkpt lat="44.07244" lon="6.1643">
        <ele>653.6</ele>
        <time>2020-10-18T09:43:55Z</time>
      </trkpt>
      <trkpt lat="44.07243" lon="6.16428">
        <ele>653.8</ele>
        <time>2020-10-18T09:43:56Z</time>
      </trkpt>
      <trkpt lat="44.07243" lon="6.16426">
        <ele>653.8</ele>
        <time>2020-10-18T09:43:57Z</time>
      </trkpt>
      <trkpt lat="44.07242" lon="6.16425">
        <ele>654</ele>
        <time>2020-10-18T09:43:58Z</time>
      </trkpt>
      <trkpt lat="44.07241" lon="6.16423">
        <ele>654.4</ele>
        <time>2020-10-18T09:43:59Z</time>
      </trkpt>
      <trkpt lat="44.0724" lon="6.16422">
        <ele>654.6</ele>
        <time>2020-10-18T09:44:00Z</time>
      </trkpt>
      <trkpt lat="44.0724" lon="6.1642">
        <ele>654.6</ele>
        <time>2020-10-18T09:44:01Z</time>
      </trkpt>
      <trkpt lat="44.07239" lon="6.16419">
        <ele>654.8</ele>
        <time>2020-10-18T09:44:02Z</time>
      </trkpt>
      <trkpt lat="44.07238" lon="6.16417">
        <ele>655.2</ele>
        <time>2020-10-18T09:44:03Z</time>
      </trkpt>
      <trkpt lat="44.07237" lon="6.16416">
        <ele>655.4</ele>
        <time>2020-10-18T09:44:04Z</time>
      </trkpt>
      <trkpt lat="44.07236" lon="6.16415">
        <ele>655.4</ele>
        <time>2020-10-18T09:44:05Z</time>
      </trkpt>
      <trkpt lat="44.07235" lon="6.16414">
        <ele>655.4</ele>
        <time>2020-10-18T09:44:06Z</time>
      </trkpt>
      <trkpt lat="44.07234" lon="6.16414">
        <ele>655.8</ele>
        <time>2020-10-18T09:44:07Z</time>
      </trkpt>
      <trkpt lat="44.07232" lon="6.16413">
        <ele>656</ele>
        <time>2020-10-18T09:44:08Z</time>
      </trkpt>
      <trkpt lat="44.07229" lon="6.16413">
        <ele>656.2</ele>
        <time>2020-10-18T09:44:09Z</time>
      </trkpt>
      <trkpt lat="44.07227" lon="6.16413">
        <ele>656.2</ele>
        <time>2020-10-18T09:44:10Z</time>
      </trkpt>
      <trkpt lat="44.07225" lon="6.16413">
        <ele>656.4</ele>
        <time>2020-10-18T09:44:11Z</time>
      </trkpt>
      <trkpt lat="44.07223" lon="6.16413">
        <ele>656.4</ele>
        <time>2020-10-18T09:44:12Z</time>
      </trkpt>
      <trkpt lat="44.07222" lon="6.16413">
        <ele>656.6</ele>
        <time>2020-10-18T09:44:13Z</time>
      </trkpt>
      <trkpt lat="44.07221" lon="6.16413">
        <ele>656.8</ele>
        <time>2020-10-18T09:44:14Z</time>
      </trkpt>
      <trkpt lat="44.0722" lon="6.16413">
        <ele>656.6</ele>
        <time>2020-10-18T09:44:15Z</time>
      </trkpt>
      <trkpt lat="44.07218" lon="6.16412">
        <ele>656.6</ele>
        <time>2020-10-18T09:44:16Z</time>
      </trkpt>
      <trkpt lat="44.07216" lon="6.16411">
        <ele>656.6</ele>
        <time>2020-10-18T09:44:17Z</time>
      </trkpt>
      <trkpt lat="44.07213" lon="6.1641">
        <ele>656.6</ele>
        <time>2020-10-18T09:44:18Z</time>
      </trkpt>
      <trkpt lat="44.07212" lon="6.16407">
        <ele>656.6</ele>
        <time>2020-10-18T09:44:19Z</time>
      </trkpt>
      <trkpt lat="44.0721" lon="6.16405">
        <ele>656.6</ele>
        <time>2020-10-18T09:44:20Z</time>
      </trkpt>
      <trkpt lat="44.07209" lon="6.16402">
        <ele>656.6</ele>
        <time>2020-10-18T09:44:21Z</time>
      </trkpt>
      <trkpt lat="44.07208" lon="6.164">
        <ele>656.6</ele>
        <time>2020-10-18T09:44:22Z</time>
      </trkpt>
      <trkpt lat="44.07207" lon="6.16397">
        <ele>656.4</ele>
        <time>2020-10-18T09:44:23Z</time>
      </trkpt>
      <trkpt lat="44.07207" lon="6.16395">
        <ele>656.2</ele>
        <time>2020-10-18T09:44:24Z</time>
      </trkpt>
      <trkpt lat="44.07206" lon="6.16394">
        <ele>656.2</ele>
        <time>2020-10-18T09:44:25Z</time>
      </trkpt>
      <trkpt lat="44.07206" lon="6.16392">
        <ele>655.8</ele>
        <time>2020-10-18T09:44:26Z</time>
      </trkpt>
      <trkpt lat="44.07206" lon="6.1639">
        <ele>655.4</ele>
        <time>2020-10-18T09:44:27Z</time>
      </trkpt>
      <trkpt lat="44.07206" lon="6.16388">
        <ele>655.2</ele>
        <time>2020-10-18T09:44:28Z</time>
      </trkpt>
      <trkpt lat="44.07205" lon="6.16386">
        <ele>655.2</ele>
        <time>2020-10-18T09:44:29Z</time>
      </trkpt>
      <trkpt lat="44.07205" lon="6.16384">
        <ele>655.2</ele>
        <time>2020-10-18T09:44:30Z</time>
      </trkpt>
      <trkpt lat="44.07205" lon="6.16383">
        <ele>655.2</ele>
        <time>2020-10-18T09:44:31Z</time>
      </trkpt>
      <trkpt lat="44.07205" lon="6.16381">
        <ele>655</ele>
        <time>2020-10-18T09:44:32Z</time>
      </trkpt>
      <trkpt lat="44.07205" lon="6.1638">
        <ele>655.2</ele>
        <time>2020-10-18T09:44:33Z</time>
      </trkpt>
      <trkpt lat="44.07205" lon="6.16379">
        <ele>655.2</ele>
        <time>2020-10-18T09:44:34Z</time>
      </trkpt>
      <trkpt lat="44.07204" lon="6.16378">
        <ele>655.2</ele>
        <time>2020-10-18T09:44:35Z</time>
      </trkpt>
      <trkpt lat="44.07204" lon="6.16377">
        <ele>655.2</ele>
        <time>2020-10-18T09:44:36Z</time>
      </trkpt>
      <trkpt lat="44.07203" lon="6.16376">
        <ele>655.4</ele>
        <time>2020-10-18T09:44:37Z</time>
      </trkpt>
      <trkpt lat="44.07202" lon="6.16374">
        <ele>656</ele>
        <time>2020-10-18T09:44:38Z</time>
      </trkpt>
      <trkpt lat="44.07202" lon="6.16373">
        <ele>656.2</ele>
        <time>2020-10-18T09:44:39Z</time>
      </trkpt>
      <trkpt lat="44.07201" lon="6.16372">
        <ele>656.4</ele>
        <time>2020-10-18T09:44:40Z</time>
      </trkpt>
      <trkpt lat="44.072" lon="6.16371">
        <ele>656.6</ele>
        <time>2020-10-18T09:44:41Z</time>
      </trkpt>
      <trkpt lat="44.07198" lon="6.1637">
        <ele>656.8</ele>
        <time>2020-10-18T09:44:43Z</time>
      </trkpt>
      <trkpt lat="44.07196" lon="6.16369">
        <ele>656.8</ele>
        <time>2020-10-18T09:44:44Z</time>
      </trkpt>
      <trkpt lat="44.07195" lon="6.16368">
        <ele>657</ele>
        <time>2020-10-18T09:44:45Z</time>
      </trkpt>
      <trkpt lat="44.07193" lon="6.16367">
        <ele>656.8</ele>
        <time>2020-10-18T09:44:46Z</time>
      </trkpt>
      <trkpt lat="44.07191" lon="6.16365">
        <ele>657</ele>
        <time>2020-10-18T09:44:47Z</time>
      </trkpt>
      <trkpt lat="44.07187" lon="6.16363">
        <ele>656.8</ele>
        <time>2020-10-18T09:44:49Z</time>
      </trkpt>
      <trkpt lat="44.07184" lon="6.16362">
        <ele>657</ele>
        <time>2020-10-18T09:44:50Z</time>
      </trkpt>
      <trkpt lat="44.07182" lon="6.16361">
        <ele>656.8</ele>
        <time>2020-10-18T09:44:51Z</time>
      </trkpt>
      <trkpt lat="44.07181" lon="6.1636">
        <ele>657</ele>
        <time>2020-10-18T09:44:52Z</time>
      </trkpt>
      <trkpt lat="44.07178" lon="6.16359">
        <ele>657</ele>
        <time>2020-10-18T09:44:53Z</time>
      </trkpt>
      <trkpt lat="44.07176" lon="6.16358">
        <ele>656.8</ele>
        <time>2020-10-18T09:44:54Z</time>
      </trkpt>
      <trkpt lat="44.07175" lon="6.16357">
        <ele>657</ele>
        <time>2020-10-18T09:44:55Z</time>
      </trkpt>
      <trkpt lat="44.07173" lon="6.16356">
        <ele>656.8</ele>
        <time>2020-10-18T09:44:56Z</time>
      </trkpt>
      <trkpt lat="44.07171" lon="6.16355">
        <ele>657</ele>
        <time>2020-10-18T09:44:57Z</time>
      </trkpt>
      <trkpt lat="44.07168" lon="6.16354">
        <ele>657</ele>
        <time>2020-10-18T09:44:58Z</time>
      </trkpt>
      <trkpt lat="44.07165" lon="6.16352">
        <ele>657</ele>
        <time>2020-10-18T09:44:59Z</time>
      </trkpt>
      <trkpt lat="44.07161" lon="6.1635">
        <ele>657</ele>
        <time>2020-10-18T09:45:01Z</time>
      </trkpt>
      <trkpt lat="44.07158" lon="6.1635">
        <ele>657</ele>
        <time>2020-10-18T09:45:02Z</time>
      </trkpt>
      <trkpt lat="44.07155" lon="6.1635">
        <ele>657</ele>
        <time>2020-10-18T09:45:03Z</time>
      </trkpt>
      <trkpt lat="44.07153" lon="6.1635">
        <ele>657</ele>
        <time>2020-10-18T09:45:04Z</time>
      </trkpt>
      <trkpt lat="44.07149" lon="6.1635">
        <ele>657</ele>
        <time>2020-10-18T09:45:05Z</time>
      </trkpt>
      <trkpt lat="44.07141" lon="6.1635">
        <ele>657.2</ele>
        <time>2020-10-18T09:45:07Z</time>
      </trkpt>
      <trkpt lat="44.07137" lon="6.1635">
        <ele>657.2</ele>
        <time>2020-10-18T09:45:08Z</time>
      </trkpt>
      <trkpt lat="44.07134" lon="6.1635">
        <ele>657.2</ele>
        <time>2020-10-18T09:45:09Z</time>
      </trkpt>
      <trkpt lat="44.07131" lon="6.1635">
        <ele>657.2</ele>
        <time>2020-10-18T09:45:10Z</time>
      </trkpt>
      <trkpt lat="44.07129" lon="6.16349">
        <ele>657.2</ele>
        <time>2020-10-18T09:45:11Z</time>
      </trkpt>
      <trkpt lat="44.07127" lon="6.1635">
        <ele>657.2</ele>
        <time>2020-10-18T09:45:12Z</time>
      </trkpt>
      <trkpt lat="44.07125" lon="6.1635">
        <ele>657.4</ele>
        <time>2020-10-18T09:45:13Z</time>
      </trkpt>
      <trkpt lat="44.07122" lon="6.1635">
        <ele>657.4</ele>
        <time>2020-10-18T09:45:14Z</time>
      </trkpt>
      <trkpt lat="44.0712" lon="6.16351">
        <ele>657.6</ele>
        <time>2020-10-18T09:45:15Z</time>
      </trkpt>
      <trkpt lat="44.07118" lon="6.1635">
        <ele>657.6</ele>
        <time>2020-10-18T09:45:16Z</time>
      </trkpt>
      <trkpt lat="44.07116" lon="6.1635">
        <ele>657.8</ele>
        <time>2020-10-18T09:45:17Z</time>
      </trkpt>
      <trkpt lat="44.07114" lon="6.16349">
        <ele>657.6</ele>
        <time>2020-10-18T09:45:18Z</time>
      </trkpt>
      <trkpt lat="44.07111" lon="6.16349">
        <ele>657.8</ele>
        <time>2020-10-18T09:45:19Z</time>
      </trkpt>
      <trkpt lat="44.07108" lon="6.16348">
        <ele>657.8</ele>
        <time>2020-10-18T09:45:20Z</time>
      </trkpt>
      <trkpt lat="44.07104" lon="6.16347">
        <ele>657.6</ele>
        <time>2020-10-18T09:45:21Z</time>
      </trkpt>
      <trkpt lat="44.07098" lon="6.16346">
        <ele>657.8</ele>
        <time>2020-10-18T09:45:23Z</time>
      </trkpt>
      <trkpt lat="44.07091" lon="6.16342">
        <ele>657.8</ele>
        <time>2020-10-18T09:45:25Z</time>
      </trkpt>
      <trkpt lat="44.07089" lon="6.16339">
        <ele>657.6</ele>
        <time>2020-10-18T09:45:26Z</time>
      </trkpt>
      <trkpt lat="44.07088" lon="6.16337">
        <ele>657.8</ele>
        <time>2020-10-18T09:45:27Z</time>
      </trkpt>
      <trkpt lat="44.07088" lon="6.16334">
        <ele>657.8</ele>
        <time>2020-10-18T09:45:28Z</time>
      </trkpt>
      <trkpt lat="44.07088" lon="6.16331">
        <ele>657.8</ele>
        <time>2020-10-18T09:45:29Z</time>
      </trkpt>
      <trkpt lat="44.07087" lon="6.16328">
        <ele>657.8</ele>
        <time>2020-10-18T09:45:30Z</time>
      </trkpt>
      <trkpt lat="44.07088" lon="6.16325">
        <ele>658</ele>
        <time>2020-10-18T09:45:31Z</time>
      </trkpt>
      <trkpt lat="44.07088" lon="6.16323">
        <ele>658</ele>
        <time>2020-10-18T09:45:32Z</time>
      </trkpt>
      <trkpt lat="44.07088" lon="6.16321">
        <ele>658</ele>
        <time>2020-10-18T09:45:33Z</time>
      </trkpt>
      <trkpt lat="44.07088" lon="6.16319">
        <ele>658.2</ele>
        <time>2020-10-18T09:45:34Z</time>
      </trkpt>
      <trkpt lat="44.07088" lon="6.16316">
        <ele>658</ele>
        <time>2020-10-18T09:45:35Z</time>
      </trkpt>
      <trkpt lat="44.07088" lon="6.16314">
        <ele>658.2</ele>
        <time>2020-10-18T09:45:36Z</time>
      </trkpt>
      <trkpt lat="44.07088" lon="6.16312">
        <ele>658.2</ele>
        <time>2020-10-18T09:45:37Z</time>
      </trkpt>
      <trkpt lat="44.07088" lon="6.1631">
        <ele>658.4</ele>
        <time>2020-10-18T09:45:38Z</time>
      </trkpt>
      <trkpt lat="44.07089" lon="6.16307">
        <ele>658.8</ele>
        <time>2020-10-18T09:45:39Z</time>
      </trkpt>
      <trkpt lat="44.07089" lon="6.16304">
        <ele>659</ele>
        <time>2020-10-18T09:45:40Z</time>
      </trkpt>
      <trkpt lat="44.07088" lon="6.16299">
        <ele>659.4</ele>
        <time>2020-10-18T09:45:41Z</time>
      </trkpt>
      <trkpt lat="44.07088" lon="6.16297">
        <ele>659.4</ele>
        <time>2020-10-18T09:45:42Z</time>
      </trkpt>
      <trkpt lat="44.07087" lon="6.16292">
        <ele>659.6</ele>
        <time>2020-10-18T09:45:43Z</time>
      </trkpt>
      <trkpt lat="44.07087" lon="6.16289">
        <ele>660</ele>
        <time>2020-10-18T09:45:44Z</time>
      </trkpt>
      <trkpt lat="44.07087" lon="6.16287">
        <ele>660.2</ele>
        <time>2020-10-18T09:45:45Z</time>
      </trkpt>
      <trkpt lat="44.07087" lon="6.16283">
        <ele>660.6</ele>
        <time>2020-10-18T09:45:46Z</time>
      </trkpt>
      <trkpt lat="44.07087" lon="6.16281">
        <ele>660.6</ele>
        <time>2020-10-18T09:45:47Z</time>
      </trkpt>
      <trkpt lat="44.07087" lon="6.16278">
        <ele>661</ele>
        <time>2020-10-18T09:45:48Z</time>
      </trkpt>
      <trkpt lat="44.07087" lon="6.16276">
        <ele>661.2</ele>
        <time>2020-10-18T09:45:49Z</time>
      </trkpt>
      <trkpt lat="44.07087" lon="6.16274">
        <ele>661.4</ele>
        <time>2020-10-18T09:45:50Z</time>
      </trkpt>
      <trkpt lat="44.07088" lon="6.16272">
        <ele>661.6</ele>
        <time>2020-10-18T09:45:51Z</time>
      </trkpt>
      <trkpt lat="44.07089" lon="6.1627">
        <ele>662</ele>
        <time>2020-10-18T09:45:52Z</time>
      </trkpt>
      <trkpt lat="44.07089" lon="6.16268">
        <ele>662.4</ele>
        <time>2020-10-18T09:45:53Z</time>
      </trkpt>
      <trkpt lat="44.0709" lon="6.16266">
        <ele>662.4</ele>
        <time>2020-10-18T09:45:54Z</time>
      </trkpt>
      <trkpt lat="44.07091" lon="6.16263">
        <ele>662.8</ele>
        <time>2020-10-18T09:45:55Z</time>
      </trkpt>
      <trkpt lat="44.07091" lon="6.16261">
        <ele>663</ele>
        <time>2020-10-18T09:45:56Z</time>
      </trkpt>
      <trkpt lat="44.07092" lon="6.16259">
        <ele>663.2</ele>
        <time>2020-10-18T09:45:57Z</time>
      </trkpt>
      <trkpt lat="44.07093" lon="6.16257">
        <ele>663.6</ele>
        <time>2020-10-18T09:45:58Z</time>
      </trkpt>
      <trkpt lat="44.07093" lon="6.16255">
        <ele>663.8</ele>
        <time>2020-10-18T09:45:59Z</time>
      </trkpt>
      <trkpt lat="44.07094" lon="6.16252">
        <ele>664.2</ele>
        <time>2020-10-18T09:46:00Z</time>
      </trkpt>
      <trkpt lat="44.07094" lon="6.16249">
        <ele>664.2</ele>
        <time>2020-10-18T09:46:01Z</time>
      </trkpt>
      <trkpt lat="44.07094" lon="6.16246">
        <ele>664.4</ele>
        <time>2020-10-18T09:46:02Z</time>
      </trkpt>
      <trkpt lat="44.07095" lon="6.16244">
        <ele>664.8</ele>
        <time>2020-10-18T09:46:03Z</time>
      </trkpt>
      <trkpt lat="44.07095" lon="6.16241">
        <ele>665</ele>
        <time>2020-10-18T09:46:04Z</time>
      </trkpt>
      <trkpt lat="44.07095" lon="6.16239">
        <ele>665</ele>
        <time>2020-10-18T09:46:05Z</time>
      </trkpt>
      <trkpt lat="44.07096" lon="6.16236">
        <ele>665.4</ele>
        <time>2020-10-18T09:46:06Z</time>
      </trkpt>
      <trkpt lat="44.07096" lon="6.16234">
        <ele>665.6</ele>
        <time>2020-10-18T09:46:07Z</time>
      </trkpt>
      <trkpt lat="44.07097" lon="6.16231">
        <ele>665.8</ele>
        <time>2020-10-18T09:46:08Z</time>
      </trkpt>
      <trkpt lat="44.07097" lon="6.16229">
        <ele>666.2</ele>
        <time>2020-10-18T09:46:09Z</time>
      </trkpt>
      <trkpt lat="44.07097" lon="6.16227">
        <ele>666.2</ele>
        <time>2020-10-18T09:46:10Z</time>
      </trkpt>
      <trkpt lat="44.07097" lon="6.16224">
        <ele>666.6</ele>
        <time>2020-10-18T09:46:11Z</time>
      </trkpt>
      <trkpt lat="44.07097" lon="6.16222">
        <ele>666.6</ele>
        <time>2020-10-18T09:46:12Z</time>
      </trkpt>
      <trkpt lat="44.07097" lon="6.1622">
        <ele>666.8</ele>
        <time>2020-10-18T09:46:13Z</time>
      </trkpt>
      <trkpt lat="44.07097" lon="6.16217">
        <ele>667.4</ele>
        <time>2020-10-18T09:46:14Z</time>
      </trkpt>
      <trkpt lat="44.07097" lon="6.16215">
        <ele>667.6</ele>
        <time>2020-10-18T09:46:15Z</time>
      </trkpt>
      <trkpt lat="44.07097" lon="6.16212">
        <ele>667.8</ele>
        <time>2020-10-18T09:46:16Z</time>
      </trkpt>
      <trkpt lat="44.07097" lon="6.1621">
        <ele>668</ele>
        <time>2020-10-18T09:46:17Z</time>
      </trkpt>
      <trkpt lat="44.07097" lon="6.16208">
        <ele>668.2</ele>
        <time>2020-10-18T09:46:18Z</time>
      </trkpt>
      <trkpt lat="44.07096" lon="6.16206">
        <ele>668.6</ele>
        <time>2020-10-18T09:46:19Z</time>
      </trkpt>
      <trkpt lat="44.07096" lon="6.16205">
        <ele>668.6</ele>
        <time>2020-10-18T09:46:20Z</time>
      </trkpt>
      <trkpt lat="44.07096" lon="6.16203">
        <ele>668.8</ele>
        <time>2020-10-18T09:46:21Z</time>
      </trkpt>
      <trkpt lat="44.07095" lon="6.162">
        <ele>669</ele>
        <time>2020-10-18T09:46:22Z</time>
      </trkpt>
      <trkpt lat="44.07095" lon="6.16198">
        <ele>669.2</ele>
        <time>2020-10-18T09:46:23Z</time>
      </trkpt>
      <trkpt lat="44.07094" lon="6.16196">
        <ele>669.2</ele>
        <time>2020-10-18T09:46:24Z</time>
      </trkpt>
      <trkpt lat="44.07094" lon="6.16194">
        <ele>669.6</ele>
        <time>2020-10-18T09:46:25Z</time>
      </trkpt>
      <trkpt lat="44.07093" lon="6.16192">
        <ele>669.8</ele>
        <time>2020-10-18T09:46:26Z</time>
      </trkpt>
      <trkpt lat="44.07093" lon="6.16191">
        <ele>670</ele>
        <time>2020-10-18T09:46:27Z</time>
      </trkpt>
      <trkpt lat="44.07092" lon="6.16189">
        <ele>670.2</ele>
        <time>2020-10-18T09:46:28Z</time>
      </trkpt>
      <trkpt lat="44.07092" lon="6.16187">
        <ele>670.4</ele>
        <time>2020-10-18T09:46:29Z</time>
      </trkpt>
      <trkpt lat="44.07092" lon="6.16185">
        <ele>670.6</ele>
        <time>2020-10-18T09:46:30Z</time>
      </trkpt>
      <trkpt lat="44.07091" lon="6.16183">
        <ele>670.8</ele>
        <time>2020-10-18T09:46:31Z</time>
      </trkpt>
      <trkpt lat="44.07091" lon="6.16181">
        <ele>671.2</ele>
        <time>2020-10-18T09:46:32Z</time>
      </trkpt>
      <trkpt lat="44.07091" lon="6.16179">
        <ele>671.6</ele>
        <time>2020-10-18T09:46:33Z</time>
      </trkpt>
      <trkpt lat="44.07091" lon="6.16177">
        <ele>671.6</ele>
        <time>2020-10-18T09:46:34Z</time>
      </trkpt>
      <trkpt lat="44.07091" lon="6.16174">
        <ele>671.8</ele>
        <time>2020-10-18T09:46:35Z</time>
      </trkpt>
      <trkpt lat="44.07091" lon="6.16172">
        <ele>672</ele>
        <time>2020-10-18T09:46:36Z</time>
      </trkpt>
      <trkpt lat="44.07091" lon="6.16169">
        <ele>672.2</ele>
        <time>2020-10-18T09:46:37Z</time>
      </trkpt>
      <trkpt lat="44.07092" lon="6.16167">
        <ele>672.2</ele>
        <time>2020-10-18T09:46:38Z</time>
      </trkpt>
      <trkpt lat="44.07092" lon="6.16165">
        <ele>672.4</ele>
        <time>2020-10-18T09:46:39Z</time>
      </trkpt>
      <trkpt lat="44.07091" lon="6.16162">
        <ele>672.4</ele>
        <time>2020-10-18T09:46:40Z</time>
      </trkpt>
      <trkpt lat="44.0709" lon="6.1616">
        <ele>672.6</ele>
        <time>2020-10-18T09:46:41Z</time>
      </trkpt>
      <trkpt lat="44.07089" lon="6.16157">
        <ele>672.8</ele>
        <time>2020-10-18T09:46:42Z</time>
      </trkpt>
      <trkpt lat="44.07088" lon="6.16154">
        <ele>673.2</ele>
        <time>2020-10-18T09:46:43Z</time>
      </trkpt>
      <trkpt lat="44.07088" lon="6.16151">
        <ele>673.2</ele>
        <time>2020-10-18T09:46:44Z</time>
      </trkpt>
      <trkpt lat="44.07089" lon="6.16149">
        <ele>673.4</ele>
        <time>2020-10-18T09:46:45Z</time>
      </trkpt>
      <trkpt lat="44.07089" lon="6.16147">
        <ele>673.6</ele>
        <time>2020-10-18T09:46:46Z</time>
      </trkpt>
      <trkpt lat="44.07089" lon="6.16145">
        <ele>673.8</ele>
        <time>2020-10-18T09:46:47Z</time>
      </trkpt>
      <trkpt lat="44.07088" lon="6.16144">
        <ele>674</ele>
        <time>2020-10-18T09:46:48Z</time>
      </trkpt>
      <trkpt lat="44.07087" lon="6.16143">
        <ele>674.4</ele>
        <time>2020-10-18T09:46:49Z</time>
      </trkpt>
      <trkpt lat="44.07087" lon="6.16141">
        <ele>674.6</ele>
        <time>2020-10-18T09:46:50Z</time>
      </trkpt>
      <trkpt lat="44.07087" lon="6.16139">
        <ele>674.8</ele>
        <time>2020-10-18T09:46:51Z</time>
      </trkpt>
      <trkpt lat="44.07086" lon="6.16137">
        <ele>675</ele>
        <time>2020-10-18T09:46:52Z</time>
      </trkpt>
      <trkpt lat="44.07086" lon="6.16135">
        <ele>675.2</ele>
        <time>2020-10-18T09:46:53Z</time>
      </trkpt>
      <trkpt lat="44.07086" lon="6.16133">
        <ele>675.4</ele>
        <time>2020-10-18T09:46:54Z</time>
      </trkpt>
      <trkpt lat="44.07086" lon="6.16132">
        <ele>675.6</ele>
        <time>2020-10-18T09:46:55Z</time>
      </trkpt>
      <trkpt lat="44.07086" lon="6.1613">
        <ele>676.2</ele>
        <time>2020-10-18T09:46:56Z</time>
      </trkpt>
      <trkpt lat="44.07086" lon="6.16128">
        <ele>676.2</ele>
        <time>2020-10-18T09:46:57Z</time>
      </trkpt>
      <trkpt lat="44.07085" lon="6.16126">
        <ele>676.6</ele>
        <time>2020-10-18T09:46:58Z</time>
      </trkpt>
      <trkpt lat="44.07085" lon="6.16124">
        <ele>676.6</ele>
        <time>2020-10-18T09:46:59Z</time>
      </trkpt>
      <trkpt lat="44.07084" lon="6.16121">
        <ele>676.8</ele>
        <time>2020-10-18T09:47:00Z</time>
      </trkpt>
      <trkpt lat="44.07084" lon="6.16119">
        <ele>677</ele>
        <time>2020-10-18T09:47:01Z</time>
      </trkpt>
      <trkpt lat="44.07083" lon="6.16116">
        <ele>677.6</ele>
        <time>2020-10-18T09:47:02Z</time>
      </trkpt>
      <trkpt lat="44.07083" lon="6.16114">
        <ele>678</ele>
        <time>2020-10-18T09:47:03Z</time>
      </trkpt>
      <trkpt lat="44.07083" lon="6.16111">
        <ele>678</ele>
        <time>2020-10-18T09:47:04Z</time>
      </trkpt>
      <trkpt lat="44.07083" lon="6.16109">
        <ele>678.4</ele>
        <time>2020-10-18T09:47:05Z</time>
      </trkpt>
      <trkpt lat="44.07083" lon="6.16107">
        <ele>678.8</ele>
        <time>2020-10-18T09:47:06Z</time>
      </trkpt>
      <trkpt lat="44.07082" lon="6.16106">
        <ele>679</ele>
        <time>2020-10-18T09:47:07Z</time>
      </trkpt>
      <trkpt lat="44.07081" lon="6.16104">
        <ele>679.2</ele>
        <time>2020-10-18T09:47:08Z</time>
      </trkpt>
      <trkpt lat="44.07081" lon="6.16102">
        <ele>679.4</ele>
        <time>2020-10-18T09:47:09Z</time>
      </trkpt>
      <trkpt lat="44.0708" lon="6.161">
        <ele>679.6</ele>
        <time>2020-10-18T09:47:10Z</time>
      </trkpt>
      <trkpt lat="44.07079" lon="6.16098">
        <ele>679.8</ele>
        <time>2020-10-18T09:47:11Z</time>
      </trkpt>
      <trkpt lat="44.07079" lon="6.16096">
        <ele>680.2</ele>
        <time>2020-10-18T09:47:12Z</time>
      </trkpt>
      <trkpt lat="44.07078" lon="6.16094">
        <ele>680.2</ele>
        <time>2020-10-18T09:47:13Z</time>
      </trkpt>
      <trkpt lat="44.07078" lon="6.16091">
        <ele>680.4</ele>
        <time>2020-10-18T09:47:14Z</time>
      </trkpt>
      <trkpt lat="44.07078" lon="6.16089">
        <ele>680.6</ele>
        <time>2020-10-18T09:47:15Z</time>
      </trkpt>
      <trkpt lat="44.07078" lon="6.16087">
        <ele>681</ele>
        <time>2020-10-18T09:47:16Z</time>
      </trkpt>
      <trkpt lat="44.07078" lon="6.16084">
        <ele>681.4</ele>
        <time>2020-10-18T09:47:17Z</time>
      </trkpt>
      <trkpt lat="44.07078" lon="6.16082">
        <ele>681.6</ele>
        <time>2020-10-18T09:47:18Z</time>
      </trkpt>
      <trkpt lat="44.07077" lon="6.1608">
        <ele>681.6</ele>
        <time>2020-10-18T09:47:19Z</time>
      </trkpt>
      <trkpt lat="44.07077" lon="6.16078">
        <ele>681.8</ele>
        <time>2020-10-18T09:47:20Z</time>
      </trkpt>
      <trkpt lat="44.07077" lon="6.16075">
        <ele>682</ele>
        <time>2020-10-18T09:47:21Z</time>
      </trkpt>
      <trkpt lat="44.07077" lon="6.16073">
        <ele>682.2</ele>
        <time>2020-10-18T09:47:22Z</time>
      </trkpt>
      <trkpt lat="44.07077" lon="6.16071">
        <ele>682.4</ele>
        <time>2020-10-18T09:47:23Z</time>
      </trkpt>
      <trkpt lat="44.07077" lon="6.16068">
        <ele>682.8</ele>
        <time>2020-10-18T09:47:24Z</time>
      </trkpt>
      <trkpt lat="44.07077" lon="6.16066">
        <ele>683</ele>
        <time>2020-10-18T09:47:25Z</time>
      </trkpt>
      <trkpt lat="44.07077" lon="6.16063">
        <ele>683.2</ele>
        <time>2020-10-18T09:47:26Z</time>
      </trkpt>
      <trkpt lat="44.07078" lon="6.16061">
        <ele>683.4</ele>
        <time>2020-10-18T09:47:27Z</time>
      </trkpt>
      <trkpt lat="44.07078" lon="6.16058">
        <ele>683.8</ele>
        <time>2020-10-18T09:47:28Z</time>
      </trkpt>
      <trkpt lat="44.07078" lon="6.16056">
        <ele>683.8</ele>
        <time>2020-10-18T09:47:29Z</time>
      </trkpt>
      <trkpt lat="44.07079" lon="6.16053">
        <ele>684</ele>
        <time>2020-10-18T09:47:30Z</time>
      </trkpt>
      <trkpt lat="44.07079" lon="6.16051">
        <ele>684.2</ele>
        <time>2020-10-18T09:47:31Z</time>
      </trkpt>
      <trkpt lat="44.07079" lon="6.16048">
        <ele>684.4</ele>
        <time>2020-10-18T09:47:32Z</time>
      </trkpt>
      <trkpt lat="44.07079" lon="6.16045">
        <ele>684.8</ele>
        <time>2020-10-18T09:47:33Z</time>
      </trkpt>
      <trkpt lat="44.07079" lon="6.16042">
        <ele>684.8</ele>
        <time>2020-10-18T09:47:34Z</time>
      </trkpt>
      <trkpt lat="44.07079" lon="6.1604">
        <ele>685</ele>
        <time>2020-10-18T09:47:35Z</time>
      </trkpt>
      <trkpt lat="44.07079" lon="6.16037">
        <ele>685.2</ele>
        <time>2020-10-18T09:47:36Z</time>
      </trkpt>
      <trkpt lat="44.07079" lon="6.16035">
        <ele>685.2</ele>
        <time>2020-10-18T09:47:37Z</time>
      </trkpt>
      <trkpt lat="44.07079" lon="6.16032">
        <ele>685.4</ele>
        <time>2020-10-18T09:47:38Z</time>
      </trkpt>
      <trkpt lat="44.07079" lon="6.16029">
        <ele>685.6</ele>
        <time>2020-10-18T09:47:39Z</time>
      </trkpt>
      <trkpt lat="44.07079" lon="6.16026">
        <ele>685.8</ele>
        <time>2020-10-18T09:47:40Z</time>
      </trkpt>
      <trkpt lat="44.07079" lon="6.16023">
        <ele>686</ele>
        <time>2020-10-18T09:47:41Z</time>
      </trkpt>
      <trkpt lat="44.07079" lon="6.1602">
        <ele>686.2</ele>
        <time>2020-10-18T09:47:42Z</time>
      </trkpt>
      <trkpt lat="44.07078" lon="6.16017">
        <ele>686.2</ele>
        <time>2020-10-18T09:47:43Z</time>
      </trkpt>
      <trkpt lat="44.07078" lon="6.16014">
        <ele>686.4</ele>
        <time>2020-10-18T09:47:44Z</time>
      </trkpt>
      <trkpt lat="44.07077" lon="6.16011">
        <ele>686.6</ele>
        <time>2020-10-18T09:47:45Z</time>
      </trkpt>
      <trkpt lat="44.07077" lon="6.16007">
        <ele>686.8</ele>
        <time>2020-10-18T09:47:46Z</time>
      </trkpt>
      <trkpt lat="44.07076" lon="6.16004">
        <ele>687.2</ele>
        <time>2020-10-18T09:47:47Z</time>
      </trkpt>
      <trkpt lat="44.07076" lon="6.16001">
        <ele>687.2</ele>
        <time>2020-10-18T09:47:48Z</time>
      </trkpt>
      <trkpt lat="44.07075" lon="6.15997">
        <ele>687.6</ele>
        <time>2020-10-18T09:47:49Z</time>
      </trkpt>
      <trkpt lat="44.07075" lon="6.15994">
        <ele>687.8</ele>
        <time>2020-10-18T09:47:50Z</time>
      </trkpt>
      <trkpt lat="44.07075" lon="6.1599">
        <ele>688</ele>
        <time>2020-10-18T09:47:51Z</time>
      </trkpt>
      <trkpt lat="44.07074" lon="6.15986">
        <ele>688</ele>
        <time>2020-10-18T09:47:52Z</time>
      </trkpt>
      <trkpt lat="44.07074" lon="6.15983">
        <ele>688.2</ele>
        <time>2020-10-18T09:47:53Z</time>
      </trkpt>
      <trkpt lat="44.07074" lon="6.1598">
        <ele>688.2</ele>
        <time>2020-10-18T09:47:54Z</time>
      </trkpt>
      <trkpt lat="44.07073" lon="6.15976">
        <ele>688.6</ele>
        <time>2020-10-18T09:47:55Z</time>
      </trkpt>
      <trkpt lat="44.07073" lon="6.15973">
        <ele>688.8</ele>
        <time>2020-10-18T09:47:56Z</time>
      </trkpt>
      <trkpt lat="44.07073" lon="6.15969">
        <ele>688.8</ele>
        <time>2020-10-18T09:47:57Z</time>
      </trkpt>
      <trkpt lat="44.07073" lon="6.15965">
        <ele>688.6</ele>
        <time>2020-10-18T09:47:58Z</time>
      </trkpt>
      <trkpt lat="44.07072" lon="6.15962">
        <ele>688.8</ele>
        <time>2020-10-18T09:47:59Z</time>
      </trkpt>
      <trkpt lat="44.07073" lon="6.15958">
        <ele>689</ele>
        <time>2020-10-18T09:48:00Z</time>
      </trkpt>
      <trkpt lat="44.07073" lon="6.15954">
        <ele>689.2</ele>
        <time>2020-10-18T09:48:01Z</time>
      </trkpt>
      <trkpt lat="44.07073" lon="6.1595">
        <ele>689.2</ele>
        <time>2020-10-18T09:48:02Z</time>
      </trkpt>
      <trkpt lat="44.07074" lon="6.15946">
        <ele>689.4</ele>
        <time>2020-10-18T09:48:03Z</time>
      </trkpt>
      <trkpt lat="44.07074" lon="6.15942">
        <ele>689.4</ele>
        <time>2020-10-18T09:48:04Z</time>
      </trkpt>
      <trkpt lat="44.07075" lon="6.15937">
        <ele>689.2</ele>
        <time>2020-10-18T09:48:05Z</time>
      </trkpt>
      <trkpt lat="44.07075" lon="6.15933">
        <ele>689.4</ele>
        <time>2020-10-18T09:48:06Z</time>
      </trkpt>
      <trkpt lat="44.07076" lon="6.1593">
        <ele>689.4</ele>
        <time>2020-10-18T09:48:07Z</time>
      </trkpt>
      <trkpt lat="44.07077" lon="6.15926">
        <ele>689.4</ele>
        <time>2020-10-18T09:48:08Z</time>
      </trkpt>
      <trkpt lat="44.07078" lon="6.15922">
        <ele>689.6</ele>
        <time>2020-10-18T09:48:09Z</time>
      </trkpt>
      <trkpt lat="44.07079" lon="6.15919">
        <ele>689.6</ele>
        <time>2020-10-18T09:48:10Z</time>
      </trkpt>
      <trkpt lat="44.0708" lon="6.15915">
        <ele>689.6</ele>
        <time>2020-10-18T09:48:11Z</time>
      </trkpt>
      <trkpt lat="44.07081" lon="6.15912">
        <ele>689.8</ele>
        <time>2020-10-18T09:48:12Z</time>
      </trkpt>
      <trkpt lat="44.07082" lon="6.15909">
        <ele>689.8</ele>
        <time>2020-10-18T09:48:13Z</time>
      </trkpt>
      <trkpt lat="44.07084" lon="6.15905">
        <ele>690</ele>
        <time>2020-10-18T09:48:14Z</time>
      </trkpt>
      <trkpt lat="44.07084" lon="6.15902">
        <ele>690</ele>
        <time>2020-10-18T09:48:15Z</time>
      </trkpt>
      <trkpt lat="44.07086" lon="6.15899">
        <ele>690</ele>
        <time>2020-10-18T09:48:16Z</time>
      </trkpt>
      <trkpt lat="44.07087" lon="6.15895">
        <ele>690.2</ele>
        <time>2020-10-18T09:48:17Z</time>
      </trkpt>
      <trkpt lat="44.07088" lon="6.15892">
        <ele>690.2</ele>
        <time>2020-10-18T09:48:18Z</time>
      </trkpt>
      <trkpt lat="44.07089" lon="6.15889">
        <ele>690.4</ele>
        <time>2020-10-18T09:48:19Z</time>
      </trkpt>
      <trkpt lat="44.07091" lon="6.15887">
        <ele>690.6</ele>
        <time>2020-10-18T09:48:20Z</time>
      </trkpt>
      <trkpt lat="44.07092" lon="6.15885">
        <ele>690.6</ele>
        <time>2020-10-18T09:48:21Z</time>
      </trkpt>
      <trkpt lat="44.07093" lon="6.15883">
        <ele>690.8</ele>
        <time>2020-10-18T09:48:22Z</time>
      </trkpt>
      <trkpt lat="44.07095" lon="6.1588">
        <ele>691</ele>
        <time>2020-10-18T09:48:23Z</time>
      </trkpt>
      <trkpt lat="44.07096" lon="6.15876">
        <ele>691.6</ele>
        <time>2020-10-18T09:48:24Z</time>
      </trkpt>
      <trkpt lat="44.07097" lon="6.15874">
        <ele>691.6</ele>
        <time>2020-10-18T09:48:25Z</time>
      </trkpt>
      <trkpt lat="44.07099" lon="6.15871">
        <ele>691.8</ele>
        <time>2020-10-18T09:48:26Z</time>
      </trkpt>
      <trkpt lat="44.07101" lon="6.15869">
        <ele>691.8</ele>
        <time>2020-10-18T09:48:27Z</time>
      </trkpt>
      <trkpt lat="44.07102" lon="6.15866">
        <ele>692.2</ele>
        <time>2020-10-18T09:48:28Z</time>
      </trkpt>
      <trkpt lat="44.07104" lon="6.15863">
        <ele>692.4</ele>
        <time>2020-10-18T09:48:29Z</time>
      </trkpt>
      <trkpt lat="44.07105" lon="6.15861">
        <ele>692.6</ele>
        <time>2020-10-18T09:48:30Z</time>
      </trkpt>
      <trkpt lat="44.07107" lon="6.15858">
        <ele>692.8</ele>
        <time>2020-10-18T09:48:31Z</time>
      </trkpt>
      <trkpt lat="44.07109" lon="6.15856">
        <ele>693</ele>
        <time>2020-10-18T09:48:32Z</time>
      </trkpt>
      <trkpt lat="44.0711" lon="6.15853">
        <ele>693.2</ele>
        <time>2020-10-18T09:48:33Z</time>
      </trkpt>
      <trkpt lat="44.07111" lon="6.1585">
        <ele>693</ele>
        <time>2020-10-18T09:48:34Z</time>
      </trkpt>
      <trkpt lat="44.07112" lon="6.15847">
        <ele>693.2</ele>
        <time>2020-10-18T09:48:35Z</time>
      </trkpt>
      <trkpt lat="44.07112" lon="6.15844">
        <ele>693.2</ele>
        <time>2020-10-18T09:48:36Z</time>
      </trkpt>
      <trkpt lat="44.07113" lon="6.1584">
        <ele>693.4</ele>
        <time>2020-10-18T09:48:37Z</time>
      </trkpt>
      <trkpt lat="44.07113" lon="6.15836">
        <ele>693.8</ele>
        <time>2020-10-18T09:48:38Z</time>
      </trkpt>
      <trkpt lat="44.07113" lon="6.15833">
        <ele>694.4</ele>
        <time>2020-10-18T09:48:39Z</time>
      </trkpt>
      <trkpt lat="44.07114" lon="6.15829">
        <ele>694.8</ele>
        <time>2020-10-18T09:48:40Z</time>
      </trkpt>
      <trkpt lat="44.07114" lon="6.15826">
        <ele>695</ele>
        <time>2020-10-18T09:48:41Z</time>
      </trkpt>
      <trkpt lat="44.07114" lon="6.15823">
        <ele>694.8</ele>
        <time>2020-10-18T09:48:42Z</time>
      </trkpt>
      <trkpt lat="44.07114" lon="6.15821">
        <ele>695</ele>
        <time>2020-10-18T09:48:43Z</time>
      </trkpt>
      <trkpt lat="44.07113" lon="6.15817">
        <ele>695</ele>
        <time>2020-10-18T09:48:44Z</time>
      </trkpt>
      <trkpt lat="44.07112" lon="6.15814">
        <ele>695.2</ele>
        <time>2020-10-18T09:48:45Z</time>
      </trkpt>
      <trkpt lat="44.07112" lon="6.15811">
        <ele>695.2</ele>
        <time>2020-10-18T09:48:46Z</time>
      </trkpt>
      <trkpt lat="44.07109" lon="6.15803">
        <ele>695.2</ele>
        <time>2020-10-18T09:48:47Z</time>
      </trkpt>
      <trkpt lat="44.07107" lon="6.15799">
        <ele>695.2</ele>
        <time>2020-10-18T09:48:48Z</time>
      </trkpt>
      <trkpt lat="44.07107" lon="6.15797">
        <ele>695.6</ele>
        <time>2020-10-18T09:48:49Z</time>
      </trkpt>
      <trkpt lat="44.07106" lon="6.15796">
        <ele>695.6</ele>
        <time>2020-10-18T09:48:50Z</time>
      </trkpt>
      <trkpt lat="44.07105" lon="6.15794">
        <ele>695.6</ele>
        <time>2020-10-18T09:48:51Z</time>
      </trkpt>
      <trkpt lat="44.07104" lon="6.15793">
        <ele>695.8</ele>
        <time>2020-10-18T09:48:52Z</time>
      </trkpt>
      <trkpt lat="44.07103" lon="6.15792">
        <ele>695.8</ele>
        <time>2020-10-18T09:48:53Z</time>
      </trkpt>
      <trkpt lat="44.07102" lon="6.15791">
        <ele>695.8</ele>
        <time>2020-10-18T09:48:54Z</time>
      </trkpt>
      <trkpt lat="44.07101" lon="6.1579">
        <ele>696</ele>
        <time>2020-10-18T09:48:55Z</time>
      </trkpt>
      <trkpt lat="44.071" lon="6.15788">
        <ele>696</ele>
        <time>2020-10-18T09:48:56Z</time>
      </trkpt>
      <trkpt lat="44.07099" lon="6.15787">
        <ele>696</ele>
        <time>2020-10-18T09:48:57Z</time>
      </trkpt>
      <trkpt lat="44.07098" lon="6.15786">
        <ele>696</ele>
        <time>2020-10-18T09:48:58Z</time>
      </trkpt>
      <trkpt lat="44.07096" lon="6.15784">
        <ele>696.4</ele>
        <time>2020-10-18T09:48:59Z</time>
      </trkpt>
      <trkpt lat="44.07095" lon="6.15782">
        <ele>696.4</ele>
        <time>2020-10-18T09:49:00Z</time>
      </trkpt>
      <trkpt lat="44.07094" lon="6.15781">
        <ele>696.8</ele>
        <time>2020-10-18T09:49:01Z</time>
      </trkpt>
      <trkpt lat="44.07093" lon="6.1578">
        <ele>697</ele>
        <time>2020-10-18T09:49:02Z</time>
      </trkpt>
      <trkpt lat="44.07092" lon="6.15778">
        <ele>697.4</ele>
        <time>2020-10-18T09:49:03Z</time>
      </trkpt>
      <trkpt lat="44.07091" lon="6.15777">
        <ele>697.8</ele>
        <time>2020-10-18T09:49:04Z</time>
      </trkpt>
      <trkpt lat="44.0709" lon="6.15775">
        <ele>698</ele>
        <time>2020-10-18T09:49:05Z</time>
      </trkpt>
      <trkpt lat="44.07089" lon="6.15774">
        <ele>698.2</ele>
        <time>2020-10-18T09:49:06Z</time>
      </trkpt>
      <trkpt lat="44.07088" lon="6.15772">
        <ele>698.6</ele>
        <time>2020-10-18T09:49:07Z</time>
      </trkpt>
      <trkpt lat="44.07086" lon="6.15771">
        <ele>699</ele>
        <time>2020-10-18T09:49:08Z</time>
      </trkpt>
      <trkpt lat="44.07085" lon="6.15769">
        <ele>699.2</ele>
        <time>2020-10-18T09:49:09Z</time>
      </trkpt>
      <trkpt lat="44.07083" lon="6.15768">
        <ele>699.4</ele>
        <time>2020-10-18T09:49:10Z</time>
      </trkpt>
      <trkpt lat="44.07082" lon="6.15767">
        <ele>699.6</ele>
        <time>2020-10-18T09:49:11Z</time>
      </trkpt>
      <trkpt lat="44.07081" lon="6.15766">
        <ele>700</ele>
        <time>2020-10-18T09:49:12Z</time>
      </trkpt>
      <trkpt lat="44.07079" lon="6.15764">
        <ele>700.2</ele>
        <time>2020-10-18T09:49:13Z</time>
      </trkpt>
      <trkpt lat="44.07077" lon="6.15762">
        <ele>700.4</ele>
        <time>2020-10-18T09:49:14Z</time>
      </trkpt>
      <trkpt lat="44.07075" lon="6.15761">
        <ele>700.4</ele>
        <time>2020-10-18T09:49:15Z</time>
      </trkpt>
      <trkpt lat="44.07074" lon="6.1576">
        <ele>700.6</ele>
        <time>2020-10-18T09:49:16Z</time>
      </trkpt>
      <trkpt lat="44.07072" lon="6.1576">
        <ele>701</ele>
        <time>2020-10-18T09:49:17Z</time>
      </trkpt>
      <trkpt lat="44.0707" lon="6.1576">
        <ele>701.6</ele>
        <time>2020-10-18T09:49:18Z</time>
      </trkpt>
      <trkpt lat="44.07068" lon="6.15759">
        <ele>701.8</ele>
        <time>2020-10-18T09:49:19Z</time>
      </trkpt>
      <trkpt lat="44.07066" lon="6.15759">
        <ele>702.2</ele>
        <time>2020-10-18T09:49:20Z</time>
      </trkpt>
      <trkpt lat="44.07064" lon="6.15759">
        <ele>702.4</ele>
        <time>2020-10-18T09:49:21Z</time>
      </trkpt>
      <trkpt lat="44.07062" lon="6.1576">
        <ele>702.8</ele>
        <time>2020-10-18T09:49:22Z</time>
      </trkpt>
      <trkpt lat="44.07061" lon="6.15761">
        <ele>703</ele>
        <time>2020-10-18T09:49:23Z</time>
      </trkpt>
      <trkpt lat="44.07059" lon="6.15761">
        <ele>703.4</ele>
        <time>2020-10-18T09:49:24Z</time>
      </trkpt>
      <trkpt lat="44.07057" lon="6.15762">
        <ele>703.6</ele>
        <time>2020-10-18T09:49:25Z</time>
      </trkpt>
      <trkpt lat="44.07055" lon="6.15762">
        <ele>704</ele>
        <time>2020-10-18T09:49:26Z</time>
      </trkpt>
      <trkpt lat="44.07054" lon="6.15763">
        <ele>704.2</ele>
        <time>2020-10-18T09:49:27Z</time>
      </trkpt>
      <trkpt lat="44.07052" lon="6.15764">
        <ele>704.6</ele>
        <time>2020-10-18T09:49:28Z</time>
      </trkpt>
      <trkpt lat="44.0705" lon="6.15765">
        <ele>704.8</ele>
        <time>2020-10-18T09:49:29Z</time>
      </trkpt>
      <trkpt lat="44.07048" lon="6.15766">
        <ele>705.2</ele>
        <time>2020-10-18T09:49:30Z</time>
      </trkpt>
      <trkpt lat="44.07045" lon="6.15766">
        <ele>705.6</ele>
        <time>2020-10-18T09:49:31Z</time>
      </trkpt>
      <trkpt lat="44.07043" lon="6.15767">
        <ele>705.6</ele>
        <time>2020-10-18T09:49:32Z</time>
      </trkpt>
      <trkpt lat="44.0704" lon="6.15767">
        <ele>705.8</ele>
        <time>2020-10-18T09:49:33Z</time>
      </trkpt>
      <trkpt lat="44.07038" lon="6.15768">
        <ele>705.8</ele>
        <time>2020-10-18T09:49:34Z</time>
      </trkpt>
      <trkpt lat="44.07036" lon="6.15769">
        <ele>706</ele>
        <time>2020-10-18T09:49:35Z</time>
      </trkpt>
      <trkpt lat="44.07033" lon="6.15769">
        <ele>706.4</ele>
        <time>2020-10-18T09:49:36Z</time>
      </trkpt>
      <trkpt lat="44.0703" lon="6.1577">
        <ele>706.6</ele>
        <time>2020-10-18T09:49:37Z</time>
      </trkpt>
      <trkpt lat="44.07028" lon="6.15771">
        <ele>706.8</ele>
        <time>2020-10-18T09:49:38Z</time>
      </trkpt>
      <trkpt lat="44.07025" lon="6.15771">
        <ele>707</ele>
        <time>2020-10-18T09:49:39Z</time>
      </trkpt>
      <trkpt lat="44.07023" lon="6.15773">
        <ele>706.8</ele>
        <time>2020-10-18T09:49:40Z</time>
      </trkpt>
      <trkpt lat="44.0702" lon="6.15774">
        <ele>706.8</ele>
        <time>2020-10-18T09:49:41Z</time>
      </trkpt>
      <trkpt lat="44.07018" lon="6.15775">
        <ele>706.8</ele>
        <time>2020-10-18T09:49:42Z</time>
      </trkpt>
      <trkpt lat="44.07016" lon="6.15776">
        <ele>707</ele>
        <time>2020-10-18T09:49:43Z</time>
      </trkpt>
      <trkpt lat="44.07014" lon="6.15778">
        <ele>707</ele>
        <time>2020-10-18T09:49:44Z</time>
      </trkpt>
      <trkpt lat="44.07011" lon="6.15779">
        <ele>707.2</ele>
        <time>2020-10-18T09:49:45Z</time>
      </trkpt>
      <trkpt lat="44.07009" lon="6.1578">
        <ele>707</ele>
        <time>2020-10-18T09:49:46Z</time>
      </trkpt>
      <trkpt lat="44.07007" lon="6.15781">
        <ele>707.2</ele>
        <time>2020-10-18T09:49:47Z</time>
      </trkpt>
      <trkpt lat="44.07005" lon="6.15782">
        <ele>707.2</ele>
        <time>2020-10-18T09:49:48Z</time>
      </trkpt>
      <trkpt lat="44.07003" lon="6.15783">
        <ele>707.2</ele>
        <time>2020-10-18T09:49:49Z</time>
      </trkpt>
      <trkpt lat="44.07001" lon="6.15784">
        <ele>707.4</ele>
        <time>2020-10-18T09:49:50Z</time>
      </trkpt>
      <trkpt lat="44.06999" lon="6.15785">
        <ele>707.6</ele>
        <time>2020-10-18T09:49:51Z</time>
      </trkpt>
      <trkpt lat="44.06997" lon="6.15786">
        <ele>707.6</ele>
        <time>2020-10-18T09:49:52Z</time>
      </trkpt>
      <trkpt lat="44.06995" lon="6.15788">
        <ele>707.6</ele>
        <time>2020-10-18T09:49:53Z</time>
      </trkpt>
      <trkpt lat="44.06994" lon="6.15788">
        <ele>707.6</ele>
        <time>2020-10-18T09:49:54Z</time>
      </trkpt>
      <trkpt lat="44.06992" lon="6.15788">
        <ele>707.8</ele>
        <time>2020-10-18T09:49:55Z</time>
      </trkpt>
      <trkpt lat="44.0699" lon="6.15788">
        <ele>708.2</ele>
        <time>2020-10-18T09:49:56Z</time>
      </trkpt>
      <trkpt lat="44.06988" lon="6.15789">
        <ele>708.4</ele>
        <time>2020-10-18T09:49:57Z</time>
      </trkpt>
      <trkpt lat="44.06986" lon="6.15789">
        <ele>708.8</ele>
        <time>2020-10-18T09:49:58Z</time>
      </trkpt>
      <trkpt lat="44.06984" lon="6.1579">
        <ele>709</ele>
        <time>2020-10-18T09:49:59Z</time>
      </trkpt>
      <trkpt lat="44.06982" lon="6.1579">
        <ele>709.2</ele>
        <time>2020-10-18T09:50:00Z</time>
      </trkpt>
      <trkpt lat="44.06979" lon="6.1579">
        <ele>709.2</ele>
        <time>2020-10-18T09:50:01Z</time>
      </trkpt>
      <trkpt lat="44.06978" lon="6.15789">
        <ele>709.4</ele>
        <time>2020-10-18T09:50:02Z</time>
      </trkpt>
      <trkpt lat="44.06976" lon="6.15789">
        <ele>709.6</ele>
        <time>2020-10-18T09:50:03Z</time>
      </trkpt>
      <trkpt lat="44.06974" lon="6.15788">
        <ele>709.6</ele>
        <time>2020-10-18T09:50:04Z</time>
      </trkpt>
      <trkpt lat="44.06972" lon="6.15788">
        <ele>710</ele>
        <time>2020-10-18T09:50:05Z</time>
      </trkpt>
      <trkpt lat="44.06969" lon="6.15789">
        <ele>710.2</ele>
        <time>2020-10-18T09:50:06Z</time>
      </trkpt>
      <trkpt lat="44.06967" lon="6.15789">
        <ele>710.4</ele>
        <time>2020-10-18T09:50:07Z</time>
      </trkpt>
      <trkpt lat="44.06965" lon="6.15789">
        <ele>710.6</ele>
        <time>2020-10-18T09:50:08Z</time>
      </trkpt>
      <trkpt lat="44.06963" lon="6.15789">
        <ele>710.8</ele>
        <time>2020-10-18T09:50:09Z</time>
      </trkpt>
      <trkpt lat="44.06961" lon="6.15788">
        <ele>711</ele>
        <time>2020-10-18T09:50:10Z</time>
      </trkpt>
      <trkpt lat="44.06959" lon="6.15788">
        <ele>711</ele>
        <time>2020-10-18T09:50:11Z</time>
      </trkpt>
      <trkpt lat="44.06957" lon="6.15788">
        <ele>711.2</ele>
        <time>2020-10-18T09:50:12Z</time>
      </trkpt>
      <trkpt lat="44.06955" lon="6.15788">
        <ele>711.2</ele>
        <time>2020-10-18T09:50:13Z</time>
      </trkpt>
      <trkpt lat="44.06953" lon="6.15788">
        <ele>711.2</ele>
        <time>2020-10-18T09:50:14Z</time>
      </trkpt>
      <trkpt lat="44.06951" lon="6.15788">
        <ele>711.6</ele>
        <time>2020-10-18T09:50:15Z</time>
      </trkpt>
      <trkpt lat="44.06949" lon="6.15788">
        <ele>711.8</ele>
        <time>2020-10-18T09:50:16Z</time>
      </trkpt>
      <trkpt lat="44.06948" lon="6.15787">
        <ele>712</ele>
        <time>2020-10-18T09:50:17Z</time>
      </trkpt>
      <trkpt lat="44.06946" lon="6.15786">
        <ele>712.2</ele>
        <time>2020-10-18T09:50:18Z</time>
      </trkpt>
      <trkpt lat="44.06944" lon="6.15786">
        <ele>712.6</ele>
        <time>2020-10-18T09:50:19Z</time>
      </trkpt>
      <trkpt lat="44.06942" lon="6.15786">
        <ele>712.8</ele>
        <time>2020-10-18T09:50:20Z</time>
      </trkpt>
      <trkpt lat="44.0694" lon="6.15786">
        <ele>713.2</ele>
        <time>2020-10-18T09:50:21Z</time>
      </trkpt>
      <trkpt lat="44.06938" lon="6.15787">
        <ele>713.4</ele>
        <time>2020-10-18T09:50:22Z</time>
      </trkpt>
      <trkpt lat="44.06936" lon="6.15787">
        <ele>713.6</ele>
        <time>2020-10-18T09:50:23Z</time>
      </trkpt>
      <trkpt lat="44.06934" lon="6.15787">
        <ele>713.8</ele>
        <time>2020-10-18T09:50:24Z</time>
      </trkpt>
      <trkpt lat="44.06932" lon="6.15788">
        <ele>714</ele>
        <time>2020-10-18T09:50:25Z</time>
      </trkpt>
      <trkpt lat="44.0693" lon="6.1579">
        <ele>714.2</ele>
        <time>2020-10-18T09:50:26Z</time>
      </trkpt>
      <trkpt lat="44.06928" lon="6.15791">
        <ele>714.2</ele>
        <time>2020-10-18T09:50:27Z</time>
      </trkpt>
      <trkpt lat="44.06926" lon="6.15792">
        <ele>714.4</ele>
        <time>2020-10-18T09:50:28Z</time>
      </trkpt>
      <trkpt lat="44.06924" lon="6.15793">
        <ele>714.6</ele>
        <time>2020-10-18T09:50:29Z</time>
      </trkpt>
      <trkpt lat="44.06922" lon="6.15795">
        <ele>714.6</ele>
        <time>2020-10-18T09:50:30Z</time>
      </trkpt>
      <trkpt lat="44.06921" lon="6.15796">
        <ele>715</ele>
        <time>2020-10-18T09:50:31Z</time>
      </trkpt>
      <trkpt lat="44.06919" lon="6.15796">
        <ele>715.2</ele>
        <time>2020-10-18T09:50:32Z</time>
      </trkpt>
      <trkpt lat="44.06917" lon="6.15796">
        <ele>715.2</ele>
        <time>2020-10-18T09:50:33Z</time>
      </trkpt>
      <trkpt lat="44.06915" lon="6.15796">
        <ele>715.6</ele>
        <time>2020-10-18T09:50:34Z</time>
      </trkpt>
      <trkpt lat="44.06914" lon="6.15795">
        <ele>715.8</ele>
        <time>2020-10-18T09:50:35Z</time>
      </trkpt>
      <trkpt lat="44.06912" lon="6.15795">
        <ele>715.8</ele>
        <time>2020-10-18T09:50:36Z</time>
      </trkpt>
      <trkpt lat="44.0691" lon="6.15794">
        <ele>716</ele>
        <time>2020-10-18T09:50:37Z</time>
      </trkpt>
      <trkpt lat="44.06909" lon="6.15794">
        <ele>716.6</ele>
        <time>2020-10-18T09:50:38Z</time>
      </trkpt>
      <trkpt lat="44.06908" lon="6.15793">
        <ele>716.8</ele>
        <time>2020-10-18T09:50:39Z</time>
      </trkpt>
      <trkpt lat="44.06908" lon="6.15792">
        <ele>717</ele>
        <time>2020-10-18T09:50:40Z</time>
      </trkpt>
      <trkpt lat="44.06908" lon="6.1579">
        <ele>717.2</ele>
        <time>2020-10-18T09:50:41Z</time>
      </trkpt>
      <trkpt lat="44.06907" lon="6.15787">
        <ele>717.6</ele>
        <time>2020-10-18T09:50:42Z</time>
      </trkpt>
      <trkpt lat="44.06907" lon="6.15785">
        <ele>717.6</ele>
        <time>2020-10-18T09:50:43Z</time>
      </trkpt>
      <trkpt lat="44.06906" lon="6.15783">
        <ele>717.6</ele>
        <time>2020-10-18T09:50:44Z</time>
      </trkpt>
      <trkpt lat="44.06906" lon="6.1578">
        <ele>718</ele>
        <time>2020-10-18T09:50:45Z</time>
      </trkpt>
      <trkpt lat="44.06905" lon="6.15778">
        <ele>718</ele>
        <time>2020-10-18T09:50:46Z</time>
      </trkpt>
      <trkpt lat="44.06905" lon="6.15775">
        <ele>718</ele>
        <time>2020-10-18T09:50:47Z</time>
      </trkpt>
      <trkpt lat="44.06904" lon="6.15773">
        <ele>718</ele>
        <time>2020-10-18T09:50:48Z</time>
      </trkpt>
      <trkpt lat="44.06903" lon="6.1577">
        <ele>718.2</ele>
        <time>2020-10-18T09:50:49Z</time>
      </trkpt>
      <trkpt lat="44.06901" lon="6.15768">
        <ele>718</ele>
        <time>2020-10-18T09:50:50Z</time>
      </trkpt>
      <trkpt lat="44.069" lon="6.15766">
        <ele>718.2</ele>
        <time>2020-10-18T09:50:51Z</time>
      </trkpt>
      <trkpt lat="44.06898" lon="6.15764">
        <ele>718.2</ele>
        <time>2020-10-18T09:50:52Z</time>
      </trkpt>
      <trkpt lat="44.06896" lon="6.15761">
        <ele>718.2</ele>
        <time>2020-10-18T09:50:53Z</time>
      </trkpt>
      <trkpt lat="44.06895" lon="6.15758">
        <ele>718.2</ele>
        <time>2020-10-18T09:50:54Z</time>
      </trkpt>
      <trkpt lat="44.06893" lon="6.15756">
        <ele>718.4</ele>
        <time>2020-10-18T09:50:55Z</time>
      </trkpt>
      <trkpt lat="44.06892" lon="6.15754">
        <ele>718.4</ele>
        <time>2020-10-18T09:50:56Z</time>
      </trkpt>
      <trkpt lat="44.06891" lon="6.15752">
        <ele>718.4</ele>
        <time>2020-10-18T09:50:57Z</time>
      </trkpt>
      <trkpt lat="44.06889" lon="6.1575">
        <ele>718.4</ele>
        <time>2020-10-18T09:50:58Z</time>
      </trkpt>
      <trkpt lat="44.06887" lon="6.15747">
        <ele>718.4</ele>
        <time>2020-10-18T09:50:59Z</time>
      </trkpt>
      <trkpt lat="44.06886" lon="6.15745">
        <ele>718.6</ele>
        <time>2020-10-18T09:51:00Z</time>
      </trkpt>
      <trkpt lat="44.06885" lon="6.15743">
        <ele>718.6</ele>
        <time>2020-10-18T09:51:01Z</time>
      </trkpt>
      <trkpt lat="44.06884" lon="6.15741">
        <ele>718.8</ele>
        <time>2020-10-18T09:51:02Z</time>
      </trkpt>
      <trkpt lat="44.06883" lon="6.15739">
        <ele>718.6</ele>
        <time>2020-10-18T09:51:03Z</time>
      </trkpt>
      <trkpt lat="44.0688" lon="6.15735">
        <ele>718.8</ele>
        <time>2020-10-18T09:51:05Z</time>
      </trkpt>
      <trkpt lat="44.06877" lon="6.15731">
        <ele>718.8</ele>
        <time>2020-10-18T09:51:07Z</time>
      </trkpt>
      <trkpt lat="44.06876" lon="6.15729">
        <ele>718.8</ele>
        <time>2020-10-18T09:51:08Z</time>
      </trkpt>
      <trkpt lat="44.06875" lon="6.15728">
        <ele>719</ele>
        <time>2020-10-18T09:51:09Z</time>
      </trkpt>
      <trkpt lat="44.06873" lon="6.15726">
        <ele>719</ele>
        <time>2020-10-18T09:51:10Z</time>
      </trkpt>
      <trkpt lat="44.06872" lon="6.15724">
        <ele>719.4</ele>
        <time>2020-10-18T09:51:11Z</time>
      </trkpt>
      <trkpt lat="44.0687" lon="6.15722">
        <ele>719.4</ele>
        <time>2020-10-18T09:51:12Z</time>
      </trkpt>
      <trkpt lat="44.06869" lon="6.15719">
        <ele>719.8</ele>
        <time>2020-10-18T09:51:13Z</time>
      </trkpt>
      <trkpt lat="44.06867" lon="6.15717">
        <ele>720</ele>
        <time>2020-10-18T09:51:14Z</time>
      </trkpt>
      <trkpt lat="44.06865" lon="6.15714">
        <ele>720.2</ele>
        <time>2020-10-18T09:51:15Z</time>
      </trkpt>
      <trkpt lat="44.06864" lon="6.15712">
        <ele>720.2</ele>
        <time>2020-10-18T09:51:16Z</time>
      </trkpt>
      <trkpt lat="44.06862" lon="6.15709">
        <ele>720.4</ele>
        <time>2020-10-18T09:51:17Z</time>
      </trkpt>
      <trkpt lat="44.0686" lon="6.15706">
        <ele>721</ele>
        <time>2020-10-18T09:51:18Z</time>
      </trkpt>
      <trkpt lat="44.06858" lon="6.15702">
        <ele>721.6</ele>
        <time>2020-10-18T09:51:19Z</time>
      </trkpt>
      <trkpt lat="44.06856" lon="6.15699">
        <ele>722</ele>
        <time>2020-10-18T09:51:20Z</time>
      </trkpt>
      <trkpt lat="44.06855" lon="6.15695">
        <ele>722</ele>
        <time>2020-10-18T09:51:21Z</time>
      </trkpt>
      <trkpt lat="44.06853" lon="6.15692">
        <ele>722.4</ele>
        <time>2020-10-18T09:51:22Z</time>
      </trkpt>
      <trkpt lat="44.06851" lon="6.15689">
        <ele>722.4</ele>
        <time>2020-10-18T09:51:23Z</time>
      </trkpt>
      <trkpt lat="44.06849" lon="6.15685">
        <ele>722.6</ele>
        <time>2020-10-18T09:51:24Z</time>
      </trkpt>
      <trkpt lat="44.06847" lon="6.15681">
        <ele>722.6</ele>
        <time>2020-10-18T09:51:25Z</time>
      </trkpt>
      <trkpt lat="44.06845" lon="6.15677">
        <ele>722.4</ele>
        <time>2020-10-18T09:51:26Z</time>
      </trkpt>
      <trkpt lat="44.06844" lon="6.15673">
        <ele>722.6</ele>
        <time>2020-10-18T09:51:27Z</time>
      </trkpt>
      <trkpt lat="44.06842" lon="6.15668">
        <ele>722.6</ele>
        <time>2020-10-18T09:51:28Z</time>
      </trkpt>
      <trkpt lat="44.06841" lon="6.15664">
        <ele>722.6</ele>
        <time>2020-10-18T09:51:29Z</time>
      </trkpt>
      <trkpt lat="44.06839" lon="6.1566">
        <ele>722.6</ele>
        <time>2020-10-18T09:51:30Z</time>
      </trkpt>
      <trkpt lat="44.06837" lon="6.15657">
        <ele>722.6</ele>
        <time>2020-10-18T09:51:31Z</time>
      </trkpt>
      <trkpt lat="44.06834" lon="6.15649">
        <ele>722.6</ele>
        <time>2020-10-18T09:51:33Z</time>
      </trkpt>
      <trkpt lat="44.06832" lon="6.15646">
        <ele>722.6</ele>
        <time>2020-10-18T09:51:34Z</time>
      </trkpt>
      <trkpt lat="44.06831" lon="6.15643">
        <ele>722.6</ele>
        <time>2020-10-18T09:51:35Z</time>
      </trkpt>
      <trkpt lat="44.0683" lon="6.1564">
        <ele>722.6</ele>
        <time>2020-10-18T09:51:36Z</time>
      </trkpt>
      <trkpt lat="44.06828" lon="6.15638">
        <ele>722.8</ele>
        <time>2020-10-18T09:51:37Z</time>
      </trkpt>
      <trkpt lat="44.06827" lon="6.15636">
        <ele>722.6</ele>
        <time>2020-10-18T09:51:38Z</time>
      </trkpt>
      <trkpt lat="44.06825" lon="6.15634">
        <ele>722.6</ele>
        <time>2020-10-18T09:51:39Z</time>
      </trkpt>
      <trkpt lat="44.06823" lon="6.15633">
        <ele>722.4</ele>
        <time>2020-10-18T09:51:40Z</time>
      </trkpt>
      <trkpt lat="44.06821" lon="6.15632">
        <ele>722.6</ele>
        <time>2020-10-18T09:51:41Z</time>
      </trkpt>
      <trkpt lat="44.06818" lon="6.15632">
        <ele>722.8</ele>
        <time>2020-10-18T09:51:42Z</time>
      </trkpt>
      <trkpt lat="44.06816" lon="6.15631">
        <ele>722.6</ele>
        <time>2020-10-18T09:51:43Z</time>
      </trkpt>
      <trkpt lat="44.06813" lon="6.15631">
        <ele>723</ele>
        <time>2020-10-18T09:51:44Z</time>
      </trkpt>
      <trkpt lat="44.0681" lon="6.15631">
        <ele>723.2</ele>
        <time>2020-10-18T09:51:45Z</time>
      </trkpt>
      <trkpt lat="44.06804" lon="6.15632">
        <ele>723.4</ele>
        <time>2020-10-18T09:51:47Z</time>
      </trkpt>
      <trkpt lat="44.068" lon="6.15631">
        <ele>723.4</ele>
        <time>2020-10-18T09:51:48Z</time>
      </trkpt>
      <trkpt lat="44.06797" lon="6.15631">
        <ele>723.4</ele>
        <time>2020-10-18T09:51:49Z</time>
      </trkpt>
      <trkpt lat="44.0679" lon="6.15632">
        <ele>723.6</ele>
        <time>2020-10-18T09:51:51Z</time>
      </trkpt>
      <trkpt lat="44.06783" lon="6.15632">
        <ele>723.6</ele>
        <time>2020-10-18T09:51:53Z</time>
      </trkpt>
      <trkpt lat="44.06779" lon="6.15631">
        <ele>723.6</ele>
        <time>2020-10-18T09:51:54Z</time>
      </trkpt>
      <trkpt lat="44.06776" lon="6.15631">
        <ele>723.8</ele>
        <time>2020-10-18T09:51:55Z</time>
      </trkpt>
      <trkpt lat="44.06772" lon="6.15629">
        <ele>723.6</ele>
        <time>2020-10-18T09:51:56Z</time>
      </trkpt>
      <trkpt lat="44.06768" lon="6.15628">
        <ele>723.8</ele>
        <time>2020-10-18T09:51:57Z</time>
      </trkpt>
      <trkpt lat="44.06764" lon="6.15626">
        <ele>723.6</ele>
        <time>2020-10-18T09:51:58Z</time>
      </trkpt>
      <trkpt lat="44.06762" lon="6.15625">
        <ele>723.4</ele>
        <time>2020-10-18T09:51:59Z</time>
      </trkpt>
      <trkpt lat="44.06759" lon="6.15624">
        <ele>723.4</ele>
        <time>2020-10-18T09:52:00Z</time>
      </trkpt>
      <trkpt lat="44.06756" lon="6.15623">
        <ele>723.4</ele>
        <time>2020-10-18T09:52:01Z</time>
      </trkpt>
      <trkpt lat="44.06751" lon="6.15621">
        <ele>723.2</ele>
        <time>2020-10-18T09:52:03Z</time>
      </trkpt>
      <trkpt lat="44.06748" lon="6.1562">
        <ele>723.2</ele>
        <time>2020-10-18T09:52:04Z</time>
      </trkpt>
      <trkpt lat="44.06745" lon="6.15619">
        <ele>723</ele>
        <time>2020-10-18T09:52:05Z</time>
      </trkpt>
      <trkpt lat="44.06737" lon="6.15615">
        <ele>722.8</ele>
        <time>2020-10-18T09:52:07Z</time>
      </trkpt>
      <trkpt lat="44.06733" lon="6.15612">
        <ele>722.8</ele>
        <time>2020-10-18T09:52:08Z</time>
      </trkpt>
      <trkpt lat="44.06729" lon="6.15609">
        <ele>722.8</ele>
        <time>2020-10-18T09:52:09Z</time>
      </trkpt>
      <trkpt lat="44.06721" lon="6.15604">
        <ele>722.8</ele>
        <time>2020-10-18T09:52:11Z</time>
      </trkpt>
      <trkpt lat="44.06717" lon="6.15602">
        <ele>722.8</ele>
        <time>2020-10-18T09:52:12Z</time>
      </trkpt>
      <trkpt lat="44.06712" lon="6.15599">
        <ele>722.8</ele>
        <time>2020-10-18T09:52:13Z</time>
      </trkpt>
      <trkpt lat="44.06708" lon="6.15597">
        <ele>722.6</ele>
        <time>2020-10-18T09:52:14Z</time>
      </trkpt>
      <trkpt lat="44.06703" lon="6.15594">
        <ele>722.8</ele>
        <time>2020-10-18T09:52:15Z</time>
      </trkpt>
      <trkpt lat="44.06694" lon="6.15587">
        <ele>722.4</ele>
        <time>2020-10-18T09:52:17Z</time>
      </trkpt>
      <trkpt lat="44.06684" lon="6.1558">
        <ele>721.4</ele>
        <time>2020-10-18T09:52:19Z</time>
      </trkpt>
      <trkpt lat="44.06679" lon="6.15576">
        <ele>721.4</ele>
        <time>2020-10-18T09:52:20Z</time>
      </trkpt>
      <trkpt lat="44.06673" lon="6.15573">
        <ele>720.8</ele>
        <time>2020-10-18T09:52:21Z</time>
      </trkpt>
      <trkpt lat="44.06662" lon="6.15567">
        <ele>720.2</ele>
        <time>2020-10-18T09:52:23Z</time>
      </trkpt>
      <trkpt lat="44.0665" lon="6.1556">
        <ele>719.6</ele>
        <time>2020-10-18T09:52:25Z</time>
      </trkpt>
      <trkpt lat="44.06644" lon="6.15557">
        <ele>719.4</ele>
        <time>2020-10-18T09:52:26Z</time>
      </trkpt>
      <trkpt lat="44.06638" lon="6.15555">
        <ele>719.4</ele>
        <time>2020-10-18T09:52:27Z</time>
      </trkpt>
      <trkpt lat="44.06626" lon="6.15553">
        <ele>719.2</ele>
        <time>2020-10-18T09:52:29Z</time>
      </trkpt>
      <trkpt lat="44.06621" lon="6.15552">
        <ele>718.6</ele>
        <time>2020-10-18T09:52:30Z</time>
      </trkpt>
      <trkpt lat="44.06617" lon="6.15552">
        <ele>718.2</ele>
        <time>2020-10-18T09:52:31Z</time>
      </trkpt>
      <trkpt lat="44.06612" lon="6.15551">
        <ele>718</ele>
        <time>2020-10-18T09:52:32Z</time>
      </trkpt>
      <trkpt lat="44.06608" lon="6.15549">
        <ele>718</ele>
        <time>2020-10-18T09:52:33Z</time>
      </trkpt>
      <trkpt lat="44.06605" lon="6.15548">
        <ele>717.6</ele>
        <time>2020-10-18T09:52:34Z</time>
      </trkpt>
      <trkpt lat="44.06602" lon="6.15545">
        <ele>716.8</ele>
        <time>2020-10-18T09:52:35Z</time>
      </trkpt>
      <trkpt lat="44.06599" lon="6.15543">
        <ele>716</ele>
        <time>2020-10-18T09:52:36Z</time>
      </trkpt>
      <trkpt lat="44.06596" lon="6.15541">
        <ele>715.4</ele>
        <time>2020-10-18T09:52:37Z</time>
      </trkpt>
      <trkpt lat="44.06594" lon="6.15539">
        <ele>715</ele>
        <time>2020-10-18T09:52:38Z</time>
      </trkpt>
      <trkpt lat="44.06591" lon="6.15538">
        <ele>715</ele>
        <time>2020-10-18T09:52:39Z</time>
      </trkpt>
      <trkpt lat="44.06589" lon="6.15537">
        <ele>714.8</ele>
        <time>2020-10-18T09:52:40Z</time>
      </trkpt>
      <trkpt lat="44.06588" lon="6.15535">
        <ele>714.4</ele>
        <time>2020-10-18T09:52:41Z</time>
      </trkpt>
      <trkpt lat="44.06585" lon="6.15534">
        <ele>714.2</ele>
        <time>2020-10-18T09:52:42Z</time>
      </trkpt>
      <trkpt lat="44.06583" lon="6.15534">
        <ele>714</ele>
        <time>2020-10-18T09:52:43Z</time>
      </trkpt>
      <trkpt lat="44.06581" lon="6.15536">
        <ele>714</ele>
        <time>2020-10-18T09:52:44Z</time>
      </trkpt>
      <trkpt lat="44.0658" lon="6.15538">
        <ele>714</ele>
        <time>2020-10-18T09:52:45Z</time>
      </trkpt>
      <trkpt lat="44.06578" lon="6.1554">
        <ele>713.8</ele>
        <time>2020-10-18T09:52:46Z</time>
      </trkpt>
      <trkpt lat="44.06577" lon="6.15542">
        <ele>713.6</ele>
        <time>2020-10-18T09:52:47Z</time>
      </trkpt>
      <trkpt lat="44.06575" lon="6.15545">
        <ele>713.4</ele>
        <time>2020-10-18T09:52:48Z</time>
      </trkpt>
      <trkpt lat="44.06574" lon="6.15549">
        <ele>713.2</ele>
        <time>2020-10-18T09:52:49Z</time>
      </trkpt>
      <trkpt lat="44.06573" lon="6.15553">
        <ele>713.2</ele>
        <time>2020-10-18T09:52:50Z</time>
      </trkpt>
      <trkpt lat="44.06572" lon="6.15558">
        <ele>713.2</ele>
        <time>2020-10-18T09:52:51Z</time>
      </trkpt>
      <trkpt lat="44.06571" lon="6.15562">
        <ele>712.8</ele>
        <time>2020-10-18T09:52:52Z</time>
      </trkpt>
      <trkpt lat="44.06569" lon="6.15565">
        <ele>712.8</ele>
        <time>2020-10-18T09:52:53Z</time>
      </trkpt>
      <trkpt lat="44.06566" lon="6.15567">
        <ele>712.6</ele>
        <time>2020-10-18T09:52:54Z</time>
      </trkpt>
      <trkpt lat="44.06563" lon="6.15566">
        <ele>712</ele>
        <time>2020-10-18T09:52:55Z</time>
      </trkpt>
      <trkpt lat="44.0656" lon="6.15566">
        <ele>711.8</ele>
        <time>2020-10-18T09:52:56Z</time>
      </trkpt>
      <trkpt lat="44.06558" lon="6.15567">
        <ele>711.6</ele>
        <time>2020-10-18T09:52:57Z</time>
      </trkpt>
      <trkpt lat="44.06556" lon="6.15569">
        <ele>711.4</ele>
        <time>2020-10-18T09:52:58Z</time>
      </trkpt>
      <trkpt lat="44.06554" lon="6.15573">
        <ele>711</ele>
        <time>2020-10-18T09:52:59Z</time>
      </trkpt>
      <trkpt lat="44.06552" lon="6.15577">
        <ele>711.2</ele>
        <time>2020-10-18T09:53:00Z</time>
      </trkpt>
      <trkpt lat="44.0655" lon="6.15581">
        <ele>711</ele>
        <time>2020-10-18T09:53:01Z</time>
      </trkpt>
      <trkpt lat="44.06549" lon="6.15585">
        <ele>710.6</ele>
        <time>2020-10-18T09:53:02Z</time>
      </trkpt>
      <trkpt lat="44.06548" lon="6.15587">
        <ele>710.4</ele>
        <time>2020-10-18T09:53:03Z</time>
      </trkpt>
      <trkpt lat="44.06546" lon="6.15588">
        <ele>710.2</ele>
        <time>2020-10-18T09:53:04Z</time>
      </trkpt>
      <trkpt lat="44.06544" lon="6.15588">
        <ele>709.4</ele>
        <time>2020-10-18T09:53:05Z</time>
      </trkpt>
      <trkpt lat="44.06542" lon="6.15588">
        <ele>709</ele>
        <time>2020-10-18T09:53:06Z</time>
      </trkpt>
      <trkpt lat="44.0654" lon="6.15589">
        <ele>708.6</ele>
        <time>2020-10-18T09:53:07Z</time>
      </trkpt>
      <trkpt lat="44.06538" lon="6.15589">
        <ele>708</ele>
        <time>2020-10-18T09:53:08Z</time>
      </trkpt>
      <trkpt lat="44.06536" lon="6.15588">
        <ele>707.6</ele>
        <time>2020-10-18T09:53:09Z</time>
      </trkpt>
      <trkpt lat="44.0653" lon="6.15585">
        <ele>706.4</ele>
        <time>2020-10-18T09:53:11Z</time>
      </trkpt>
      <trkpt lat="44.06526" lon="6.15584">
        <ele>706.4</ele>
        <time>2020-10-18T09:53:12Z</time>
      </trkpt>
      <trkpt lat="44.06523" lon="6.15583">
        <ele>706</ele>
        <time>2020-10-18T09:53:13Z</time>
      </trkpt>
      <trkpt lat="44.06514" lon="6.15585">
        <ele>705.8</ele>
        <time>2020-10-18T09:53:15Z</time>
      </trkpt>
      <trkpt lat="44.0651" lon="6.15586">
        <ele>705.6</ele>
        <time>2020-10-18T09:53:16Z</time>
      </trkpt>
      <trkpt lat="44.06505" lon="6.15589">
        <ele>705.6</ele>
        <time>2020-10-18T09:53:17Z</time>
      </trkpt>
      <trkpt lat="44.06501" lon="6.15593">
        <ele>705.6</ele>
        <time>2020-10-18T09:53:18Z</time>
      </trkpt>
      <trkpt lat="44.06497" lon="6.15596">
        <ele>705.4</ele>
        <time>2020-10-18T09:53:19Z</time>
      </trkpt>
      <trkpt lat="44.06493" lon="6.15599">
        <ele>705</ele>
        <time>2020-10-18T09:53:20Z</time>
      </trkpt>
      <trkpt lat="44.06489" lon="6.156">
        <ele>705</ele>
        <time>2020-10-18T09:53:21Z</time>
      </trkpt>
      <trkpt lat="44.06486" lon="6.15601">
        <ele>704.8</ele>
        <time>2020-10-18T09:53:22Z</time>
      </trkpt>
      <trkpt lat="44.06483" lon="6.15602">
        <ele>704.6</ele>
        <time>2020-10-18T09:53:23Z</time>
      </trkpt>
      <trkpt lat="44.0648" lon="6.15602">
        <ele>704.4</ele>
        <time>2020-10-18T09:53:24Z</time>
      </trkpt>
      <trkpt lat="44.06476" lon="6.15601">
        <ele>704.4</ele>
        <time>2020-10-18T09:53:25Z</time>
      </trkpt>
      <trkpt lat="44.06468" lon="6.156">
        <ele>703</ele>
        <time>2020-10-18T09:53:27Z</time>
      </trkpt>
      <trkpt lat="44.06464" lon="6.15598">
        <ele>702.6</ele>
        <time>2020-10-18T09:53:28Z</time>
      </trkpt>
      <trkpt lat="44.06459" lon="6.15597">
        <ele>702.2</ele>
        <time>2020-10-18T09:53:29Z</time>
      </trkpt>
      <trkpt lat="44.06451" lon="6.15593">
        <ele>702</ele>
        <time>2020-10-18T09:53:31Z</time>
      </trkpt>
      <trkpt lat="44.06444" lon="6.15591">
        <ele>701.8</ele>
        <time>2020-10-18T09:53:33Z</time>
      </trkpt>
      <trkpt lat="44.06441" lon="6.15589">
        <ele>701.6</ele>
        <time>2020-10-18T09:53:34Z</time>
      </trkpt>
      <trkpt lat="44.06438" lon="6.15587">
        <ele>701.4</ele>
        <time>2020-10-18T09:53:35Z</time>
      </trkpt>
      <trkpt lat="44.06436" lon="6.15585">
        <ele>701.4</ele>
        <time>2020-10-18T09:53:36Z</time>
      </trkpt>
      <trkpt lat="44.06434" lon="6.15583">
        <ele>701.4</ele>
        <time>2020-10-18T09:53:37Z</time>
      </trkpt>
      <trkpt lat="44.06432" lon="6.15581">
        <ele>701.2</ele>
        <time>2020-10-18T09:53:38Z</time>
      </trkpt>
      <trkpt lat="44.06431" lon="6.15579">
        <ele>701.2</ele>
        <time>2020-10-18T09:53:39Z</time>
      </trkpt>
      <trkpt lat="44.06429" lon="6.15577">
        <ele>701.2</ele>
        <time>2020-10-18T09:53:40Z</time>
      </trkpt>
      <trkpt lat="44.06426" lon="6.15576">
        <ele>701.2</ele>
        <time>2020-10-18T09:53:41Z</time>
      </trkpt>
      <trkpt lat="44.0642" lon="6.15573">
        <ele>701.2</ele>
        <time>2020-10-18T09:53:43Z</time>
      </trkpt>
      <trkpt lat="44.06416" lon="6.15572">
        <ele>700.8</ele>
        <time>2020-10-18T09:53:44Z</time>
      </trkpt>
      <trkpt lat="44.06413" lon="6.1557">
        <ele>700.8</ele>
        <time>2020-10-18T09:53:45Z</time>
      </trkpt>
      <trkpt lat="44.0641" lon="6.15568">
        <ele>700.6</ele>
        <time>2020-10-18T09:53:46Z</time>
      </trkpt>
      <trkpt lat="44.06407" lon="6.15566">
        <ele>700.2</ele>
        <time>2020-10-18T09:53:47Z</time>
      </trkpt>
      <trkpt lat="44.06404" lon="6.15565">
        <ele>700.2</ele>
        <time>2020-10-18T09:53:48Z</time>
      </trkpt>
      <trkpt lat="44.06401" lon="6.15564">
        <ele>700.2</ele>
        <time>2020-10-18T09:53:49Z</time>
      </trkpt>
      <trkpt lat="44.06393" lon="6.15563">
        <ele>700</ele>
        <time>2020-10-18T09:53:51Z</time>
      </trkpt>
      <trkpt lat="44.06384" lon="6.15561">
        <ele>699.6</ele>
        <time>2020-10-18T09:53:53Z</time>
      </trkpt>
      <trkpt lat="44.06379" lon="6.1556">
        <ele>699.6</ele>
        <time>2020-10-18T09:53:54Z</time>
      </trkpt>
      <trkpt lat="44.06374" lon="6.15561">
        <ele>699.4</ele>
        <time>2020-10-18T09:53:55Z</time>
      </trkpt>
      <trkpt lat="44.06369" lon="6.15561">
        <ele>699.2</ele>
        <time>2020-10-18T09:53:56Z</time>
      </trkpt>
      <trkpt lat="44.06364" lon="6.15561">
        <ele>699.2</ele>
        <time>2020-10-18T09:53:57Z</time>
      </trkpt>
      <trkpt lat="44.06354" lon="6.15561">
        <ele>698.6</ele>
        <time>2020-10-18T09:53:59Z</time>
      </trkpt>
      <trkpt lat="44.0635" lon="6.1556">
        <ele>698.2</ele>
        <time>2020-10-18T09:54:00Z</time>
      </trkpt>
      <trkpt lat="44.06345" lon="6.15558">
        <ele>697.6</ele>
        <time>2020-10-18T09:54:01Z</time>
      </trkpt>
      <trkpt lat="44.06341" lon="6.15555">
        <ele>697</ele>
        <time>2020-10-18T09:54:02Z</time>
      </trkpt>
      <trkpt lat="44.06336" lon="6.15552">
        <ele>696</ele>
        <time>2020-10-18T09:54:03Z</time>
      </trkpt>
      <trkpt lat="44.06331" lon="6.15549">
        <ele>695.2</ele>
        <time>2020-10-18T09:54:04Z</time>
      </trkpt>
      <trkpt lat="44.06326" lon="6.15545">
        <ele>694.8</ele>
        <time>2020-10-18T09:54:05Z</time>
      </trkpt>
      <trkpt lat="44.06321" lon="6.1554">
        <ele>694.2</ele>
        <time>2020-10-18T09:54:06Z</time>
      </trkpt>
      <trkpt lat="44.06316" lon="6.15535">
        <ele>694</ele>
        <time>2020-10-18T09:54:07Z</time>
      </trkpt>
      <trkpt lat="44.0631" lon="6.1553">
        <ele>693.4</ele>
        <time>2020-10-18T09:54:08Z</time>
      </trkpt>
      <trkpt lat="44.06305" lon="6.15526">
        <ele>693.2</ele>
        <time>2020-10-18T09:54:09Z</time>
      </trkpt>
      <trkpt lat="44.063" lon="6.15523">
        <ele>692.8</ele>
        <time>2020-10-18T09:54:10Z</time>
      </trkpt>
      <trkpt lat="44.06295" lon="6.15519">
        <ele>692.4</ele>
        <time>2020-10-18T09:54:11Z</time>
      </trkpt>
      <trkpt lat="44.06292" lon="6.15517">
        <ele>692.4</ele>
        <time>2020-10-18T09:54:12Z</time>
      </trkpt>
      <trkpt lat="44.06289" lon="6.15515">
        <ele>690.8</ele>
        <time>2020-10-18T09:54:13Z</time>
      </trkpt>
      <trkpt lat="44.06288" lon="6.15514">
        <ele>690.2</ele>
        <time>2020-10-18T09:54:14Z</time>
      </trkpt>
      <trkpt lat="44.06286" lon="6.15513">
        <ele>689.8</ele>
        <time>2020-10-18T09:54:15Z</time>
      </trkpt>
      <trkpt lat="44.06285" lon="6.15512">
        <ele>689.6</ele>
        <time>2020-10-18T09:54:16Z</time>
      </trkpt>
      <trkpt lat="44.06283" lon="6.15511">
        <ele>689.4</ele>
        <time>2020-10-18T09:54:17Z</time>
      </trkpt>
      <trkpt lat="44.06281" lon="6.1551">
        <ele>689.4</ele>
        <time>2020-10-18T09:54:18Z</time>
      </trkpt>
      <trkpt lat="44.06279" lon="6.15509">
        <ele>689.4</ele>
        <time>2020-10-18T09:54:19Z</time>
      </trkpt>
      <trkpt lat="44.06277" lon="6.15508">
        <ele>689.4</ele>
        <time>2020-10-18T09:54:20Z</time>
      </trkpt>
      <trkpt lat="44.06275" lon="6.15506">
        <ele>689.4</ele>
        <time>2020-10-18T09:54:21Z</time>
      </trkpt>
      <trkpt lat="44.06273" lon="6.15506">
        <ele>689.4</ele>
        <time>2020-10-18T09:54:22Z</time>
      </trkpt>
      <trkpt lat="44.06271" lon="6.15505">
        <ele>689.6</ele>
        <time>2020-10-18T09:54:23Z</time>
      </trkpt>
      <trkpt lat="44.06267" lon="6.15504">
        <ele>689.8</ele>
        <time>2020-10-18T09:54:25Z</time>
      </trkpt>
      <trkpt lat="44.06263" lon="6.15503">
        <ele>690.2</ele>
        <time>2020-10-18T09:54:27Z</time>
      </trkpt>
      <trkpt lat="44.06258" lon="6.15502">
        <ele>691</ele>
        <time>2020-10-18T09:54:29Z</time>
      </trkpt>
      <trkpt lat="44.06253" lon="6.15498">
        <ele>692</ele>
        <time>2020-10-18T09:54:31Z</time>
      </trkpt>
      <trkpt lat="44.06248" lon="6.15494">
        <ele>692</ele>
        <time>2020-10-18T09:54:33Z</time>
      </trkpt>
      <trkpt lat="44.06245" lon="6.15492">
        <ele>692.2</ele>
        <time>2020-10-18T09:54:34Z</time>
      </trkpt>
      <trkpt lat="44.06242" lon="6.1549">
        <ele>692.2</ele>
        <time>2020-10-18T09:54:35Z</time>
      </trkpt>
      <trkpt lat="44.06238" lon="6.15489">
        <ele>692.4</ele>
        <time>2020-10-18T09:54:36Z</time>
      </trkpt>
      <trkpt lat="44.06235" lon="6.15486">
        <ele>692.4</ele>
        <time>2020-10-18T09:54:37Z</time>
      </trkpt>
      <trkpt lat="44.06231" lon="6.15484">
        <ele>692.6</ele>
        <time>2020-10-18T09:54:38Z</time>
      </trkpt>
      <trkpt lat="44.06228" lon="6.15484">
        <ele>692.4</ele>
        <time>2020-10-18T09:54:39Z</time>
      </trkpt>
      <trkpt lat="44.06224" lon="6.15484">
        <ele>692.4</ele>
        <time>2020-10-18T09:54:40Z</time>
      </trkpt>
      <trkpt lat="44.0622" lon="6.15484">
        <ele>692.4</ele>
        <time>2020-10-18T09:54:41Z</time>
      </trkpt>
      <trkpt lat="44.06216" lon="6.15485">
        <ele>692.4</ele>
        <time>2020-10-18T09:54:42Z</time>
      </trkpt>
      <trkpt lat="44.06212" lon="6.15484">
        <ele>692.6</ele>
        <time>2020-10-18T09:54:43Z</time>
      </trkpt>
      <trkpt lat="44.06209" lon="6.15484">
        <ele>692.6</ele>
        <time>2020-10-18T09:54:44Z</time>
      </trkpt>
      <trkpt lat="44.06206" lon="6.15484">
        <ele>692.6</ele>
        <time>2020-10-18T09:54:45Z</time>
      </trkpt>
      <trkpt lat="44.06203" lon="6.15484">
        <ele>692.4</ele>
        <time>2020-10-18T09:54:46Z</time>
      </trkpt>
      <trkpt lat="44.062" lon="6.15484">
        <ele>692.4</ele>
        <time>2020-10-18T09:54:47Z</time>
      </trkpt>
      <trkpt lat="44.06198" lon="6.15484">
        <ele>691.8</ele>
        <time>2020-10-18T09:54:48Z</time>
      </trkpt>
      <trkpt lat="44.06197" lon="6.15484">
        <ele>691.2</ele>
        <time>2020-10-18T09:54:49Z</time>
      </trkpt>
      <trkpt lat="44.06195" lon="6.15484">
        <ele>690.4</ele>
        <time>2020-10-18T09:54:50Z</time>
      </trkpt>
      <trkpt lat="44.06194" lon="6.15485">
        <ele>689.4</ele>
        <time>2020-10-18T09:54:51Z</time>
      </trkpt>
      <trkpt lat="44.06192" lon="6.15486">
        <ele>689.4</ele>
        <time>2020-10-18T09:54:52Z</time>
      </trkpt>
      <trkpt lat="44.0619" lon="6.15487">
        <ele>688.8</ele>
        <time>2020-10-18T09:54:53Z</time>
      </trkpt>
      <trkpt lat="44.06189" lon="6.15487">
        <ele>688</ele>
        <time>2020-10-18T09:54:54Z</time>
      </trkpt>
      <trkpt lat="44.06187" lon="6.15488">
        <ele>687.6</ele>
        <time>2020-10-18T09:54:55Z</time>
      </trkpt>
      <trkpt lat="44.06185" lon="6.15489">
        <ele>687.2</ele>
        <time>2020-10-18T09:54:56Z</time>
      </trkpt>
      <trkpt lat="44.06184" lon="6.15489">
        <ele>686.6</ele>
        <time>2020-10-18T09:54:57Z</time>
      </trkpt>
      <trkpt lat="44.06183" lon="6.1549">
        <ele>686</ele>
        <time>2020-10-18T09:54:58Z</time>
      </trkpt>
      <trkpt lat="44.06182" lon="6.1549">
        <ele>685</ele>
        <time>2020-10-18T09:54:59Z</time>
      </trkpt>
      <trkpt lat="44.06181" lon="6.1549">
        <ele>684.6</ele>
        <time>2020-10-18T09:55:00Z</time>
      </trkpt>
      <trkpt lat="44.06181" lon="6.1549">
        <ele>684</ele>
        <time>2020-10-18T09:55:01Z</time>
      </trkpt>
      <trkpt lat="44.0618" lon="6.1549">
        <ele>683.8</ele>
        <time>2020-10-18T09:55:02Z</time>
      </trkpt>
      <trkpt lat="44.0618" lon="6.1549">
        <ele>683.4</ele>
        <time>2020-10-18T09:55:03Z</time>
      </trkpt>
      <trkpt lat="44.0618" lon="6.1549">
        <ele>682.6</ele>
        <time>2020-10-18T09:55:04Z</time>
      </trkpt>
      <trkpt lat="44.06179" lon="6.1549">
        <ele>682</ele>
        <time>2020-10-18T09:55:05Z</time>
      </trkpt>
      <trkpt lat="44.06179" lon="6.1549">
        <ele>681.6</ele>
        <time>2020-10-18T09:55:06Z</time>
      </trkpt>
      <trkpt lat="44.06179" lon="6.1549">
        <ele>681</ele>
        <time>2020-10-18T09:55:07Z</time>
      </trkpt>
      <trkpt lat="44.06179" lon="6.1549">
        <ele>680.2</ele>
        <time>2020-10-18T09:55:09Z</time>
      </trkpt>
      <trkpt lat="44.06179" lon="6.1549">
        <ele>679.8</ele>
        <time>2020-10-18T09:55:10Z</time>
      </trkpt>
      <trkpt lat="44.06179" lon="6.1549">
        <ele>679.8</ele>
        <time>2020-10-18T09:55:11Z</time>
      </trkpt>
      <trkpt lat="44.06179" lon="6.1549">
        <ele>679.6</ele>
        <time>2020-10-18T09:55:13Z</time>
      </trkpt>
      <trkpt lat="44.06179" lon="6.1549">
        <ele>679.2</ele>
        <time>2020-10-18T09:55:14Z</time>
      </trkpt>
      <trkpt lat="44.06179" lon="6.1549">
        <ele>679.2</ele>
        <time>2020-10-18T09:55:15Z</time>
      </trkpt>
      <trkpt lat="44.06179" lon="6.1549">
        <ele>679</ele>
        <time>2020-10-18T09:55:17Z</time>
      </trkpt>
      <trkpt lat="44.06179" lon="6.1549">
        <ele>679</ele>
        <time>2020-10-18T09:55:18Z</time>
      </trkpt>
      <trkpt lat="44.06179" lon="6.15489">
        <ele>679</ele>
        <time>2020-10-18T09:55:19Z</time>
      </trkpt>
      <trkpt lat="44.06178" lon="6.15488">
        <ele>679</ele>
        <time>2020-10-18T09:55:21Z</time>
      </trkpt>
      <trkpt lat="44.06177" lon="6.15488">
        <ele>679</ele>
        <time>2020-10-18T09:55:23Z</time>
      </trkpt>
      <trkpt lat="44.06175" lon="6.15487">
        <ele>678.8</ele>
        <time>2020-10-18T09:55:24Z</time>
      </trkpt>
      <trkpt lat="44.06175" lon="6.15487">
        <ele>678.8</ele>
        <time>2020-10-18T09:55:25Z</time>
      </trkpt>
      <trkpt lat="44.06174" lon="6.15487">
        <ele>679</ele>
        <time>2020-10-18T09:55:26Z</time>
      </trkpt>
      <trkpt lat="44.06173" lon="6.15487">
        <ele>679</ele>
        <time>2020-10-18T09:55:27Z</time>
      </trkpt>
      <trkpt lat="44.0617" lon="6.15488">
        <ele>678.8</ele>
        <time>2020-10-18T09:55:29Z</time>
      </trkpt>
      <trkpt lat="44.06169" lon="6.15489">
        <ele>678.8</ele>
        <time>2020-10-18T09:55:30Z</time>
      </trkpt>
      <trkpt lat="44.06167" lon="6.1549">
        <ele>678.8</ele>
        <time>2020-10-18T09:55:31Z</time>
      </trkpt>
      <trkpt lat="44.06165" lon="6.15491">
        <ele>678.8</ele>
        <time>2020-10-18T09:55:32Z</time>
      </trkpt>
      <trkpt lat="44.06162" lon="6.15492">
        <ele>678.2</ele>
        <time>2020-10-18T09:55:33Z</time>
      </trkpt>
      <trkpt lat="44.06159" lon="6.15493">
        <ele>677.4</ele>
        <time>2020-10-18T09:55:35Z</time>
      </trkpt>
      <trkpt lat="44.06157" lon="6.15493">
        <ele>677.2</ele>
        <time>2020-10-18T09:55:36Z</time>
      </trkpt>
      <trkpt lat="44.06157" lon="6.15493">
        <ele>676.8</ele>
        <time>2020-10-18T09:55:37Z</time>
      </trkpt>
      <trkpt lat="44.06156" lon="6.15493">
        <ele>676.6</ele>
        <time>2020-10-18T09:55:38Z</time>
      </trkpt>
      <trkpt lat="44.06155" lon="6.15494">
        <ele>676.2</ele>
        <time>2020-10-18T09:55:39Z</time>
      </trkpt>
      <trkpt lat="44.06153" lon="6.15494">
        <ele>675.8</ele>
        <time>2020-10-18T09:55:40Z</time>
      </trkpt>
      <trkpt lat="44.06152" lon="6.15495">
        <ele>675.2</ele>
        <time>2020-10-18T09:55:41Z</time>
      </trkpt>
      <trkpt lat="44.06151" lon="6.15495">
        <ele>674.6</ele>
        <time>2020-10-18T09:55:42Z</time>
      </trkpt>
      <trkpt lat="44.06149" lon="6.15495">
        <ele>673.8</ele>
        <time>2020-10-18T09:55:43Z</time>
      </trkpt>
      <trkpt lat="44.06147" lon="6.15495">
        <ele>672.8</ele>
        <time>2020-10-18T09:55:44Z</time>
      </trkpt>
      <trkpt lat="44.06146" lon="6.15495">
        <ele>672.2</ele>
        <time>2020-10-18T09:55:45Z</time>
      </trkpt>
      <trkpt lat="44.06143" lon="6.15496">
        <ele>671.6</ele>
        <time>2020-10-18T09:55:46Z</time>
      </trkpt>
      <trkpt lat="44.06141" lon="6.15496">
        <ele>671.2</ele>
        <time>2020-10-18T09:55:47Z</time>
      </trkpt>
      <trkpt lat="44.06139" lon="6.15497">
        <ele>671</ele>
        <time>2020-10-18T09:55:48Z</time>
      </trkpt>
      <trkpt lat="44.06137" lon="6.15497">
        <ele>670.8</ele>
        <time>2020-10-18T09:55:49Z</time>
      </trkpt>
      <trkpt lat="44.06135" lon="6.15496">
        <ele>670.2</ele>
        <time>2020-10-18T09:55:50Z</time>
      </trkpt>
      <trkpt lat="44.06134" lon="6.15496">
        <ele>669.4</ele>
        <time>2020-10-18T09:55:51Z</time>
      </trkpt>
      <trkpt lat="44.06133" lon="6.15496">
        <ele>669.4</ele>
        <time>2020-10-18T09:55:52Z</time>
      </trkpt>
      <trkpt lat="44.06132" lon="6.15496">
        <ele>669</ele>
        <time>2020-10-18T09:55:53Z</time>
      </trkpt>
      <trkpt lat="44.06131" lon="6.15496">
        <ele>668.2</ele>
        <time>2020-10-18T09:55:54Z</time>
      </trkpt>
      <trkpt lat="44.0613" lon="6.15495">
        <ele>667.2</ele>
        <time>2020-10-18T09:55:55Z</time>
      </trkpt>
      <trkpt lat="44.0613" lon="6.15495">
        <ele>666.4</ele>
        <time>2020-10-18T09:55:56Z</time>
      </trkpt>
      <trkpt lat="44.0613" lon="6.15495">
        <ele>665.8</ele>
        <time>2020-10-18T09:55:57Z</time>
      </trkpt>
      <trkpt lat="44.06129" lon="6.15495">
        <ele>664.4</ele>
        <time>2020-10-18T09:55:59Z</time>
      </trkpt>
      <trkpt lat="44.06128" lon="6.15495">
        <ele>664</ele>
        <time>2020-10-18T09:56:00Z</time>
      </trkpt>
      <trkpt lat="44.06127" lon="6.15495">
        <ele>663.6</ele>
        <time>2020-10-18T09:56:01Z</time>
      </trkpt>
      <trkpt lat="44.06127" lon="6.15495">
        <ele>663.2</ele>
        <time>2020-10-18T09:56:02Z</time>
      </trkpt>
      <trkpt lat="44.06126" lon="6.15495">
        <ele>663</ele>
        <time>2020-10-18T09:56:03Z</time>
      </trkpt>
      <trkpt lat="44.06124" lon="6.15496">
        <ele>662.6</ele>
        <time>2020-10-18T09:56:05Z</time>
      </trkpt>
      <trkpt lat="44.06124" lon="6.15497">
        <ele>662.6</ele>
        <time>2020-10-18T09:56:06Z</time>
      </trkpt>
      <trkpt lat="44.06123" lon="6.15497">
        <ele>662.6</ele>
        <time>2020-10-18T09:56:07Z</time>
      </trkpt>
      <trkpt lat="44.06123" lon="6.15498">
        <ele>662.6</ele>
        <time>2020-10-18T09:56:08Z</time>
      </trkpt>
      <trkpt lat="44.06122" lon="6.15498">
        <ele>662.4</ele>
        <time>2020-10-18T09:56:09Z</time>
      </trkpt>
      <trkpt lat="44.06122" lon="6.15499">
        <ele>662</ele>
        <time>2020-10-18T09:56:11Z</time>
      </trkpt>
      <trkpt lat="44.06122" lon="6.15501">
        <ele>661.4</ele>
        <time>2020-10-18T09:56:13Z</time>
      </trkpt>
      <trkpt lat="44.0612" lon="6.15503">
        <ele>660.8</ele>
        <time>2020-10-18T09:56:15Z</time>
      </trkpt>
      <trkpt lat="44.06119" lon="6.15505">
        <ele>660.2</ele>
        <time>2020-10-18T09:56:16Z</time>
      </trkpt>
      <trkpt lat="44.06117" lon="6.15506">
        <ele>660</ele>
        <time>2020-10-18T09:56:17Z</time>
      </trkpt>
      <trkpt lat="44.06116" lon="6.15507">
        <ele>659.6</ele>
        <time>2020-10-18T09:56:18Z</time>
      </trkpt>
      <trkpt lat="44.06114" lon="6.15509">
        <ele>659.4</ele>
        <time>2020-10-18T09:56:19Z</time>
      </trkpt>
      <trkpt lat="44.06111" lon="6.15511">
        <ele>659.2</ele>
        <time>2020-10-18T09:56:21Z</time>
      </trkpt>
      <trkpt lat="44.06109" lon="6.15511">
        <ele>659</ele>
        <time>2020-10-18T09:56:22Z</time>
      </trkpt>
      <trkpt lat="44.06107" lon="6.15509">
        <ele>659</ele>
        <time>2020-10-18T09:56:23Z</time>
      </trkpt>
      <trkpt lat="44.06103" lon="6.15506">
        <ele>658</ele>
        <time>2020-10-18T09:56:25Z</time>
      </trkpt>
      <trkpt lat="44.06101" lon="6.15504">
        <ele>657.4</ele>
        <time>2020-10-18T09:56:26Z</time>
      </trkpt>
      <trkpt lat="44.06099" lon="6.15502">
        <ele>656.4</ele>
        <time>2020-10-18T09:56:27Z</time>
      </trkpt>
      <trkpt lat="44.06096" lon="6.155">
        <ele>655.6</ele>
        <time>2020-10-18T09:56:28Z</time>
      </trkpt>
      <trkpt lat="44.06094" lon="6.15497">
        <ele>655.2</ele>
        <time>2020-10-18T09:56:29Z</time>
      </trkpt>
      <trkpt lat="44.06089" lon="6.15492">
        <ele>654.2</ele>
        <time>2020-10-18T09:56:31Z</time>
      </trkpt>
      <trkpt lat="44.06087" lon="6.15489">
        <ele>654.2</ele>
        <time>2020-10-18T09:56:32Z</time>
      </trkpt>
      <trkpt lat="44.06084" lon="6.15486">
        <ele>654.2</ele>
        <time>2020-10-18T09:56:33Z</time>
      </trkpt>
      <trkpt lat="44.06082" lon="6.15484">
        <ele>654</ele>
        <time>2020-10-18T09:56:34Z</time>
      </trkpt>
      <trkpt lat="44.06081" lon="6.15481">
        <ele>654</ele>
        <time>2020-10-18T09:56:35Z</time>
      </trkpt>
      <trkpt lat="44.06079" lon="6.15479">
        <ele>653.6</ele>
        <time>2020-10-18T09:56:36Z</time>
      </trkpt>
      <trkpt lat="44.06076" lon="6.15477">
        <ele>653.6</ele>
        <time>2020-10-18T09:56:37Z</time>
      </trkpt>
      <trkpt lat="44.06074" lon="6.15475">
        <ele>653.4</ele>
        <time>2020-10-18T09:56:38Z</time>
      </trkpt>
      <trkpt lat="44.06071" lon="6.15474">
        <ele>653</ele>
        <time>2020-10-18T09:56:39Z</time>
      </trkpt>
      <trkpt lat="44.06068" lon="6.15473">
        <ele>652.6</ele>
        <time>2020-10-18T09:56:40Z</time>
      </trkpt>
      <trkpt lat="44.06064" lon="6.15473">
        <ele>652</ele>
        <time>2020-10-18T09:56:41Z</time>
      </trkpt>
      <trkpt lat="44.06058" lon="6.15473">
        <ele>651.4</ele>
        <time>2020-10-18T09:56:42Z</time>
      </trkpt>
      <trkpt lat="44.06053" lon="6.15473">
        <ele>651.2</ele>
        <time>2020-10-18T09:56:43Z</time>
      </trkpt>
      <trkpt lat="44.06047" lon="6.15473">
        <ele>651.2</ele>
        <time>2020-10-18T09:56:44Z</time>
      </trkpt>
      <trkpt lat="44.06041" lon="6.15472">
        <ele>650.8</ele>
        <time>2020-10-18T09:56:45Z</time>
      </trkpt>
      <trkpt lat="44.06034" lon="6.15471">
        <ele>650.6</ele>
        <time>2020-10-18T09:56:46Z</time>
      </trkpt>
      <trkpt lat="44.06028" lon="6.15471">
        <ele>650.4</ele>
        <time>2020-10-18T09:56:47Z</time>
      </trkpt>
      <trkpt lat="44.06014" lon="6.1547">
        <ele>649</ele>
        <time>2020-10-18T09:56:49Z</time>
      </trkpt>
      <trkpt lat="44.06002" lon="6.15468">
        <ele>647.8</ele>
        <time>2020-10-18T09:56:51Z</time>
      </trkpt>
      <trkpt lat="44.05997" lon="6.15466">
        <ele>647.4</ele>
        <time>2020-10-18T09:56:52Z</time>
      </trkpt>
      <trkpt lat="44.05993" lon="6.15464">
        <ele>647.4</ele>
        <time>2020-10-18T09:56:53Z</time>
      </trkpt>
      <trkpt lat="44.05988" lon="6.15463">
        <ele>646.6</ele>
        <time>2020-10-18T09:56:54Z</time>
      </trkpt>
      <trkpt lat="44.05982" lon="6.15461">
        <ele>645.4</ele>
        <time>2020-10-18T09:56:55Z</time>
      </trkpt>
      <trkpt lat="44.05971" lon="6.15456">
        <ele>643.8</ele>
        <time>2020-10-18T09:56:57Z</time>
      </trkpt>
      <trkpt lat="44.05961" lon="6.15453">
        <ele>642.8</ele>
        <time>2020-10-18T09:56:59Z</time>
      </trkpt>
      <trkpt lat="44.05956" lon="6.15453">
        <ele>642.4</ele>
        <time>2020-10-18T09:57:00Z</time>
      </trkpt>
      <trkpt lat="44.05952" lon="6.15454">
        <ele>642.2</ele>
        <time>2020-10-18T09:57:01Z</time>
      </trkpt>
      <trkpt lat="44.05948" lon="6.15454">
        <ele>642</ele>
        <time>2020-10-18T09:57:02Z</time>
      </trkpt>
      <trkpt lat="44.05944" lon="6.15453">
        <ele>641.6</ele>
        <time>2020-10-18T09:57:03Z</time>
      </trkpt>
      <trkpt lat="44.05939" lon="6.1545">
        <ele>641.2</ele>
        <time>2020-10-18T09:57:04Z</time>
      </trkpt>
      <trkpt lat="44.05935" lon="6.15447">
        <ele>641</ele>
        <time>2020-10-18T09:57:05Z</time>
      </trkpt>
      <trkpt lat="44.05932" lon="6.15443">
        <ele>640.6</ele>
        <time>2020-10-18T09:57:06Z</time>
      </trkpt>
      <trkpt lat="44.0593" lon="6.15438">
        <ele>640.4</ele>
        <time>2020-10-18T09:57:07Z</time>
      </trkpt>
      <trkpt lat="44.05928" lon="6.15432">
        <ele>640.2</ele>
        <time>2020-10-18T09:57:08Z</time>
      </trkpt>
      <trkpt lat="44.05927" lon="6.15425">
        <ele>639.6</ele>
        <time>2020-10-18T09:57:09Z</time>
      </trkpt>
      <trkpt lat="44.05926" lon="6.15418">
        <ele>639</ele>
        <time>2020-10-18T09:57:10Z</time>
      </trkpt>
      <trkpt lat="44.05925" lon="6.15411">
        <ele>638.4</ele>
        <time>2020-10-18T09:57:11Z</time>
      </trkpt>
      <trkpt lat="44.05924" lon="6.15404">
        <ele>637.4</ele>
        <time>2020-10-18T09:57:12Z</time>
      </trkpt>
      <trkpt lat="44.05923" lon="6.15397">
        <ele>637.4</ele>
        <time>2020-10-18T09:57:13Z</time>
      </trkpt>
      <trkpt lat="44.05922" lon="6.1539">
        <ele>636.8</ele>
        <time>2020-10-18T09:57:14Z</time>
      </trkpt>
      <trkpt lat="44.0592" lon="6.15384">
        <ele>636.2</ele>
        <time>2020-10-18T09:57:15Z</time>
      </trkpt>
      <trkpt lat="44.05917" lon="6.15378">
        <ele>636</ele>
        <time>2020-10-18T09:57:16Z</time>
      </trkpt>
      <trkpt lat="44.05915" lon="6.15374">
        <ele>635.2</ele>
        <time>2020-10-18T09:57:17Z</time>
      </trkpt>
      <trkpt lat="44.05913" lon="6.1537">
        <ele>634.8</ele>
        <time>2020-10-18T09:57:18Z</time>
      </trkpt>
      <trkpt lat="44.05911" lon="6.15365">
        <ele>634.4</ele>
        <time>2020-10-18T09:57:19Z</time>
      </trkpt>
      <trkpt lat="44.05909" lon="6.1536">
        <ele>633.6</ele>
        <time>2020-10-18T09:57:20Z</time>
      </trkpt>
      <trkpt lat="44.05907" lon="6.15354">
        <ele>633.4</ele>
        <time>2020-10-18T09:57:21Z</time>
      </trkpt>
      <trkpt lat="44.05905" lon="6.1535">
        <ele>633</ele>
        <time>2020-10-18T09:57:22Z</time>
      </trkpt>
      <trkpt lat="44.05904" lon="6.15345">
        <ele>632.4</ele>
        <time>2020-10-18T09:57:23Z</time>
      </trkpt>
      <trkpt lat="44.05903" lon="6.1534">
        <ele>632</ele>
        <time>2020-10-18T09:57:24Z</time>
      </trkpt>
      <trkpt lat="44.05903" lon="6.15335">
        <ele>631.6</ele>
        <time>2020-10-18T09:57:25Z</time>
      </trkpt>
      <trkpt lat="44.05903" lon="6.15332">
        <ele>631</ele>
        <time>2020-10-18T09:57:26Z</time>
      </trkpt>
      <trkpt lat="44.05902" lon="6.15327">
        <ele>630.8</ele>
        <time>2020-10-18T09:57:27Z</time>
      </trkpt>
      <trkpt lat="44.05902" lon="6.15323">
        <ele>630.4</ele>
        <time>2020-10-18T09:57:28Z</time>
      </trkpt>
      <trkpt lat="44.05901" lon="6.15319">
        <ele>630.4</ele>
        <time>2020-10-18T09:57:29Z</time>
      </trkpt>
      <trkpt lat="44.05901" lon="6.15315">
        <ele>629</ele>
        <time>2020-10-18T09:57:30Z</time>
      </trkpt>
      <trkpt lat="44.059" lon="6.1531">
        <ele>628.4</ele>
        <time>2020-10-18T09:57:31Z</time>
      </trkpt>
      <trkpt lat="44.05898" lon="6.15301">
        <ele>628</ele>
        <time>2020-10-18T09:57:33Z</time>
      </trkpt>
      <trkpt lat="44.05897" lon="6.15297">
        <ele>627.4</ele>
        <time>2020-10-18T09:57:34Z</time>
      </trkpt>
      <trkpt lat="44.05897" lon="6.15293">
        <ele>627.2</ele>
        <time>2020-10-18T09:57:35Z</time>
      </trkpt>
      <trkpt lat="44.05896" lon="6.1529">
        <ele>627</ele>
        <time>2020-10-18T09:57:36Z</time>
      </trkpt>
      <trkpt lat="44.05894" lon="6.15287">
        <ele>626.4</ele>
        <time>2020-10-18T09:57:37Z</time>
      </trkpt>
      <trkpt lat="44.05892" lon="6.15286">
        <ele>626.2</ele>
        <time>2020-10-18T09:57:38Z</time>
      </trkpt>
      <trkpt lat="44.0589" lon="6.15284">
        <ele>625.6</ele>
        <time>2020-10-18T09:57:39Z</time>
      </trkpt>
      <trkpt lat="44.05888" lon="6.15281">
        <ele>623.8</ele>
        <time>2020-10-18T09:57:40Z</time>
      </trkpt>
      <trkpt lat="44.05886" lon="6.15278">
        <ele>622.8</ele>
        <time>2020-10-18T09:57:41Z</time>
      </trkpt>
      <trkpt lat="44.05885" lon="6.15276">
        <ele>622.2</ele>
        <time>2020-10-18T09:57:42Z</time>
      </trkpt>
      <trkpt lat="44.05882" lon="6.15273">
        <ele>622</ele>
        <time>2020-10-18T09:57:43Z</time>
      </trkpt>
      <trkpt lat="44.0588" lon="6.15272">
        <ele>621.6</ele>
        <time>2020-10-18T09:57:44Z</time>
      </trkpt>
      <trkpt lat="44.05877" lon="6.15272">
        <ele>621.6</ele>
        <time>2020-10-18T09:57:45Z</time>
      </trkpt>
      <trkpt lat="44.05875" lon="6.15271">
        <ele>621.2</ele>
        <time>2020-10-18T09:57:46Z</time>
      </trkpt>
      <trkpt lat="44.05872" lon="6.1527">
        <ele>620.4</ele>
        <time>2020-10-18T09:57:47Z</time>
      </trkpt>
      <trkpt lat="44.05869" lon="6.15268">
        <ele>619.6</ele>
        <time>2020-10-18T09:57:48Z</time>
      </trkpt>
      <trkpt lat="44.05866" lon="6.15267">
        <ele>619.2</ele>
        <time>2020-10-18T09:57:49Z</time>
      </trkpt>
      <trkpt lat="44.05864" lon="6.15264">
        <ele>618.6</ele>
        <time>2020-10-18T09:57:50Z</time>
      </trkpt>
      <trkpt lat="44.05861" lon="6.15261">
        <ele>617.8</ele>
        <time>2020-10-18T09:57:51Z</time>
      </trkpt>
      <trkpt lat="44.05858" lon="6.15259">
        <ele>617.8</ele>
        <time>2020-10-18T09:57:52Z</time>
      </trkpt>
      <trkpt lat="44.05855" lon="6.15258">
        <ele>617.4</ele>
        <time>2020-10-18T09:57:53Z</time>
      </trkpt>
      <trkpt lat="44.05852" lon="6.15257">
        <ele>616.8</ele>
        <time>2020-10-18T09:57:54Z</time>
      </trkpt>
      <trkpt lat="44.05849" lon="6.15257">
        <ele>616.4</ele>
        <time>2020-10-18T09:57:55Z</time>
      </trkpt>
      <trkpt lat="44.05847" lon="6.15257">
        <ele>616</ele>
        <time>2020-10-18T09:57:56Z</time>
      </trkpt>
      <trkpt lat="44.05845" lon="6.15258">
        <ele>615.2</ele>
        <time>2020-10-18T09:57:57Z</time>
      </trkpt>
      <trkpt lat="44.05844" lon="6.15258">
        <ele>614.4</ele>
        <time>2020-10-18T09:57:58Z</time>
      </trkpt>
      <trkpt lat="44.05843" lon="6.15258">
        <ele>613.2</ele>
        <time>2020-10-18T09:57:59Z</time>
      </trkpt>
      <trkpt lat="44.05843" lon="6.15257">
        <ele>612</ele>
        <time>2020-10-18T09:58:00Z</time>
      </trkpt>
      <trkpt lat="44.05842" lon="6.15256">
        <ele>611.2</ele>
        <time>2020-10-18T09:58:01Z</time>
      </trkpt>
      <trkpt lat="44.05842" lon="6.15254">
        <ele>610.4</ele>
        <time>2020-10-18T09:58:02Z</time>
      </trkpt>
      <trkpt lat="44.05842" lon="6.15253">
        <ele>610</ele>
        <time>2020-10-18T09:58:03Z</time>
      </trkpt>
      <trkpt lat="44.05842" lon="6.15253">
        <ele>609.6</ele>
        <time>2020-10-18T09:58:04Z</time>
      </trkpt>
      <trkpt lat="44.05842" lon="6.15252">
        <ele>609.4</ele>
        <time>2020-10-18T09:58:05Z</time>
      </trkpt>
      <trkpt lat="44.05842" lon="6.15251">
        <ele>608.6</ele>
        <time>2020-10-18T09:58:06Z</time>
      </trkpt>
      <trkpt lat="44.05842" lon="6.1525">
        <ele>608</ele>
        <time>2020-10-18T09:58:07Z</time>
      </trkpt>
      <trkpt lat="44.05842" lon="6.15249">
        <ele>607.6</ele>
        <time>2020-10-18T09:58:08Z</time>
      </trkpt>
      <trkpt lat="44.05842" lon="6.15248">
        <ele>607.6</ele>
        <time>2020-10-18T09:58:09Z</time>
      </trkpt>
      <trkpt lat="44.05841" lon="6.15245">
        <ele>607.2</ele>
        <time>2020-10-18T09:58:11Z</time>
      </trkpt>
      <trkpt lat="44.05841" lon="6.15243">
        <ele>606.8</ele>
        <time>2020-10-18T09:58:12Z</time>
      </trkpt>
      <trkpt lat="44.05841" lon="6.15242">
        <ele>606.6</ele>
        <time>2020-10-18T09:58:13Z</time>
      </trkpt>
      <trkpt lat="44.05841" lon="6.15241">
        <ele>606.4</ele>
        <time>2020-10-18T09:58:14Z</time>
      </trkpt>
      <trkpt lat="44.05841" lon="6.1524">
        <ele>606.4</ele>
        <time>2020-10-18T09:58:15Z</time>
      </trkpt>
      <trkpt lat="44.05841" lon="6.15239">
        <ele>606.2</ele>
        <time>2020-10-18T09:58:16Z</time>
      </trkpt>
      <trkpt lat="44.05841" lon="6.15239">
        <ele>606.4</ele>
        <time>2020-10-18T09:58:17Z</time>
      </trkpt>
      <trkpt lat="44.0584" lon="6.15237">
        <ele>606</ele>
        <time>2020-10-18T09:58:19Z</time>
      </trkpt>
      <trkpt lat="44.05839" lon="6.15236">
        <ele>605.8</ele>
        <time>2020-10-18T09:58:20Z</time>
      </trkpt>
      <trkpt lat="44.05839" lon="6.15236">
        <ele>605.6</ele>
        <time>2020-10-18T09:58:21Z</time>
      </trkpt>
      <trkpt lat="44.05838" lon="6.15236">
        <ele>605.4</ele>
        <time>2020-10-18T09:58:22Z</time>
      </trkpt>
      <trkpt lat="44.05838" lon="6.15236">
        <ele>605.4</ele>
        <time>2020-10-18T09:58:23Z</time>
      </trkpt>
      <trkpt lat="44.05837" lon="6.15236">
        <ele>605</ele>
        <time>2020-10-18T09:58:24Z</time>
      </trkpt>
      <trkpt lat="44.05836" lon="6.15237">
        <ele>604.8</ele>
        <time>2020-10-18T09:58:25Z</time>
      </trkpt>
      <trkpt lat="44.05835" lon="6.15237">
        <ele>604.6</ele>
        <time>2020-10-18T09:58:26Z</time>
      </trkpt>
      <trkpt lat="44.05834" lon="6.15239">
        <ele>604.4</ele>
        <time>2020-10-18T09:58:27Z</time>
      </trkpt>
      <trkpt lat="44.05832" lon="6.15241">
        <ele>603.8</ele>
        <time>2020-10-18T09:58:29Z</time>
      </trkpt>
      <trkpt lat="44.0583" lon="6.15242">
        <ele>603.6</ele>
        <time>2020-10-18T09:58:30Z</time>
      </trkpt>
      <trkpt lat="44.05829" lon="6.15242">
        <ele>603.6</ele>
        <time>2020-10-18T09:58:31Z</time>
      </trkpt>
      <trkpt lat="44.05828" lon="6.15244">
        <ele>603.4</ele>
        <time>2020-10-18T09:58:32Z</time>
      </trkpt>
      <trkpt lat="44.05826" lon="6.15245">
        <ele>603.2</ele>
        <time>2020-10-18T09:58:33Z</time>
      </trkpt>
      <trkpt lat="44.05823" lon="6.15247">
        <ele>603</ele>
        <time>2020-10-18T09:58:34Z</time>
      </trkpt>
      <trkpt lat="44.05821" lon="6.15248">
        <ele>602.8</ele>
        <time>2020-10-18T09:58:35Z</time>
      </trkpt>
      <trkpt lat="44.05819" lon="6.1525">
        <ele>602.6</ele>
        <time>2020-10-18T09:58:36Z</time>
      </trkpt>
      <trkpt lat="44.05817" lon="6.15251">
        <ele>602.4</ele>
        <time>2020-10-18T09:58:37Z</time>
      </trkpt>
      <trkpt lat="44.05814" lon="6.15253">
        <ele>602.4</ele>
        <time>2020-10-18T09:58:38Z</time>
      </trkpt>
      <trkpt lat="44.05811" lon="6.15258">
        <ele>602</ele>
        <time>2020-10-18T09:58:39Z</time>
      </trkpt>
      <trkpt lat="44.05807" lon="6.15263">
        <ele>601.6</ele>
        <time>2020-10-18T09:58:40Z</time>
      </trkpt>
      <trkpt lat="44.05804" lon="6.15268">
        <ele>601.6</ele>
        <time>2020-10-18T09:58:41Z</time>
      </trkpt>
      <trkpt lat="44.05801" lon="6.15272">
        <ele>601</ele>
        <time>2020-10-18T09:58:42Z</time>
      </trkpt>
      <trkpt lat="44.05799" lon="6.15276">
        <ele>600.4</ele>
        <time>2020-10-18T09:58:43Z</time>
      </trkpt>
      <trkpt lat="44.05797" lon="6.15279">
        <ele>600.2</ele>
        <time>2020-10-18T09:58:44Z</time>
      </trkpt>
      <trkpt lat="44.05794" lon="6.1528">
        <ele>599.8</ele>
        <time>2020-10-18T09:58:45Z</time>
      </trkpt>
      <trkpt lat="44.05792" lon="6.1528">
        <ele>599.6</ele>
        <time>2020-10-18T09:58:46Z</time>
      </trkpt>
      <trkpt lat="44.05789" lon="6.1528">
        <ele>598.4</ele>
        <time>2020-10-18T09:58:47Z</time>
      </trkpt>
      <trkpt lat="44.05788" lon="6.15279">
        <ele>596.8</ele>
        <time>2020-10-18T09:58:48Z</time>
      </trkpt>
      <trkpt lat="44.05786" lon="6.15278">
        <ele>596</ele>
        <time>2020-10-18T09:58:49Z</time>
      </trkpt>
      <trkpt lat="44.05784" lon="6.15278">
        <ele>596</ele>
        <time>2020-10-18T09:58:50Z</time>
      </trkpt>
      <trkpt lat="44.05783" lon="6.15277">
        <ele>595.4</ele>
        <time>2020-10-18T09:58:51Z</time>
      </trkpt>
      <trkpt lat="44.05782" lon="6.15277">
        <ele>595</ele>
        <time>2020-10-18T09:58:52Z</time>
      </trkpt>
      <trkpt lat="44.05781" lon="6.15276">
        <ele>594.4</ele>
        <time>2020-10-18T09:58:53Z</time>
      </trkpt>
      <trkpt lat="44.0578" lon="6.15275">
        <ele>594.2</ele>
        <time>2020-10-18T09:58:54Z</time>
      </trkpt>
      <trkpt lat="44.05779" lon="6.15274">
        <ele>593.8</ele>
        <time>2020-10-18T09:58:55Z</time>
      </trkpt>
      <trkpt lat="44.05777" lon="6.15272">
        <ele>593.6</ele>
        <time>2020-10-18T09:58:56Z</time>
      </trkpt>
      <trkpt lat="44.05776" lon="6.15271">
        <ele>593.2</ele>
        <time>2020-10-18T09:58:57Z</time>
      </trkpt>
      <trkpt lat="44.05774" lon="6.1527">
        <ele>592.8</ele>
        <time>2020-10-18T09:58:58Z</time>
      </trkpt>
      <trkpt lat="44.05773" lon="6.15269">
        <ele>592</ele>
        <time>2020-10-18T09:58:59Z</time>
      </trkpt>
      <trkpt lat="44.05771" lon="6.15268">
        <ele>591.6</ele>
        <time>2020-10-18T09:59:00Z</time>
      </trkpt>
      <trkpt lat="44.05769" lon="6.15268">
        <ele>591.4</ele>
        <time>2020-10-18T09:59:01Z</time>
      </trkpt>
      <trkpt lat="44.05767" lon="6.15269">
        <ele>591</ele>
        <time>2020-10-18T09:59:02Z</time>
      </trkpt>
      <trkpt lat="44.05765" lon="6.1527">
        <ele>590.2</ele>
        <time>2020-10-18T09:59:03Z</time>
      </trkpt>
      <trkpt lat="44.05763" lon="6.15271">
        <ele>590</ele>
        <time>2020-10-18T09:59:04Z</time>
      </trkpt>
      <trkpt lat="44.05761" lon="6.15271">
        <ele>589.4</ele>
        <time>2020-10-18T09:59:05Z</time>
      </trkpt>
      <trkpt lat="44.05755" lon="6.1527">
        <ele>587.6</ele>
        <time>2020-10-18T09:59:07Z</time>
      </trkpt>
      <trkpt lat="44.05752" lon="6.15269">
        <ele>586.6</ele>
        <time>2020-10-18T09:59:08Z</time>
      </trkpt>
      <trkpt lat="44.05749" lon="6.15267">
        <ele>586.2</ele>
        <time>2020-10-18T09:59:09Z</time>
      </trkpt>
      <trkpt lat="44.05748" lon="6.15264">
        <ele>586.2</ele>
        <time>2020-10-18T09:59:10Z</time>
      </trkpt>
      <trkpt lat="44.05746" lon="6.15262">
        <ele>585.6</ele>
        <time>2020-10-18T09:59:11Z</time>
      </trkpt>
      <trkpt lat="44.05745" lon="6.15259">
        <ele>585.4</ele>
        <time>2020-10-18T09:59:12Z</time>
      </trkpt>
      <trkpt lat="44.05744" lon="6.15257">
        <ele>585</ele>
        <time>2020-10-18T09:59:13Z</time>
      </trkpt>
      <trkpt lat="44.05743" lon="6.15256">
        <ele>584.8</ele>
        <time>2020-10-18T09:59:14Z</time>
      </trkpt>
      <trkpt lat="44.05742" lon="6.15255">
        <ele>584.2</ele>
        <time>2020-10-18T09:59:15Z</time>
      </trkpt>
      <trkpt lat="44.05739" lon="6.15254">
        <ele>583.8</ele>
        <time>2020-10-18T09:59:16Z</time>
      </trkpt>
      <trkpt lat="44.05737" lon="6.15252">
        <ele>583.2</ele>
        <time>2020-10-18T09:59:17Z</time>
      </trkpt>
      <trkpt lat="44.05734" lon="6.15251">
        <ele>582.8</ele>
        <time>2020-10-18T09:59:18Z</time>
      </trkpt>
      <trkpt lat="44.0573" lon="6.15249">
        <ele>582.6</ele>
        <time>2020-10-18T09:59:19Z</time>
      </trkpt>
      <trkpt lat="44.05728" lon="6.15247">
        <ele>582.4</ele>
        <time>2020-10-18T09:59:20Z</time>
      </trkpt>
      <trkpt lat="44.05726" lon="6.15245">
        <ele>582.4</ele>
        <time>2020-10-18T09:59:21Z</time>
      </trkpt>
      <trkpt lat="44.05724" lon="6.15242">
        <ele>582.2</ele>
        <time>2020-10-18T09:59:22Z</time>
      </trkpt>
      <trkpt lat="44.05721" lon="6.1524">
        <ele>582.2</ele>
        <time>2020-10-18T09:59:23Z</time>
      </trkpt>
      <trkpt lat="44.05718" lon="6.15238">
        <ele>581.8</ele>
        <time>2020-10-18T09:59:24Z</time>
      </trkpt>
      <trkpt lat="44.05715" lon="6.15237">
        <ele>581.6</ele>
        <time>2020-10-18T09:59:25Z</time>
      </trkpt>
      <trkpt lat="44.05712" lon="6.15236">
        <ele>581.2</ele>
        <time>2020-10-18T09:59:26Z</time>
      </trkpt>
      <trkpt lat="44.0571" lon="6.15233">
        <ele>579.2</ele>
        <time>2020-10-18T09:59:27Z</time>
      </trkpt>
      <trkpt lat="44.05709" lon="6.1523">
        <ele>578.2</ele>
        <time>2020-10-18T09:59:28Z</time>
      </trkpt>
      <trkpt lat="44.05708" lon="6.15225">
        <ele>577.6</ele>
        <time>2020-10-18T09:59:29Z</time>
      </trkpt>
      <trkpt lat="44.05707" lon="6.15216">
        <ele>577.2</ele>
        <time>2020-10-18T09:59:31Z</time>
      </trkpt>
      <trkpt lat="44.05707" lon="6.15211">
        <ele>576.8</ele>
        <time>2020-10-18T09:59:32Z</time>
      </trkpt>
      <trkpt lat="44.05706" lon="6.15206">
        <ele>576.6</ele>
        <time>2020-10-18T09:59:33Z</time>
      </trkpt>
      <trkpt lat="44.05706" lon="6.15201">
        <ele>576</ele>
        <time>2020-10-18T09:59:34Z</time>
      </trkpt>
      <trkpt lat="44.05706" lon="6.15195">
        <ele>575.6</ele>
        <time>2020-10-18T09:59:35Z</time>
      </trkpt>
      <trkpt lat="44.05708" lon="6.15186">
        <ele>574.2</ele>
        <time>2020-10-18T09:59:37Z</time>
      </trkpt>
      <trkpt lat="44.05709" lon="6.15182">
        <ele>573.2</ele>
        <time>2020-10-18T09:59:38Z</time>
      </trkpt>
      <trkpt lat="44.05709" lon="6.1518">
        <ele>572.8</ele>
        <time>2020-10-18T09:59:39Z</time>
      </trkpt>
      <trkpt lat="44.05709" lon="6.15178">
        <ele>572.4</ele>
        <time>2020-10-18T09:59:40Z</time>
      </trkpt>
      <trkpt lat="44.05709" lon="6.15176">
        <ele>571.6</ele>
        <time>2020-10-18T09:59:41Z</time>
      </trkpt>
      <trkpt lat="44.05709" lon="6.15174">
        <ele>571.2</ele>
        <time>2020-10-18T09:59:42Z</time>
      </trkpt>
      <trkpt lat="44.0571" lon="6.15171">
        <ele>570.6</ele>
        <time>2020-10-18T09:59:43Z</time>
      </trkpt>
      <trkpt lat="44.05711" lon="6.15169">
        <ele>570.2</ele>
        <time>2020-10-18T09:59:44Z</time>
      </trkpt>
      <trkpt lat="44.05712" lon="6.15166">
        <ele>569.8</ele>
        <time>2020-10-18T09:59:45Z</time>
      </trkpt>
      <trkpt lat="44.05714" lon="6.15163">
        <ele>569.4</ele>
        <time>2020-10-18T09:59:46Z</time>
      </trkpt>
      <trkpt lat="44.05715" lon="6.1516">
        <ele>569.2</ele>
        <time>2020-10-18T09:59:47Z</time>
      </trkpt>
      <trkpt lat="44.05717" lon="6.15156">
        <ele>569</ele>
        <time>2020-10-18T09:59:48Z</time>
      </trkpt>
      <trkpt lat="44.05719" lon="6.15153">
        <ele>568.8</ele>
        <time>2020-10-18T09:59:49Z</time>
      </trkpt>
      <trkpt lat="44.05721" lon="6.15146">
        <ele>568.4</ele>
        <time>2020-10-18T09:59:51Z</time>
      </trkpt>
      <trkpt lat="44.05722" lon="6.15143">
        <ele>568.2</ele>
        <time>2020-10-18T09:59:52Z</time>
      </trkpt>
      <trkpt lat="44.05723" lon="6.1514">
        <ele>568.2</ele>
        <time>2020-10-18T09:59:53Z</time>
      </trkpt>
      <trkpt lat="44.05725" lon="6.15133">
        <ele>567.8</ele>
        <time>2020-10-18T09:59:55Z</time>
      </trkpt>
      <trkpt lat="44.05727" lon="6.15129">
        <ele>567.4</ele>
        <time>2020-10-18T09:59:56Z</time>
      </trkpt>
      <trkpt lat="44.05728" lon="6.15125">
        <ele>567.2</ele>
        <time>2020-10-18T09:59:57Z</time>
      </trkpt>
      <trkpt lat="44.05732" lon="6.15118">
        <ele>566.6</ele>
        <time>2020-10-18T09:59:59Z</time>
      </trkpt>
      <trkpt lat="44.05733" lon="6.15116">
        <ele>566.4</ele>
        <time>2020-10-18T10:00:00Z</time>
      </trkpt>
      <trkpt lat="44.05735" lon="6.15114">
        <ele>566.2</ele>
        <time>2020-10-18T10:00:01Z</time>
      </trkpt>
      <trkpt lat="44.05736" lon="6.15112">
        <ele>565.8</ele>
        <time>2020-10-18T10:00:02Z</time>
      </trkpt>
      <trkpt lat="44.05737" lon="6.1511">
        <ele>565.6</ele>
        <time>2020-10-18T10:00:03Z</time>
      </trkpt>
      <trkpt lat="44.0574" lon="6.15106">
        <ele>565</ele>
        <time>2020-10-18T10:00:04Z</time>
      </trkpt>
      <trkpt lat="44.05741" lon="6.15103">
        <ele>564.2</ele>
        <time>2020-10-18T10:00:05Z</time>
      </trkpt>
      <trkpt lat="44.05742" lon="6.15099">
        <ele>564</ele>
        <time>2020-10-18T10:00:06Z</time>
      </trkpt>
      <trkpt lat="44.05743" lon="6.15095">
        <ele>564</ele>
        <time>2020-10-18T10:00:07Z</time>
      </trkpt>
      <trkpt lat="44.05743" lon="6.15092">
        <ele>563.4</ele>
        <time>2020-10-18T10:00:08Z</time>
      </trkpt>
      <trkpt lat="44.05742" lon="6.15089">
        <ele>563.2</ele>
        <time>2020-10-18T10:00:09Z</time>
      </trkpt>
      <trkpt lat="44.05741" lon="6.15085">
        <ele>563.2</ele>
        <time>2020-10-18T10:00:10Z</time>
      </trkpt>
      <trkpt lat="44.05741" lon="6.15082">
        <ele>563.2</ele>
        <time>2020-10-18T10:00:11Z</time>
      </trkpt>
      <trkpt lat="44.0574" lon="6.1508">
        <ele>563</ele>
        <time>2020-10-18T10:00:12Z</time>
      </trkpt>
      <trkpt lat="44.05741" lon="6.15079">
        <ele>562.4</ele>
        <time>2020-10-18T10:00:13Z</time>
      </trkpt>
      <trkpt lat="44.05741" lon="6.15077">
        <ele>562</ele>
        <time>2020-10-18T10:00:14Z</time>
      </trkpt>
      <trkpt lat="44.05742" lon="6.15074">
        <ele>561</ele>
        <time>2020-10-18T10:00:15Z</time>
      </trkpt>
      <trkpt lat="44.05743" lon="6.15071">
        <ele>560</ele>
        <time>2020-10-18T10:00:16Z</time>
      </trkpt>
      <trkpt lat="44.05744" lon="6.15066">
        <ele>559.4</ele>
        <time>2020-10-18T10:00:17Z</time>
      </trkpt>
      <trkpt lat="44.05744" lon="6.15062">
        <ele>559.2</ele>
        <time>2020-10-18T10:00:18Z</time>
      </trkpt>
      <trkpt lat="44.05745" lon="6.15058">
        <ele>558.8</ele>
        <time>2020-10-18T10:00:19Z</time>
      </trkpt>
      <trkpt lat="44.05745" lon="6.15056">
        <ele>558.6</ele>
        <time>2020-10-18T10:00:20Z</time>
      </trkpt>
      <trkpt lat="44.05745" lon="6.15053">
        <ele>558.6</ele>
        <time>2020-10-18T10:00:21Z</time>
      </trkpt>
      <trkpt lat="44.05744" lon="6.1505">
        <ele>558.6</ele>
        <time>2020-10-18T10:00:22Z</time>
      </trkpt>
      <trkpt lat="44.05742" lon="6.15048">
        <ele>558.2</ele>
        <time>2020-10-18T10:00:23Z</time>
      </trkpt>
      <trkpt lat="44.0574" lon="6.15047">
        <ele>558</ele>
        <time>2020-10-18T10:00:24Z</time>
      </trkpt>
      <trkpt lat="44.05738" lon="6.15047">
        <ele>557.6</ele>
        <time>2020-10-18T10:00:25Z</time>
      </trkpt>
      <trkpt lat="44.05733" lon="6.15046">
        <ele>557</ele>
        <time>2020-10-18T10:00:27Z</time>
      </trkpt>
      <trkpt lat="44.05731" lon="6.15045">
        <ele>556.6</ele>
        <time>2020-10-18T10:00:28Z</time>
      </trkpt>
      <trkpt lat="44.05728" lon="6.15044">
        <ele>556.6</ele>
        <time>2020-10-18T10:00:29Z</time>
      </trkpt>
      <trkpt lat="44.05725" lon="6.15042">
        <ele>556</ele>
        <time>2020-10-18T10:00:30Z</time>
      </trkpt>
      <trkpt lat="44.05722" lon="6.15042">
        <ele>555.6</ele>
        <time>2020-10-18T10:00:31Z</time>
      </trkpt>
      <trkpt lat="44.05714" lon="6.15043">
        <ele>555.4</ele>
        <time>2020-10-18T10:00:33Z</time>
      </trkpt>
      <trkpt lat="44.05711" lon="6.15043">
        <ele>555.2</ele>
        <time>2020-10-18T10:00:34Z</time>
      </trkpt>
      <trkpt lat="44.05708" lon="6.15044">
        <ele>555</ele>
        <time>2020-10-18T10:00:35Z</time>
      </trkpt>
      <trkpt lat="44.05704" lon="6.15044">
        <ele>555</ele>
        <time>2020-10-18T10:00:36Z</time>
      </trkpt>
      <trkpt lat="44.05701" lon="6.15044">
        <ele>554.8</ele>
        <time>2020-10-18T10:00:37Z</time>
      </trkpt>
      <trkpt lat="44.05695" lon="6.15039">
        <ele>554.6</ele>
        <time>2020-10-18T10:00:39Z</time>
      </trkpt>
      <trkpt lat="44.05692" lon="6.15036">
        <ele>554.4</ele>
        <time>2020-10-18T10:00:40Z</time>
      </trkpt>
      <trkpt lat="44.05688" lon="6.15033">
        <ele>554.4</ele>
        <time>2020-10-18T10:00:41Z</time>
      </trkpt>
      <trkpt lat="44.05685" lon="6.15031">
        <ele>554.4</ele>
        <time>2020-10-18T10:00:42Z</time>
      </trkpt>
      <trkpt lat="44.05681" lon="6.15029">
        <ele>554.2</ele>
        <time>2020-10-18T10:00:43Z</time>
      </trkpt>
      <trkpt lat="44.05679" lon="6.15026">
        <ele>554.2</ele>
        <time>2020-10-18T10:00:44Z</time>
      </trkpt>
      <trkpt lat="44.05676" lon="6.15022">
        <ele>554.2</ele>
        <time>2020-10-18T10:00:45Z</time>
      </trkpt>
      <trkpt lat="44.05674" lon="6.15019">
        <ele>553.8</ele>
        <time>2020-10-18T10:00:46Z</time>
      </trkpt>
      <trkpt lat="44.05671" lon="6.15017">
        <ele>553.8</ele>
        <time>2020-10-18T10:00:47Z</time>
      </trkpt>
      <trkpt lat="44.05668" lon="6.15017">
        <ele>553.8</ele>
        <time>2020-10-18T10:00:48Z</time>
      </trkpt>
      <trkpt lat="44.05665" lon="6.15017">
        <ele>553.8</ele>
        <time>2020-10-18T10:00:49Z</time>
      </trkpt>
      <trkpt lat="44.05662" lon="6.15017">
        <ele>553.8</ele>
        <time>2020-10-18T10:00:50Z</time>
      </trkpt>
      <trkpt lat="44.05658" lon="6.15016">
        <ele>553.6</ele>
        <time>2020-10-18T10:00:51Z</time>
      </trkpt>
      <trkpt lat="44.05655" lon="6.15016">
        <ele>553.6</ele>
        <time>2020-10-18T10:00:52Z</time>
      </trkpt>
      <trkpt lat="44.0565" lon="6.15013">
        <ele>553.2</ele>
        <time>2020-10-18T10:00:53Z</time>
      </trkpt>
      <trkpt lat="44.05646" lon="6.15011">
        <ele>553</ele>
        <time>2020-10-18T10:00:54Z</time>
      </trkpt>
      <trkpt lat="44.05642" lon="6.15011">
        <ele>552.8</ele>
        <time>2020-10-18T10:00:55Z</time>
      </trkpt>
      <trkpt lat="44.05634" lon="6.1501">
        <ele>552.2</ele>
        <time>2020-10-18T10:00:57Z</time>
      </trkpt>
      <trkpt lat="44.0563" lon="6.15009">
        <ele>552.2</ele>
        <time>2020-10-18T10:00:58Z</time>
      </trkpt>
      <trkpt lat="44.05627" lon="6.15007">
        <ele>552</ele>
        <time>2020-10-18T10:00:59Z</time>
      </trkpt>
      <trkpt lat="44.05624" lon="6.15005">
        <ele>551.8</ele>
        <time>2020-10-18T10:01:00Z</time>
      </trkpt>
      <trkpt lat="44.05621" lon="6.15002">
        <ele>551.8</ele>
        <time>2020-10-18T10:01:01Z</time>
      </trkpt>
      <trkpt lat="44.05618" lon="6.14999">
        <ele>551.6</ele>
        <time>2020-10-18T10:01:02Z</time>
      </trkpt>
      <trkpt lat="44.05615" lon="6.14996">
        <ele>551.6</ele>
        <time>2020-10-18T10:01:03Z</time>
      </trkpt>
      <trkpt lat="44.05611" lon="6.14995">
        <ele>551.4</ele>
        <time>2020-10-18T10:01:04Z</time>
      </trkpt>
      <trkpt lat="44.05606" lon="6.14995">
        <ele>551.4</ele>
        <time>2020-10-18T10:01:05Z</time>
      </trkpt>
      <trkpt lat="44.05602" lon="6.14996">
        <ele>550.8</ele>
        <time>2020-10-18T10:01:06Z</time>
      </trkpt>
      <trkpt lat="44.05599" lon="6.14997">
        <ele>550.6</ele>
        <time>2020-10-18T10:01:07Z</time>
      </trkpt>
      <trkpt lat="44.05596" lon="6.14998">
        <ele>550.6</ele>
        <time>2020-10-18T10:01:08Z</time>
      </trkpt>
      <trkpt lat="44.05593" lon="6.14995">
        <ele>550.4</ele>
        <time>2020-10-18T10:01:09Z</time>
      </trkpt>
      <trkpt lat="44.0559" lon="6.14993">
        <ele>550.2</ele>
        <time>2020-10-18T10:01:10Z</time>
      </trkpt>
      <trkpt lat="44.05586" lon="6.14992">
        <ele>549.8</ele>
        <time>2020-10-18T10:01:11Z</time>
      </trkpt>
      <trkpt lat="44.05583" lon="6.1499">
        <ele>549.4</ele>
        <time>2020-10-18T10:01:12Z</time>
      </trkpt>
      <trkpt lat="44.05579" lon="6.14989">
        <ele>549.2</ele>
        <time>2020-10-18T10:01:13Z</time>
      </trkpt>
      <trkpt lat="44.05576" lon="6.14987">
        <ele>549</ele>
        <time>2020-10-18T10:01:14Z</time>
      </trkpt>
      <trkpt lat="44.05571" lon="6.14986">
        <ele>548.8</ele>
        <time>2020-10-18T10:01:15Z</time>
      </trkpt>
      <trkpt lat="44.05567" lon="6.14985">
        <ele>548.8</ele>
        <time>2020-10-18T10:01:16Z</time>
      </trkpt>
      <trkpt lat="44.05562" lon="6.14983">
        <ele>548.6</ele>
        <time>2020-10-18T10:01:17Z</time>
      </trkpt>
      <trkpt lat="44.05553" lon="6.14981">
        <ele>548.4</ele>
        <time>2020-10-18T10:01:19Z</time>
      </trkpt>
      <trkpt lat="44.05548" lon="6.14982">
        <ele>548.2</ele>
        <time>2020-10-18T10:01:20Z</time>
      </trkpt>
      <trkpt lat="44.05543" lon="6.14984">
        <ele>548</ele>
        <time>2020-10-18T10:01:21Z</time>
      </trkpt>
      <trkpt lat="44.05539" lon="6.14985">
        <ele>548</ele>
        <time>2020-10-18T10:01:22Z</time>
      </trkpt>
      <trkpt lat="44.05535" lon="6.14986">
        <ele>547.8</ele>
        <time>2020-10-18T10:01:23Z</time>
      </trkpt>
      <trkpt lat="44.05532" lon="6.14987">
        <ele>547.6</ele>
        <time>2020-10-18T10:01:24Z</time>
      </trkpt>
      <trkpt lat="44.05528" lon="6.14988">
        <ele>547.4</ele>
        <time>2020-10-18T10:01:25Z</time>
      </trkpt>
      <trkpt lat="44.05525" lon="6.14986">
        <ele>546.6</ele>
        <time>2020-10-18T10:01:26Z</time>
      </trkpt>
      <trkpt lat="44.05522" lon="6.14983">
        <ele>546.2</ele>
        <time>2020-10-18T10:01:27Z</time>
      </trkpt>
      <trkpt lat="44.05519" lon="6.1498">
        <ele>546.2</ele>
        <time>2020-10-18T10:01:28Z</time>
      </trkpt>
      <trkpt lat="44.05515" lon="6.14979">
        <ele>545.8</ele>
        <time>2020-10-18T10:01:29Z</time>
      </trkpt>
      <trkpt lat="44.05513" lon="6.14979">
        <ele>545.6</ele>
        <time>2020-10-18T10:01:30Z</time>
      </trkpt>
      <trkpt lat="44.0551" lon="6.14981">
        <ele>545.2</ele>
        <time>2020-10-18T10:01:31Z</time>
      </trkpt>
      <trkpt lat="44.05507" lon="6.14983">
        <ele>545.2</ele>
        <time>2020-10-18T10:01:32Z</time>
      </trkpt>
      <trkpt lat="44.05503" lon="6.14984">
        <ele>545</ele>
        <time>2020-10-18T10:01:33Z</time>
      </trkpt>
      <trkpt lat="44.05498" lon="6.14985">
        <ele>544.8</ele>
        <time>2020-10-18T10:01:34Z</time>
      </trkpt>
      <trkpt lat="44.05494" lon="6.14987">
        <ele>544.6</ele>
        <time>2020-10-18T10:01:35Z</time>
      </trkpt>
      <trkpt lat="44.0549" lon="6.14987">
        <ele>544.6</ele>
        <time>2020-10-18T10:01:36Z</time>
      </trkpt>
      <trkpt lat="44.05485" lon="6.14987">
        <ele>544.4</ele>
        <time>2020-10-18T10:01:37Z</time>
      </trkpt>
      <trkpt lat="44.0548" lon="6.14987">
        <ele>544.2</ele>
        <time>2020-10-18T10:01:38Z</time>
      </trkpt>
      <trkpt lat="44.05475" lon="6.14987">
        <ele>544</ele>
        <time>2020-10-18T10:01:39Z</time>
      </trkpt>
      <trkpt lat="44.0547" lon="6.14986">
        <ele>543.8</ele>
        <time>2020-10-18T10:01:40Z</time>
      </trkpt>
      <trkpt lat="44.05466" lon="6.14985">
        <ele>543.8</ele>
        <time>2020-10-18T10:01:41Z</time>
      </trkpt>
      <trkpt lat="44.05458" lon="6.14982">
        <ele>543</ele>
        <time>2020-10-18T10:01:43Z</time>
      </trkpt>
      <trkpt lat="44.05454" lon="6.1498">
        <ele>543</ele>
        <time>2020-10-18T10:01:44Z</time>
      </trkpt>
      <trkpt lat="44.0545" lon="6.14976">
        <ele>543</ele>
        <time>2020-10-18T10:01:45Z</time>
      </trkpt>
      <trkpt lat="44.05447" lon="6.14972">
        <ele>542.8</ele>
        <time>2020-10-18T10:01:46Z</time>
      </trkpt>
      <trkpt lat="44.05442" lon="6.14967">
        <ele>542.8</ele>
        <time>2020-10-18T10:01:47Z</time>
      </trkpt>
      <trkpt lat="44.05436" lon="6.14966">
        <ele>542</ele>
        <time>2020-10-18T10:01:49Z</time>
      </trkpt>
      <trkpt lat="44.05434" lon="6.14967">
        <ele>542</ele>
        <time>2020-10-18T10:01:50Z</time>
      </trkpt>
      <trkpt lat="44.05432" lon="6.14967">
        <ele>541.8</ele>
        <time>2020-10-18T10:01:51Z</time>
      </trkpt>
      <trkpt lat="44.0543" lon="6.14968">
        <ele>541.8</ele>
        <time>2020-10-18T10:01:52Z</time>
      </trkpt>
      <trkpt lat="44.05427" lon="6.14968">
        <ele>541.8</ele>
        <time>2020-10-18T10:01:53Z</time>
      </trkpt>
      <trkpt lat="44.05426" lon="6.14969">
        <ele>541.8</ele>
        <time>2020-10-18T10:01:54Z</time>
      </trkpt>
      <trkpt lat="44.05423" lon="6.1497">
        <ele>541.8</ele>
        <time>2020-10-18T10:01:55Z</time>
      </trkpt>
      <trkpt lat="44.05422" lon="6.1497">
        <ele>541.8</ele>
        <time>2020-10-18T10:01:56Z</time>
      </trkpt>
      <trkpt lat="44.0542" lon="6.14969">
        <ele>542</ele>
        <time>2020-10-18T10:01:57Z</time>
      </trkpt>
      <trkpt lat="44.05415" lon="6.14968">
        <ele>542</ele>
        <time>2020-10-18T10:01:59Z</time>
      </trkpt>
      <trkpt lat="44.0541" lon="6.14967">
        <ele>542.2</ele>
        <time>2020-10-18T10:02:01Z</time>
      </trkpt>
      <trkpt lat="44.05407" lon="6.14966">
        <ele>542.4</ele>
        <time>2020-10-18T10:02:02Z</time>
      </trkpt>
      <trkpt lat="44.05404" lon="6.14964">
        <ele>542.4</ele>
        <time>2020-10-18T10:02:03Z</time>
      </trkpt>
      <trkpt lat="44.05401" lon="6.14962">
        <ele>542.2</ele>
        <time>2020-10-18T10:02:04Z</time>
      </trkpt>
      <trkpt lat="44.05397" lon="6.14959">
        <ele>542.4</ele>
        <time>2020-10-18T10:02:05Z</time>
      </trkpt>
      <trkpt lat="44.05392" lon="6.14955">
        <ele>542.4</ele>
        <time>2020-10-18T10:02:06Z</time>
      </trkpt>
      <trkpt lat="44.05387" lon="6.14951">
        <ele>542.4</ele>
        <time>2020-10-18T10:02:07Z</time>
      </trkpt>
      <trkpt lat="44.05376" lon="6.14944">
        <ele>542.4</ele>
        <time>2020-10-18T10:02:09Z</time>
      </trkpt>
      <trkpt lat="44.05362" lon="6.14938">
        <ele>542.4</ele>
        <time>2020-10-18T10:02:11Z</time>
      </trkpt>
      <trkpt lat="44.05355" lon="6.14936">
        <ele>542.4</ele>
        <time>2020-10-18T10:02:12Z</time>
      </trkpt>
      <trkpt lat="44.05347" lon="6.14935">
        <ele>542.4</ele>
        <time>2020-10-18T10:02:13Z</time>
      </trkpt>
      <trkpt lat="44.0534" lon="6.14934">
        <ele>542</ele>
        <time>2020-10-18T10:02:14Z</time>
      </trkpt>
      <trkpt lat="44.05333" lon="6.14932">
        <ele>541.8</ele>
        <time>2020-10-18T10:02:15Z</time>
      </trkpt>
      <trkpt lat="44.05328" lon="6.14928">
        <ele>541</ele>
        <time>2020-10-18T10:02:16Z</time>
      </trkpt>
      <trkpt lat="44.05323" lon="6.14922">
        <ele>540.2</ele>
        <time>2020-10-18T10:02:17Z</time>
      </trkpt>
      <trkpt lat="44.05318" lon="6.14918">
        <ele>538.8</ele>
        <time>2020-10-18T10:02:18Z</time>
      </trkpt>
      <trkpt lat="44.05313" lon="6.14914">
        <ele>538</ele>
        <time>2020-10-18T10:02:19Z</time>
      </trkpt>
      <trkpt lat="44.053" lon="6.14911">
        <ele>536.6</ele>
        <time>2020-10-18T10:02:21Z</time>
      </trkpt>
      <trkpt lat="44.05293" lon="6.14911">
        <ele>536.2</ele>
        <time>2020-10-18T10:02:22Z</time>
      </trkpt>
      <trkpt lat="44.05286" lon="6.14911">
        <ele>536.2</ele>
        <time>2020-10-18T10:02:23Z</time>
      </trkpt>
      <trkpt lat="44.05279" lon="6.1491">
        <ele>536</ele>
        <time>2020-10-18T10:02:24Z</time>
      </trkpt>
      <trkpt lat="44.05273" lon="6.14909">
        <ele>536</ele>
        <time>2020-10-18T10:02:25Z</time>
      </trkpt>
      <trkpt lat="44.05266" lon="6.14908">
        <ele>536</ele>
        <time>2020-10-18T10:02:26Z</time>
      </trkpt>
      <trkpt lat="44.0526" lon="6.14907">
        <ele>535.8</ele>
        <time>2020-10-18T10:02:27Z</time>
      </trkpt>
      <trkpt lat="44.05253" lon="6.14907">
        <ele>535.6</ele>
        <time>2020-10-18T10:02:28Z</time>
      </trkpt>
      <trkpt lat="44.05246" lon="6.14907">
        <ele>535.2</ele>
        <time>2020-10-18T10:02:29Z</time>
      </trkpt>
      <trkpt lat="44.05233" lon="6.14908">
        <ele>534.4</ele>
        <time>2020-10-18T10:02:31Z</time>
      </trkpt>
      <trkpt lat="44.0522" lon="6.14911">
        <ele>533.8</ele>
        <time>2020-10-18T10:02:33Z</time>
      </trkpt>
      <trkpt lat="44.05213" lon="6.14912">
        <ele>533.4</ele>
        <time>2020-10-18T10:02:34Z</time>
      </trkpt>
      <trkpt lat="44.05207" lon="6.14914">
        <ele>533.2</ele>
        <time>2020-10-18T10:02:35Z</time>
      </trkpt>
      <trkpt lat="44.05201" lon="6.14915">
        <ele>533</ele>
        <time>2020-10-18T10:02:36Z</time>
      </trkpt>
      <trkpt lat="44.05195" lon="6.14917">
        <ele>532.8</ele>
        <time>2020-10-18T10:02:37Z</time>
      </trkpt>
      <trkpt lat="44.05189" lon="6.14919">
        <ele>532.6</ele>
        <time>2020-10-18T10:02:38Z</time>
      </trkpt>
      <trkpt lat="44.05184" lon="6.14921">
        <ele>532.4</ele>
        <time>2020-10-18T10:02:39Z</time>
      </trkpt>
      <trkpt lat="44.05179" lon="6.14922">
        <ele>532.2</ele>
        <time>2020-10-18T10:02:40Z</time>
      </trkpt>
      <trkpt lat="44.05174" lon="6.14922">
        <ele>532</ele>
        <time>2020-10-18T10:02:41Z</time>
      </trkpt>
      <trkpt lat="44.05171" lon="6.14919">
        <ele>532</ele>
        <time>2020-10-18T10:02:42Z</time>
      </trkpt>
      <trkpt lat="44.05169" lon="6.14914">
        <ele>531.8</ele>
        <time>2020-10-18T10:02:43Z</time>
      </trkpt>
      <trkpt lat="44.05167" lon="6.14909">
        <ele>531.4</ele>
        <time>2020-10-18T10:02:44Z</time>
      </trkpt>
      <trkpt lat="44.05165" lon="6.14904">
        <ele>531</ele>
        <time>2020-10-18T10:02:45Z</time>
      </trkpt>
      <trkpt lat="44.05164" lon="6.14898">
        <ele>531</ele>
        <time>2020-10-18T10:02:46Z</time>
      </trkpt>
      <trkpt lat="44.05162" lon="6.14893">
        <ele>531</ele>
        <time>2020-10-18T10:02:47Z</time>
      </trkpt>
      <trkpt lat="44.05161" lon="6.14888">
        <ele>530.8</ele>
        <time>2020-10-18T10:02:48Z</time>
      </trkpt>
      <trkpt lat="44.0516" lon="6.14883">
        <ele>530.8</ele>
        <time>2020-10-18T10:02:49Z</time>
      </trkpt>
      <trkpt lat="44.05157" lon="6.14871">
        <ele>530.6</ele>
        <time>2020-10-18T10:02:51Z</time>
      </trkpt>
      <trkpt lat="44.05153" lon="6.14859">
        <ele>530.2</ele>
        <time>2020-10-18T10:02:53Z</time>
      </trkpt>
      <trkpt lat="44.0515" lon="6.14846">
        <ele>530.2</ele>
        <time>2020-10-18T10:02:55Z</time>
      </trkpt>
      <trkpt lat="44.05149" lon="6.1484">
        <ele>530</ele>
        <time>2020-10-18T10:02:56Z</time>
      </trkpt>
      <trkpt lat="44.05149" lon="6.14834">
        <ele>530.2</ele>
        <time>2020-10-18T10:02:57Z</time>
      </trkpt>
      <trkpt lat="44.0515" lon="6.14828">
        <ele>530</ele>
        <time>2020-10-18T10:02:58Z</time>
      </trkpt>
      <trkpt lat="44.05152" lon="6.14822">
        <ele>530</ele>
        <time>2020-10-18T10:02:59Z</time>
      </trkpt>
      <trkpt lat="44.05154" lon="6.14818">
        <ele>530</ele>
        <time>2020-10-18T10:03:00Z</time>
      </trkpt>
      <trkpt lat="44.05157" lon="6.14813">
        <ele>530</ele>
        <time>2020-10-18T10:03:01Z</time>
      </trkpt>
      <trkpt lat="44.05159" lon="6.14808">
        <ele>530</ele>
        <time>2020-10-18T10:03:02Z</time>
      </trkpt>
      <trkpt lat="44.0516" lon="6.14803">
        <ele>530</ele>
        <time>2020-10-18T10:03:03Z</time>
      </trkpt>
      <trkpt lat="44.05161" lon="6.14791">
        <ele>530</ele>
        <time>2020-10-18T10:03:05Z</time>
      </trkpt>
      <trkpt lat="44.05161" lon="6.14785">
        <ele>530</ele>
        <time>2020-10-18T10:03:06Z</time>
      </trkpt>
      <trkpt lat="44.05161" lon="6.14778">
        <ele>530.2</ele>
        <time>2020-10-18T10:03:07Z</time>
      </trkpt>
      <trkpt lat="44.0516" lon="6.14766">
        <ele>530.2</ele>
        <time>2020-10-18T10:03:09Z</time>
      </trkpt>
      <trkpt lat="44.05158" lon="6.14754">
        <ele>530.8</ele>
        <time>2020-10-18T10:03:11Z</time>
      </trkpt>
      <trkpt lat="44.05157" lon="6.14748">
        <ele>531</ele>
        <time>2020-10-18T10:03:12Z</time>
      </trkpt>
      <trkpt lat="44.05156" lon="6.14741">
        <ele>531</ele>
        <time>2020-10-18T10:03:13Z</time>
      </trkpt>
      <trkpt lat="44.05154" lon="6.14729">
        <ele>531.4</ele>
        <time>2020-10-18T10:03:15Z</time>
      </trkpt>
      <trkpt lat="44.05151" lon="6.14717">
        <ele>531.4</ele>
        <time>2020-10-18T10:03:17Z</time>
      </trkpt>
      <trkpt lat="44.0515" lon="6.14711">
        <ele>531.4</ele>
        <time>2020-10-18T10:03:18Z</time>
      </trkpt>
      <trkpt lat="44.05148" lon="6.14704">
        <ele>531.6</ele>
        <time>2020-10-18T10:03:19Z</time>
      </trkpt>
      <trkpt lat="44.05145" lon="6.14691">
        <ele>531.6</ele>
        <time>2020-10-18T10:03:21Z</time>
      </trkpt>
      <trkpt lat="44.05142" lon="6.14677">
        <ele>531.6</ele>
        <time>2020-10-18T10:03:23Z</time>
      </trkpt>
      <trkpt lat="44.05139" lon="6.14662">
        <ele>531.6</ele>
        <time>2020-10-18T10:03:25Z</time>
      </trkpt>
      <trkpt lat="44.05134" lon="6.14647">
        <ele>531.8</ele>
        <time>2020-10-18T10:03:27Z</time>
      </trkpt>
      <trkpt lat="44.05131" lon="6.14639">
        <ele>531.6</ele>
        <time>2020-10-18T10:03:28Z</time>
      </trkpt>
      <trkpt lat="44.05128" lon="6.14633">
        <ele>531.6</ele>
        <time>2020-10-18T10:03:29Z</time>
      </trkpt>
      <trkpt lat="44.05124" lon="6.14629">
        <ele>531.6</ele>
        <time>2020-10-18T10:03:30Z</time>
      </trkpt>
      <trkpt lat="44.05119" lon="6.14628">
        <ele>531.6</ele>
        <time>2020-10-18T10:03:31Z</time>
      </trkpt>
      <trkpt lat="44.05113" lon="6.14629">
        <ele>531.4</ele>
        <time>2020-10-18T10:03:32Z</time>
      </trkpt>
      <trkpt lat="44.05107" lon="6.14631">
        <ele>531.4</ele>
        <time>2020-10-18T10:03:33Z</time>
      </trkpt>
      <trkpt lat="44.051" lon="6.14635">
        <ele>531</ele>
        <time>2020-10-18T10:03:34Z</time>
      </trkpt>
      <trkpt lat="44.05094" lon="6.14638">
        <ele>530.8</ele>
        <time>2020-10-18T10:03:35Z</time>
      </trkpt>
      <trkpt lat="44.05087" lon="6.14641">
        <ele>530.4</ele>
        <time>2020-10-18T10:03:36Z</time>
      </trkpt>
      <trkpt lat="44.0508" lon="6.14643">
        <ele>530.2</ele>
        <time>2020-10-18T10:03:37Z</time>
      </trkpt>
      <trkpt lat="44.05073" lon="6.14643">
        <ele>530.2</ele>
        <time>2020-10-18T10:03:38Z</time>
      </trkpt>
      <trkpt lat="44.05066" lon="6.14643">
        <ele>529.8</ele>
        <time>2020-10-18T10:03:39Z</time>
      </trkpt>
      <trkpt lat="44.05058" lon="6.14642">
        <ele>529.6</ele>
        <time>2020-10-18T10:03:40Z</time>
      </trkpt>
      <trkpt lat="44.05051" lon="6.14641">
        <ele>529.6</ele>
        <time>2020-10-18T10:03:41Z</time>
      </trkpt>
      <trkpt lat="44.05038" lon="6.14637">
        <ele>528.6</ele>
        <time>2020-10-18T10:03:43Z</time>
      </trkpt>
      <trkpt lat="44.05033" lon="6.14635">
        <ele>527.8</ele>
        <time>2020-10-18T10:03:44Z</time>
      </trkpt>
      <trkpt lat="44.05027" lon="6.14636">
        <ele>527</ele>
        <time>2020-10-18T10:03:45Z</time>
      </trkpt>
      <trkpt lat="44.05022" lon="6.14637">
        <ele>526.4</ele>
        <time>2020-10-18T10:03:46Z</time>
      </trkpt>
      <trkpt lat="44.05018" lon="6.1464">
        <ele>526.4</ele>
        <time>2020-10-18T10:03:47Z</time>
      </trkpt>
      <trkpt lat="44.05014" lon="6.14642">
        <ele>525.6</ele>
        <time>2020-10-18T10:03:48Z</time>
      </trkpt>
      <trkpt lat="44.05011" lon="6.14643">
        <ele>525.4</ele>
        <time>2020-10-18T10:03:49Z</time>
      </trkpt>
      <trkpt lat="44.05009" lon="6.14646">
        <ele>525</ele>
        <time>2020-10-18T10:03:50Z</time>
      </trkpt>
      <trkpt lat="44.05007" lon="6.14648">
        <ele>524.8</ele>
        <time>2020-10-18T10:03:51Z</time>
      </trkpt>
      <trkpt lat="44.05004" lon="6.14649">
        <ele>524.6</ele>
        <time>2020-10-18T10:03:52Z</time>
      </trkpt>
      <trkpt lat="44.05002" lon="6.14651">
        <ele>524.6</ele>
        <time>2020-10-18T10:03:53Z</time>
      </trkpt>
      <trkpt lat="44.04999" lon="6.14652">
        <ele>524.2</ele>
        <time>2020-10-18T10:03:54Z</time>
      </trkpt>
      <trkpt lat="44.04996" lon="6.14652">
        <ele>524</ele>
        <time>2020-10-18T10:03:55Z</time>
      </trkpt>
      <trkpt lat="44.04993" lon="6.14651">
        <ele>523.8</ele>
        <time>2020-10-18T10:03:56Z</time>
      </trkpt>
      <trkpt lat="44.04991" lon="6.14651">
        <ele>523.6</ele>
        <time>2020-10-18T10:03:57Z</time>
      </trkpt>
      <trkpt lat="44.04988" lon="6.14651">
        <ele>523.6</ele>
        <time>2020-10-18T10:03:58Z</time>
      </trkpt>
      <trkpt lat="44.04986" lon="6.14651">
        <ele>523.4</ele>
        <time>2020-10-18T10:03:59Z</time>
      </trkpt>
      <trkpt lat="44.04984" lon="6.14651">
        <ele>523.4</ele>
        <time>2020-10-18T10:04:00Z</time>
      </trkpt>
      <trkpt lat="44.04982" lon="6.14652">
        <ele>523.4</ele>
        <time>2020-10-18T10:04:01Z</time>
      </trkpt>
      <trkpt lat="44.04979" lon="6.14653">
        <ele>523.2</ele>
        <time>2020-10-18T10:04:02Z</time>
      </trkpt>
      <trkpt lat="44.04977" lon="6.14655">
        <ele>523.2</ele>
        <time>2020-10-18T10:04:03Z</time>
      </trkpt>
      <trkpt lat="44.04974" lon="6.14657">
        <ele>522.8</ele>
        <time>2020-10-18T10:04:04Z</time>
      </trkpt>
      <trkpt lat="44.04971" lon="6.14658">
        <ele>522.6</ele>
        <time>2020-10-18T10:04:05Z</time>
      </trkpt>
      <trkpt lat="44.04969" lon="6.14658">
        <ele>522.6</ele>
        <time>2020-10-18T10:04:06Z</time>
      </trkpt>
      <trkpt lat="44.04967" lon="6.14658">
        <ele>522.6</ele>
        <time>2020-10-18T10:04:07Z</time>
      </trkpt>
      <trkpt lat="44.04965" lon="6.14658">
        <ele>522.4</ele>
        <time>2020-10-18T10:04:08Z</time>
      </trkpt>
      <trkpt lat="44.04962" lon="6.14658">
        <ele>522.4</ele>
        <time>2020-10-18T10:04:09Z</time>
      </trkpt>
      <trkpt lat="44.04956" lon="6.14658">
        <ele>522.4</ele>
        <time>2020-10-18T10:04:11Z</time>
      </trkpt>
      <trkpt lat="44.04952" lon="6.14659">
        <ele>522.4</ele>
        <time>2020-10-18T10:04:12Z</time>
      </trkpt>
      <trkpt lat="44.04949" lon="6.14661">
        <ele>522.2</ele>
        <time>2020-10-18T10:04:13Z</time>
      </trkpt>
      <trkpt lat="44.04944" lon="6.14664">
        <ele>522.2</ele>
        <time>2020-10-18T10:04:14Z</time>
      </trkpt>
      <trkpt lat="44.0494" lon="6.14668">
        <ele>522.2</ele>
        <time>2020-10-18T10:04:15Z</time>
      </trkpt>
      <trkpt lat="44.04936" lon="6.14672">
        <ele>522</ele>
        <time>2020-10-18T10:04:16Z</time>
      </trkpt>
      <trkpt lat="44.04931" lon="6.14676">
        <ele>521.8</ele>
        <time>2020-10-18T10:04:17Z</time>
      </trkpt>
      <trkpt lat="44.04922" lon="6.14685">
        <ele>521.8</ele>
        <time>2020-10-18T10:04:19Z</time>
      </trkpt>
      <trkpt lat="44.04911" lon="6.14693">
        <ele>521.4</ele>
        <time>2020-10-18T10:04:21Z</time>
      </trkpt>
      <trkpt lat="44.049" lon="6.14701">
        <ele>521</ele>
        <time>2020-10-18T10:04:23Z</time>
      </trkpt>
      <trkpt lat="44.04895" lon="6.14706">
        <ele>520.8</ele>
        <time>2020-10-18T10:04:24Z</time>
      </trkpt>
      <trkpt lat="44.0489" lon="6.1471">
        <ele>520.8</ele>
        <time>2020-10-18T10:04:25Z</time>
      </trkpt>
      <trkpt lat="44.0488" lon="6.1472">
        <ele>520</ele>
        <time>2020-10-18T10:04:27Z</time>
      </trkpt>
      <trkpt lat="44.04876" lon="6.14725">
        <ele>519.4</ele>
        <time>2020-10-18T10:04:28Z</time>
      </trkpt>
      <trkpt lat="44.04871" lon="6.1473">
        <ele>518.6</ele>
        <time>2020-10-18T10:04:29Z</time>
      </trkpt>
      <trkpt lat="44.04867" lon="6.14734">
        <ele>518.2</ele>
        <time>2020-10-18T10:04:30Z</time>
      </trkpt>
      <trkpt lat="44.04863" lon="6.14739">
        <ele>518</ele>
        <time>2020-10-18T10:04:31Z</time>
      </trkpt>
      <trkpt lat="44.04859" lon="6.14743">
        <ele>517.6</ele>
        <time>2020-10-18T10:04:32Z</time>
      </trkpt>
      <trkpt lat="44.04854" lon="6.14747">
        <ele>517.6</ele>
        <time>2020-10-18T10:04:33Z</time>
      </trkpt>
      <trkpt lat="44.0485" lon="6.14751">
        <ele>517.4</ele>
        <time>2020-10-18T10:04:34Z</time>
      </trkpt>
      <trkpt lat="44.04845" lon="6.14755">
        <ele>517.4</ele>
        <time>2020-10-18T10:04:35Z</time>
      </trkpt>
      <trkpt lat="44.04835" lon="6.14763">
        <ele>517</ele>
        <time>2020-10-18T10:04:37Z</time>
      </trkpt>
      <trkpt lat="44.04824" lon="6.1477">
        <ele>517</ele>
        <time>2020-10-18T10:04:39Z</time>
      </trkpt>
      <trkpt lat="44.04819" lon="6.14774">
        <ele>516.8</ele>
        <time>2020-10-18T10:04:40Z</time>
      </trkpt>
      <trkpt lat="44.04813" lon="6.14778">
        <ele>516.6</ele>
        <time>2020-10-18T10:04:41Z</time>
      </trkpt>
      <trkpt lat="44.04802" lon="6.14785">
        <ele>516.6</ele>
        <time>2020-10-18T10:04:43Z</time>
      </trkpt>
      <trkpt lat="44.04796" lon="6.14788">
        <ele>516.6</ele>
        <time>2020-10-18T10:04:44Z</time>
      </trkpt>
      <trkpt lat="44.0479" lon="6.14791">
        <ele>516.2</ele>
        <time>2020-10-18T10:04:45Z</time>
      </trkpt>
      <trkpt lat="44.04785" lon="6.14794">
        <ele>516</ele>
        <time>2020-10-18T10:04:46Z</time>
      </trkpt>
      <trkpt lat="44.04779" lon="6.14798">
        <ele>515.8</ele>
        <time>2020-10-18T10:04:47Z</time>
      </trkpt>
      <trkpt lat="44.04774" lon="6.14801">
        <ele>515.4</ele>
        <time>2020-10-18T10:04:48Z</time>
      </trkpt>
      <trkpt lat="44.04769" lon="6.14804">
        <ele>515</ele>
        <time>2020-10-18T10:04:49Z</time>
      </trkpt>
      <trkpt lat="44.04764" lon="6.14808">
        <ele>514.6</ele>
        <time>2020-10-18T10:04:50Z</time>
      </trkpt>
      <trkpt lat="44.04759" lon="6.14811">
        <ele>514.6</ele>
        <time>2020-10-18T10:04:51Z</time>
      </trkpt>
      <trkpt lat="44.04755" lon="6.14815">
        <ele>514.4</ele>
        <time>2020-10-18T10:04:52Z</time>
      </trkpt>
      <trkpt lat="44.0475" lon="6.14818">
        <ele>514.6</ele>
        <time>2020-10-18T10:04:53Z</time>
      </trkpt>
      <trkpt lat="44.04746" lon="6.14822">
        <ele>514.4</ele>
        <time>2020-10-18T10:04:54Z</time>
      </trkpt>
      <trkpt lat="44.04741" lon="6.14825">
        <ele>514.4</ele>
        <time>2020-10-18T10:04:55Z</time>
      </trkpt>
      <trkpt lat="44.04733" lon="6.14833">
        <ele>514.6</ele>
        <time>2020-10-18T10:04:57Z</time>
      </trkpt>
      <trkpt lat="44.04729" lon="6.14837">
        <ele>514.4</ele>
        <time>2020-10-18T10:04:58Z</time>
      </trkpt>
      <trkpt lat="44.04725" lon="6.14841">
        <ele>514.6</ele>
        <time>2020-10-18T10:04:59Z</time>
      </trkpt>
      <trkpt lat="44.04721" lon="6.14845">
        <ele>514.6</ele>
        <time>2020-10-18T10:05:00Z</time>
      </trkpt>
      <trkpt lat="44.04717" lon="6.14848">
        <ele>514.6</ele>
        <time>2020-10-18T10:05:01Z</time>
      </trkpt>
      <trkpt lat="44.04714" lon="6.14852">
        <ele>514.8</ele>
        <time>2020-10-18T10:05:02Z</time>
      </trkpt>
      <trkpt lat="44.0471" lon="6.14855">
        <ele>514.8</ele>
        <time>2020-10-18T10:05:03Z</time>
      </trkpt>
      <trkpt lat="44.04702" lon="6.14857">
        <ele>515</ele>
        <time>2020-10-18T10:05:05Z</time>
      </trkpt>
      <trkpt lat="44.04697" lon="6.14856">
        <ele>515</ele>
        <time>2020-10-18T10:05:06Z</time>
      </trkpt>
      <trkpt lat="44.04693" lon="6.14855">
        <ele>514.8</ele>
        <time>2020-10-18T10:05:07Z</time>
      </trkpt>
      <trkpt lat="44.04688" lon="6.14853">
        <ele>514.8</ele>
        <time>2020-10-18T10:05:08Z</time>
      </trkpt>
      <trkpt lat="44.04684" lon="6.1485">
        <ele>514.8</ele>
        <time>2020-10-18T10:05:09Z</time>
      </trkpt>
      <trkpt lat="44.04679" lon="6.14847">
        <ele>514.8</ele>
        <time>2020-10-18T10:05:10Z</time>
      </trkpt>
      <trkpt lat="44.04675" lon="6.14842">
        <ele>514.8</ele>
        <time>2020-10-18T10:05:11Z</time>
      </trkpt>
      <trkpt lat="44.04671" lon="6.14836">
        <ele>514.6</ele>
        <time>2020-10-18T10:05:12Z</time>
      </trkpt>
      <trkpt lat="44.04668" lon="6.14829">
        <ele>514.6</ele>
        <time>2020-10-18T10:05:13Z</time>
      </trkpt>
      <trkpt lat="44.04666" lon="6.14821">
        <ele>514.6</ele>
        <time>2020-10-18T10:05:14Z</time>
      </trkpt>
      <trkpt lat="44.04664" lon="6.14813">
        <ele>514.8</ele>
        <time>2020-10-18T10:05:15Z</time>
      </trkpt>
      <trkpt lat="44.04662" lon="6.14805">
        <ele>514.6</ele>
        <time>2020-10-18T10:05:16Z</time>
      </trkpt>
      <trkpt lat="44.04661" lon="6.14796">
        <ele>514.4</ele>
        <time>2020-10-18T10:05:17Z</time>
      </trkpt>
      <trkpt lat="44.04659" lon="6.14787">
        <ele>514</ele>
        <time>2020-10-18T10:05:18Z</time>
      </trkpt>
      <trkpt lat="44.04658" lon="6.14779">
        <ele>514</ele>
        <time>2020-10-18T10:05:19Z</time>
      </trkpt>
      <trkpt lat="44.04657" lon="6.14762">
        <ele>513.6</ele>
        <time>2020-10-18T10:05:21Z</time>
      </trkpt>
      <trkpt lat="44.04655" lon="6.14744">
        <ele>513.6</ele>
        <time>2020-10-18T10:05:23Z</time>
      </trkpt>
      <trkpt lat="44.04653" lon="6.14726">
        <ele>513.2</ele>
        <time>2020-10-18T10:05:25Z</time>
      </trkpt>
      <trkpt lat="44.04651" lon="6.14708">
        <ele>513</ele>
        <time>2020-10-18T10:05:27Z</time>
      </trkpt>
      <trkpt lat="44.04649" lon="6.14699">
        <ele>512.6</ele>
        <time>2020-10-18T10:05:28Z</time>
      </trkpt>
      <trkpt lat="44.04647" lon="6.1469">
        <ele>512.2</ele>
        <time>2020-10-18T10:05:29Z</time>
      </trkpt>
      <trkpt lat="44.04641" lon="6.14672">
        <ele>512</ele>
        <time>2020-10-18T10:05:31Z</time>
      </trkpt>
      <trkpt lat="44.04636" lon="6.14655">
        <ele>511.6</ele>
        <time>2020-10-18T10:05:33Z</time>
      </trkpt>
      <trkpt lat="44.04633" lon="6.14647">
        <ele>511.6</ele>
        <time>2020-10-18T10:05:34Z</time>
      </trkpt>
      <trkpt lat="44.0463" lon="6.14639">
        <ele>511.6</ele>
        <time>2020-10-18T10:05:35Z</time>
      </trkpt>
      <trkpt lat="44.04624" lon="6.14624">
        <ele>511.6</ele>
        <time>2020-10-18T10:05:37Z</time>
      </trkpt>
      <trkpt lat="44.04622" lon="6.14616">
        <ele>511.4</ele>
        <time>2020-10-18T10:05:38Z</time>
      </trkpt>
      <trkpt lat="44.04619" lon="6.14608">
        <ele>511.4</ele>
        <time>2020-10-18T10:05:39Z</time>
      </trkpt>
      <trkpt lat="44.04616" lon="6.146">
        <ele>511.4</ele>
        <time>2020-10-18T10:05:40Z</time>
      </trkpt>
      <trkpt lat="44.04614" lon="6.14592">
        <ele>511.2</ele>
        <time>2020-10-18T10:05:41Z</time>
      </trkpt>
      <trkpt lat="44.04608" lon="6.14576">
        <ele>511</ele>
        <time>2020-10-18T10:05:43Z</time>
      </trkpt>
      <trkpt lat="44.04603" lon="6.1456">
        <ele>511.2</ele>
        <time>2020-10-18T10:05:45Z</time>
      </trkpt>
      <trkpt lat="44.04598" lon="6.14545">
        <ele>511</ele>
        <time>2020-10-18T10:05:47Z</time>
      </trkpt>
      <trkpt lat="44.04595" lon="6.14537">
        <ele>510.8</ele>
        <time>2020-10-18T10:05:48Z</time>
      </trkpt>
      <trkpt lat="44.04592" lon="6.1453">
        <ele>510.8</ele>
        <time>2020-10-18T10:05:49Z</time>
      </trkpt>
      <trkpt lat="44.0459" lon="6.14522">
        <ele>510.6</ele>
        <time>2020-10-18T10:05:50Z</time>
      </trkpt>
      <trkpt lat="44.04587" lon="6.14514">
        <ele>510.6</ele>
        <time>2020-10-18T10:05:51Z</time>
      </trkpt>
      <trkpt lat="44.04585" lon="6.14507">
        <ele>510.4</ele>
        <time>2020-10-18T10:05:52Z</time>
      </trkpt>
      <trkpt lat="44.04583" lon="6.145">
        <ele>510.4</ele>
        <time>2020-10-18T10:05:53Z</time>
      </trkpt>
      <trkpt lat="44.0458" lon="6.14492">
        <ele>510.4</ele>
        <time>2020-10-18T10:05:54Z</time>
      </trkpt>
      <trkpt lat="44.04578" lon="6.14485">
        <ele>510.2</ele>
        <time>2020-10-18T10:05:55Z</time>
      </trkpt>
      <trkpt lat="44.04575" lon="6.14478">
        <ele>510.2</ele>
        <time>2020-10-18T10:05:56Z</time>
      </trkpt>
      <trkpt lat="44.04573" lon="6.1447">
        <ele>510.2</ele>
        <time>2020-10-18T10:05:57Z</time>
      </trkpt>
      <trkpt lat="44.04568" lon="6.14456">
        <ele>510.2</ele>
        <time>2020-10-18T10:05:59Z</time>
      </trkpt>
      <trkpt lat="44.04566" lon="6.14448">
        <ele>510.2</ele>
        <time>2020-10-18T10:06:00Z</time>
      </trkpt>
      <trkpt lat="44.04564" lon="6.14441">
        <ele>510.2</ele>
        <time>2020-10-18T10:06:01Z</time>
      </trkpt>
      <trkpt lat="44.04561" lon="6.14434">
        <ele>510.2</ele>
        <time>2020-10-18T10:06:02Z</time>
      </trkpt>
    </trkseg>
  </trk>
</gpx>